<?xml version="1.0" encoding="UTF-8" standalone="no" ?>
<gpx xmlns="http://www.topografix.com/GPX/1/1" xmlns:xsi="http://www.w3.org/2001/XMLSchema-instance" xsi:schemaLocation="http://www.topografix.com/GPX/1/1 http://www.topografix.com/GPX/1/1/gpx.xsd" version="1.1" creator="VisuGPX - https://www.visugpx.com">
  <metadata>
    <name>Tour du Beaufortain 6 jours</name>
    <desc><![CDATA[Détour par le "lac" des Saisies]]></desc>
  </metadata>
  <trk>
    <name><![CDATA[Montvalezan Randonnée]]></name>
    <extensions>
      <line xmlns="http://www.topografix.com/GPX/gpx_style/0/2">
        <color>FF0000</color>
        <width>4</width>
      </line>
    </extensions>
    <trkseg>
      <trkpt lat="45.68913" lon="6.70752">
        <ele>1876</ele>
        <time>2022-07-26T05:24:22Z</time>
      </trkpt>
      <trkpt lat="45.68913" lon="6.70753">
        <ele>1876</ele>
        <time>2022-07-26T05:24:23Z</time>
      </trkpt>
      <trkpt lat="45.68913" lon="6.70753">
        <ele>1876</ele>
        <time>2022-07-26T05:24:24Z</time>
      </trkpt>
      <trkpt lat="45.68912" lon="6.70754">
        <ele>1876</ele>
        <time>2022-07-26T05:24:25Z</time>
      </trkpt>
      <trkpt lat="45.68912" lon="6.70754">
        <ele>1876</ele>
        <time>2022-07-26T05:24:26Z</time>
      </trkpt>
      <trkpt lat="45.68911" lon="6.70754">
        <ele>1876</ele>
        <time>2022-07-26T05:24:27Z</time>
      </trkpt>
      <trkpt lat="45.68911" lon="6.70754">
        <ele>1876</ele>
        <time>2022-07-26T05:24:28Z</time>
      </trkpt>
      <trkpt lat="45.6891" lon="6.70754">
        <ele>1877</ele>
        <time>2022-07-26T05:24:37Z</time>
      </trkpt>
      <trkpt lat="45.68909" lon="6.70754">
        <ele>1877</ele>
        <time>2022-07-26T05:24:38Z</time>
      </trkpt>
      <trkpt lat="45.68909" lon="6.70754">
        <ele>1877</ele>
        <time>2022-07-26T05:24:39Z</time>
      </trkpt>
      <trkpt lat="45.68908" lon="6.70753">
        <ele>1877</ele>
        <time>2022-07-26T05:24:40Z</time>
      </trkpt>
      <trkpt lat="45.68907" lon="6.70753">
        <ele>1877</ele>
        <time>2022-07-26T05:24:41Z</time>
      </trkpt>
      <trkpt lat="45.68907" lon="6.70752">
        <ele>1877</ele>
        <time>2022-07-26T05:24:42Z</time>
      </trkpt>
      <trkpt lat="45.68906" lon="6.70752">
        <ele>1877</ele>
        <time>2022-07-26T05:24:43Z</time>
      </trkpt>
      <trkpt lat="45.68905" lon="6.70751">
        <ele>1877</ele>
        <time>2022-07-26T05:24:44Z</time>
      </trkpt>
      <trkpt lat="45.68904" lon="6.7075">
        <ele>1877</ele>
        <time>2022-07-26T05:24:45Z</time>
      </trkpt>
      <trkpt lat="45.68903" lon="6.70749">
        <ele>1877</ele>
        <time>2022-07-26T05:24:46Z</time>
      </trkpt>
      <trkpt lat="45.68903" lon="6.70748">
        <ele>1877</ele>
        <time>2022-07-26T05:24:47Z</time>
      </trkpt>
      <trkpt lat="45.68902" lon="6.70747">
        <ele>1877</ele>
        <time>2022-07-26T05:24:48Z</time>
      </trkpt>
      <trkpt lat="45.68901" lon="6.70747">
        <ele>1877</ele>
        <time>2022-07-26T05:24:49Z</time>
      </trkpt>
      <trkpt lat="45.689" lon="6.70746">
        <ele>1878</ele>
        <time>2022-07-26T05:24:50Z</time>
      </trkpt>
      <trkpt lat="45.68899" lon="6.70745">
        <ele>1878</ele>
        <time>2022-07-26T05:24:51Z</time>
      </trkpt>
      <trkpt lat="45.68899" lon="6.70744">
        <ele>1878</ele>
        <time>2022-07-26T05:24:52Z</time>
      </trkpt>
      <trkpt lat="45.68898" lon="6.70744">
        <ele>1878</ele>
        <time>2022-07-26T05:24:53Z</time>
      </trkpt>
      <trkpt lat="45.68897" lon="6.70743">
        <ele>1878</ele>
        <time>2022-07-26T05:24:54Z</time>
      </trkpt>
      <trkpt lat="45.68896" lon="6.70742">
        <ele>1878</ele>
        <time>2022-07-26T05:24:55Z</time>
      </trkpt>
      <trkpt lat="45.68896" lon="6.70742">
        <ele>1878</ele>
        <time>2022-07-26T05:24:56Z</time>
      </trkpt>
      <trkpt lat="45.68895" lon="6.70742">
        <ele>1878</ele>
        <time>2022-07-26T05:24:57Z</time>
      </trkpt>
      <trkpt lat="45.68894" lon="6.70742">
        <ele>1878</ele>
        <time>2022-07-26T05:24:58Z</time>
      </trkpt>
      <trkpt lat="45.68894" lon="6.70741">
        <ele>1878</ele>
        <time>2022-07-26T05:24:59Z</time>
      </trkpt>
      <trkpt lat="45.68893" lon="6.70741">
        <ele>1878</ele>
        <time>2022-07-26T05:25:00Z</time>
      </trkpt>
      <trkpt lat="45.68892" lon="6.70741">
        <ele>1878</ele>
        <time>2022-07-26T05:25:01Z</time>
      </trkpt>
      <trkpt lat="45.6889" lon="6.7074">
        <ele>1880</ele>
        <time>2022-07-26T05:25:25Z</time>
      </trkpt>
      <trkpt lat="45.68889" lon="6.7074">
        <ele>1880</ele>
        <time>2022-07-26T05:25:26Z</time>
      </trkpt>
      <trkpt lat="45.68887" lon="6.70739">
        <ele>1880</ele>
        <time>2022-07-26T05:25:27Z</time>
      </trkpt>
      <trkpt lat="45.68886" lon="6.70738">
        <ele>1880</ele>
        <time>2022-07-26T05:25:28Z</time>
      </trkpt>
      <trkpt lat="45.68885" lon="6.70738">
        <ele>1880</ele>
        <time>2022-07-26T05:25:29Z</time>
      </trkpt>
      <trkpt lat="45.68885" lon="6.70737">
        <ele>1880</ele>
        <time>2022-07-26T05:25:30Z</time>
      </trkpt>
      <trkpt lat="45.68885" lon="6.70737">
        <ele>1880</ele>
        <time>2022-07-26T05:25:31Z</time>
      </trkpt>
      <trkpt lat="45.68884" lon="6.70737">
        <ele>1880</ele>
        <time>2022-07-26T05:25:32Z</time>
      </trkpt>
      <trkpt lat="45.68884" lon="6.70736">
        <ele>1880</ele>
        <time>2022-07-26T05:25:33Z</time>
      </trkpt>
      <trkpt lat="45.68883" lon="6.70736">
        <ele>1880</ele>
        <time>2022-07-26T05:25:34Z</time>
      </trkpt>
      <trkpt lat="45.68882" lon="6.70735">
        <ele>1881</ele>
        <time>2022-07-26T05:25:35Z</time>
      </trkpt>
      <trkpt lat="45.68881" lon="6.70735">
        <ele>1881</ele>
        <time>2022-07-26T05:25:41Z</time>
      </trkpt>
      <trkpt lat="45.6888" lon="6.70734">
        <ele>1881</ele>
        <time>2022-07-26T05:25:42Z</time>
      </trkpt>
      <trkpt lat="45.68879" lon="6.70734">
        <ele>1881</ele>
        <time>2022-07-26T05:25:43Z</time>
      </trkpt>
      <trkpt lat="45.68878" lon="6.70734">
        <ele>1881</ele>
        <time>2022-07-26T05:25:44Z</time>
      </trkpt>
      <trkpt lat="45.68878" lon="6.70734">
        <ele>1881</ele>
        <time>2022-07-26T05:25:45Z</time>
      </trkpt>
      <trkpt lat="45.68877" lon="6.70735">
        <ele>1881</ele>
        <time>2022-07-26T05:25:46Z</time>
      </trkpt>
      <trkpt lat="45.68877" lon="6.70735">
        <ele>1881</ele>
        <time>2022-07-26T05:25:47Z</time>
      </trkpt>
      <trkpt lat="45.68876" lon="6.70735">
        <ele>1881</ele>
        <time>2022-07-26T05:25:48Z</time>
      </trkpt>
      <trkpt lat="45.68876" lon="6.70735">
        <ele>1881</ele>
        <time>2022-07-26T05:25:49Z</time>
      </trkpt>
      <trkpt lat="45.68875" lon="6.70736">
        <ele>1882</ele>
        <time>2022-07-26T05:25:50Z</time>
      </trkpt>
      <trkpt lat="45.68875" lon="6.70736">
        <ele>1882</ele>
        <time>2022-07-26T05:25:51Z</time>
      </trkpt>
      <trkpt lat="45.68875" lon="6.70736">
        <ele>1882</ele>
        <time>2022-07-26T05:25:52Z</time>
      </trkpt>
      <trkpt lat="45.68874" lon="6.70737">
        <ele>1882</ele>
        <time>2022-07-26T05:25:53Z</time>
      </trkpt>
      <trkpt lat="45.68874" lon="6.70737">
        <ele>1882</ele>
        <time>2022-07-26T05:25:54Z</time>
      </trkpt>
      <trkpt lat="45.68873" lon="6.70738">
        <ele>1882</ele>
        <time>2022-07-26T05:25:55Z</time>
      </trkpt>
      <trkpt lat="45.68872" lon="6.70738">
        <ele>1882</ele>
        <time>2022-07-26T05:25:56Z</time>
      </trkpt>
      <trkpt lat="45.68872" lon="6.70738">
        <ele>1882</ele>
        <time>2022-07-26T05:25:57Z</time>
      </trkpt>
      <trkpt lat="45.68871" lon="6.70738">
        <ele>1882</ele>
        <time>2022-07-26T05:25:58Z</time>
      </trkpt>
      <trkpt lat="45.68871" lon="6.70738">
        <ele>1882</ele>
        <time>2022-07-26T05:25:59Z</time>
      </trkpt>
      <trkpt lat="45.6887" lon="6.70739">
        <ele>1883</ele>
        <time>2022-07-26T05:26:00Z</time>
      </trkpt>
      <trkpt lat="45.6887" lon="6.70739">
        <ele>1883</ele>
        <time>2022-07-26T05:26:01Z</time>
      </trkpt>
      <trkpt lat="45.68869" lon="6.70738">
        <ele>1883</ele>
        <time>2022-07-26T05:26:02Z</time>
      </trkpt>
      <trkpt lat="45.68868" lon="6.70738">
        <ele>1883</ele>
        <time>2022-07-26T05:26:03Z</time>
      </trkpt>
      <trkpt lat="45.68868" lon="6.70738">
        <ele>1883</ele>
        <time>2022-07-26T05:26:04Z</time>
      </trkpt>
      <trkpt lat="45.68868" lon="6.70737">
        <ele>1883</ele>
        <time>2022-07-26T05:26:05Z</time>
      </trkpt>
      <trkpt lat="45.68868" lon="6.70736">
        <ele>1883</ele>
        <time>2022-07-26T05:26:06Z</time>
      </trkpt>
      <trkpt lat="45.68868" lon="6.70736">
        <ele>1883</ele>
        <time>2022-07-26T05:26:07Z</time>
      </trkpt>
      <trkpt lat="45.68867" lon="6.70735">
        <ele>1883</ele>
        <time>2022-07-26T05:26:08Z</time>
      </trkpt>
      <trkpt lat="45.68867" lon="6.70735">
        <ele>1883</ele>
        <time>2022-07-26T05:26:09Z</time>
      </trkpt>
      <trkpt lat="45.68867" lon="6.70734">
        <ele>1883</ele>
        <time>2022-07-26T05:26:10Z</time>
      </trkpt>
      <trkpt lat="45.68867" lon="6.70734">
        <ele>1883</ele>
        <time>2022-07-26T05:26:11Z</time>
      </trkpt>
      <trkpt lat="45.68866" lon="6.70733">
        <ele>1883</ele>
        <time>2022-07-26T05:26:12Z</time>
      </trkpt>
      <trkpt lat="45.68866" lon="6.70733">
        <ele>1883</ele>
        <time>2022-07-26T05:26:13Z</time>
      </trkpt>
      <trkpt lat="45.68865" lon="6.70733">
        <ele>1883</ele>
        <time>2022-07-26T05:26:14Z</time>
      </trkpt>
      <trkpt lat="45.68865" lon="6.70733">
        <ele>1884</ele>
        <time>2022-07-26T05:26:15Z</time>
      </trkpt>
      <trkpt lat="45.68864" lon="6.70732">
        <ele>1884</ele>
        <time>2022-07-26T05:26:16Z</time>
      </trkpt>
      <trkpt lat="45.68864" lon="6.70732">
        <ele>1884</ele>
        <time>2022-07-26T05:26:17Z</time>
      </trkpt>
      <trkpt lat="45.68863" lon="6.70732">
        <ele>1884</ele>
        <time>2022-07-26T05:26:18Z</time>
      </trkpt>
      <trkpt lat="45.68863" lon="6.70732">
        <ele>1884</ele>
        <time>2022-07-26T05:26:19Z</time>
      </trkpt>
      <trkpt lat="45.68862" lon="6.70732">
        <ele>1885</ele>
        <time>2022-07-26T05:26:20Z</time>
      </trkpt>
      <trkpt lat="45.68861" lon="6.70732">
        <ele>1885</ele>
        <time>2022-07-26T05:26:26Z</time>
      </trkpt>
      <trkpt lat="45.6886" lon="6.70732">
        <ele>1885</ele>
        <time>2022-07-26T05:26:27Z</time>
      </trkpt>
      <trkpt lat="45.68859" lon="6.70732">
        <ele>1885</ele>
        <time>2022-07-26T05:26:28Z</time>
      </trkpt>
      <trkpt lat="45.68858" lon="6.70733">
        <ele>1885</ele>
        <time>2022-07-26T05:26:29Z</time>
      </trkpt>
      <trkpt lat="45.68858" lon="6.70733">
        <ele>1885</ele>
        <time>2022-07-26T05:26:30Z</time>
      </trkpt>
      <trkpt lat="45.68857" lon="6.70733">
        <ele>1885</ele>
        <time>2022-07-26T05:26:31Z</time>
      </trkpt>
      <trkpt lat="45.68856" lon="6.70734">
        <ele>1885</ele>
        <time>2022-07-26T05:26:32Z</time>
      </trkpt>
      <trkpt lat="45.68855" lon="6.70733">
        <ele>1886</ele>
        <time>2022-07-26T05:26:38Z</time>
      </trkpt>
      <trkpt lat="45.68855" lon="6.70733">
        <ele>1886</ele>
        <time>2022-07-26T05:26:39Z</time>
      </trkpt>
      <trkpt lat="45.68854" lon="6.70732">
        <ele>1886</ele>
        <time>2022-07-26T05:26:40Z</time>
      </trkpt>
      <trkpt lat="45.68854" lon="6.70732">
        <ele>1886</ele>
        <time>2022-07-26T05:26:41Z</time>
      </trkpt>
      <trkpt lat="45.68853" lon="6.70731">
        <ele>1886</ele>
        <time>2022-07-26T05:26:42Z</time>
      </trkpt>
      <trkpt lat="45.68853" lon="6.70731">
        <ele>1886</ele>
        <time>2022-07-26T05:26:43Z</time>
      </trkpt>
      <trkpt lat="45.68852" lon="6.7073">
        <ele>1886</ele>
        <time>2022-07-26T05:26:44Z</time>
      </trkpt>
      <trkpt lat="45.68852" lon="6.7073">
        <ele>1887</ele>
        <time>2022-07-26T05:26:45Z</time>
      </trkpt>
      <trkpt lat="45.68851" lon="6.70729">
        <ele>1887</ele>
        <time>2022-07-26T05:26:46Z</time>
      </trkpt>
      <trkpt lat="45.68851" lon="6.70729">
        <ele>1887</ele>
        <time>2022-07-26T05:26:47Z</time>
      </trkpt>
      <trkpt lat="45.6885" lon="6.70729">
        <ele>1887</ele>
        <time>2022-07-26T05:26:48Z</time>
      </trkpt>
      <trkpt lat="45.6885" lon="6.70728">
        <ele>1887</ele>
        <time>2022-07-26T05:26:49Z</time>
      </trkpt>
      <trkpt lat="45.68849" lon="6.70728">
        <ele>1888</ele>
        <time>2022-07-26T05:26:56Z</time>
      </trkpt>
      <trkpt lat="45.68848" lon="6.70728">
        <ele>1888</ele>
        <time>2022-07-26T05:26:57Z</time>
      </trkpt>
      <trkpt lat="45.68847" lon="6.70728">
        <ele>1888</ele>
        <time>2022-07-26T05:26:58Z</time>
      </trkpt>
      <trkpt lat="45.68846" lon="6.70728">
        <ele>1888</ele>
        <time>2022-07-26T05:26:59Z</time>
      </trkpt>
      <trkpt lat="45.68846" lon="6.70728">
        <ele>1888</ele>
        <time>2022-07-26T05:27:00Z</time>
      </trkpt>
      <trkpt lat="45.68845" lon="6.70727">
        <ele>1888</ele>
        <time>2022-07-26T05:27:01Z</time>
      </trkpt>
      <trkpt lat="45.68845" lon="6.70727">
        <ele>1888</ele>
        <time>2022-07-26T05:27:02Z</time>
      </trkpt>
      <trkpt lat="45.68844" lon="6.70727">
        <ele>1888</ele>
        <time>2022-07-26T05:27:03Z</time>
      </trkpt>
      <trkpt lat="45.68844" lon="6.70726">
        <ele>1888</ele>
        <time>2022-07-26T05:27:04Z</time>
      </trkpt>
      <trkpt lat="45.68843" lon="6.70726">
        <ele>1889</ele>
        <time>2022-07-26T05:27:05Z</time>
      </trkpt>
      <trkpt lat="45.68842" lon="6.70726">
        <ele>1889</ele>
        <time>2022-07-26T05:27:06Z</time>
      </trkpt>
      <trkpt lat="45.68842" lon="6.70726">
        <ele>1889</ele>
        <time>2022-07-26T05:27:07Z</time>
      </trkpt>
      <trkpt lat="45.68841" lon="6.70725">
        <ele>1889</ele>
        <time>2022-07-26T05:27:08Z</time>
      </trkpt>
      <trkpt lat="45.6884" lon="6.70725">
        <ele>1889</ele>
        <time>2022-07-26T05:27:09Z</time>
      </trkpt>
      <trkpt lat="45.68839" lon="6.70724">
        <ele>1889</ele>
        <time>2022-07-26T05:27:10Z</time>
      </trkpt>
      <trkpt lat="45.68839" lon="6.70723">
        <ele>1889</ele>
        <time>2022-07-26T05:27:11Z</time>
      </trkpt>
      <trkpt lat="45.68838" lon="6.70723">
        <ele>1889</ele>
        <time>2022-07-26T05:27:12Z</time>
      </trkpt>
      <trkpt lat="45.68838" lon="6.70722">
        <ele>1889</ele>
        <time>2022-07-26T05:27:13Z</time>
      </trkpt>
      <trkpt lat="45.68837" lon="6.7072">
        <ele>1891</ele>
        <time>2022-07-26T05:27:28Z</time>
      </trkpt>
      <trkpt lat="45.68837" lon="6.7072">
        <ele>1891</ele>
        <time>2022-07-26T05:27:29Z</time>
      </trkpt>
      <trkpt lat="45.68836" lon="6.70719">
        <ele>1891</ele>
        <time>2022-07-26T05:27:30Z</time>
      </trkpt>
      <trkpt lat="45.68835" lon="6.70718">
        <ele>1891</ele>
        <time>2022-07-26T05:27:31Z</time>
      </trkpt>
      <trkpt lat="45.68835" lon="6.70718">
        <ele>1891</ele>
        <time>2022-07-26T05:27:32Z</time>
      </trkpt>
      <trkpt lat="45.68834" lon="6.70718">
        <ele>1891</ele>
        <time>2022-07-26T05:27:33Z</time>
      </trkpt>
      <trkpt lat="45.68834" lon="6.70718">
        <ele>1891</ele>
        <time>2022-07-26T05:27:34Z</time>
      </trkpt>
      <trkpt lat="45.68833" lon="6.70718">
        <ele>1891</ele>
        <time>2022-07-26T05:27:35Z</time>
      </trkpt>
      <trkpt lat="45.68832" lon="6.70717">
        <ele>1891</ele>
        <time>2022-07-26T05:27:36Z</time>
      </trkpt>
      <trkpt lat="45.68831" lon="6.70717">
        <ele>1891</ele>
        <time>2022-07-26T05:27:37Z</time>
      </trkpt>
      <trkpt lat="45.68831" lon="6.70717">
        <ele>1891</ele>
        <time>2022-07-26T05:27:38Z</time>
      </trkpt>
      <trkpt lat="45.6883" lon="6.70717">
        <ele>1891</ele>
        <time>2022-07-26T05:27:39Z</time>
      </trkpt>
      <trkpt lat="45.68829" lon="6.70717">
        <ele>1891</ele>
        <time>2022-07-26T05:27:40Z</time>
      </trkpt>
      <trkpt lat="45.68829" lon="6.70717">
        <ele>1891</ele>
        <time>2022-07-26T05:27:41Z</time>
      </trkpt>
      <trkpt lat="45.68828" lon="6.70716">
        <ele>1891</ele>
        <time>2022-07-26T05:27:42Z</time>
      </trkpt>
      <trkpt lat="45.68827" lon="6.70716">
        <ele>1891</ele>
        <time>2022-07-26T05:27:43Z</time>
      </trkpt>
      <trkpt lat="45.68827" lon="6.70716">
        <ele>1891</ele>
        <time>2022-07-26T05:27:44Z</time>
      </trkpt>
      <trkpt lat="45.68826" lon="6.70715">
        <ele>1892</ele>
        <time>2022-07-26T05:27:45Z</time>
      </trkpt>
      <trkpt lat="45.68825" lon="6.70715">
        <ele>1892</ele>
        <time>2022-07-26T05:27:46Z</time>
      </trkpt>
      <trkpt lat="45.68825" lon="6.70715">
        <ele>1892</ele>
        <time>2022-07-26T05:27:47Z</time>
      </trkpt>
      <trkpt lat="45.68824" lon="6.70715">
        <ele>1892</ele>
        <time>2022-07-26T05:27:48Z</time>
      </trkpt>
      <trkpt lat="45.68823" lon="6.70714">
        <ele>1892</ele>
        <time>2022-07-26T05:27:49Z</time>
      </trkpt>
      <trkpt lat="45.68822" lon="6.70714">
        <ele>1892</ele>
        <time>2022-07-26T05:27:50Z</time>
      </trkpt>
      <trkpt lat="45.68822" lon="6.70714">
        <ele>1892</ele>
        <time>2022-07-26T05:27:51Z</time>
      </trkpt>
      <trkpt lat="45.68821" lon="6.70713">
        <ele>1892</ele>
        <time>2022-07-26T05:27:52Z</time>
      </trkpt>
      <trkpt lat="45.6882" lon="6.70713">
        <ele>1892</ele>
        <time>2022-07-26T05:27:53Z</time>
      </trkpt>
      <trkpt lat="45.6882" lon="6.70713">
        <ele>1892</ele>
        <time>2022-07-26T05:27:54Z</time>
      </trkpt>
      <trkpt lat="45.6882" lon="6.70712">
        <ele>1892</ele>
        <time>2022-07-26T05:27:55Z</time>
      </trkpt>
      <trkpt lat="45.68819" lon="6.70712">
        <ele>1892</ele>
        <time>2022-07-26T05:27:56Z</time>
      </trkpt>
      <trkpt lat="45.68819" lon="6.70712">
        <ele>1892</ele>
        <time>2022-07-26T05:27:57Z</time>
      </trkpt>
      <trkpt lat="45.68819" lon="6.70712">
        <ele>1892</ele>
        <time>2022-07-26T05:27:58Z</time>
      </trkpt>
      <trkpt lat="45.68819" lon="6.70712">
        <ele>1892</ele>
        <time>2022-07-26T05:27:59Z</time>
      </trkpt>
      <trkpt lat="45.68818" lon="6.70712">
        <ele>1893</ele>
        <time>2022-07-26T05:28:00Z</time>
      </trkpt>
      <trkpt lat="45.68818" lon="6.70711">
        <ele>1893</ele>
        <time>2022-07-26T05:28:01Z</time>
      </trkpt>
      <trkpt lat="45.68817" lon="6.70711">
        <ele>1893</ele>
        <time>2022-07-26T05:28:02Z</time>
      </trkpt>
      <trkpt lat="45.68817" lon="6.70711">
        <ele>1893</ele>
        <time>2022-07-26T05:28:03Z</time>
      </trkpt>
      <trkpt lat="45.68816" lon="6.7071">
        <ele>1893</ele>
        <time>2022-07-26T05:28:04Z</time>
      </trkpt>
      <trkpt lat="45.68815" lon="6.7071">
        <ele>1893</ele>
        <time>2022-07-26T05:28:05Z</time>
      </trkpt>
      <trkpt lat="45.68814" lon="6.70709">
        <ele>1893</ele>
        <time>2022-07-26T05:28:06Z</time>
      </trkpt>
      <trkpt lat="45.68813" lon="6.70709">
        <ele>1893</ele>
        <time>2022-07-26T05:28:07Z</time>
      </trkpt>
      <trkpt lat="45.68812" lon="6.70707">
        <ele>1894</ele>
        <time>2022-07-26T05:28:37Z</time>
      </trkpt>
      <trkpt lat="45.68811" lon="6.70706">
        <ele>1894</ele>
        <time>2022-07-26T05:28:38Z</time>
      </trkpt>
      <trkpt lat="45.68811" lon="6.70706">
        <ele>1894</ele>
        <time>2022-07-26T05:28:39Z</time>
      </trkpt>
      <trkpt lat="45.68811" lon="6.70705">
        <ele>1894</ele>
        <time>2022-07-26T05:28:40Z</time>
      </trkpt>
      <trkpt lat="45.6881" lon="6.70705">
        <ele>1894</ele>
        <time>2022-07-26T05:28:41Z</time>
      </trkpt>
      <trkpt lat="45.68809" lon="6.70705">
        <ele>1894</ele>
        <time>2022-07-26T05:28:42Z</time>
      </trkpt>
      <trkpt lat="45.68809" lon="6.70704">
        <ele>1894</ele>
        <time>2022-07-26T05:28:43Z</time>
      </trkpt>
      <trkpt lat="45.68808" lon="6.70704">
        <ele>1894</ele>
        <time>2022-07-26T05:28:44Z</time>
      </trkpt>
      <trkpt lat="45.68808" lon="6.70704">
        <ele>1895</ele>
        <time>2022-07-26T05:28:45Z</time>
      </trkpt>
      <trkpt lat="45.68807" lon="6.70704">
        <ele>1895</ele>
        <time>2022-07-26T05:28:46Z</time>
      </trkpt>
      <trkpt lat="45.68807" lon="6.70704">
        <ele>1895</ele>
        <time>2022-07-26T05:28:47Z</time>
      </trkpt>
      <trkpt lat="45.68806" lon="6.70705">
        <ele>1895</ele>
        <time>2022-07-26T05:28:58Z</time>
      </trkpt>
      <trkpt lat="45.68805" lon="6.70706">
        <ele>1895</ele>
        <time>2022-07-26T05:28:59Z</time>
      </trkpt>
      <trkpt lat="45.68805" lon="6.70706">
        <ele>1895</ele>
        <time>2022-07-26T05:29:00Z</time>
      </trkpt>
      <trkpt lat="45.68804" lon="6.70707">
        <ele>1895</ele>
        <time>2022-07-26T05:29:01Z</time>
      </trkpt>
      <trkpt lat="45.68804" lon="6.70707">
        <ele>1895</ele>
        <time>2022-07-26T05:29:02Z</time>
      </trkpt>
      <trkpt lat="45.68804" lon="6.70707">
        <ele>1895</ele>
        <time>2022-07-26T05:29:03Z</time>
      </trkpt>
      <trkpt lat="45.68801" lon="6.70706">
        <ele>1896</ele>
        <time>2022-07-26T05:29:18Z</time>
      </trkpt>
      <trkpt lat="45.688" lon="6.70706">
        <ele>1896</ele>
        <time>2022-07-26T05:29:19Z</time>
      </trkpt>
      <trkpt lat="45.68799" lon="6.70706">
        <ele>1897</ele>
        <time>2022-07-26T05:29:20Z</time>
      </trkpt>
      <trkpt lat="45.68798" lon="6.70706">
        <ele>1897</ele>
        <time>2022-07-26T05:29:21Z</time>
      </trkpt>
      <trkpt lat="45.68798" lon="6.70706">
        <ele>1897</ele>
        <time>2022-07-26T05:29:22Z</time>
      </trkpt>
      <trkpt lat="45.68798" lon="6.70706">
        <ele>1897</ele>
        <time>2022-07-26T05:29:23Z</time>
      </trkpt>
      <trkpt lat="45.68797" lon="6.70706">
        <ele>1897</ele>
        <time>2022-07-26T05:29:24Z</time>
      </trkpt>
      <trkpt lat="45.68797" lon="6.70706">
        <ele>1897</ele>
        <time>2022-07-26T05:29:25Z</time>
      </trkpt>
      <trkpt lat="45.68796" lon="6.70707">
        <ele>1897</ele>
        <time>2022-07-26T05:29:26Z</time>
      </trkpt>
      <trkpt lat="45.68795" lon="6.70707">
        <ele>1897</ele>
        <time>2022-07-26T05:29:27Z</time>
      </trkpt>
      <trkpt lat="45.68794" lon="6.70708">
        <ele>1897</ele>
        <time>2022-07-26T05:29:28Z</time>
      </trkpt>
      <trkpt lat="45.68793" lon="6.70708">
        <ele>1897</ele>
        <time>2022-07-26T05:29:29Z</time>
      </trkpt>
      <trkpt lat="45.68793" lon="6.70708">
        <ele>1897</ele>
        <time>2022-07-26T05:29:30Z</time>
      </trkpt>
      <trkpt lat="45.68792" lon="6.70709">
        <ele>1897</ele>
        <time>2022-07-26T05:29:31Z</time>
      </trkpt>
      <trkpt lat="45.68791" lon="6.7071">
        <ele>1897</ele>
        <time>2022-07-26T05:29:32Z</time>
      </trkpt>
      <trkpt lat="45.68791" lon="6.7071">
        <ele>1897</ele>
        <time>2022-07-26T05:29:33Z</time>
      </trkpt>
      <trkpt lat="45.6879" lon="6.7071">
        <ele>1897</ele>
        <time>2022-07-26T05:29:34Z</time>
      </trkpt>
      <trkpt lat="45.68789" lon="6.70711">
        <ele>1898</ele>
        <time>2022-07-26T05:29:35Z</time>
      </trkpt>
      <trkpt lat="45.68789" lon="6.70711">
        <ele>1898</ele>
        <time>2022-07-26T05:29:36Z</time>
      </trkpt>
      <trkpt lat="45.68788" lon="6.70711">
        <ele>1898</ele>
        <time>2022-07-26T05:29:37Z</time>
      </trkpt>
      <trkpt lat="45.68788" lon="6.70711">
        <ele>1898</ele>
        <time>2022-07-26T05:29:38Z</time>
      </trkpt>
      <trkpt lat="45.68787" lon="6.70711">
        <ele>1898</ele>
        <time>2022-07-26T05:29:39Z</time>
      </trkpt>
      <trkpt lat="45.68787" lon="6.70711">
        <ele>1898</ele>
        <time>2022-07-26T05:29:40Z</time>
      </trkpt>
      <trkpt lat="45.68786" lon="6.70711">
        <ele>1898</ele>
        <time>2022-07-26T05:29:41Z</time>
      </trkpt>
      <trkpt lat="45.68786" lon="6.70711">
        <ele>1898</ele>
        <time>2022-07-26T05:29:42Z</time>
      </trkpt>
      <trkpt lat="45.68785" lon="6.7071">
        <ele>1898</ele>
        <time>2022-07-26T05:29:43Z</time>
      </trkpt>
      <trkpt lat="45.68785" lon="6.7071">
        <ele>1898</ele>
        <time>2022-07-26T05:29:44Z</time>
      </trkpt>
      <trkpt lat="45.68784" lon="6.70709">
        <ele>1898</ele>
        <time>2022-07-26T05:29:45Z</time>
      </trkpt>
      <trkpt lat="45.68784" lon="6.70709">
        <ele>1898</ele>
        <time>2022-07-26T05:29:46Z</time>
      </trkpt>
      <trkpt lat="45.68783" lon="6.70708">
        <ele>1898</ele>
        <time>2022-07-26T05:29:47Z</time>
      </trkpt>
      <trkpt lat="45.68783" lon="6.70708">
        <ele>1898</ele>
        <time>2022-07-26T05:29:48Z</time>
      </trkpt>
      <trkpt lat="45.68782" lon="6.70707">
        <ele>1898</ele>
        <time>2022-07-26T05:29:49Z</time>
      </trkpt>
      <trkpt lat="45.68782" lon="6.70707">
        <ele>1899</ele>
        <time>2022-07-26T05:29:50Z</time>
      </trkpt>
      <trkpt lat="45.68781" lon="6.70707">
        <ele>1899</ele>
        <time>2022-07-26T05:29:51Z</time>
      </trkpt>
      <trkpt lat="45.6878" lon="6.70706">
        <ele>1899</ele>
        <time>2022-07-26T05:29:52Z</time>
      </trkpt>
      <trkpt lat="45.6878" lon="6.70706">
        <ele>1899</ele>
        <time>2022-07-26T05:29:53Z</time>
      </trkpt>
      <trkpt lat="45.68779" lon="6.70706">
        <ele>1899</ele>
        <time>2022-07-26T05:29:54Z</time>
      </trkpt>
      <trkpt lat="45.68778" lon="6.70705">
        <ele>1899</ele>
        <time>2022-07-26T05:29:55Z</time>
      </trkpt>
      <trkpt lat="45.68778" lon="6.70704">
        <ele>1899</ele>
        <time>2022-07-26T05:29:56Z</time>
      </trkpt>
      <trkpt lat="45.68778" lon="6.70704">
        <ele>1899</ele>
        <time>2022-07-26T05:29:57Z</time>
      </trkpt>
      <trkpt lat="45.68777" lon="6.70703">
        <ele>1899</ele>
        <time>2022-07-26T05:29:58Z</time>
      </trkpt>
      <trkpt lat="45.68777" lon="6.70703">
        <ele>1899</ele>
        <time>2022-07-26T05:29:59Z</time>
      </trkpt>
      <trkpt lat="45.68776" lon="6.70702">
        <ele>1900</ele>
        <time>2022-07-26T05:30:00Z</time>
      </trkpt>
      <trkpt lat="45.68776" lon="6.70701">
        <ele>1900</ele>
        <time>2022-07-26T05:30:01Z</time>
      </trkpt>
      <trkpt lat="45.68775" lon="6.70701">
        <ele>1900</ele>
        <time>2022-07-26T05:30:02Z</time>
      </trkpt>
      <trkpt lat="45.68775" lon="6.707">
        <ele>1900</ele>
        <time>2022-07-26T05:30:03Z</time>
      </trkpt>
      <trkpt lat="45.68774" lon="6.707">
        <ele>1900</ele>
        <time>2022-07-26T05:30:04Z</time>
      </trkpt>
      <trkpt lat="45.68773" lon="6.70699">
        <ele>1900</ele>
        <time>2022-07-26T05:30:05Z</time>
      </trkpt>
      <trkpt lat="45.68773" lon="6.70699">
        <ele>1900</ele>
        <time>2022-07-26T05:30:06Z</time>
      </trkpt>
      <trkpt lat="45.68772" lon="6.70698">
        <ele>1900</ele>
        <time>2022-07-26T05:30:07Z</time>
      </trkpt>
      <trkpt lat="45.68771" lon="6.70698">
        <ele>1900</ele>
        <time>2022-07-26T05:30:08Z</time>
      </trkpt>
      <trkpt lat="45.6877" lon="6.70697">
        <ele>1900</ele>
        <time>2022-07-26T05:30:09Z</time>
      </trkpt>
      <trkpt lat="45.6877" lon="6.70697">
        <ele>1900</ele>
        <time>2022-07-26T05:30:10Z</time>
      </trkpt>
      <trkpt lat="45.68769" lon="6.70696">
        <ele>1900</ele>
        <time>2022-07-26T05:30:11Z</time>
      </trkpt>
      <trkpt lat="45.68768" lon="6.70695">
        <ele>1900</ele>
        <time>2022-07-26T05:30:12Z</time>
      </trkpt>
      <trkpt lat="45.68768" lon="6.70695">
        <ele>1900</ele>
        <time>2022-07-26T05:30:13Z</time>
      </trkpt>
      <trkpt lat="45.68766" lon="6.70692">
        <ele>1900</ele>
        <time>2022-07-26T05:30:20Z</time>
      </trkpt>
      <trkpt lat="45.68765" lon="6.70692">
        <ele>1900</ele>
        <time>2022-07-26T05:30:21Z</time>
      </trkpt>
      <trkpt lat="45.68765" lon="6.70691">
        <ele>1900</ele>
        <time>2022-07-26T05:30:22Z</time>
      </trkpt>
      <trkpt lat="45.68764" lon="6.7069">
        <ele>1900</ele>
        <time>2022-07-26T05:30:23Z</time>
      </trkpt>
      <trkpt lat="45.68764" lon="6.7069">
        <ele>1900</ele>
        <time>2022-07-26T05:30:24Z</time>
      </trkpt>
      <trkpt lat="45.68763" lon="6.7069">
        <ele>1901</ele>
        <time>2022-07-26T05:30:25Z</time>
      </trkpt>
      <trkpt lat="45.68763" lon="6.7069">
        <ele>1901</ele>
        <time>2022-07-26T05:30:26Z</time>
      </trkpt>
      <trkpt lat="45.68762" lon="6.70689">
        <ele>1901</ele>
        <time>2022-07-26T05:30:27Z</time>
      </trkpt>
      <trkpt lat="45.68761" lon="6.70689">
        <ele>1901</ele>
        <time>2022-07-26T05:30:28Z</time>
      </trkpt>
      <trkpt lat="45.68761" lon="6.70689">
        <ele>1901</ele>
        <time>2022-07-26T05:30:29Z</time>
      </trkpt>
      <trkpt lat="45.6876" lon="6.70689">
        <ele>1901</ele>
        <time>2022-07-26T05:30:30Z</time>
      </trkpt>
      <trkpt lat="45.6876" lon="6.70689">
        <ele>1901</ele>
        <time>2022-07-26T05:30:31Z</time>
      </trkpt>
      <trkpt lat="45.68759" lon="6.70689">
        <ele>1901</ele>
        <time>2022-07-26T05:30:32Z</time>
      </trkpt>
      <trkpt lat="45.68759" lon="6.70689">
        <ele>1901</ele>
        <time>2022-07-26T05:30:33Z</time>
      </trkpt>
      <trkpt lat="45.68758" lon="6.70689">
        <ele>1901</ele>
        <time>2022-07-26T05:30:34Z</time>
      </trkpt>
      <trkpt lat="45.68758" lon="6.7069">
        <ele>1901</ele>
        <time>2022-07-26T05:30:35Z</time>
      </trkpt>
      <trkpt lat="45.68758" lon="6.7069">
        <ele>1901</ele>
        <time>2022-07-26T05:30:36Z</time>
      </trkpt>
      <trkpt lat="45.68757" lon="6.7069">
        <ele>1901</ele>
        <time>2022-07-26T05:30:37Z</time>
      </trkpt>
      <trkpt lat="45.68757" lon="6.7069">
        <ele>1901</ele>
        <time>2022-07-26T05:30:38Z</time>
      </trkpt>
      <trkpt lat="45.68757" lon="6.70691">
        <ele>1901</ele>
        <time>2022-07-26T05:30:39Z</time>
      </trkpt>
      <trkpt lat="45.68756" lon="6.70691">
        <ele>1902</ele>
        <time>2022-07-26T05:30:40Z</time>
      </trkpt>
      <trkpt lat="45.68756" lon="6.70692">
        <ele>1902</ele>
        <time>2022-07-26T05:30:41Z</time>
      </trkpt>
      <trkpt lat="45.68755" lon="6.70692">
        <ele>1902</ele>
        <time>2022-07-26T05:30:42Z</time>
      </trkpt>
      <trkpt lat="45.68755" lon="6.70692">
        <ele>1902</ele>
        <time>2022-07-26T05:30:43Z</time>
      </trkpt>
      <trkpt lat="45.68754" lon="6.70692">
        <ele>1902</ele>
        <time>2022-07-26T05:30:44Z</time>
      </trkpt>
      <trkpt lat="45.68754" lon="6.70692">
        <ele>1902</ele>
        <time>2022-07-26T05:30:45Z</time>
      </trkpt>
      <trkpt lat="45.68753" lon="6.70692">
        <ele>1902</ele>
        <time>2022-07-26T05:30:46Z</time>
      </trkpt>
      <trkpt lat="45.68752" lon="6.70692">
        <ele>1902</ele>
        <time>2022-07-26T05:30:47Z</time>
      </trkpt>
      <trkpt lat="45.68752" lon="6.70692">
        <ele>1903</ele>
        <time>2022-07-26T05:30:48Z</time>
      </trkpt>
      <trkpt lat="45.68751" lon="6.70691">
        <ele>1903</ele>
        <time>2022-07-26T05:30:49Z</time>
      </trkpt>
      <trkpt lat="45.68751" lon="6.70691">
        <ele>1904</ele>
        <time>2022-07-26T05:30:50Z</time>
      </trkpt>
      <trkpt lat="45.6875" lon="6.70691">
        <ele>1904</ele>
        <time>2022-07-26T05:30:51Z</time>
      </trkpt>
      <trkpt lat="45.6875" lon="6.7069">
        <ele>1904</ele>
        <time>2022-07-26T05:30:52Z</time>
      </trkpt>
      <trkpt lat="45.68749" lon="6.7069">
        <ele>1904</ele>
        <time>2022-07-26T05:30:53Z</time>
      </trkpt>
      <trkpt lat="45.68748" lon="6.70689">
        <ele>1904</ele>
        <time>2022-07-26T05:30:54Z</time>
      </trkpt>
      <trkpt lat="45.68748" lon="6.70689">
        <ele>1904</ele>
        <time>2022-07-26T05:30:55Z</time>
      </trkpt>
      <trkpt lat="45.68745" lon="6.70688">
        <ele>1905</ele>
        <time>2022-07-26T05:31:07Z</time>
      </trkpt>
      <trkpt lat="45.68744" lon="6.70688">
        <ele>1905</ele>
        <time>2022-07-26T05:31:08Z</time>
      </trkpt>
      <trkpt lat="45.68743" lon="6.70688">
        <ele>1905</ele>
        <time>2022-07-26T05:31:09Z</time>
      </trkpt>
      <trkpt lat="45.68742" lon="6.70688">
        <ele>1906</ele>
        <time>2022-07-26T05:31:10Z</time>
      </trkpt>
      <trkpt lat="45.68742" lon="6.70688">
        <ele>1906</ele>
        <time>2022-07-26T05:31:11Z</time>
      </trkpt>
      <trkpt lat="45.68741" lon="6.70688">
        <ele>1906</ele>
        <time>2022-07-26T05:31:12Z</time>
      </trkpt>
      <trkpt lat="45.68738" lon="6.7069">
        <ele>1908</ele>
        <time>2022-07-26T05:31:31Z</time>
      </trkpt>
      <trkpt lat="45.68736" lon="6.70691">
        <ele>1908</ele>
        <time>2022-07-26T05:31:32Z</time>
      </trkpt>
      <trkpt lat="45.68735" lon="6.70692">
        <ele>1908</ele>
        <time>2022-07-26T05:31:33Z</time>
      </trkpt>
      <trkpt lat="45.68732" lon="6.70693">
        <ele>1909</ele>
        <time>2022-07-26T05:31:41Z</time>
      </trkpt>
      <trkpt lat="45.68731" lon="6.70694">
        <ele>1909</ele>
        <time>2022-07-26T05:31:42Z</time>
      </trkpt>
      <trkpt lat="45.6873" lon="6.70694">
        <ele>1909</ele>
        <time>2022-07-26T05:31:43Z</time>
      </trkpt>
      <trkpt lat="45.6873" lon="6.70694">
        <ele>1909</ele>
        <time>2022-07-26T05:31:44Z</time>
      </trkpt>
      <trkpt lat="45.68729" lon="6.70694">
        <ele>1909</ele>
        <time>2022-07-26T05:31:45Z</time>
      </trkpt>
      <trkpt lat="45.68729" lon="6.70694">
        <ele>1909</ele>
        <time>2022-07-26T05:31:46Z</time>
      </trkpt>
      <trkpt lat="45.68727" lon="6.70693">
        <ele>1911</ele>
        <time>2022-07-26T05:33:45Z</time>
      </trkpt>
      <trkpt lat="45.68727" lon="6.70692">
        <ele>1911</ele>
        <time>2022-07-26T05:33:46Z</time>
      </trkpt>
      <trkpt lat="45.68726" lon="6.70691">
        <ele>1911</ele>
        <time>2022-07-26T05:33:47Z</time>
      </trkpt>
      <trkpt lat="45.68725" lon="6.70691">
        <ele>1911</ele>
        <time>2022-07-26T05:33:48Z</time>
      </trkpt>
      <trkpt lat="45.68724" lon="6.7069">
        <ele>1911</ele>
        <time>2022-07-26T05:33:49Z</time>
      </trkpt>
      <trkpt lat="45.68724" lon="6.70689">
        <ele>1911</ele>
        <time>2022-07-26T05:33:50Z</time>
      </trkpt>
      <trkpt lat="45.68723" lon="6.70689">
        <ele>1911</ele>
        <time>2022-07-26T05:33:51Z</time>
      </trkpt>
      <trkpt lat="45.68722" lon="6.70688">
        <ele>1911</ele>
        <time>2022-07-26T05:33:52Z</time>
      </trkpt>
      <trkpt lat="45.68722" lon="6.70688">
        <ele>1911</ele>
        <time>2022-07-26T05:33:53Z</time>
      </trkpt>
      <trkpt lat="45.68721" lon="6.70688">
        <ele>1911</ele>
        <time>2022-07-26T05:33:59Z</time>
      </trkpt>
      <trkpt lat="45.6872" lon="6.70688">
        <ele>1911</ele>
        <time>2022-07-26T05:34:00Z</time>
      </trkpt>
      <trkpt lat="45.68719" lon="6.70688">
        <ele>1911</ele>
        <time>2022-07-26T05:34:01Z</time>
      </trkpt>
      <trkpt lat="45.68718" lon="6.70689">
        <ele>1912</ele>
        <time>2022-07-26T05:34:08Z</time>
      </trkpt>
      <trkpt lat="45.68717" lon="6.70689">
        <ele>1912</ele>
        <time>2022-07-26T05:34:09Z</time>
      </trkpt>
      <trkpt lat="45.68716" lon="6.70689">
        <ele>1912</ele>
        <time>2022-07-26T05:34:10Z</time>
      </trkpt>
      <trkpt lat="45.68715" lon="6.70689">
        <ele>1912</ele>
        <time>2022-07-26T05:34:11Z</time>
      </trkpt>
      <trkpt lat="45.68714" lon="6.70689">
        <ele>1912</ele>
        <time>2022-07-26T05:34:12Z</time>
      </trkpt>
      <trkpt lat="45.68713" lon="6.70689">
        <ele>1912</ele>
        <time>2022-07-26T05:34:13Z</time>
      </trkpt>
      <trkpt lat="45.68713" lon="6.70689">
        <ele>1912</ele>
        <time>2022-07-26T05:34:14Z</time>
      </trkpt>
      <trkpt lat="45.68712" lon="6.70689">
        <ele>1913</ele>
        <time>2022-07-26T05:34:15Z</time>
      </trkpt>
      <trkpt lat="45.68711" lon="6.70689">
        <ele>1913</ele>
        <time>2022-07-26T05:34:16Z</time>
      </trkpt>
      <trkpt lat="45.6871" lon="6.70689">
        <ele>1913</ele>
        <time>2022-07-26T05:34:17Z</time>
      </trkpt>
      <trkpt lat="45.68709" lon="6.70689">
        <ele>1913</ele>
        <time>2022-07-26T05:34:18Z</time>
      </trkpt>
      <trkpt lat="45.68708" lon="6.70689">
        <ele>1913</ele>
        <time>2022-07-26T05:34:19Z</time>
      </trkpt>
      <trkpt lat="45.68707" lon="6.70689">
        <ele>1913</ele>
        <time>2022-07-26T05:34:20Z</time>
      </trkpt>
      <trkpt lat="45.68707" lon="6.70689">
        <ele>1913</ele>
        <time>2022-07-26T05:34:21Z</time>
      </trkpt>
      <trkpt lat="45.68706" lon="6.70688">
        <ele>1913</ele>
        <time>2022-07-26T05:34:22Z</time>
      </trkpt>
      <trkpt lat="45.68705" lon="6.70688">
        <ele>1913</ele>
        <time>2022-07-26T05:34:23Z</time>
      </trkpt>
      <trkpt lat="45.68704" lon="6.70688">
        <ele>1913</ele>
        <time>2022-07-26T05:34:24Z</time>
      </trkpt>
      <trkpt lat="45.68703" lon="6.70687">
        <ele>1913</ele>
        <time>2022-07-26T05:34:25Z</time>
      </trkpt>
      <trkpt lat="45.68703" lon="6.70687">
        <ele>1913</ele>
        <time>2022-07-26T05:34:26Z</time>
      </trkpt>
      <trkpt lat="45.68702" lon="6.70687">
        <ele>1913</ele>
        <time>2022-07-26T05:34:27Z</time>
      </trkpt>
      <trkpt lat="45.68701" lon="6.70686">
        <ele>1913</ele>
        <time>2022-07-26T05:34:28Z</time>
      </trkpt>
      <trkpt lat="45.687" lon="6.70686">
        <ele>1913</ele>
        <time>2022-07-26T05:34:29Z</time>
      </trkpt>
      <trkpt lat="45.687" lon="6.70685">
        <ele>1914</ele>
        <time>2022-07-26T05:34:30Z</time>
      </trkpt>
      <trkpt lat="45.68699" lon="6.70685">
        <ele>1914</ele>
        <time>2022-07-26T05:34:31Z</time>
      </trkpt>
      <trkpt lat="45.68698" lon="6.70684">
        <ele>1914</ele>
        <time>2022-07-26T05:34:32Z</time>
      </trkpt>
      <trkpt lat="45.68697" lon="6.70684">
        <ele>1914</ele>
        <time>2022-07-26T05:34:33Z</time>
      </trkpt>
      <trkpt lat="45.68697" lon="6.70683">
        <ele>1914</ele>
        <time>2022-07-26T05:34:34Z</time>
      </trkpt>
      <trkpt lat="45.68696" lon="6.70683">
        <ele>1915</ele>
        <time>2022-07-26T05:34:35Z</time>
      </trkpt>
      <trkpt lat="45.68695" lon="6.70682">
        <ele>1915</ele>
        <time>2022-07-26T05:34:36Z</time>
      </trkpt>
      <trkpt lat="45.68695" lon="6.70682">
        <ele>1915</ele>
        <time>2022-07-26T05:34:37Z</time>
      </trkpt>
      <trkpt lat="45.68694" lon="6.70681">
        <ele>1915</ele>
        <time>2022-07-26T05:34:38Z</time>
      </trkpt>
      <trkpt lat="45.68693" lon="6.7068">
        <ele>1915</ele>
        <time>2022-07-26T05:34:39Z</time>
      </trkpt>
      <trkpt lat="45.68692" lon="6.7068">
        <ele>1915</ele>
        <time>2022-07-26T05:34:40Z</time>
      </trkpt>
      <trkpt lat="45.68692" lon="6.7068">
        <ele>1915</ele>
        <time>2022-07-26T05:34:41Z</time>
      </trkpt>
      <trkpt lat="45.68691" lon="6.70679">
        <ele>1915</ele>
        <time>2022-07-26T05:34:42Z</time>
      </trkpt>
      <trkpt lat="45.68691" lon="6.70679">
        <ele>1915</ele>
        <time>2022-07-26T05:34:43Z</time>
      </trkpt>
      <trkpt lat="45.6869" lon="6.70679">
        <ele>1915</ele>
        <time>2022-07-26T05:34:44Z</time>
      </trkpt>
      <trkpt lat="45.68689" lon="6.70678">
        <ele>1916</ele>
        <time>2022-07-26T05:34:45Z</time>
      </trkpt>
      <trkpt lat="45.68689" lon="6.70678">
        <ele>1916</ele>
        <time>2022-07-26T05:34:46Z</time>
      </trkpt>
      <trkpt lat="45.68689" lon="6.70678">
        <ele>1916</ele>
        <time>2022-07-26T05:34:47Z</time>
      </trkpt>
      <trkpt lat="45.68688" lon="6.70678">
        <ele>1916</ele>
        <time>2022-07-26T05:34:48Z</time>
      </trkpt>
      <trkpt lat="45.68688" lon="6.70678">
        <ele>1916</ele>
        <time>2022-07-26T05:34:49Z</time>
      </trkpt>
      <trkpt lat="45.68688" lon="6.70677">
        <ele>1916</ele>
        <time>2022-07-26T05:34:50Z</time>
      </trkpt>
      <trkpt lat="45.68687" lon="6.70677">
        <ele>1916</ele>
        <time>2022-07-26T05:34:51Z</time>
      </trkpt>
      <trkpt lat="45.68686" lon="6.70677">
        <ele>1916</ele>
        <time>2022-07-26T05:34:52Z</time>
      </trkpt>
      <trkpt lat="45.68686" lon="6.70676">
        <ele>1916</ele>
        <time>2022-07-26T05:34:53Z</time>
      </trkpt>
      <trkpt lat="45.68686" lon="6.70676">
        <ele>1916</ele>
        <time>2022-07-26T05:34:54Z</time>
      </trkpt>
      <trkpt lat="45.68685" lon="6.70676">
        <ele>1917</ele>
        <time>2022-07-26T05:34:55Z</time>
      </trkpt>
      <trkpt lat="45.68685" lon="6.70676">
        <ele>1917</ele>
        <time>2022-07-26T05:34:56Z</time>
      </trkpt>
      <trkpt lat="45.68684" lon="6.70677">
        <ele>1917</ele>
        <time>2022-07-26T05:34:57Z</time>
      </trkpt>
      <trkpt lat="45.68683" lon="6.70677">
        <ele>1917</ele>
        <time>2022-07-26T05:34:58Z</time>
      </trkpt>
      <trkpt lat="45.68683" lon="6.70677">
        <ele>1917</ele>
        <time>2022-07-26T05:34:59Z</time>
      </trkpt>
      <trkpt lat="45.68682" lon="6.70677">
        <ele>1917</ele>
        <time>2022-07-26T05:35:00Z</time>
      </trkpt>
      <trkpt lat="45.68681" lon="6.70677">
        <ele>1917</ele>
        <time>2022-07-26T05:35:01Z</time>
      </trkpt>
      <trkpt lat="45.68681" lon="6.70676">
        <ele>1917</ele>
        <time>2022-07-26T05:35:02Z</time>
      </trkpt>
      <trkpt lat="45.6868" lon="6.70676">
        <ele>1917</ele>
        <time>2022-07-26T05:35:03Z</time>
      </trkpt>
      <trkpt lat="45.6868" lon="6.70676">
        <ele>1917</ele>
        <time>2022-07-26T05:35:04Z</time>
      </trkpt>
      <trkpt lat="45.68679" lon="6.70676">
        <ele>1918</ele>
        <time>2022-07-26T05:35:05Z</time>
      </trkpt>
      <trkpt lat="45.68678" lon="6.70676">
        <ele>1918</ele>
        <time>2022-07-26T05:35:06Z</time>
      </trkpt>
      <trkpt lat="45.68678" lon="6.70676">
        <ele>1918</ele>
        <time>2022-07-26T05:35:07Z</time>
      </trkpt>
      <trkpt lat="45.68677" lon="6.70675">
        <ele>1918</ele>
        <time>2022-07-26T05:35:08Z</time>
      </trkpt>
      <trkpt lat="45.68676" lon="6.70675">
        <ele>1918</ele>
        <time>2022-07-26T05:35:09Z</time>
      </trkpt>
      <trkpt lat="45.68676" lon="6.70674">
        <ele>1919</ele>
        <time>2022-07-26T05:35:10Z</time>
      </trkpt>
      <trkpt lat="45.68675" lon="6.70673">
        <ele>1919</ele>
        <time>2022-07-26T05:35:11Z</time>
      </trkpt>
      <trkpt lat="45.68674" lon="6.70672">
        <ele>1919</ele>
        <time>2022-07-26T05:35:12Z</time>
      </trkpt>
      <trkpt lat="45.68674" lon="6.70671">
        <ele>1919</ele>
        <time>2022-07-26T05:35:13Z</time>
      </trkpt>
      <trkpt lat="45.68673" lon="6.7067">
        <ele>1919</ele>
        <time>2022-07-26T05:35:14Z</time>
      </trkpt>
      <trkpt lat="45.68672" lon="6.7067">
        <ele>1919</ele>
        <time>2022-07-26T05:35:15Z</time>
      </trkpt>
      <trkpt lat="45.68672" lon="6.70669">
        <ele>1919</ele>
        <time>2022-07-26T05:35:16Z</time>
      </trkpt>
      <trkpt lat="45.68671" lon="6.70669">
        <ele>1919</ele>
        <time>2022-07-26T05:35:17Z</time>
      </trkpt>
      <trkpt lat="45.6867" lon="6.70668">
        <ele>1919</ele>
        <time>2022-07-26T05:35:18Z</time>
      </trkpt>
      <trkpt lat="45.6867" lon="6.70668">
        <ele>1919</ele>
        <time>2022-07-26T05:35:19Z</time>
      </trkpt>
      <trkpt lat="45.68669" lon="6.70667">
        <ele>1920</ele>
        <time>2022-07-26T05:35:20Z</time>
      </trkpt>
      <trkpt lat="45.68668" lon="6.70667">
        <ele>1920</ele>
        <time>2022-07-26T05:35:21Z</time>
      </trkpt>
      <trkpt lat="45.68668" lon="6.70667">
        <ele>1920</ele>
        <time>2022-07-26T05:35:22Z</time>
      </trkpt>
      <trkpt lat="45.68667" lon="6.70667">
        <ele>1920</ele>
        <time>2022-07-26T05:35:23Z</time>
      </trkpt>
      <trkpt lat="45.68666" lon="6.70666">
        <ele>1920</ele>
        <time>2022-07-26T05:35:24Z</time>
      </trkpt>
      <trkpt lat="45.68666" lon="6.70666">
        <ele>1920</ele>
        <time>2022-07-26T05:35:25Z</time>
      </trkpt>
      <trkpt lat="45.68665" lon="6.70666">
        <ele>1920</ele>
        <time>2022-07-26T05:35:26Z</time>
      </trkpt>
      <trkpt lat="45.68665" lon="6.70666">
        <ele>1920</ele>
        <time>2022-07-26T05:35:27Z</time>
      </trkpt>
      <trkpt lat="45.68664" lon="6.70666">
        <ele>1920</ele>
        <time>2022-07-26T05:35:28Z</time>
      </trkpt>
      <trkpt lat="45.68664" lon="6.70666">
        <ele>1920</ele>
        <time>2022-07-26T05:35:29Z</time>
      </trkpt>
      <trkpt lat="45.68663" lon="6.70666">
        <ele>1921</ele>
        <time>2022-07-26T05:35:30Z</time>
      </trkpt>
      <trkpt lat="45.68662" lon="6.70666">
        <ele>1921</ele>
        <time>2022-07-26T05:35:31Z</time>
      </trkpt>
      <trkpt lat="45.68662" lon="6.70666">
        <ele>1921</ele>
        <time>2022-07-26T05:35:32Z</time>
      </trkpt>
      <trkpt lat="45.68661" lon="6.70665">
        <ele>1921</ele>
        <time>2022-07-26T05:35:33Z</time>
      </trkpt>
      <trkpt lat="45.68661" lon="6.70665">
        <ele>1921</ele>
        <time>2022-07-26T05:35:34Z</time>
      </trkpt>
      <trkpt lat="45.6866" lon="6.70665">
        <ele>1921</ele>
        <time>2022-07-26T05:35:35Z</time>
      </trkpt>
      <trkpt lat="45.6866" lon="6.70664">
        <ele>1921</ele>
        <time>2022-07-26T05:35:36Z</time>
      </trkpt>
      <trkpt lat="45.68659" lon="6.70664">
        <ele>1921</ele>
        <time>2022-07-26T05:35:37Z</time>
      </trkpt>
      <trkpt lat="45.68658" lon="6.70662">
        <ele>1922</ele>
        <time>2022-07-26T05:35:43Z</time>
      </trkpt>
      <trkpt lat="45.68657" lon="6.70662">
        <ele>1922</ele>
        <time>2022-07-26T05:35:44Z</time>
      </trkpt>
      <trkpt lat="45.68656" lon="6.70661">
        <ele>1922</ele>
        <time>2022-07-26T05:35:45Z</time>
      </trkpt>
      <trkpt lat="45.68655" lon="6.7066">
        <ele>1922</ele>
        <time>2022-07-26T05:35:46Z</time>
      </trkpt>
      <trkpt lat="45.68655" lon="6.7066">
        <ele>1922</ele>
        <time>2022-07-26T05:35:47Z</time>
      </trkpt>
      <trkpt lat="45.68655" lon="6.70659">
        <ele>1922</ele>
        <time>2022-07-26T05:35:48Z</time>
      </trkpt>
      <trkpt lat="45.68654" lon="6.70658">
        <ele>1922</ele>
        <time>2022-07-26T05:35:49Z</time>
      </trkpt>
      <trkpt lat="45.68654" lon="6.70657">
        <ele>1922</ele>
        <time>2022-07-26T05:35:50Z</time>
      </trkpt>
      <trkpt lat="45.68653" lon="6.70656">
        <ele>1922</ele>
        <time>2022-07-26T05:35:51Z</time>
      </trkpt>
      <trkpt lat="45.68653" lon="6.70655">
        <ele>1922</ele>
        <time>2022-07-26T05:35:52Z</time>
      </trkpt>
      <trkpt lat="45.68653" lon="6.70654">
        <ele>1922</ele>
        <time>2022-07-26T05:35:53Z</time>
      </trkpt>
      <trkpt lat="45.68652" lon="6.70653">
        <ele>1922</ele>
        <time>2022-07-26T05:35:54Z</time>
      </trkpt>
      <trkpt lat="45.68652" lon="6.70653">
        <ele>1923</ele>
        <time>2022-07-26T05:35:55Z</time>
      </trkpt>
      <trkpt lat="45.68651" lon="6.70652">
        <ele>1923</ele>
        <time>2022-07-26T05:35:56Z</time>
      </trkpt>
      <trkpt lat="45.68651" lon="6.70652">
        <ele>1923</ele>
        <time>2022-07-26T05:35:57Z</time>
      </trkpt>
      <trkpt lat="45.68651" lon="6.70652">
        <ele>1923</ele>
        <time>2022-07-26T05:35:58Z</time>
      </trkpt>
      <trkpt lat="45.68651" lon="6.70652">
        <ele>1923</ele>
        <time>2022-07-26T05:35:59Z</time>
      </trkpt>
      <trkpt lat="45.68651" lon="6.70652">
        <ele>1924</ele>
        <time>2022-07-26T05:36:00Z</time>
      </trkpt>
      <trkpt lat="45.6865" lon="6.70652">
        <ele>1924</ele>
        <time>2022-07-26T05:36:01Z</time>
      </trkpt>
      <trkpt lat="45.6865" lon="6.70651">
        <ele>1924</ele>
        <time>2022-07-26T05:36:02Z</time>
      </trkpt>
      <trkpt lat="45.68649" lon="6.70651">
        <ele>1924</ele>
        <time>2022-07-26T05:36:03Z</time>
      </trkpt>
      <trkpt lat="45.68648" lon="6.70651">
        <ele>1924</ele>
        <time>2022-07-26T05:36:04Z</time>
      </trkpt>
      <trkpt lat="45.68648" lon="6.70651">
        <ele>1924</ele>
        <time>2022-07-26T05:36:05Z</time>
      </trkpt>
      <trkpt lat="45.68647" lon="6.7065">
        <ele>1924</ele>
        <time>2022-07-26T05:36:06Z</time>
      </trkpt>
      <trkpt lat="45.68646" lon="6.7065">
        <ele>1924</ele>
        <time>2022-07-26T05:36:07Z</time>
      </trkpt>
      <trkpt lat="45.68646" lon="6.7065">
        <ele>1924</ele>
        <time>2022-07-26T05:36:08Z</time>
      </trkpt>
      <trkpt lat="45.68645" lon="6.7065">
        <ele>1924</ele>
        <time>2022-07-26T05:36:09Z</time>
      </trkpt>
      <trkpt lat="45.68645" lon="6.70649">
        <ele>1924</ele>
        <time>2022-07-26T05:36:10Z</time>
      </trkpt>
      <trkpt lat="45.68644" lon="6.70649">
        <ele>1924</ele>
        <time>2022-07-26T05:36:11Z</time>
      </trkpt>
      <trkpt lat="45.68644" lon="6.70649">
        <ele>1924</ele>
        <time>2022-07-26T05:36:12Z</time>
      </trkpt>
      <trkpt lat="45.68642" lon="6.7065">
        <ele>1926</ele>
        <time>2022-07-26T05:36:20Z</time>
      </trkpt>
      <trkpt lat="45.68642" lon="6.70651">
        <ele>1926</ele>
        <time>2022-07-26T05:36:21Z</time>
      </trkpt>
      <trkpt lat="45.68641" lon="6.70652">
        <ele>1926</ele>
        <time>2022-07-26T05:36:22Z</time>
      </trkpt>
      <trkpt lat="45.68641" lon="6.70652">
        <ele>1926</ele>
        <time>2022-07-26T05:36:23Z</time>
      </trkpt>
      <trkpt lat="45.6864" lon="6.70652">
        <ele>1926</ele>
        <time>2022-07-26T05:36:24Z</time>
      </trkpt>
      <trkpt lat="45.6864" lon="6.70652">
        <ele>1926</ele>
        <time>2022-07-26T05:36:25Z</time>
      </trkpt>
      <trkpt lat="45.6864" lon="6.70652">
        <ele>1926</ele>
        <time>2022-07-26T05:36:26Z</time>
      </trkpt>
      <trkpt lat="45.68639" lon="6.70652">
        <ele>1926</ele>
        <time>2022-07-26T05:36:27Z</time>
      </trkpt>
      <trkpt lat="45.68639" lon="6.70651">
        <ele>1926</ele>
        <time>2022-07-26T05:36:28Z</time>
      </trkpt>
      <trkpt lat="45.68638" lon="6.70651">
        <ele>1926</ele>
        <time>2022-07-26T05:36:29Z</time>
      </trkpt>
      <trkpt lat="45.68638" lon="6.70651">
        <ele>1927</ele>
        <time>2022-07-26T05:36:30Z</time>
      </trkpt>
      <trkpt lat="45.68637" lon="6.7065">
        <ele>1927</ele>
        <time>2022-07-26T05:36:31Z</time>
      </trkpt>
      <trkpt lat="45.68636" lon="6.7065">
        <ele>1927</ele>
        <time>2022-07-26T05:36:32Z</time>
      </trkpt>
      <trkpt lat="45.68636" lon="6.70649">
        <ele>1927</ele>
        <time>2022-07-26T05:36:33Z</time>
      </trkpt>
      <trkpt lat="45.68636" lon="6.70649">
        <ele>1927</ele>
        <time>2022-07-26T05:36:34Z</time>
      </trkpt>
      <trkpt lat="45.68635" lon="6.70648">
        <ele>1927</ele>
        <time>2022-07-26T05:36:35Z</time>
      </trkpt>
      <trkpt lat="45.68634" lon="6.70648">
        <ele>1927</ele>
        <time>2022-07-26T05:36:36Z</time>
      </trkpt>
      <trkpt lat="45.68634" lon="6.70648">
        <ele>1927</ele>
        <time>2022-07-26T05:36:37Z</time>
      </trkpt>
      <trkpt lat="45.68633" lon="6.70647">
        <ele>1927</ele>
        <time>2022-07-26T05:36:38Z</time>
      </trkpt>
      <trkpt lat="45.68632" lon="6.70647">
        <ele>1927</ele>
        <time>2022-07-26T05:36:39Z</time>
      </trkpt>
      <trkpt lat="45.68632" lon="6.70646">
        <ele>1928</ele>
        <time>2022-07-26T05:36:40Z</time>
      </trkpt>
      <trkpt lat="45.68631" lon="6.70646">
        <ele>1928</ele>
        <time>2022-07-26T05:36:41Z</time>
      </trkpt>
      <trkpt lat="45.68631" lon="6.70645">
        <ele>1928</ele>
        <time>2022-07-26T05:36:42Z</time>
      </trkpt>
      <trkpt lat="45.6863" lon="6.70645">
        <ele>1928</ele>
        <time>2022-07-26T05:36:43Z</time>
      </trkpt>
      <trkpt lat="45.6863" lon="6.70643">
        <ele>1929</ele>
        <time>2022-07-26T05:36:50Z</time>
      </trkpt>
      <trkpt lat="45.68629" lon="6.70643">
        <ele>1929</ele>
        <time>2022-07-26T05:36:51Z</time>
      </trkpt>
      <trkpt lat="45.68629" lon="6.70642">
        <ele>1929</ele>
        <time>2022-07-26T05:36:52Z</time>
      </trkpt>
      <trkpt lat="45.68628" lon="6.70642">
        <ele>1929</ele>
        <time>2022-07-26T05:36:53Z</time>
      </trkpt>
      <trkpt lat="45.68628" lon="6.70642">
        <ele>1929</ele>
        <time>2022-07-26T05:36:54Z</time>
      </trkpt>
      <trkpt lat="45.68627" lon="6.70642">
        <ele>1929</ele>
        <time>2022-07-26T05:36:55Z</time>
      </trkpt>
      <trkpt lat="45.68627" lon="6.70643">
        <ele>1929</ele>
        <time>2022-07-26T05:36:56Z</time>
      </trkpt>
      <trkpt lat="45.68626" lon="6.70643">
        <ele>1929</ele>
        <time>2022-07-26T05:36:57Z</time>
      </trkpt>
      <trkpt lat="45.68626" lon="6.70644">
        <ele>1930</ele>
        <time>2022-07-26T05:36:58Z</time>
      </trkpt>
      <trkpt lat="45.68625" lon="6.70644">
        <ele>1930</ele>
        <time>2022-07-26T05:36:59Z</time>
      </trkpt>
      <trkpt lat="45.68624" lon="6.70644">
        <ele>1931</ele>
        <time>2022-07-26T05:37:00Z</time>
      </trkpt>
      <trkpt lat="45.68624" lon="6.70644">
        <ele>1931</ele>
        <time>2022-07-26T05:37:01Z</time>
      </trkpt>
      <trkpt lat="45.68623" lon="6.70644">
        <ele>1931</ele>
        <time>2022-07-26T05:37:02Z</time>
      </trkpt>
      <trkpt lat="45.68623" lon="6.70643">
        <ele>1931</ele>
        <time>2022-07-26T05:37:03Z</time>
      </trkpt>
      <trkpt lat="45.68623" lon="6.70642">
        <ele>1931</ele>
        <time>2022-07-26T05:37:04Z</time>
      </trkpt>
      <trkpt lat="45.68622" lon="6.70641">
        <ele>1931</ele>
        <time>2022-07-26T05:37:05Z</time>
      </trkpt>
      <trkpt lat="45.68622" lon="6.70639">
        <ele>1932</ele>
        <time>2022-07-26T05:37:11Z</time>
      </trkpt>
      <trkpt lat="45.68621" lon="6.70638">
        <ele>1932</ele>
        <time>2022-07-26T05:37:12Z</time>
      </trkpt>
      <trkpt lat="45.68621" lon="6.70638">
        <ele>1932</ele>
        <time>2022-07-26T05:37:13Z</time>
      </trkpt>
      <trkpt lat="45.6862" lon="6.70637">
        <ele>1932</ele>
        <time>2022-07-26T05:37:14Z</time>
      </trkpt>
      <trkpt lat="45.6862" lon="6.70637">
        <ele>1932</ele>
        <time>2022-07-26T05:37:15Z</time>
      </trkpt>
      <trkpt lat="45.68619" lon="6.70636">
        <ele>1932</ele>
        <time>2022-07-26T05:37:16Z</time>
      </trkpt>
      <trkpt lat="45.68619" lon="6.70636">
        <ele>1932</ele>
        <time>2022-07-26T05:37:17Z</time>
      </trkpt>
      <trkpt lat="45.68618" lon="6.70635">
        <ele>1932</ele>
        <time>2022-07-26T05:37:18Z</time>
      </trkpt>
      <trkpt lat="45.68617" lon="6.70635">
        <ele>1932</ele>
        <time>2022-07-26T05:37:19Z</time>
      </trkpt>
      <trkpt lat="45.68617" lon="6.70634">
        <ele>1932</ele>
        <time>2022-07-26T05:37:20Z</time>
      </trkpt>
      <trkpt lat="45.68617" lon="6.70634">
        <ele>1932</ele>
        <time>2022-07-26T05:37:21Z</time>
      </trkpt>
      <trkpt lat="45.68615" lon="6.70634">
        <ele>1933</ele>
        <time>2022-07-26T05:37:27Z</time>
      </trkpt>
      <trkpt lat="45.68614" lon="6.70634">
        <ele>1933</ele>
        <time>2022-07-26T05:37:28Z</time>
      </trkpt>
      <trkpt lat="45.68613" lon="6.70634">
        <ele>1933</ele>
        <time>2022-07-26T05:37:29Z</time>
      </trkpt>
      <trkpt lat="45.68613" lon="6.70634">
        <ele>1933</ele>
        <time>2022-07-26T05:37:30Z</time>
      </trkpt>
      <trkpt lat="45.68612" lon="6.70634">
        <ele>1933</ele>
        <time>2022-07-26T05:37:31Z</time>
      </trkpt>
      <trkpt lat="45.68611" lon="6.70634">
        <ele>1933</ele>
        <time>2022-07-26T05:37:32Z</time>
      </trkpt>
      <trkpt lat="45.68611" lon="6.70633">
        <ele>1933</ele>
        <time>2022-07-26T05:37:33Z</time>
      </trkpt>
      <trkpt lat="45.6861" lon="6.70633">
        <ele>1933</ele>
        <time>2022-07-26T05:37:34Z</time>
      </trkpt>
      <trkpt lat="45.68609" lon="6.70632">
        <ele>1934</ele>
        <time>2022-07-26T05:37:35Z</time>
      </trkpt>
      <trkpt lat="45.68609" lon="6.70632">
        <ele>1934</ele>
        <time>2022-07-26T05:37:36Z</time>
      </trkpt>
      <trkpt lat="45.68608" lon="6.70631">
        <ele>1934</ele>
        <time>2022-07-26T05:37:37Z</time>
      </trkpt>
      <trkpt lat="45.68608" lon="6.70631">
        <ele>1934</ele>
        <time>2022-07-26T05:37:38Z</time>
      </trkpt>
      <trkpt lat="45.68607" lon="6.70631">
        <ele>1934</ele>
        <time>2022-07-26T05:37:39Z</time>
      </trkpt>
      <trkpt lat="45.68607" lon="6.70631">
        <ele>1934</ele>
        <time>2022-07-26T05:37:40Z</time>
      </trkpt>
      <trkpt lat="45.68606" lon="6.70632">
        <ele>1934</ele>
        <time>2022-07-26T05:37:41Z</time>
      </trkpt>
      <trkpt lat="45.68605" lon="6.70632">
        <ele>1934</ele>
        <time>2022-07-26T05:37:42Z</time>
      </trkpt>
      <trkpt lat="45.68605" lon="6.70632">
        <ele>1934</ele>
        <time>2022-07-26T05:37:43Z</time>
      </trkpt>
      <trkpt lat="45.68604" lon="6.70633">
        <ele>1934</ele>
        <time>2022-07-26T05:37:44Z</time>
      </trkpt>
      <trkpt lat="45.68604" lon="6.70633">
        <ele>1935</ele>
        <time>2022-07-26T05:37:45Z</time>
      </trkpt>
      <trkpt lat="45.68604" lon="6.70633">
        <ele>1935</ele>
        <time>2022-07-26T05:37:46Z</time>
      </trkpt>
      <trkpt lat="45.68603" lon="6.70633">
        <ele>1935</ele>
        <time>2022-07-26T05:37:47Z</time>
      </trkpt>
      <trkpt lat="45.68602" lon="6.70633">
        <ele>1935</ele>
        <time>2022-07-26T05:37:48Z</time>
      </trkpt>
      <trkpt lat="45.68602" lon="6.70633">
        <ele>1935</ele>
        <time>2022-07-26T05:37:49Z</time>
      </trkpt>
      <trkpt lat="45.68601" lon="6.70633">
        <ele>1935</ele>
        <time>2022-07-26T05:37:50Z</time>
      </trkpt>
      <trkpt lat="45.68601" lon="6.70633">
        <ele>1935</ele>
        <time>2022-07-26T05:37:51Z</time>
      </trkpt>
      <trkpt lat="45.686" lon="6.70633">
        <ele>1935</ele>
        <time>2022-07-26T05:37:52Z</time>
      </trkpt>
      <trkpt lat="45.68599" lon="6.70633">
        <ele>1935</ele>
        <time>2022-07-26T05:37:53Z</time>
      </trkpt>
      <trkpt lat="45.68599" lon="6.70633">
        <ele>1935</ele>
        <time>2022-07-26T05:37:54Z</time>
      </trkpt>
      <trkpt lat="45.68598" lon="6.70633">
        <ele>1936</ele>
        <time>2022-07-26T05:37:55Z</time>
      </trkpt>
      <trkpt lat="45.68597" lon="6.70633">
        <ele>1936</ele>
        <time>2022-07-26T05:37:56Z</time>
      </trkpt>
      <trkpt lat="45.68595" lon="6.70634">
        <ele>1940</ele>
        <time>2022-07-26T05:44:02Z</time>
      </trkpt>
      <trkpt lat="45.68594" lon="6.70634">
        <ele>1940</ele>
        <time>2022-07-26T05:44:03Z</time>
      </trkpt>
      <trkpt lat="45.68592" lon="6.70634">
        <ele>1940</ele>
        <time>2022-07-26T05:44:04Z</time>
      </trkpt>
      <trkpt lat="45.68591" lon="6.70635">
        <ele>1940</ele>
        <time>2022-07-26T05:44:05Z</time>
      </trkpt>
      <trkpt lat="45.6859" lon="6.70635">
        <ele>1940</ele>
        <time>2022-07-26T05:44:06Z</time>
      </trkpt>
      <trkpt lat="45.6859" lon="6.70635">
        <ele>1940</ele>
        <time>2022-07-26T05:44:07Z</time>
      </trkpt>
      <trkpt lat="45.68589" lon="6.70635">
        <ele>1940</ele>
        <time>2022-07-26T05:44:08Z</time>
      </trkpt>
      <trkpt lat="45.68588" lon="6.70635">
        <ele>1940</ele>
        <time>2022-07-26T05:44:09Z</time>
      </trkpt>
      <trkpt lat="45.68588" lon="6.70635">
        <ele>1940</ele>
        <time>2022-07-26T05:44:10Z</time>
      </trkpt>
      <trkpt lat="45.68588" lon="6.70635">
        <ele>1940</ele>
        <time>2022-07-26T05:44:11Z</time>
      </trkpt>
      <trkpt lat="45.68587" lon="6.70635">
        <ele>1940</ele>
        <time>2022-07-26T05:44:12Z</time>
      </trkpt>
      <trkpt lat="45.68587" lon="6.70635">
        <ele>1940</ele>
        <time>2022-07-26T05:44:13Z</time>
      </trkpt>
      <trkpt lat="45.68587" lon="6.70635">
        <ele>1940</ele>
        <time>2022-07-26T05:44:14Z</time>
      </trkpt>
      <trkpt lat="45.68587" lon="6.70635">
        <ele>1941</ele>
        <time>2022-07-26T05:44:15Z</time>
      </trkpt>
      <trkpt lat="45.68586" lon="6.70634">
        <ele>1941</ele>
        <time>2022-07-26T05:44:16Z</time>
      </trkpt>
      <trkpt lat="45.68585" lon="6.70634">
        <ele>1941</ele>
        <time>2022-07-26T05:44:17Z</time>
      </trkpt>
      <trkpt lat="45.68585" lon="6.70634">
        <ele>1941</ele>
        <time>2022-07-26T05:44:18Z</time>
      </trkpt>
      <trkpt lat="45.68584" lon="6.70634">
        <ele>1941</ele>
        <time>2022-07-26T05:44:19Z</time>
      </trkpt>
      <trkpt lat="45.68583" lon="6.70634">
        <ele>1941</ele>
        <time>2022-07-26T05:44:20Z</time>
      </trkpt>
      <trkpt lat="45.68583" lon="6.70633">
        <ele>1941</ele>
        <time>2022-07-26T05:44:21Z</time>
      </trkpt>
      <trkpt lat="45.68582" lon="6.70633">
        <ele>1941</ele>
        <time>2022-07-26T05:44:22Z</time>
      </trkpt>
      <trkpt lat="45.68581" lon="6.70632">
        <ele>1941</ele>
        <time>2022-07-26T05:44:23Z</time>
      </trkpt>
      <trkpt lat="45.68581" lon="6.70632">
        <ele>1941</ele>
        <time>2022-07-26T05:44:24Z</time>
      </trkpt>
      <trkpt lat="45.6858" lon="6.70632">
        <ele>1942</ele>
        <time>2022-07-26T05:44:25Z</time>
      </trkpt>
      <trkpt lat="45.6858" lon="6.70631">
        <ele>1942</ele>
        <time>2022-07-26T05:44:26Z</time>
      </trkpt>
      <trkpt lat="45.68579" lon="6.70631">
        <ele>1942</ele>
        <time>2022-07-26T05:44:27Z</time>
      </trkpt>
      <trkpt lat="45.68578" lon="6.70631">
        <ele>1942</ele>
        <time>2022-07-26T05:44:28Z</time>
      </trkpt>
      <trkpt lat="45.68578" lon="6.70631">
        <ele>1942</ele>
        <time>2022-07-26T05:44:29Z</time>
      </trkpt>
      <trkpt lat="45.68577" lon="6.70631">
        <ele>1942</ele>
        <time>2022-07-26T05:44:30Z</time>
      </trkpt>
      <trkpt lat="45.68576" lon="6.70631">
        <ele>1942</ele>
        <time>2022-07-26T05:44:31Z</time>
      </trkpt>
      <trkpt lat="45.68576" lon="6.70631">
        <ele>1942</ele>
        <time>2022-07-26T05:44:32Z</time>
      </trkpt>
      <trkpt lat="45.68575" lon="6.70631">
        <ele>1942</ele>
        <time>2022-07-26T05:44:33Z</time>
      </trkpt>
      <trkpt lat="45.68575" lon="6.7063">
        <ele>1942</ele>
        <time>2022-07-26T05:44:34Z</time>
      </trkpt>
      <trkpt lat="45.68574" lon="6.7063">
        <ele>1943</ele>
        <time>2022-07-26T05:44:35Z</time>
      </trkpt>
      <trkpt lat="45.68573" lon="6.7063">
        <ele>1943</ele>
        <time>2022-07-26T05:44:36Z</time>
      </trkpt>
      <trkpt lat="45.68573" lon="6.7063">
        <ele>1943</ele>
        <time>2022-07-26T05:44:37Z</time>
      </trkpt>
      <trkpt lat="45.68571" lon="6.7063">
        <ele>1944</ele>
        <time>2022-07-26T05:44:44Z</time>
      </trkpt>
      <trkpt lat="45.6857" lon="6.7063">
        <ele>1944</ele>
        <time>2022-07-26T05:44:45Z</time>
      </trkpt>
      <trkpt lat="45.68569" lon="6.7063">
        <ele>1944</ele>
        <time>2022-07-26T05:44:46Z</time>
      </trkpt>
      <trkpt lat="45.68569" lon="6.7063">
        <ele>1944</ele>
        <time>2022-07-26T05:44:47Z</time>
      </trkpt>
      <trkpt lat="45.68568" lon="6.7063">
        <ele>1944</ele>
        <time>2022-07-26T05:44:48Z</time>
      </trkpt>
      <trkpt lat="45.68568" lon="6.7063">
        <ele>1944</ele>
        <time>2022-07-26T05:44:49Z</time>
      </trkpt>
      <trkpt lat="45.68567" lon="6.7063">
        <ele>1945</ele>
        <time>2022-07-26T05:44:50Z</time>
      </trkpt>
      <trkpt lat="45.68567" lon="6.7063">
        <ele>1945</ele>
        <time>2022-07-26T05:44:51Z</time>
      </trkpt>
      <trkpt lat="45.68566" lon="6.7063">
        <ele>1945</ele>
        <time>2022-07-26T05:44:52Z</time>
      </trkpt>
      <trkpt lat="45.68565" lon="6.70629">
        <ele>1945</ele>
        <time>2022-07-26T05:44:53Z</time>
      </trkpt>
      <trkpt lat="45.68565" lon="6.70629">
        <ele>1945</ele>
        <time>2022-07-26T05:44:54Z</time>
      </trkpt>
      <trkpt lat="45.68564" lon="6.70629">
        <ele>1946</ele>
        <time>2022-07-26T05:44:55Z</time>
      </trkpt>
      <trkpt lat="45.68564" lon="6.70629">
        <ele>1946</ele>
        <time>2022-07-26T05:44:56Z</time>
      </trkpt>
      <trkpt lat="45.68563" lon="6.70629">
        <ele>1946</ele>
        <time>2022-07-26T05:44:57Z</time>
      </trkpt>
      <trkpt lat="45.68562" lon="6.7063">
        <ele>1946</ele>
        <time>2022-07-26T05:44:58Z</time>
      </trkpt>
      <trkpt lat="45.68562" lon="6.70632">
        <ele>1947</ele>
        <time>2022-07-26T05:45:08Z</time>
      </trkpt>
      <trkpt lat="45.68562" lon="6.70633">
        <ele>1947</ele>
        <time>2022-07-26T05:45:09Z</time>
      </trkpt>
      <trkpt lat="45.68562" lon="6.70634">
        <ele>1948</ele>
        <time>2022-07-26T05:45:10Z</time>
      </trkpt>
      <trkpt lat="45.68562" lon="6.70636">
        <ele>1948</ele>
        <time>2022-07-26T05:45:11Z</time>
      </trkpt>
      <trkpt lat="45.68562" lon="6.70637">
        <ele>1948</ele>
        <time>2022-07-26T05:45:12Z</time>
      </trkpt>
      <trkpt lat="45.68562" lon="6.70638">
        <ele>1948</ele>
        <time>2022-07-26T05:45:13Z</time>
      </trkpt>
      <trkpt lat="45.68562" lon="6.70639">
        <ele>1948</ele>
        <time>2022-07-26T05:45:14Z</time>
      </trkpt>
      <trkpt lat="45.68563" lon="6.7064">
        <ele>1949</ele>
        <time>2022-07-26T05:45:15Z</time>
      </trkpt>
      <trkpt lat="45.68563" lon="6.70641">
        <ele>1949</ele>
        <time>2022-07-26T05:45:16Z</time>
      </trkpt>
      <trkpt lat="45.68562" lon="6.70643">
        <ele>1950</ele>
        <time>2022-07-26T05:45:23Z</time>
      </trkpt>
      <trkpt lat="45.68562" lon="6.70643">
        <ele>1950</ele>
        <time>2022-07-26T05:45:24Z</time>
      </trkpt>
      <trkpt lat="45.68561" lon="6.70643">
        <ele>1950</ele>
        <time>2022-07-26T05:45:25Z</time>
      </trkpt>
      <trkpt lat="45.68561" lon="6.70643">
        <ele>1950</ele>
        <time>2022-07-26T05:45:26Z</time>
      </trkpt>
      <trkpt lat="45.6856" lon="6.70643">
        <ele>1950</ele>
        <time>2022-07-26T05:45:27Z</time>
      </trkpt>
      <trkpt lat="45.6856" lon="6.70643">
        <ele>1950</ele>
        <time>2022-07-26T05:45:28Z</time>
      </trkpt>
      <trkpt lat="45.68559" lon="6.70643">
        <ele>1950</ele>
        <time>2022-07-26T05:45:29Z</time>
      </trkpt>
      <trkpt lat="45.68559" lon="6.70643">
        <ele>1950</ele>
        <time>2022-07-26T05:45:30Z</time>
      </trkpt>
      <trkpt lat="45.68558" lon="6.70643">
        <ele>1950</ele>
        <time>2022-07-26T05:45:31Z</time>
      </trkpt>
      <trkpt lat="45.68557" lon="6.70643">
        <ele>1950</ele>
        <time>2022-07-26T05:45:32Z</time>
      </trkpt>
      <trkpt lat="45.68556" lon="6.70643">
        <ele>1950</ele>
        <time>2022-07-26T05:45:33Z</time>
      </trkpt>
      <trkpt lat="45.68555" lon="6.70643">
        <ele>1950</ele>
        <time>2022-07-26T05:45:34Z</time>
      </trkpt>
      <trkpt lat="45.68555" lon="6.70644">
        <ele>1951</ele>
        <time>2022-07-26T05:45:35Z</time>
      </trkpt>
      <trkpt lat="45.68554" lon="6.70644">
        <ele>1951</ele>
        <time>2022-07-26T05:45:36Z</time>
      </trkpt>
      <trkpt lat="45.68554" lon="6.70644">
        <ele>1951</ele>
        <time>2022-07-26T05:45:37Z</time>
      </trkpt>
      <trkpt lat="45.68553" lon="6.70644">
        <ele>1951</ele>
        <time>2022-07-26T05:45:38Z</time>
      </trkpt>
      <trkpt lat="45.68552" lon="6.70644">
        <ele>1951</ele>
        <time>2022-07-26T05:45:39Z</time>
      </trkpt>
      <trkpt lat="45.68552" lon="6.70644">
        <ele>1952</ele>
        <time>2022-07-26T05:45:40Z</time>
      </trkpt>
      <trkpt lat="45.68549" lon="6.7064">
        <ele>1954</ele>
        <time>2022-07-26T05:46:04Z</time>
      </trkpt>
      <trkpt lat="45.68547" lon="6.70638">
        <ele>1954</ele>
        <time>2022-07-26T05:46:05Z</time>
      </trkpt>
      <trkpt lat="45.68546" lon="6.70636">
        <ele>1954</ele>
        <time>2022-07-26T05:46:06Z</time>
      </trkpt>
      <trkpt lat="45.68545" lon="6.70635">
        <ele>1954</ele>
        <time>2022-07-26T05:46:07Z</time>
      </trkpt>
      <trkpt lat="45.68544" lon="6.70634">
        <ele>1954</ele>
        <time>2022-07-26T05:46:08Z</time>
      </trkpt>
      <trkpt lat="45.68544" lon="6.70632">
        <ele>1954</ele>
        <time>2022-07-26T05:46:09Z</time>
      </trkpt>
      <trkpt lat="45.68543" lon="6.70631">
        <ele>1955</ele>
        <time>2022-07-26T05:46:10Z</time>
      </trkpt>
      <trkpt lat="45.68543" lon="6.7063">
        <ele>1955</ele>
        <time>2022-07-26T05:46:11Z</time>
      </trkpt>
      <trkpt lat="45.68542" lon="6.70629">
        <ele>1955</ele>
        <time>2022-07-26T05:46:12Z</time>
      </trkpt>
      <trkpt lat="45.68542" lon="6.70628">
        <ele>1955</ele>
        <time>2022-07-26T05:46:13Z</time>
      </trkpt>
      <trkpt lat="45.68541" lon="6.70627">
        <ele>1955</ele>
        <time>2022-07-26T05:46:14Z</time>
      </trkpt>
      <trkpt lat="45.68541" lon="6.70626">
        <ele>1955</ele>
        <time>2022-07-26T05:46:15Z</time>
      </trkpt>
      <trkpt lat="45.68541" lon="6.70625">
        <ele>1955</ele>
        <time>2022-07-26T05:46:16Z</time>
      </trkpt>
      <trkpt lat="45.68541" lon="6.70624">
        <ele>1955</ele>
        <time>2022-07-26T05:46:17Z</time>
      </trkpt>
      <trkpt lat="45.68541" lon="6.70623">
        <ele>1955</ele>
        <time>2022-07-26T05:46:18Z</time>
      </trkpt>
      <trkpt lat="45.68541" lon="6.70623">
        <ele>1955</ele>
        <time>2022-07-26T05:46:19Z</time>
      </trkpt>
      <trkpt lat="45.6854" lon="6.70623">
        <ele>1955</ele>
        <time>2022-07-26T05:46:20Z</time>
      </trkpt>
      <trkpt lat="45.6854" lon="6.70622">
        <ele>1955</ele>
        <time>2022-07-26T05:46:21Z</time>
      </trkpt>
      <trkpt lat="45.6854" lon="6.70622">
        <ele>1955</ele>
        <time>2022-07-26T05:46:22Z</time>
      </trkpt>
      <trkpt lat="45.6854" lon="6.70621">
        <ele>1955</ele>
        <time>2022-07-26T05:46:23Z</time>
      </trkpt>
      <trkpt lat="45.6854" lon="6.7062">
        <ele>1955</ele>
        <time>2022-07-26T05:46:24Z</time>
      </trkpt>
      <trkpt lat="45.6854" lon="6.70619">
        <ele>1956</ele>
        <time>2022-07-26T05:46:25Z</time>
      </trkpt>
      <trkpt lat="45.68539" lon="6.70618">
        <ele>1956</ele>
        <time>2022-07-26T05:46:26Z</time>
      </trkpt>
      <trkpt lat="45.68539" lon="6.70617">
        <ele>1956</ele>
        <time>2022-07-26T05:46:27Z</time>
      </trkpt>
      <trkpt lat="45.68539" lon="6.70616">
        <ele>1956</ele>
        <time>2022-07-26T05:46:28Z</time>
      </trkpt>
      <trkpt lat="45.68538" lon="6.70615">
        <ele>1956</ele>
        <time>2022-07-26T05:46:29Z</time>
      </trkpt>
      <trkpt lat="45.68538" lon="6.70615">
        <ele>1956</ele>
        <time>2022-07-26T05:46:30Z</time>
      </trkpt>
      <trkpt lat="45.68538" lon="6.70614">
        <ele>1956</ele>
        <time>2022-07-26T05:46:31Z</time>
      </trkpt>
      <trkpt lat="45.68537" lon="6.70613">
        <ele>1956</ele>
        <time>2022-07-26T05:46:32Z</time>
      </trkpt>
      <trkpt lat="45.68537" lon="6.70612">
        <ele>1957</ele>
        <time>2022-07-26T05:46:33Z</time>
      </trkpt>
      <trkpt lat="45.68537" lon="6.70611">
        <ele>1957</ele>
        <time>2022-07-26T05:46:34Z</time>
      </trkpt>
      <trkpt lat="45.68536" lon="6.7061">
        <ele>1958</ele>
        <time>2022-07-26T05:46:35Z</time>
      </trkpt>
      <trkpt lat="45.68536" lon="6.70609">
        <ele>1958</ele>
        <time>2022-07-26T05:46:36Z</time>
      </trkpt>
      <trkpt lat="45.68536" lon="6.70608">
        <ele>1958</ele>
        <time>2022-07-26T05:46:37Z</time>
      </trkpt>
      <trkpt lat="45.68535" lon="6.70608">
        <ele>1958</ele>
        <time>2022-07-26T05:46:38Z</time>
      </trkpt>
      <trkpt lat="45.68534" lon="6.70606">
        <ele>1958</ele>
        <time>2022-07-26T05:46:46Z</time>
      </trkpt>
      <trkpt lat="45.68533" lon="6.70605">
        <ele>1958</ele>
        <time>2022-07-26T05:46:47Z</time>
      </trkpt>
      <trkpt lat="45.68533" lon="6.70604">
        <ele>1958</ele>
        <time>2022-07-26T05:46:48Z</time>
      </trkpt>
      <trkpt lat="45.68533" lon="6.70603">
        <ele>1958</ele>
        <time>2022-07-26T05:46:49Z</time>
      </trkpt>
      <trkpt lat="45.68532" lon="6.70602">
        <ele>1958</ele>
        <time>2022-07-26T05:46:50Z</time>
      </trkpt>
      <trkpt lat="45.68532" lon="6.70601">
        <ele>1959</ele>
        <time>2022-07-26T05:48:40Z</time>
      </trkpt>
      <trkpt lat="45.68532" lon="6.70601">
        <ele>1959</ele>
        <time>2022-07-26T05:48:41Z</time>
      </trkpt>
      <trkpt lat="45.68532" lon="6.706">
        <ele>1959</ele>
        <time>2022-07-26T05:48:42Z</time>
      </trkpt>
      <trkpt lat="45.68532" lon="6.70599">
        <ele>1959</ele>
        <time>2022-07-26T05:48:43Z</time>
      </trkpt>
      <trkpt lat="45.68532" lon="6.70598">
        <ele>1959</ele>
        <time>2022-07-26T05:48:44Z</time>
      </trkpt>
      <trkpt lat="45.68532" lon="6.70596">
        <ele>1959</ele>
        <time>2022-07-26T05:48:45Z</time>
      </trkpt>
      <trkpt lat="45.68532" lon="6.70594">
        <ele>1959</ele>
        <time>2022-07-26T05:48:46Z</time>
      </trkpt>
      <trkpt lat="45.68532" lon="6.70593">
        <ele>1959</ele>
        <time>2022-07-26T05:48:47Z</time>
      </trkpt>
      <trkpt lat="45.68532" lon="6.70591">
        <ele>1959</ele>
        <time>2022-07-26T05:48:48Z</time>
      </trkpt>
      <trkpt lat="45.68532" lon="6.7059">
        <ele>1959</ele>
        <time>2022-07-26T05:48:49Z</time>
      </trkpt>
      <trkpt lat="45.68532" lon="6.70589">
        <ele>1959</ele>
        <time>2022-07-26T05:48:50Z</time>
      </trkpt>
      <trkpt lat="45.68532" lon="6.70588">
        <ele>1959</ele>
        <time>2022-07-26T05:48:51Z</time>
      </trkpt>
      <trkpt lat="45.68532" lon="6.70586">
        <ele>1959</ele>
        <time>2022-07-26T05:48:52Z</time>
      </trkpt>
      <trkpt lat="45.68531" lon="6.70585">
        <ele>1959</ele>
        <time>2022-07-26T05:48:53Z</time>
      </trkpt>
      <trkpt lat="45.68531" lon="6.70584">
        <ele>1959</ele>
        <time>2022-07-26T05:48:54Z</time>
      </trkpt>
      <trkpt lat="45.68531" lon="6.70583">
        <ele>1959</ele>
        <time>2022-07-26T05:48:55Z</time>
      </trkpt>
      <trkpt lat="45.68531" lon="6.70582">
        <ele>1959</ele>
        <time>2022-07-26T05:48:56Z</time>
      </trkpt>
      <trkpt lat="45.68531" lon="6.70581">
        <ele>1959</ele>
        <time>2022-07-26T05:48:57Z</time>
      </trkpt>
      <trkpt lat="45.68531" lon="6.70581">
        <ele>1959</ele>
        <time>2022-07-26T05:48:58Z</time>
      </trkpt>
      <trkpt lat="45.68531" lon="6.70581">
        <ele>1959</ele>
        <time>2022-07-26T05:48:59Z</time>
      </trkpt>
      <trkpt lat="45.68531" lon="6.7058">
        <ele>1960</ele>
        <time>2022-07-26T05:49:00Z</time>
      </trkpt>
      <trkpt lat="45.68531" lon="6.70579">
        <ele>1960</ele>
        <time>2022-07-26T05:49:01Z</time>
      </trkpt>
      <trkpt lat="45.6853" lon="6.70578">
        <ele>1960</ele>
        <time>2022-07-26T05:49:02Z</time>
      </trkpt>
      <trkpt lat="45.6853" lon="6.70577">
        <ele>1960</ele>
        <time>2022-07-26T05:49:03Z</time>
      </trkpt>
      <trkpt lat="45.68529" lon="6.70576">
        <ele>1960</ele>
        <time>2022-07-26T05:49:04Z</time>
      </trkpt>
      <trkpt lat="45.68528" lon="6.70575">
        <ele>1960</ele>
        <time>2022-07-26T05:49:05Z</time>
      </trkpt>
      <trkpt lat="45.68528" lon="6.70574">
        <ele>1960</ele>
        <time>2022-07-26T05:49:06Z</time>
      </trkpt>
      <trkpt lat="45.68526" lon="6.70574">
        <ele>1960</ele>
        <time>2022-07-26T05:49:07Z</time>
      </trkpt>
      <trkpt lat="45.68525" lon="6.70573">
        <ele>1960</ele>
        <time>2022-07-26T05:49:08Z</time>
      </trkpt>
      <trkpt lat="45.68524" lon="6.70572">
        <ele>1960</ele>
        <time>2022-07-26T05:49:09Z</time>
      </trkpt>
      <trkpt lat="45.68523" lon="6.70572">
        <ele>1960</ele>
        <time>2022-07-26T05:49:10Z</time>
      </trkpt>
      <trkpt lat="45.68523" lon="6.70572">
        <ele>1960</ele>
        <time>2022-07-26T05:49:11Z</time>
      </trkpt>
      <trkpt lat="45.68522" lon="6.70571">
        <ele>1960</ele>
        <time>2022-07-26T05:49:12Z</time>
      </trkpt>
      <trkpt lat="45.68521" lon="6.70571">
        <ele>1960</ele>
        <time>2022-07-26T05:49:13Z</time>
      </trkpt>
      <trkpt lat="45.6852" lon="6.70571">
        <ele>1960</ele>
        <time>2022-07-26T05:49:14Z</time>
      </trkpt>
      <trkpt lat="45.68519" lon="6.7057">
        <ele>1961</ele>
        <time>2022-07-26T05:49:15Z</time>
      </trkpt>
      <trkpt lat="45.68518" lon="6.7057">
        <ele>1961</ele>
        <time>2022-07-26T05:49:16Z</time>
      </trkpt>
      <trkpt lat="45.68518" lon="6.70569">
        <ele>1961</ele>
        <time>2022-07-26T05:49:17Z</time>
      </trkpt>
      <trkpt lat="45.68517" lon="6.70569">
        <ele>1961</ele>
        <time>2022-07-26T05:49:18Z</time>
      </trkpt>
      <trkpt lat="45.68516" lon="6.70569">
        <ele>1961</ele>
        <time>2022-07-26T05:49:19Z</time>
      </trkpt>
      <trkpt lat="45.68516" lon="6.70569">
        <ele>1962</ele>
        <time>2022-07-26T05:49:20Z</time>
      </trkpt>
      <trkpt lat="45.68515" lon="6.70568">
        <ele>1962</ele>
        <time>2022-07-26T05:49:21Z</time>
      </trkpt>
      <trkpt lat="45.68514" lon="6.70568">
        <ele>1962</ele>
        <time>2022-07-26T05:49:22Z</time>
      </trkpt>
      <trkpt lat="45.68513" lon="6.70568">
        <ele>1962</ele>
        <time>2022-07-26T05:49:23Z</time>
      </trkpt>
      <trkpt lat="45.68513" lon="6.70568">
        <ele>1962</ele>
        <time>2022-07-26T05:49:24Z</time>
      </trkpt>
      <trkpt lat="45.68512" lon="6.70568">
        <ele>1962</ele>
        <time>2022-07-26T05:49:25Z</time>
      </trkpt>
      <trkpt lat="45.68512" lon="6.70567">
        <ele>1962</ele>
        <time>2022-07-26T05:49:26Z</time>
      </trkpt>
      <trkpt lat="45.68511" lon="6.70567">
        <ele>1962</ele>
        <time>2022-07-26T05:49:27Z</time>
      </trkpt>
      <trkpt lat="45.6851" lon="6.70567">
        <ele>1962</ele>
        <time>2022-07-26T05:49:28Z</time>
      </trkpt>
      <trkpt lat="45.68509" lon="6.70567">
        <ele>1962</ele>
        <time>2022-07-26T05:49:29Z</time>
      </trkpt>
      <trkpt lat="45.68508" lon="6.70567">
        <ele>1963</ele>
        <time>2022-07-26T05:49:30Z</time>
      </trkpt>
      <trkpt lat="45.68507" lon="6.70567">
        <ele>1963</ele>
        <time>2022-07-26T05:49:31Z</time>
      </trkpt>
      <trkpt lat="45.68506" lon="6.70567">
        <ele>1963</ele>
        <time>2022-07-26T05:49:32Z</time>
      </trkpt>
      <trkpt lat="45.68506" lon="6.70567">
        <ele>1963</ele>
        <time>2022-07-26T05:49:33Z</time>
      </trkpt>
      <trkpt lat="45.68505" lon="6.70566">
        <ele>1963</ele>
        <time>2022-07-26T05:49:34Z</time>
      </trkpt>
      <trkpt lat="45.68504" lon="6.70566">
        <ele>1964</ele>
        <time>2022-07-26T05:49:35Z</time>
      </trkpt>
      <trkpt lat="45.68503" lon="6.70566">
        <ele>1964</ele>
        <time>2022-07-26T05:49:36Z</time>
      </trkpt>
      <trkpt lat="45.68502" lon="6.70566">
        <ele>1964</ele>
        <time>2022-07-26T05:49:37Z</time>
      </trkpt>
      <trkpt lat="45.68502" lon="6.70567">
        <ele>1964</ele>
        <time>2022-07-26T05:49:38Z</time>
      </trkpt>
      <trkpt lat="45.68501" lon="6.70567">
        <ele>1964</ele>
        <time>2022-07-26T05:49:39Z</time>
      </trkpt>
      <trkpt lat="45.685" lon="6.70567">
        <ele>1965</ele>
        <time>2022-07-26T05:49:40Z</time>
      </trkpt>
      <trkpt lat="45.685" lon="6.70567">
        <ele>1965</ele>
        <time>2022-07-26T05:49:41Z</time>
      </trkpt>
      <trkpt lat="45.68499" lon="6.70567">
        <ele>1965</ele>
        <time>2022-07-26T05:49:42Z</time>
      </trkpt>
      <trkpt lat="45.68498" lon="6.70567">
        <ele>1965</ele>
        <time>2022-07-26T05:49:43Z</time>
      </trkpt>
      <trkpt lat="45.68497" lon="6.70566">
        <ele>1967</ele>
        <time>2022-07-26T05:50:11Z</time>
      </trkpt>
      <trkpt lat="45.68497" lon="6.70565">
        <ele>1967</ele>
        <time>2022-07-26T05:50:12Z</time>
      </trkpt>
      <trkpt lat="45.68496" lon="6.70565">
        <ele>1967</ele>
        <time>2022-07-26T05:50:13Z</time>
      </trkpt>
      <trkpt lat="45.68495" lon="6.70565">
        <ele>1967</ele>
        <time>2022-07-26T05:50:14Z</time>
      </trkpt>
      <trkpt lat="45.68495" lon="6.70564">
        <ele>1967</ele>
        <time>2022-07-26T05:50:15Z</time>
      </trkpt>
      <trkpt lat="45.68494" lon="6.70564">
        <ele>1967</ele>
        <time>2022-07-26T05:50:16Z</time>
      </trkpt>
      <trkpt lat="45.68493" lon="6.70564">
        <ele>1967</ele>
        <time>2022-07-26T05:50:17Z</time>
      </trkpt>
      <trkpt lat="45.68492" lon="6.70564">
        <ele>1967</ele>
        <time>2022-07-26T05:50:18Z</time>
      </trkpt>
      <trkpt lat="45.68491" lon="6.70563">
        <ele>1967</ele>
        <time>2022-07-26T05:50:19Z</time>
      </trkpt>
      <trkpt lat="45.6849" lon="6.70563">
        <ele>1967</ele>
        <time>2022-07-26T05:50:20Z</time>
      </trkpt>
      <trkpt lat="45.68489" lon="6.70563">
        <ele>1967</ele>
        <time>2022-07-26T05:50:21Z</time>
      </trkpt>
      <trkpt lat="45.68487" lon="6.70562">
        <ele>1967</ele>
        <time>2022-07-26T05:50:22Z</time>
      </trkpt>
      <trkpt lat="45.68486" lon="6.70562">
        <ele>1967</ele>
        <time>2022-07-26T05:50:23Z</time>
      </trkpt>
      <trkpt lat="45.68485" lon="6.70562">
        <ele>1967</ele>
        <time>2022-07-26T05:50:24Z</time>
      </trkpt>
      <trkpt lat="45.68484" lon="6.70562">
        <ele>1968</ele>
        <time>2022-07-26T05:50:25Z</time>
      </trkpt>
      <trkpt lat="45.68484" lon="6.70562">
        <ele>1968</ele>
        <time>2022-07-26T05:50:26Z</time>
      </trkpt>
      <trkpt lat="45.68483" lon="6.70561">
        <ele>1968</ele>
        <time>2022-07-26T05:50:27Z</time>
      </trkpt>
      <trkpt lat="45.68482" lon="6.70561">
        <ele>1968</ele>
        <time>2022-07-26T05:50:28Z</time>
      </trkpt>
      <trkpt lat="45.68481" lon="6.70561">
        <ele>1968</ele>
        <time>2022-07-26T05:50:29Z</time>
      </trkpt>
      <trkpt lat="45.6848" lon="6.70561">
        <ele>1968</ele>
        <time>2022-07-26T05:50:30Z</time>
      </trkpt>
      <trkpt lat="45.68479" lon="6.70562">
        <ele>1968</ele>
        <time>2022-07-26T05:50:31Z</time>
      </trkpt>
      <trkpt lat="45.68478" lon="6.70562">
        <ele>1968</ele>
        <time>2022-07-26T05:50:32Z</time>
      </trkpt>
      <trkpt lat="45.68477" lon="6.70562">
        <ele>1968</ele>
        <time>2022-07-26T05:50:33Z</time>
      </trkpt>
      <trkpt lat="45.68477" lon="6.70563">
        <ele>1968</ele>
        <time>2022-07-26T05:50:34Z</time>
      </trkpt>
      <trkpt lat="45.68476" lon="6.70564">
        <ele>1969</ele>
        <time>2022-07-26T05:50:35Z</time>
      </trkpt>
      <trkpt lat="45.68475" lon="6.70565">
        <ele>1969</ele>
        <time>2022-07-26T05:50:36Z</time>
      </trkpt>
      <trkpt lat="45.68475" lon="6.70566">
        <ele>1969</ele>
        <time>2022-07-26T05:50:37Z</time>
      </trkpt>
      <trkpt lat="45.68474" lon="6.70566">
        <ele>1969</ele>
        <time>2022-07-26T05:50:38Z</time>
      </trkpt>
      <trkpt lat="45.68473" lon="6.70567">
        <ele>1969</ele>
        <time>2022-07-26T05:50:39Z</time>
      </trkpt>
      <trkpt lat="45.68473" lon="6.70567">
        <ele>1969</ele>
        <time>2022-07-26T05:50:40Z</time>
      </trkpt>
      <trkpt lat="45.68472" lon="6.70567">
        <ele>1969</ele>
        <time>2022-07-26T05:50:41Z</time>
      </trkpt>
      <trkpt lat="45.68471" lon="6.70567">
        <ele>1969</ele>
        <time>2022-07-26T05:50:42Z</time>
      </trkpt>
      <trkpt lat="45.6847" lon="6.70567">
        <ele>1969</ele>
        <time>2022-07-26T05:50:43Z</time>
      </trkpt>
      <trkpt lat="45.68469" lon="6.70567">
        <ele>1969</ele>
        <time>2022-07-26T05:50:44Z</time>
      </trkpt>
      <trkpt lat="45.68469" lon="6.70568">
        <ele>1970</ele>
        <time>2022-07-26T05:50:45Z</time>
      </trkpt>
      <trkpt lat="45.68468" lon="6.70567">
        <ele>1970</ele>
        <time>2022-07-26T05:50:46Z</time>
      </trkpt>
      <trkpt lat="45.68467" lon="6.70567">
        <ele>1970</ele>
        <time>2022-07-26T05:50:47Z</time>
      </trkpt>
      <trkpt lat="45.68467" lon="6.70567">
        <ele>1970</ele>
        <time>2022-07-26T05:50:48Z</time>
      </trkpt>
      <trkpt lat="45.68466" lon="6.70567">
        <ele>1970</ele>
        <time>2022-07-26T05:50:49Z</time>
      </trkpt>
      <trkpt lat="45.68465" lon="6.70567">
        <ele>1970</ele>
        <time>2022-07-26T05:50:50Z</time>
      </trkpt>
      <trkpt lat="45.68464" lon="6.70566">
        <ele>1970</ele>
        <time>2022-07-26T05:50:51Z</time>
      </trkpt>
      <trkpt lat="45.68464" lon="6.70566">
        <ele>1970</ele>
        <time>2022-07-26T05:50:52Z</time>
      </trkpt>
      <trkpt lat="45.68463" lon="6.70565">
        <ele>1970</ele>
        <time>2022-07-26T05:50:53Z</time>
      </trkpt>
      <trkpt lat="45.68462" lon="6.70565">
        <ele>1970</ele>
        <time>2022-07-26T05:50:54Z</time>
      </trkpt>
      <trkpt lat="45.68461" lon="6.70565">
        <ele>1971</ele>
        <time>2022-07-26T05:50:55Z</time>
      </trkpt>
      <trkpt lat="45.6846" lon="6.70564">
        <ele>1971</ele>
        <time>2022-07-26T05:50:56Z</time>
      </trkpt>
      <trkpt lat="45.68459" lon="6.70564">
        <ele>1971</ele>
        <time>2022-07-26T05:50:57Z</time>
      </trkpt>
      <trkpt lat="45.68458" lon="6.70564">
        <ele>1971</ele>
        <time>2022-07-26T05:50:58Z</time>
      </trkpt>
      <trkpt lat="45.68457" lon="6.70564">
        <ele>1971</ele>
        <time>2022-07-26T05:50:59Z</time>
      </trkpt>
      <trkpt lat="45.68456" lon="6.70564">
        <ele>1972</ele>
        <time>2022-07-26T05:51:00Z</time>
      </trkpt>
      <trkpt lat="45.68455" lon="6.70564">
        <ele>1972</ele>
        <time>2022-07-26T05:51:01Z</time>
      </trkpt>
      <trkpt lat="45.68454" lon="6.70564">
        <ele>1972</ele>
        <time>2022-07-26T05:51:02Z</time>
      </trkpt>
      <trkpt lat="45.68454" lon="6.70564">
        <ele>1972</ele>
        <time>2022-07-26T05:51:03Z</time>
      </trkpt>
      <trkpt lat="45.68453" lon="6.70564">
        <ele>1972</ele>
        <time>2022-07-26T05:51:04Z</time>
      </trkpt>
      <trkpt lat="45.68452" lon="6.70564">
        <ele>1972</ele>
        <time>2022-07-26T05:51:05Z</time>
      </trkpt>
      <trkpt lat="45.68451" lon="6.70564">
        <ele>1972</ele>
        <time>2022-07-26T05:51:06Z</time>
      </trkpt>
      <trkpt lat="45.6845" lon="6.70565">
        <ele>1972</ele>
        <time>2022-07-26T05:51:07Z</time>
      </trkpt>
      <trkpt lat="45.6845" lon="6.70565">
        <ele>1972</ele>
        <time>2022-07-26T05:51:08Z</time>
      </trkpt>
      <trkpt lat="45.68449" lon="6.70565">
        <ele>1972</ele>
        <time>2022-07-26T05:51:09Z</time>
      </trkpt>
      <trkpt lat="45.68448" lon="6.70565">
        <ele>1973</ele>
        <time>2022-07-26T05:51:10Z</time>
      </trkpt>
      <trkpt lat="45.68447" lon="6.70565">
        <ele>1973</ele>
        <time>2022-07-26T05:51:11Z</time>
      </trkpt>
      <trkpt lat="45.68447" lon="6.70565">
        <ele>1973</ele>
        <time>2022-07-26T05:51:12Z</time>
      </trkpt>
      <trkpt lat="45.68446" lon="6.70565">
        <ele>1973</ele>
        <time>2022-07-26T05:51:13Z</time>
      </trkpt>
      <trkpt lat="45.68445" lon="6.70565">
        <ele>1973</ele>
        <time>2022-07-26T05:51:14Z</time>
      </trkpt>
      <trkpt lat="45.68444" lon="6.70565">
        <ele>1973</ele>
        <time>2022-07-26T05:51:15Z</time>
      </trkpt>
      <trkpt lat="45.68443" lon="6.70565">
        <ele>1973</ele>
        <time>2022-07-26T05:51:16Z</time>
      </trkpt>
      <trkpt lat="45.68442" lon="6.70564">
        <ele>1973</ele>
        <time>2022-07-26T05:51:17Z</time>
      </trkpt>
      <trkpt lat="45.68441" lon="6.70564">
        <ele>1973</ele>
        <time>2022-07-26T05:51:18Z</time>
      </trkpt>
      <trkpt lat="45.68441" lon="6.70564">
        <ele>1973</ele>
        <time>2022-07-26T05:51:19Z</time>
      </trkpt>
      <trkpt lat="45.6844" lon="6.70564">
        <ele>1974</ele>
        <time>2022-07-26T05:51:20Z</time>
      </trkpt>
      <trkpt lat="45.68439" lon="6.70563">
        <ele>1974</ele>
        <time>2022-07-26T05:51:21Z</time>
      </trkpt>
      <trkpt lat="45.68438" lon="6.70563">
        <ele>1974</ele>
        <time>2022-07-26T05:51:22Z</time>
      </trkpt>
      <trkpt lat="45.68437" lon="6.70563">
        <ele>1974</ele>
        <time>2022-07-26T05:51:23Z</time>
      </trkpt>
      <trkpt lat="45.68437" lon="6.70562">
        <ele>1974</ele>
        <time>2022-07-26T05:51:24Z</time>
      </trkpt>
      <trkpt lat="45.68436" lon="6.70562">
        <ele>1974</ele>
        <time>2022-07-26T05:51:25Z</time>
      </trkpt>
      <trkpt lat="45.68435" lon="6.70561">
        <ele>1974</ele>
        <time>2022-07-26T05:51:26Z</time>
      </trkpt>
      <trkpt lat="45.68434" lon="6.70561">
        <ele>1974</ele>
        <time>2022-07-26T05:51:27Z</time>
      </trkpt>
      <trkpt lat="45.68433" lon="6.7056">
        <ele>1974</ele>
        <time>2022-07-26T05:51:28Z</time>
      </trkpt>
      <trkpt lat="45.68432" lon="6.7056">
        <ele>1974</ele>
        <time>2022-07-26T05:51:29Z</time>
      </trkpt>
      <trkpt lat="45.68431" lon="6.7056">
        <ele>1975</ele>
        <time>2022-07-26T05:51:30Z</time>
      </trkpt>
      <trkpt lat="45.6843" lon="6.7056">
        <ele>1975</ele>
        <time>2022-07-26T05:51:31Z</time>
      </trkpt>
      <trkpt lat="45.68429" lon="6.7056">
        <ele>1975</ele>
        <time>2022-07-26T05:51:32Z</time>
      </trkpt>
      <trkpt lat="45.68429" lon="6.70559">
        <ele>1975</ele>
        <time>2022-07-26T05:51:33Z</time>
      </trkpt>
      <trkpt lat="45.68428" lon="6.70559">
        <ele>1975</ele>
        <time>2022-07-26T05:51:34Z</time>
      </trkpt>
      <trkpt lat="45.68427" lon="6.70559">
        <ele>1975</ele>
        <time>2022-07-26T05:51:35Z</time>
      </trkpt>
      <trkpt lat="45.68426" lon="6.70558">
        <ele>1975</ele>
        <time>2022-07-26T05:51:36Z</time>
      </trkpt>
      <trkpt lat="45.68425" lon="6.70558">
        <ele>1975</ele>
        <time>2022-07-26T05:51:37Z</time>
      </trkpt>
      <trkpt lat="45.68424" lon="6.70557">
        <ele>1975</ele>
        <time>2022-07-26T05:51:38Z</time>
      </trkpt>
      <trkpt lat="45.68423" lon="6.70556">
        <ele>1975</ele>
        <time>2022-07-26T05:51:39Z</time>
      </trkpt>
      <trkpt lat="45.68423" lon="6.70555">
        <ele>1976</ele>
        <time>2022-07-26T05:51:40Z</time>
      </trkpt>
      <trkpt lat="45.68422" lon="6.70555">
        <ele>1976</ele>
        <time>2022-07-26T05:51:41Z</time>
      </trkpt>
      <trkpt lat="45.68421" lon="6.70554">
        <ele>1976</ele>
        <time>2022-07-26T05:51:42Z</time>
      </trkpt>
      <trkpt lat="45.6842" lon="6.70553">
        <ele>1976</ele>
        <time>2022-07-26T05:51:43Z</time>
      </trkpt>
      <trkpt lat="45.6842" lon="6.70553">
        <ele>1976</ele>
        <time>2022-07-26T05:51:44Z</time>
      </trkpt>
      <trkpt lat="45.68419" lon="6.70552">
        <ele>1976</ele>
        <time>2022-07-26T05:51:45Z</time>
      </trkpt>
      <trkpt lat="45.68418" lon="6.70552">
        <ele>1976</ele>
        <time>2022-07-26T05:51:46Z</time>
      </trkpt>
      <trkpt lat="45.68417" lon="6.70551">
        <ele>1976</ele>
        <time>2022-07-26T05:51:47Z</time>
      </trkpt>
      <trkpt lat="45.68416" lon="6.70551">
        <ele>1976</ele>
        <time>2022-07-26T05:51:48Z</time>
      </trkpt>
      <trkpt lat="45.68415" lon="6.7055">
        <ele>1976</ele>
        <time>2022-07-26T05:51:49Z</time>
      </trkpt>
      <trkpt lat="45.68414" lon="6.7055">
        <ele>1977</ele>
        <time>2022-07-26T05:51:50Z</time>
      </trkpt>
      <trkpt lat="45.68414" lon="6.70549">
        <ele>1977</ele>
        <time>2022-07-26T05:51:51Z</time>
      </trkpt>
      <trkpt lat="45.68413" lon="6.70549">
        <ele>1977</ele>
        <time>2022-07-26T05:51:52Z</time>
      </trkpt>
      <trkpt lat="45.68412" lon="6.70548">
        <ele>1977</ele>
        <time>2022-07-26T05:51:53Z</time>
      </trkpt>
      <trkpt lat="45.68411" lon="6.70548">
        <ele>1977</ele>
        <time>2022-07-26T05:51:54Z</time>
      </trkpt>
      <trkpt lat="45.6841" lon="6.70548">
        <ele>1977</ele>
        <time>2022-07-26T05:51:55Z</time>
      </trkpt>
      <trkpt lat="45.68409" lon="6.70548">
        <ele>1977</ele>
        <time>2022-07-26T05:51:56Z</time>
      </trkpt>
      <trkpt lat="45.68408" lon="6.70548">
        <ele>1977</ele>
        <time>2022-07-26T05:51:57Z</time>
      </trkpt>
      <trkpt lat="45.68407" lon="6.70548">
        <ele>1977</ele>
        <time>2022-07-26T05:51:58Z</time>
      </trkpt>
      <trkpt lat="45.68406" lon="6.70548">
        <ele>1977</ele>
        <time>2022-07-26T05:51:59Z</time>
      </trkpt>
      <trkpt lat="45.68405" lon="6.70548">
        <ele>1977</ele>
        <time>2022-07-26T05:52:00Z</time>
      </trkpt>
      <trkpt lat="45.68404" lon="6.70548">
        <ele>1977</ele>
        <time>2022-07-26T05:52:01Z</time>
      </trkpt>
      <trkpt lat="45.68403" lon="6.70548">
        <ele>1977</ele>
        <time>2022-07-26T05:52:02Z</time>
      </trkpt>
      <trkpt lat="45.68402" lon="6.70548">
        <ele>1977</ele>
        <time>2022-07-26T05:52:03Z</time>
      </trkpt>
      <trkpt lat="45.68401" lon="6.70548">
        <ele>1977</ele>
        <time>2022-07-26T05:52:04Z</time>
      </trkpt>
      <trkpt lat="45.684" lon="6.70548">
        <ele>1978</ele>
        <time>2022-07-26T05:52:05Z</time>
      </trkpt>
      <trkpt lat="45.68399" lon="6.70548">
        <ele>1978</ele>
        <time>2022-07-26T05:52:06Z</time>
      </trkpt>
      <trkpt lat="45.68399" lon="6.70547">
        <ele>1978</ele>
        <time>2022-07-26T05:52:07Z</time>
      </trkpt>
      <trkpt lat="45.68398" lon="6.70547">
        <ele>1978</ele>
        <time>2022-07-26T05:52:08Z</time>
      </trkpt>
      <trkpt lat="45.68397" lon="6.70546">
        <ele>1978</ele>
        <time>2022-07-26T05:52:09Z</time>
      </trkpt>
      <trkpt lat="45.68396" lon="6.70546">
        <ele>1978</ele>
        <time>2022-07-26T05:52:10Z</time>
      </trkpt>
      <trkpt lat="45.68395" lon="6.70545">
        <ele>1978</ele>
        <time>2022-07-26T05:52:11Z</time>
      </trkpt>
      <trkpt lat="45.68394" lon="6.70545">
        <ele>1978</ele>
        <time>2022-07-26T05:52:12Z</time>
      </trkpt>
      <trkpt lat="45.68394" lon="6.70544">
        <ele>1978</ele>
        <time>2022-07-26T05:52:13Z</time>
      </trkpt>
      <trkpt lat="45.68393" lon="6.70544">
        <ele>1978</ele>
        <time>2022-07-26T05:52:14Z</time>
      </trkpt>
      <trkpt lat="45.68392" lon="6.70543">
        <ele>1979</ele>
        <time>2022-07-26T05:52:15Z</time>
      </trkpt>
      <trkpt lat="45.68391" lon="6.70542">
        <ele>1979</ele>
        <time>2022-07-26T05:52:16Z</time>
      </trkpt>
      <trkpt lat="45.68391" lon="6.70542">
        <ele>1979</ele>
        <time>2022-07-26T05:52:17Z</time>
      </trkpt>
      <trkpt lat="45.6839" lon="6.70542">
        <ele>1979</ele>
        <time>2022-07-26T05:52:18Z</time>
      </trkpt>
      <trkpt lat="45.6839" lon="6.70541">
        <ele>1979</ele>
        <time>2022-07-26T05:52:19Z</time>
      </trkpt>
      <trkpt lat="45.68389" lon="6.70541">
        <ele>1979</ele>
        <time>2022-07-26T05:52:20Z</time>
      </trkpt>
      <trkpt lat="45.68389" lon="6.70541">
        <ele>1979</ele>
        <time>2022-07-26T05:52:21Z</time>
      </trkpt>
      <trkpt lat="45.68388" lon="6.7054">
        <ele>1979</ele>
        <time>2022-07-26T05:52:22Z</time>
      </trkpt>
      <trkpt lat="45.68387" lon="6.7054">
        <ele>1979</ele>
        <time>2022-07-26T05:52:23Z</time>
      </trkpt>
      <trkpt lat="45.68387" lon="6.70539">
        <ele>1979</ele>
        <time>2022-07-26T05:52:24Z</time>
      </trkpt>
      <trkpt lat="45.68386" lon="6.70539">
        <ele>1980</ele>
        <time>2022-07-26T05:52:25Z</time>
      </trkpt>
      <trkpt lat="45.68385" lon="6.70538">
        <ele>1980</ele>
        <time>2022-07-26T05:52:26Z</time>
      </trkpt>
      <trkpt lat="45.68384" lon="6.70538">
        <ele>1980</ele>
        <time>2022-07-26T05:52:27Z</time>
      </trkpt>
      <trkpt lat="45.68383" lon="6.70537">
        <ele>1980</ele>
        <time>2022-07-26T05:52:28Z</time>
      </trkpt>
      <trkpt lat="45.68382" lon="6.70537">
        <ele>1980</ele>
        <time>2022-07-26T05:52:29Z</time>
      </trkpt>
      <trkpt lat="45.68381" lon="6.70537">
        <ele>1980</ele>
        <time>2022-07-26T05:52:30Z</time>
      </trkpt>
      <trkpt lat="45.68381" lon="6.70536">
        <ele>1980</ele>
        <time>2022-07-26T05:52:31Z</time>
      </trkpt>
      <trkpt lat="45.6838" lon="6.70536">
        <ele>1980</ele>
        <time>2022-07-26T05:52:32Z</time>
      </trkpt>
      <trkpt lat="45.6838" lon="6.70535">
        <ele>1980</ele>
        <time>2022-07-26T05:52:33Z</time>
      </trkpt>
      <trkpt lat="45.68379" lon="6.70535">
        <ele>1980</ele>
        <time>2022-07-26T05:52:34Z</time>
      </trkpt>
      <trkpt lat="45.68379" lon="6.70535">
        <ele>1981</ele>
        <time>2022-07-26T05:52:35Z</time>
      </trkpt>
      <trkpt lat="45.68378" lon="6.70535">
        <ele>1981</ele>
        <time>2022-07-26T05:52:36Z</time>
      </trkpt>
      <trkpt lat="45.68377" lon="6.70535">
        <ele>1981</ele>
        <time>2022-07-26T05:52:37Z</time>
      </trkpt>
      <trkpt lat="45.68376" lon="6.70535">
        <ele>1981</ele>
        <time>2022-07-26T05:52:38Z</time>
      </trkpt>
      <trkpt lat="45.68376" lon="6.70535">
        <ele>1981</ele>
        <time>2022-07-26T05:52:39Z</time>
      </trkpt>
      <trkpt lat="45.68375" lon="6.70535">
        <ele>1981</ele>
        <time>2022-07-26T05:52:40Z</time>
      </trkpt>
      <trkpt lat="45.68374" lon="6.70535">
        <ele>1981</ele>
        <time>2022-07-26T05:52:41Z</time>
      </trkpt>
      <trkpt lat="45.68373" lon="6.70535">
        <ele>1981</ele>
        <time>2022-07-26T05:52:42Z</time>
      </trkpt>
      <trkpt lat="45.68372" lon="6.70535">
        <ele>1981</ele>
        <time>2022-07-26T05:52:43Z</time>
      </trkpt>
      <trkpt lat="45.68371" lon="6.70535">
        <ele>1981</ele>
        <time>2022-07-26T05:52:44Z</time>
      </trkpt>
      <trkpt lat="45.6837" lon="6.70536">
        <ele>1981</ele>
        <time>2022-07-26T05:52:45Z</time>
      </trkpt>
      <trkpt lat="45.68369" lon="6.70536">
        <ele>1981</ele>
        <time>2022-07-26T05:52:46Z</time>
      </trkpt>
      <trkpt lat="45.68369" lon="6.70536">
        <ele>1981</ele>
        <time>2022-07-26T05:52:47Z</time>
      </trkpt>
      <trkpt lat="45.68368" lon="6.70536">
        <ele>1981</ele>
        <time>2022-07-26T05:52:48Z</time>
      </trkpt>
      <trkpt lat="45.68366" lon="6.70536">
        <ele>1981</ele>
        <time>2022-07-26T05:52:49Z</time>
      </trkpt>
      <trkpt lat="45.68365" lon="6.70537">
        <ele>1982</ele>
        <time>2022-07-26T05:52:50Z</time>
      </trkpt>
      <trkpt lat="45.68364" lon="6.70536">
        <ele>1982</ele>
        <time>2022-07-26T05:52:51Z</time>
      </trkpt>
      <trkpt lat="45.68363" lon="6.70536">
        <ele>1982</ele>
        <time>2022-07-26T05:52:52Z</time>
      </trkpt>
      <trkpt lat="45.68362" lon="6.70536">
        <ele>1982</ele>
        <time>2022-07-26T05:52:53Z</time>
      </trkpt>
      <trkpt lat="45.68361" lon="6.70535">
        <ele>1982</ele>
        <time>2022-07-26T05:52:54Z</time>
      </trkpt>
      <trkpt lat="45.6836" lon="6.70535">
        <ele>1982</ele>
        <time>2022-07-26T05:52:55Z</time>
      </trkpt>
      <trkpt lat="45.68359" lon="6.70534">
        <ele>1982</ele>
        <time>2022-07-26T05:52:56Z</time>
      </trkpt>
      <trkpt lat="45.68358" lon="6.70534">
        <ele>1982</ele>
        <time>2022-07-26T05:52:57Z</time>
      </trkpt>
      <trkpt lat="45.68357" lon="6.70533">
        <ele>1982</ele>
        <time>2022-07-26T05:52:58Z</time>
      </trkpt>
      <trkpt lat="45.68356" lon="6.70532">
        <ele>1982</ele>
        <time>2022-07-26T05:52:59Z</time>
      </trkpt>
      <trkpt lat="45.68355" lon="6.70532">
        <ele>1982</ele>
        <time>2022-07-26T05:53:00Z</time>
      </trkpt>
      <trkpt lat="45.68354" lon="6.70531">
        <ele>1982</ele>
        <time>2022-07-26T05:53:01Z</time>
      </trkpt>
      <trkpt lat="45.68353" lon="6.7053">
        <ele>1982</ele>
        <time>2022-07-26T05:53:02Z</time>
      </trkpt>
      <trkpt lat="45.68352" lon="6.7053">
        <ele>1982</ele>
        <time>2022-07-26T05:53:03Z</time>
      </trkpt>
      <trkpt lat="45.68351" lon="6.70529">
        <ele>1982</ele>
        <time>2022-07-26T05:53:04Z</time>
      </trkpt>
      <trkpt lat="45.6835" lon="6.70528">
        <ele>1982</ele>
        <time>2022-07-26T05:53:05Z</time>
      </trkpt>
      <trkpt lat="45.6835" lon="6.70528">
        <ele>1982</ele>
        <time>2022-07-26T05:53:06Z</time>
      </trkpt>
      <trkpt lat="45.68349" lon="6.70527">
        <ele>1982</ele>
        <time>2022-07-26T05:53:07Z</time>
      </trkpt>
      <trkpt lat="45.68348" lon="6.70527">
        <ele>1982</ele>
        <time>2022-07-26T05:53:08Z</time>
      </trkpt>
      <trkpt lat="45.68347" lon="6.70527">
        <ele>1982</ele>
        <time>2022-07-26T05:53:09Z</time>
      </trkpt>
      <trkpt lat="45.68346" lon="6.70526">
        <ele>1982</ele>
        <time>2022-07-26T05:53:10Z</time>
      </trkpt>
      <trkpt lat="45.68345" lon="6.70526">
        <ele>1982</ele>
        <time>2022-07-26T05:53:11Z</time>
      </trkpt>
      <trkpt lat="45.68344" lon="6.70525">
        <ele>1982</ele>
        <time>2022-07-26T05:53:12Z</time>
      </trkpt>
      <trkpt lat="45.68344" lon="6.70525">
        <ele>1982</ele>
        <time>2022-07-26T05:53:13Z</time>
      </trkpt>
      <trkpt lat="45.68343" lon="6.70524">
        <ele>1982</ele>
        <time>2022-07-26T05:53:14Z</time>
      </trkpt>
      <trkpt lat="45.68342" lon="6.70523">
        <ele>1983</ele>
        <time>2022-07-26T05:53:15Z</time>
      </trkpt>
      <trkpt lat="45.68341" lon="6.70523">
        <ele>1983</ele>
        <time>2022-07-26T05:53:16Z</time>
      </trkpt>
      <trkpt lat="45.68341" lon="6.70522">
        <ele>1983</ele>
        <time>2022-07-26T05:53:17Z</time>
      </trkpt>
      <trkpt lat="45.6834" lon="6.70522">
        <ele>1983</ele>
        <time>2022-07-26T05:53:18Z</time>
      </trkpt>
      <trkpt lat="45.68339" lon="6.70522">
        <ele>1983</ele>
        <time>2022-07-26T05:53:19Z</time>
      </trkpt>
      <trkpt lat="45.68338" lon="6.70522">
        <ele>1983</ele>
        <time>2022-07-26T05:53:20Z</time>
      </trkpt>
      <trkpt lat="45.68337" lon="6.70522">
        <ele>1983</ele>
        <time>2022-07-26T05:53:21Z</time>
      </trkpt>
      <trkpt lat="45.68336" lon="6.70522">
        <ele>1983</ele>
        <time>2022-07-26T05:53:22Z</time>
      </trkpt>
      <trkpt lat="45.68335" lon="6.70522">
        <ele>1983</ele>
        <time>2022-07-26T05:53:23Z</time>
      </trkpt>
      <trkpt lat="45.68335" lon="6.70522">
        <ele>1983</ele>
        <time>2022-07-26T05:53:24Z</time>
      </trkpt>
      <trkpt lat="45.68334" lon="6.70522">
        <ele>1983</ele>
        <time>2022-07-26T05:53:25Z</time>
      </trkpt>
      <trkpt lat="45.68333" lon="6.70522">
        <ele>1983</ele>
        <time>2022-07-26T05:53:26Z</time>
      </trkpt>
      <trkpt lat="45.68332" lon="6.70522">
        <ele>1983</ele>
        <time>2022-07-26T05:53:27Z</time>
      </trkpt>
      <trkpt lat="45.68331" lon="6.70521">
        <ele>1983</ele>
        <time>2022-07-26T05:53:28Z</time>
      </trkpt>
      <trkpt lat="45.68331" lon="6.70521">
        <ele>1983</ele>
        <time>2022-07-26T05:53:29Z</time>
      </trkpt>
      <trkpt lat="45.6833" lon="6.70521">
        <ele>1983</ele>
        <time>2022-07-26T05:53:30Z</time>
      </trkpt>
      <trkpt lat="45.6833" lon="6.7052">
        <ele>1983</ele>
        <time>2022-07-26T05:53:31Z</time>
      </trkpt>
      <trkpt lat="45.68329" lon="6.7052">
        <ele>1983</ele>
        <time>2022-07-26T05:53:32Z</time>
      </trkpt>
      <trkpt lat="45.68328" lon="6.70519">
        <ele>1983</ele>
        <time>2022-07-26T05:53:33Z</time>
      </trkpt>
      <trkpt lat="45.68328" lon="6.70519">
        <ele>1983</ele>
        <time>2022-07-26T05:53:34Z</time>
      </trkpt>
      <trkpt lat="45.68326" lon="6.70518">
        <ele>1986</ele>
        <time>2022-07-26T05:53:45Z</time>
      </trkpt>
      <trkpt lat="45.68326" lon="6.70517">
        <ele>1986</ele>
        <time>2022-07-26T05:53:46Z</time>
      </trkpt>
      <trkpt lat="45.68325" lon="6.70517">
        <ele>1986</ele>
        <time>2022-07-26T05:53:47Z</time>
      </trkpt>
      <trkpt lat="45.68325" lon="6.70517">
        <ele>1986</ele>
        <time>2022-07-26T05:53:48Z</time>
      </trkpt>
      <trkpt lat="45.68324" lon="6.70516">
        <ele>1986</ele>
        <time>2022-07-26T05:53:49Z</time>
      </trkpt>
      <trkpt lat="45.68324" lon="6.70516">
        <ele>1986</ele>
        <time>2022-07-26T05:53:50Z</time>
      </trkpt>
      <trkpt lat="45.68323" lon="6.70516">
        <ele>1986</ele>
        <time>2022-07-26T05:53:51Z</time>
      </trkpt>
      <trkpt lat="45.68322" lon="6.70515">
        <ele>1986</ele>
        <time>2022-07-26T05:53:52Z</time>
      </trkpt>
      <trkpt lat="45.68322" lon="6.70515">
        <ele>1986</ele>
        <time>2022-07-26T05:53:53Z</time>
      </trkpt>
      <trkpt lat="45.68321" lon="6.70514">
        <ele>1986</ele>
        <time>2022-07-26T05:53:54Z</time>
      </trkpt>
      <trkpt lat="45.6832" lon="6.70514">
        <ele>1986</ele>
        <time>2022-07-26T05:53:55Z</time>
      </trkpt>
      <trkpt lat="45.68319" lon="6.70514">
        <ele>1986</ele>
        <time>2022-07-26T05:53:56Z</time>
      </trkpt>
      <trkpt lat="45.68318" lon="6.70514">
        <ele>1986</ele>
        <time>2022-07-26T05:53:57Z</time>
      </trkpt>
      <trkpt lat="45.68317" lon="6.70513">
        <ele>1986</ele>
        <time>2022-07-26T05:53:58Z</time>
      </trkpt>
      <trkpt lat="45.68316" lon="6.70513">
        <ele>1986</ele>
        <time>2022-07-26T05:53:59Z</time>
      </trkpt>
      <trkpt lat="45.68315" lon="6.70513">
        <ele>1986</ele>
        <time>2022-07-26T05:54:00Z</time>
      </trkpt>
      <trkpt lat="45.68314" lon="6.70512">
        <ele>1986</ele>
        <time>2022-07-26T05:54:01Z</time>
      </trkpt>
      <trkpt lat="45.68313" lon="6.70512">
        <ele>1986</ele>
        <time>2022-07-26T05:54:02Z</time>
      </trkpt>
      <trkpt lat="45.68312" lon="6.70512">
        <ele>1986</ele>
        <time>2022-07-26T05:54:03Z</time>
      </trkpt>
      <trkpt lat="45.68311" lon="6.70512">
        <ele>1986</ele>
        <time>2022-07-26T05:54:04Z</time>
      </trkpt>
      <trkpt lat="45.6831" lon="6.70511">
        <ele>1986</ele>
        <time>2022-07-26T05:54:05Z</time>
      </trkpt>
      <trkpt lat="45.68309" lon="6.70512">
        <ele>1986</ele>
        <time>2022-07-26T05:54:06Z</time>
      </trkpt>
      <trkpt lat="45.68308" lon="6.70512">
        <ele>1986</ele>
        <time>2022-07-26T05:54:07Z</time>
      </trkpt>
      <trkpt lat="45.68307" lon="6.70512">
        <ele>1986</ele>
        <time>2022-07-26T05:54:08Z</time>
      </trkpt>
      <trkpt lat="45.68306" lon="6.70512">
        <ele>1986</ele>
        <time>2022-07-26T05:54:09Z</time>
      </trkpt>
      <trkpt lat="45.68305" lon="6.70512">
        <ele>1986</ele>
        <time>2022-07-26T05:54:10Z</time>
      </trkpt>
      <trkpt lat="45.68304" lon="6.70512">
        <ele>1986</ele>
        <time>2022-07-26T05:54:11Z</time>
      </trkpt>
      <trkpt lat="45.68303" lon="6.70512">
        <ele>1986</ele>
        <time>2022-07-26T05:54:12Z</time>
      </trkpt>
      <trkpt lat="45.68302" lon="6.70511">
        <ele>1986</ele>
        <time>2022-07-26T05:54:13Z</time>
      </trkpt>
      <trkpt lat="45.68301" lon="6.70511">
        <ele>1986</ele>
        <time>2022-07-26T05:54:14Z</time>
      </trkpt>
      <trkpt lat="45.683" lon="6.7051">
        <ele>1986</ele>
        <time>2022-07-26T05:54:15Z</time>
      </trkpt>
      <trkpt lat="45.68299" lon="6.7051">
        <ele>1986</ele>
        <time>2022-07-26T05:54:16Z</time>
      </trkpt>
      <trkpt lat="45.68298" lon="6.70509">
        <ele>1986</ele>
        <time>2022-07-26T05:54:17Z</time>
      </trkpt>
      <trkpt lat="45.68297" lon="6.70508">
        <ele>1986</ele>
        <time>2022-07-26T05:54:18Z</time>
      </trkpt>
      <trkpt lat="45.68297" lon="6.70508">
        <ele>1986</ele>
        <time>2022-07-26T05:54:19Z</time>
      </trkpt>
      <trkpt lat="45.68296" lon="6.70507">
        <ele>1986</ele>
        <time>2022-07-26T05:54:29Z</time>
      </trkpt>
      <trkpt lat="45.68295" lon="6.70506">
        <ele>1986</ele>
        <time>2022-07-26T05:54:30Z</time>
      </trkpt>
      <trkpt lat="45.68294" lon="6.70505">
        <ele>1986</ele>
        <time>2022-07-26T05:54:31Z</time>
      </trkpt>
      <trkpt lat="45.68293" lon="6.70505">
        <ele>1986</ele>
        <time>2022-07-26T05:54:32Z</time>
      </trkpt>
      <trkpt lat="45.68293" lon="6.70505">
        <ele>1986</ele>
        <time>2022-07-26T05:54:33Z</time>
      </trkpt>
      <trkpt lat="45.68292" lon="6.70504">
        <ele>1986</ele>
        <time>2022-07-26T05:54:34Z</time>
      </trkpt>
      <trkpt lat="45.68291" lon="6.70504">
        <ele>1986</ele>
        <time>2022-07-26T05:54:35Z</time>
      </trkpt>
      <trkpt lat="45.68291" lon="6.70504">
        <ele>1986</ele>
        <time>2022-07-26T05:54:36Z</time>
      </trkpt>
      <trkpt lat="45.6829" lon="6.70503">
        <ele>1986</ele>
        <time>2022-07-26T05:54:37Z</time>
      </trkpt>
      <trkpt lat="45.68289" lon="6.70502">
        <ele>1986</ele>
        <time>2022-07-26T05:54:38Z</time>
      </trkpt>
      <trkpt lat="45.68288" lon="6.70502">
        <ele>1986</ele>
        <time>2022-07-26T05:54:39Z</time>
      </trkpt>
      <trkpt lat="45.68288" lon="6.70501">
        <ele>1986</ele>
        <time>2022-07-26T05:54:40Z</time>
      </trkpt>
      <trkpt lat="45.68287" lon="6.705">
        <ele>1986</ele>
        <time>2022-07-26T05:54:41Z</time>
      </trkpt>
      <trkpt lat="45.68286" lon="6.70499">
        <ele>1986</ele>
        <time>2022-07-26T05:54:42Z</time>
      </trkpt>
      <trkpt lat="45.68285" lon="6.70498">
        <ele>1986</ele>
        <time>2022-07-26T05:54:43Z</time>
      </trkpt>
      <trkpt lat="45.68285" lon="6.70498">
        <ele>1986</ele>
        <time>2022-07-26T05:54:44Z</time>
      </trkpt>
      <trkpt lat="45.68284" lon="6.70497">
        <ele>1986</ele>
        <time>2022-07-26T05:54:45Z</time>
      </trkpt>
      <trkpt lat="45.68283" lon="6.70497">
        <ele>1986</ele>
        <time>2022-07-26T05:54:46Z</time>
      </trkpt>
      <trkpt lat="45.68282" lon="6.70497">
        <ele>1986</ele>
        <time>2022-07-26T05:54:47Z</time>
      </trkpt>
      <trkpt lat="45.68281" lon="6.70496">
        <ele>1986</ele>
        <time>2022-07-26T05:54:48Z</time>
      </trkpt>
      <trkpt lat="45.6828" lon="6.70496">
        <ele>1986</ele>
        <time>2022-07-26T05:54:49Z</time>
      </trkpt>
      <trkpt lat="45.68279" lon="6.70496">
        <ele>1986</ele>
        <time>2022-07-26T05:54:50Z</time>
      </trkpt>
      <trkpt lat="45.68278" lon="6.70495">
        <ele>1986</ele>
        <time>2022-07-26T05:54:51Z</time>
      </trkpt>
      <trkpt lat="45.68278" lon="6.70495">
        <ele>1986</ele>
        <time>2022-07-26T05:54:52Z</time>
      </trkpt>
      <trkpt lat="45.68277" lon="6.70494">
        <ele>1986</ele>
        <time>2022-07-26T05:54:53Z</time>
      </trkpt>
      <trkpt lat="45.68276" lon="6.70493">
        <ele>1986</ele>
        <time>2022-07-26T05:54:54Z</time>
      </trkpt>
      <trkpt lat="45.68275" lon="6.70493">
        <ele>1986</ele>
        <time>2022-07-26T05:54:55Z</time>
      </trkpt>
      <trkpt lat="45.68274" lon="6.70492">
        <ele>1986</ele>
        <time>2022-07-26T05:54:56Z</time>
      </trkpt>
      <trkpt lat="45.68273" lon="6.70492">
        <ele>1986</ele>
        <time>2022-07-26T05:54:57Z</time>
      </trkpt>
      <trkpt lat="45.68272" lon="6.70491">
        <ele>1986</ele>
        <time>2022-07-26T05:54:58Z</time>
      </trkpt>
      <trkpt lat="45.68271" lon="6.70491">
        <ele>1986</ele>
        <time>2022-07-26T05:54:59Z</time>
      </trkpt>
      <trkpt lat="45.6827" lon="6.70491">
        <ele>1986</ele>
        <time>2022-07-26T05:55:00Z</time>
      </trkpt>
      <trkpt lat="45.68269" lon="6.70491">
        <ele>1986</ele>
        <time>2022-07-26T05:55:01Z</time>
      </trkpt>
      <trkpt lat="45.68268" lon="6.70491">
        <ele>1986</ele>
        <time>2022-07-26T05:55:02Z</time>
      </trkpt>
      <trkpt lat="45.68267" lon="6.7049">
        <ele>1986</ele>
        <time>2022-07-26T05:55:03Z</time>
      </trkpt>
      <trkpt lat="45.68266" lon="6.7049">
        <ele>1986</ele>
        <time>2022-07-26T05:55:04Z</time>
      </trkpt>
      <trkpt lat="45.68265" lon="6.7049">
        <ele>1986</ele>
        <time>2022-07-26T05:55:05Z</time>
      </trkpt>
      <trkpt lat="45.68264" lon="6.70489">
        <ele>1986</ele>
        <time>2022-07-26T05:55:06Z</time>
      </trkpt>
      <trkpt lat="45.68264" lon="6.70488">
        <ele>1986</ele>
        <time>2022-07-26T05:55:07Z</time>
      </trkpt>
      <trkpt lat="45.68263" lon="6.70488">
        <ele>1986</ele>
        <time>2022-07-26T05:55:08Z</time>
      </trkpt>
      <trkpt lat="45.68262" lon="6.70487">
        <ele>1986</ele>
        <time>2022-07-26T05:55:09Z</time>
      </trkpt>
      <trkpt lat="45.68262" lon="6.70486">
        <ele>1986</ele>
        <time>2022-07-26T05:55:10Z</time>
      </trkpt>
      <trkpt lat="45.68261" lon="6.70486">
        <ele>1986</ele>
        <time>2022-07-26T05:55:11Z</time>
      </trkpt>
      <trkpt lat="45.6826" lon="6.70485">
        <ele>1986</ele>
        <time>2022-07-26T05:55:12Z</time>
      </trkpt>
      <trkpt lat="45.68259" lon="6.70484">
        <ele>1986</ele>
        <time>2022-07-26T05:55:13Z</time>
      </trkpt>
      <trkpt lat="45.68258" lon="6.70482">
        <ele>1987</ele>
        <time>2022-07-26T05:55:25Z</time>
      </trkpt>
      <trkpt lat="45.68258" lon="6.70482">
        <ele>1987</ele>
        <time>2022-07-26T05:55:26Z</time>
      </trkpt>
      <trkpt lat="45.68258" lon="6.70481">
        <ele>1987</ele>
        <time>2022-07-26T05:55:27Z</time>
      </trkpt>
      <trkpt lat="45.68257" lon="6.70481">
        <ele>1987</ele>
        <time>2022-07-26T05:55:28Z</time>
      </trkpt>
      <trkpt lat="45.68257" lon="6.7048">
        <ele>1987</ele>
        <time>2022-07-26T05:55:29Z</time>
      </trkpt>
      <trkpt lat="45.68256" lon="6.7048">
        <ele>1987</ele>
        <time>2022-07-26T05:55:30Z</time>
      </trkpt>
      <trkpt lat="45.68255" lon="6.70479">
        <ele>1987</ele>
        <time>2022-07-26T05:55:31Z</time>
      </trkpt>
      <trkpt lat="45.68255" lon="6.70478">
        <ele>1987</ele>
        <time>2022-07-26T05:55:32Z</time>
      </trkpt>
      <trkpt lat="45.68254" lon="6.70477">
        <ele>1987</ele>
        <time>2022-07-26T05:55:33Z</time>
      </trkpt>
      <trkpt lat="45.68254" lon="6.70476">
        <ele>1987</ele>
        <time>2022-07-26T05:55:34Z</time>
      </trkpt>
      <trkpt lat="45.68253" lon="6.70475">
        <ele>1987</ele>
        <time>2022-07-26T05:55:35Z</time>
      </trkpt>
      <trkpt lat="45.68253" lon="6.70474">
        <ele>1987</ele>
        <time>2022-07-26T05:55:36Z</time>
      </trkpt>
      <trkpt lat="45.68252" lon="6.70473">
        <ele>1987</ele>
        <time>2022-07-26T05:55:37Z</time>
      </trkpt>
      <trkpt lat="45.68251" lon="6.70472">
        <ele>1987</ele>
        <time>2022-07-26T05:55:38Z</time>
      </trkpt>
      <trkpt lat="45.68251" lon="6.70471">
        <ele>1987</ele>
        <time>2022-07-26T05:55:39Z</time>
      </trkpt>
      <trkpt lat="45.6825" lon="6.70471">
        <ele>1987</ele>
        <time>2022-07-26T05:55:40Z</time>
      </trkpt>
      <trkpt lat="45.68249" lon="6.70471">
        <ele>1987</ele>
        <time>2022-07-26T05:55:41Z</time>
      </trkpt>
      <trkpt lat="45.68248" lon="6.7047">
        <ele>1987</ele>
        <time>2022-07-26T05:55:42Z</time>
      </trkpt>
      <trkpt lat="45.68247" lon="6.7047">
        <ele>1987</ele>
        <time>2022-07-26T05:55:43Z</time>
      </trkpt>
      <trkpt lat="45.68246" lon="6.70469">
        <ele>1987</ele>
        <time>2022-07-26T05:55:44Z</time>
      </trkpt>
      <trkpt lat="45.68245" lon="6.70469">
        <ele>1988</ele>
        <time>2022-07-26T05:55:45Z</time>
      </trkpt>
      <trkpt lat="45.68245" lon="6.70468">
        <ele>1988</ele>
        <time>2022-07-26T05:55:46Z</time>
      </trkpt>
      <trkpt lat="45.68244" lon="6.70467">
        <ele>1988</ele>
        <time>2022-07-26T05:55:47Z</time>
      </trkpt>
      <trkpt lat="45.68243" lon="6.70467">
        <ele>1988</ele>
        <time>2022-07-26T05:55:48Z</time>
      </trkpt>
      <trkpt lat="45.68242" lon="6.70466">
        <ele>1988</ele>
        <time>2022-07-26T05:55:49Z</time>
      </trkpt>
      <trkpt lat="45.68241" lon="6.70465">
        <ele>1989</ele>
        <time>2022-07-26T05:55:50Z</time>
      </trkpt>
      <trkpt lat="45.6824" lon="6.70465">
        <ele>1989</ele>
        <time>2022-07-26T05:55:51Z</time>
      </trkpt>
      <trkpt lat="45.6824" lon="6.70464">
        <ele>1989</ele>
        <time>2022-07-26T05:55:52Z</time>
      </trkpt>
      <trkpt lat="45.68239" lon="6.70463">
        <ele>1989</ele>
        <time>2022-07-26T05:55:53Z</time>
      </trkpt>
      <trkpt lat="45.68238" lon="6.70462">
        <ele>1989</ele>
        <time>2022-07-26T05:55:54Z</time>
      </trkpt>
      <trkpt lat="45.68237" lon="6.70461">
        <ele>1989</ele>
        <time>2022-07-26T05:55:55Z</time>
      </trkpt>
      <trkpt lat="45.68236" lon="6.7046">
        <ele>1989</ele>
        <time>2022-07-26T05:55:56Z</time>
      </trkpt>
      <trkpt lat="45.68236" lon="6.70459">
        <ele>1989</ele>
        <time>2022-07-26T05:55:57Z</time>
      </trkpt>
      <trkpt lat="45.68235" lon="6.70458">
        <ele>1989</ele>
        <time>2022-07-26T05:55:58Z</time>
      </trkpt>
      <trkpt lat="45.68234" lon="6.70457">
        <ele>1989</ele>
        <time>2022-07-26T05:55:59Z</time>
      </trkpt>
      <trkpt lat="45.68233" lon="6.70457">
        <ele>1990</ele>
        <time>2022-07-26T05:56:00Z</time>
      </trkpt>
      <trkpt lat="45.68233" lon="6.70456">
        <ele>1990</ele>
        <time>2022-07-26T05:56:01Z</time>
      </trkpt>
      <trkpt lat="45.68232" lon="6.70455">
        <ele>1990</ele>
        <time>2022-07-26T05:56:02Z</time>
      </trkpt>
      <trkpt lat="45.68231" lon="6.70454">
        <ele>1990</ele>
        <time>2022-07-26T05:56:03Z</time>
      </trkpt>
      <trkpt lat="45.68231" lon="6.70454">
        <ele>1990</ele>
        <time>2022-07-26T05:56:04Z</time>
      </trkpt>
      <trkpt lat="45.6823" lon="6.70453">
        <ele>1990</ele>
        <time>2022-07-26T05:56:05Z</time>
      </trkpt>
      <trkpt lat="45.68229" lon="6.70452">
        <ele>1990</ele>
        <time>2022-07-26T05:56:06Z</time>
      </trkpt>
      <trkpt lat="45.68229" lon="6.70452">
        <ele>1990</ele>
        <time>2022-07-26T05:56:07Z</time>
      </trkpt>
      <trkpt lat="45.68228" lon="6.70451">
        <ele>1990</ele>
        <time>2022-07-26T05:56:08Z</time>
      </trkpt>
      <trkpt lat="45.68227" lon="6.7045">
        <ele>1990</ele>
        <time>2022-07-26T05:56:09Z</time>
      </trkpt>
      <trkpt lat="45.68227" lon="6.70449">
        <ele>1990</ele>
        <time>2022-07-26T05:56:10Z</time>
      </trkpt>
      <trkpt lat="45.68226" lon="6.70448">
        <ele>1990</ele>
        <time>2022-07-26T05:56:11Z</time>
      </trkpt>
      <trkpt lat="45.68226" lon="6.70448">
        <ele>1990</ele>
        <time>2022-07-26T05:56:12Z</time>
      </trkpt>
      <trkpt lat="45.68226" lon="6.70447">
        <ele>1990</ele>
        <time>2022-07-26T05:56:13Z</time>
      </trkpt>
      <trkpt lat="45.68225" lon="6.70447">
        <ele>1990</ele>
        <time>2022-07-26T05:56:14Z</time>
      </trkpt>
      <trkpt lat="45.68224" lon="6.70446">
        <ele>1991</ele>
        <time>2022-07-26T05:56:15Z</time>
      </trkpt>
      <trkpt lat="45.68224" lon="6.70446">
        <ele>1991</ele>
        <time>2022-07-26T05:56:16Z</time>
      </trkpt>
      <trkpt lat="45.68223" lon="6.70446">
        <ele>1991</ele>
        <time>2022-07-26T05:56:17Z</time>
      </trkpt>
      <trkpt lat="45.68222" lon="6.70445">
        <ele>1991</ele>
        <time>2022-07-26T05:56:18Z</time>
      </trkpt>
      <trkpt lat="45.68222" lon="6.70444">
        <ele>1991</ele>
        <time>2022-07-26T05:56:19Z</time>
      </trkpt>
      <trkpt lat="45.68221" lon="6.70443">
        <ele>1991</ele>
        <time>2022-07-26T05:56:20Z</time>
      </trkpt>
      <trkpt lat="45.6822" lon="6.70443">
        <ele>1991</ele>
        <time>2022-07-26T05:56:21Z</time>
      </trkpt>
      <trkpt lat="45.6822" lon="6.70442">
        <ele>1991</ele>
        <time>2022-07-26T05:56:22Z</time>
      </trkpt>
      <trkpt lat="45.68219" lon="6.70441">
        <ele>1991</ele>
        <time>2022-07-26T05:56:23Z</time>
      </trkpt>
      <trkpt lat="45.68218" lon="6.7044">
        <ele>1991</ele>
        <time>2022-07-26T05:56:24Z</time>
      </trkpt>
      <trkpt lat="45.68218" lon="6.7044">
        <ele>1991</ele>
        <time>2022-07-26T05:56:25Z</time>
      </trkpt>
      <trkpt lat="45.68217" lon="6.70439">
        <ele>1991</ele>
        <time>2022-07-26T05:56:26Z</time>
      </trkpt>
      <trkpt lat="45.68216" lon="6.70438">
        <ele>1991</ele>
        <time>2022-07-26T05:56:27Z</time>
      </trkpt>
      <trkpt lat="45.68215" lon="6.70437">
        <ele>1991</ele>
        <time>2022-07-26T05:56:28Z</time>
      </trkpt>
      <trkpt lat="45.68215" lon="6.70436">
        <ele>1991</ele>
        <time>2022-07-26T05:56:29Z</time>
      </trkpt>
      <trkpt lat="45.68214" lon="6.70435">
        <ele>1991</ele>
        <time>2022-07-26T05:56:30Z</time>
      </trkpt>
      <trkpt lat="45.68213" lon="6.70434">
        <ele>1991</ele>
        <time>2022-07-26T05:56:31Z</time>
      </trkpt>
      <trkpt lat="45.68213" lon="6.70433">
        <ele>1991</ele>
        <time>2022-07-26T05:56:32Z</time>
      </trkpt>
      <trkpt lat="45.68212" lon="6.70432">
        <ele>1991</ele>
        <time>2022-07-26T05:56:33Z</time>
      </trkpt>
      <trkpt lat="45.68212" lon="6.70431">
        <ele>1991</ele>
        <time>2022-07-26T05:56:34Z</time>
      </trkpt>
      <trkpt lat="45.68212" lon="6.7043">
        <ele>1991</ele>
        <time>2022-07-26T05:56:35Z</time>
      </trkpt>
      <trkpt lat="45.68212" lon="6.70429">
        <ele>1991</ele>
        <time>2022-07-26T05:56:36Z</time>
      </trkpt>
      <trkpt lat="45.68212" lon="6.70428">
        <ele>1991</ele>
        <time>2022-07-26T05:56:37Z</time>
      </trkpt>
      <trkpt lat="45.68212" lon="6.70427">
        <ele>1991</ele>
        <time>2022-07-26T05:56:38Z</time>
      </trkpt>
      <trkpt lat="45.68213" lon="6.70426">
        <ele>1991</ele>
        <time>2022-07-26T05:56:39Z</time>
      </trkpt>
      <trkpt lat="45.68213" lon="6.70425">
        <ele>1992</ele>
        <time>2022-07-26T05:56:40Z</time>
      </trkpt>
      <trkpt lat="45.68213" lon="6.70425">
        <ele>1992</ele>
        <time>2022-07-26T05:56:41Z</time>
      </trkpt>
      <trkpt lat="45.68214" lon="6.70424">
        <ele>1992</ele>
        <time>2022-07-26T05:56:42Z</time>
      </trkpt>
      <trkpt lat="45.68214" lon="6.70424">
        <ele>1992</ele>
        <time>2022-07-26T05:56:43Z</time>
      </trkpt>
      <trkpt lat="45.68215" lon="6.70423">
        <ele>1992</ele>
        <time>2022-07-26T05:56:44Z</time>
      </trkpt>
      <trkpt lat="45.68215" lon="6.70423">
        <ele>1992</ele>
        <time>2022-07-26T05:56:45Z</time>
      </trkpt>
      <trkpt lat="45.68216" lon="6.70423">
        <ele>1991</ele>
        <time>2022-07-26T05:56:46Z</time>
      </trkpt>
      <trkpt lat="45.68216" lon="6.70423">
        <ele>1991</ele>
        <time>2022-07-26T05:56:47Z</time>
      </trkpt>
      <trkpt lat="45.68217" lon="6.70423">
        <ele>1991</ele>
        <time>2022-07-26T05:56:48Z</time>
      </trkpt>
      <trkpt lat="45.68218" lon="6.70423">
        <ele>1991</ele>
        <time>2022-07-26T05:56:49Z</time>
      </trkpt>
      <trkpt lat="45.68219" lon="6.70423">
        <ele>1989</ele>
        <time>2022-07-26T05:57:24Z</time>
      </trkpt>
      <trkpt lat="45.68219" lon="6.70422">
        <ele>1989</ele>
        <time>2022-07-26T05:57:25Z</time>
      </trkpt>
      <trkpt lat="45.68219" lon="6.70421">
        <ele>1989</ele>
        <time>2022-07-26T05:57:26Z</time>
      </trkpt>
      <trkpt lat="45.68219" lon="6.70421">
        <ele>1989</ele>
        <time>2022-07-26T05:57:27Z</time>
      </trkpt>
      <trkpt lat="45.68218" lon="6.7042">
        <ele>1989</ele>
        <time>2022-07-26T05:57:28Z</time>
      </trkpt>
      <trkpt lat="45.68217" lon="6.70419">
        <ele>1989</ele>
        <time>2022-07-26T05:57:29Z</time>
      </trkpt>
      <trkpt lat="45.68217" lon="6.70418">
        <ele>1989</ele>
        <time>2022-07-26T05:57:30Z</time>
      </trkpt>
      <trkpt lat="45.68216" lon="6.70417">
        <ele>1989</ele>
        <time>2022-07-26T05:57:31Z</time>
      </trkpt>
      <trkpt lat="45.68215" lon="6.70416">
        <ele>1989</ele>
        <time>2022-07-26T05:57:32Z</time>
      </trkpt>
      <trkpt lat="45.68214" lon="6.70415">
        <ele>1989</ele>
        <time>2022-07-26T05:57:33Z</time>
      </trkpt>
      <trkpt lat="45.68213" lon="6.70413">
        <ele>1989</ele>
        <time>2022-07-26T05:57:34Z</time>
      </trkpt>
      <trkpt lat="45.68212" lon="6.70412">
        <ele>1989</ele>
        <time>2022-07-26T05:57:35Z</time>
      </trkpt>
      <trkpt lat="45.68211" lon="6.7041">
        <ele>1988</ele>
        <time>2022-07-26T05:57:36Z</time>
      </trkpt>
      <trkpt lat="45.68211" lon="6.70409">
        <ele>1988</ele>
        <time>2022-07-26T05:57:37Z</time>
      </trkpt>
      <trkpt lat="45.6821" lon="6.70407">
        <ele>1988</ele>
        <time>2022-07-26T05:57:38Z</time>
      </trkpt>
      <trkpt lat="45.68211" lon="6.70404">
        <ele>1987</ele>
        <time>2022-07-26T05:57:45Z</time>
      </trkpt>
      <trkpt lat="45.68211" lon="6.70403">
        <ele>1987</ele>
        <time>2022-07-26T05:57:46Z</time>
      </trkpt>
      <trkpt lat="45.68211" lon="6.70403">
        <ele>1987</ele>
        <time>2022-07-26T05:57:47Z</time>
      </trkpt>
      <trkpt lat="45.68211" lon="6.70402">
        <ele>1987</ele>
        <time>2022-07-26T05:57:48Z</time>
      </trkpt>
      <trkpt lat="45.68211" lon="6.70402">
        <ele>1987</ele>
        <time>2022-07-26T05:57:49Z</time>
      </trkpt>
      <trkpt lat="45.68212" lon="6.70402">
        <ele>1987</ele>
        <time>2022-07-26T05:57:50Z</time>
      </trkpt>
      <trkpt lat="45.68212" lon="6.70401">
        <ele>1986</ele>
        <time>2022-07-26T05:57:51Z</time>
      </trkpt>
      <trkpt lat="45.68212" lon="6.70401">
        <ele>1986</ele>
        <time>2022-07-26T05:57:52Z</time>
      </trkpt>
      <trkpt lat="45.68212" lon="6.70401">
        <ele>1986</ele>
        <time>2022-07-26T05:57:53Z</time>
      </trkpt>
      <trkpt lat="45.68213" lon="6.704">
        <ele>1986</ele>
        <time>2022-07-26T05:57:54Z</time>
      </trkpt>
      <trkpt lat="45.68213" lon="6.70399">
        <ele>1986</ele>
        <time>2022-07-26T05:57:55Z</time>
      </trkpt>
      <trkpt lat="45.68213" lon="6.70399">
        <ele>1986</ele>
        <time>2022-07-26T05:57:56Z</time>
      </trkpt>
      <trkpt lat="45.68214" lon="6.70398">
        <ele>1986</ele>
        <time>2022-07-26T05:57:57Z</time>
      </trkpt>
      <trkpt lat="45.68214" lon="6.70398">
        <ele>1986</ele>
        <time>2022-07-26T05:57:58Z</time>
      </trkpt>
      <trkpt lat="45.68214" lon="6.70397">
        <ele>1987</ele>
        <time>2022-07-26T05:59:07Z</time>
      </trkpt>
      <trkpt lat="45.68214" lon="6.70397">
        <ele>1987</ele>
        <time>2022-07-26T05:59:08Z</time>
      </trkpt>
      <trkpt lat="45.68214" lon="6.70397">
        <ele>1987</ele>
        <time>2022-07-26T05:59:09Z</time>
      </trkpt>
      <trkpt lat="45.68214" lon="6.70396">
        <ele>1987</ele>
        <time>2022-07-26T05:59:10Z</time>
      </trkpt>
      <trkpt lat="45.68213" lon="6.70395">
        <ele>1987</ele>
        <time>2022-07-26T05:59:11Z</time>
      </trkpt>
      <trkpt lat="45.68214" lon="6.70392">
        <ele>1987</ele>
        <time>2022-07-26T05:59:31Z</time>
      </trkpt>
      <trkpt lat="45.68214" lon="6.70391">
        <ele>1987</ele>
        <time>2022-07-26T05:59:32Z</time>
      </trkpt>
      <trkpt lat="45.68214" lon="6.7039">
        <ele>1987</ele>
        <time>2022-07-26T05:59:33Z</time>
      </trkpt>
      <trkpt lat="45.68214" lon="6.7039">
        <ele>1987</ele>
        <time>2022-07-26T05:59:34Z</time>
      </trkpt>
      <trkpt lat="45.68214" lon="6.70389">
        <ele>1987</ele>
        <time>2022-07-26T05:59:35Z</time>
      </trkpt>
      <trkpt lat="45.68214" lon="6.70388">
        <ele>1987</ele>
        <time>2022-07-26T05:59:36Z</time>
      </trkpt>
      <trkpt lat="45.68214" lon="6.70387">
        <ele>1987</ele>
        <time>2022-07-26T05:59:37Z</time>
      </trkpt>
      <trkpt lat="45.68214" lon="6.70386">
        <ele>1987</ele>
        <time>2022-07-26T05:59:38Z</time>
      </trkpt>
      <trkpt lat="45.68214" lon="6.70385">
        <ele>1987</ele>
        <time>2022-07-26T05:59:39Z</time>
      </trkpt>
      <trkpt lat="45.68214" lon="6.70384">
        <ele>1987</ele>
        <time>2022-07-26T05:59:40Z</time>
      </trkpt>
      <trkpt lat="45.68213" lon="6.70383">
        <ele>1987</ele>
        <time>2022-07-26T05:59:41Z</time>
      </trkpt>
      <trkpt lat="45.68213" lon="6.70381">
        <ele>1987</ele>
        <time>2022-07-26T05:59:42Z</time>
      </trkpt>
      <trkpt lat="45.68213" lon="6.70379">
        <ele>1990</ele>
        <time>2022-07-26T06:00:00Z</time>
      </trkpt>
      <trkpt lat="45.68213" lon="6.70378">
        <ele>1990</ele>
        <time>2022-07-26T06:00:01Z</time>
      </trkpt>
      <trkpt lat="45.68213" lon="6.70377">
        <ele>1990</ele>
        <time>2022-07-26T06:00:02Z</time>
      </trkpt>
      <trkpt lat="45.68213" lon="6.70376">
        <ele>1990</ele>
        <time>2022-07-26T06:00:03Z</time>
      </trkpt>
      <trkpt lat="45.68213" lon="6.70375">
        <ele>1990</ele>
        <time>2022-07-26T06:00:04Z</time>
      </trkpt>
      <trkpt lat="45.68213" lon="6.70374">
        <ele>1990</ele>
        <time>2022-07-26T06:00:05Z</time>
      </trkpt>
      <trkpt lat="45.68213" lon="6.70372">
        <ele>1990</ele>
        <time>2022-07-26T06:00:06Z</time>
      </trkpt>
      <trkpt lat="45.68213" lon="6.70371">
        <ele>1990</ele>
        <time>2022-07-26T06:00:07Z</time>
      </trkpt>
      <trkpt lat="45.68213" lon="6.70369">
        <ele>1990</ele>
        <time>2022-07-26T06:00:08Z</time>
      </trkpt>
      <trkpt lat="45.68213" lon="6.70368">
        <ele>1990</ele>
        <time>2022-07-26T06:00:09Z</time>
      </trkpt>
      <trkpt lat="45.68213" lon="6.70366">
        <ele>1990</ele>
        <time>2022-07-26T06:00:10Z</time>
      </trkpt>
      <trkpt lat="45.68213" lon="6.70365">
        <ele>1990</ele>
        <time>2022-07-26T06:00:11Z</time>
      </trkpt>
      <trkpt lat="45.68213" lon="6.70363">
        <ele>1990</ele>
        <time>2022-07-26T06:00:12Z</time>
      </trkpt>
      <trkpt lat="45.68213" lon="6.70362">
        <ele>1990</ele>
        <time>2022-07-26T06:00:13Z</time>
      </trkpt>
      <trkpt lat="45.68213" lon="6.70361">
        <ele>1990</ele>
        <time>2022-07-26T06:00:14Z</time>
      </trkpt>
      <trkpt lat="45.68213" lon="6.70359">
        <ele>1990</ele>
        <time>2022-07-26T06:00:15Z</time>
      </trkpt>
      <trkpt lat="45.68213" lon="6.70358">
        <ele>1990</ele>
        <time>2022-07-26T06:00:16Z</time>
      </trkpt>
      <trkpt lat="45.68213" lon="6.70357">
        <ele>1990</ele>
        <time>2022-07-26T06:00:17Z</time>
      </trkpt>
      <trkpt lat="45.68212" lon="6.70356">
        <ele>1990</ele>
        <time>2022-07-26T06:00:18Z</time>
      </trkpt>
      <trkpt lat="45.68212" lon="6.70355">
        <ele>1990</ele>
        <time>2022-07-26T06:00:19Z</time>
      </trkpt>
      <trkpt lat="45.68212" lon="6.70354">
        <ele>1991</ele>
        <time>2022-07-26T06:00:20Z</time>
      </trkpt>
      <trkpt lat="45.68212" lon="6.70353">
        <ele>1991</ele>
        <time>2022-07-26T06:00:21Z</time>
      </trkpt>
      <trkpt lat="45.68212" lon="6.70352">
        <ele>1991</ele>
        <time>2022-07-26T06:00:22Z</time>
      </trkpt>
      <trkpt lat="45.68212" lon="6.70351">
        <ele>1991</ele>
        <time>2022-07-26T06:00:23Z</time>
      </trkpt>
      <trkpt lat="45.68212" lon="6.7035">
        <ele>1991</ele>
        <time>2022-07-26T06:00:24Z</time>
      </trkpt>
      <trkpt lat="45.68213" lon="6.70349">
        <ele>1991</ele>
        <time>2022-07-26T06:00:25Z</time>
      </trkpt>
      <trkpt lat="45.68213" lon="6.70348">
        <ele>1991</ele>
        <time>2022-07-26T06:00:26Z</time>
      </trkpt>
      <trkpt lat="45.68214" lon="6.70347">
        <ele>1991</ele>
        <time>2022-07-26T06:00:27Z</time>
      </trkpt>
      <trkpt lat="45.68214" lon="6.70346">
        <ele>1991</ele>
        <time>2022-07-26T06:00:28Z</time>
      </trkpt>
      <trkpt lat="45.68214" lon="6.70345">
        <ele>1991</ele>
        <time>2022-07-26T06:00:29Z</time>
      </trkpt>
      <trkpt lat="45.68214" lon="6.70344">
        <ele>1992</ele>
        <time>2022-07-26T06:00:30Z</time>
      </trkpt>
      <trkpt lat="45.68214" lon="6.70343">
        <ele>1992</ele>
        <time>2022-07-26T06:00:31Z</time>
      </trkpt>
      <trkpt lat="45.68213" lon="6.70342">
        <ele>1992</ele>
        <time>2022-07-26T06:00:32Z</time>
      </trkpt>
      <trkpt lat="45.68213" lon="6.70341">
        <ele>1992</ele>
        <time>2022-07-26T06:00:33Z</time>
      </trkpt>
      <trkpt lat="45.68213" lon="6.7034">
        <ele>1992</ele>
        <time>2022-07-26T06:00:34Z</time>
      </trkpt>
      <trkpt lat="45.68212" lon="6.70339">
        <ele>1993</ele>
        <time>2022-07-26T06:00:35Z</time>
      </trkpt>
      <trkpt lat="45.68212" lon="6.70338">
        <ele>1993</ele>
        <time>2022-07-26T06:00:36Z</time>
      </trkpt>
      <trkpt lat="45.68211" lon="6.70336">
        <ele>1993</ele>
        <time>2022-07-26T06:00:37Z</time>
      </trkpt>
      <trkpt lat="45.68211" lon="6.70335">
        <ele>1993</ele>
        <time>2022-07-26T06:00:38Z</time>
      </trkpt>
      <trkpt lat="45.6821" lon="6.70334">
        <ele>1993</ele>
        <time>2022-07-26T06:00:39Z</time>
      </trkpt>
      <trkpt lat="45.6821" lon="6.70333">
        <ele>1993</ele>
        <time>2022-07-26T06:00:40Z</time>
      </trkpt>
      <trkpt lat="45.68209" lon="6.70332">
        <ele>1993</ele>
        <time>2022-07-26T06:00:41Z</time>
      </trkpt>
      <trkpt lat="45.68209" lon="6.70331">
        <ele>1993</ele>
        <time>2022-07-26T06:00:42Z</time>
      </trkpt>
      <trkpt lat="45.68208" lon="6.7033">
        <ele>1993</ele>
        <time>2022-07-26T06:00:43Z</time>
      </trkpt>
      <trkpt lat="45.68207" lon="6.70329">
        <ele>1993</ele>
        <time>2022-07-26T06:00:44Z</time>
      </trkpt>
      <trkpt lat="45.68207" lon="6.70328">
        <ele>1994</ele>
        <time>2022-07-26T06:00:45Z</time>
      </trkpt>
      <trkpt lat="45.68206" lon="6.70327">
        <ele>1994</ele>
        <time>2022-07-26T06:00:46Z</time>
      </trkpt>
      <trkpt lat="45.68206" lon="6.70326">
        <ele>1994</ele>
        <time>2022-07-26T06:00:47Z</time>
      </trkpt>
      <trkpt lat="45.68205" lon="6.70326">
        <ele>1994</ele>
        <time>2022-07-26T06:00:48Z</time>
      </trkpt>
      <trkpt lat="45.68204" lon="6.70325">
        <ele>1994</ele>
        <time>2022-07-26T06:00:49Z</time>
      </trkpt>
      <trkpt lat="45.68204" lon="6.70324">
        <ele>1995</ele>
        <time>2022-07-26T06:00:50Z</time>
      </trkpt>
      <trkpt lat="45.68203" lon="6.70324">
        <ele>1995</ele>
        <time>2022-07-26T06:00:51Z</time>
      </trkpt>
      <trkpt lat="45.68202" lon="6.70323">
        <ele>1995</ele>
        <time>2022-07-26T06:00:57Z</time>
      </trkpt>
      <trkpt lat="45.68202" lon="6.70322">
        <ele>1995</ele>
        <time>2022-07-26T06:00:58Z</time>
      </trkpt>
      <trkpt lat="45.68201" lon="6.70322">
        <ele>1995</ele>
        <time>2022-07-26T06:00:59Z</time>
      </trkpt>
      <trkpt lat="45.68201" lon="6.70321">
        <ele>1996</ele>
        <time>2022-07-26T06:01:00Z</time>
      </trkpt>
      <trkpt lat="45.68201" lon="6.70321">
        <ele>1996</ele>
        <time>2022-07-26T06:01:01Z</time>
      </trkpt>
      <trkpt lat="45.68201" lon="6.7032">
        <ele>1996</ele>
        <time>2022-07-26T06:01:02Z</time>
      </trkpt>
      <trkpt lat="45.682" lon="6.7032">
        <ele>1996</ele>
        <time>2022-07-26T06:01:03Z</time>
      </trkpt>
      <trkpt lat="45.682" lon="6.70319">
        <ele>1996</ele>
        <time>2022-07-26T06:01:04Z</time>
      </trkpt>
      <trkpt lat="45.682" lon="6.70318">
        <ele>1996</ele>
        <time>2022-07-26T06:01:05Z</time>
      </trkpt>
      <trkpt lat="45.68199" lon="6.70317">
        <ele>1996</ele>
        <time>2022-07-26T06:01:06Z</time>
      </trkpt>
      <trkpt lat="45.68199" lon="6.70317">
        <ele>1996</ele>
        <time>2022-07-26T06:01:07Z</time>
      </trkpt>
      <trkpt lat="45.68199" lon="6.70316">
        <ele>1996</ele>
        <time>2022-07-26T06:01:08Z</time>
      </trkpt>
      <trkpt lat="45.68198" lon="6.70315">
        <ele>1996</ele>
        <time>2022-07-26T06:01:09Z</time>
      </trkpt>
      <trkpt lat="45.68198" lon="6.70315">
        <ele>1997</ele>
        <time>2022-07-26T06:01:10Z</time>
      </trkpt>
      <trkpt lat="45.68198" lon="6.70314">
        <ele>1997</ele>
        <time>2022-07-26T06:01:11Z</time>
      </trkpt>
      <trkpt lat="45.68198" lon="6.70313">
        <ele>1997</ele>
        <time>2022-07-26T06:01:12Z</time>
      </trkpt>
      <trkpt lat="45.68197" lon="6.70312">
        <ele>1997</ele>
        <time>2022-07-26T06:01:13Z</time>
      </trkpt>
      <trkpt lat="45.68197" lon="6.70311">
        <ele>1997</ele>
        <time>2022-07-26T06:01:14Z</time>
      </trkpt>
      <trkpt lat="45.68197" lon="6.70311">
        <ele>1998</ele>
        <time>2022-07-26T06:01:15Z</time>
      </trkpt>
      <trkpt lat="45.68197" lon="6.7031">
        <ele>1998</ele>
        <time>2022-07-26T06:01:16Z</time>
      </trkpt>
      <trkpt lat="45.68196" lon="6.70309">
        <ele>1998</ele>
        <time>2022-07-26T06:01:17Z</time>
      </trkpt>
      <trkpt lat="45.68196" lon="6.70309">
        <ele>1998</ele>
        <time>2022-07-26T06:01:18Z</time>
      </trkpt>
      <trkpt lat="45.68196" lon="6.70309">
        <ele>1998</ele>
        <time>2022-07-26T06:01:19Z</time>
      </trkpt>
      <trkpt lat="45.68196" lon="6.70308">
        <ele>1999</ele>
        <time>2022-07-26T06:01:20Z</time>
      </trkpt>
      <trkpt lat="45.68196" lon="6.70308">
        <ele>1999</ele>
        <time>2022-07-26T06:01:21Z</time>
      </trkpt>
      <trkpt lat="45.68196" lon="6.70307">
        <ele>1999</ele>
        <time>2022-07-26T06:01:22Z</time>
      </trkpt>
      <trkpt lat="45.68196" lon="6.70306">
        <ele>1999</ele>
        <time>2022-07-26T06:01:23Z</time>
      </trkpt>
      <trkpt lat="45.68196" lon="6.70305">
        <ele>1999</ele>
        <time>2022-07-26T06:01:24Z</time>
      </trkpt>
      <trkpt lat="45.68195" lon="6.70305">
        <ele>1999</ele>
        <time>2022-07-26T06:01:25Z</time>
      </trkpt>
      <trkpt lat="45.68195" lon="6.70304">
        <ele>1999</ele>
        <time>2022-07-26T06:01:26Z</time>
      </trkpt>
      <trkpt lat="45.68195" lon="6.70303">
        <ele>1999</ele>
        <time>2022-07-26T06:01:27Z</time>
      </trkpt>
      <trkpt lat="45.68194" lon="6.70302">
        <ele>1999</ele>
        <time>2022-07-26T06:01:28Z</time>
      </trkpt>
      <trkpt lat="45.68194" lon="6.70302">
        <ele>1999</ele>
        <time>2022-07-26T06:01:29Z</time>
      </trkpt>
      <trkpt lat="45.68193" lon="6.70301">
        <ele>2000</ele>
        <time>2022-07-26T06:01:30Z</time>
      </trkpt>
      <trkpt lat="45.68193" lon="6.703">
        <ele>2000</ele>
        <time>2022-07-26T06:01:31Z</time>
      </trkpt>
      <trkpt lat="45.68193" lon="6.70299">
        <ele>2000</ele>
        <time>2022-07-26T06:01:32Z</time>
      </trkpt>
      <trkpt lat="45.68193" lon="6.70299">
        <ele>2000</ele>
        <time>2022-07-26T06:01:33Z</time>
      </trkpt>
      <trkpt lat="45.68192" lon="6.70298">
        <ele>2000</ele>
        <time>2022-07-26T06:01:34Z</time>
      </trkpt>
      <trkpt lat="45.68192" lon="6.70298">
        <ele>2001</ele>
        <time>2022-07-26T06:01:35Z</time>
      </trkpt>
      <trkpt lat="45.68192" lon="6.70297">
        <ele>2001</ele>
        <time>2022-07-26T06:01:36Z</time>
      </trkpt>
      <trkpt lat="45.68192" lon="6.70296">
        <ele>2001</ele>
        <time>2022-07-26T06:01:37Z</time>
      </trkpt>
      <trkpt lat="45.68192" lon="6.70295">
        <ele>2001</ele>
        <time>2022-07-26T06:01:38Z</time>
      </trkpt>
      <trkpt lat="45.68192" lon="6.70294">
        <ele>2001</ele>
        <time>2022-07-26T06:01:39Z</time>
      </trkpt>
      <trkpt lat="45.68191" lon="6.70292">
        <ele>2004</ele>
        <time>2022-07-26T06:02:08Z</time>
      </trkpt>
      <trkpt lat="45.68191" lon="6.70291">
        <ele>2004</ele>
        <time>2022-07-26T06:02:09Z</time>
      </trkpt>
      <trkpt lat="45.68191" lon="6.70291">
        <ele>2004</ele>
        <time>2022-07-26T06:02:10Z</time>
      </trkpt>
      <trkpt lat="45.6819" lon="6.7029">
        <ele>2004</ele>
        <time>2022-07-26T06:03:24Z</time>
      </trkpt>
      <trkpt lat="45.6819" lon="6.7029">
        <ele>2004</ele>
        <time>2022-07-26T06:03:25Z</time>
      </trkpt>
      <trkpt lat="45.6819" lon="6.7029">
        <ele>2004</ele>
        <time>2022-07-26T06:03:26Z</time>
      </trkpt>
      <trkpt lat="45.6819" lon="6.7029">
        <ele>2004</ele>
        <time>2022-07-26T06:03:27Z</time>
      </trkpt>
      <trkpt lat="45.68189" lon="6.70289">
        <ele>2004</ele>
        <time>2022-07-26T06:03:28Z</time>
      </trkpt>
      <trkpt lat="45.68188" lon="6.70289">
        <ele>2004</ele>
        <time>2022-07-26T06:03:29Z</time>
      </trkpt>
      <trkpt lat="45.68188" lon="6.70288">
        <ele>2004</ele>
        <time>2022-07-26T06:03:30Z</time>
      </trkpt>
      <trkpt lat="45.68187" lon="6.70288">
        <ele>2004</ele>
        <time>2022-07-26T06:03:31Z</time>
      </trkpt>
      <trkpt lat="45.68186" lon="6.70287">
        <ele>2004</ele>
        <time>2022-07-26T06:03:32Z</time>
      </trkpt>
      <trkpt lat="45.68185" lon="6.70287">
        <ele>2004</ele>
        <time>2022-07-26T06:03:33Z</time>
      </trkpt>
      <trkpt lat="45.68184" lon="6.70286">
        <ele>2004</ele>
        <time>2022-07-26T06:03:34Z</time>
      </trkpt>
      <trkpt lat="45.68183" lon="6.70286">
        <ele>2004</ele>
        <time>2022-07-26T06:03:35Z</time>
      </trkpt>
      <trkpt lat="45.68182" lon="6.70285">
        <ele>2004</ele>
        <time>2022-07-26T06:03:36Z</time>
      </trkpt>
      <trkpt lat="45.68182" lon="6.70285">
        <ele>2004</ele>
        <time>2022-07-26T06:03:37Z</time>
      </trkpt>
      <trkpt lat="45.68181" lon="6.70284">
        <ele>2004</ele>
        <time>2022-07-26T06:03:38Z</time>
      </trkpt>
      <trkpt lat="45.6818" lon="6.70284">
        <ele>2004</ele>
        <time>2022-07-26T06:03:39Z</time>
      </trkpt>
      <trkpt lat="45.68179" lon="6.70283">
        <ele>2004</ele>
        <time>2022-07-26T06:03:40Z</time>
      </trkpt>
      <trkpt lat="45.68178" lon="6.70283">
        <ele>2004</ele>
        <time>2022-07-26T06:03:41Z</time>
      </trkpt>
      <trkpt lat="45.68178" lon="6.70282">
        <ele>2004</ele>
        <time>2022-07-26T06:03:42Z</time>
      </trkpt>
      <trkpt lat="45.68177" lon="6.70281">
        <ele>2004</ele>
        <time>2022-07-26T06:03:43Z</time>
      </trkpt>
      <trkpt lat="45.68176" lon="6.70281">
        <ele>2004</ele>
        <time>2022-07-26T06:03:44Z</time>
      </trkpt>
      <trkpt lat="45.68175" lon="6.7028">
        <ele>2004</ele>
        <time>2022-07-26T06:03:45Z</time>
      </trkpt>
      <trkpt lat="45.68174" lon="6.7028">
        <ele>2004</ele>
        <time>2022-07-26T06:03:46Z</time>
      </trkpt>
      <trkpt lat="45.68173" lon="6.70279">
        <ele>2004</ele>
        <time>2022-07-26T06:03:47Z</time>
      </trkpt>
      <trkpt lat="45.68172" lon="6.70278">
        <ele>2004</ele>
        <time>2022-07-26T06:03:48Z</time>
      </trkpt>
      <trkpt lat="45.68171" lon="6.70278">
        <ele>2004</ele>
        <time>2022-07-26T06:03:49Z</time>
      </trkpt>
      <trkpt lat="45.6817" lon="6.70277">
        <ele>2004</ele>
        <time>2022-07-26T06:03:50Z</time>
      </trkpt>
      <trkpt lat="45.6817" lon="6.70276">
        <ele>2004</ele>
        <time>2022-07-26T06:03:51Z</time>
      </trkpt>
      <trkpt lat="45.68169" lon="6.70276">
        <ele>2004</ele>
        <time>2022-07-26T06:03:52Z</time>
      </trkpt>
      <trkpt lat="45.68168" lon="6.70275">
        <ele>2004</ele>
        <time>2022-07-26T06:03:53Z</time>
      </trkpt>
      <trkpt lat="45.68167" lon="6.70274">
        <ele>2004</ele>
        <time>2022-07-26T06:03:54Z</time>
      </trkpt>
      <trkpt lat="45.68166" lon="6.70274">
        <ele>2004</ele>
        <time>2022-07-26T06:03:55Z</time>
      </trkpt>
      <trkpt lat="45.68165" lon="6.70273">
        <ele>2004</ele>
        <time>2022-07-26T06:03:56Z</time>
      </trkpt>
      <trkpt lat="45.68164" lon="6.70272">
        <ele>2004</ele>
        <time>2022-07-26T06:03:57Z</time>
      </trkpt>
      <trkpt lat="45.68163" lon="6.70272">
        <ele>2004</ele>
        <time>2022-07-26T06:03:58Z</time>
      </trkpt>
      <trkpt lat="45.68162" lon="6.70271">
        <ele>2004</ele>
        <time>2022-07-26T06:03:59Z</time>
      </trkpt>
      <trkpt lat="45.68161" lon="6.70271">
        <ele>2004</ele>
        <time>2022-07-26T06:04:00Z</time>
      </trkpt>
      <trkpt lat="45.68161" lon="6.7027">
        <ele>2004</ele>
        <time>2022-07-26T06:04:01Z</time>
      </trkpt>
      <trkpt lat="45.6816" lon="6.7027">
        <ele>2004</ele>
        <time>2022-07-26T06:04:02Z</time>
      </trkpt>
      <trkpt lat="45.68159" lon="6.70269">
        <ele>2004</ele>
        <time>2022-07-26T06:04:03Z</time>
      </trkpt>
      <trkpt lat="45.68158" lon="6.70268">
        <ele>2004</ele>
        <time>2022-07-26T06:04:04Z</time>
      </trkpt>
      <trkpt lat="45.68157" lon="6.70268">
        <ele>2004</ele>
        <time>2022-07-26T06:04:05Z</time>
      </trkpt>
      <trkpt lat="45.68156" lon="6.70267">
        <ele>2004</ele>
        <time>2022-07-26T06:04:06Z</time>
      </trkpt>
      <trkpt lat="45.68155" lon="6.70266">
        <ele>2004</ele>
        <time>2022-07-26T06:04:07Z</time>
      </trkpt>
      <trkpt lat="45.68154" lon="6.70265">
        <ele>2004</ele>
        <time>2022-07-26T06:04:08Z</time>
      </trkpt>
      <trkpt lat="45.68154" lon="6.70264">
        <ele>2004</ele>
        <time>2022-07-26T06:04:09Z</time>
      </trkpt>
      <trkpt lat="45.68153" lon="6.70264">
        <ele>2004</ele>
        <time>2022-07-26T06:04:10Z</time>
      </trkpt>
      <trkpt lat="45.68152" lon="6.70263">
        <ele>2004</ele>
        <time>2022-07-26T06:04:11Z</time>
      </trkpt>
      <trkpt lat="45.68151" lon="6.70262">
        <ele>2004</ele>
        <time>2022-07-26T06:04:12Z</time>
      </trkpt>
      <trkpt lat="45.6815" lon="6.70261">
        <ele>2004</ele>
        <time>2022-07-26T06:04:13Z</time>
      </trkpt>
      <trkpt lat="45.68149" lon="6.70261">
        <ele>2004</ele>
        <time>2022-07-26T06:04:14Z</time>
      </trkpt>
      <trkpt lat="45.68148" lon="6.7026">
        <ele>2004</ele>
        <time>2022-07-26T06:04:15Z</time>
      </trkpt>
      <trkpt lat="45.68147" lon="6.70259">
        <ele>2004</ele>
        <time>2022-07-26T06:04:16Z</time>
      </trkpt>
      <trkpt lat="45.68146" lon="6.70259">
        <ele>2004</ele>
        <time>2022-07-26T06:04:17Z</time>
      </trkpt>
      <trkpt lat="45.68145" lon="6.70258">
        <ele>2004</ele>
        <time>2022-07-26T06:04:18Z</time>
      </trkpt>
      <trkpt lat="45.68144" lon="6.70257">
        <ele>2004</ele>
        <time>2022-07-26T06:04:19Z</time>
      </trkpt>
      <trkpt lat="45.68143" lon="6.70257">
        <ele>2004</ele>
        <time>2022-07-26T06:04:20Z</time>
      </trkpt>
      <trkpt lat="45.68143" lon="6.70256">
        <ele>2004</ele>
        <time>2022-07-26T06:04:21Z</time>
      </trkpt>
      <trkpt lat="45.68142" lon="6.70255">
        <ele>2004</ele>
        <time>2022-07-26T06:04:22Z</time>
      </trkpt>
      <trkpt lat="45.68141" lon="6.70255">
        <ele>2004</ele>
        <time>2022-07-26T06:04:23Z</time>
      </trkpt>
      <trkpt lat="45.6814" lon="6.70254">
        <ele>2004</ele>
        <time>2022-07-26T06:04:24Z</time>
      </trkpt>
      <trkpt lat="45.6814" lon="6.70253">
        <ele>2004</ele>
        <time>2022-07-26T06:04:25Z</time>
      </trkpt>
      <trkpt lat="45.68139" lon="6.70252">
        <ele>2004</ele>
        <time>2022-07-26T06:04:26Z</time>
      </trkpt>
      <trkpt lat="45.68138" lon="6.70251">
        <ele>2004</ele>
        <time>2022-07-26T06:04:27Z</time>
      </trkpt>
      <trkpt lat="45.68137" lon="6.70251">
        <ele>2004</ele>
        <time>2022-07-26T06:04:28Z</time>
      </trkpt>
      <trkpt lat="45.68136" lon="6.7025">
        <ele>2004</ele>
        <time>2022-07-26T06:04:29Z</time>
      </trkpt>
      <trkpt lat="45.68136" lon="6.70249">
        <ele>2004</ele>
        <time>2022-07-26T06:04:30Z</time>
      </trkpt>
      <trkpt lat="45.68135" lon="6.70248">
        <ele>2004</ele>
        <time>2022-07-26T06:04:31Z</time>
      </trkpt>
      <trkpt lat="45.68134" lon="6.70248">
        <ele>2004</ele>
        <time>2022-07-26T06:04:32Z</time>
      </trkpt>
      <trkpt lat="45.68133" lon="6.70247">
        <ele>2004</ele>
        <time>2022-07-26T06:04:33Z</time>
      </trkpt>
      <trkpt lat="45.68132" lon="6.70246">
        <ele>2004</ele>
        <time>2022-07-26T06:04:34Z</time>
      </trkpt>
      <trkpt lat="45.68131" lon="6.70245">
        <ele>2004</ele>
        <time>2022-07-26T06:04:35Z</time>
      </trkpt>
      <trkpt lat="45.6813" lon="6.70245">
        <ele>2004</ele>
        <time>2022-07-26T06:04:36Z</time>
      </trkpt>
      <trkpt lat="45.68129" lon="6.70244">
        <ele>2004</ele>
        <time>2022-07-26T06:04:37Z</time>
      </trkpt>
      <trkpt lat="45.68128" lon="6.70243">
        <ele>2004</ele>
        <time>2022-07-26T06:04:38Z</time>
      </trkpt>
      <trkpt lat="45.68127" lon="6.70243">
        <ele>2004</ele>
        <time>2022-07-26T06:04:39Z</time>
      </trkpt>
      <trkpt lat="45.68127" lon="6.70242">
        <ele>2004</ele>
        <time>2022-07-26T06:04:40Z</time>
      </trkpt>
      <trkpt lat="45.68126" lon="6.70242">
        <ele>2004</ele>
        <time>2022-07-26T06:04:41Z</time>
      </trkpt>
      <trkpt lat="45.68125" lon="6.70241">
        <ele>2004</ele>
        <time>2022-07-26T06:04:42Z</time>
      </trkpt>
      <trkpt lat="45.68124" lon="6.70241">
        <ele>2004</ele>
        <time>2022-07-26T06:04:43Z</time>
      </trkpt>
      <trkpt lat="45.68123" lon="6.7024">
        <ele>2004</ele>
        <time>2022-07-26T06:04:44Z</time>
      </trkpt>
      <trkpt lat="45.68122" lon="6.70239">
        <ele>2004</ele>
        <time>2022-07-26T06:04:45Z</time>
      </trkpt>
      <trkpt lat="45.68121" lon="6.70239">
        <ele>2004</ele>
        <time>2022-07-26T06:04:46Z</time>
      </trkpt>
      <trkpt lat="45.6812" lon="6.70238">
        <ele>2004</ele>
        <time>2022-07-26T06:04:47Z</time>
      </trkpt>
      <trkpt lat="45.68119" lon="6.70237">
        <ele>2004</ele>
        <time>2022-07-26T06:04:48Z</time>
      </trkpt>
      <trkpt lat="45.68118" lon="6.70237">
        <ele>2004</ele>
        <time>2022-07-26T06:04:49Z</time>
      </trkpt>
      <trkpt lat="45.68118" lon="6.70236">
        <ele>2004</ele>
        <time>2022-07-26T06:04:50Z</time>
      </trkpt>
      <trkpt lat="45.68117" lon="6.70235">
        <ele>2004</ele>
        <time>2022-07-26T06:04:51Z</time>
      </trkpt>
      <trkpt lat="45.68116" lon="6.70234">
        <ele>2004</ele>
        <time>2022-07-26T06:04:52Z</time>
      </trkpt>
      <trkpt lat="45.68115" lon="6.70234">
        <ele>2004</ele>
        <time>2022-07-26T06:04:53Z</time>
      </trkpt>
      <trkpt lat="45.68114" lon="6.70233">
        <ele>2004</ele>
        <time>2022-07-26T06:04:54Z</time>
      </trkpt>
      <trkpt lat="45.68113" lon="6.70232">
        <ele>2004</ele>
        <time>2022-07-26T06:04:55Z</time>
      </trkpt>
      <trkpt lat="45.68112" lon="6.70231">
        <ele>2004</ele>
        <time>2022-07-26T06:04:56Z</time>
      </trkpt>
      <trkpt lat="45.68111" lon="6.70231">
        <ele>2004</ele>
        <time>2022-07-26T06:04:57Z</time>
      </trkpt>
      <trkpt lat="45.68111" lon="6.7023">
        <ele>2004</ele>
        <time>2022-07-26T06:04:58Z</time>
      </trkpt>
      <trkpt lat="45.6811" lon="6.70229">
        <ele>2004</ele>
        <time>2022-07-26T06:04:59Z</time>
      </trkpt>
      <trkpt lat="45.68109" lon="6.70228">
        <ele>2004</ele>
        <time>2022-07-26T06:05:00Z</time>
      </trkpt>
      <trkpt lat="45.68108" lon="6.70228">
        <ele>2004</ele>
        <time>2022-07-26T06:05:01Z</time>
      </trkpt>
      <trkpt lat="45.68107" lon="6.70227">
        <ele>2004</ele>
        <time>2022-07-26T06:05:02Z</time>
      </trkpt>
      <trkpt lat="45.68107" lon="6.70226">
        <ele>2004</ele>
        <time>2022-07-26T06:05:03Z</time>
      </trkpt>
      <trkpt lat="45.68106" lon="6.70226">
        <ele>2004</ele>
        <time>2022-07-26T06:05:04Z</time>
      </trkpt>
      <trkpt lat="45.68105" lon="6.70225">
        <ele>2004</ele>
        <time>2022-07-26T06:05:05Z</time>
      </trkpt>
      <trkpt lat="45.68104" lon="6.70224">
        <ele>2004</ele>
        <time>2022-07-26T06:05:06Z</time>
      </trkpt>
      <trkpt lat="45.68103" lon="6.70224">
        <ele>2004</ele>
        <time>2022-07-26T06:05:07Z</time>
      </trkpt>
      <trkpt lat="45.68102" lon="6.70223">
        <ele>2004</ele>
        <time>2022-07-26T06:05:08Z</time>
      </trkpt>
      <trkpt lat="45.68101" lon="6.70223">
        <ele>2004</ele>
        <time>2022-07-26T06:05:09Z</time>
      </trkpt>
      <trkpt lat="45.68101" lon="6.70222">
        <ele>2005</ele>
        <time>2022-07-26T06:05:10Z</time>
      </trkpt>
      <trkpt lat="45.681" lon="6.70221">
        <ele>2005</ele>
        <time>2022-07-26T06:05:17Z</time>
      </trkpt>
      <trkpt lat="45.68099" lon="6.70221">
        <ele>2005</ele>
        <time>2022-07-26T06:05:18Z</time>
      </trkpt>
      <trkpt lat="45.68099" lon="6.7022">
        <ele>2005</ele>
        <time>2022-07-26T06:05:19Z</time>
      </trkpt>
      <trkpt lat="45.68098" lon="6.7022">
        <ele>2005</ele>
        <time>2022-07-26T06:05:20Z</time>
      </trkpt>
      <trkpt lat="45.68097" lon="6.70219">
        <ele>2005</ele>
        <time>2022-07-26T06:05:21Z</time>
      </trkpt>
      <trkpt lat="45.68097" lon="6.70218">
        <ele>2005</ele>
        <time>2022-07-26T06:05:22Z</time>
      </trkpt>
      <trkpt lat="45.68096" lon="6.70217">
        <ele>2005</ele>
        <time>2022-07-26T06:05:23Z</time>
      </trkpt>
      <trkpt lat="45.68095" lon="6.70217">
        <ele>2005</ele>
        <time>2022-07-26T06:05:24Z</time>
      </trkpt>
      <trkpt lat="45.68094" lon="6.70216">
        <ele>2005</ele>
        <time>2022-07-26T06:05:25Z</time>
      </trkpt>
      <trkpt lat="45.68093" lon="6.70215">
        <ele>2005</ele>
        <time>2022-07-26T06:05:26Z</time>
      </trkpt>
      <trkpt lat="45.68092" lon="6.70214">
        <ele>2005</ele>
        <time>2022-07-26T06:05:27Z</time>
      </trkpt>
      <trkpt lat="45.68091" lon="6.70214">
        <ele>2005</ele>
        <time>2022-07-26T06:05:28Z</time>
      </trkpt>
      <trkpt lat="45.6809" lon="6.70213">
        <ele>2005</ele>
        <time>2022-07-26T06:05:29Z</time>
      </trkpt>
      <trkpt lat="45.68089" lon="6.70212">
        <ele>2005</ele>
        <time>2022-07-26T06:05:30Z</time>
      </trkpt>
      <trkpt lat="45.68089" lon="6.70212">
        <ele>2005</ele>
        <time>2022-07-26T06:05:31Z</time>
      </trkpt>
      <trkpt lat="45.68088" lon="6.70211">
        <ele>2005</ele>
        <time>2022-07-26T06:05:32Z</time>
      </trkpt>
      <trkpt lat="45.68087" lon="6.70211">
        <ele>2005</ele>
        <time>2022-07-26T06:05:33Z</time>
      </trkpt>
      <trkpt lat="45.68086" lon="6.7021">
        <ele>2005</ele>
        <time>2022-07-26T06:05:34Z</time>
      </trkpt>
      <trkpt lat="45.68085" lon="6.7021">
        <ele>2005</ele>
        <time>2022-07-26T06:05:35Z</time>
      </trkpt>
      <trkpt lat="45.68084" lon="6.70209">
        <ele>2005</ele>
        <time>2022-07-26T06:05:36Z</time>
      </trkpt>
      <trkpt lat="45.68083" lon="6.70209">
        <ele>2005</ele>
        <time>2022-07-26T06:05:37Z</time>
      </trkpt>
      <trkpt lat="45.68082" lon="6.70208">
        <ele>2005</ele>
        <time>2022-07-26T06:05:38Z</time>
      </trkpt>
      <trkpt lat="45.68082" lon="6.70207">
        <ele>2005</ele>
        <time>2022-07-26T06:05:39Z</time>
      </trkpt>
      <trkpt lat="45.68081" lon="6.70207">
        <ele>2005</ele>
        <time>2022-07-26T06:05:40Z</time>
      </trkpt>
      <trkpt lat="45.6808" lon="6.70206">
        <ele>2005</ele>
        <time>2022-07-26T06:05:41Z</time>
      </trkpt>
      <trkpt lat="45.68079" lon="6.70205">
        <ele>2005</ele>
        <time>2022-07-26T06:05:42Z</time>
      </trkpt>
      <trkpt lat="45.68078" lon="6.70205">
        <ele>2005</ele>
        <time>2022-07-26T06:05:43Z</time>
      </trkpt>
      <trkpt lat="45.68077" lon="6.70204">
        <ele>2005</ele>
        <time>2022-07-26T06:05:44Z</time>
      </trkpt>
      <trkpt lat="45.68076" lon="6.70204">
        <ele>2006</ele>
        <time>2022-07-26T06:05:45Z</time>
      </trkpt>
      <trkpt lat="45.68075" lon="6.70203">
        <ele>2006</ele>
        <time>2022-07-26T06:05:46Z</time>
      </trkpt>
      <trkpt lat="45.68074" lon="6.70203">
        <ele>2006</ele>
        <time>2022-07-26T06:05:47Z</time>
      </trkpt>
      <trkpt lat="45.68074" lon="6.70202">
        <ele>2006</ele>
        <time>2022-07-26T06:05:48Z</time>
      </trkpt>
      <trkpt lat="45.68073" lon="6.70202">
        <ele>2006</ele>
        <time>2022-07-26T06:05:49Z</time>
      </trkpt>
      <trkpt lat="45.68073" lon="6.70201">
        <ele>2006</ele>
        <time>2022-07-26T06:05:50Z</time>
      </trkpt>
      <trkpt lat="45.68072" lon="6.70201">
        <ele>2006</ele>
        <time>2022-07-26T06:05:51Z</time>
      </trkpt>
      <trkpt lat="45.68071" lon="6.702">
        <ele>2006</ele>
        <time>2022-07-26T06:05:52Z</time>
      </trkpt>
      <trkpt lat="45.6807" lon="6.702">
        <ele>2006</ele>
        <time>2022-07-26T06:05:53Z</time>
      </trkpt>
      <trkpt lat="45.6807" lon="6.702">
        <ele>2006</ele>
        <time>2022-07-26T06:05:54Z</time>
      </trkpt>
      <trkpt lat="45.68069" lon="6.70199">
        <ele>2006</ele>
        <time>2022-07-26T06:05:55Z</time>
      </trkpt>
      <trkpt lat="45.68068" lon="6.70199">
        <ele>2006</ele>
        <time>2022-07-26T06:05:56Z</time>
      </trkpt>
      <trkpt lat="45.68067" lon="6.70198">
        <ele>2006</ele>
        <time>2022-07-26T06:05:57Z</time>
      </trkpt>
      <trkpt lat="45.68066" lon="6.70198">
        <ele>2006</ele>
        <time>2022-07-26T06:05:58Z</time>
      </trkpt>
      <trkpt lat="45.68066" lon="6.70198">
        <ele>2006</ele>
        <time>2022-07-26T06:05:59Z</time>
      </trkpt>
      <trkpt lat="45.68065" lon="6.70198">
        <ele>2006</ele>
        <time>2022-07-26T06:06:00Z</time>
      </trkpt>
      <trkpt lat="45.68064" lon="6.70198">
        <ele>2006</ele>
        <time>2022-07-26T06:06:01Z</time>
      </trkpt>
      <trkpt lat="45.68063" lon="6.70197">
        <ele>2006</ele>
        <time>2022-07-26T06:06:02Z</time>
      </trkpt>
      <trkpt lat="45.68063" lon="6.70197">
        <ele>2006</ele>
        <time>2022-07-26T06:06:12Z</time>
      </trkpt>
      <trkpt lat="45.68062" lon="6.70197">
        <ele>2006</ele>
        <time>2022-07-26T06:06:13Z</time>
      </trkpt>
      <trkpt lat="45.68062" lon="6.70197">
        <ele>2006</ele>
        <time>2022-07-26T06:06:14Z</time>
      </trkpt>
      <trkpt lat="45.68061" lon="6.70197">
        <ele>2006</ele>
        <time>2022-07-26T06:06:15Z</time>
      </trkpt>
      <trkpt lat="45.68061" lon="6.70197">
        <ele>2006</ele>
        <time>2022-07-26T06:06:16Z</time>
      </trkpt>
      <trkpt lat="45.6806" lon="6.70197">
        <ele>2006</ele>
        <time>2022-07-26T06:06:17Z</time>
      </trkpt>
      <trkpt lat="45.68059" lon="6.70196">
        <ele>2006</ele>
        <time>2022-07-26T06:06:18Z</time>
      </trkpt>
      <trkpt lat="45.68058" lon="6.70196">
        <ele>2006</ele>
        <time>2022-07-26T06:06:19Z</time>
      </trkpt>
      <trkpt lat="45.68057" lon="6.70196">
        <ele>2006</ele>
        <time>2022-07-26T06:06:20Z</time>
      </trkpt>
      <trkpt lat="45.68056" lon="6.70195">
        <ele>2006</ele>
        <time>2022-07-26T06:06:21Z</time>
      </trkpt>
      <trkpt lat="45.68055" lon="6.70195">
        <ele>2006</ele>
        <time>2022-07-26T06:06:22Z</time>
      </trkpt>
      <trkpt lat="45.68054" lon="6.70194">
        <ele>2006</ele>
        <time>2022-07-26T06:06:23Z</time>
      </trkpt>
      <trkpt lat="45.68053" lon="6.70194">
        <ele>2006</ele>
        <time>2022-07-26T06:06:24Z</time>
      </trkpt>
      <trkpt lat="45.68052" lon="6.70193">
        <ele>2006</ele>
        <time>2022-07-26T06:06:25Z</time>
      </trkpt>
      <trkpt lat="45.68051" lon="6.70193">
        <ele>2006</ele>
        <time>2022-07-26T06:06:26Z</time>
      </trkpt>
      <trkpt lat="45.6805" lon="6.70192">
        <ele>2006</ele>
        <time>2022-07-26T06:06:27Z</time>
      </trkpt>
      <trkpt lat="45.68049" lon="6.70192">
        <ele>2006</ele>
        <time>2022-07-26T06:06:28Z</time>
      </trkpt>
      <trkpt lat="45.68048" lon="6.70191">
        <ele>2006</ele>
        <time>2022-07-26T06:06:29Z</time>
      </trkpt>
      <trkpt lat="45.68047" lon="6.70191">
        <ele>2006</ele>
        <time>2022-07-26T06:06:30Z</time>
      </trkpt>
      <trkpt lat="45.68046" lon="6.70191">
        <ele>2006</ele>
        <time>2022-07-26T06:06:31Z</time>
      </trkpt>
      <trkpt lat="45.68045" lon="6.70191">
        <ele>2006</ele>
        <time>2022-07-26T06:06:32Z</time>
      </trkpt>
      <trkpt lat="45.68043" lon="6.7019">
        <ele>2006</ele>
        <time>2022-07-26T06:06:33Z</time>
      </trkpt>
      <trkpt lat="45.68042" lon="6.7019">
        <ele>2006</ele>
        <time>2022-07-26T06:06:34Z</time>
      </trkpt>
      <trkpt lat="45.68041" lon="6.7019">
        <ele>2006</ele>
        <time>2022-07-26T06:06:35Z</time>
      </trkpt>
      <trkpt lat="45.6804" lon="6.7019">
        <ele>2006</ele>
        <time>2022-07-26T06:06:36Z</time>
      </trkpt>
      <trkpt lat="45.68039" lon="6.70189">
        <ele>2006</ele>
        <time>2022-07-26T06:06:37Z</time>
      </trkpt>
      <trkpt lat="45.68038" lon="6.70189">
        <ele>2006</ele>
        <time>2022-07-26T06:06:38Z</time>
      </trkpt>
      <trkpt lat="45.68036" lon="6.70189">
        <ele>2006</ele>
        <time>2022-07-26T06:06:39Z</time>
      </trkpt>
      <trkpt lat="45.68035" lon="6.70189">
        <ele>2006</ele>
        <time>2022-07-26T06:06:40Z</time>
      </trkpt>
      <trkpt lat="45.68034" lon="6.70189">
        <ele>2006</ele>
        <time>2022-07-26T06:06:41Z</time>
      </trkpt>
      <trkpt lat="45.68033" lon="6.70188">
        <ele>2006</ele>
        <time>2022-07-26T06:06:42Z</time>
      </trkpt>
      <trkpt lat="45.68032" lon="6.70188">
        <ele>2006</ele>
        <time>2022-07-26T06:06:43Z</time>
      </trkpt>
      <trkpt lat="45.68031" lon="6.70188">
        <ele>2006</ele>
        <time>2022-07-26T06:06:44Z</time>
      </trkpt>
      <trkpt lat="45.6803" lon="6.70188">
        <ele>2006</ele>
        <time>2022-07-26T06:06:45Z</time>
      </trkpt>
      <trkpt lat="45.68029" lon="6.70188">
        <ele>2006</ele>
        <time>2022-07-26T06:06:46Z</time>
      </trkpt>
      <trkpt lat="45.68028" lon="6.70188">
        <ele>2006</ele>
        <time>2022-07-26T06:06:47Z</time>
      </trkpt>
      <trkpt lat="45.68027" lon="6.70188">
        <ele>2006</ele>
        <time>2022-07-26T06:06:48Z</time>
      </trkpt>
      <trkpt lat="45.68026" lon="6.70187">
        <ele>2006</ele>
        <time>2022-07-26T06:06:49Z</time>
      </trkpt>
      <trkpt lat="45.68025" lon="6.70187">
        <ele>2006</ele>
        <time>2022-07-26T06:06:50Z</time>
      </trkpt>
      <trkpt lat="45.68024" lon="6.70187">
        <ele>2006</ele>
        <time>2022-07-26T06:06:51Z</time>
      </trkpt>
      <trkpt lat="45.68023" lon="6.70187">
        <ele>2006</ele>
        <time>2022-07-26T06:06:52Z</time>
      </trkpt>
      <trkpt lat="45.68022" lon="6.70187">
        <ele>2006</ele>
        <time>2022-07-26T06:06:53Z</time>
      </trkpt>
      <trkpt lat="45.68021" lon="6.70187">
        <ele>2006</ele>
        <time>2022-07-26T06:06:54Z</time>
      </trkpt>
      <trkpt lat="45.6802" lon="6.70186">
        <ele>2006</ele>
        <time>2022-07-26T06:06:55Z</time>
      </trkpt>
      <trkpt lat="45.68019" lon="6.70186">
        <ele>2006</ele>
        <time>2022-07-26T06:06:56Z</time>
      </trkpt>
      <trkpt lat="45.68017" lon="6.70186">
        <ele>2006</ele>
        <time>2022-07-26T06:06:57Z</time>
      </trkpt>
      <trkpt lat="45.68016" lon="6.70186">
        <ele>2006</ele>
        <time>2022-07-26T06:06:58Z</time>
      </trkpt>
      <trkpt lat="45.68015" lon="6.70186">
        <ele>2006</ele>
        <time>2022-07-26T06:06:59Z</time>
      </trkpt>
      <trkpt lat="45.68014" lon="6.70186">
        <ele>2006</ele>
        <time>2022-07-26T06:07:00Z</time>
      </trkpt>
      <trkpt lat="45.68013" lon="6.70187">
        <ele>2006</ele>
        <time>2022-07-26T06:07:01Z</time>
      </trkpt>
      <trkpt lat="45.68012" lon="6.70187">
        <ele>2006</ele>
        <time>2022-07-26T06:07:02Z</time>
      </trkpt>
      <trkpt lat="45.68011" lon="6.70187">
        <ele>2006</ele>
        <time>2022-07-26T06:07:03Z</time>
      </trkpt>
      <trkpt lat="45.6801" lon="6.70187">
        <ele>2006</ele>
        <time>2022-07-26T06:07:04Z</time>
      </trkpt>
      <trkpt lat="45.68009" lon="6.70187">
        <ele>2006</ele>
        <time>2022-07-26T06:07:05Z</time>
      </trkpt>
      <trkpt lat="45.68008" lon="6.70187">
        <ele>2006</ele>
        <time>2022-07-26T06:07:06Z</time>
      </trkpt>
      <trkpt lat="45.68007" lon="6.70188">
        <ele>2006</ele>
        <time>2022-07-26T06:07:07Z</time>
      </trkpt>
      <trkpt lat="45.68006" lon="6.70188">
        <ele>2006</ele>
        <time>2022-07-26T06:07:08Z</time>
      </trkpt>
      <trkpt lat="45.68005" lon="6.70188">
        <ele>2006</ele>
        <time>2022-07-26T06:07:09Z</time>
      </trkpt>
      <trkpt lat="45.68004" lon="6.70188">
        <ele>2007</ele>
        <time>2022-07-26T06:07:10Z</time>
      </trkpt>
      <trkpt lat="45.68003" lon="6.70188">
        <ele>2007</ele>
        <time>2022-07-26T06:07:11Z</time>
      </trkpt>
      <trkpt lat="45.68002" lon="6.70188">
        <ele>2007</ele>
        <time>2022-07-26T06:07:12Z</time>
      </trkpt>
      <trkpt lat="45.68001" lon="6.70188">
        <ele>2007</ele>
        <time>2022-07-26T06:07:13Z</time>
      </trkpt>
      <trkpt lat="45.68" lon="6.70189">
        <ele>2007</ele>
        <time>2022-07-26T06:07:14Z</time>
      </trkpt>
      <trkpt lat="45.67999" lon="6.70189">
        <ele>2007</ele>
        <time>2022-07-26T06:07:15Z</time>
      </trkpt>
      <trkpt lat="45.67998" lon="6.70189">
        <ele>2007</ele>
        <time>2022-07-26T06:07:16Z</time>
      </trkpt>
      <trkpt lat="45.67997" lon="6.70189">
        <ele>2007</ele>
        <time>2022-07-26T06:07:17Z</time>
      </trkpt>
      <trkpt lat="45.67996" lon="6.70189">
        <ele>2007</ele>
        <time>2022-07-26T06:07:18Z</time>
      </trkpt>
      <trkpt lat="45.67995" lon="6.7019">
        <ele>2007</ele>
        <time>2022-07-26T06:07:19Z</time>
      </trkpt>
      <trkpt lat="45.67994" lon="6.7019">
        <ele>2007</ele>
        <time>2022-07-26T06:07:20Z</time>
      </trkpt>
      <trkpt lat="45.67993" lon="6.7019">
        <ele>2007</ele>
        <time>2022-07-26T06:07:21Z</time>
      </trkpt>
      <trkpt lat="45.67992" lon="6.70191">
        <ele>2007</ele>
        <time>2022-07-26T06:07:22Z</time>
      </trkpt>
      <trkpt lat="45.67991" lon="6.70191">
        <ele>2007</ele>
        <time>2022-07-26T06:07:23Z</time>
      </trkpt>
      <trkpt lat="45.6799" lon="6.70191">
        <ele>2007</ele>
        <time>2022-07-26T06:07:24Z</time>
      </trkpt>
      <trkpt lat="45.67989" lon="6.70192">
        <ele>2007</ele>
        <time>2022-07-26T06:07:25Z</time>
      </trkpt>
      <trkpt lat="45.67988" lon="6.70192">
        <ele>2006</ele>
        <time>2022-07-26T06:07:26Z</time>
      </trkpt>
      <trkpt lat="45.67987" lon="6.70192">
        <ele>2006</ele>
        <time>2022-07-26T06:07:27Z</time>
      </trkpt>
      <trkpt lat="45.67986" lon="6.70193">
        <ele>2006</ele>
        <time>2022-07-26T06:07:28Z</time>
      </trkpt>
      <trkpt lat="45.67985" lon="6.70193">
        <ele>2006</ele>
        <time>2022-07-26T06:07:29Z</time>
      </trkpt>
      <trkpt lat="45.67984" lon="6.70193">
        <ele>2006</ele>
        <time>2022-07-26T06:07:30Z</time>
      </trkpt>
      <trkpt lat="45.67983" lon="6.70194">
        <ele>2006</ele>
        <time>2022-07-26T06:07:31Z</time>
      </trkpt>
      <trkpt lat="45.67982" lon="6.70194">
        <ele>2006</ele>
        <time>2022-07-26T06:07:32Z</time>
      </trkpt>
      <trkpt lat="45.6798" lon="6.70194">
        <ele>2006</ele>
        <time>2022-07-26T06:07:33Z</time>
      </trkpt>
      <trkpt lat="45.67979" lon="6.70194">
        <ele>2006</ele>
        <time>2022-07-26T06:07:34Z</time>
      </trkpt>
      <trkpt lat="45.67978" lon="6.70194">
        <ele>2007</ele>
        <time>2022-07-26T06:07:35Z</time>
      </trkpt>
      <trkpt lat="45.67977" lon="6.70195">
        <ele>2007</ele>
        <time>2022-07-26T06:07:36Z</time>
      </trkpt>
      <trkpt lat="45.67976" lon="6.70195">
        <ele>2007</ele>
        <time>2022-07-26T06:07:37Z</time>
      </trkpt>
      <trkpt lat="45.67976" lon="6.70195">
        <ele>2007</ele>
        <time>2022-07-26T06:07:38Z</time>
      </trkpt>
      <trkpt lat="45.67975" lon="6.70196">
        <ele>2007</ele>
        <time>2022-07-26T06:07:39Z</time>
      </trkpt>
      <trkpt lat="45.67974" lon="6.70196">
        <ele>2007</ele>
        <time>2022-07-26T06:07:40Z</time>
      </trkpt>
      <trkpt lat="45.67973" lon="6.70197">
        <ele>2007</ele>
        <time>2022-07-26T06:07:41Z</time>
      </trkpt>
      <trkpt lat="45.67972" lon="6.70197">
        <ele>2007</ele>
        <time>2022-07-26T06:07:42Z</time>
      </trkpt>
      <trkpt lat="45.67971" lon="6.70198">
        <ele>2007</ele>
        <time>2022-07-26T06:07:43Z</time>
      </trkpt>
      <trkpt lat="45.6797" lon="6.70199">
        <ele>2007</ele>
        <time>2022-07-26T06:07:44Z</time>
      </trkpt>
      <trkpt lat="45.67969" lon="6.70199">
        <ele>2007</ele>
        <time>2022-07-26T06:07:45Z</time>
      </trkpt>
      <trkpt lat="45.67968" lon="6.702">
        <ele>2007</ele>
        <time>2022-07-26T06:07:46Z</time>
      </trkpt>
      <trkpt lat="45.67966" lon="6.702">
        <ele>2007</ele>
        <time>2022-07-26T06:07:47Z</time>
      </trkpt>
      <trkpt lat="45.67965" lon="6.70201">
        <ele>2007</ele>
        <time>2022-07-26T06:07:48Z</time>
      </trkpt>
      <trkpt lat="45.67964" lon="6.70202">
        <ele>2007</ele>
        <time>2022-07-26T06:07:49Z</time>
      </trkpt>
      <trkpt lat="45.67964" lon="6.70202">
        <ele>2007</ele>
        <time>2022-07-26T06:07:50Z</time>
      </trkpt>
      <trkpt lat="45.67963" lon="6.70202">
        <ele>2007</ele>
        <time>2022-07-26T06:07:51Z</time>
      </trkpt>
      <trkpt lat="45.67962" lon="6.70203">
        <ele>2007</ele>
        <time>2022-07-26T06:07:52Z</time>
      </trkpt>
      <trkpt lat="45.67961" lon="6.70203">
        <ele>2007</ele>
        <time>2022-07-26T06:07:53Z</time>
      </trkpt>
      <trkpt lat="45.6796" lon="6.70204">
        <ele>2007</ele>
        <time>2022-07-26T06:07:54Z</time>
      </trkpt>
      <trkpt lat="45.6796" lon="6.70204">
        <ele>2007</ele>
        <time>2022-07-26T06:07:55Z</time>
      </trkpt>
      <trkpt lat="45.67959" lon="6.70205">
        <ele>2007</ele>
        <time>2022-07-26T06:07:56Z</time>
      </trkpt>
      <trkpt lat="45.67958" lon="6.70206">
        <ele>2007</ele>
        <time>2022-07-26T06:07:57Z</time>
      </trkpt>
      <trkpt lat="45.67957" lon="6.7021">
        <ele>2006</ele>
        <time>2022-07-26T06:08:17Z</time>
      </trkpt>
      <trkpt lat="45.67956" lon="6.70212">
        <ele>2006</ele>
        <time>2022-07-26T06:08:18Z</time>
      </trkpt>
      <trkpt lat="45.67955" lon="6.70214">
        <ele>2006</ele>
        <time>2022-07-26T06:08:19Z</time>
      </trkpt>
      <trkpt lat="45.67955" lon="6.70216">
        <ele>2006</ele>
        <time>2022-07-26T06:08:20Z</time>
      </trkpt>
      <trkpt lat="45.67954" lon="6.70217">
        <ele>2006</ele>
        <time>2022-07-26T06:08:21Z</time>
      </trkpt>
      <trkpt lat="45.67954" lon="6.70217">
        <ele>2006</ele>
        <time>2022-07-26T06:08:22Z</time>
      </trkpt>
      <trkpt lat="45.67954" lon="6.70218">
        <ele>2006</ele>
        <time>2022-07-26T06:08:23Z</time>
      </trkpt>
      <trkpt lat="45.67953" lon="6.70219">
        <ele>2006</ele>
        <time>2022-07-26T06:08:24Z</time>
      </trkpt>
      <trkpt lat="45.67953" lon="6.70219">
        <ele>2006</ele>
        <time>2022-07-26T06:08:25Z</time>
      </trkpt>
      <trkpt lat="45.67951" lon="6.70221">
        <ele>2005</ele>
        <time>2022-07-26T06:08:39Z</time>
      </trkpt>
      <trkpt lat="45.6795" lon="6.70222">
        <ele>2005</ele>
        <time>2022-07-26T06:08:40Z</time>
      </trkpt>
      <trkpt lat="45.67949" lon="6.70223">
        <ele>2005</ele>
        <time>2022-07-26T06:08:41Z</time>
      </trkpt>
      <trkpt lat="45.67949" lon="6.70222">
        <ele>2005</ele>
        <time>2022-07-26T06:08:42Z</time>
      </trkpt>
      <trkpt lat="45.67948" lon="6.70222">
        <ele>2005</ele>
        <time>2022-07-26T06:08:43Z</time>
      </trkpt>
      <trkpt lat="45.67947" lon="6.70222">
        <ele>2005</ele>
        <time>2022-07-26T06:08:44Z</time>
      </trkpt>
      <trkpt lat="45.67946" lon="6.70221">
        <ele>2005</ele>
        <time>2022-07-26T06:08:45Z</time>
      </trkpt>
      <trkpt lat="45.67944" lon="6.70219">
        <ele>2006</ele>
        <time>2022-07-26T06:08:51Z</time>
      </trkpt>
      <trkpt lat="45.67944" lon="6.70218">
        <ele>2006</ele>
        <time>2022-07-26T06:08:52Z</time>
      </trkpt>
      <trkpt lat="45.67943" lon="6.70217">
        <ele>2006</ele>
        <time>2022-07-26T06:08:53Z</time>
      </trkpt>
      <trkpt lat="45.67942" lon="6.70217">
        <ele>2006</ele>
        <time>2022-07-26T06:08:54Z</time>
      </trkpt>
      <trkpt lat="45.67942" lon="6.70216">
        <ele>2006</ele>
        <time>2022-07-26T06:08:55Z</time>
      </trkpt>
      <trkpt lat="45.67942" lon="6.70215">
        <ele>2006</ele>
        <time>2022-07-26T06:08:56Z</time>
      </trkpt>
      <trkpt lat="45.67941" lon="6.70214">
        <ele>2006</ele>
        <time>2022-07-26T06:08:57Z</time>
      </trkpt>
      <trkpt lat="45.67941" lon="6.70214">
        <ele>2006</ele>
        <time>2022-07-26T06:08:58Z</time>
      </trkpt>
      <trkpt lat="45.6794" lon="6.70213">
        <ele>2006</ele>
        <time>2022-07-26T06:08:59Z</time>
      </trkpt>
      <trkpt lat="45.6794" lon="6.70212">
        <ele>2007</ele>
        <time>2022-07-26T06:09:00Z</time>
      </trkpt>
      <trkpt lat="45.6794" lon="6.70212">
        <ele>2007</ele>
        <time>2022-07-26T06:09:01Z</time>
      </trkpt>
      <trkpt lat="45.6794" lon="6.70211">
        <ele>2007</ele>
        <time>2022-07-26T06:09:02Z</time>
      </trkpt>
      <trkpt lat="45.67939" lon="6.70211">
        <ele>2007</ele>
        <time>2022-07-26T06:09:03Z</time>
      </trkpt>
      <trkpt lat="45.67938" lon="6.7021">
        <ele>2007</ele>
        <time>2022-07-26T06:09:04Z</time>
      </trkpt>
      <trkpt lat="45.67938" lon="6.7021">
        <ele>2008</ele>
        <time>2022-07-26T06:09:05Z</time>
      </trkpt>
      <trkpt lat="45.67937" lon="6.70209">
        <ele>2008</ele>
        <time>2022-07-26T06:09:06Z</time>
      </trkpt>
      <trkpt lat="45.67937" lon="6.70208">
        <ele>2010</ele>
        <time>2022-07-26T06:09:30Z</time>
      </trkpt>
      <trkpt lat="45.67937" lon="6.70208">
        <ele>2010</ele>
        <time>2022-07-26T06:09:31Z</time>
      </trkpt>
      <trkpt lat="45.67936" lon="6.70207">
        <ele>2010</ele>
        <time>2022-07-26T06:09:32Z</time>
      </trkpt>
      <trkpt lat="45.67936" lon="6.70207">
        <ele>2010</ele>
        <time>2022-07-26T06:09:33Z</time>
      </trkpt>
      <trkpt lat="45.67935" lon="6.70206">
        <ele>2010</ele>
        <time>2022-07-26T06:09:34Z</time>
      </trkpt>
      <trkpt lat="45.67934" lon="6.70205">
        <ele>2010</ele>
        <time>2022-07-26T06:09:35Z</time>
      </trkpt>
      <trkpt lat="45.67933" lon="6.70205">
        <ele>2010</ele>
        <time>2022-07-26T06:09:36Z</time>
      </trkpt>
      <trkpt lat="45.67932" lon="6.70204">
        <ele>2010</ele>
        <time>2022-07-26T06:09:37Z</time>
      </trkpt>
      <trkpt lat="45.67932" lon="6.70203">
        <ele>2010</ele>
        <time>2022-07-26T06:09:38Z</time>
      </trkpt>
      <trkpt lat="45.67931" lon="6.70203">
        <ele>2010</ele>
        <time>2022-07-26T06:09:39Z</time>
      </trkpt>
      <trkpt lat="45.6793" lon="6.70202">
        <ele>2010</ele>
        <time>2022-07-26T06:09:40Z</time>
      </trkpt>
      <trkpt lat="45.67929" lon="6.70201">
        <ele>2010</ele>
        <time>2022-07-26T06:09:41Z</time>
      </trkpt>
      <trkpt lat="45.67928" lon="6.70201">
        <ele>2010</ele>
        <time>2022-07-26T06:09:42Z</time>
      </trkpt>
      <trkpt lat="45.67928" lon="6.702">
        <ele>2010</ele>
        <time>2022-07-26T06:09:43Z</time>
      </trkpt>
      <trkpt lat="45.67927" lon="6.702">
        <ele>2010</ele>
        <time>2022-07-26T06:09:44Z</time>
      </trkpt>
      <trkpt lat="45.67927" lon="6.70199">
        <ele>2011</ele>
        <time>2022-07-26T06:09:45Z</time>
      </trkpt>
      <trkpt lat="45.67926" lon="6.70199">
        <ele>2011</ele>
        <time>2022-07-26T06:09:46Z</time>
      </trkpt>
      <trkpt lat="45.67925" lon="6.70198">
        <ele>2011</ele>
        <time>2022-07-26T06:09:47Z</time>
      </trkpt>
      <trkpt lat="45.67925" lon="6.70197">
        <ele>2012</ele>
        <time>2022-07-26T06:09:48Z</time>
      </trkpt>
      <trkpt lat="45.67924" lon="6.70196">
        <ele>2012</ele>
        <time>2022-07-26T06:09:49Z</time>
      </trkpt>
      <trkpt lat="45.67924" lon="6.70196">
        <ele>2013</ele>
        <time>2022-07-26T06:09:50Z</time>
      </trkpt>
      <trkpt lat="45.67923" lon="6.70195">
        <ele>2013</ele>
        <time>2022-07-26T06:09:51Z</time>
      </trkpt>
      <trkpt lat="45.67923" lon="6.70194">
        <ele>2013</ele>
        <time>2022-07-26T06:09:52Z</time>
      </trkpt>
      <trkpt lat="45.67922" lon="6.70193">
        <ele>2013</ele>
        <time>2022-07-26T06:09:53Z</time>
      </trkpt>
      <trkpt lat="45.67922" lon="6.70192">
        <ele>2013</ele>
        <time>2022-07-26T06:09:54Z</time>
      </trkpt>
      <trkpt lat="45.67921" lon="6.70191">
        <ele>2014</ele>
        <time>2022-07-26T06:09:55Z</time>
      </trkpt>
      <trkpt lat="45.6792" lon="6.70191">
        <ele>2014</ele>
        <time>2022-07-26T06:09:56Z</time>
      </trkpt>
      <trkpt lat="45.6792" lon="6.7019">
        <ele>2014</ele>
        <time>2022-07-26T06:09:57Z</time>
      </trkpt>
      <trkpt lat="45.67919" lon="6.70189">
        <ele>2014</ele>
        <time>2022-07-26T06:09:58Z</time>
      </trkpt>
      <trkpt lat="45.67918" lon="6.70188">
        <ele>2014</ele>
        <time>2022-07-26T06:09:59Z</time>
      </trkpt>
      <trkpt lat="45.67918" lon="6.70187">
        <ele>2015</ele>
        <time>2022-07-26T06:10:00Z</time>
      </trkpt>
      <trkpt lat="45.67917" lon="6.70187">
        <ele>2015</ele>
        <time>2022-07-26T06:10:01Z</time>
      </trkpt>
      <trkpt lat="45.67917" lon="6.70186">
        <ele>2015</ele>
        <time>2022-07-26T06:10:02Z</time>
      </trkpt>
      <trkpt lat="45.67916" lon="6.70185">
        <ele>2015</ele>
        <time>2022-07-26T06:10:03Z</time>
      </trkpt>
      <trkpt lat="45.67915" lon="6.70184">
        <ele>2015</ele>
        <time>2022-07-26T06:10:04Z</time>
      </trkpt>
      <trkpt lat="45.67915" lon="6.70183">
        <ele>2015</ele>
        <time>2022-07-26T06:10:05Z</time>
      </trkpt>
      <trkpt lat="45.67915" lon="6.70182">
        <ele>2015</ele>
        <time>2022-07-26T06:10:06Z</time>
      </trkpt>
      <trkpt lat="45.67914" lon="6.70181">
        <ele>2015</ele>
        <time>2022-07-26T06:10:07Z</time>
      </trkpt>
      <trkpt lat="45.67914" lon="6.7018">
        <ele>2015</ele>
        <time>2022-07-26T06:10:08Z</time>
      </trkpt>
      <trkpt lat="45.67913" lon="6.70178">
        <ele>2015</ele>
        <time>2022-07-26T06:10:09Z</time>
      </trkpt>
      <trkpt lat="45.67913" lon="6.70177">
        <ele>2015</ele>
        <time>2022-07-26T06:10:10Z</time>
      </trkpt>
      <trkpt lat="45.67912" lon="6.70177">
        <ele>2015</ele>
        <time>2022-07-26T06:10:11Z</time>
      </trkpt>
      <trkpt lat="45.67912" lon="6.70176">
        <ele>2015</ele>
        <time>2022-07-26T06:10:12Z</time>
      </trkpt>
      <trkpt lat="45.67911" lon="6.70175">
        <ele>2015</ele>
        <time>2022-07-26T06:10:13Z</time>
      </trkpt>
      <trkpt lat="45.67911" lon="6.70175">
        <ele>2015</ele>
        <time>2022-07-26T06:10:14Z</time>
      </trkpt>
      <trkpt lat="45.67908" lon="6.70172">
        <ele>2019</ele>
        <time>2022-07-26T06:10:40Z</time>
      </trkpt>
      <trkpt lat="45.67906" lon="6.7017">
        <ele>2019</ele>
        <time>2022-07-26T06:10:41Z</time>
      </trkpt>
      <trkpt lat="45.67905" lon="6.70169">
        <ele>2019</ele>
        <time>2022-07-26T06:10:42Z</time>
      </trkpt>
      <trkpt lat="45.67904" lon="6.70168">
        <ele>2019</ele>
        <time>2022-07-26T06:10:43Z</time>
      </trkpt>
      <trkpt lat="45.67903" lon="6.70167">
        <ele>2019</ele>
        <time>2022-07-26T06:10:44Z</time>
      </trkpt>
      <trkpt lat="45.67903" lon="6.70166">
        <ele>2019</ele>
        <time>2022-07-26T06:10:45Z</time>
      </trkpt>
      <trkpt lat="45.67903" lon="6.70165">
        <ele>2019</ele>
        <time>2022-07-26T06:10:46Z</time>
      </trkpt>
      <trkpt lat="45.67903" lon="6.70164">
        <ele>2019</ele>
        <time>2022-07-26T06:10:47Z</time>
      </trkpt>
      <trkpt lat="45.67902" lon="6.70163">
        <ele>2019</ele>
        <time>2022-07-26T06:10:48Z</time>
      </trkpt>
      <trkpt lat="45.67902" lon="6.70162">
        <ele>2019</ele>
        <time>2022-07-26T06:10:49Z</time>
      </trkpt>
      <trkpt lat="45.67902" lon="6.7016">
        <ele>2020</ele>
        <time>2022-07-26T06:10:50Z</time>
      </trkpt>
      <trkpt lat="45.67901" lon="6.70159">
        <ele>2020</ele>
        <time>2022-07-26T06:10:51Z</time>
      </trkpt>
      <trkpt lat="45.67901" lon="6.70158">
        <ele>2020</ele>
        <time>2022-07-26T06:10:52Z</time>
      </trkpt>
      <trkpt lat="45.679" lon="6.70157">
        <ele>2020</ele>
        <time>2022-07-26T06:10:53Z</time>
      </trkpt>
      <trkpt lat="45.679" lon="6.70156">
        <ele>2020</ele>
        <time>2022-07-26T06:10:54Z</time>
      </trkpt>
      <trkpt lat="45.67899" lon="6.70156">
        <ele>2020</ele>
        <time>2022-07-26T06:10:55Z</time>
      </trkpt>
      <trkpt lat="45.67899" lon="6.70155">
        <ele>2020</ele>
        <time>2022-07-26T06:10:56Z</time>
      </trkpt>
      <trkpt lat="45.67898" lon="6.70154">
        <ele>2020</ele>
        <time>2022-07-26T06:10:57Z</time>
      </trkpt>
      <trkpt lat="45.67898" lon="6.70153">
        <ele>2020</ele>
        <time>2022-07-26T06:10:58Z</time>
      </trkpt>
      <trkpt lat="45.67897" lon="6.70152">
        <ele>2020</ele>
        <time>2022-07-26T06:10:59Z</time>
      </trkpt>
      <trkpt lat="45.67897" lon="6.70151">
        <ele>2021</ele>
        <time>2022-07-26T06:11:00Z</time>
      </trkpt>
      <trkpt lat="45.67896" lon="6.70151">
        <ele>2021</ele>
        <time>2022-07-26T06:11:01Z</time>
      </trkpt>
      <trkpt lat="45.67896" lon="6.7015">
        <ele>2021</ele>
        <time>2022-07-26T06:11:02Z</time>
      </trkpt>
      <trkpt lat="45.67895" lon="6.7015">
        <ele>2021</ele>
        <time>2022-07-26T06:11:03Z</time>
      </trkpt>
      <trkpt lat="45.67895" lon="6.70149">
        <ele>2021</ele>
        <time>2022-07-26T06:11:04Z</time>
      </trkpt>
      <trkpt lat="45.67894" lon="6.70149">
        <ele>2021</ele>
        <time>2022-07-26T06:11:05Z</time>
      </trkpt>
      <trkpt lat="45.67893" lon="6.70149">
        <ele>2021</ele>
        <time>2022-07-26T06:11:06Z</time>
      </trkpt>
      <trkpt lat="45.67893" lon="6.70148">
        <ele>2021</ele>
        <time>2022-07-26T06:11:07Z</time>
      </trkpt>
      <trkpt lat="45.67893" lon="6.70147">
        <ele>2021</ele>
        <time>2022-07-26T06:11:08Z</time>
      </trkpt>
      <trkpt lat="45.67892" lon="6.70146">
        <ele>2021</ele>
        <time>2022-07-26T06:11:09Z</time>
      </trkpt>
      <trkpt lat="45.67892" lon="6.70145">
        <ele>2022</ele>
        <time>2022-07-26T06:11:10Z</time>
      </trkpt>
      <trkpt lat="45.67891" lon="6.70145">
        <ele>2022</ele>
        <time>2022-07-26T06:11:11Z</time>
      </trkpt>
      <trkpt lat="45.67891" lon="6.70144">
        <ele>2022</ele>
        <time>2022-07-26T06:11:12Z</time>
      </trkpt>
      <trkpt lat="45.6789" lon="6.70143">
        <ele>2022</ele>
        <time>2022-07-26T06:11:13Z</time>
      </trkpt>
      <trkpt lat="45.6789" lon="6.70142">
        <ele>2022</ele>
        <time>2022-07-26T06:11:14Z</time>
      </trkpt>
      <trkpt lat="45.67889" lon="6.70142">
        <ele>2022</ele>
        <time>2022-07-26T06:11:15Z</time>
      </trkpt>
      <trkpt lat="45.67889" lon="6.70141">
        <ele>2022</ele>
        <time>2022-07-26T06:11:16Z</time>
      </trkpt>
      <trkpt lat="45.67888" lon="6.7014">
        <ele>2022</ele>
        <time>2022-07-26T06:11:17Z</time>
      </trkpt>
      <trkpt lat="45.67888" lon="6.7014">
        <ele>2022</ele>
        <time>2022-07-26T06:11:18Z</time>
      </trkpt>
      <trkpt lat="45.67887" lon="6.70139">
        <ele>2022</ele>
        <time>2022-07-26T06:11:19Z</time>
      </trkpt>
      <trkpt lat="45.67887" lon="6.70138">
        <ele>2023</ele>
        <time>2022-07-26T06:11:20Z</time>
      </trkpt>
      <trkpt lat="45.67886" lon="6.70138">
        <ele>2023</ele>
        <time>2022-07-26T06:11:21Z</time>
      </trkpt>
      <trkpt lat="45.67886" lon="6.70137">
        <ele>2023</ele>
        <time>2022-07-26T06:11:22Z</time>
      </trkpt>
      <trkpt lat="45.67885" lon="6.70136">
        <ele>2023</ele>
        <time>2022-07-26T06:11:23Z</time>
      </trkpt>
      <trkpt lat="45.67885" lon="6.70136">
        <ele>2023</ele>
        <time>2022-07-26T06:11:24Z</time>
      </trkpt>
      <trkpt lat="45.67884" lon="6.70135">
        <ele>2023</ele>
        <time>2022-07-26T06:11:25Z</time>
      </trkpt>
      <trkpt lat="45.67884" lon="6.70135">
        <ele>2023</ele>
        <time>2022-07-26T06:11:26Z</time>
      </trkpt>
      <trkpt lat="45.67883" lon="6.70134">
        <ele>2023</ele>
        <time>2022-07-26T06:11:27Z</time>
      </trkpt>
      <trkpt lat="45.67883" lon="6.70134">
        <ele>2023</ele>
        <time>2022-07-26T06:11:28Z</time>
      </trkpt>
      <trkpt lat="45.67882" lon="6.70133">
        <ele>2023</ele>
        <time>2022-07-26T06:11:29Z</time>
      </trkpt>
      <trkpt lat="45.67882" lon="6.70133">
        <ele>2024</ele>
        <time>2022-07-26T06:11:30Z</time>
      </trkpt>
      <trkpt lat="45.67881" lon="6.70133">
        <ele>2024</ele>
        <time>2022-07-26T06:11:31Z</time>
      </trkpt>
      <trkpt lat="45.67881" lon="6.70132">
        <ele>2024</ele>
        <time>2022-07-26T06:11:32Z</time>
      </trkpt>
      <trkpt lat="45.6788" lon="6.70132">
        <ele>2024</ele>
        <time>2022-07-26T06:11:33Z</time>
      </trkpt>
      <trkpt lat="45.6788" lon="6.70132">
        <ele>2024</ele>
        <time>2022-07-26T06:11:34Z</time>
      </trkpt>
      <trkpt lat="45.67879" lon="6.70132">
        <ele>2024</ele>
        <time>2022-07-26T06:11:35Z</time>
      </trkpt>
      <trkpt lat="45.67878" lon="6.70131">
        <ele>2024</ele>
        <time>2022-07-26T06:11:36Z</time>
      </trkpt>
      <trkpt lat="45.67878" lon="6.70131">
        <ele>2024</ele>
        <time>2022-07-26T06:11:37Z</time>
      </trkpt>
      <trkpt lat="45.67877" lon="6.70131">
        <ele>2024</ele>
        <time>2022-07-26T06:11:38Z</time>
      </trkpt>
      <trkpt lat="45.67876" lon="6.7013">
        <ele>2024</ele>
        <time>2022-07-26T06:11:39Z</time>
      </trkpt>
      <trkpt lat="45.67876" lon="6.7013">
        <ele>2025</ele>
        <time>2022-07-26T06:11:40Z</time>
      </trkpt>
      <trkpt lat="45.67876" lon="6.7013">
        <ele>2025</ele>
        <time>2022-07-26T06:11:41Z</time>
      </trkpt>
      <trkpt lat="45.67875" lon="6.70129">
        <ele>2025</ele>
        <time>2022-07-26T06:11:42Z</time>
      </trkpt>
      <trkpt lat="45.67875" lon="6.70129">
        <ele>2025</ele>
        <time>2022-07-26T06:11:43Z</time>
      </trkpt>
      <trkpt lat="45.67875" lon="6.70128">
        <ele>2025</ele>
        <time>2022-07-26T06:11:44Z</time>
      </trkpt>
      <trkpt lat="45.67874" lon="6.70128">
        <ele>2025</ele>
        <time>2022-07-26T06:11:45Z</time>
      </trkpt>
      <trkpt lat="45.67874" lon="6.70127">
        <ele>2025</ele>
        <time>2022-07-26T06:11:46Z</time>
      </trkpt>
      <trkpt lat="45.67873" lon="6.70127">
        <ele>2025</ele>
        <time>2022-07-26T06:11:47Z</time>
      </trkpt>
      <trkpt lat="45.67873" lon="6.70127">
        <ele>2025</ele>
        <time>2022-07-26T06:11:48Z</time>
      </trkpt>
      <trkpt lat="45.67872" lon="6.70126">
        <ele>2025</ele>
        <time>2022-07-26T06:11:49Z</time>
      </trkpt>
      <trkpt lat="45.67872" lon="6.70126">
        <ele>2026</ele>
        <time>2022-07-26T06:11:50Z</time>
      </trkpt>
      <trkpt lat="45.67871" lon="6.70125">
        <ele>2026</ele>
        <time>2022-07-26T06:11:51Z</time>
      </trkpt>
      <trkpt lat="45.67871" lon="6.70125">
        <ele>2026</ele>
        <time>2022-07-26T06:11:52Z</time>
      </trkpt>
      <trkpt lat="45.67871" lon="6.70124">
        <ele>2026</ele>
        <time>2022-07-26T06:11:53Z</time>
      </trkpt>
      <trkpt lat="45.6787" lon="6.70123">
        <ele>2026</ele>
        <time>2022-07-26T06:11:54Z</time>
      </trkpt>
      <trkpt lat="45.6787" lon="6.70123">
        <ele>2027</ele>
        <time>2022-07-26T06:11:55Z</time>
      </trkpt>
      <trkpt lat="45.67869" lon="6.70122">
        <ele>2027</ele>
        <time>2022-07-26T06:11:56Z</time>
      </trkpt>
      <trkpt lat="45.67869" lon="6.70121">
        <ele>2027</ele>
        <time>2022-07-26T06:11:57Z</time>
      </trkpt>
      <trkpt lat="45.67868" lon="6.70121">
        <ele>2027</ele>
        <time>2022-07-26T06:11:58Z</time>
      </trkpt>
      <trkpt lat="45.67868" lon="6.7012">
        <ele>2027</ele>
        <time>2022-07-26T06:11:59Z</time>
      </trkpt>
      <trkpt lat="45.67867" lon="6.70119">
        <ele>2027</ele>
        <time>2022-07-26T06:12:00Z</time>
      </trkpt>
      <trkpt lat="45.67867" lon="6.70118">
        <ele>2027</ele>
        <time>2022-07-26T06:12:01Z</time>
      </trkpt>
      <trkpt lat="45.67866" lon="6.70118">
        <ele>2027</ele>
        <time>2022-07-26T06:12:02Z</time>
      </trkpt>
      <trkpt lat="45.67866" lon="6.70117">
        <ele>2027</ele>
        <time>2022-07-26T06:12:03Z</time>
      </trkpt>
      <trkpt lat="45.67865" lon="6.70116">
        <ele>2027</ele>
        <time>2022-07-26T06:12:04Z</time>
      </trkpt>
      <trkpt lat="45.67865" lon="6.70115">
        <ele>2028</ele>
        <time>2022-07-26T06:12:05Z</time>
      </trkpt>
      <trkpt lat="45.67865" lon="6.70114">
        <ele>2028</ele>
        <time>2022-07-26T06:12:06Z</time>
      </trkpt>
      <trkpt lat="45.67865" lon="6.70113">
        <ele>2028</ele>
        <time>2022-07-26T06:12:07Z</time>
      </trkpt>
      <trkpt lat="45.67864" lon="6.70112">
        <ele>2028</ele>
        <time>2022-07-26T06:12:08Z</time>
      </trkpt>
      <trkpt lat="45.67864" lon="6.70112">
        <ele>2028</ele>
        <time>2022-07-26T06:12:09Z</time>
      </trkpt>
      <trkpt lat="45.67864" lon="6.70111">
        <ele>2028</ele>
        <time>2022-07-26T06:12:10Z</time>
      </trkpt>
      <trkpt lat="45.67863" lon="6.7011">
        <ele>2028</ele>
        <time>2022-07-26T06:12:11Z</time>
      </trkpt>
      <trkpt lat="45.67863" lon="6.70109">
        <ele>2028</ele>
        <time>2022-07-26T06:12:12Z</time>
      </trkpt>
      <trkpt lat="45.67863" lon="6.70108">
        <ele>2028</ele>
        <time>2022-07-26T06:12:13Z</time>
      </trkpt>
      <trkpt lat="45.67863" lon="6.70107">
        <ele>2028</ele>
        <time>2022-07-26T06:12:14Z</time>
      </trkpt>
      <trkpt lat="45.67862" lon="6.70106">
        <ele>2028</ele>
        <time>2022-07-26T06:12:15Z</time>
      </trkpt>
      <trkpt lat="45.67862" lon="6.70105">
        <ele>2028</ele>
        <time>2022-07-26T06:12:16Z</time>
      </trkpt>
      <trkpt lat="45.67862" lon="6.70104">
        <ele>2028</ele>
        <time>2022-07-26T06:12:17Z</time>
      </trkpt>
      <trkpt lat="45.67861" lon="6.70103">
        <ele>2028</ele>
        <time>2022-07-26T06:12:18Z</time>
      </trkpt>
      <trkpt lat="45.67861" lon="6.70103">
        <ele>2028</ele>
        <time>2022-07-26T06:12:19Z</time>
      </trkpt>
      <trkpt lat="45.6786" lon="6.70102">
        <ele>2029</ele>
        <time>2022-07-26T06:12:20Z</time>
      </trkpt>
      <trkpt lat="45.6786" lon="6.70101">
        <ele>2029</ele>
        <time>2022-07-26T06:12:21Z</time>
      </trkpt>
      <trkpt lat="45.6786" lon="6.701">
        <ele>2029</ele>
        <time>2022-07-26T06:12:22Z</time>
      </trkpt>
      <trkpt lat="45.67859" lon="6.70099">
        <ele>2029</ele>
        <time>2022-07-26T06:12:23Z</time>
      </trkpt>
      <trkpt lat="45.67859" lon="6.70099">
        <ele>2029</ele>
        <time>2022-07-26T06:12:24Z</time>
      </trkpt>
      <trkpt lat="45.67858" lon="6.70098">
        <ele>2029</ele>
        <time>2022-07-26T06:12:25Z</time>
      </trkpt>
      <trkpt lat="45.67857" lon="6.70097">
        <ele>2029</ele>
        <time>2022-07-26T06:12:26Z</time>
      </trkpt>
      <trkpt lat="45.67857" lon="6.70097">
        <ele>2029</ele>
        <time>2022-07-26T06:12:27Z</time>
      </trkpt>
      <trkpt lat="45.67856" lon="6.70096">
        <ele>2029</ele>
        <time>2022-07-26T06:12:28Z</time>
      </trkpt>
      <trkpt lat="45.67855" lon="6.70096">
        <ele>2029</ele>
        <time>2022-07-26T06:12:29Z</time>
      </trkpt>
      <trkpt lat="45.67854" lon="6.70095">
        <ele>2030</ele>
        <time>2022-07-26T06:12:30Z</time>
      </trkpt>
      <trkpt lat="45.67854" lon="6.70095">
        <ele>2030</ele>
        <time>2022-07-26T06:12:31Z</time>
      </trkpt>
      <trkpt lat="45.67853" lon="6.70094">
        <ele>2030</ele>
        <time>2022-07-26T06:12:32Z</time>
      </trkpt>
      <trkpt lat="45.67853" lon="6.70093">
        <ele>2030</ele>
        <time>2022-07-26T06:12:33Z</time>
      </trkpt>
      <trkpt lat="45.67852" lon="6.70093">
        <ele>2030</ele>
        <time>2022-07-26T06:12:34Z</time>
      </trkpt>
      <trkpt lat="45.67852" lon="6.70092">
        <ele>2031</ele>
        <time>2022-07-26T06:12:35Z</time>
      </trkpt>
      <trkpt lat="45.67851" lon="6.70092">
        <ele>2031</ele>
        <time>2022-07-26T06:12:36Z</time>
      </trkpt>
      <trkpt lat="45.67851" lon="6.70091">
        <ele>2031</ele>
        <time>2022-07-26T06:12:37Z</time>
      </trkpt>
      <trkpt lat="45.6785" lon="6.70091">
        <ele>2031</ele>
        <time>2022-07-26T06:12:38Z</time>
      </trkpt>
      <trkpt lat="45.6785" lon="6.7009">
        <ele>2031</ele>
        <time>2022-07-26T06:12:39Z</time>
      </trkpt>
      <trkpt lat="45.67849" lon="6.70089">
        <ele>2031</ele>
        <time>2022-07-26T06:12:40Z</time>
      </trkpt>
      <trkpt lat="45.67849" lon="6.70089">
        <ele>2031</ele>
        <time>2022-07-26T06:12:41Z</time>
      </trkpt>
      <trkpt lat="45.67848" lon="6.70088">
        <ele>2031</ele>
        <time>2022-07-26T06:12:42Z</time>
      </trkpt>
      <trkpt lat="45.67848" lon="6.70088">
        <ele>2031</ele>
        <time>2022-07-26T06:12:43Z</time>
      </trkpt>
      <trkpt lat="45.67847" lon="6.70087">
        <ele>2031</ele>
        <time>2022-07-26T06:12:44Z</time>
      </trkpt>
      <trkpt lat="45.67847" lon="6.70087">
        <ele>2032</ele>
        <time>2022-07-26T06:12:45Z</time>
      </trkpt>
      <trkpt lat="45.67846" lon="6.70086">
        <ele>2032</ele>
        <time>2022-07-26T06:12:46Z</time>
      </trkpt>
      <trkpt lat="45.67846" lon="6.70086">
        <ele>2032</ele>
        <time>2022-07-26T06:12:47Z</time>
      </trkpt>
      <trkpt lat="45.67845" lon="6.70085">
        <ele>2032</ele>
        <time>2022-07-26T06:12:48Z</time>
      </trkpt>
      <trkpt lat="45.67845" lon="6.70085">
        <ele>2032</ele>
        <time>2022-07-26T06:12:49Z</time>
      </trkpt>
      <trkpt lat="45.67844" lon="6.70085">
        <ele>2032</ele>
        <time>2022-07-26T06:12:50Z</time>
      </trkpt>
      <trkpt lat="45.67843" lon="6.70085">
        <ele>2032</ele>
        <time>2022-07-26T06:12:51Z</time>
      </trkpt>
      <trkpt lat="45.67843" lon="6.70085">
        <ele>2032</ele>
        <time>2022-07-26T06:12:52Z</time>
      </trkpt>
      <trkpt lat="45.67842" lon="6.70085">
        <ele>2032</ele>
        <time>2022-07-26T06:12:53Z</time>
      </trkpt>
      <trkpt lat="45.67842" lon="6.70084">
        <ele>2032</ele>
        <time>2022-07-26T06:12:54Z</time>
      </trkpt>
      <trkpt lat="45.67841" lon="6.70084">
        <ele>2033</ele>
        <time>2022-07-26T06:12:55Z</time>
      </trkpt>
      <trkpt lat="45.6784" lon="6.70084">
        <ele>2033</ele>
        <time>2022-07-26T06:12:56Z</time>
      </trkpt>
      <trkpt lat="45.6784" lon="6.70083">
        <ele>2033</ele>
        <time>2022-07-26T06:12:57Z</time>
      </trkpt>
      <trkpt lat="45.67839" lon="6.70083">
        <ele>2033</ele>
        <time>2022-07-26T06:12:58Z</time>
      </trkpt>
      <trkpt lat="45.67838" lon="6.70082">
        <ele>2033</ele>
        <time>2022-07-26T06:12:59Z</time>
      </trkpt>
      <trkpt lat="45.67838" lon="6.70082">
        <ele>2033</ele>
        <time>2022-07-26T06:13:00Z</time>
      </trkpt>
      <trkpt lat="45.67837" lon="6.70081">
        <ele>2033</ele>
        <time>2022-07-26T06:13:01Z</time>
      </trkpt>
      <trkpt lat="45.67837" lon="6.70081">
        <ele>2033</ele>
        <time>2022-07-26T06:13:02Z</time>
      </trkpt>
      <trkpt lat="45.67836" lon="6.70081">
        <ele>2033</ele>
        <time>2022-07-26T06:13:03Z</time>
      </trkpt>
      <trkpt lat="45.67835" lon="6.7008">
        <ele>2033</ele>
        <time>2022-07-26T06:13:04Z</time>
      </trkpt>
      <trkpt lat="45.67835" lon="6.7008">
        <ele>2033</ele>
        <time>2022-07-26T06:13:05Z</time>
      </trkpt>
      <trkpt lat="45.67834" lon="6.7008">
        <ele>2033</ele>
        <time>2022-07-26T06:13:06Z</time>
      </trkpt>
      <trkpt lat="45.67833" lon="6.7008">
        <ele>2034</ele>
        <time>2022-07-26T06:13:14Z</time>
      </trkpt>
      <trkpt lat="45.67832" lon="6.7008">
        <ele>2034</ele>
        <time>2022-07-26T06:13:15Z</time>
      </trkpt>
      <trkpt lat="45.67832" lon="6.7008">
        <ele>2034</ele>
        <time>2022-07-26T06:13:16Z</time>
      </trkpt>
      <trkpt lat="45.6783" lon="6.7008">
        <ele>2035</ele>
        <time>2022-07-26T06:13:25Z</time>
      </trkpt>
      <trkpt lat="45.6783" lon="6.70079">
        <ele>2035</ele>
        <time>2022-07-26T06:13:26Z</time>
      </trkpt>
      <trkpt lat="45.67829" lon="6.70079">
        <ele>2035</ele>
        <time>2022-07-26T06:13:27Z</time>
      </trkpt>
      <trkpt lat="45.67828" lon="6.70078">
        <ele>2035</ele>
        <time>2022-07-26T06:13:28Z</time>
      </trkpt>
      <trkpt lat="45.67827" lon="6.70077">
        <ele>2035</ele>
        <time>2022-07-26T06:13:29Z</time>
      </trkpt>
      <trkpt lat="45.67827" lon="6.70077">
        <ele>2036</ele>
        <time>2022-07-26T06:13:30Z</time>
      </trkpt>
      <trkpt lat="45.67826" lon="6.70076">
        <ele>2036</ele>
        <time>2022-07-26T06:13:31Z</time>
      </trkpt>
      <trkpt lat="45.67826" lon="6.70076">
        <ele>2036</ele>
        <time>2022-07-26T06:13:32Z</time>
      </trkpt>
      <trkpt lat="45.67825" lon="6.70076">
        <ele>2036</ele>
        <time>2022-07-26T06:13:33Z</time>
      </trkpt>
      <trkpt lat="45.67825" lon="6.70075">
        <ele>2036</ele>
        <time>2022-07-26T06:13:34Z</time>
      </trkpt>
      <trkpt lat="45.67824" lon="6.70074">
        <ele>2036</ele>
        <time>2022-07-26T06:13:35Z</time>
      </trkpt>
      <trkpt lat="45.67824" lon="6.70074">
        <ele>2036</ele>
        <time>2022-07-26T06:13:36Z</time>
      </trkpt>
      <trkpt lat="45.67823" lon="6.70074">
        <ele>2036</ele>
        <time>2022-07-26T06:13:37Z</time>
      </trkpt>
      <trkpt lat="45.67822" lon="6.70073">
        <ele>2036</ele>
        <time>2022-07-26T06:13:38Z</time>
      </trkpt>
      <trkpt lat="45.67822" lon="6.70073">
        <ele>2036</ele>
        <time>2022-07-26T06:13:39Z</time>
      </trkpt>
      <trkpt lat="45.67821" lon="6.70073">
        <ele>2036</ele>
        <time>2022-07-26T06:13:40Z</time>
      </trkpt>
      <trkpt lat="45.67821" lon="6.70072">
        <ele>2036</ele>
        <time>2022-07-26T06:13:41Z</time>
      </trkpt>
      <trkpt lat="45.6782" lon="6.70072">
        <ele>2036</ele>
        <time>2022-07-26T06:13:42Z</time>
      </trkpt>
      <trkpt lat="45.6782" lon="6.70072">
        <ele>2036</ele>
        <time>2022-07-26T06:13:43Z</time>
      </trkpt>
      <trkpt lat="45.67819" lon="6.70072">
        <ele>2036</ele>
        <time>2022-07-26T06:13:44Z</time>
      </trkpt>
      <trkpt lat="45.67819" lon="6.70072">
        <ele>2037</ele>
        <time>2022-07-26T06:13:45Z</time>
      </trkpt>
      <trkpt lat="45.67818" lon="6.70071">
        <ele>2037</ele>
        <time>2022-07-26T06:13:46Z</time>
      </trkpt>
      <trkpt lat="45.67817" lon="6.70071">
        <ele>2037</ele>
        <time>2022-07-26T06:13:47Z</time>
      </trkpt>
      <trkpt lat="45.67817" lon="6.7007">
        <ele>2037</ele>
        <time>2022-07-26T06:13:48Z</time>
      </trkpt>
      <trkpt lat="45.67816" lon="6.7007">
        <ele>2037</ele>
        <time>2022-07-26T06:13:49Z</time>
      </trkpt>
      <trkpt lat="45.67816" lon="6.70069">
        <ele>2038</ele>
        <time>2022-07-26T06:13:50Z</time>
      </trkpt>
      <trkpt lat="45.67815" lon="6.70069">
        <ele>2038</ele>
        <time>2022-07-26T06:13:51Z</time>
      </trkpt>
      <trkpt lat="45.67814" lon="6.70068">
        <ele>2038</ele>
        <time>2022-07-26T06:13:52Z</time>
      </trkpt>
      <trkpt lat="45.67814" lon="6.70068">
        <ele>2038</ele>
        <time>2022-07-26T06:13:53Z</time>
      </trkpt>
      <trkpt lat="45.67813" lon="6.70067">
        <ele>2038</ele>
        <time>2022-07-26T06:13:54Z</time>
      </trkpt>
      <trkpt lat="45.67813" lon="6.70067">
        <ele>2038</ele>
        <time>2022-07-26T06:13:55Z</time>
      </trkpt>
      <trkpt lat="45.67812" lon="6.70067">
        <ele>2038</ele>
        <time>2022-07-26T06:13:56Z</time>
      </trkpt>
      <trkpt lat="45.67811" lon="6.70067">
        <ele>2038</ele>
        <time>2022-07-26T06:13:57Z</time>
      </trkpt>
      <trkpt lat="45.67811" lon="6.70067">
        <ele>2039</ele>
        <time>2022-07-26T06:13:58Z</time>
      </trkpt>
      <trkpt lat="45.6781" lon="6.70067">
        <ele>2039</ele>
        <time>2022-07-26T06:13:59Z</time>
      </trkpt>
      <trkpt lat="45.6781" lon="6.70067">
        <ele>2040</ele>
        <time>2022-07-26T06:14:00Z</time>
      </trkpt>
      <trkpt lat="45.6781" lon="6.70067">
        <ele>2040</ele>
        <time>2022-07-26T06:14:01Z</time>
      </trkpt>
      <trkpt lat="45.67809" lon="6.70066">
        <ele>2040</ele>
        <time>2022-07-26T06:14:02Z</time>
      </trkpt>
      <trkpt lat="45.67809" lon="6.70066">
        <ele>2040</ele>
        <time>2022-07-26T06:14:03Z</time>
      </trkpt>
      <trkpt lat="45.67808" lon="6.70066">
        <ele>2040</ele>
        <time>2022-07-26T06:14:04Z</time>
      </trkpt>
      <trkpt lat="45.67808" lon="6.70066">
        <ele>2040</ele>
        <time>2022-07-26T06:14:05Z</time>
      </trkpt>
      <trkpt lat="45.67807" lon="6.70066">
        <ele>2040</ele>
        <time>2022-07-26T06:14:06Z</time>
      </trkpt>
      <trkpt lat="45.67807" lon="6.70066">
        <ele>2040</ele>
        <time>2022-07-26T06:14:07Z</time>
      </trkpt>
      <trkpt lat="45.67806" lon="6.70066">
        <ele>2040</ele>
        <time>2022-07-26T06:14:08Z</time>
      </trkpt>
      <trkpt lat="45.67806" lon="6.70065">
        <ele>2040</ele>
        <time>2022-07-26T06:14:09Z</time>
      </trkpt>
      <trkpt lat="45.67805" lon="6.70065">
        <ele>2040</ele>
        <time>2022-07-26T06:14:10Z</time>
      </trkpt>
      <trkpt lat="45.67805" lon="6.70065">
        <ele>2040</ele>
        <time>2022-07-26T06:14:11Z</time>
      </trkpt>
      <trkpt lat="45.67804" lon="6.70065">
        <ele>2040</ele>
        <time>2022-07-26T06:14:12Z</time>
      </trkpt>
      <trkpt lat="45.67804" lon="6.70065">
        <ele>2040</ele>
        <time>2022-07-26T06:14:13Z</time>
      </trkpt>
      <trkpt lat="45.67803" lon="6.70064">
        <ele>2040</ele>
        <time>2022-07-26T06:14:14Z</time>
      </trkpt>
      <trkpt lat="45.67803" lon="6.70064">
        <ele>2041</ele>
        <time>2022-07-26T06:14:15Z</time>
      </trkpt>
      <trkpt lat="45.67802" lon="6.70064">
        <ele>2041</ele>
        <time>2022-07-26T06:14:16Z</time>
      </trkpt>
      <trkpt lat="45.67801" lon="6.70063">
        <ele>2041</ele>
        <time>2022-07-26T06:14:17Z</time>
      </trkpt>
      <trkpt lat="45.67801" lon="6.70063">
        <ele>2041</ele>
        <time>2022-07-26T06:14:18Z</time>
      </trkpt>
      <trkpt lat="45.678" lon="6.70062">
        <ele>2041</ele>
        <time>2022-07-26T06:14:19Z</time>
      </trkpt>
      <trkpt lat="45.678" lon="6.70061">
        <ele>2041</ele>
        <time>2022-07-26T06:14:20Z</time>
      </trkpt>
      <trkpt lat="45.67799" lon="6.70061">
        <ele>2041</ele>
        <time>2022-07-26T06:14:21Z</time>
      </trkpt>
      <trkpt lat="45.67799" lon="6.7006">
        <ele>2041</ele>
        <time>2022-07-26T06:14:22Z</time>
      </trkpt>
      <trkpt lat="45.67798" lon="6.7006">
        <ele>2041</ele>
        <time>2022-07-26T06:14:23Z</time>
      </trkpt>
      <trkpt lat="45.67798" lon="6.70059">
        <ele>2041</ele>
        <time>2022-07-26T06:14:24Z</time>
      </trkpt>
      <trkpt lat="45.67797" lon="6.70059">
        <ele>2042</ele>
        <time>2022-07-26T06:14:25Z</time>
      </trkpt>
      <trkpt lat="45.67797" lon="6.70058">
        <ele>2042</ele>
        <time>2022-07-26T06:14:26Z</time>
      </trkpt>
      <trkpt lat="45.67796" lon="6.70058">
        <ele>2042</ele>
        <time>2022-07-26T06:14:27Z</time>
      </trkpt>
      <trkpt lat="45.67796" lon="6.70057">
        <ele>2042</ele>
        <time>2022-07-26T06:14:28Z</time>
      </trkpt>
      <trkpt lat="45.67795" lon="6.70057">
        <ele>2042</ele>
        <time>2022-07-26T06:14:29Z</time>
      </trkpt>
      <trkpt lat="45.67794" lon="6.70056">
        <ele>2042</ele>
        <time>2022-07-26T06:14:30Z</time>
      </trkpt>
      <trkpt lat="45.67794" lon="6.70056">
        <ele>2042</ele>
        <time>2022-07-26T06:14:31Z</time>
      </trkpt>
      <trkpt lat="45.67793" lon="6.70055">
        <ele>2042</ele>
        <time>2022-07-26T06:14:32Z</time>
      </trkpt>
      <trkpt lat="45.67792" lon="6.70054">
        <ele>2042</ele>
        <time>2022-07-26T06:14:33Z</time>
      </trkpt>
      <trkpt lat="45.67792" lon="6.70054">
        <ele>2042</ele>
        <time>2022-07-26T06:14:34Z</time>
      </trkpt>
      <trkpt lat="45.67791" lon="6.70053">
        <ele>2043</ele>
        <time>2022-07-26T06:14:35Z</time>
      </trkpt>
      <trkpt lat="45.6779" lon="6.70052">
        <ele>2043</ele>
        <time>2022-07-26T06:14:36Z</time>
      </trkpt>
      <trkpt lat="45.67789" lon="6.70052">
        <ele>2043</ele>
        <time>2022-07-26T06:14:37Z</time>
      </trkpt>
      <trkpt lat="45.67789" lon="6.70051">
        <ele>2043</ele>
        <time>2022-07-26T06:14:38Z</time>
      </trkpt>
      <trkpt lat="45.67788" lon="6.70051">
        <ele>2043</ele>
        <time>2022-07-26T06:14:39Z</time>
      </trkpt>
      <trkpt lat="45.67788" lon="6.7005">
        <ele>2043</ele>
        <time>2022-07-26T06:14:40Z</time>
      </trkpt>
      <trkpt lat="45.67787" lon="6.7005">
        <ele>2043</ele>
        <time>2022-07-26T06:14:41Z</time>
      </trkpt>
      <trkpt lat="45.67786" lon="6.7005">
        <ele>2043</ele>
        <time>2022-07-26T06:14:42Z</time>
      </trkpt>
      <trkpt lat="45.67785" lon="6.70049">
        <ele>2043</ele>
        <time>2022-07-26T06:14:43Z</time>
      </trkpt>
      <trkpt lat="45.67785" lon="6.70049">
        <ele>2043</ele>
        <time>2022-07-26T06:14:44Z</time>
      </trkpt>
      <trkpt lat="45.67784" lon="6.70048">
        <ele>2043</ele>
        <time>2022-07-26T06:14:45Z</time>
      </trkpt>
      <trkpt lat="45.67783" lon="6.70048">
        <ele>2043</ele>
        <time>2022-07-26T06:14:46Z</time>
      </trkpt>
      <trkpt lat="45.67782" lon="6.70047">
        <ele>2043</ele>
        <time>2022-07-26T06:14:47Z</time>
      </trkpt>
      <trkpt lat="45.67781" lon="6.70047">
        <ele>2043</ele>
        <time>2022-07-26T06:14:48Z</time>
      </trkpt>
      <trkpt lat="45.67781" lon="6.70046">
        <ele>2043</ele>
        <time>2022-07-26T06:14:49Z</time>
      </trkpt>
      <trkpt lat="45.6778" lon="6.70046">
        <ele>2043</ele>
        <time>2022-07-26T06:14:50Z</time>
      </trkpt>
      <trkpt lat="45.6778" lon="6.70045">
        <ele>2043</ele>
        <time>2022-07-26T06:14:51Z</time>
      </trkpt>
      <trkpt lat="45.67779" lon="6.70044">
        <ele>2043</ele>
        <time>2022-07-26T06:14:52Z</time>
      </trkpt>
      <trkpt lat="45.67778" lon="6.70043">
        <ele>2043</ele>
        <time>2022-07-26T06:14:53Z</time>
      </trkpt>
      <trkpt lat="45.67778" lon="6.70043">
        <ele>2043</ele>
        <time>2022-07-26T06:14:54Z</time>
      </trkpt>
      <trkpt lat="45.67777" lon="6.70042">
        <ele>2044</ele>
        <time>2022-07-26T06:14:55Z</time>
      </trkpt>
      <trkpt lat="45.67776" lon="6.70041">
        <ele>2044</ele>
        <time>2022-07-26T06:14:56Z</time>
      </trkpt>
      <trkpt lat="45.67776" lon="6.70041">
        <ele>2044</ele>
        <time>2022-07-26T06:14:57Z</time>
      </trkpt>
      <trkpt lat="45.67775" lon="6.7004">
        <ele>2044</ele>
        <time>2022-07-26T06:14:58Z</time>
      </trkpt>
      <trkpt lat="45.67774" lon="6.7004">
        <ele>2044</ele>
        <time>2022-07-26T06:14:59Z</time>
      </trkpt>
      <trkpt lat="45.67773" lon="6.70039">
        <ele>2044</ele>
        <time>2022-07-26T06:15:00Z</time>
      </trkpt>
      <trkpt lat="45.67773" lon="6.70039">
        <ele>2044</ele>
        <time>2022-07-26T06:15:01Z</time>
      </trkpt>
      <trkpt lat="45.67772" lon="6.70038">
        <ele>2044</ele>
        <time>2022-07-26T06:15:02Z</time>
      </trkpt>
      <trkpt lat="45.67771" lon="6.70038">
        <ele>2044</ele>
        <time>2022-07-26T06:15:03Z</time>
      </trkpt>
      <trkpt lat="45.67771" lon="6.70037">
        <ele>2044</ele>
        <time>2022-07-26T06:15:04Z</time>
      </trkpt>
      <trkpt lat="45.6777" lon="6.70037">
        <ele>2044</ele>
        <time>2022-07-26T06:15:05Z</time>
      </trkpt>
      <trkpt lat="45.67769" lon="6.70037">
        <ele>2044</ele>
        <time>2022-07-26T06:15:06Z</time>
      </trkpt>
      <trkpt lat="45.67769" lon="6.70037">
        <ele>2044</ele>
        <time>2022-07-26T06:15:07Z</time>
      </trkpt>
      <trkpt lat="45.67768" lon="6.70036">
        <ele>2044</ele>
        <time>2022-07-26T06:15:08Z</time>
      </trkpt>
      <trkpt lat="45.67767" lon="6.70036">
        <ele>2044</ele>
        <time>2022-07-26T06:15:09Z</time>
      </trkpt>
      <trkpt lat="45.67767" lon="6.70036">
        <ele>2045</ele>
        <time>2022-07-26T06:15:10Z</time>
      </trkpt>
      <trkpt lat="45.67766" lon="6.70036">
        <ele>2045</ele>
        <time>2022-07-26T06:15:11Z</time>
      </trkpt>
      <trkpt lat="45.67765" lon="6.70036">
        <ele>2045</ele>
        <time>2022-07-26T06:15:12Z</time>
      </trkpt>
      <trkpt lat="45.67765" lon="6.70035">
        <ele>2045</ele>
        <time>2022-07-26T06:15:13Z</time>
      </trkpt>
      <trkpt lat="45.67764" lon="6.70035">
        <ele>2045</ele>
        <time>2022-07-26T06:15:14Z</time>
      </trkpt>
      <trkpt lat="45.67763" lon="6.70035">
        <ele>2045</ele>
        <time>2022-07-26T06:15:15Z</time>
      </trkpt>
      <trkpt lat="45.67762" lon="6.70034">
        <ele>2045</ele>
        <time>2022-07-26T06:15:16Z</time>
      </trkpt>
      <trkpt lat="45.67761" lon="6.70034">
        <ele>2045</ele>
        <time>2022-07-26T06:15:17Z</time>
      </trkpt>
      <trkpt lat="45.6776" lon="6.70034">
        <ele>2045</ele>
        <time>2022-07-26T06:15:18Z</time>
      </trkpt>
      <trkpt lat="45.6776" lon="6.70034">
        <ele>2045</ele>
        <time>2022-07-26T06:15:19Z</time>
      </trkpt>
      <trkpt lat="45.67759" lon="6.70033">
        <ele>2045</ele>
        <time>2022-07-26T06:15:20Z</time>
      </trkpt>
      <trkpt lat="45.67758" lon="6.70033">
        <ele>2045</ele>
        <time>2022-07-26T06:15:21Z</time>
      </trkpt>
      <trkpt lat="45.67757" lon="6.70033">
        <ele>2045</ele>
        <time>2022-07-26T06:15:22Z</time>
      </trkpt>
      <trkpt lat="45.67756" lon="6.70033">
        <ele>2045</ele>
        <time>2022-07-26T06:15:23Z</time>
      </trkpt>
      <trkpt lat="45.67756" lon="6.70033">
        <ele>2045</ele>
        <time>2022-07-26T06:15:24Z</time>
      </trkpt>
      <trkpt lat="45.67755" lon="6.70032">
        <ele>2046</ele>
        <time>2022-07-26T06:15:25Z</time>
      </trkpt>
      <trkpt lat="45.67754" lon="6.70032">
        <ele>2046</ele>
        <time>2022-07-26T06:15:26Z</time>
      </trkpt>
      <trkpt lat="45.67753" lon="6.70032">
        <ele>2046</ele>
        <time>2022-07-26T06:15:27Z</time>
      </trkpt>
      <trkpt lat="45.67753" lon="6.70031">
        <ele>2046</ele>
        <time>2022-07-26T06:15:28Z</time>
      </trkpt>
      <trkpt lat="45.67752" lon="6.70031">
        <ele>2046</ele>
        <time>2022-07-26T06:15:29Z</time>
      </trkpt>
      <trkpt lat="45.67751" lon="6.7003">
        <ele>2046</ele>
        <time>2022-07-26T06:15:30Z</time>
      </trkpt>
      <trkpt lat="45.67751" lon="6.7003">
        <ele>2046</ele>
        <time>2022-07-26T06:15:31Z</time>
      </trkpt>
      <trkpt lat="45.6775" lon="6.70029">
        <ele>2046</ele>
        <time>2022-07-26T06:15:32Z</time>
      </trkpt>
      <trkpt lat="45.6775" lon="6.70029">
        <ele>2046</ele>
        <time>2022-07-26T06:15:33Z</time>
      </trkpt>
      <trkpt lat="45.67749" lon="6.70028">
        <ele>2046</ele>
        <time>2022-07-26T06:15:34Z</time>
      </trkpt>
      <trkpt lat="45.67748" lon="6.70027">
        <ele>2046</ele>
        <time>2022-07-26T06:15:35Z</time>
      </trkpt>
      <trkpt lat="45.67748" lon="6.70027">
        <ele>2046</ele>
        <time>2022-07-26T06:15:36Z</time>
      </trkpt>
      <trkpt lat="45.67747" lon="6.70026">
        <ele>2046</ele>
        <time>2022-07-26T06:15:37Z</time>
      </trkpt>
      <trkpt lat="45.67746" lon="6.70026">
        <ele>2046</ele>
        <time>2022-07-26T06:15:38Z</time>
      </trkpt>
      <trkpt lat="45.67745" lon="6.70025">
        <ele>2046</ele>
        <time>2022-07-26T06:15:39Z</time>
      </trkpt>
      <trkpt lat="45.67745" lon="6.70025">
        <ele>2046</ele>
        <time>2022-07-26T06:15:40Z</time>
      </trkpt>
      <trkpt lat="45.67744" lon="6.70024">
        <ele>2046</ele>
        <time>2022-07-26T06:15:41Z</time>
      </trkpt>
      <trkpt lat="45.67744" lon="6.70023">
        <ele>2046</ele>
        <time>2022-07-26T06:15:42Z</time>
      </trkpt>
      <trkpt lat="45.67743" lon="6.70022">
        <ele>2046</ele>
        <time>2022-07-26T06:15:43Z</time>
      </trkpt>
      <trkpt lat="45.67743" lon="6.70021">
        <ele>2046</ele>
        <time>2022-07-26T06:15:44Z</time>
      </trkpt>
      <trkpt lat="45.67742" lon="6.70021">
        <ele>2046</ele>
        <time>2022-07-26T06:15:45Z</time>
      </trkpt>
      <trkpt lat="45.67742" lon="6.7002">
        <ele>2046</ele>
        <time>2022-07-26T06:15:46Z</time>
      </trkpt>
      <trkpt lat="45.67741" lon="6.70019">
        <ele>2046</ele>
        <time>2022-07-26T06:15:47Z</time>
      </trkpt>
      <trkpt lat="45.67741" lon="6.70018">
        <ele>2046</ele>
        <time>2022-07-26T06:15:48Z</time>
      </trkpt>
      <trkpt lat="45.6774" lon="6.70017">
        <ele>2046</ele>
        <time>2022-07-26T06:15:49Z</time>
      </trkpt>
      <trkpt lat="45.6774" lon="6.70016">
        <ele>2046</ele>
        <time>2022-07-26T06:15:50Z</time>
      </trkpt>
      <trkpt lat="45.67739" lon="6.70016">
        <ele>2046</ele>
        <time>2022-07-26T06:15:51Z</time>
      </trkpt>
      <trkpt lat="45.67739" lon="6.70015">
        <ele>2046</ele>
        <time>2022-07-26T06:15:52Z</time>
      </trkpt>
      <trkpt lat="45.67738" lon="6.70014">
        <ele>2046</ele>
        <time>2022-07-26T06:15:53Z</time>
      </trkpt>
      <trkpt lat="45.67737" lon="6.70013">
        <ele>2046</ele>
        <time>2022-07-26T06:15:54Z</time>
      </trkpt>
      <trkpt lat="45.67737" lon="6.70012">
        <ele>2046</ele>
        <time>2022-07-26T06:15:55Z</time>
      </trkpt>
      <trkpt lat="45.67736" lon="6.70012">
        <ele>2046</ele>
        <time>2022-07-26T06:15:56Z</time>
      </trkpt>
      <trkpt lat="45.67735" lon="6.70009">
        <ele>2047</ele>
        <time>2022-07-26T06:16:25Z</time>
      </trkpt>
      <trkpt lat="45.67734" lon="6.70008">
        <ele>2047</ele>
        <time>2022-07-26T06:16:26Z</time>
      </trkpt>
      <trkpt lat="45.67734" lon="6.70007">
        <ele>2047</ele>
        <time>2022-07-26T06:16:27Z</time>
      </trkpt>
      <trkpt lat="45.67733" lon="6.70007">
        <ele>2047</ele>
        <time>2022-07-26T06:16:28Z</time>
      </trkpt>
      <trkpt lat="45.67733" lon="6.70006">
        <ele>2047</ele>
        <time>2022-07-26T06:16:29Z</time>
      </trkpt>
      <trkpt lat="45.67732" lon="6.70005">
        <ele>2047</ele>
        <time>2022-07-26T06:16:30Z</time>
      </trkpt>
      <trkpt lat="45.67731" lon="6.70005">
        <ele>2047</ele>
        <time>2022-07-26T06:16:31Z</time>
      </trkpt>
      <trkpt lat="45.67731" lon="6.70004">
        <ele>2047</ele>
        <time>2022-07-26T06:16:32Z</time>
      </trkpt>
      <trkpt lat="45.6773" lon="6.70004">
        <ele>2047</ele>
        <time>2022-07-26T06:16:33Z</time>
      </trkpt>
      <trkpt lat="45.67729" lon="6.70003">
        <ele>2047</ele>
        <time>2022-07-26T06:16:34Z</time>
      </trkpt>
      <trkpt lat="45.67729" lon="6.70003">
        <ele>2047</ele>
        <time>2022-07-26T06:16:35Z</time>
      </trkpt>
      <trkpt lat="45.67728" lon="6.70002">
        <ele>2047</ele>
        <time>2022-07-26T06:16:36Z</time>
      </trkpt>
      <trkpt lat="45.67727" lon="6.70002">
        <ele>2047</ele>
        <time>2022-07-26T06:16:37Z</time>
      </trkpt>
      <trkpt lat="45.67727" lon="6.70001">
        <ele>2047</ele>
        <time>2022-07-26T06:16:38Z</time>
      </trkpt>
      <trkpt lat="45.67726" lon="6.70001">
        <ele>2047</ele>
        <time>2022-07-26T06:16:39Z</time>
      </trkpt>
      <trkpt lat="45.67726" lon="6.7">
        <ele>2048</ele>
        <time>2022-07-26T06:16:40Z</time>
      </trkpt>
      <trkpt lat="45.67725" lon="6.7">
        <ele>2048</ele>
        <time>2022-07-26T06:16:41Z</time>
      </trkpt>
      <trkpt lat="45.67724" lon="6.69999">
        <ele>2048</ele>
        <time>2022-07-26T06:16:42Z</time>
      </trkpt>
      <trkpt lat="45.67723" lon="6.69998">
        <ele>2048</ele>
        <time>2022-07-26T06:16:43Z</time>
      </trkpt>
      <trkpt lat="45.67723" lon="6.69997">
        <ele>2048</ele>
        <time>2022-07-26T06:16:44Z</time>
      </trkpt>
      <trkpt lat="45.67722" lon="6.69997">
        <ele>2048</ele>
        <time>2022-07-26T06:16:45Z</time>
      </trkpt>
      <trkpt lat="45.67721" lon="6.69996">
        <ele>2048</ele>
        <time>2022-07-26T06:16:46Z</time>
      </trkpt>
      <trkpt lat="45.6772" lon="6.69995">
        <ele>2048</ele>
        <time>2022-07-26T06:16:47Z</time>
      </trkpt>
      <trkpt lat="45.67719" lon="6.69994">
        <ele>2048</ele>
        <time>2022-07-26T06:16:48Z</time>
      </trkpt>
      <trkpt lat="45.67719" lon="6.69993">
        <ele>2048</ele>
        <time>2022-07-26T06:16:49Z</time>
      </trkpt>
      <trkpt lat="45.67718" lon="6.69992">
        <ele>2049</ele>
        <time>2022-07-26T06:16:50Z</time>
      </trkpt>
      <trkpt lat="45.67717" lon="6.69991">
        <ele>2049</ele>
        <time>2022-07-26T06:16:51Z</time>
      </trkpt>
      <trkpt lat="45.67716" lon="6.6999">
        <ele>2049</ele>
        <time>2022-07-26T06:16:52Z</time>
      </trkpt>
      <trkpt lat="45.67716" lon="6.69989">
        <ele>2049</ele>
        <time>2022-07-26T06:16:53Z</time>
      </trkpt>
      <trkpt lat="45.67715" lon="6.69988">
        <ele>2049</ele>
        <time>2022-07-26T06:16:54Z</time>
      </trkpt>
      <trkpt lat="45.67714" lon="6.69987">
        <ele>2049</ele>
        <time>2022-07-26T06:16:55Z</time>
      </trkpt>
      <trkpt lat="45.67713" lon="6.69986">
        <ele>2049</ele>
        <time>2022-07-26T06:16:56Z</time>
      </trkpt>
      <trkpt lat="45.67713" lon="6.69985">
        <ele>2049</ele>
        <time>2022-07-26T06:16:57Z</time>
      </trkpt>
      <trkpt lat="45.67712" lon="6.69984">
        <ele>2049</ele>
        <time>2022-07-26T06:16:58Z</time>
      </trkpt>
      <trkpt lat="45.67711" lon="6.69984">
        <ele>2049</ele>
        <time>2022-07-26T06:16:59Z</time>
      </trkpt>
      <trkpt lat="45.6771" lon="6.69983">
        <ele>2049</ele>
        <time>2022-07-26T06:17:00Z</time>
      </trkpt>
      <trkpt lat="45.6771" lon="6.69983">
        <ele>2049</ele>
        <time>2022-07-26T06:17:01Z</time>
      </trkpt>
      <trkpt lat="45.67709" lon="6.69983">
        <ele>2049</ele>
        <time>2022-07-26T06:17:02Z</time>
      </trkpt>
      <trkpt lat="45.67709" lon="6.69983">
        <ele>2049</ele>
        <time>2022-07-26T06:17:03Z</time>
      </trkpt>
      <trkpt lat="45.67707" lon="6.69983">
        <ele>2049</ele>
        <time>2022-07-26T06:17:11Z</time>
      </trkpt>
      <trkpt lat="45.67706" lon="6.69984">
        <ele>2049</ele>
        <time>2022-07-26T06:17:12Z</time>
      </trkpt>
      <trkpt lat="45.67705" lon="6.69984">
        <ele>2049</ele>
        <time>2022-07-26T06:17:13Z</time>
      </trkpt>
      <trkpt lat="45.67704" lon="6.69985">
        <ele>2049</ele>
        <time>2022-07-26T06:17:14Z</time>
      </trkpt>
      <trkpt lat="45.67704" lon="6.69985">
        <ele>2049</ele>
        <time>2022-07-26T06:17:15Z</time>
      </trkpt>
      <trkpt lat="45.67703" lon="6.69986">
        <ele>2049</ele>
        <time>2022-07-26T06:17:16Z</time>
      </trkpt>
      <trkpt lat="45.67703" lon="6.69987">
        <ele>2049</ele>
        <time>2022-07-26T06:17:17Z</time>
      </trkpt>
      <trkpt lat="45.67702" lon="6.69987">
        <ele>2049</ele>
        <time>2022-07-26T06:17:18Z</time>
      </trkpt>
      <trkpt lat="45.67702" lon="6.69987">
        <ele>2049</ele>
        <time>2022-07-26T06:17:19Z</time>
      </trkpt>
      <trkpt lat="45.67701" lon="6.69987">
        <ele>2049</ele>
        <time>2022-07-26T06:17:20Z</time>
      </trkpt>
      <trkpt lat="45.67701" lon="6.69987">
        <ele>2049</ele>
        <time>2022-07-26T06:17:21Z</time>
      </trkpt>
      <trkpt lat="45.677" lon="6.69986">
        <ele>2049</ele>
        <time>2022-07-26T06:17:22Z</time>
      </trkpt>
      <trkpt lat="45.677" lon="6.69986">
        <ele>2049</ele>
        <time>2022-07-26T06:17:23Z</time>
      </trkpt>
      <trkpt lat="45.67699" lon="6.69985">
        <ele>2049</ele>
        <time>2022-07-26T06:17:24Z</time>
      </trkpt>
      <trkpt lat="45.67699" lon="6.69985">
        <ele>2049</ele>
        <time>2022-07-26T06:17:25Z</time>
      </trkpt>
      <trkpt lat="45.67698" lon="6.69985">
        <ele>2049</ele>
        <time>2022-07-26T06:17:26Z</time>
      </trkpt>
      <trkpt lat="45.67698" lon="6.69984">
        <ele>2049</ele>
        <time>2022-07-26T06:17:27Z</time>
      </trkpt>
      <trkpt lat="45.67697" lon="6.69983">
        <ele>2049</ele>
        <time>2022-07-26T06:17:28Z</time>
      </trkpt>
      <trkpt lat="45.67697" lon="6.69983">
        <ele>2049</ele>
        <time>2022-07-26T06:17:29Z</time>
      </trkpt>
      <trkpt lat="45.67696" lon="6.69982">
        <ele>2050</ele>
        <time>2022-07-26T06:17:30Z</time>
      </trkpt>
      <trkpt lat="45.67696" lon="6.69982">
        <ele>2050</ele>
        <time>2022-07-26T06:17:31Z</time>
      </trkpt>
      <trkpt lat="45.67695" lon="6.69982">
        <ele>2050</ele>
        <time>2022-07-26T06:17:32Z</time>
      </trkpt>
      <trkpt lat="45.67694" lon="6.69981">
        <ele>2050</ele>
        <time>2022-07-26T06:17:33Z</time>
      </trkpt>
      <trkpt lat="45.67693" lon="6.69981">
        <ele>2051</ele>
        <time>2022-07-26T06:17:53Z</time>
      </trkpt>
      <trkpt lat="45.67692" lon="6.69981">
        <ele>2051</ele>
        <time>2022-07-26T06:17:54Z</time>
      </trkpt>
      <trkpt lat="45.67691" lon="6.69981">
        <ele>2051</ele>
        <time>2022-07-26T06:17:55Z</time>
      </trkpt>
      <trkpt lat="45.67691" lon="6.6998">
        <ele>2051</ele>
        <time>2022-07-26T06:17:56Z</time>
      </trkpt>
      <trkpt lat="45.6769" lon="6.6998">
        <ele>2051</ele>
        <time>2022-07-26T06:17:57Z</time>
      </trkpt>
      <trkpt lat="45.6769" lon="6.69979">
        <ele>2051</ele>
        <time>2022-07-26T06:17:58Z</time>
      </trkpt>
      <trkpt lat="45.67689" lon="6.69978">
        <ele>2051</ele>
        <time>2022-07-26T06:17:59Z</time>
      </trkpt>
      <trkpt lat="45.67689" lon="6.69978">
        <ele>2051</ele>
        <time>2022-07-26T06:18:00Z</time>
      </trkpt>
      <trkpt lat="45.67689" lon="6.69977">
        <ele>2051</ele>
        <time>2022-07-26T06:18:01Z</time>
      </trkpt>
      <trkpt lat="45.67689" lon="6.69976">
        <ele>2051</ele>
        <time>2022-07-26T06:18:02Z</time>
      </trkpt>
      <trkpt lat="45.67689" lon="6.69975">
        <ele>2051</ele>
        <time>2022-07-26T06:18:03Z</time>
      </trkpt>
      <trkpt lat="45.67689" lon="6.69974">
        <ele>2051</ele>
        <time>2022-07-26T06:18:04Z</time>
      </trkpt>
      <trkpt lat="45.67689" lon="6.69974">
        <ele>2051</ele>
        <time>2022-07-26T06:18:05Z</time>
      </trkpt>
      <trkpt lat="45.67689" lon="6.69972">
        <ele>2051</ele>
        <time>2022-07-26T06:18:06Z</time>
      </trkpt>
      <trkpt lat="45.67689" lon="6.69971">
        <ele>2051</ele>
        <time>2022-07-26T06:18:07Z</time>
      </trkpt>
      <trkpt lat="45.67688" lon="6.6997">
        <ele>2051</ele>
        <time>2022-07-26T06:18:08Z</time>
      </trkpt>
      <trkpt lat="45.67688" lon="6.69969">
        <ele>2051</ele>
        <time>2022-07-26T06:18:09Z</time>
      </trkpt>
      <trkpt lat="45.67688" lon="6.69968">
        <ele>2051</ele>
        <time>2022-07-26T06:18:10Z</time>
      </trkpt>
      <trkpt lat="45.67688" lon="6.69968">
        <ele>2051</ele>
        <time>2022-07-26T06:18:11Z</time>
      </trkpt>
      <trkpt lat="45.67687" lon="6.69967">
        <ele>2051</ele>
        <time>2022-07-26T06:18:18Z</time>
      </trkpt>
      <trkpt lat="45.67686" lon="6.69966">
        <ele>2051</ele>
        <time>2022-07-26T06:18:19Z</time>
      </trkpt>
      <trkpt lat="45.67686" lon="6.69966">
        <ele>2051</ele>
        <time>2022-07-26T06:18:20Z</time>
      </trkpt>
      <trkpt lat="45.67685" lon="6.69966">
        <ele>2051</ele>
        <time>2022-07-26T06:18:21Z</time>
      </trkpt>
      <trkpt lat="45.67685" lon="6.69965">
        <ele>2051</ele>
        <time>2022-07-26T06:18:22Z</time>
      </trkpt>
      <trkpt lat="45.67684" lon="6.69965">
        <ele>2051</ele>
        <time>2022-07-26T06:18:23Z</time>
      </trkpt>
      <trkpt lat="45.67684" lon="6.69964">
        <ele>2051</ele>
        <time>2022-07-26T06:18:24Z</time>
      </trkpt>
      <trkpt lat="45.67683" lon="6.69964">
        <ele>2051</ele>
        <time>2022-07-26T06:18:25Z</time>
      </trkpt>
      <trkpt lat="45.67683" lon="6.69963">
        <ele>2051</ele>
        <time>2022-07-26T06:18:26Z</time>
      </trkpt>
      <trkpt lat="45.67682" lon="6.69963">
        <ele>2051</ele>
        <time>2022-07-26T06:18:27Z</time>
      </trkpt>
      <trkpt lat="45.67682" lon="6.69963">
        <ele>2051</ele>
        <time>2022-07-26T06:18:28Z</time>
      </trkpt>
      <trkpt lat="45.67681" lon="6.69962">
        <ele>2051</ele>
        <time>2022-07-26T06:18:29Z</time>
      </trkpt>
      <trkpt lat="45.67681" lon="6.69962">
        <ele>2051</ele>
        <time>2022-07-26T06:18:30Z</time>
      </trkpt>
      <trkpt lat="45.6768" lon="6.69961">
        <ele>2051</ele>
        <time>2022-07-26T06:18:31Z</time>
      </trkpt>
      <trkpt lat="45.6768" lon="6.69961">
        <ele>2051</ele>
        <time>2022-07-26T06:18:32Z</time>
      </trkpt>
      <trkpt lat="45.67679" lon="6.6996">
        <ele>2051</ele>
        <time>2022-07-26T06:18:33Z</time>
      </trkpt>
      <trkpt lat="45.67678" lon="6.6996">
        <ele>2051</ele>
        <time>2022-07-26T06:18:34Z</time>
      </trkpt>
      <trkpt lat="45.67678" lon="6.69959">
        <ele>2051</ele>
        <time>2022-07-26T06:18:35Z</time>
      </trkpt>
      <trkpt lat="45.67677" lon="6.69959">
        <ele>2051</ele>
        <time>2022-07-26T06:18:36Z</time>
      </trkpt>
      <trkpt lat="45.67677" lon="6.69958">
        <ele>2051</ele>
        <time>2022-07-26T06:18:37Z</time>
      </trkpt>
      <trkpt lat="45.67676" lon="6.69958">
        <ele>2051</ele>
        <time>2022-07-26T06:18:38Z</time>
      </trkpt>
      <trkpt lat="45.67676" lon="6.69957">
        <ele>2051</ele>
        <time>2022-07-26T06:18:39Z</time>
      </trkpt>
      <trkpt lat="45.67675" lon="6.69957">
        <ele>2051</ele>
        <time>2022-07-26T06:18:40Z</time>
      </trkpt>
      <trkpt lat="45.67675" lon="6.69957">
        <ele>2051</ele>
        <time>2022-07-26T06:18:41Z</time>
      </trkpt>
      <trkpt lat="45.67675" lon="6.69956">
        <ele>2051</ele>
        <time>2022-07-26T06:18:42Z</time>
      </trkpt>
      <trkpt lat="45.67675" lon="6.69956">
        <ele>2051</ele>
        <time>2022-07-26T06:18:43Z</time>
      </trkpt>
      <trkpt lat="45.67675" lon="6.69956">
        <ele>2051</ele>
        <time>2022-07-26T06:18:44Z</time>
      </trkpt>
      <trkpt lat="45.67675" lon="6.69956">
        <ele>2051</ele>
        <time>2022-07-26T06:18:45Z</time>
      </trkpt>
      <trkpt lat="45.67674" lon="6.69955">
        <ele>2051</ele>
        <time>2022-07-26T06:18:46Z</time>
      </trkpt>
      <trkpt lat="45.67674" lon="6.69954">
        <ele>2051</ele>
        <time>2022-07-26T06:18:47Z</time>
      </trkpt>
      <trkpt lat="45.67673" lon="6.69954">
        <ele>2051</ele>
        <time>2022-07-26T06:18:48Z</time>
      </trkpt>
      <trkpt lat="45.67673" lon="6.69953">
        <ele>2051</ele>
        <time>2022-07-26T06:18:49Z</time>
      </trkpt>
      <trkpt lat="45.67672" lon="6.69953">
        <ele>2051</ele>
        <time>2022-07-26T06:18:50Z</time>
      </trkpt>
      <trkpt lat="45.67672" lon="6.69952">
        <ele>2051</ele>
        <time>2022-07-26T06:18:51Z</time>
      </trkpt>
      <trkpt lat="45.67671" lon="6.69952">
        <ele>2051</ele>
        <time>2022-07-26T06:18:52Z</time>
      </trkpt>
      <trkpt lat="45.6767" lon="6.69951">
        <ele>2051</ele>
        <time>2022-07-26T06:18:53Z</time>
      </trkpt>
      <trkpt lat="45.67669" lon="6.6995">
        <ele>2051</ele>
        <time>2022-07-26T06:18:54Z</time>
      </trkpt>
      <trkpt lat="45.67669" lon="6.6995">
        <ele>2052</ele>
        <time>2022-07-26T06:18:55Z</time>
      </trkpt>
      <trkpt lat="45.67668" lon="6.69949">
        <ele>2052</ele>
        <time>2022-07-26T06:18:56Z</time>
      </trkpt>
      <trkpt lat="45.67667" lon="6.69948">
        <ele>2052</ele>
        <time>2022-07-26T06:18:57Z</time>
      </trkpt>
      <trkpt lat="45.67667" lon="6.69948">
        <ele>2052</ele>
        <time>2022-07-26T06:18:58Z</time>
      </trkpt>
      <trkpt lat="45.67667" lon="6.69947">
        <ele>2052</ele>
        <time>2022-07-26T06:18:59Z</time>
      </trkpt>
      <trkpt lat="45.67666" lon="6.69947">
        <ele>2052</ele>
        <time>2022-07-26T06:19:00Z</time>
      </trkpt>
      <trkpt lat="45.67666" lon="6.69946">
        <ele>2052</ele>
        <time>2022-07-26T06:19:01Z</time>
      </trkpt>
      <trkpt lat="45.67665" lon="6.69945">
        <ele>2052</ele>
        <time>2022-07-26T06:19:02Z</time>
      </trkpt>
      <trkpt lat="45.67664" lon="6.69945">
        <ele>2052</ele>
        <time>2022-07-26T06:19:03Z</time>
      </trkpt>
      <trkpt lat="45.67664" lon="6.69944">
        <ele>2052</ele>
        <time>2022-07-26T06:19:04Z</time>
      </trkpt>
      <trkpt lat="45.67663" lon="6.69944">
        <ele>2052</ele>
        <time>2022-07-26T06:19:05Z</time>
      </trkpt>
      <trkpt lat="45.67662" lon="6.69943">
        <ele>2052</ele>
        <time>2022-07-26T06:19:06Z</time>
      </trkpt>
      <trkpt lat="45.67661" lon="6.69943">
        <ele>2052</ele>
        <time>2022-07-26T06:19:07Z</time>
      </trkpt>
      <trkpt lat="45.6766" lon="6.69942">
        <ele>2052</ele>
        <time>2022-07-26T06:19:08Z</time>
      </trkpt>
      <trkpt lat="45.6766" lon="6.69941">
        <ele>2052</ele>
        <time>2022-07-26T06:19:09Z</time>
      </trkpt>
      <trkpt lat="45.67659" lon="6.6994">
        <ele>2053</ele>
        <time>2022-07-26T06:19:10Z</time>
      </trkpt>
      <trkpt lat="45.67658" lon="6.69939">
        <ele>2053</ele>
        <time>2022-07-26T06:19:11Z</time>
      </trkpt>
      <trkpt lat="45.67657" lon="6.69938">
        <ele>2053</ele>
        <time>2022-07-26T06:19:12Z</time>
      </trkpt>
      <trkpt lat="45.67657" lon="6.69937">
        <ele>2053</ele>
        <time>2022-07-26T06:19:13Z</time>
      </trkpt>
      <trkpt lat="45.67656" lon="6.69936">
        <ele>2053</ele>
        <time>2022-07-26T06:19:14Z</time>
      </trkpt>
      <trkpt lat="45.67656" lon="6.69934">
        <ele>2053</ele>
        <time>2022-07-26T06:19:15Z</time>
      </trkpt>
      <trkpt lat="45.67655" lon="6.69933">
        <ele>2053</ele>
        <time>2022-07-26T06:19:16Z</time>
      </trkpt>
      <trkpt lat="45.67654" lon="6.69933">
        <ele>2053</ele>
        <time>2022-07-26T06:19:17Z</time>
      </trkpt>
      <trkpt lat="45.67653" lon="6.69932">
        <ele>2053</ele>
        <time>2022-07-26T06:19:18Z</time>
      </trkpt>
      <trkpt lat="45.67652" lon="6.69932">
        <ele>2053</ele>
        <time>2022-07-26T06:19:19Z</time>
      </trkpt>
      <trkpt lat="45.67652" lon="6.69931">
        <ele>2053</ele>
        <time>2022-07-26T06:19:20Z</time>
      </trkpt>
      <trkpt lat="45.67651" lon="6.69931">
        <ele>2053</ele>
        <time>2022-07-26T06:19:21Z</time>
      </trkpt>
      <trkpt lat="45.6765" lon="6.69931">
        <ele>2053</ele>
        <time>2022-07-26T06:19:22Z</time>
      </trkpt>
      <trkpt lat="45.6765" lon="6.6993">
        <ele>2053</ele>
        <time>2022-07-26T06:19:23Z</time>
      </trkpt>
      <trkpt lat="45.67649" lon="6.6993">
        <ele>2053</ele>
        <time>2022-07-26T06:19:24Z</time>
      </trkpt>
      <trkpt lat="45.67648" lon="6.6993">
        <ele>2053</ele>
        <time>2022-07-26T06:19:25Z</time>
      </trkpt>
      <trkpt lat="45.67648" lon="6.69929">
        <ele>2053</ele>
        <time>2022-07-26T06:19:26Z</time>
      </trkpt>
      <trkpt lat="45.67647" lon="6.69929">
        <ele>2053</ele>
        <time>2022-07-26T06:19:27Z</time>
      </trkpt>
      <trkpt lat="45.67646" lon="6.69928">
        <ele>2053</ele>
        <time>2022-07-26T06:19:28Z</time>
      </trkpt>
      <trkpt lat="45.67646" lon="6.69928">
        <ele>2053</ele>
        <time>2022-07-26T06:19:29Z</time>
      </trkpt>
      <trkpt lat="45.67645" lon="6.69927">
        <ele>2053</ele>
        <time>2022-07-26T06:19:30Z</time>
      </trkpt>
      <trkpt lat="45.67644" lon="6.69927">
        <ele>2053</ele>
        <time>2022-07-26T06:19:31Z</time>
      </trkpt>
      <trkpt lat="45.67644" lon="6.69926">
        <ele>2053</ele>
        <time>2022-07-26T06:19:32Z</time>
      </trkpt>
      <trkpt lat="45.67643" lon="6.69925">
        <ele>2053</ele>
        <time>2022-07-26T06:19:33Z</time>
      </trkpt>
      <trkpt lat="45.67643" lon="6.69925">
        <ele>2053</ele>
        <time>2022-07-26T06:19:34Z</time>
      </trkpt>
      <trkpt lat="45.67642" lon="6.69924">
        <ele>2053</ele>
        <time>2022-07-26T06:19:35Z</time>
      </trkpt>
      <trkpt lat="45.67642" lon="6.69923">
        <ele>2053</ele>
        <time>2022-07-26T06:19:36Z</time>
      </trkpt>
      <trkpt lat="45.67641" lon="6.69922">
        <ele>2053</ele>
        <time>2022-07-26T06:19:37Z</time>
      </trkpt>
      <trkpt lat="45.67641" lon="6.69922">
        <ele>2053</ele>
        <time>2022-07-26T06:19:38Z</time>
      </trkpt>
      <trkpt lat="45.6764" lon="6.69921">
        <ele>2053</ele>
        <time>2022-07-26T06:19:39Z</time>
      </trkpt>
      <trkpt lat="45.67639" lon="6.6992">
        <ele>2053</ele>
        <time>2022-07-26T06:19:40Z</time>
      </trkpt>
      <trkpt lat="45.67639" lon="6.6992">
        <ele>2053</ele>
        <time>2022-07-26T06:19:41Z</time>
      </trkpt>
      <trkpt lat="45.67638" lon="6.69919">
        <ele>2053</ele>
        <time>2022-07-26T06:19:42Z</time>
      </trkpt>
      <trkpt lat="45.67637" lon="6.69918">
        <ele>2053</ele>
        <time>2022-07-26T06:19:43Z</time>
      </trkpt>
      <trkpt lat="45.67637" lon="6.69917">
        <ele>2053</ele>
        <time>2022-07-26T06:19:44Z</time>
      </trkpt>
      <trkpt lat="45.67636" lon="6.69916">
        <ele>2053</ele>
        <time>2022-07-26T06:19:45Z</time>
      </trkpt>
      <trkpt lat="45.67635" lon="6.69915">
        <ele>2053</ele>
        <time>2022-07-26T06:19:46Z</time>
      </trkpt>
      <trkpt lat="45.67635" lon="6.69914">
        <ele>2053</ele>
        <time>2022-07-26T06:19:47Z</time>
      </trkpt>
      <trkpt lat="45.67634" lon="6.69912">
        <ele>2053</ele>
        <time>2022-07-26T06:19:48Z</time>
      </trkpt>
      <trkpt lat="45.67634" lon="6.69911">
        <ele>2053</ele>
        <time>2022-07-26T06:19:49Z</time>
      </trkpt>
      <trkpt lat="45.67633" lon="6.6991">
        <ele>2054</ele>
        <time>2022-07-26T06:19:50Z</time>
      </trkpt>
      <trkpt lat="45.67632" lon="6.69909">
        <ele>2054</ele>
        <time>2022-07-26T06:19:51Z</time>
      </trkpt>
      <trkpt lat="45.67632" lon="6.69908">
        <ele>2054</ele>
        <time>2022-07-26T06:19:52Z</time>
      </trkpt>
      <trkpt lat="45.67631" lon="6.69907">
        <ele>2054</ele>
        <time>2022-07-26T06:19:53Z</time>
      </trkpt>
      <trkpt lat="45.6763" lon="6.69906">
        <ele>2054</ele>
        <time>2022-07-26T06:19:54Z</time>
      </trkpt>
      <trkpt lat="45.6763" lon="6.69905">
        <ele>2054</ele>
        <time>2022-07-26T06:19:55Z</time>
      </trkpt>
      <trkpt lat="45.67629" lon="6.69905">
        <ele>2054</ele>
        <time>2022-07-26T06:19:56Z</time>
      </trkpt>
      <trkpt lat="45.67628" lon="6.69905">
        <ele>2054</ele>
        <time>2022-07-26T06:19:57Z</time>
      </trkpt>
      <trkpt lat="45.67628" lon="6.69904">
        <ele>2054</ele>
        <time>2022-07-26T06:19:58Z</time>
      </trkpt>
      <trkpt lat="45.67627" lon="6.69904">
        <ele>2054</ele>
        <time>2022-07-26T06:19:59Z</time>
      </trkpt>
      <trkpt lat="45.67626" lon="6.69903">
        <ele>2054</ele>
        <time>2022-07-26T06:20:00Z</time>
      </trkpt>
      <trkpt lat="45.67625" lon="6.69902">
        <ele>2054</ele>
        <time>2022-07-26T06:20:01Z</time>
      </trkpt>
      <trkpt lat="45.67625" lon="6.69902">
        <ele>2054</ele>
        <time>2022-07-26T06:20:02Z</time>
      </trkpt>
      <trkpt lat="45.67624" lon="6.69901">
        <ele>2054</ele>
        <time>2022-07-26T06:20:03Z</time>
      </trkpt>
      <trkpt lat="45.67623" lon="6.69901">
        <ele>2054</ele>
        <time>2022-07-26T06:20:04Z</time>
      </trkpt>
      <trkpt lat="45.67623" lon="6.699">
        <ele>2054</ele>
        <time>2022-07-26T06:20:05Z</time>
      </trkpt>
      <trkpt lat="45.67622" lon="6.699">
        <ele>2054</ele>
        <time>2022-07-26T06:20:06Z</time>
      </trkpt>
      <trkpt lat="45.67621" lon="6.69899">
        <ele>2054</ele>
        <time>2022-07-26T06:20:07Z</time>
      </trkpt>
      <trkpt lat="45.67621" lon="6.69899">
        <ele>2054</ele>
        <time>2022-07-26T06:20:08Z</time>
      </trkpt>
      <trkpt lat="45.6762" lon="6.69898">
        <ele>2054</ele>
        <time>2022-07-26T06:20:09Z</time>
      </trkpt>
      <trkpt lat="45.67618" lon="6.69897">
        <ele>2056</ele>
        <time>2022-07-26T06:23:03Z</time>
      </trkpt>
      <trkpt lat="45.67617" lon="6.69896">
        <ele>2056</ele>
        <time>2022-07-26T06:23:04Z</time>
      </trkpt>
      <trkpt lat="45.67616" lon="6.69895">
        <ele>2056</ele>
        <time>2022-07-26T06:23:05Z</time>
      </trkpt>
      <trkpt lat="45.67616" lon="6.69895">
        <ele>2056</ele>
        <time>2022-07-26T06:23:06Z</time>
      </trkpt>
      <trkpt lat="45.67615" lon="6.69894">
        <ele>2056</ele>
        <time>2022-07-26T06:23:07Z</time>
      </trkpt>
      <trkpt lat="45.67614" lon="6.69894">
        <ele>2056</ele>
        <time>2022-07-26T06:23:08Z</time>
      </trkpt>
      <trkpt lat="45.67614" lon="6.69893">
        <ele>2056</ele>
        <time>2022-07-26T06:23:09Z</time>
      </trkpt>
      <trkpt lat="45.67613" lon="6.69893">
        <ele>2056</ele>
        <time>2022-07-26T06:23:10Z</time>
      </trkpt>
      <trkpt lat="45.67613" lon="6.69892">
        <ele>2056</ele>
        <time>2022-07-26T06:23:11Z</time>
      </trkpt>
      <trkpt lat="45.67612" lon="6.69891">
        <ele>2056</ele>
        <time>2022-07-26T06:23:12Z</time>
      </trkpt>
      <trkpt lat="45.67612" lon="6.69891">
        <ele>2056</ele>
        <time>2022-07-26T06:23:13Z</time>
      </trkpt>
      <trkpt lat="45.67611" lon="6.6989">
        <ele>2056</ele>
        <time>2022-07-26T06:23:14Z</time>
      </trkpt>
      <trkpt lat="45.67611" lon="6.69889">
        <ele>2056</ele>
        <time>2022-07-26T06:23:15Z</time>
      </trkpt>
      <trkpt lat="45.6761" lon="6.69888">
        <ele>2056</ele>
        <time>2022-07-26T06:23:16Z</time>
      </trkpt>
      <trkpt lat="45.6761" lon="6.69888">
        <ele>2056</ele>
        <time>2022-07-26T06:23:17Z</time>
      </trkpt>
      <trkpt lat="45.67609" lon="6.69887">
        <ele>2056</ele>
        <time>2022-07-26T06:23:18Z</time>
      </trkpt>
      <trkpt lat="45.67609" lon="6.69886">
        <ele>2056</ele>
        <time>2022-07-26T06:23:19Z</time>
      </trkpt>
      <trkpt lat="45.67608" lon="6.69885">
        <ele>2057</ele>
        <time>2022-07-26T06:23:20Z</time>
      </trkpt>
      <trkpt lat="45.67608" lon="6.69885">
        <ele>2057</ele>
        <time>2022-07-26T06:23:21Z</time>
      </trkpt>
      <trkpt lat="45.67607" lon="6.69884">
        <ele>2057</ele>
        <time>2022-07-26T06:23:22Z</time>
      </trkpt>
      <trkpt lat="45.67607" lon="6.69883">
        <ele>2057</ele>
        <time>2022-07-26T06:23:23Z</time>
      </trkpt>
      <trkpt lat="45.67606" lon="6.69882">
        <ele>2057</ele>
        <time>2022-07-26T06:23:24Z</time>
      </trkpt>
      <trkpt lat="45.67606" lon="6.69881">
        <ele>2057</ele>
        <time>2022-07-26T06:23:25Z</time>
      </trkpt>
      <trkpt lat="45.67606" lon="6.6988">
        <ele>2057</ele>
        <time>2022-07-26T06:23:26Z</time>
      </trkpt>
      <trkpt lat="45.67605" lon="6.69879">
        <ele>2057</ele>
        <time>2022-07-26T06:23:27Z</time>
      </trkpt>
      <trkpt lat="45.67605" lon="6.69878">
        <ele>2057</ele>
        <time>2022-07-26T06:23:28Z</time>
      </trkpt>
      <trkpt lat="45.67604" lon="6.69877">
        <ele>2057</ele>
        <time>2022-07-26T06:23:29Z</time>
      </trkpt>
      <trkpt lat="45.67604" lon="6.69877">
        <ele>2057</ele>
        <time>2022-07-26T06:23:30Z</time>
      </trkpt>
      <trkpt lat="45.67604" lon="6.69877">
        <ele>2057</ele>
        <time>2022-07-26T06:23:31Z</time>
      </trkpt>
      <trkpt lat="45.67604" lon="6.69876">
        <ele>2057</ele>
        <time>2022-07-26T06:23:32Z</time>
      </trkpt>
      <trkpt lat="45.67604" lon="6.69876">
        <ele>2057</ele>
        <time>2022-07-26T06:23:33Z</time>
      </trkpt>
      <trkpt lat="45.67604" lon="6.69876">
        <ele>2057</ele>
        <time>2022-07-26T06:23:34Z</time>
      </trkpt>
      <trkpt lat="45.67603" lon="6.69875">
        <ele>2058</ele>
        <time>2022-07-26T06:23:35Z</time>
      </trkpt>
      <trkpt lat="45.67603" lon="6.69874">
        <ele>2058</ele>
        <time>2022-07-26T06:23:36Z</time>
      </trkpt>
      <trkpt lat="45.67603" lon="6.69874">
        <ele>2058</ele>
        <time>2022-07-26T06:23:37Z</time>
      </trkpt>
      <trkpt lat="45.67602" lon="6.69873">
        <ele>2058</ele>
        <time>2022-07-26T06:23:38Z</time>
      </trkpt>
      <trkpt lat="45.67602" lon="6.69873">
        <ele>2058</ele>
        <time>2022-07-26T06:23:39Z</time>
      </trkpt>
      <trkpt lat="45.67601" lon="6.69872">
        <ele>2058</ele>
        <time>2022-07-26T06:23:40Z</time>
      </trkpt>
      <trkpt lat="45.67601" lon="6.69872">
        <ele>2058</ele>
        <time>2022-07-26T06:23:41Z</time>
      </trkpt>
      <trkpt lat="45.676" lon="6.69871">
        <ele>2058</ele>
        <time>2022-07-26T06:23:42Z</time>
      </trkpt>
      <trkpt lat="45.676" lon="6.6987">
        <ele>2058</ele>
        <time>2022-07-26T06:23:43Z</time>
      </trkpt>
      <trkpt lat="45.67599" lon="6.6987">
        <ele>2058</ele>
        <time>2022-07-26T06:23:44Z</time>
      </trkpt>
      <trkpt lat="45.67599" lon="6.69869">
        <ele>2058</ele>
        <time>2022-07-26T06:23:45Z</time>
      </trkpt>
      <trkpt lat="45.67598" lon="6.69868">
        <ele>2058</ele>
        <time>2022-07-26T06:23:46Z</time>
      </trkpt>
      <trkpt lat="45.67598" lon="6.69867">
        <ele>2058</ele>
        <time>2022-07-26T06:23:47Z</time>
      </trkpt>
      <trkpt lat="45.67597" lon="6.69866">
        <ele>2058</ele>
        <time>2022-07-26T06:23:48Z</time>
      </trkpt>
      <trkpt lat="45.67597" lon="6.69865">
        <ele>2058</ele>
        <time>2022-07-26T06:23:49Z</time>
      </trkpt>
      <trkpt lat="45.67596" lon="6.69864">
        <ele>2059</ele>
        <time>2022-07-26T06:23:50Z</time>
      </trkpt>
      <trkpt lat="45.67596" lon="6.69862">
        <ele>2059</ele>
        <time>2022-07-26T06:23:51Z</time>
      </trkpt>
      <trkpt lat="45.67595" lon="6.69861">
        <ele>2059</ele>
        <time>2022-07-26T06:23:52Z</time>
      </trkpt>
      <trkpt lat="45.67595" lon="6.6986">
        <ele>2059</ele>
        <time>2022-07-26T06:23:53Z</time>
      </trkpt>
      <trkpt lat="45.67594" lon="6.69859">
        <ele>2059</ele>
        <time>2022-07-26T06:23:54Z</time>
      </trkpt>
      <trkpt lat="45.67594" lon="6.69857">
        <ele>2059</ele>
        <time>2022-07-26T06:23:55Z</time>
      </trkpt>
      <trkpt lat="45.67594" lon="6.69856">
        <ele>2059</ele>
        <time>2022-07-26T06:23:56Z</time>
      </trkpt>
      <trkpt lat="45.67593" lon="6.69855">
        <ele>2059</ele>
        <time>2022-07-26T06:23:57Z</time>
      </trkpt>
      <trkpt lat="45.67593" lon="6.69854">
        <ele>2059</ele>
        <time>2022-07-26T06:23:58Z</time>
      </trkpt>
      <trkpt lat="45.67593" lon="6.69853">
        <ele>2059</ele>
        <time>2022-07-26T06:23:59Z</time>
      </trkpt>
      <trkpt lat="45.67593" lon="6.69852">
        <ele>2059</ele>
        <time>2022-07-26T06:24:00Z</time>
      </trkpt>
      <trkpt lat="45.67592" lon="6.69851">
        <ele>2059</ele>
        <time>2022-07-26T06:24:01Z</time>
      </trkpt>
      <trkpt lat="45.67592" lon="6.6985">
        <ele>2059</ele>
        <time>2022-07-26T06:24:02Z</time>
      </trkpt>
      <trkpt lat="45.67592" lon="6.69849">
        <ele>2059</ele>
        <time>2022-07-26T06:24:03Z</time>
      </trkpt>
      <trkpt lat="45.67591" lon="6.69849">
        <ele>2059</ele>
        <time>2022-07-26T06:24:04Z</time>
      </trkpt>
      <trkpt lat="45.67591" lon="6.69848">
        <ele>2059</ele>
        <time>2022-07-26T06:24:05Z</time>
      </trkpt>
      <trkpt lat="45.67591" lon="6.69847">
        <ele>2059</ele>
        <time>2022-07-26T06:24:06Z</time>
      </trkpt>
      <trkpt lat="45.6759" lon="6.69846">
        <ele>2059</ele>
        <time>2022-07-26T06:24:07Z</time>
      </trkpt>
      <trkpt lat="45.6759" lon="6.69845">
        <ele>2059</ele>
        <time>2022-07-26T06:24:08Z</time>
      </trkpt>
      <trkpt lat="45.6759" lon="6.69843">
        <ele>2059</ele>
        <time>2022-07-26T06:24:09Z</time>
      </trkpt>
      <trkpt lat="45.67589" lon="6.69842">
        <ele>2060</ele>
        <time>2022-07-26T06:24:10Z</time>
      </trkpt>
      <trkpt lat="45.67589" lon="6.69841">
        <ele>2060</ele>
        <time>2022-07-26T06:24:11Z</time>
      </trkpt>
      <trkpt lat="45.67589" lon="6.69839">
        <ele>2060</ele>
        <time>2022-07-26T06:24:12Z</time>
      </trkpt>
      <trkpt lat="45.67588" lon="6.69838">
        <ele>2060</ele>
        <time>2022-07-26T06:24:13Z</time>
      </trkpt>
      <trkpt lat="45.67588" lon="6.69837">
        <ele>2060</ele>
        <time>2022-07-26T06:24:14Z</time>
      </trkpt>
      <trkpt lat="45.67588" lon="6.69835">
        <ele>2060</ele>
        <time>2022-07-26T06:24:15Z</time>
      </trkpt>
      <trkpt lat="45.67587" lon="6.69834">
        <ele>2060</ele>
        <time>2022-07-26T06:24:16Z</time>
      </trkpt>
      <trkpt lat="45.67587" lon="6.69833">
        <ele>2060</ele>
        <time>2022-07-26T06:24:17Z</time>
      </trkpt>
      <trkpt lat="45.67587" lon="6.69831">
        <ele>2060</ele>
        <time>2022-07-26T06:24:18Z</time>
      </trkpt>
      <trkpt lat="45.67586" lon="6.6983">
        <ele>2060</ele>
        <time>2022-07-26T06:24:19Z</time>
      </trkpt>
      <trkpt lat="45.67586" lon="6.69829">
        <ele>2060</ele>
        <time>2022-07-26T06:24:20Z</time>
      </trkpt>
      <trkpt lat="45.67585" lon="6.69828">
        <ele>2060</ele>
        <time>2022-07-26T06:24:21Z</time>
      </trkpt>
      <trkpt lat="45.67585" lon="6.69827">
        <ele>2060</ele>
        <time>2022-07-26T06:24:22Z</time>
      </trkpt>
      <trkpt lat="45.67584" lon="6.69826">
        <ele>2060</ele>
        <time>2022-07-26T06:24:23Z</time>
      </trkpt>
      <trkpt lat="45.67584" lon="6.69825">
        <ele>2060</ele>
        <time>2022-07-26T06:24:24Z</time>
      </trkpt>
      <trkpt lat="45.67583" lon="6.69824">
        <ele>2060</ele>
        <time>2022-07-26T06:24:25Z</time>
      </trkpt>
      <trkpt lat="45.67583" lon="6.69823">
        <ele>2060</ele>
        <time>2022-07-26T06:24:26Z</time>
      </trkpt>
      <trkpt lat="45.67582" lon="6.69822">
        <ele>2060</ele>
        <time>2022-07-26T06:24:27Z</time>
      </trkpt>
      <trkpt lat="45.67582" lon="6.69821">
        <ele>2060</ele>
        <time>2022-07-26T06:24:28Z</time>
      </trkpt>
      <trkpt lat="45.67581" lon="6.69821">
        <ele>2060</ele>
        <time>2022-07-26T06:24:29Z</time>
      </trkpt>
      <trkpt lat="45.6758" lon="6.6982">
        <ele>2060</ele>
        <time>2022-07-26T06:24:30Z</time>
      </trkpt>
      <trkpt lat="45.6758" lon="6.69819">
        <ele>2060</ele>
        <time>2022-07-26T06:24:31Z</time>
      </trkpt>
      <trkpt lat="45.67579" lon="6.69818">
        <ele>2060</ele>
        <time>2022-07-26T06:24:32Z</time>
      </trkpt>
      <trkpt lat="45.67578" lon="6.69818">
        <ele>2060</ele>
        <time>2022-07-26T06:24:33Z</time>
      </trkpt>
      <trkpt lat="45.67578" lon="6.69817">
        <ele>2060</ele>
        <time>2022-07-26T06:24:34Z</time>
      </trkpt>
      <trkpt lat="45.67577" lon="6.69816">
        <ele>2061</ele>
        <time>2022-07-26T06:24:35Z</time>
      </trkpt>
      <trkpt lat="45.67576" lon="6.69816">
        <ele>2061</ele>
        <time>2022-07-26T06:24:36Z</time>
      </trkpt>
      <trkpt lat="45.67575" lon="6.69815">
        <ele>2061</ele>
        <time>2022-07-26T06:24:37Z</time>
      </trkpt>
      <trkpt lat="45.67574" lon="6.69814">
        <ele>2061</ele>
        <time>2022-07-26T06:24:38Z</time>
      </trkpt>
      <trkpt lat="45.67574" lon="6.69814">
        <ele>2061</ele>
        <time>2022-07-26T06:24:39Z</time>
      </trkpt>
      <trkpt lat="45.67573" lon="6.69813">
        <ele>2061</ele>
        <time>2022-07-26T06:24:40Z</time>
      </trkpt>
      <trkpt lat="45.67572" lon="6.69812">
        <ele>2061</ele>
        <time>2022-07-26T06:24:41Z</time>
      </trkpt>
      <trkpt lat="45.67572" lon="6.69811">
        <ele>2061</ele>
        <time>2022-07-26T06:24:42Z</time>
      </trkpt>
      <trkpt lat="45.67571" lon="6.69811">
        <ele>2061</ele>
        <time>2022-07-26T06:24:43Z</time>
      </trkpt>
      <trkpt lat="45.67571" lon="6.6981">
        <ele>2061</ele>
        <time>2022-07-26T06:24:44Z</time>
      </trkpt>
      <trkpt lat="45.6757" lon="6.69809">
        <ele>2062</ele>
        <time>2022-07-26T06:24:45Z</time>
      </trkpt>
      <trkpt lat="45.67569" lon="6.69809">
        <ele>2062</ele>
        <time>2022-07-26T06:24:46Z</time>
      </trkpt>
      <trkpt lat="45.67569" lon="6.69809">
        <ele>2062</ele>
        <time>2022-07-26T06:24:47Z</time>
      </trkpt>
      <trkpt lat="45.67569" lon="6.69808">
        <ele>2062</ele>
        <time>2022-07-26T06:24:48Z</time>
      </trkpt>
      <trkpt lat="45.67569" lon="6.69808">
        <ele>2062</ele>
        <time>2022-07-26T06:24:49Z</time>
      </trkpt>
      <trkpt lat="45.67569" lon="6.69808">
        <ele>2063</ele>
        <time>2022-07-26T06:24:50Z</time>
      </trkpt>
      <trkpt lat="45.67568" lon="6.69808">
        <ele>2063</ele>
        <time>2022-07-26T06:24:51Z</time>
      </trkpt>
      <trkpt lat="45.67568" lon="6.69808">
        <ele>2063</ele>
        <time>2022-07-26T06:24:52Z</time>
      </trkpt>
      <trkpt lat="45.67567" lon="6.69807">
        <ele>2063</ele>
        <time>2022-07-26T06:24:53Z</time>
      </trkpt>
      <trkpt lat="45.67567" lon="6.69807">
        <ele>2063</ele>
        <time>2022-07-26T06:24:54Z</time>
      </trkpt>
      <trkpt lat="45.67566" lon="6.69807">
        <ele>2063</ele>
        <time>2022-07-26T06:24:55Z</time>
      </trkpt>
      <trkpt lat="45.67566" lon="6.69807">
        <ele>2063</ele>
        <time>2022-07-26T06:24:56Z</time>
      </trkpt>
      <trkpt lat="45.67565" lon="6.69806">
        <ele>2063</ele>
        <time>2022-07-26T06:24:57Z</time>
      </trkpt>
      <trkpt lat="45.67565" lon="6.69806">
        <ele>2063</ele>
        <time>2022-07-26T06:24:58Z</time>
      </trkpt>
      <trkpt lat="45.67564" lon="6.69805">
        <ele>2063</ele>
        <time>2022-07-26T06:24:59Z</time>
      </trkpt>
      <trkpt lat="45.67563" lon="6.69804">
        <ele>2064</ele>
        <time>2022-07-26T06:25:00Z</time>
      </trkpt>
      <trkpt lat="45.67563" lon="6.69803">
        <ele>2064</ele>
        <time>2022-07-26T06:25:01Z</time>
      </trkpt>
      <trkpt lat="45.67562" lon="6.69803">
        <ele>2064</ele>
        <time>2022-07-26T06:25:02Z</time>
      </trkpt>
      <trkpt lat="45.67562" lon="6.69802">
        <ele>2064</ele>
        <time>2022-07-26T06:25:03Z</time>
      </trkpt>
      <trkpt lat="45.67561" lon="6.69801">
        <ele>2064</ele>
        <time>2022-07-26T06:25:04Z</time>
      </trkpt>
      <trkpt lat="45.6756" lon="6.698">
        <ele>2065</ele>
        <time>2022-07-26T06:25:05Z</time>
      </trkpt>
      <trkpt lat="45.6756" lon="6.69799">
        <ele>2065</ele>
        <time>2022-07-26T06:25:06Z</time>
      </trkpt>
      <trkpt lat="45.6756" lon="6.69798">
        <ele>2065</ele>
        <time>2022-07-26T06:25:07Z</time>
      </trkpt>
      <trkpt lat="45.67559" lon="6.69796">
        <ele>2065</ele>
        <time>2022-07-26T06:25:08Z</time>
      </trkpt>
      <trkpt lat="45.67559" lon="6.69795">
        <ele>2065</ele>
        <time>2022-07-26T06:25:09Z</time>
      </trkpt>
      <trkpt lat="45.67559" lon="6.69794">
        <ele>2065</ele>
        <time>2022-07-26T06:25:10Z</time>
      </trkpt>
      <trkpt lat="45.67559" lon="6.69792">
        <ele>2065</ele>
        <time>2022-07-26T06:25:11Z</time>
      </trkpt>
      <trkpt lat="45.67559" lon="6.69791">
        <ele>2065</ele>
        <time>2022-07-26T06:25:12Z</time>
      </trkpt>
      <trkpt lat="45.67559" lon="6.6979">
        <ele>2066</ele>
        <time>2022-07-26T06:25:13Z</time>
      </trkpt>
      <trkpt lat="45.67559" lon="6.69789">
        <ele>2066</ele>
        <time>2022-07-26T06:25:14Z</time>
      </trkpt>
      <trkpt lat="45.67559" lon="6.69788">
        <ele>2067</ele>
        <time>2022-07-26T06:25:15Z</time>
      </trkpt>
      <trkpt lat="45.67559" lon="6.69787">
        <ele>2067</ele>
        <time>2022-07-26T06:25:16Z</time>
      </trkpt>
      <trkpt lat="45.67559" lon="6.69786">
        <ele>2067</ele>
        <time>2022-07-26T06:25:17Z</time>
      </trkpt>
      <trkpt lat="45.67559" lon="6.69785">
        <ele>2067</ele>
        <time>2022-07-26T06:25:18Z</time>
      </trkpt>
      <trkpt lat="45.67559" lon="6.69784">
        <ele>2067</ele>
        <time>2022-07-26T06:25:19Z</time>
      </trkpt>
      <trkpt lat="45.67559" lon="6.69783">
        <ele>2067</ele>
        <time>2022-07-26T06:25:20Z</time>
      </trkpt>
      <trkpt lat="45.67559" lon="6.6978">
        <ele>2069</ele>
        <time>2022-07-26T06:25:51Z</time>
      </trkpt>
      <trkpt lat="45.67559" lon="6.69779">
        <ele>2069</ele>
        <time>2022-07-26T06:25:52Z</time>
      </trkpt>
      <trkpt lat="45.67558" lon="6.69778">
        <ele>2069</ele>
        <time>2022-07-26T06:25:53Z</time>
      </trkpt>
      <trkpt lat="45.67558" lon="6.69777">
        <ele>2069</ele>
        <time>2022-07-26T06:25:54Z</time>
      </trkpt>
      <trkpt lat="45.67557" lon="6.69776">
        <ele>2069</ele>
        <time>2022-07-26T06:25:55Z</time>
      </trkpt>
      <trkpt lat="45.67557" lon="6.69775">
        <ele>2069</ele>
        <time>2022-07-26T06:25:56Z</time>
      </trkpt>
      <trkpt lat="45.67556" lon="6.69774">
        <ele>2069</ele>
        <time>2022-07-26T06:25:57Z</time>
      </trkpt>
      <trkpt lat="45.67556" lon="6.69773">
        <ele>2069</ele>
        <time>2022-07-26T06:25:58Z</time>
      </trkpt>
      <trkpt lat="45.67555" lon="6.69772">
        <ele>2069</ele>
        <time>2022-07-26T06:25:59Z</time>
      </trkpt>
      <trkpt lat="45.67555" lon="6.69772">
        <ele>2070</ele>
        <time>2022-07-26T06:26:00Z</time>
      </trkpt>
      <trkpt lat="45.67555" lon="6.69771">
        <ele>2070</ele>
        <time>2022-07-26T06:26:01Z</time>
      </trkpt>
      <trkpt lat="45.67555" lon="6.6977">
        <ele>2070</ele>
        <time>2022-07-26T06:26:02Z</time>
      </trkpt>
      <trkpt lat="45.67554" lon="6.69769">
        <ele>2070</ele>
        <time>2022-07-26T06:26:03Z</time>
      </trkpt>
      <trkpt lat="45.67554" lon="6.69768">
        <ele>2070</ele>
        <time>2022-07-26T06:26:04Z</time>
      </trkpt>
      <trkpt lat="45.67554" lon="6.69767">
        <ele>2071</ele>
        <time>2022-07-26T06:26:05Z</time>
      </trkpt>
      <trkpt lat="45.67554" lon="6.69767">
        <ele>2071</ele>
        <time>2022-07-26T06:26:06Z</time>
      </trkpt>
      <trkpt lat="45.67554" lon="6.69766">
        <ele>2071</ele>
        <time>2022-07-26T06:26:07Z</time>
      </trkpt>
      <trkpt lat="45.67554" lon="6.69765">
        <ele>2071</ele>
        <time>2022-07-26T06:26:08Z</time>
      </trkpt>
      <trkpt lat="45.67554" lon="6.69764">
        <ele>2071</ele>
        <time>2022-07-26T06:26:09Z</time>
      </trkpt>
      <trkpt lat="45.67553" lon="6.69763">
        <ele>2071</ele>
        <time>2022-07-26T06:26:10Z</time>
      </trkpt>
      <trkpt lat="45.67553" lon="6.69763">
        <ele>2071</ele>
        <time>2022-07-26T06:26:11Z</time>
      </trkpt>
      <trkpt lat="45.67553" lon="6.69762">
        <ele>2071</ele>
        <time>2022-07-26T06:26:12Z</time>
      </trkpt>
      <trkpt lat="45.67553" lon="6.69762">
        <ele>2071</ele>
        <time>2022-07-26T06:26:13Z</time>
      </trkpt>
      <trkpt lat="45.67552" lon="6.69761">
        <ele>2071</ele>
        <time>2022-07-26T06:26:14Z</time>
      </trkpt>
      <trkpt lat="45.67552" lon="6.69761">
        <ele>2072</ele>
        <time>2022-07-26T06:26:15Z</time>
      </trkpt>
      <trkpt lat="45.67551" lon="6.6976">
        <ele>2072</ele>
        <time>2022-07-26T06:26:16Z</time>
      </trkpt>
      <trkpt lat="45.67551" lon="6.69759">
        <ele>2072</ele>
        <time>2022-07-26T06:26:17Z</time>
      </trkpt>
      <trkpt lat="45.6755" lon="6.69759">
        <ele>2072</ele>
        <time>2022-07-26T06:26:18Z</time>
      </trkpt>
      <trkpt lat="45.6755" lon="6.69758">
        <ele>2072</ele>
        <time>2022-07-26T06:26:19Z</time>
      </trkpt>
      <trkpt lat="45.67549" lon="6.69757">
        <ele>2073</ele>
        <time>2022-07-26T06:26:20Z</time>
      </trkpt>
      <trkpt lat="45.67549" lon="6.69756">
        <ele>2073</ele>
        <time>2022-07-26T06:26:21Z</time>
      </trkpt>
      <trkpt lat="45.67548" lon="6.69755">
        <ele>2073</ele>
        <time>2022-07-26T06:26:22Z</time>
      </trkpt>
      <trkpt lat="45.67548" lon="6.69754">
        <ele>2073</ele>
        <time>2022-07-26T06:26:23Z</time>
      </trkpt>
      <trkpt lat="45.67548" lon="6.69754">
        <ele>2073</ele>
        <time>2022-07-26T06:26:24Z</time>
      </trkpt>
      <trkpt lat="45.67547" lon="6.69753">
        <ele>2074</ele>
        <time>2022-07-26T06:26:25Z</time>
      </trkpt>
      <trkpt lat="45.67546" lon="6.69752">
        <ele>2074</ele>
        <time>2022-07-26T06:26:26Z</time>
      </trkpt>
      <trkpt lat="45.67546" lon="6.69752">
        <ele>2074</ele>
        <time>2022-07-26T06:26:27Z</time>
      </trkpt>
      <trkpt lat="45.67545" lon="6.69751">
        <ele>2074</ele>
        <time>2022-07-26T06:26:28Z</time>
      </trkpt>
      <trkpt lat="45.67545" lon="6.69751">
        <ele>2074</ele>
        <time>2022-07-26T06:26:29Z</time>
      </trkpt>
      <trkpt lat="45.67544" lon="6.6975">
        <ele>2075</ele>
        <time>2022-07-26T06:26:30Z</time>
      </trkpt>
      <trkpt lat="45.67544" lon="6.6975">
        <ele>2075</ele>
        <time>2022-07-26T06:26:31Z</time>
      </trkpt>
      <trkpt lat="45.67543" lon="6.69749">
        <ele>2075</ele>
        <time>2022-07-26T06:26:32Z</time>
      </trkpt>
      <trkpt lat="45.67542" lon="6.69749">
        <ele>2075</ele>
        <time>2022-07-26T06:26:33Z</time>
      </trkpt>
      <trkpt lat="45.67542" lon="6.69748">
        <ele>2075</ele>
        <time>2022-07-26T06:26:34Z</time>
      </trkpt>
      <trkpt lat="45.67542" lon="6.69748">
        <ele>2075</ele>
        <time>2022-07-26T06:26:35Z</time>
      </trkpt>
      <trkpt lat="45.67541" lon="6.69748">
        <ele>2075</ele>
        <time>2022-07-26T06:26:36Z</time>
      </trkpt>
      <trkpt lat="45.67541" lon="6.69747">
        <ele>2075</ele>
        <time>2022-07-26T06:26:37Z</time>
      </trkpt>
      <trkpt lat="45.6754" lon="6.69747">
        <ele>2075</ele>
        <time>2022-07-26T06:26:38Z</time>
      </trkpt>
      <trkpt lat="45.67539" lon="6.69746">
        <ele>2075</ele>
        <time>2022-07-26T06:26:39Z</time>
      </trkpt>
      <trkpt lat="45.67539" lon="6.69746">
        <ele>2076</ele>
        <time>2022-07-26T06:26:40Z</time>
      </trkpt>
      <trkpt lat="45.67538" lon="6.69745">
        <ele>2076</ele>
        <time>2022-07-26T06:26:41Z</time>
      </trkpt>
      <trkpt lat="45.67538" lon="6.69745">
        <ele>2076</ele>
        <time>2022-07-26T06:26:42Z</time>
      </trkpt>
      <trkpt lat="45.67536" lon="6.69744">
        <ele>2077</ele>
        <time>2022-07-26T06:26:53Z</time>
      </trkpt>
      <trkpt lat="45.67535" lon="6.69745">
        <ele>2077</ele>
        <time>2022-07-26T06:26:54Z</time>
      </trkpt>
      <trkpt lat="45.67535" lon="6.69745">
        <ele>2078</ele>
        <time>2022-07-26T06:26:55Z</time>
      </trkpt>
      <trkpt lat="45.67534" lon="6.69744">
        <ele>2078</ele>
        <time>2022-07-26T06:26:56Z</time>
      </trkpt>
      <trkpt lat="45.67533" lon="6.69744">
        <ele>2078</ele>
        <time>2022-07-26T06:26:57Z</time>
      </trkpt>
      <trkpt lat="45.67533" lon="6.69744">
        <ele>2078</ele>
        <time>2022-07-26T06:26:58Z</time>
      </trkpt>
      <trkpt lat="45.67532" lon="6.69743">
        <ele>2078</ele>
        <time>2022-07-26T06:26:59Z</time>
      </trkpt>
      <trkpt lat="45.67531" lon="6.69743">
        <ele>2079</ele>
        <time>2022-07-26T06:27:00Z</time>
      </trkpt>
      <trkpt lat="45.6753" lon="6.69742">
        <ele>2079</ele>
        <time>2022-07-26T06:27:01Z</time>
      </trkpt>
      <trkpt lat="45.67529" lon="6.69741">
        <ele>2079</ele>
        <time>2022-07-26T06:27:02Z</time>
      </trkpt>
      <trkpt lat="45.67528" lon="6.69741">
        <ele>2079</ele>
        <time>2022-07-26T06:27:03Z</time>
      </trkpt>
      <trkpt lat="45.67528" lon="6.6974">
        <ele>2079</ele>
        <time>2022-07-26T06:27:04Z</time>
      </trkpt>
      <trkpt lat="45.67527" lon="6.6974">
        <ele>2079</ele>
        <time>2022-07-26T06:27:05Z</time>
      </trkpt>
      <trkpt lat="45.67526" lon="6.69739">
        <ele>2079</ele>
        <time>2022-07-26T06:27:06Z</time>
      </trkpt>
      <trkpt lat="45.67525" lon="6.69739">
        <ele>2079</ele>
        <time>2022-07-26T06:27:07Z</time>
      </trkpt>
      <trkpt lat="45.67524" lon="6.69738">
        <ele>2079</ele>
        <time>2022-07-26T06:27:08Z</time>
      </trkpt>
      <trkpt lat="45.67524" lon="6.69738">
        <ele>2079</ele>
        <time>2022-07-26T06:27:09Z</time>
      </trkpt>
      <trkpt lat="45.67523" lon="6.69737">
        <ele>2080</ele>
        <time>2022-07-26T06:27:10Z</time>
      </trkpt>
      <trkpt lat="45.67522" lon="6.69737">
        <ele>2080</ele>
        <time>2022-07-26T06:27:11Z</time>
      </trkpt>
      <trkpt lat="45.67522" lon="6.69736">
        <ele>2080</ele>
        <time>2022-07-26T06:27:12Z</time>
      </trkpt>
      <trkpt lat="45.67521" lon="6.69735">
        <ele>2080</ele>
        <time>2022-07-26T06:27:13Z</time>
      </trkpt>
      <trkpt lat="45.6752" lon="6.69735">
        <ele>2080</ele>
        <time>2022-07-26T06:27:14Z</time>
      </trkpt>
      <trkpt lat="45.6752" lon="6.69734">
        <ele>2080</ele>
        <time>2022-07-26T06:27:15Z</time>
      </trkpt>
      <trkpt lat="45.67519" lon="6.69734">
        <ele>2080</ele>
        <time>2022-07-26T06:27:16Z</time>
      </trkpt>
      <trkpt lat="45.67519" lon="6.69733">
        <ele>2080</ele>
        <time>2022-07-26T06:27:17Z</time>
      </trkpt>
      <trkpt lat="45.67518" lon="6.69733">
        <ele>2080</ele>
        <time>2022-07-26T06:27:18Z</time>
      </trkpt>
      <trkpt lat="45.67517" lon="6.69732">
        <ele>2080</ele>
        <time>2022-07-26T06:27:19Z</time>
      </trkpt>
      <trkpt lat="45.67517" lon="6.69732">
        <ele>2081</ele>
        <time>2022-07-26T06:27:20Z</time>
      </trkpt>
      <trkpt lat="45.67516" lon="6.69731">
        <ele>2081</ele>
        <time>2022-07-26T06:27:21Z</time>
      </trkpt>
      <trkpt lat="45.67515" lon="6.6973">
        <ele>2081</ele>
        <time>2022-07-26T06:27:22Z</time>
      </trkpt>
      <trkpt lat="45.67514" lon="6.6973">
        <ele>2081</ele>
        <time>2022-07-26T06:27:23Z</time>
      </trkpt>
      <trkpt lat="45.67514" lon="6.69729">
        <ele>2081</ele>
        <time>2022-07-26T06:27:24Z</time>
      </trkpt>
      <trkpt lat="45.67513" lon="6.69729">
        <ele>2081</ele>
        <time>2022-07-26T06:27:25Z</time>
      </trkpt>
      <trkpt lat="45.67513" lon="6.69727">
        <ele>2083</ele>
        <time>2022-07-26T06:29:19Z</time>
      </trkpt>
      <trkpt lat="45.67512" lon="6.69726">
        <ele>2083</ele>
        <time>2022-07-26T06:29:20Z</time>
      </trkpt>
      <trkpt lat="45.67512" lon="6.69725">
        <ele>2083</ele>
        <time>2022-07-26T06:29:21Z</time>
      </trkpt>
      <trkpt lat="45.67512" lon="6.69725">
        <ele>2083</ele>
        <time>2022-07-26T06:29:22Z</time>
      </trkpt>
      <trkpt lat="45.67511" lon="6.69724">
        <ele>2083</ele>
        <time>2022-07-26T06:29:23Z</time>
      </trkpt>
      <trkpt lat="45.67511" lon="6.69722">
        <ele>2083</ele>
        <time>2022-07-26T06:29:24Z</time>
      </trkpt>
      <trkpt lat="45.6751" lon="6.69721">
        <ele>2083</ele>
        <time>2022-07-26T06:29:25Z</time>
      </trkpt>
      <trkpt lat="45.67509" lon="6.6972">
        <ele>2083</ele>
        <time>2022-07-26T06:29:26Z</time>
      </trkpt>
      <trkpt lat="45.67508" lon="6.6972">
        <ele>2083</ele>
        <time>2022-07-26T06:29:27Z</time>
      </trkpt>
      <trkpt lat="45.67507" lon="6.69719">
        <ele>2083</ele>
        <time>2022-07-26T06:29:28Z</time>
      </trkpt>
      <trkpt lat="45.67507" lon="6.69718">
        <ele>2083</ele>
        <time>2022-07-26T06:29:29Z</time>
      </trkpt>
      <trkpt lat="45.67506" lon="6.69717">
        <ele>2083</ele>
        <time>2022-07-26T06:29:30Z</time>
      </trkpt>
      <trkpt lat="45.67505" lon="6.69716">
        <ele>2083</ele>
        <time>2022-07-26T06:29:31Z</time>
      </trkpt>
      <trkpt lat="45.67504" lon="6.69715">
        <ele>2083</ele>
        <time>2022-07-26T06:29:32Z</time>
      </trkpt>
      <trkpt lat="45.67503" lon="6.69714">
        <ele>2083</ele>
        <time>2022-07-26T06:29:33Z</time>
      </trkpt>
      <trkpt lat="45.67503" lon="6.69713">
        <ele>2083</ele>
        <time>2022-07-26T06:29:34Z</time>
      </trkpt>
      <trkpt lat="45.67502" lon="6.69713">
        <ele>2083</ele>
        <time>2022-07-26T06:29:35Z</time>
      </trkpt>
      <trkpt lat="45.67501" lon="6.69712">
        <ele>2083</ele>
        <time>2022-07-26T06:29:36Z</time>
      </trkpt>
      <trkpt lat="45.67501" lon="6.69712">
        <ele>2083</ele>
        <time>2022-07-26T06:29:37Z</time>
      </trkpt>
      <trkpt lat="45.675" lon="6.69711">
        <ele>2083</ele>
        <time>2022-07-26T06:29:38Z</time>
      </trkpt>
      <trkpt lat="45.67499" lon="6.69711">
        <ele>2083</ele>
        <time>2022-07-26T06:29:39Z</time>
      </trkpt>
      <trkpt lat="45.67499" lon="6.6971">
        <ele>2083</ele>
        <time>2022-07-26T06:29:40Z</time>
      </trkpt>
      <trkpt lat="45.67498" lon="6.6971">
        <ele>2083</ele>
        <time>2022-07-26T06:29:41Z</time>
      </trkpt>
      <trkpt lat="45.67498" lon="6.69709">
        <ele>2083</ele>
        <time>2022-07-26T06:29:42Z</time>
      </trkpt>
      <trkpt lat="45.67497" lon="6.69708">
        <ele>2083</ele>
        <time>2022-07-26T06:29:43Z</time>
      </trkpt>
      <trkpt lat="45.67496" lon="6.69708">
        <ele>2083</ele>
        <time>2022-07-26T06:29:44Z</time>
      </trkpt>
      <trkpt lat="45.67496" lon="6.69707">
        <ele>2084</ele>
        <time>2022-07-26T06:29:45Z</time>
      </trkpt>
      <trkpt lat="45.67495" lon="6.69706">
        <ele>2084</ele>
        <time>2022-07-26T06:29:46Z</time>
      </trkpt>
      <trkpt lat="45.67494" lon="6.69705">
        <ele>2084</ele>
        <time>2022-07-26T06:29:47Z</time>
      </trkpt>
      <trkpt lat="45.67494" lon="6.69705">
        <ele>2084</ele>
        <time>2022-07-26T06:29:48Z</time>
      </trkpt>
      <trkpt lat="45.67493" lon="6.69704">
        <ele>2084</ele>
        <time>2022-07-26T06:29:49Z</time>
      </trkpt>
      <trkpt lat="45.67492" lon="6.69703">
        <ele>2084</ele>
        <time>2022-07-26T06:29:50Z</time>
      </trkpt>
      <trkpt lat="45.67491" lon="6.69702">
        <ele>2084</ele>
        <time>2022-07-26T06:29:51Z</time>
      </trkpt>
      <trkpt lat="45.6749" lon="6.69702">
        <ele>2084</ele>
        <time>2022-07-26T06:29:52Z</time>
      </trkpt>
      <trkpt lat="45.6749" lon="6.69701">
        <ele>2084</ele>
        <time>2022-07-26T06:29:53Z</time>
      </trkpt>
      <trkpt lat="45.67489" lon="6.69701">
        <ele>2084</ele>
        <time>2022-07-26T06:29:54Z</time>
      </trkpt>
      <trkpt lat="45.67488" lon="6.697">
        <ele>2084</ele>
        <time>2022-07-26T06:29:55Z</time>
      </trkpt>
      <trkpt lat="45.67487" lon="6.697">
        <ele>2084</ele>
        <time>2022-07-26T06:29:56Z</time>
      </trkpt>
      <trkpt lat="45.67487" lon="6.69699">
        <ele>2084</ele>
        <time>2022-07-26T06:29:57Z</time>
      </trkpt>
      <trkpt lat="45.67484" lon="6.69698">
        <ele>2086</ele>
        <time>2022-07-26T06:30:31Z</time>
      </trkpt>
      <trkpt lat="45.67483" lon="6.69698">
        <ele>2086</ele>
        <time>2022-07-26T06:30:32Z</time>
      </trkpt>
      <trkpt lat="45.67482" lon="6.69698">
        <ele>2086</ele>
        <time>2022-07-26T06:30:33Z</time>
      </trkpt>
      <trkpt lat="45.67482" lon="6.69697">
        <ele>2086</ele>
        <time>2022-07-26T06:30:34Z</time>
      </trkpt>
      <trkpt lat="45.67482" lon="6.69696">
        <ele>2086</ele>
        <time>2022-07-26T06:30:35Z</time>
      </trkpt>
      <trkpt lat="45.67482" lon="6.69695">
        <ele>2086</ele>
        <time>2022-07-26T06:30:36Z</time>
      </trkpt>
      <trkpt lat="45.67482" lon="6.69694">
        <ele>2086</ele>
        <time>2022-07-26T06:30:37Z</time>
      </trkpt>
      <trkpt lat="45.67482" lon="6.69693">
        <ele>2086</ele>
        <time>2022-07-26T06:30:38Z</time>
      </trkpt>
      <trkpt lat="45.67482" lon="6.69691">
        <ele>2086</ele>
        <time>2022-07-26T06:30:39Z</time>
      </trkpt>
      <trkpt lat="45.67483" lon="6.69689">
        <ele>2086</ele>
        <time>2022-07-26T06:30:40Z</time>
      </trkpt>
      <trkpt lat="45.67483" lon="6.69687">
        <ele>2086</ele>
        <time>2022-07-26T06:30:41Z</time>
      </trkpt>
      <trkpt lat="45.67483" lon="6.6969">
        <ele>2087</ele>
        <time>2022-07-26T07:13:00Z</time>
      </trkpt>
      <trkpt lat="45.67483" lon="6.69691">
        <ele>2087</ele>
        <time>2022-07-26T07:13:01Z</time>
      </trkpt>
      <trkpt lat="45.67482" lon="6.69691">
        <ele>2087</ele>
        <time>2022-07-26T07:13:02Z</time>
      </trkpt>
      <trkpt lat="45.67482" lon="6.69692">
        <ele>2087</ele>
        <time>2022-07-26T07:13:03Z</time>
      </trkpt>
      <trkpt lat="45.67482" lon="6.69692">
        <ele>2087</ele>
        <time>2022-07-26T07:13:04Z</time>
      </trkpt>
      <trkpt lat="45.67481" lon="6.69693">
        <ele>2087</ele>
        <time>2022-07-26T07:13:05Z</time>
      </trkpt>
      <trkpt lat="45.67481" lon="6.69694">
        <ele>2087</ele>
        <time>2022-07-26T07:13:06Z</time>
      </trkpt>
      <trkpt lat="45.6748" lon="6.69695">
        <ele>2087</ele>
        <time>2022-07-26T07:13:15Z</time>
      </trkpt>
      <trkpt lat="45.67479" lon="6.69695">
        <ele>2087</ele>
        <time>2022-07-26T07:13:16Z</time>
      </trkpt>
      <trkpt lat="45.67479" lon="6.69695">
        <ele>2087</ele>
        <time>2022-07-26T07:13:17Z</time>
      </trkpt>
      <trkpt lat="45.67478" lon="6.69695">
        <ele>2087</ele>
        <time>2022-07-26T07:13:18Z</time>
      </trkpt>
      <trkpt lat="45.67478" lon="6.69695">
        <ele>2087</ele>
        <time>2022-07-26T07:13:19Z</time>
      </trkpt>
      <trkpt lat="45.67476" lon="6.69693">
        <ele>2090</ele>
        <time>2022-07-26T07:13:52Z</time>
      </trkpt>
      <trkpt lat="45.67475" lon="6.69692">
        <ele>2090</ele>
        <time>2022-07-26T07:13:53Z</time>
      </trkpt>
      <trkpt lat="45.67474" lon="6.69692">
        <ele>2090</ele>
        <time>2022-07-26T07:13:54Z</time>
      </trkpt>
      <trkpt lat="45.67472" lon="6.6969">
        <ele>2090</ele>
        <time>2022-07-26T07:14:00Z</time>
      </trkpt>
      <trkpt lat="45.67472" lon="6.69689">
        <ele>2090</ele>
        <time>2022-07-26T07:14:01Z</time>
      </trkpt>
      <trkpt lat="45.67471" lon="6.69689">
        <ele>2090</ele>
        <time>2022-07-26T07:14:02Z</time>
      </trkpt>
      <trkpt lat="45.67471" lon="6.69688">
        <ele>2090</ele>
        <time>2022-07-26T07:14:03Z</time>
      </trkpt>
      <trkpt lat="45.67471" lon="6.69688">
        <ele>2090</ele>
        <time>2022-07-26T07:14:04Z</time>
      </trkpt>
      <trkpt lat="45.6747" lon="6.69688">
        <ele>2090</ele>
        <time>2022-07-26T07:14:05Z</time>
      </trkpt>
      <trkpt lat="45.6747" lon="6.69687">
        <ele>2090</ele>
        <time>2022-07-26T07:14:06Z</time>
      </trkpt>
      <trkpt lat="45.6747" lon="6.69687">
        <ele>2091</ele>
        <time>2022-07-26T07:14:07Z</time>
      </trkpt>
      <trkpt lat="45.67469" lon="6.69686">
        <ele>2091</ele>
        <time>2022-07-26T07:14:08Z</time>
      </trkpt>
      <trkpt lat="45.67469" lon="6.69685">
        <ele>2091</ele>
        <time>2022-07-26T07:14:09Z</time>
      </trkpt>
      <trkpt lat="45.67468" lon="6.69685">
        <ele>2091</ele>
        <time>2022-07-26T07:14:10Z</time>
      </trkpt>
      <trkpt lat="45.67468" lon="6.69684">
        <ele>2091</ele>
        <time>2022-07-26T07:14:11Z</time>
      </trkpt>
      <trkpt lat="45.67468" lon="6.69684">
        <ele>2091</ele>
        <time>2022-07-26T07:14:12Z</time>
      </trkpt>
      <trkpt lat="45.67468" lon="6.69684">
        <ele>2091</ele>
        <time>2022-07-26T07:14:13Z</time>
      </trkpt>
      <trkpt lat="45.67468" lon="6.69683">
        <ele>2091</ele>
        <time>2022-07-26T07:14:14Z</time>
      </trkpt>
      <trkpt lat="45.67467" lon="6.69683">
        <ele>2091</ele>
        <time>2022-07-26T07:14:15Z</time>
      </trkpt>
      <trkpt lat="45.67467" lon="6.69682">
        <ele>2091</ele>
        <time>2022-07-26T07:14:16Z</time>
      </trkpt>
      <trkpt lat="45.67464" lon="6.69681">
        <ele>2096</ele>
        <time>2022-07-26T07:14:43Z</time>
      </trkpt>
      <trkpt lat="45.67462" lon="6.6968">
        <ele>2096</ele>
        <time>2022-07-26T07:14:44Z</time>
      </trkpt>
      <trkpt lat="45.6746" lon="6.6968">
        <ele>2096</ele>
        <time>2022-07-26T07:14:45Z</time>
      </trkpt>
      <trkpt lat="45.67459" lon="6.69679">
        <ele>2096</ele>
        <time>2022-07-26T07:14:46Z</time>
      </trkpt>
      <trkpt lat="45.67458" lon="6.69679">
        <ele>2096</ele>
        <time>2022-07-26T07:14:47Z</time>
      </trkpt>
      <trkpt lat="45.67458" lon="6.69678">
        <ele>2096</ele>
        <time>2022-07-26T07:14:48Z</time>
      </trkpt>
      <trkpt lat="45.67457" lon="6.69678">
        <ele>2096</ele>
        <time>2022-07-26T07:14:49Z</time>
      </trkpt>
      <trkpt lat="45.67456" lon="6.69677">
        <ele>2096</ele>
        <time>2022-07-26T07:14:50Z</time>
      </trkpt>
      <trkpt lat="45.67456" lon="6.69677">
        <ele>2096</ele>
        <time>2022-07-26T07:14:51Z</time>
      </trkpt>
      <trkpt lat="45.67455" lon="6.69677">
        <ele>2097</ele>
        <time>2022-07-26T07:14:52Z</time>
      </trkpt>
      <trkpt lat="45.67454" lon="6.69676">
        <ele>2097</ele>
        <time>2022-07-26T07:14:53Z</time>
      </trkpt>
      <trkpt lat="45.67454" lon="6.69676">
        <ele>2097</ele>
        <time>2022-07-26T07:14:54Z</time>
      </trkpt>
      <trkpt lat="45.67453" lon="6.69675">
        <ele>2097</ele>
        <time>2022-07-26T07:14:55Z</time>
      </trkpt>
      <trkpt lat="45.67453" lon="6.69675">
        <ele>2097</ele>
        <time>2022-07-26T07:14:56Z</time>
      </trkpt>
      <trkpt lat="45.67452" lon="6.69675">
        <ele>2098</ele>
        <time>2022-07-26T07:14:57Z</time>
      </trkpt>
      <trkpt lat="45.67451" lon="6.69673">
        <ele>2100</ele>
        <time>2022-07-26T07:15:16Z</time>
      </trkpt>
      <trkpt lat="45.6745" lon="6.69672">
        <ele>2100</ele>
        <time>2022-07-26T07:15:17Z</time>
      </trkpt>
      <trkpt lat="45.6745" lon="6.69671">
        <ele>2100</ele>
        <time>2022-07-26T07:15:18Z</time>
      </trkpt>
      <trkpt lat="45.67449" lon="6.69671">
        <ele>2100</ele>
        <time>2022-07-26T07:15:19Z</time>
      </trkpt>
      <trkpt lat="45.67448" lon="6.6967">
        <ele>2100</ele>
        <time>2022-07-26T07:15:20Z</time>
      </trkpt>
      <trkpt lat="45.67445" lon="6.69668">
        <ele>2101</ele>
        <time>2022-07-26T07:15:33Z</time>
      </trkpt>
      <trkpt lat="45.67444" lon="6.69667">
        <ele>2101</ele>
        <time>2022-07-26T07:15:34Z</time>
      </trkpt>
      <trkpt lat="45.67443" lon="6.69666">
        <ele>2101</ele>
        <time>2022-07-26T07:15:35Z</time>
      </trkpt>
      <trkpt lat="45.67442" lon="6.69666">
        <ele>2101</ele>
        <time>2022-07-26T07:15:36Z</time>
      </trkpt>
      <trkpt lat="45.67442" lon="6.69665">
        <ele>2102</ele>
        <time>2022-07-26T07:15:37Z</time>
      </trkpt>
      <trkpt lat="45.67441" lon="6.69665">
        <ele>2102</ele>
        <time>2022-07-26T07:15:38Z</time>
      </trkpt>
      <trkpt lat="45.67441" lon="6.69664">
        <ele>2102</ele>
        <time>2022-07-26T07:15:39Z</time>
      </trkpt>
      <trkpt lat="45.6744" lon="6.69663">
        <ele>2102</ele>
        <time>2022-07-26T07:15:40Z</time>
      </trkpt>
      <trkpt lat="45.67439" lon="6.69663">
        <ele>2102</ele>
        <time>2022-07-26T07:15:41Z</time>
      </trkpt>
      <trkpt lat="45.67439" lon="6.69662">
        <ele>2102</ele>
        <time>2022-07-26T07:15:42Z</time>
      </trkpt>
      <trkpt lat="45.67438" lon="6.69661">
        <ele>2102</ele>
        <time>2022-07-26T07:15:43Z</time>
      </trkpt>
      <trkpt lat="45.67434" lon="6.69657">
        <ele>2107</ele>
        <time>2022-07-26T07:16:23Z</time>
      </trkpt>
      <trkpt lat="45.67431" lon="6.69654">
        <ele>2107</ele>
        <time>2022-07-26T07:16:24Z</time>
      </trkpt>
      <trkpt lat="45.67429" lon="6.69651">
        <ele>2107</ele>
        <time>2022-07-26T07:16:25Z</time>
      </trkpt>
      <trkpt lat="45.67427" lon="6.69649">
        <ele>2107</ele>
        <time>2022-07-26T07:16:26Z</time>
      </trkpt>
      <trkpt lat="45.67426" lon="6.69648">
        <ele>2107</ele>
        <time>2022-07-26T07:16:27Z</time>
      </trkpt>
      <trkpt lat="45.67425" lon="6.69646">
        <ele>2108</ele>
        <time>2022-07-26T07:16:33Z</time>
      </trkpt>
      <trkpt lat="45.67424" lon="6.69645">
        <ele>2108</ele>
        <time>2022-07-26T07:16:34Z</time>
      </trkpt>
      <trkpt lat="45.67423" lon="6.69644">
        <ele>2108</ele>
        <time>2022-07-26T07:16:35Z</time>
      </trkpt>
      <trkpt lat="45.67423" lon="6.69643">
        <ele>2108</ele>
        <time>2022-07-26T07:16:36Z</time>
      </trkpt>
      <trkpt lat="45.67422" lon="6.69643">
        <ele>2108</ele>
        <time>2022-07-26T07:16:37Z</time>
      </trkpt>
      <trkpt lat="45.67421" lon="6.69642">
        <ele>2109</ele>
        <time>2022-07-26T07:16:59Z</time>
      </trkpt>
      <trkpt lat="45.67421" lon="6.69642">
        <ele>2109</ele>
        <time>2022-07-26T07:17:00Z</time>
      </trkpt>
      <trkpt lat="45.6742" lon="6.69642">
        <ele>2109</ele>
        <time>2022-07-26T07:17:01Z</time>
      </trkpt>
      <trkpt lat="45.6742" lon="6.69642">
        <ele>2109</ele>
        <time>2022-07-26T07:17:02Z</time>
      </trkpt>
      <trkpt lat="45.67419" lon="6.69641">
        <ele>2109</ele>
        <time>2022-07-26T07:17:03Z</time>
      </trkpt>
      <trkpt lat="45.67417" lon="6.6964">
        <ele>2109</ele>
        <time>2022-07-26T07:17:11Z</time>
      </trkpt>
      <trkpt lat="45.67416" lon="6.69639">
        <ele>2109</ele>
        <time>2022-07-26T07:17:12Z</time>
      </trkpt>
      <trkpt lat="45.67416" lon="6.69638">
        <ele>2109</ele>
        <time>2022-07-26T07:17:13Z</time>
      </trkpt>
      <trkpt lat="45.67415" lon="6.69637">
        <ele>2109</ele>
        <time>2022-07-26T07:17:14Z</time>
      </trkpt>
      <trkpt lat="45.67415" lon="6.69636">
        <ele>2109</ele>
        <time>2022-07-26T07:17:15Z</time>
      </trkpt>
      <trkpt lat="45.67415" lon="6.69636">
        <ele>2109</ele>
        <time>2022-07-26T07:17:16Z</time>
      </trkpt>
      <trkpt lat="45.67415" lon="6.69635">
        <ele>2110</ele>
        <time>2022-07-26T07:17:17Z</time>
      </trkpt>
      <trkpt lat="45.67414" lon="6.69634">
        <ele>2110</ele>
        <time>2022-07-26T07:17:18Z</time>
      </trkpt>
      <trkpt lat="45.67414" lon="6.69634">
        <ele>2110</ele>
        <time>2022-07-26T07:17:19Z</time>
      </trkpt>
      <trkpt lat="45.67414" lon="6.69633">
        <ele>2110</ele>
        <time>2022-07-26T07:17:20Z</time>
      </trkpt>
      <trkpt lat="45.67414" lon="6.69632">
        <ele>2110</ele>
        <time>2022-07-26T07:17:21Z</time>
      </trkpt>
      <trkpt lat="45.67414" lon="6.69632">
        <ele>2110</ele>
        <time>2022-07-26T07:17:22Z</time>
      </trkpt>
      <trkpt lat="45.67413" lon="6.69631">
        <ele>2110</ele>
        <time>2022-07-26T07:17:23Z</time>
      </trkpt>
      <trkpt lat="45.67413" lon="6.6963">
        <ele>2110</ele>
        <time>2022-07-26T07:17:24Z</time>
      </trkpt>
      <trkpt lat="45.67413" lon="6.69629">
        <ele>2110</ele>
        <time>2022-07-26T07:17:25Z</time>
      </trkpt>
      <trkpt lat="45.67413" lon="6.69629">
        <ele>2110</ele>
        <time>2022-07-26T07:17:26Z</time>
      </trkpt>
      <trkpt lat="45.67413" lon="6.69628">
        <ele>2111</ele>
        <time>2022-07-26T07:17:27Z</time>
      </trkpt>
      <trkpt lat="45.67413" lon="6.69627">
        <ele>2111</ele>
        <time>2022-07-26T07:17:28Z</time>
      </trkpt>
      <trkpt lat="45.67412" lon="6.69627">
        <ele>2111</ele>
        <time>2022-07-26T07:17:29Z</time>
      </trkpt>
      <trkpt lat="45.67412" lon="6.69626">
        <ele>2111</ele>
        <time>2022-07-26T07:17:30Z</time>
      </trkpt>
      <trkpt lat="45.67411" lon="6.69625">
        <ele>2111</ele>
        <time>2022-07-26T07:17:31Z</time>
      </trkpt>
      <trkpt lat="45.67411" lon="6.69625">
        <ele>2111</ele>
        <time>2022-07-26T07:17:32Z</time>
      </trkpt>
      <trkpt lat="45.67411" lon="6.69625">
        <ele>2111</ele>
        <time>2022-07-26T07:17:33Z</time>
      </trkpt>
      <trkpt lat="45.6741" lon="6.69624">
        <ele>2111</ele>
        <time>2022-07-26T07:17:34Z</time>
      </trkpt>
      <trkpt lat="45.6741" lon="6.69624">
        <ele>2111</ele>
        <time>2022-07-26T07:17:35Z</time>
      </trkpt>
      <trkpt lat="45.67409" lon="6.69624">
        <ele>2111</ele>
        <time>2022-07-26T07:17:36Z</time>
      </trkpt>
      <trkpt lat="45.67409" lon="6.69623">
        <ele>2112</ele>
        <time>2022-07-26T07:17:37Z</time>
      </trkpt>
      <trkpt lat="45.67408" lon="6.69623">
        <ele>2112</ele>
        <time>2022-07-26T07:17:38Z</time>
      </trkpt>
      <trkpt lat="45.67408" lon="6.69622">
        <ele>2112</ele>
        <time>2022-07-26T07:17:39Z</time>
      </trkpt>
      <trkpt lat="45.67408" lon="6.69621">
        <ele>2112</ele>
        <time>2022-07-26T07:17:40Z</time>
      </trkpt>
      <trkpt lat="45.67407" lon="6.69619">
        <ele>2114</ele>
        <time>2022-07-26T07:17:54Z</time>
      </trkpt>
      <trkpt lat="45.67407" lon="6.69618">
        <ele>2114</ele>
        <time>2022-07-26T07:17:55Z</time>
      </trkpt>
      <trkpt lat="45.67407" lon="6.69616">
        <ele>2114</ele>
        <time>2022-07-26T07:17:56Z</time>
      </trkpt>
      <trkpt lat="45.67406" lon="6.69615">
        <ele>2115</ele>
        <time>2022-07-26T07:17:57Z</time>
      </trkpt>
      <trkpt lat="45.67406" lon="6.69614">
        <ele>2115</ele>
        <time>2022-07-26T07:17:58Z</time>
      </trkpt>
      <trkpt lat="45.67406" lon="6.69613">
        <ele>2115</ele>
        <time>2022-07-26T07:17:59Z</time>
      </trkpt>
      <trkpt lat="45.67405" lon="6.69611">
        <ele>2115</ele>
        <time>2022-07-26T07:18:00Z</time>
      </trkpt>
      <trkpt lat="45.67405" lon="6.6961">
        <ele>2115</ele>
        <time>2022-07-26T07:18:01Z</time>
      </trkpt>
      <trkpt lat="45.67405" lon="6.69609">
        <ele>2115</ele>
        <time>2022-07-26T07:18:02Z</time>
      </trkpt>
      <trkpt lat="45.67405" lon="6.69608">
        <ele>2115</ele>
        <time>2022-07-26T07:18:03Z</time>
      </trkpt>
      <trkpt lat="45.67406" lon="6.69606">
        <ele>2115</ele>
        <time>2022-07-26T07:18:04Z</time>
      </trkpt>
      <trkpt lat="45.67406" lon="6.69605">
        <ele>2115</ele>
        <time>2022-07-26T07:18:05Z</time>
      </trkpt>
      <trkpt lat="45.67406" lon="6.69605">
        <ele>2115</ele>
        <time>2022-07-26T07:18:06Z</time>
      </trkpt>
      <trkpt lat="45.67406" lon="6.69604">
        <ele>2115</ele>
        <time>2022-07-26T07:18:07Z</time>
      </trkpt>
      <trkpt lat="45.67406" lon="6.69603">
        <ele>2115</ele>
        <time>2022-07-26T07:18:08Z</time>
      </trkpt>
      <trkpt lat="45.67406" lon="6.69602">
        <ele>2115</ele>
        <time>2022-07-26T07:18:09Z</time>
      </trkpt>
      <trkpt lat="45.67405" lon="6.69602">
        <ele>2115</ele>
        <time>2022-07-26T07:18:10Z</time>
      </trkpt>
      <trkpt lat="45.67405" lon="6.69601">
        <ele>2115</ele>
        <time>2022-07-26T07:18:11Z</time>
      </trkpt>
      <trkpt lat="45.67405" lon="6.696">
        <ele>2116</ele>
        <time>2022-07-26T07:18:12Z</time>
      </trkpt>
      <trkpt lat="45.67405" lon="6.69599">
        <ele>2116</ele>
        <time>2022-07-26T07:18:13Z</time>
      </trkpt>
      <trkpt lat="45.67404" lon="6.69599">
        <ele>2116</ele>
        <time>2022-07-26T07:18:14Z</time>
      </trkpt>
      <trkpt lat="45.67404" lon="6.69598">
        <ele>2116</ele>
        <time>2022-07-26T07:18:15Z</time>
      </trkpt>
      <trkpt lat="45.67404" lon="6.69597">
        <ele>2116</ele>
        <time>2022-07-26T07:18:16Z</time>
      </trkpt>
      <trkpt lat="45.67404" lon="6.69597">
        <ele>2116</ele>
        <time>2022-07-26T07:18:17Z</time>
      </trkpt>
      <trkpt lat="45.67403" lon="6.69596">
        <ele>2116</ele>
        <time>2022-07-26T07:18:18Z</time>
      </trkpt>
      <trkpt lat="45.67403" lon="6.69595">
        <ele>2116</ele>
        <time>2022-07-26T07:18:19Z</time>
      </trkpt>
      <trkpt lat="45.67403" lon="6.69594">
        <ele>2116</ele>
        <time>2022-07-26T07:18:20Z</time>
      </trkpt>
      <trkpt lat="45.67403" lon="6.69594">
        <ele>2116</ele>
        <time>2022-07-26T07:18:21Z</time>
      </trkpt>
      <trkpt lat="45.67402" lon="6.69593">
        <ele>2116</ele>
        <time>2022-07-26T07:18:22Z</time>
      </trkpt>
      <trkpt lat="45.67402" lon="6.69593">
        <ele>2116</ele>
        <time>2022-07-26T07:18:23Z</time>
      </trkpt>
      <trkpt lat="45.67399" lon="6.6959">
        <ele>2119</ele>
        <time>2022-07-26T07:18:47Z</time>
      </trkpt>
      <trkpt lat="45.67397" lon="6.69589">
        <ele>2119</ele>
        <time>2022-07-26T07:18:48Z</time>
      </trkpt>
      <trkpt lat="45.67395" lon="6.69588">
        <ele>2119</ele>
        <time>2022-07-26T07:18:49Z</time>
      </trkpt>
      <trkpt lat="45.67394" lon="6.69587">
        <ele>2119</ele>
        <time>2022-07-26T07:18:50Z</time>
      </trkpt>
      <trkpt lat="45.67393" lon="6.69587">
        <ele>2119</ele>
        <time>2022-07-26T07:18:51Z</time>
      </trkpt>
      <trkpt lat="45.67392" lon="6.69587">
        <ele>2120</ele>
        <time>2022-07-26T07:18:52Z</time>
      </trkpt>
      <trkpt lat="45.67392" lon="6.69587">
        <ele>2120</ele>
        <time>2022-07-26T07:18:53Z</time>
      </trkpt>
      <trkpt lat="45.67391" lon="6.69586">
        <ele>2120</ele>
        <time>2022-07-26T07:18:54Z</time>
      </trkpt>
      <trkpt lat="45.67391" lon="6.69586">
        <ele>2121</ele>
        <time>2022-07-26T07:18:55Z</time>
      </trkpt>
      <trkpt lat="45.67391" lon="6.69585">
        <ele>2121</ele>
        <time>2022-07-26T07:18:56Z</time>
      </trkpt>
      <trkpt lat="45.67391" lon="6.69584">
        <ele>2122</ele>
        <time>2022-07-26T07:18:57Z</time>
      </trkpt>
      <trkpt lat="45.6739" lon="6.69582">
        <ele>2122</ele>
        <time>2022-07-26T07:19:04Z</time>
      </trkpt>
      <trkpt lat="45.6739" lon="6.69581">
        <ele>2122</ele>
        <time>2022-07-26T07:19:05Z</time>
      </trkpt>
      <trkpt lat="45.6739" lon="6.6958">
        <ele>2122</ele>
        <time>2022-07-26T07:19:06Z</time>
      </trkpt>
      <trkpt lat="45.6739" lon="6.69579">
        <ele>2123</ele>
        <time>2022-07-26T07:19:07Z</time>
      </trkpt>
      <trkpt lat="45.67389" lon="6.69578">
        <ele>2123</ele>
        <time>2022-07-26T07:19:08Z</time>
      </trkpt>
      <trkpt lat="45.67389" lon="6.69578">
        <ele>2123</ele>
        <time>2022-07-26T07:19:09Z</time>
      </trkpt>
      <trkpt lat="45.67389" lon="6.69577">
        <ele>2123</ele>
        <time>2022-07-26T07:19:10Z</time>
      </trkpt>
      <trkpt lat="45.67389" lon="6.69577">
        <ele>2123</ele>
        <time>2022-07-26T07:19:11Z</time>
      </trkpt>
      <trkpt lat="45.67389" lon="6.69577">
        <ele>2123</ele>
        <time>2022-07-26T07:19:12Z</time>
      </trkpt>
      <trkpt lat="45.67389" lon="6.69576">
        <ele>2123</ele>
        <time>2022-07-26T07:19:13Z</time>
      </trkpt>
      <trkpt lat="45.67389" lon="6.69575">
        <ele>2123</ele>
        <time>2022-07-26T07:19:14Z</time>
      </trkpt>
      <trkpt lat="45.67389" lon="6.69574">
        <ele>2123</ele>
        <time>2022-07-26T07:19:15Z</time>
      </trkpt>
      <trkpt lat="45.67389" lon="6.69573">
        <ele>2123</ele>
        <time>2022-07-26T07:19:16Z</time>
      </trkpt>
      <trkpt lat="45.67389" lon="6.69572">
        <ele>2124</ele>
        <time>2022-07-26T07:19:17Z</time>
      </trkpt>
      <trkpt lat="45.67388" lon="6.69571">
        <ele>2124</ele>
        <time>2022-07-26T07:19:18Z</time>
      </trkpt>
      <trkpt lat="45.67388" lon="6.69571">
        <ele>2124</ele>
        <time>2022-07-26T07:19:19Z</time>
      </trkpt>
      <trkpt lat="45.67388" lon="6.6957">
        <ele>2124</ele>
        <time>2022-07-26T07:19:20Z</time>
      </trkpt>
      <trkpt lat="45.67388" lon="6.6957">
        <ele>2124</ele>
        <time>2022-07-26T07:19:21Z</time>
      </trkpt>
      <trkpt lat="45.67388" lon="6.6957">
        <ele>2125</ele>
        <time>2022-07-26T07:19:22Z</time>
      </trkpt>
      <trkpt lat="45.67388" lon="6.69569">
        <ele>2125</ele>
        <time>2022-07-26T07:19:23Z</time>
      </trkpt>
      <trkpt lat="45.67387" lon="6.69568">
        <ele>2125</ele>
        <time>2022-07-26T07:19:24Z</time>
      </trkpt>
      <trkpt lat="45.67387" lon="6.69567">
        <ele>2125</ele>
        <time>2022-07-26T07:19:25Z</time>
      </trkpt>
      <trkpt lat="45.67387" lon="6.69566">
        <ele>2125</ele>
        <time>2022-07-26T07:19:26Z</time>
      </trkpt>
      <trkpt lat="45.67386" lon="6.69565">
        <ele>2125</ele>
        <time>2022-07-26T07:19:27Z</time>
      </trkpt>
      <trkpt lat="45.67386" lon="6.69565">
        <ele>2125</ele>
        <time>2022-07-26T07:19:28Z</time>
      </trkpt>
      <trkpt lat="45.67385" lon="6.69564">
        <ele>2125</ele>
        <time>2022-07-26T07:19:29Z</time>
      </trkpt>
      <trkpt lat="45.67385" lon="6.69564">
        <ele>2125</ele>
        <time>2022-07-26T07:19:30Z</time>
      </trkpt>
      <trkpt lat="45.67384" lon="6.69563">
        <ele>2126</ele>
        <time>2022-07-26T07:19:40Z</time>
      </trkpt>
      <trkpt lat="45.67383" lon="6.69562">
        <ele>2126</ele>
        <time>2022-07-26T07:19:41Z</time>
      </trkpt>
      <trkpt lat="45.67382" lon="6.69562">
        <ele>2126</ele>
        <time>2022-07-26T07:19:42Z</time>
      </trkpt>
      <trkpt lat="45.67382" lon="6.69561">
        <ele>2126</ele>
        <time>2022-07-26T07:19:43Z</time>
      </trkpt>
      <trkpt lat="45.67381" lon="6.69561">
        <ele>2126</ele>
        <time>2022-07-26T07:19:44Z</time>
      </trkpt>
      <trkpt lat="45.67379" lon="6.69561">
        <ele>2127</ele>
        <time>2022-07-26T07:19:54Z</time>
      </trkpt>
      <trkpt lat="45.67378" lon="6.69561">
        <ele>2127</ele>
        <time>2022-07-26T07:19:55Z</time>
      </trkpt>
      <trkpt lat="45.67377" lon="6.69561">
        <ele>2127</ele>
        <time>2022-07-26T07:19:56Z</time>
      </trkpt>
      <trkpt lat="45.67377" lon="6.69561">
        <ele>2128</ele>
        <time>2022-07-26T07:19:57Z</time>
      </trkpt>
      <trkpt lat="45.67376" lon="6.69561">
        <ele>2128</ele>
        <time>2022-07-26T07:19:58Z</time>
      </trkpt>
      <trkpt lat="45.67375" lon="6.69561">
        <ele>2128</ele>
        <time>2022-07-26T07:19:59Z</time>
      </trkpt>
      <trkpt lat="45.67375" lon="6.69561">
        <ele>2128</ele>
        <time>2022-07-26T07:20:00Z</time>
      </trkpt>
      <trkpt lat="45.67374" lon="6.69562">
        <ele>2128</ele>
        <time>2022-07-26T07:20:01Z</time>
      </trkpt>
      <trkpt lat="45.67372" lon="6.69564">
        <ele>2130</ele>
        <time>2022-07-26T07:20:15Z</time>
      </trkpt>
      <trkpt lat="45.67371" lon="6.69565">
        <ele>2130</ele>
        <time>2022-07-26T07:20:16Z</time>
      </trkpt>
      <trkpt lat="45.6737" lon="6.69566">
        <ele>2131</ele>
        <time>2022-07-26T07:20:17Z</time>
      </trkpt>
      <trkpt lat="45.67368" lon="6.69568">
        <ele>2132</ele>
        <time>2022-07-26T07:20:27Z</time>
      </trkpt>
      <trkpt lat="45.67367" lon="6.69568">
        <ele>2132</ele>
        <time>2022-07-26T07:20:28Z</time>
      </trkpt>
      <trkpt lat="45.67367" lon="6.69569">
        <ele>2132</ele>
        <time>2022-07-26T07:20:29Z</time>
      </trkpt>
      <trkpt lat="45.67366" lon="6.69569">
        <ele>2132</ele>
        <time>2022-07-26T07:20:30Z</time>
      </trkpt>
      <trkpt lat="45.67365" lon="6.6957">
        <ele>2132</ele>
        <time>2022-07-26T07:20:31Z</time>
      </trkpt>
      <trkpt lat="45.67365" lon="6.6957">
        <ele>2133</ele>
        <time>2022-07-26T07:20:32Z</time>
      </trkpt>
      <trkpt lat="45.67365" lon="6.6957">
        <ele>2133</ele>
        <time>2022-07-26T07:20:33Z</time>
      </trkpt>
      <trkpt lat="45.67364" lon="6.69571">
        <ele>2133</ele>
        <time>2022-07-26T07:20:34Z</time>
      </trkpt>
      <trkpt lat="45.67364" lon="6.69571">
        <ele>2133</ele>
        <time>2022-07-26T07:20:35Z</time>
      </trkpt>
      <trkpt lat="45.67363" lon="6.69571">
        <ele>2133</ele>
        <time>2022-07-26T07:20:36Z</time>
      </trkpt>
      <trkpt lat="45.67363" lon="6.69572">
        <ele>2133</ele>
        <time>2022-07-26T07:20:37Z</time>
      </trkpt>
      <trkpt lat="45.67362" lon="6.69571">
        <ele>2134</ele>
        <time>2022-07-26T07:20:48Z</time>
      </trkpt>
      <trkpt lat="45.67362" lon="6.69571">
        <ele>2134</ele>
        <time>2022-07-26T07:20:49Z</time>
      </trkpt>
      <trkpt lat="45.67362" lon="6.69571">
        <ele>2134</ele>
        <time>2022-07-26T07:20:50Z</time>
      </trkpt>
      <trkpt lat="45.67361" lon="6.69571">
        <ele>2134</ele>
        <time>2022-07-26T07:20:51Z</time>
      </trkpt>
      <trkpt lat="45.67361" lon="6.6957">
        <ele>2134</ele>
        <time>2022-07-26T07:20:52Z</time>
      </trkpt>
      <trkpt lat="45.6736" lon="6.6957">
        <ele>2134</ele>
        <time>2022-07-26T07:20:53Z</time>
      </trkpt>
      <trkpt lat="45.6736" lon="6.6957">
        <ele>2134</ele>
        <time>2022-07-26T07:20:54Z</time>
      </trkpt>
      <trkpt lat="45.67359" lon="6.6957">
        <ele>2134</ele>
        <time>2022-07-26T07:20:55Z</time>
      </trkpt>
      <trkpt lat="45.67358" lon="6.6957">
        <ele>2134</ele>
        <time>2022-07-26T07:20:56Z</time>
      </trkpt>
      <trkpt lat="45.67358" lon="6.69569">
        <ele>2135</ele>
        <time>2022-07-26T07:20:57Z</time>
      </trkpt>
      <trkpt lat="45.67358" lon="6.69569">
        <ele>2135</ele>
        <time>2022-07-26T07:20:58Z</time>
      </trkpt>
      <trkpt lat="45.67357" lon="6.69569">
        <ele>2135</ele>
        <time>2022-07-26T07:20:59Z</time>
      </trkpt>
      <trkpt lat="45.67357" lon="6.69569">
        <ele>2135</ele>
        <time>2022-07-26T07:21:00Z</time>
      </trkpt>
      <trkpt lat="45.67357" lon="6.69569">
        <ele>2135</ele>
        <time>2022-07-26T07:21:01Z</time>
      </trkpt>
      <trkpt lat="45.67356" lon="6.69568">
        <ele>2136</ele>
        <time>2022-07-26T07:21:02Z</time>
      </trkpt>
      <trkpt lat="45.67356" lon="6.69568">
        <ele>2136</ele>
        <time>2022-07-26T07:21:03Z</time>
      </trkpt>
      <trkpt lat="45.67354" lon="6.69565">
        <ele>2137</ele>
        <time>2022-07-26T07:21:21Z</time>
      </trkpt>
      <trkpt lat="45.67353" lon="6.69564">
        <ele>2137</ele>
        <time>2022-07-26T07:21:22Z</time>
      </trkpt>
      <trkpt lat="45.67352" lon="6.69562">
        <ele>2137</ele>
        <time>2022-07-26T07:21:23Z</time>
      </trkpt>
      <trkpt lat="45.67351" lon="6.69561">
        <ele>2137</ele>
        <time>2022-07-26T07:21:24Z</time>
      </trkpt>
      <trkpt lat="45.6735" lon="6.69561">
        <ele>2137</ele>
        <time>2022-07-26T07:21:25Z</time>
      </trkpt>
      <trkpt lat="45.6735" lon="6.6956">
        <ele>2137</ele>
        <time>2022-07-26T07:21:26Z</time>
      </trkpt>
      <trkpt lat="45.67349" lon="6.69559">
        <ele>2138</ele>
        <time>2022-07-26T07:21:27Z</time>
      </trkpt>
      <trkpt lat="45.67349" lon="6.69558">
        <ele>2138</ele>
        <time>2022-07-26T07:21:28Z</time>
      </trkpt>
      <trkpt lat="45.67348" lon="6.69557">
        <ele>2138</ele>
        <time>2022-07-26T07:21:29Z</time>
      </trkpt>
      <trkpt lat="45.67347" lon="6.69556">
        <ele>2138</ele>
        <time>2022-07-26T07:21:30Z</time>
      </trkpt>
      <trkpt lat="45.67347" lon="6.69555">
        <ele>2138</ele>
        <time>2022-07-26T07:21:31Z</time>
      </trkpt>
      <trkpt lat="45.67346" lon="6.69555">
        <ele>2138</ele>
        <time>2022-07-26T07:21:32Z</time>
      </trkpt>
      <trkpt lat="45.67345" lon="6.69554">
        <ele>2138</ele>
        <time>2022-07-26T07:21:33Z</time>
      </trkpt>
      <trkpt lat="45.67345" lon="6.69554">
        <ele>2138</ele>
        <time>2022-07-26T07:21:34Z</time>
      </trkpt>
      <trkpt lat="45.67344" lon="6.69554">
        <ele>2138</ele>
        <time>2022-07-26T07:21:35Z</time>
      </trkpt>
      <trkpt lat="45.67344" lon="6.69554">
        <ele>2138</ele>
        <time>2022-07-26T07:21:36Z</time>
      </trkpt>
      <trkpt lat="45.67343" lon="6.69554">
        <ele>2139</ele>
        <time>2022-07-26T07:21:37Z</time>
      </trkpt>
      <trkpt lat="45.67342" lon="6.69554">
        <ele>2140</ele>
        <time>2022-07-26T07:21:47Z</time>
      </trkpt>
      <trkpt lat="45.67341" lon="6.69554">
        <ele>2140</ele>
        <time>2022-07-26T07:21:48Z</time>
      </trkpt>
      <trkpt lat="45.6734" lon="6.69553">
        <ele>2140</ele>
        <time>2022-07-26T07:21:49Z</time>
      </trkpt>
      <trkpt lat="45.67339" lon="6.69553">
        <ele>2140</ele>
        <time>2022-07-26T07:21:50Z</time>
      </trkpt>
      <trkpt lat="45.67338" lon="6.69553">
        <ele>2140</ele>
        <time>2022-07-26T07:21:51Z</time>
      </trkpt>
      <trkpt lat="45.67337" lon="6.69553">
        <ele>2141</ele>
        <time>2022-07-26T07:22:18Z</time>
      </trkpt>
      <trkpt lat="45.67337" lon="6.69553">
        <ele>2141</ele>
        <time>2022-07-26T07:22:19Z</time>
      </trkpt>
      <trkpt lat="45.67337" lon="6.69553">
        <ele>2141</ele>
        <time>2022-07-26T07:22:20Z</time>
      </trkpt>
      <trkpt lat="45.67336" lon="6.69553">
        <ele>2141</ele>
        <time>2022-07-26T07:22:21Z</time>
      </trkpt>
      <trkpt lat="45.67336" lon="6.69553">
        <ele>2142</ele>
        <time>2022-07-26T07:22:22Z</time>
      </trkpt>
      <trkpt lat="45.67335" lon="6.69553">
        <ele>2142</ele>
        <time>2022-07-26T07:22:23Z</time>
      </trkpt>
      <trkpt lat="45.67334" lon="6.69552">
        <ele>2142</ele>
        <time>2022-07-26T07:22:24Z</time>
      </trkpt>
      <trkpt lat="45.67333" lon="6.69552">
        <ele>2142</ele>
        <time>2022-07-26T07:22:25Z</time>
      </trkpt>
      <trkpt lat="45.67332" lon="6.69552">
        <ele>2142</ele>
        <time>2022-07-26T07:22:26Z</time>
      </trkpt>
      <trkpt lat="45.67332" lon="6.69552">
        <ele>2142</ele>
        <time>2022-07-26T07:22:27Z</time>
      </trkpt>
      <trkpt lat="45.67331" lon="6.69551">
        <ele>2142</ele>
        <time>2022-07-26T07:22:28Z</time>
      </trkpt>
      <trkpt lat="45.6733" lon="6.69551">
        <ele>2142</ele>
        <time>2022-07-26T07:22:29Z</time>
      </trkpt>
      <trkpt lat="45.6733" lon="6.69551">
        <ele>2142</ele>
        <time>2022-07-26T07:22:30Z</time>
      </trkpt>
      <trkpt lat="45.67329" lon="6.69551">
        <ele>2142</ele>
        <time>2022-07-26T07:22:31Z</time>
      </trkpt>
      <trkpt lat="45.67328" lon="6.69551">
        <ele>2143</ele>
        <time>2022-07-26T07:22:32Z</time>
      </trkpt>
      <trkpt lat="45.67328" lon="6.6955">
        <ele>2143</ele>
        <time>2022-07-26T07:22:33Z</time>
      </trkpt>
      <trkpt lat="45.67327" lon="6.6955">
        <ele>2143</ele>
        <time>2022-07-26T07:22:34Z</time>
      </trkpt>
      <trkpt lat="45.67326" lon="6.6955">
        <ele>2143</ele>
        <time>2022-07-26T07:22:35Z</time>
      </trkpt>
      <trkpt lat="45.67326" lon="6.69549">
        <ele>2143</ele>
        <time>2022-07-26T07:22:36Z</time>
      </trkpt>
      <trkpt lat="45.67325" lon="6.69549">
        <ele>2144</ele>
        <time>2022-07-26T07:22:37Z</time>
      </trkpt>
      <trkpt lat="45.67323" lon="6.69548">
        <ele>2144</ele>
        <time>2022-07-26T07:22:43Z</time>
      </trkpt>
      <trkpt lat="45.67322" lon="6.69547">
        <ele>2144</ele>
        <time>2022-07-26T07:22:44Z</time>
      </trkpt>
      <trkpt lat="45.67321" lon="6.69546">
        <ele>2144</ele>
        <time>2022-07-26T07:22:45Z</time>
      </trkpt>
      <trkpt lat="45.67321" lon="6.69546">
        <ele>2144</ele>
        <time>2022-07-26T07:22:46Z</time>
      </trkpt>
      <trkpt lat="45.6732" lon="6.69545">
        <ele>2145</ele>
        <time>2022-07-26T07:22:47Z</time>
      </trkpt>
      <trkpt lat="45.67319" lon="6.69545">
        <ele>2145</ele>
        <time>2022-07-26T07:22:48Z</time>
      </trkpt>
      <trkpt lat="45.67319" lon="6.69544">
        <ele>2145</ele>
        <time>2022-07-26T07:22:49Z</time>
      </trkpt>
      <trkpt lat="45.67318" lon="6.69544">
        <ele>2145</ele>
        <time>2022-07-26T07:22:50Z</time>
      </trkpt>
      <trkpt lat="45.67318" lon="6.69544">
        <ele>2145</ele>
        <time>2022-07-26T07:22:51Z</time>
      </trkpt>
      <trkpt lat="45.67317" lon="6.69544">
        <ele>2146</ele>
        <time>2022-07-26T07:22:52Z</time>
      </trkpt>
      <trkpt lat="45.67316" lon="6.69543">
        <ele>2146</ele>
        <time>2022-07-26T07:22:53Z</time>
      </trkpt>
      <trkpt lat="45.67316" lon="6.69543">
        <ele>2146</ele>
        <time>2022-07-26T07:22:54Z</time>
      </trkpt>
      <trkpt lat="45.67315" lon="6.69543">
        <ele>2146</ele>
        <time>2022-07-26T07:22:55Z</time>
      </trkpt>
      <trkpt lat="45.67314" lon="6.69543">
        <ele>2146</ele>
        <time>2022-07-26T07:22:56Z</time>
      </trkpt>
      <trkpt lat="45.67314" lon="6.69542">
        <ele>2147</ele>
        <time>2022-07-26T07:22:57Z</time>
      </trkpt>
      <trkpt lat="45.67313" lon="6.69542">
        <ele>2147</ele>
        <time>2022-07-26T07:22:58Z</time>
      </trkpt>
      <trkpt lat="45.67312" lon="6.69542">
        <ele>2147</ele>
        <time>2022-07-26T07:22:59Z</time>
      </trkpt>
      <trkpt lat="45.67312" lon="6.69542">
        <ele>2148</ele>
        <time>2022-07-26T07:23:00Z</time>
      </trkpt>
      <trkpt lat="45.67311" lon="6.69541">
        <ele>2148</ele>
        <time>2022-07-26T07:23:01Z</time>
      </trkpt>
      <trkpt lat="45.6731" lon="6.69541">
        <ele>2149</ele>
        <time>2022-07-26T07:23:02Z</time>
      </trkpt>
      <trkpt lat="45.6731" lon="6.6954">
        <ele>2149</ele>
        <time>2022-07-26T07:23:03Z</time>
      </trkpt>
      <trkpt lat="45.67309" lon="6.6954">
        <ele>2149</ele>
        <time>2022-07-26T07:23:04Z</time>
      </trkpt>
      <trkpt lat="45.67308" lon="6.69539">
        <ele>2149</ele>
        <time>2022-07-26T07:23:05Z</time>
      </trkpt>
      <trkpt lat="45.67308" lon="6.69538">
        <ele>2149</ele>
        <time>2022-07-26T07:23:06Z</time>
      </trkpt>
      <trkpt lat="45.67307" lon="6.69538">
        <ele>2149</ele>
        <time>2022-07-26T07:23:07Z</time>
      </trkpt>
      <trkpt lat="45.67306" lon="6.69537">
        <ele>2149</ele>
        <time>2022-07-26T07:23:08Z</time>
      </trkpt>
      <trkpt lat="45.67306" lon="6.69536">
        <ele>2149</ele>
        <time>2022-07-26T07:23:09Z</time>
      </trkpt>
      <trkpt lat="45.67305" lon="6.69535">
        <ele>2149</ele>
        <time>2022-07-26T07:23:10Z</time>
      </trkpt>
      <trkpt lat="45.67305" lon="6.69535">
        <ele>2149</ele>
        <time>2022-07-26T07:23:11Z</time>
      </trkpt>
      <trkpt lat="45.67304" lon="6.69534">
        <ele>2150</ele>
        <time>2022-07-26T07:23:12Z</time>
      </trkpt>
      <trkpt lat="45.67304" lon="6.69534">
        <ele>2150</ele>
        <time>2022-07-26T07:23:13Z</time>
      </trkpt>
      <trkpt lat="45.67303" lon="6.69533">
        <ele>2150</ele>
        <time>2022-07-26T07:23:14Z</time>
      </trkpt>
      <trkpt lat="45.67302" lon="6.69532">
        <ele>2150</ele>
        <time>2022-07-26T07:23:15Z</time>
      </trkpt>
      <trkpt lat="45.67302" lon="6.69532">
        <ele>2150</ele>
        <time>2022-07-26T07:23:16Z</time>
      </trkpt>
      <trkpt lat="45.67301" lon="6.69531">
        <ele>2150</ele>
        <time>2022-07-26T07:23:17Z</time>
      </trkpt>
      <trkpt lat="45.67301" lon="6.6953">
        <ele>2150</ele>
        <time>2022-07-26T07:23:18Z</time>
      </trkpt>
      <trkpt lat="45.673" lon="6.6953">
        <ele>2150</ele>
        <time>2022-07-26T07:23:19Z</time>
      </trkpt>
      <trkpt lat="45.673" lon="6.69529">
        <ele>2150</ele>
        <time>2022-07-26T07:23:20Z</time>
      </trkpt>
      <trkpt lat="45.67299" lon="6.69528">
        <ele>2150</ele>
        <time>2022-07-26T07:23:21Z</time>
      </trkpt>
      <trkpt lat="45.67299" lon="6.69528">
        <ele>2151</ele>
        <time>2022-07-26T07:23:22Z</time>
      </trkpt>
      <trkpt lat="45.67299" lon="6.69527">
        <ele>2151</ele>
        <time>2022-07-26T07:23:23Z</time>
      </trkpt>
      <trkpt lat="45.67298" lon="6.69527">
        <ele>2151</ele>
        <time>2022-07-26T07:23:24Z</time>
      </trkpt>
      <trkpt lat="45.67298" lon="6.69526">
        <ele>2151</ele>
        <time>2022-07-26T07:23:25Z</time>
      </trkpt>
      <trkpt lat="45.67297" lon="6.69525">
        <ele>2151</ele>
        <time>2022-07-26T07:23:26Z</time>
      </trkpt>
      <trkpt lat="45.67297" lon="6.69524">
        <ele>2152</ele>
        <time>2022-07-26T07:23:27Z</time>
      </trkpt>
      <trkpt lat="45.67296" lon="6.69524">
        <ele>2152</ele>
        <time>2022-07-26T07:23:28Z</time>
      </trkpt>
      <trkpt lat="45.67296" lon="6.69523">
        <ele>2152</ele>
        <time>2022-07-26T07:23:29Z</time>
      </trkpt>
      <trkpt lat="45.67296" lon="6.69522">
        <ele>2152</ele>
        <time>2022-07-26T07:23:30Z</time>
      </trkpt>
      <trkpt lat="45.67295" lon="6.69522">
        <ele>2152</ele>
        <time>2022-07-26T07:23:31Z</time>
      </trkpt>
      <trkpt lat="45.67295" lon="6.69521">
        <ele>2153</ele>
        <time>2022-07-26T07:23:32Z</time>
      </trkpt>
      <trkpt lat="45.67295" lon="6.69521">
        <ele>2153</ele>
        <time>2022-07-26T07:23:33Z</time>
      </trkpt>
      <trkpt lat="45.67295" lon="6.6952">
        <ele>2153</ele>
        <time>2022-07-26T07:23:34Z</time>
      </trkpt>
      <trkpt lat="45.67295" lon="6.6952">
        <ele>2153</ele>
        <time>2022-07-26T07:23:35Z</time>
      </trkpt>
      <trkpt lat="45.67295" lon="6.6952">
        <ele>2153</ele>
        <time>2022-07-26T07:23:36Z</time>
      </trkpt>
      <trkpt lat="45.67295" lon="6.6952">
        <ele>2153</ele>
        <time>2022-07-26T07:23:37Z</time>
      </trkpt>
      <trkpt lat="45.67295" lon="6.69519">
        <ele>2153</ele>
        <time>2022-07-26T07:23:38Z</time>
      </trkpt>
      <trkpt lat="45.67295" lon="6.69518">
        <ele>2153</ele>
        <time>2022-07-26T07:23:39Z</time>
      </trkpt>
      <trkpt lat="45.67294" lon="6.69517">
        <ele>2153</ele>
        <time>2022-07-26T07:23:40Z</time>
      </trkpt>
      <trkpt lat="45.67294" lon="6.69517">
        <ele>2153</ele>
        <time>2022-07-26T07:23:41Z</time>
      </trkpt>
      <trkpt lat="45.67294" lon="6.69516">
        <ele>2154</ele>
        <time>2022-07-26T07:23:42Z</time>
      </trkpt>
      <trkpt lat="45.67293" lon="6.69515">
        <ele>2154</ele>
        <time>2022-07-26T07:23:43Z</time>
      </trkpt>
      <trkpt lat="45.67293" lon="6.69514">
        <ele>2154</ele>
        <time>2022-07-26T07:23:44Z</time>
      </trkpt>
      <trkpt lat="45.67292" lon="6.69514">
        <ele>2154</ele>
        <time>2022-07-26T07:24:02Z</time>
      </trkpt>
      <trkpt lat="45.67292" lon="6.69513">
        <ele>2154</ele>
        <time>2022-07-26T07:24:03Z</time>
      </trkpt>
      <trkpt lat="45.67291" lon="6.69513">
        <ele>2154</ele>
        <time>2022-07-26T07:24:04Z</time>
      </trkpt>
      <trkpt lat="45.67289" lon="6.69512">
        <ele>2157</ele>
        <time>2022-07-26T07:24:46Z</time>
      </trkpt>
      <trkpt lat="45.67287" lon="6.69512">
        <ele>2157</ele>
        <time>2022-07-26T07:24:47Z</time>
      </trkpt>
      <trkpt lat="45.67286" lon="6.69511">
        <ele>2157</ele>
        <time>2022-07-26T07:24:48Z</time>
      </trkpt>
      <trkpt lat="45.67285" lon="6.69511">
        <ele>2157</ele>
        <time>2022-07-26T07:24:49Z</time>
      </trkpt>
      <trkpt lat="45.67284" lon="6.6951">
        <ele>2157</ele>
        <time>2022-07-26T07:24:50Z</time>
      </trkpt>
      <trkpt lat="45.67283" lon="6.69509">
        <ele>2157</ele>
        <time>2022-07-26T07:24:51Z</time>
      </trkpt>
      <trkpt lat="45.67282" lon="6.69509">
        <ele>2157</ele>
        <time>2022-07-26T07:24:52Z</time>
      </trkpt>
      <trkpt lat="45.67282" lon="6.69508">
        <ele>2157</ele>
        <time>2022-07-26T07:24:53Z</time>
      </trkpt>
      <trkpt lat="45.67281" lon="6.69507">
        <ele>2157</ele>
        <time>2022-07-26T07:24:54Z</time>
      </trkpt>
      <trkpt lat="45.67281" lon="6.69507">
        <ele>2157</ele>
        <time>2022-07-26T07:24:55Z</time>
      </trkpt>
      <trkpt lat="45.67281" lon="6.69507">
        <ele>2157</ele>
        <time>2022-07-26T07:24:56Z</time>
      </trkpt>
      <trkpt lat="45.6728" lon="6.69507">
        <ele>2158</ele>
        <time>2022-07-26T07:24:57Z</time>
      </trkpt>
      <trkpt lat="45.6728" lon="6.69507">
        <ele>2158</ele>
        <time>2022-07-26T07:24:58Z</time>
      </trkpt>
      <trkpt lat="45.6728" lon="6.69507">
        <ele>2158</ele>
        <time>2022-07-26T07:24:59Z</time>
      </trkpt>
      <trkpt lat="45.6728" lon="6.69506">
        <ele>2158</ele>
        <time>2022-07-26T07:25:00Z</time>
      </trkpt>
      <trkpt lat="45.67279" lon="6.69506">
        <ele>2158</ele>
        <time>2022-07-26T07:25:01Z</time>
      </trkpt>
      <trkpt lat="45.67279" lon="6.69506">
        <ele>2158</ele>
        <time>2022-07-26T07:25:02Z</time>
      </trkpt>
      <trkpt lat="45.67278" lon="6.69506">
        <ele>2158</ele>
        <time>2022-07-26T07:25:03Z</time>
      </trkpt>
      <trkpt lat="45.67277" lon="6.69506">
        <ele>2158</ele>
        <time>2022-07-26T07:25:04Z</time>
      </trkpt>
      <trkpt lat="45.67277" lon="6.69505">
        <ele>2158</ele>
        <time>2022-07-26T07:25:05Z</time>
      </trkpt>
      <trkpt lat="45.67276" lon="6.69505">
        <ele>2158</ele>
        <time>2022-07-26T07:25:06Z</time>
      </trkpt>
      <trkpt lat="45.67275" lon="6.69505">
        <ele>2158</ele>
        <time>2022-07-26T07:25:07Z</time>
      </trkpt>
      <trkpt lat="45.67274" lon="6.69504">
        <ele>2158</ele>
        <time>2022-07-26T07:25:08Z</time>
      </trkpt>
      <trkpt lat="45.67273" lon="6.69503">
        <ele>2158</ele>
        <time>2022-07-26T07:25:09Z</time>
      </trkpt>
      <trkpt lat="45.67273" lon="6.69502">
        <ele>2158</ele>
        <time>2022-07-26T07:25:10Z</time>
      </trkpt>
      <trkpt lat="45.67272" lon="6.69501">
        <ele>2158</ele>
        <time>2022-07-26T07:25:11Z</time>
      </trkpt>
      <trkpt lat="45.67271" lon="6.695">
        <ele>2159</ele>
        <time>2022-07-26T07:25:12Z</time>
      </trkpt>
      <trkpt lat="45.6727" lon="6.69499">
        <ele>2159</ele>
        <time>2022-07-26T07:25:13Z</time>
      </trkpt>
      <trkpt lat="45.67269" lon="6.69498">
        <ele>2159</ele>
        <time>2022-07-26T07:25:14Z</time>
      </trkpt>
      <trkpt lat="45.67268" lon="6.69497">
        <ele>2159</ele>
        <time>2022-07-26T07:25:15Z</time>
      </trkpt>
      <trkpt lat="45.67267" lon="6.69497">
        <ele>2159</ele>
        <time>2022-07-26T07:25:16Z</time>
      </trkpt>
      <trkpt lat="45.67266" lon="6.69496">
        <ele>2159</ele>
        <time>2022-07-26T07:25:17Z</time>
      </trkpt>
      <trkpt lat="45.67265" lon="6.69495">
        <ele>2159</ele>
        <time>2022-07-26T07:25:18Z</time>
      </trkpt>
      <trkpt lat="45.67264" lon="6.69495">
        <ele>2159</ele>
        <time>2022-07-26T07:25:19Z</time>
      </trkpt>
      <trkpt lat="45.67263" lon="6.69494">
        <ele>2159</ele>
        <time>2022-07-26T07:25:20Z</time>
      </trkpt>
      <trkpt lat="45.67262" lon="6.69494">
        <ele>2159</ele>
        <time>2022-07-26T07:25:21Z</time>
      </trkpt>
      <trkpt lat="45.67261" lon="6.69493">
        <ele>2160</ele>
        <time>2022-07-26T07:25:22Z</time>
      </trkpt>
      <trkpt lat="45.67259" lon="6.69493">
        <ele>2160</ele>
        <time>2022-07-26T07:25:23Z</time>
      </trkpt>
      <trkpt lat="45.67258" lon="6.69492">
        <ele>2160</ele>
        <time>2022-07-26T07:25:24Z</time>
      </trkpt>
      <trkpt lat="45.67257" lon="6.69491">
        <ele>2160</ele>
        <time>2022-07-26T07:25:25Z</time>
      </trkpt>
      <trkpt lat="45.67256" lon="6.6949">
        <ele>2160</ele>
        <time>2022-07-26T07:25:26Z</time>
      </trkpt>
      <trkpt lat="45.67255" lon="6.6949">
        <ele>2160</ele>
        <time>2022-07-26T07:25:27Z</time>
      </trkpt>
      <trkpt lat="45.67254" lon="6.69489">
        <ele>2160</ele>
        <time>2022-07-26T07:25:28Z</time>
      </trkpt>
      <trkpt lat="45.67253" lon="6.69488">
        <ele>2160</ele>
        <time>2022-07-26T07:25:29Z</time>
      </trkpt>
      <trkpt lat="45.67252" lon="6.69487">
        <ele>2160</ele>
        <time>2022-07-26T07:25:30Z</time>
      </trkpt>
      <trkpt lat="45.67252" lon="6.69487">
        <ele>2160</ele>
        <time>2022-07-26T07:25:31Z</time>
      </trkpt>
      <trkpt lat="45.67251" lon="6.69486">
        <ele>2161</ele>
        <time>2022-07-26T07:25:32Z</time>
      </trkpt>
      <trkpt lat="45.6725" lon="6.69485">
        <ele>2161</ele>
        <time>2022-07-26T07:25:33Z</time>
      </trkpt>
      <trkpt lat="45.67249" lon="6.69484">
        <ele>2161</ele>
        <time>2022-07-26T07:25:34Z</time>
      </trkpt>
      <trkpt lat="45.67248" lon="6.69483">
        <ele>2161</ele>
        <time>2022-07-26T07:25:35Z</time>
      </trkpt>
      <trkpt lat="45.67247" lon="6.69482">
        <ele>2161</ele>
        <time>2022-07-26T07:25:36Z</time>
      </trkpt>
      <trkpt lat="45.67246" lon="6.69481">
        <ele>2161</ele>
        <time>2022-07-26T07:25:37Z</time>
      </trkpt>
      <trkpt lat="45.67245" lon="6.6948">
        <ele>2161</ele>
        <time>2022-07-26T07:25:38Z</time>
      </trkpt>
      <trkpt lat="45.67244" lon="6.6948">
        <ele>2161</ele>
        <time>2022-07-26T07:25:39Z</time>
      </trkpt>
      <trkpt lat="45.67243" lon="6.69479">
        <ele>2161</ele>
        <time>2022-07-26T07:25:40Z</time>
      </trkpt>
      <trkpt lat="45.67242" lon="6.69478">
        <ele>2161</ele>
        <time>2022-07-26T07:25:41Z</time>
      </trkpt>
      <trkpt lat="45.67241" lon="6.69477">
        <ele>2162</ele>
        <time>2022-07-26T07:25:42Z</time>
      </trkpt>
      <trkpt lat="45.6724" lon="6.69476">
        <ele>2162</ele>
        <time>2022-07-26T07:25:43Z</time>
      </trkpt>
      <trkpt lat="45.67239" lon="6.69476">
        <ele>2162</ele>
        <time>2022-07-26T07:25:44Z</time>
      </trkpt>
      <trkpt lat="45.67238" lon="6.69475">
        <ele>2162</ele>
        <time>2022-07-26T07:25:45Z</time>
      </trkpt>
      <trkpt lat="45.67237" lon="6.69474">
        <ele>2162</ele>
        <time>2022-07-26T07:25:46Z</time>
      </trkpt>
      <trkpt lat="45.67236" lon="6.69473">
        <ele>2162</ele>
        <time>2022-07-26T07:25:47Z</time>
      </trkpt>
      <trkpt lat="45.67235" lon="6.69472">
        <ele>2162</ele>
        <time>2022-07-26T07:25:48Z</time>
      </trkpt>
      <trkpt lat="45.67234" lon="6.69471">
        <ele>2162</ele>
        <time>2022-07-26T07:25:49Z</time>
      </trkpt>
      <trkpt lat="45.67233" lon="6.6947">
        <ele>2162</ele>
        <time>2022-07-26T07:25:50Z</time>
      </trkpt>
      <trkpt lat="45.67232" lon="6.69468">
        <ele>2162</ele>
        <time>2022-07-26T07:25:51Z</time>
      </trkpt>
      <trkpt lat="45.67231" lon="6.69467">
        <ele>2163</ele>
        <time>2022-07-26T07:25:52Z</time>
      </trkpt>
      <trkpt lat="45.6723" lon="6.69466">
        <ele>2163</ele>
        <time>2022-07-26T07:25:53Z</time>
      </trkpt>
      <trkpt lat="45.67229" lon="6.69465">
        <ele>2163</ele>
        <time>2022-07-26T07:25:54Z</time>
      </trkpt>
      <trkpt lat="45.67228" lon="6.69464">
        <ele>2163</ele>
        <time>2022-07-26T07:25:55Z</time>
      </trkpt>
      <trkpt lat="45.67227" lon="6.69463">
        <ele>2163</ele>
        <time>2022-07-26T07:25:56Z</time>
      </trkpt>
      <trkpt lat="45.67226" lon="6.69462">
        <ele>2163</ele>
        <time>2022-07-26T07:25:57Z</time>
      </trkpt>
      <trkpt lat="45.67225" lon="6.69461">
        <ele>2163</ele>
        <time>2022-07-26T07:25:58Z</time>
      </trkpt>
      <trkpt lat="45.67225" lon="6.69461">
        <ele>2163</ele>
        <time>2022-07-26T07:25:59Z</time>
      </trkpt>
      <trkpt lat="45.67224" lon="6.6946">
        <ele>2163</ele>
        <time>2022-07-26T07:26:00Z</time>
      </trkpt>
      <trkpt lat="45.67223" lon="6.69459">
        <ele>2163</ele>
        <time>2022-07-26T07:26:01Z</time>
      </trkpt>
      <trkpt lat="45.67222" lon="6.69459">
        <ele>2163</ele>
        <time>2022-07-26T07:26:02Z</time>
      </trkpt>
      <trkpt lat="45.67221" lon="6.69458">
        <ele>2163</ele>
        <time>2022-07-26T07:26:03Z</time>
      </trkpt>
      <trkpt lat="45.6722" lon="6.69458">
        <ele>2163</ele>
        <time>2022-07-26T07:26:04Z</time>
      </trkpt>
      <trkpt lat="45.67219" lon="6.69457">
        <ele>2163</ele>
        <time>2022-07-26T07:26:05Z</time>
      </trkpt>
      <trkpt lat="45.67218" lon="6.69456">
        <ele>2163</ele>
        <time>2022-07-26T07:26:06Z</time>
      </trkpt>
      <trkpt lat="45.67217" lon="6.69455">
        <ele>2164</ele>
        <time>2022-07-26T07:26:07Z</time>
      </trkpt>
      <trkpt lat="45.67216" lon="6.69454">
        <ele>2164</ele>
        <time>2022-07-26T07:26:08Z</time>
      </trkpt>
      <trkpt lat="45.67216" lon="6.69452">
        <ele>2164</ele>
        <time>2022-07-26T07:26:09Z</time>
      </trkpt>
      <trkpt lat="45.67215" lon="6.69451">
        <ele>2164</ele>
        <time>2022-07-26T07:26:10Z</time>
      </trkpt>
      <trkpt lat="45.67215" lon="6.6945">
        <ele>2164</ele>
        <time>2022-07-26T07:26:11Z</time>
      </trkpt>
      <trkpt lat="45.67214" lon="6.69448">
        <ele>2164</ele>
        <time>2022-07-26T07:26:12Z</time>
      </trkpt>
      <trkpt lat="45.67213" lon="6.69447">
        <ele>2164</ele>
        <time>2022-07-26T07:26:13Z</time>
      </trkpt>
      <trkpt lat="45.67213" lon="6.69446">
        <ele>2164</ele>
        <time>2022-07-26T07:26:14Z</time>
      </trkpt>
      <trkpt lat="45.67212" lon="6.69445">
        <ele>2164</ele>
        <time>2022-07-26T07:26:15Z</time>
      </trkpt>
      <trkpt lat="45.67211" lon="6.69444">
        <ele>2164</ele>
        <time>2022-07-26T07:26:16Z</time>
      </trkpt>
      <trkpt lat="45.67211" lon="6.69443">
        <ele>2164</ele>
        <time>2022-07-26T07:26:17Z</time>
      </trkpt>
      <trkpt lat="45.6721" lon="6.69442">
        <ele>2164</ele>
        <time>2022-07-26T07:26:18Z</time>
      </trkpt>
      <trkpt lat="45.6721" lon="6.69442">
        <ele>2164</ele>
        <time>2022-07-26T07:26:19Z</time>
      </trkpt>
      <trkpt lat="45.67209" lon="6.69441">
        <ele>2164</ele>
        <time>2022-07-26T07:26:20Z</time>
      </trkpt>
      <trkpt lat="45.67209" lon="6.6944">
        <ele>2164</ele>
        <time>2022-07-26T07:26:21Z</time>
      </trkpt>
      <trkpt lat="45.67208" lon="6.6944">
        <ele>2165</ele>
        <time>2022-07-26T07:26:22Z</time>
      </trkpt>
      <trkpt lat="45.67207" lon="6.69439">
        <ele>2165</ele>
        <time>2022-07-26T07:26:23Z</time>
      </trkpt>
      <trkpt lat="45.67207" lon="6.69438">
        <ele>2165</ele>
        <time>2022-07-26T07:26:24Z</time>
      </trkpt>
      <trkpt lat="45.67206" lon="6.69436">
        <ele>2165</ele>
        <time>2022-07-26T07:26:25Z</time>
      </trkpt>
      <trkpt lat="45.67206" lon="6.69435">
        <ele>2165</ele>
        <time>2022-07-26T07:26:26Z</time>
      </trkpt>
      <trkpt lat="45.67205" lon="6.69434">
        <ele>2165</ele>
        <time>2022-07-26T07:26:27Z</time>
      </trkpt>
      <trkpt lat="45.67204" lon="6.69433">
        <ele>2165</ele>
        <time>2022-07-26T07:26:28Z</time>
      </trkpt>
      <trkpt lat="45.67204" lon="6.69432">
        <ele>2165</ele>
        <time>2022-07-26T07:26:29Z</time>
      </trkpt>
      <trkpt lat="45.67203" lon="6.69431">
        <ele>2165</ele>
        <time>2022-07-26T07:26:30Z</time>
      </trkpt>
      <trkpt lat="45.67202" lon="6.69431">
        <ele>2165</ele>
        <time>2022-07-26T07:26:31Z</time>
      </trkpt>
      <trkpt lat="45.67202" lon="6.6943">
        <ele>2165</ele>
        <time>2022-07-26T07:26:32Z</time>
      </trkpt>
      <trkpt lat="45.67201" lon="6.69429">
        <ele>2165</ele>
        <time>2022-07-26T07:26:33Z</time>
      </trkpt>
      <trkpt lat="45.67201" lon="6.69428">
        <ele>2165</ele>
        <time>2022-07-26T07:26:34Z</time>
      </trkpt>
      <trkpt lat="45.67201" lon="6.69427">
        <ele>2165</ele>
        <time>2022-07-26T07:26:35Z</time>
      </trkpt>
      <trkpt lat="45.67201" lon="6.69426">
        <ele>2165</ele>
        <time>2022-07-26T07:26:36Z</time>
      </trkpt>
      <trkpt lat="45.672" lon="6.69425">
        <ele>2165</ele>
        <time>2022-07-26T07:26:37Z</time>
      </trkpt>
      <trkpt lat="45.672" lon="6.69424">
        <ele>2165</ele>
        <time>2022-07-26T07:26:38Z</time>
      </trkpt>
      <trkpt lat="45.672" lon="6.69423">
        <ele>2165</ele>
        <time>2022-07-26T07:26:39Z</time>
      </trkpt>
      <trkpt lat="45.672" lon="6.69422">
        <ele>2165</ele>
        <time>2022-07-26T07:26:40Z</time>
      </trkpt>
      <trkpt lat="45.672" lon="6.69421">
        <ele>2165</ele>
        <time>2022-07-26T07:26:41Z</time>
      </trkpt>
      <trkpt lat="45.67199" lon="6.6942">
        <ele>2165</ele>
        <time>2022-07-26T07:26:42Z</time>
      </trkpt>
      <trkpt lat="45.67199" lon="6.69419">
        <ele>2165</ele>
        <time>2022-07-26T07:26:43Z</time>
      </trkpt>
      <trkpt lat="45.67199" lon="6.69418">
        <ele>2165</ele>
        <time>2022-07-26T07:26:44Z</time>
      </trkpt>
      <trkpt lat="45.672" lon="6.69418">
        <ele>2163</ele>
        <time>2022-07-26T07:33:10Z</time>
      </trkpt>
      <trkpt lat="45.672" lon="6.69418">
        <ele>2163</ele>
        <time>2022-07-26T07:33:11Z</time>
      </trkpt>
      <trkpt lat="45.67201" lon="6.69418">
        <ele>2164</ele>
        <time>2022-07-26T07:33:12Z</time>
      </trkpt>
      <trkpt lat="45.67201" lon="6.69418">
        <ele>2164</ele>
        <time>2022-07-26T07:34:10Z</time>
      </trkpt>
      <trkpt lat="45.672" lon="6.69418">
        <ele>2164</ele>
        <time>2022-07-26T07:34:11Z</time>
      </trkpt>
      <trkpt lat="45.67199" lon="6.69418">
        <ele>2164</ele>
        <time>2022-07-26T07:34:12Z</time>
      </trkpt>
      <trkpt lat="45.67199" lon="6.69418">
        <ele>2164</ele>
        <time>2022-07-26T07:34:13Z</time>
      </trkpt>
      <trkpt lat="45.67198" lon="6.69418">
        <ele>2164</ele>
        <time>2022-07-26T07:34:14Z</time>
      </trkpt>
      <trkpt lat="45.67198" lon="6.69418">
        <ele>2164</ele>
        <time>2022-07-26T07:34:15Z</time>
      </trkpt>
      <trkpt lat="45.67197" lon="6.69418">
        <ele>2164</ele>
        <time>2022-07-26T07:34:16Z</time>
      </trkpt>
      <trkpt lat="45.67196" lon="6.69418">
        <ele>2164</ele>
        <time>2022-07-26T07:34:17Z</time>
      </trkpt>
      <trkpt lat="45.67196" lon="6.69418">
        <ele>2164</ele>
        <time>2022-07-26T07:34:18Z</time>
      </trkpt>
      <trkpt lat="45.67195" lon="6.69418">
        <ele>2164</ele>
        <time>2022-07-26T07:34:19Z</time>
      </trkpt>
      <trkpt lat="45.67194" lon="6.69418">
        <ele>2164</ele>
        <time>2022-07-26T07:34:20Z</time>
      </trkpt>
      <trkpt lat="45.67193" lon="6.69417">
        <ele>2164</ele>
        <time>2022-07-26T07:34:21Z</time>
      </trkpt>
      <trkpt lat="45.67193" lon="6.69417">
        <ele>2164</ele>
        <time>2022-07-26T07:34:22Z</time>
      </trkpt>
      <trkpt lat="45.67192" lon="6.69417">
        <ele>2164</ele>
        <time>2022-07-26T07:34:23Z</time>
      </trkpt>
      <trkpt lat="45.67191" lon="6.69416">
        <ele>2164</ele>
        <time>2022-07-26T07:34:24Z</time>
      </trkpt>
      <trkpt lat="45.67191" lon="6.69416">
        <ele>2164</ele>
        <time>2022-07-26T07:34:25Z</time>
      </trkpt>
      <trkpt lat="45.6719" lon="6.69415">
        <ele>2164</ele>
        <time>2022-07-26T07:34:26Z</time>
      </trkpt>
      <trkpt lat="45.67189" lon="6.69415">
        <ele>2165</ele>
        <time>2022-07-26T07:34:27Z</time>
      </trkpt>
      <trkpt lat="45.67188" lon="6.69415">
        <ele>2165</ele>
        <time>2022-07-26T07:34:28Z</time>
      </trkpt>
      <trkpt lat="45.67188" lon="6.69415">
        <ele>2165</ele>
        <time>2022-07-26T07:34:29Z</time>
      </trkpt>
      <trkpt lat="45.67187" lon="6.69414">
        <ele>2165</ele>
        <time>2022-07-26T07:34:30Z</time>
      </trkpt>
      <trkpt lat="45.67187" lon="6.69414">
        <ele>2165</ele>
        <time>2022-07-26T07:34:31Z</time>
      </trkpt>
      <trkpt lat="45.67186" lon="6.69414">
        <ele>2165</ele>
        <time>2022-07-26T07:34:32Z</time>
      </trkpt>
      <trkpt lat="45.67185" lon="6.69414">
        <ele>2165</ele>
        <time>2022-07-26T07:34:33Z</time>
      </trkpt>
      <trkpt lat="45.67185" lon="6.69414">
        <ele>2165</ele>
        <time>2022-07-26T07:34:34Z</time>
      </trkpt>
      <trkpt lat="45.67184" lon="6.69413">
        <ele>2165</ele>
        <time>2022-07-26T07:34:35Z</time>
      </trkpt>
      <trkpt lat="45.67183" lon="6.69413">
        <ele>2165</ele>
        <time>2022-07-26T07:34:36Z</time>
      </trkpt>
      <trkpt lat="45.67182" lon="6.69413">
        <ele>2166</ele>
        <time>2022-07-26T07:34:37Z</time>
      </trkpt>
      <trkpt lat="45.67181" lon="6.69412">
        <ele>2166</ele>
        <time>2022-07-26T07:34:38Z</time>
      </trkpt>
      <trkpt lat="45.6718" lon="6.69411">
        <ele>2166</ele>
        <time>2022-07-26T07:34:39Z</time>
      </trkpt>
      <trkpt lat="45.67179" lon="6.69411">
        <ele>2166</ele>
        <time>2022-07-26T07:34:40Z</time>
      </trkpt>
      <trkpt lat="45.67178" lon="6.6941">
        <ele>2166</ele>
        <time>2022-07-26T07:34:41Z</time>
      </trkpt>
      <trkpt lat="45.67177" lon="6.69409">
        <ele>2166</ele>
        <time>2022-07-26T07:34:42Z</time>
      </trkpt>
      <trkpt lat="45.67176" lon="6.69408">
        <ele>2166</ele>
        <time>2022-07-26T07:34:43Z</time>
      </trkpt>
      <trkpt lat="45.67175" lon="6.69407">
        <ele>2166</ele>
        <time>2022-07-26T07:34:44Z</time>
      </trkpt>
      <trkpt lat="45.67175" lon="6.69406">
        <ele>2166</ele>
        <time>2022-07-26T07:34:45Z</time>
      </trkpt>
      <trkpt lat="45.67174" lon="6.69405">
        <ele>2166</ele>
        <time>2022-07-26T07:34:46Z</time>
      </trkpt>
      <trkpt lat="45.67173" lon="6.69403">
        <ele>2167</ele>
        <time>2022-07-26T07:34:47Z</time>
      </trkpt>
      <trkpt lat="45.67172" lon="6.69402">
        <ele>2167</ele>
        <time>2022-07-26T07:34:48Z</time>
      </trkpt>
      <trkpt lat="45.67172" lon="6.69401">
        <ele>2167</ele>
        <time>2022-07-26T07:34:49Z</time>
      </trkpt>
      <trkpt lat="45.67171" lon="6.694">
        <ele>2167</ele>
        <time>2022-07-26T07:34:50Z</time>
      </trkpt>
      <trkpt lat="45.6717" lon="6.69398">
        <ele>2167</ele>
        <time>2022-07-26T07:34:51Z</time>
      </trkpt>
      <trkpt lat="45.6717" lon="6.69397">
        <ele>2167</ele>
        <time>2022-07-26T07:34:52Z</time>
      </trkpt>
      <trkpt lat="45.67169" lon="6.69396">
        <ele>2167</ele>
        <time>2022-07-26T07:34:53Z</time>
      </trkpt>
      <trkpt lat="45.67169" lon="6.69396">
        <ele>2167</ele>
        <time>2022-07-26T07:34:54Z</time>
      </trkpt>
      <trkpt lat="45.67168" lon="6.69395">
        <ele>2167</ele>
        <time>2022-07-26T07:34:55Z</time>
      </trkpt>
      <trkpt lat="45.67168" lon="6.69394">
        <ele>2167</ele>
        <time>2022-07-26T07:34:56Z</time>
      </trkpt>
      <trkpt lat="45.67168" lon="6.69393">
        <ele>2167</ele>
        <time>2022-07-26T07:34:57Z</time>
      </trkpt>
      <trkpt lat="45.67167" lon="6.69392">
        <ele>2167</ele>
        <time>2022-07-26T07:34:58Z</time>
      </trkpt>
      <trkpt lat="45.67167" lon="6.69392">
        <ele>2167</ele>
        <time>2022-07-26T07:34:59Z</time>
      </trkpt>
      <trkpt lat="45.67167" lon="6.69391">
        <ele>2167</ele>
        <time>2022-07-26T07:35:00Z</time>
      </trkpt>
      <trkpt lat="45.67166" lon="6.6939">
        <ele>2167</ele>
        <time>2022-07-26T07:35:01Z</time>
      </trkpt>
      <trkpt lat="45.67166" lon="6.6939">
        <ele>2167</ele>
        <time>2022-07-26T07:35:02Z</time>
      </trkpt>
      <trkpt lat="45.67165" lon="6.69389">
        <ele>2167</ele>
        <time>2022-07-26T07:35:03Z</time>
      </trkpt>
      <trkpt lat="45.67165" lon="6.69389">
        <ele>2167</ele>
        <time>2022-07-26T07:35:04Z</time>
      </trkpt>
      <trkpt lat="45.67164" lon="6.69388">
        <ele>2167</ele>
        <time>2022-07-26T07:35:05Z</time>
      </trkpt>
      <trkpt lat="45.67163" lon="6.69388">
        <ele>2167</ele>
        <time>2022-07-26T07:35:06Z</time>
      </trkpt>
      <trkpt lat="45.67162" lon="6.69387">
        <ele>2167</ele>
        <time>2022-07-26T07:35:07Z</time>
      </trkpt>
      <trkpt lat="45.67162" lon="6.69387">
        <ele>2167</ele>
        <time>2022-07-26T07:35:08Z</time>
      </trkpt>
      <trkpt lat="45.67161" lon="6.69386">
        <ele>2167</ele>
        <time>2022-07-26T07:35:09Z</time>
      </trkpt>
      <trkpt lat="45.6716" lon="6.69386">
        <ele>2167</ele>
        <time>2022-07-26T07:35:10Z</time>
      </trkpt>
      <trkpt lat="45.67159" lon="6.69385">
        <ele>2167</ele>
        <time>2022-07-26T07:35:11Z</time>
      </trkpt>
      <trkpt lat="45.67158" lon="6.69385">
        <ele>2167</ele>
        <time>2022-07-26T07:35:12Z</time>
      </trkpt>
      <trkpt lat="45.67158" lon="6.69384">
        <ele>2167</ele>
        <time>2022-07-26T07:35:13Z</time>
      </trkpt>
      <trkpt lat="45.67157" lon="6.69383">
        <ele>2167</ele>
        <time>2022-07-26T07:35:14Z</time>
      </trkpt>
      <trkpt lat="45.67157" lon="6.69382">
        <ele>2167</ele>
        <time>2022-07-26T07:35:15Z</time>
      </trkpt>
      <trkpt lat="45.67156" lon="6.69381">
        <ele>2167</ele>
        <time>2022-07-26T07:35:16Z</time>
      </trkpt>
      <trkpt lat="45.67156" lon="6.6938">
        <ele>2167</ele>
        <time>2022-07-26T07:35:17Z</time>
      </trkpt>
      <trkpt lat="45.67156" lon="6.69378">
        <ele>2167</ele>
        <time>2022-07-26T07:35:18Z</time>
      </trkpt>
      <trkpt lat="45.67156" lon="6.69377">
        <ele>2167</ele>
        <time>2022-07-26T07:35:19Z</time>
      </trkpt>
      <trkpt lat="45.67156" lon="6.69376">
        <ele>2167</ele>
        <time>2022-07-26T07:35:20Z</time>
      </trkpt>
      <trkpt lat="45.67155" lon="6.69375">
        <ele>2167</ele>
        <time>2022-07-26T07:35:21Z</time>
      </trkpt>
      <trkpt lat="45.67155" lon="6.69374">
        <ele>2168</ele>
        <time>2022-07-26T07:35:22Z</time>
      </trkpt>
      <trkpt lat="45.67154" lon="6.69373">
        <ele>2168</ele>
        <time>2022-07-26T07:35:23Z</time>
      </trkpt>
      <trkpt lat="45.67153" lon="6.69372">
        <ele>2168</ele>
        <time>2022-07-26T07:35:24Z</time>
      </trkpt>
      <trkpt lat="45.67152" lon="6.69372">
        <ele>2168</ele>
        <time>2022-07-26T07:35:25Z</time>
      </trkpt>
      <trkpt lat="45.67152" lon="6.69372">
        <ele>2168</ele>
        <time>2022-07-26T07:35:26Z</time>
      </trkpt>
      <trkpt lat="45.67151" lon="6.69372">
        <ele>2168</ele>
        <time>2022-07-26T07:35:27Z</time>
      </trkpt>
      <trkpt lat="45.6715" lon="6.69372">
        <ele>2168</ele>
        <time>2022-07-26T07:35:28Z</time>
      </trkpt>
      <trkpt lat="45.67149" lon="6.69372">
        <ele>2168</ele>
        <time>2022-07-26T07:35:29Z</time>
      </trkpt>
      <trkpt lat="45.67149" lon="6.69372">
        <ele>2168</ele>
        <time>2022-07-26T07:35:30Z</time>
      </trkpt>
      <trkpt lat="45.67148" lon="6.69371">
        <ele>2168</ele>
        <time>2022-07-26T07:35:31Z</time>
      </trkpt>
      <trkpt lat="45.67147" lon="6.69371">
        <ele>2168</ele>
        <time>2022-07-26T07:35:32Z</time>
      </trkpt>
      <trkpt lat="45.67147" lon="6.69371">
        <ele>2168</ele>
        <time>2022-07-26T07:35:33Z</time>
      </trkpt>
      <trkpt lat="45.67146" lon="6.6937">
        <ele>2168</ele>
        <time>2022-07-26T07:35:34Z</time>
      </trkpt>
      <trkpt lat="45.67146" lon="6.6937">
        <ele>2168</ele>
        <time>2022-07-26T07:35:35Z</time>
      </trkpt>
      <trkpt lat="45.67145" lon="6.6937">
        <ele>2168</ele>
        <time>2022-07-26T07:35:36Z</time>
      </trkpt>
      <trkpt lat="45.67145" lon="6.69369">
        <ele>2168</ele>
        <time>2022-07-26T07:35:37Z</time>
      </trkpt>
      <trkpt lat="45.67144" lon="6.69369">
        <ele>2168</ele>
        <time>2022-07-26T07:35:38Z</time>
      </trkpt>
      <trkpt lat="45.67144" lon="6.69368">
        <ele>2168</ele>
        <time>2022-07-26T07:35:39Z</time>
      </trkpt>
      <trkpt lat="45.67143" lon="6.69368">
        <ele>2168</ele>
        <time>2022-07-26T07:35:40Z</time>
      </trkpt>
      <trkpt lat="45.67142" lon="6.69368">
        <ele>2168</ele>
        <time>2022-07-26T07:35:41Z</time>
      </trkpt>
      <trkpt lat="45.67142" lon="6.69367">
        <ele>2168</ele>
        <time>2022-07-26T07:35:42Z</time>
      </trkpt>
      <trkpt lat="45.67141" lon="6.69367">
        <ele>2168</ele>
        <time>2022-07-26T07:35:43Z</time>
      </trkpt>
      <trkpt lat="45.6714" lon="6.69366">
        <ele>2168</ele>
        <time>2022-07-26T07:35:44Z</time>
      </trkpt>
      <trkpt lat="45.6714" lon="6.69366">
        <ele>2168</ele>
        <time>2022-07-26T07:35:45Z</time>
      </trkpt>
      <trkpt lat="45.67139" lon="6.69366">
        <ele>2168</ele>
        <time>2022-07-26T07:35:46Z</time>
      </trkpt>
      <trkpt lat="45.67138" lon="6.69365">
        <ele>2169</ele>
        <time>2022-07-26T07:35:47Z</time>
      </trkpt>
      <trkpt lat="45.67137" lon="6.69364">
        <ele>2169</ele>
        <time>2022-07-26T07:35:48Z</time>
      </trkpt>
      <trkpt lat="45.67137" lon="6.69364">
        <ele>2169</ele>
        <time>2022-07-26T07:35:49Z</time>
      </trkpt>
      <trkpt lat="45.67136" lon="6.69363">
        <ele>2169</ele>
        <time>2022-07-26T07:35:50Z</time>
      </trkpt>
      <trkpt lat="45.67135" lon="6.69362">
        <ele>2169</ele>
        <time>2022-07-26T07:35:51Z</time>
      </trkpt>
      <trkpt lat="45.67134" lon="6.69362">
        <ele>2169</ele>
        <time>2022-07-26T07:35:52Z</time>
      </trkpt>
      <trkpt lat="45.67134" lon="6.69361">
        <ele>2169</ele>
        <time>2022-07-26T07:35:53Z</time>
      </trkpt>
      <trkpt lat="45.67133" lon="6.69361">
        <ele>2169</ele>
        <time>2022-07-26T07:35:54Z</time>
      </trkpt>
      <trkpt lat="45.67132" lon="6.6936">
        <ele>2169</ele>
        <time>2022-07-26T07:35:55Z</time>
      </trkpt>
      <trkpt lat="45.67132" lon="6.6936">
        <ele>2169</ele>
        <time>2022-07-26T07:35:56Z</time>
      </trkpt>
      <trkpt lat="45.67131" lon="6.6936">
        <ele>2169</ele>
        <time>2022-07-26T07:35:57Z</time>
      </trkpt>
      <trkpt lat="45.6713" lon="6.69359">
        <ele>2169</ele>
        <time>2022-07-26T07:35:58Z</time>
      </trkpt>
      <trkpt lat="45.67129" lon="6.69359">
        <ele>2169</ele>
        <time>2022-07-26T07:35:59Z</time>
      </trkpt>
      <trkpt lat="45.67128" lon="6.69359">
        <ele>2169</ele>
        <time>2022-07-26T07:36:00Z</time>
      </trkpt>
      <trkpt lat="45.67128" lon="6.69358">
        <ele>2169</ele>
        <time>2022-07-26T07:36:01Z</time>
      </trkpt>
      <trkpt lat="45.67127" lon="6.69357">
        <ele>2169</ele>
        <time>2022-07-26T07:36:02Z</time>
      </trkpt>
      <trkpt lat="45.67127" lon="6.69357">
        <ele>2169</ele>
        <time>2022-07-26T07:36:03Z</time>
      </trkpt>
      <trkpt lat="45.67126" lon="6.69357">
        <ele>2169</ele>
        <time>2022-07-26T07:36:04Z</time>
      </trkpt>
      <trkpt lat="45.67126" lon="6.69357">
        <ele>2169</ele>
        <time>2022-07-26T07:36:05Z</time>
      </trkpt>
      <trkpt lat="45.67126" lon="6.69357">
        <ele>2169</ele>
        <time>2022-07-26T07:36:06Z</time>
      </trkpt>
      <trkpt lat="45.67125" lon="6.69356">
        <ele>2170</ele>
        <time>2022-07-26T07:36:07Z</time>
      </trkpt>
      <trkpt lat="45.67124" lon="6.69356">
        <ele>2170</ele>
        <time>2022-07-26T07:36:08Z</time>
      </trkpt>
      <trkpt lat="45.67124" lon="6.69356">
        <ele>2170</ele>
        <time>2022-07-26T07:36:09Z</time>
      </trkpt>
      <trkpt lat="45.67123" lon="6.69356">
        <ele>2170</ele>
        <time>2022-07-26T07:36:10Z</time>
      </trkpt>
      <trkpt lat="45.67123" lon="6.69356">
        <ele>2170</ele>
        <time>2022-07-26T07:36:11Z</time>
      </trkpt>
      <trkpt lat="45.67122" lon="6.69356">
        <ele>2170</ele>
        <time>2022-07-26T07:36:12Z</time>
      </trkpt>
      <trkpt lat="45.67121" lon="6.69355">
        <ele>2170</ele>
        <time>2022-07-26T07:36:13Z</time>
      </trkpt>
      <trkpt lat="45.6712" lon="6.69355">
        <ele>2170</ele>
        <time>2022-07-26T07:36:14Z</time>
      </trkpt>
      <trkpt lat="45.6712" lon="6.69354">
        <ele>2170</ele>
        <time>2022-07-26T07:36:15Z</time>
      </trkpt>
      <trkpt lat="45.67119" lon="6.69353">
        <ele>2170</ele>
        <time>2022-07-26T07:36:16Z</time>
      </trkpt>
      <trkpt lat="45.67118" lon="6.69353">
        <ele>2170</ele>
        <time>2022-07-26T07:36:17Z</time>
      </trkpt>
      <trkpt lat="45.67118" lon="6.69352">
        <ele>2170</ele>
        <time>2022-07-26T07:36:18Z</time>
      </trkpt>
      <trkpt lat="45.67117" lon="6.69351">
        <ele>2170</ele>
        <time>2022-07-26T07:36:19Z</time>
      </trkpt>
      <trkpt lat="45.67117" lon="6.69349">
        <ele>2170</ele>
        <time>2022-07-26T07:36:20Z</time>
      </trkpt>
      <trkpt lat="45.67116" lon="6.69348">
        <ele>2170</ele>
        <time>2022-07-26T07:36:21Z</time>
      </trkpt>
      <trkpt lat="45.67115" lon="6.69347">
        <ele>2171</ele>
        <time>2022-07-26T07:36:22Z</time>
      </trkpt>
      <trkpt lat="45.67115" lon="6.69346">
        <ele>2171</ele>
        <time>2022-07-26T07:36:23Z</time>
      </trkpt>
      <trkpt lat="45.67114" lon="6.69345">
        <ele>2171</ele>
        <time>2022-07-26T07:36:24Z</time>
      </trkpt>
      <trkpt lat="45.67113" lon="6.69344">
        <ele>2171</ele>
        <time>2022-07-26T07:36:25Z</time>
      </trkpt>
      <trkpt lat="45.67113" lon="6.69343">
        <ele>2171</ele>
        <time>2022-07-26T07:36:26Z</time>
      </trkpt>
      <trkpt lat="45.67112" lon="6.69342">
        <ele>2171</ele>
        <time>2022-07-26T07:36:27Z</time>
      </trkpt>
      <trkpt lat="45.67112" lon="6.69342">
        <ele>2171</ele>
        <time>2022-07-26T07:36:28Z</time>
      </trkpt>
      <trkpt lat="45.67111" lon="6.69341">
        <ele>2171</ele>
        <time>2022-07-26T07:36:29Z</time>
      </trkpt>
      <trkpt lat="45.6711" lon="6.69341">
        <ele>2171</ele>
        <time>2022-07-26T07:36:30Z</time>
      </trkpt>
      <trkpt lat="45.6711" lon="6.69341">
        <ele>2171</ele>
        <time>2022-07-26T07:36:31Z</time>
      </trkpt>
      <trkpt lat="45.67109" lon="6.6934">
        <ele>2171</ele>
        <time>2022-07-26T07:36:32Z</time>
      </trkpt>
      <trkpt lat="45.67108" lon="6.6934">
        <ele>2171</ele>
        <time>2022-07-26T07:36:33Z</time>
      </trkpt>
      <trkpt lat="45.67108" lon="6.69339">
        <ele>2171</ele>
        <time>2022-07-26T07:36:34Z</time>
      </trkpt>
      <trkpt lat="45.67107" lon="6.69339">
        <ele>2171</ele>
        <time>2022-07-26T07:36:35Z</time>
      </trkpt>
      <trkpt lat="45.67107" lon="6.69338">
        <ele>2171</ele>
        <time>2022-07-26T07:36:36Z</time>
      </trkpt>
      <trkpt lat="45.67106" lon="6.69338">
        <ele>2171</ele>
        <time>2022-07-26T07:36:37Z</time>
      </trkpt>
      <trkpt lat="45.67105" lon="6.69337">
        <ele>2171</ele>
        <time>2022-07-26T07:36:38Z</time>
      </trkpt>
      <trkpt lat="45.67104" lon="6.69336">
        <ele>2171</ele>
        <time>2022-07-26T07:36:39Z</time>
      </trkpt>
      <trkpt lat="45.67104" lon="6.69335">
        <ele>2171</ele>
        <time>2022-07-26T07:36:40Z</time>
      </trkpt>
      <trkpt lat="45.67103" lon="6.69335">
        <ele>2171</ele>
        <time>2022-07-26T07:36:41Z</time>
      </trkpt>
      <trkpt lat="45.67102" lon="6.69334">
        <ele>2171</ele>
        <time>2022-07-26T07:36:42Z</time>
      </trkpt>
      <trkpt lat="45.67101" lon="6.69333">
        <ele>2171</ele>
        <time>2022-07-26T07:36:43Z</time>
      </trkpt>
      <trkpt lat="45.671" lon="6.69333">
        <ele>2171</ele>
        <time>2022-07-26T07:36:44Z</time>
      </trkpt>
      <trkpt lat="45.67099" lon="6.69332">
        <ele>2171</ele>
        <time>2022-07-26T07:36:45Z</time>
      </trkpt>
      <trkpt lat="45.67098" lon="6.69331">
        <ele>2171</ele>
        <time>2022-07-26T07:36:46Z</time>
      </trkpt>
      <trkpt lat="45.67097" lon="6.69331">
        <ele>2172</ele>
        <time>2022-07-26T07:36:47Z</time>
      </trkpt>
      <trkpt lat="45.67096" lon="6.6933">
        <ele>2172</ele>
        <time>2022-07-26T07:36:48Z</time>
      </trkpt>
      <trkpt lat="45.67096" lon="6.69329">
        <ele>2172</ele>
        <time>2022-07-26T07:36:49Z</time>
      </trkpt>
      <trkpt lat="45.67095" lon="6.69329">
        <ele>2172</ele>
        <time>2022-07-26T07:36:50Z</time>
      </trkpt>
      <trkpt lat="45.67094" lon="6.69328">
        <ele>2172</ele>
        <time>2022-07-26T07:36:51Z</time>
      </trkpt>
      <trkpt lat="45.67093" lon="6.69327">
        <ele>2172</ele>
        <time>2022-07-26T07:36:52Z</time>
      </trkpt>
      <trkpt lat="45.67092" lon="6.69327">
        <ele>2172</ele>
        <time>2022-07-26T07:36:53Z</time>
      </trkpt>
      <trkpt lat="45.67091" lon="6.69326">
        <ele>2172</ele>
        <time>2022-07-26T07:36:54Z</time>
      </trkpt>
      <trkpt lat="45.6709" lon="6.69326">
        <ele>2172</ele>
        <time>2022-07-26T07:36:55Z</time>
      </trkpt>
      <trkpt lat="45.6709" lon="6.69326">
        <ele>2172</ele>
        <time>2022-07-26T07:36:56Z</time>
      </trkpt>
      <trkpt lat="45.67089" lon="6.69325">
        <ele>2173</ele>
        <time>2022-07-26T07:36:57Z</time>
      </trkpt>
      <trkpt lat="45.67088" lon="6.69325">
        <ele>2173</ele>
        <time>2022-07-26T07:36:58Z</time>
      </trkpt>
      <trkpt lat="45.67087" lon="6.69325">
        <ele>2173</ele>
        <time>2022-07-26T07:36:59Z</time>
      </trkpt>
      <trkpt lat="45.67086" lon="6.69324">
        <ele>2173</ele>
        <time>2022-07-26T07:37:00Z</time>
      </trkpt>
      <trkpt lat="45.67085" lon="6.69324">
        <ele>2173</ele>
        <time>2022-07-26T07:37:01Z</time>
      </trkpt>
      <trkpt lat="45.67084" lon="6.69324">
        <ele>2173</ele>
        <time>2022-07-26T07:37:02Z</time>
      </trkpt>
      <trkpt lat="45.67083" lon="6.69323">
        <ele>2173</ele>
        <time>2022-07-26T07:37:03Z</time>
      </trkpt>
      <trkpt lat="45.67082" lon="6.69323">
        <ele>2173</ele>
        <time>2022-07-26T07:37:04Z</time>
      </trkpt>
      <trkpt lat="45.67081" lon="6.69322">
        <ele>2173</ele>
        <time>2022-07-26T07:37:05Z</time>
      </trkpt>
      <trkpt lat="45.6708" lon="6.69322">
        <ele>2173</ele>
        <time>2022-07-26T07:37:06Z</time>
      </trkpt>
      <trkpt lat="45.67079" lon="6.69321">
        <ele>2173</ele>
        <time>2022-07-26T07:37:07Z</time>
      </trkpt>
      <trkpt lat="45.67078" lon="6.69321">
        <ele>2173</ele>
        <time>2022-07-26T07:37:08Z</time>
      </trkpt>
      <trkpt lat="45.67077" lon="6.6932">
        <ele>2173</ele>
        <time>2022-07-26T07:37:09Z</time>
      </trkpt>
      <trkpt lat="45.67076" lon="6.69319">
        <ele>2173</ele>
        <time>2022-07-26T07:37:10Z</time>
      </trkpt>
      <trkpt lat="45.67075" lon="6.69318">
        <ele>2173</ele>
        <time>2022-07-26T07:37:11Z</time>
      </trkpt>
      <trkpt lat="45.67075" lon="6.69317">
        <ele>2174</ele>
        <time>2022-07-26T07:37:12Z</time>
      </trkpt>
      <trkpt lat="45.67074" lon="6.69317">
        <ele>2174</ele>
        <time>2022-07-26T07:37:13Z</time>
      </trkpt>
      <trkpt lat="45.67073" lon="6.69316">
        <ele>2174</ele>
        <time>2022-07-26T07:37:14Z</time>
      </trkpt>
      <trkpt lat="45.67072" lon="6.69315">
        <ele>2174</ele>
        <time>2022-07-26T07:37:15Z</time>
      </trkpt>
      <trkpt lat="45.67072" lon="6.69314">
        <ele>2174</ele>
        <time>2022-07-26T07:37:16Z</time>
      </trkpt>
      <trkpt lat="45.67071" lon="6.69314">
        <ele>2174</ele>
        <time>2022-07-26T07:37:17Z</time>
      </trkpt>
      <trkpt lat="45.6707" lon="6.69313">
        <ele>2174</ele>
        <time>2022-07-26T07:37:18Z</time>
      </trkpt>
      <trkpt lat="45.67069" lon="6.69313">
        <ele>2174</ele>
        <time>2022-07-26T07:37:19Z</time>
      </trkpt>
      <trkpt lat="45.67068" lon="6.69313">
        <ele>2174</ele>
        <time>2022-07-26T07:37:20Z</time>
      </trkpt>
      <trkpt lat="45.67068" lon="6.69312">
        <ele>2174</ele>
        <time>2022-07-26T07:37:21Z</time>
      </trkpt>
      <trkpt lat="45.67067" lon="6.69312">
        <ele>2175</ele>
        <time>2022-07-26T07:37:22Z</time>
      </trkpt>
      <trkpt lat="45.67066" lon="6.69312">
        <ele>2175</ele>
        <time>2022-07-26T07:37:23Z</time>
      </trkpt>
      <trkpt lat="45.67066" lon="6.69312">
        <ele>2175</ele>
        <time>2022-07-26T07:37:24Z</time>
      </trkpt>
      <trkpt lat="45.67064" lon="6.69311">
        <ele>2176</ele>
        <time>2022-07-26T07:37:30Z</time>
      </trkpt>
      <trkpt lat="45.67064" lon="6.69311">
        <ele>2176</ele>
        <time>2022-07-26T07:37:31Z</time>
      </trkpt>
      <trkpt lat="45.67063" lon="6.69311">
        <ele>2177</ele>
        <time>2022-07-26T07:37:32Z</time>
      </trkpt>
      <trkpt lat="45.67063" lon="6.69311">
        <ele>2177</ele>
        <time>2022-07-26T07:37:33Z</time>
      </trkpt>
      <trkpt lat="45.67062" lon="6.6931">
        <ele>2177</ele>
        <time>2022-07-26T07:37:34Z</time>
      </trkpt>
      <trkpt lat="45.67061" lon="6.6931">
        <ele>2177</ele>
        <time>2022-07-26T07:37:35Z</time>
      </trkpt>
      <trkpt lat="45.6706" lon="6.6931">
        <ele>2177</ele>
        <time>2022-07-26T07:37:36Z</time>
      </trkpt>
      <trkpt lat="45.67059" lon="6.6931">
        <ele>2177</ele>
        <time>2022-07-26T07:37:37Z</time>
      </trkpt>
      <trkpt lat="45.67058" lon="6.6931">
        <ele>2177</ele>
        <time>2022-07-26T07:37:38Z</time>
      </trkpt>
      <trkpt lat="45.67057" lon="6.69309">
        <ele>2177</ele>
        <time>2022-07-26T07:37:39Z</time>
      </trkpt>
      <trkpt lat="45.67056" lon="6.69309">
        <ele>2177</ele>
        <time>2022-07-26T07:37:40Z</time>
      </trkpt>
      <trkpt lat="45.67055" lon="6.69309">
        <ele>2177</ele>
        <time>2022-07-26T07:37:41Z</time>
      </trkpt>
      <trkpt lat="45.67054" lon="6.69308">
        <ele>2178</ele>
        <time>2022-07-26T07:37:42Z</time>
      </trkpt>
      <trkpt lat="45.67053" lon="6.69308">
        <ele>2178</ele>
        <time>2022-07-26T07:37:43Z</time>
      </trkpt>
      <trkpt lat="45.67052" lon="6.69307">
        <ele>2178</ele>
        <time>2022-07-26T07:37:44Z</time>
      </trkpt>
      <trkpt lat="45.67051" lon="6.69307">
        <ele>2178</ele>
        <time>2022-07-26T07:37:45Z</time>
      </trkpt>
      <trkpt lat="45.6705" lon="6.69306">
        <ele>2178</ele>
        <time>2022-07-26T07:37:46Z</time>
      </trkpt>
      <trkpt lat="45.67049" lon="6.69306">
        <ele>2178</ele>
        <time>2022-07-26T07:37:47Z</time>
      </trkpt>
      <trkpt lat="45.67048" lon="6.69305">
        <ele>2178</ele>
        <time>2022-07-26T07:37:48Z</time>
      </trkpt>
      <trkpt lat="45.67047" lon="6.69305">
        <ele>2178</ele>
        <time>2022-07-26T07:37:49Z</time>
      </trkpt>
      <trkpt lat="45.67046" lon="6.69304">
        <ele>2178</ele>
        <time>2022-07-26T07:37:50Z</time>
      </trkpt>
      <trkpt lat="45.67045" lon="6.69304">
        <ele>2178</ele>
        <time>2022-07-26T07:37:51Z</time>
      </trkpt>
      <trkpt lat="45.67044" lon="6.69303">
        <ele>2178</ele>
        <time>2022-07-26T07:37:52Z</time>
      </trkpt>
      <trkpt lat="45.67043" lon="6.69302">
        <ele>2178</ele>
        <time>2022-07-26T07:37:53Z</time>
      </trkpt>
      <trkpt lat="45.67042" lon="6.69302">
        <ele>2178</ele>
        <time>2022-07-26T07:37:54Z</time>
      </trkpt>
      <trkpt lat="45.67042" lon="6.69301">
        <ele>2178</ele>
        <time>2022-07-26T07:37:55Z</time>
      </trkpt>
      <trkpt lat="45.67041" lon="6.69301">
        <ele>2178</ele>
        <time>2022-07-26T07:37:56Z</time>
      </trkpt>
      <trkpt lat="45.6704" lon="6.693">
        <ele>2179</ele>
        <time>2022-07-26T07:37:57Z</time>
      </trkpt>
      <trkpt lat="45.67039" lon="6.693">
        <ele>2179</ele>
        <time>2022-07-26T07:37:58Z</time>
      </trkpt>
      <trkpt lat="45.67038" lon="6.69299">
        <ele>2179</ele>
        <time>2022-07-26T07:37:59Z</time>
      </trkpt>
      <trkpt lat="45.67037" lon="6.69299">
        <ele>2179</ele>
        <time>2022-07-26T07:38:00Z</time>
      </trkpt>
      <trkpt lat="45.67036" lon="6.69299">
        <ele>2179</ele>
        <time>2022-07-26T07:38:01Z</time>
      </trkpt>
      <trkpt lat="45.67035" lon="6.69299">
        <ele>2179</ele>
        <time>2022-07-26T07:38:02Z</time>
      </trkpt>
      <trkpt lat="45.67034" lon="6.69298">
        <ele>2179</ele>
        <time>2022-07-26T07:38:03Z</time>
      </trkpt>
      <trkpt lat="45.67032" lon="6.69298">
        <ele>2179</ele>
        <time>2022-07-26T07:38:04Z</time>
      </trkpt>
      <trkpt lat="45.67031" lon="6.69297">
        <ele>2179</ele>
        <time>2022-07-26T07:38:05Z</time>
      </trkpt>
      <trkpt lat="45.6703" lon="6.69297">
        <ele>2179</ele>
        <time>2022-07-26T07:38:06Z</time>
      </trkpt>
      <trkpt lat="45.67029" lon="6.69296">
        <ele>2179</ele>
        <time>2022-07-26T07:38:07Z</time>
      </trkpt>
      <trkpt lat="45.67028" lon="6.69295">
        <ele>2179</ele>
        <time>2022-07-26T07:38:08Z</time>
      </trkpt>
      <trkpt lat="45.67027" lon="6.69294">
        <ele>2179</ele>
        <time>2022-07-26T07:38:09Z</time>
      </trkpt>
      <trkpt lat="45.67026" lon="6.69293">
        <ele>2179</ele>
        <time>2022-07-26T07:38:10Z</time>
      </trkpt>
      <trkpt lat="45.67025" lon="6.69292">
        <ele>2179</ele>
        <time>2022-07-26T07:38:11Z</time>
      </trkpt>
      <trkpt lat="45.67024" lon="6.69291">
        <ele>2179</ele>
        <time>2022-07-26T07:38:12Z</time>
      </trkpt>
      <trkpt lat="45.67023" lon="6.69289">
        <ele>2179</ele>
        <time>2022-07-26T07:38:13Z</time>
      </trkpt>
      <trkpt lat="45.67022" lon="6.69288">
        <ele>2179</ele>
        <time>2022-07-26T07:38:14Z</time>
      </trkpt>
      <trkpt lat="45.67022" lon="6.69287">
        <ele>2179</ele>
        <time>2022-07-26T07:38:15Z</time>
      </trkpt>
      <trkpt lat="45.67021" lon="6.69286">
        <ele>2179</ele>
        <time>2022-07-26T07:38:16Z</time>
      </trkpt>
      <trkpt lat="45.6702" lon="6.69285">
        <ele>2179</ele>
        <time>2022-07-26T07:38:17Z</time>
      </trkpt>
      <trkpt lat="45.6702" lon="6.69283">
        <ele>2179</ele>
        <time>2022-07-26T07:38:18Z</time>
      </trkpt>
      <trkpt lat="45.67019" lon="6.69282">
        <ele>2179</ele>
        <time>2022-07-26T07:38:19Z</time>
      </trkpt>
      <trkpt lat="45.67018" lon="6.69281">
        <ele>2179</ele>
        <time>2022-07-26T07:38:20Z</time>
      </trkpt>
      <trkpt lat="45.67017" lon="6.6928">
        <ele>2179</ele>
        <time>2022-07-26T07:38:21Z</time>
      </trkpt>
      <trkpt lat="45.67017" lon="6.69279">
        <ele>2179</ele>
        <time>2022-07-26T07:38:22Z</time>
      </trkpt>
      <trkpt lat="45.67016" lon="6.69279">
        <ele>2179</ele>
        <time>2022-07-26T07:38:23Z</time>
      </trkpt>
      <trkpt lat="45.67015" lon="6.69278">
        <ele>2179</ele>
        <time>2022-07-26T07:38:24Z</time>
      </trkpt>
      <trkpt lat="45.67015" lon="6.69277">
        <ele>2179</ele>
        <time>2022-07-26T07:38:25Z</time>
      </trkpt>
      <trkpt lat="45.67014" lon="6.69276">
        <ele>2179</ele>
        <time>2022-07-26T07:38:26Z</time>
      </trkpt>
      <trkpt lat="45.67014" lon="6.69276">
        <ele>2179</ele>
        <time>2022-07-26T07:38:27Z</time>
      </trkpt>
      <trkpt lat="45.67013" lon="6.69275">
        <ele>2179</ele>
        <time>2022-07-26T07:38:28Z</time>
      </trkpt>
      <trkpt lat="45.67013" lon="6.69275">
        <ele>2179</ele>
        <time>2022-07-26T07:38:29Z</time>
      </trkpt>
      <trkpt lat="45.67012" lon="6.69275">
        <ele>2179</ele>
        <time>2022-07-26T07:38:30Z</time>
      </trkpt>
      <trkpt lat="45.67012" lon="6.69274">
        <ele>2179</ele>
        <time>2022-07-26T07:38:31Z</time>
      </trkpt>
      <trkpt lat="45.67011" lon="6.69274">
        <ele>2180</ele>
        <time>2022-07-26T07:38:32Z</time>
      </trkpt>
      <trkpt lat="45.6701" lon="6.69274">
        <ele>2180</ele>
        <time>2022-07-26T07:38:33Z</time>
      </trkpt>
      <trkpt lat="45.67009" lon="6.69274">
        <ele>2180</ele>
        <time>2022-07-26T07:38:34Z</time>
      </trkpt>
      <trkpt lat="45.67009" lon="6.69275">
        <ele>2180</ele>
        <time>2022-07-26T07:38:35Z</time>
      </trkpt>
      <trkpt lat="45.67008" lon="6.69275">
        <ele>2180</ele>
        <time>2022-07-26T07:38:36Z</time>
      </trkpt>
      <trkpt lat="45.67007" lon="6.69275">
        <ele>2181</ele>
        <time>2022-07-26T07:38:37Z</time>
      </trkpt>
      <trkpt lat="45.67006" lon="6.69276">
        <ele>2181</ele>
        <time>2022-07-26T07:38:38Z</time>
      </trkpt>
      <trkpt lat="45.67005" lon="6.69276">
        <ele>2181</ele>
        <time>2022-07-26T07:38:39Z</time>
      </trkpt>
      <trkpt lat="45.67004" lon="6.69276">
        <ele>2181</ele>
        <time>2022-07-26T07:38:40Z</time>
      </trkpt>
      <trkpt lat="45.67004" lon="6.69277">
        <ele>2181</ele>
        <time>2022-07-26T07:38:41Z</time>
      </trkpt>
      <trkpt lat="45.67003" lon="6.69277">
        <ele>2181</ele>
        <time>2022-07-26T07:38:42Z</time>
      </trkpt>
      <trkpt lat="45.67002" lon="6.69277">
        <ele>2181</ele>
        <time>2022-07-26T07:38:43Z</time>
      </trkpt>
      <trkpt lat="45.67001" lon="6.69278">
        <ele>2181</ele>
        <time>2022-07-26T07:38:44Z</time>
      </trkpt>
      <trkpt lat="45.67001" lon="6.69278">
        <ele>2181</ele>
        <time>2022-07-26T07:38:45Z</time>
      </trkpt>
      <trkpt lat="45.67" lon="6.69278">
        <ele>2181</ele>
        <time>2022-07-26T07:38:46Z</time>
      </trkpt>
      <trkpt lat="45.66999" lon="6.69278">
        <ele>2182</ele>
        <time>2022-07-26T07:38:47Z</time>
      </trkpt>
      <trkpt lat="45.66998" lon="6.69278">
        <ele>2182</ele>
        <time>2022-07-26T07:38:48Z</time>
      </trkpt>
      <trkpt lat="45.66997" lon="6.69279">
        <ele>2182</ele>
        <time>2022-07-26T07:38:49Z</time>
      </trkpt>
      <trkpt lat="45.66996" lon="6.69278">
        <ele>2182</ele>
        <time>2022-07-26T07:38:50Z</time>
      </trkpt>
      <trkpt lat="45.66995" lon="6.69278">
        <ele>2182</ele>
        <time>2022-07-26T07:38:51Z</time>
      </trkpt>
      <trkpt lat="45.66994" lon="6.69278">
        <ele>2182</ele>
        <time>2022-07-26T07:38:52Z</time>
      </trkpt>
      <trkpt lat="45.66993" lon="6.69278">
        <ele>2182</ele>
        <time>2022-07-26T07:38:53Z</time>
      </trkpt>
      <trkpt lat="45.66992" lon="6.69278">
        <ele>2182</ele>
        <time>2022-07-26T07:38:54Z</time>
      </trkpt>
      <trkpt lat="45.66992" lon="6.69277">
        <ele>2182</ele>
        <time>2022-07-26T07:38:55Z</time>
      </trkpt>
      <trkpt lat="45.66991" lon="6.69277">
        <ele>2182</ele>
        <time>2022-07-26T07:38:56Z</time>
      </trkpt>
      <trkpt lat="45.6699" lon="6.69277">
        <ele>2183</ele>
        <time>2022-07-26T07:38:57Z</time>
      </trkpt>
      <trkpt lat="45.66989" lon="6.69277">
        <ele>2183</ele>
        <time>2022-07-26T07:38:58Z</time>
      </trkpt>
      <trkpt lat="45.66988" lon="6.69276">
        <ele>2183</ele>
        <time>2022-07-26T07:38:59Z</time>
      </trkpt>
      <trkpt lat="45.66987" lon="6.69276">
        <ele>2183</ele>
        <time>2022-07-26T07:39:00Z</time>
      </trkpt>
      <trkpt lat="45.66987" lon="6.69276">
        <ele>2183</ele>
        <time>2022-07-26T07:39:01Z</time>
      </trkpt>
      <trkpt lat="45.66986" lon="6.69276">
        <ele>2184</ele>
        <time>2022-07-26T07:39:02Z</time>
      </trkpt>
      <trkpt lat="45.66985" lon="6.69276">
        <ele>2184</ele>
        <time>2022-07-26T07:39:03Z</time>
      </trkpt>
      <trkpt lat="45.66984" lon="6.69276">
        <ele>2184</ele>
        <time>2022-07-26T07:39:04Z</time>
      </trkpt>
      <trkpt lat="45.66983" lon="6.69276">
        <ele>2184</ele>
        <time>2022-07-26T07:39:05Z</time>
      </trkpt>
      <trkpt lat="45.66982" lon="6.69277">
        <ele>2184</ele>
        <time>2022-07-26T07:39:06Z</time>
      </trkpt>
      <trkpt lat="45.66981" lon="6.69277">
        <ele>2185</ele>
        <time>2022-07-26T07:39:07Z</time>
      </trkpt>
      <trkpt lat="45.6698" lon="6.69277">
        <ele>2185</ele>
        <time>2022-07-26T07:39:08Z</time>
      </trkpt>
      <trkpt lat="45.66979" lon="6.69278">
        <ele>2185</ele>
        <time>2022-07-26T07:39:09Z</time>
      </trkpt>
      <trkpt lat="45.66978" lon="6.69278">
        <ele>2185</ele>
        <time>2022-07-26T07:39:10Z</time>
      </trkpt>
      <trkpt lat="45.66977" lon="6.69279">
        <ele>2185</ele>
        <time>2022-07-26T07:39:11Z</time>
      </trkpt>
      <trkpt lat="45.66976" lon="6.69279">
        <ele>2185</ele>
        <time>2022-07-26T07:39:12Z</time>
      </trkpt>
      <trkpt lat="45.66975" lon="6.69279">
        <ele>2185</ele>
        <time>2022-07-26T07:39:13Z</time>
      </trkpt>
      <trkpt lat="45.66974" lon="6.69279">
        <ele>2185</ele>
        <time>2022-07-26T07:39:14Z</time>
      </trkpt>
      <trkpt lat="45.66973" lon="6.69279">
        <ele>2185</ele>
        <time>2022-07-26T07:39:15Z</time>
      </trkpt>
      <trkpt lat="45.66972" lon="6.69279">
        <ele>2185</ele>
        <time>2022-07-26T07:39:16Z</time>
      </trkpt>
      <trkpt lat="45.66971" lon="6.69279">
        <ele>2186</ele>
        <time>2022-07-26T07:39:17Z</time>
      </trkpt>
      <trkpt lat="45.6697" lon="6.69278">
        <ele>2186</ele>
        <time>2022-07-26T07:39:18Z</time>
      </trkpt>
      <trkpt lat="45.66969" lon="6.69278">
        <ele>2186</ele>
        <time>2022-07-26T07:39:19Z</time>
      </trkpt>
      <trkpt lat="45.66968" lon="6.69278">
        <ele>2186</ele>
        <time>2022-07-26T07:39:20Z</time>
      </trkpt>
      <trkpt lat="45.66967" lon="6.69278">
        <ele>2186</ele>
        <time>2022-07-26T07:39:21Z</time>
      </trkpt>
      <trkpt lat="45.66965" lon="6.69278">
        <ele>2186</ele>
        <time>2022-07-26T07:39:22Z</time>
      </trkpt>
      <trkpt lat="45.66964" lon="6.69278">
        <ele>2186</ele>
        <time>2022-07-26T07:39:23Z</time>
      </trkpt>
      <trkpt lat="45.66963" lon="6.69278">
        <ele>2186</ele>
        <time>2022-07-26T07:39:24Z</time>
      </trkpt>
      <trkpt lat="45.66962" lon="6.69278">
        <ele>2186</ele>
        <time>2022-07-26T07:39:25Z</time>
      </trkpt>
      <trkpt lat="45.66961" lon="6.69279">
        <ele>2186</ele>
        <time>2022-07-26T07:39:26Z</time>
      </trkpt>
      <trkpt lat="45.6696" lon="6.69279">
        <ele>2186</ele>
        <time>2022-07-26T07:39:27Z</time>
      </trkpt>
      <trkpt lat="45.66959" lon="6.6928">
        <ele>2186</ele>
        <time>2022-07-26T07:39:28Z</time>
      </trkpt>
      <trkpt lat="45.66957" lon="6.6928">
        <ele>2186</ele>
        <time>2022-07-26T07:39:29Z</time>
      </trkpt>
      <trkpt lat="45.66957" lon="6.6928">
        <ele>2186</ele>
        <time>2022-07-26T07:39:30Z</time>
      </trkpt>
      <trkpt lat="45.66956" lon="6.6928">
        <ele>2186</ele>
        <time>2022-07-26T07:39:31Z</time>
      </trkpt>
      <trkpt lat="45.66955" lon="6.6928">
        <ele>2186</ele>
        <time>2022-07-26T07:39:32Z</time>
      </trkpt>
      <trkpt lat="45.66954" lon="6.6928">
        <ele>2186</ele>
        <time>2022-07-26T07:39:33Z</time>
      </trkpt>
      <trkpt lat="45.66953" lon="6.6928">
        <ele>2186</ele>
        <time>2022-07-26T07:39:34Z</time>
      </trkpt>
      <trkpt lat="45.66953" lon="6.69279">
        <ele>2186</ele>
        <time>2022-07-26T07:39:35Z</time>
      </trkpt>
      <trkpt lat="45.66952" lon="6.69279">
        <ele>2186</ele>
        <time>2022-07-26T07:39:36Z</time>
      </trkpt>
      <trkpt lat="45.66951" lon="6.69278">
        <ele>2186</ele>
        <time>2022-07-26T07:39:37Z</time>
      </trkpt>
      <trkpt lat="45.66951" lon="6.69277">
        <ele>2186</ele>
        <time>2022-07-26T07:39:38Z</time>
      </trkpt>
      <trkpt lat="45.66951" lon="6.69276">
        <ele>2186</ele>
        <time>2022-07-26T07:39:39Z</time>
      </trkpt>
      <trkpt lat="45.66951" lon="6.69275">
        <ele>2186</ele>
        <time>2022-07-26T07:39:40Z</time>
      </trkpt>
      <trkpt lat="45.6695" lon="6.69274">
        <ele>2186</ele>
        <time>2022-07-26T07:39:41Z</time>
      </trkpt>
      <trkpt lat="45.6695" lon="6.69273">
        <ele>2186</ele>
        <time>2022-07-26T07:39:42Z</time>
      </trkpt>
      <trkpt lat="45.6695" lon="6.69272">
        <ele>2186</ele>
        <time>2022-07-26T07:39:43Z</time>
      </trkpt>
      <trkpt lat="45.66951" lon="6.6927">
        <ele>2186</ele>
        <time>2022-07-26T07:39:44Z</time>
      </trkpt>
      <trkpt lat="45.66951" lon="6.69269">
        <ele>2186</ele>
        <time>2022-07-26T07:39:45Z</time>
      </trkpt>
      <trkpt lat="45.66951" lon="6.69268">
        <ele>2186</ele>
        <time>2022-07-26T07:39:46Z</time>
      </trkpt>
      <trkpt lat="45.66951" lon="6.69267">
        <ele>2186</ele>
        <time>2022-07-26T07:39:47Z</time>
      </trkpt>
      <trkpt lat="45.66952" lon="6.69266">
        <ele>2187</ele>
        <time>2022-07-26T07:39:58Z</time>
      </trkpt>
      <trkpt lat="45.66952" lon="6.69266">
        <ele>2187</ele>
        <time>2022-07-26T07:39:59Z</time>
      </trkpt>
      <trkpt lat="45.66952" lon="6.69265">
        <ele>2187</ele>
        <time>2022-07-26T07:40:00Z</time>
      </trkpt>
      <trkpt lat="45.66952" lon="6.69265">
        <ele>2187</ele>
        <time>2022-07-26T07:40:01Z</time>
      </trkpt>
      <trkpt lat="45.66953" lon="6.69264">
        <ele>2187</ele>
        <time>2022-07-26T07:40:02Z</time>
      </trkpt>
      <trkpt lat="45.66953" lon="6.69264">
        <ele>2187</ele>
        <time>2022-07-26T07:40:03Z</time>
      </trkpt>
      <trkpt lat="45.66953" lon="6.69263">
        <ele>2187</ele>
        <time>2022-07-26T07:40:04Z</time>
      </trkpt>
      <trkpt lat="45.66954" lon="6.69263">
        <ele>2187</ele>
        <time>2022-07-26T07:40:05Z</time>
      </trkpt>
      <trkpt lat="45.66954" lon="6.69262">
        <ele>2187</ele>
        <time>2022-07-26T07:40:06Z</time>
      </trkpt>
      <trkpt lat="45.66954" lon="6.69262">
        <ele>2187</ele>
        <time>2022-07-26T07:40:07Z</time>
      </trkpt>
      <trkpt lat="45.66954" lon="6.69262">
        <ele>2187</ele>
        <time>2022-07-26T07:40:08Z</time>
      </trkpt>
      <trkpt lat="45.66954" lon="6.69262">
        <ele>2187</ele>
        <time>2022-07-26T07:40:09Z</time>
      </trkpt>
      <trkpt lat="45.66955" lon="6.69261">
        <ele>2187</ele>
        <time>2022-07-26T07:40:10Z</time>
      </trkpt>
      <trkpt lat="45.66954" lon="6.69262">
        <ele>2187</ele>
        <time>2022-07-26T07:40:11Z</time>
      </trkpt>
      <trkpt lat="45.66954" lon="6.69262">
        <ele>2187</ele>
        <time>2022-07-26T07:40:12Z</time>
      </trkpt>
      <trkpt lat="45.66954" lon="6.69264">
        <ele>2187</ele>
        <time>2022-07-26T07:40:13Z</time>
      </trkpt>
      <trkpt lat="45.66954" lon="6.69265">
        <ele>2187</ele>
        <time>2022-07-26T07:40:14Z</time>
      </trkpt>
      <trkpt lat="45.66953" lon="6.69267">
        <ele>2187</ele>
        <time>2022-07-26T07:40:15Z</time>
      </trkpt>
      <trkpt lat="45.66952" lon="6.69269">
        <ele>2187</ele>
        <time>2022-07-26T07:40:16Z</time>
      </trkpt>
      <trkpt lat="45.66952" lon="6.6927">
        <ele>2187</ele>
        <time>2022-07-26T07:40:17Z</time>
      </trkpt>
      <trkpt lat="45.66951" lon="6.69272">
        <ele>2187</ele>
        <time>2022-07-26T07:40:18Z</time>
      </trkpt>
      <trkpt lat="45.66951" lon="6.69273">
        <ele>2187</ele>
        <time>2022-07-26T07:40:19Z</time>
      </trkpt>
      <trkpt lat="45.6695" lon="6.69274">
        <ele>2187</ele>
        <time>2022-07-26T07:40:20Z</time>
      </trkpt>
      <trkpt lat="45.6695" lon="6.69275">
        <ele>2187</ele>
        <time>2022-07-26T07:40:21Z</time>
      </trkpt>
      <trkpt lat="45.66949" lon="6.69276">
        <ele>2187</ele>
        <time>2022-07-26T07:40:22Z</time>
      </trkpt>
      <trkpt lat="45.66949" lon="6.69277">
        <ele>2187</ele>
        <time>2022-07-26T07:40:23Z</time>
      </trkpt>
      <trkpt lat="45.66949" lon="6.69278">
        <ele>2187</ele>
        <time>2022-07-26T07:40:24Z</time>
      </trkpt>
      <trkpt lat="45.66949" lon="6.69279">
        <ele>2187</ele>
        <time>2022-07-26T07:40:25Z</time>
      </trkpt>
      <trkpt lat="45.66949" lon="6.6928">
        <ele>2187</ele>
        <time>2022-07-26T07:40:26Z</time>
      </trkpt>
      <trkpt lat="45.66949" lon="6.69281">
        <ele>2187</ele>
        <time>2022-07-26T07:40:27Z</time>
      </trkpt>
      <trkpt lat="45.66949" lon="6.69282">
        <ele>2187</ele>
        <time>2022-07-26T07:40:28Z</time>
      </trkpt>
      <trkpt lat="45.66949" lon="6.69283">
        <ele>2187</ele>
        <time>2022-07-26T07:40:29Z</time>
      </trkpt>
      <trkpt lat="45.66949" lon="6.69284">
        <ele>2187</ele>
        <time>2022-07-26T07:40:30Z</time>
      </trkpt>
      <trkpt lat="45.66948" lon="6.69285">
        <ele>2187</ele>
        <time>2022-07-26T07:41:21Z</time>
      </trkpt>
      <trkpt lat="45.66948" lon="6.69285">
        <ele>2187</ele>
        <time>2022-07-26T07:41:22Z</time>
      </trkpt>
      <trkpt lat="45.66948" lon="6.69284">
        <ele>2187</ele>
        <time>2022-07-26T07:41:23Z</time>
      </trkpt>
      <trkpt lat="45.66948" lon="6.69284">
        <ele>2187</ele>
        <time>2022-07-26T07:41:24Z</time>
      </trkpt>
      <trkpt lat="45.66947" lon="6.69283">
        <ele>2187</ele>
        <time>2022-07-26T07:41:25Z</time>
      </trkpt>
      <trkpt lat="45.66947" lon="6.69283">
        <ele>2186</ele>
        <time>2022-07-26T07:42:43Z</time>
      </trkpt>
      <trkpt lat="45.66947" lon="6.69283">
        <ele>2186</ele>
        <time>2022-07-26T07:42:44Z</time>
      </trkpt>
      <trkpt lat="45.66947" lon="6.69282">
        <ele>2186</ele>
        <time>2022-07-26T07:42:45Z</time>
      </trkpt>
      <trkpt lat="45.66947" lon="6.69283">
        <ele>2186</ele>
        <time>2022-07-26T07:42:46Z</time>
      </trkpt>
      <trkpt lat="45.66946" lon="6.69284">
        <ele>2186</ele>
        <time>2022-07-26T07:42:47Z</time>
      </trkpt>
      <trkpt lat="45.66946" lon="6.69285">
        <ele>2186</ele>
        <time>2022-07-26T07:42:58Z</time>
      </trkpt>
      <trkpt lat="45.66946" lon="6.69285">
        <ele>2186</ele>
        <time>2022-07-26T07:42:59Z</time>
      </trkpt>
      <trkpt lat="45.66946" lon="6.69285">
        <ele>2186</ele>
        <time>2022-07-26T07:43:00Z</time>
      </trkpt>
      <trkpt lat="45.66946" lon="6.69286">
        <ele>2187</ele>
        <time>2022-07-26T07:46:46Z</time>
      </trkpt>
      <trkpt lat="45.66946" lon="6.69286">
        <ele>2187</ele>
        <time>2022-07-26T07:46:47Z</time>
      </trkpt>
      <trkpt lat="45.66947" lon="6.69286">
        <ele>2187</ele>
        <time>2022-07-26T07:46:48Z</time>
      </trkpt>
      <trkpt lat="45.66947" lon="6.69285">
        <ele>2187</ele>
        <time>2022-07-26T07:46:49Z</time>
      </trkpt>
      <trkpt lat="45.66947" lon="6.69284">
        <ele>2187</ele>
        <time>2022-07-26T07:46:50Z</time>
      </trkpt>
      <trkpt lat="45.66947" lon="6.69283">
        <ele>2187</ele>
        <time>2022-07-26T07:46:51Z</time>
      </trkpt>
      <trkpt lat="45.66947" lon="6.69282">
        <ele>2187</ele>
        <time>2022-07-26T07:46:52Z</time>
      </trkpt>
      <trkpt lat="45.66947" lon="6.69281">
        <ele>2187</ele>
        <time>2022-07-26T07:46:53Z</time>
      </trkpt>
      <trkpt lat="45.66947" lon="6.6928">
        <ele>2187</ele>
        <time>2022-07-26T07:46:54Z</time>
      </trkpt>
      <trkpt lat="45.66947" lon="6.69279">
        <ele>2187</ele>
        <time>2022-07-26T07:46:55Z</time>
      </trkpt>
      <trkpt lat="45.66947" lon="6.69277">
        <ele>2187</ele>
        <time>2022-07-26T07:46:56Z</time>
      </trkpt>
      <trkpt lat="45.66947" lon="6.69276">
        <ele>2187</ele>
        <time>2022-07-26T07:46:57Z</time>
      </trkpt>
      <trkpt lat="45.66948" lon="6.69274">
        <ele>2187</ele>
        <time>2022-07-26T07:46:58Z</time>
      </trkpt>
      <trkpt lat="45.66948" lon="6.69272">
        <ele>2187</ele>
        <time>2022-07-26T07:46:59Z</time>
      </trkpt>
      <trkpt lat="45.66948" lon="6.69271">
        <ele>2187</ele>
        <time>2022-07-26T07:47:00Z</time>
      </trkpt>
      <trkpt lat="45.66949" lon="6.69269">
        <ele>2187</ele>
        <time>2022-07-26T07:47:01Z</time>
      </trkpt>
      <trkpt lat="45.66949" lon="6.69267">
        <ele>2187</ele>
        <time>2022-07-26T07:47:02Z</time>
      </trkpt>
      <trkpt lat="45.66949" lon="6.69266">
        <ele>2187</ele>
        <time>2022-07-26T07:47:03Z</time>
      </trkpt>
      <trkpt lat="45.6695" lon="6.69265">
        <ele>2187</ele>
        <time>2022-07-26T07:47:04Z</time>
      </trkpt>
      <trkpt lat="45.6695" lon="6.69263">
        <ele>2187</ele>
        <time>2022-07-26T07:47:05Z</time>
      </trkpt>
      <trkpt lat="45.6695" lon="6.69262">
        <ele>2187</ele>
        <time>2022-07-26T07:47:06Z</time>
      </trkpt>
      <trkpt lat="45.6695" lon="6.69261">
        <ele>2187</ele>
        <time>2022-07-26T07:47:07Z</time>
      </trkpt>
      <trkpt lat="45.6695" lon="6.6926">
        <ele>2187</ele>
        <time>2022-07-26T07:47:08Z</time>
      </trkpt>
      <trkpt lat="45.6695" lon="6.69259">
        <ele>2187</ele>
        <time>2022-07-26T07:47:09Z</time>
      </trkpt>
      <trkpt lat="45.6695" lon="6.69258">
        <ele>2187</ele>
        <time>2022-07-26T07:47:10Z</time>
      </trkpt>
      <trkpt lat="45.66949" lon="6.69257">
        <ele>2187</ele>
        <time>2022-07-26T07:47:11Z</time>
      </trkpt>
      <trkpt lat="45.66949" lon="6.69256">
        <ele>2187</ele>
        <time>2022-07-26T07:47:12Z</time>
      </trkpt>
      <trkpt lat="45.66948" lon="6.69255">
        <ele>2187</ele>
        <time>2022-07-26T07:47:22Z</time>
      </trkpt>
      <trkpt lat="45.66947" lon="6.69254">
        <ele>2187</ele>
        <time>2022-07-26T07:47:23Z</time>
      </trkpt>
      <trkpt lat="45.66947" lon="6.69253">
        <ele>2187</ele>
        <time>2022-07-26T07:47:24Z</time>
      </trkpt>
      <trkpt lat="45.66946" lon="6.69252">
        <ele>2187</ele>
        <time>2022-07-26T07:47:25Z</time>
      </trkpt>
      <trkpt lat="45.66946" lon="6.69252">
        <ele>2187</ele>
        <time>2022-07-26T07:47:26Z</time>
      </trkpt>
      <trkpt lat="45.66945" lon="6.69251">
        <ele>2188</ele>
        <time>2022-07-26T07:47:27Z</time>
      </trkpt>
      <trkpt lat="45.66945" lon="6.6925">
        <ele>2188</ele>
        <time>2022-07-26T07:47:28Z</time>
      </trkpt>
      <trkpt lat="45.66944" lon="6.69249">
        <ele>2188</ele>
        <time>2022-07-26T07:47:29Z</time>
      </trkpt>
      <trkpt lat="45.66944" lon="6.69249">
        <ele>2188</ele>
        <time>2022-07-26T07:47:30Z</time>
      </trkpt>
      <trkpt lat="45.66943" lon="6.69248">
        <ele>2188</ele>
        <time>2022-07-26T07:47:31Z</time>
      </trkpt>
      <trkpt lat="45.66943" lon="6.69247">
        <ele>2188</ele>
        <time>2022-07-26T07:47:32Z</time>
      </trkpt>
      <trkpt lat="45.66942" lon="6.69246">
        <ele>2188</ele>
        <time>2022-07-26T07:47:33Z</time>
      </trkpt>
      <trkpt lat="45.66942" lon="6.69246">
        <ele>2188</ele>
        <time>2022-07-26T07:47:34Z</time>
      </trkpt>
      <trkpt lat="45.66941" lon="6.69245">
        <ele>2188</ele>
        <time>2022-07-26T07:47:35Z</time>
      </trkpt>
      <trkpt lat="45.66941" lon="6.69244">
        <ele>2188</ele>
        <time>2022-07-26T07:47:36Z</time>
      </trkpt>
      <trkpt lat="45.6694" lon="6.69244">
        <ele>2188</ele>
        <time>2022-07-26T07:47:37Z</time>
      </trkpt>
      <trkpt lat="45.6694" lon="6.69243">
        <ele>2188</ele>
        <time>2022-07-26T07:47:38Z</time>
      </trkpt>
      <trkpt lat="45.66939" lon="6.69243">
        <ele>2188</ele>
        <time>2022-07-26T07:47:39Z</time>
      </trkpt>
      <trkpt lat="45.66939" lon="6.69243">
        <ele>2188</ele>
        <time>2022-07-26T07:47:40Z</time>
      </trkpt>
      <trkpt lat="45.66938" lon="6.69242">
        <ele>2188</ele>
        <time>2022-07-26T07:47:41Z</time>
      </trkpt>
      <trkpt lat="45.66938" lon="6.69242">
        <ele>2189</ele>
        <time>2022-07-26T07:47:42Z</time>
      </trkpt>
      <trkpt lat="45.66937" lon="6.69241">
        <ele>2189</ele>
        <time>2022-07-26T07:47:43Z</time>
      </trkpt>
      <trkpt lat="45.66937" lon="6.69241">
        <ele>2189</ele>
        <time>2022-07-26T07:47:44Z</time>
      </trkpt>
      <trkpt lat="45.66936" lon="6.6924">
        <ele>2189</ele>
        <time>2022-07-26T07:47:45Z</time>
      </trkpt>
      <trkpt lat="45.66936" lon="6.6924">
        <ele>2189</ele>
        <time>2022-07-26T07:47:46Z</time>
      </trkpt>
      <trkpt lat="45.66935" lon="6.69239">
        <ele>2189</ele>
        <time>2022-07-26T07:47:47Z</time>
      </trkpt>
      <trkpt lat="45.66935" lon="6.69239">
        <ele>2189</ele>
        <time>2022-07-26T07:47:48Z</time>
      </trkpt>
      <trkpt lat="45.66934" lon="6.69239">
        <ele>2189</ele>
        <time>2022-07-26T07:47:49Z</time>
      </trkpt>
      <trkpt lat="45.66933" lon="6.69238">
        <ele>2189</ele>
        <time>2022-07-26T07:47:50Z</time>
      </trkpt>
      <trkpt lat="45.66933" lon="6.69238">
        <ele>2189</ele>
        <time>2022-07-26T07:47:51Z</time>
      </trkpt>
      <trkpt lat="45.66932" lon="6.69237">
        <ele>2190</ele>
        <time>2022-07-26T07:47:52Z</time>
      </trkpt>
      <trkpt lat="45.66932" lon="6.69237">
        <ele>2190</ele>
        <time>2022-07-26T07:47:53Z</time>
      </trkpt>
      <trkpt lat="45.66931" lon="6.69237">
        <ele>2190</ele>
        <time>2022-07-26T07:47:54Z</time>
      </trkpt>
      <trkpt lat="45.6693" lon="6.69236">
        <ele>2190</ele>
        <time>2022-07-26T07:47:55Z</time>
      </trkpt>
      <trkpt lat="45.6693" lon="6.69236">
        <ele>2190</ele>
        <time>2022-07-26T07:47:56Z</time>
      </trkpt>
      <trkpt lat="45.6693" lon="6.69235">
        <ele>2190</ele>
        <time>2022-07-26T07:47:57Z</time>
      </trkpt>
      <trkpt lat="45.66929" lon="6.69235">
        <ele>2190</ele>
        <time>2022-07-26T07:47:58Z</time>
      </trkpt>
      <trkpt lat="45.66929" lon="6.69234">
        <ele>2190</ele>
        <time>2022-07-26T07:47:59Z</time>
      </trkpt>
      <trkpt lat="45.66928" lon="6.69234">
        <ele>2190</ele>
        <time>2022-07-26T07:48:00Z</time>
      </trkpt>
      <trkpt lat="45.66928" lon="6.69233">
        <ele>2190</ele>
        <time>2022-07-26T07:48:01Z</time>
      </trkpt>
      <trkpt lat="45.66927" lon="6.69232">
        <ele>2191</ele>
        <time>2022-07-26T07:48:02Z</time>
      </trkpt>
      <trkpt lat="45.66927" lon="6.69232">
        <ele>2191</ele>
        <time>2022-07-26T07:48:03Z</time>
      </trkpt>
      <trkpt lat="45.66926" lon="6.69231">
        <ele>2191</ele>
        <time>2022-07-26T07:48:04Z</time>
      </trkpt>
      <trkpt lat="45.66926" lon="6.6923">
        <ele>2191</ele>
        <time>2022-07-26T07:48:05Z</time>
      </trkpt>
      <trkpt lat="45.66925" lon="6.69229">
        <ele>2191</ele>
        <time>2022-07-26T07:48:06Z</time>
      </trkpt>
      <trkpt lat="45.66925" lon="6.69228">
        <ele>2191</ele>
        <time>2022-07-26T07:48:07Z</time>
      </trkpt>
      <trkpt lat="45.66925" lon="6.69228">
        <ele>2191</ele>
        <time>2022-07-26T07:48:08Z</time>
      </trkpt>
      <trkpt lat="45.66925" lon="6.69227">
        <ele>2191</ele>
        <time>2022-07-26T07:48:09Z</time>
      </trkpt>
      <trkpt lat="45.66924" lon="6.69226">
        <ele>2191</ele>
        <time>2022-07-26T07:48:10Z</time>
      </trkpt>
      <trkpt lat="45.66924" lon="6.69225">
        <ele>2191</ele>
        <time>2022-07-26T07:48:11Z</time>
      </trkpt>
      <trkpt lat="45.66924" lon="6.69224">
        <ele>2191</ele>
        <time>2022-07-26T07:48:12Z</time>
      </trkpt>
      <trkpt lat="45.66923" lon="6.69224">
        <ele>2191</ele>
        <time>2022-07-26T07:48:13Z</time>
      </trkpt>
      <trkpt lat="45.66923" lon="6.69223">
        <ele>2191</ele>
        <time>2022-07-26T07:48:14Z</time>
      </trkpt>
      <trkpt lat="45.6692" lon="6.69221">
        <ele>2193</ele>
        <time>2022-07-26T07:48:39Z</time>
      </trkpt>
      <trkpt lat="45.66918" lon="6.6922">
        <ele>2193</ele>
        <time>2022-07-26T07:48:40Z</time>
      </trkpt>
      <trkpt lat="45.66917" lon="6.69219">
        <ele>2193</ele>
        <time>2022-07-26T07:48:41Z</time>
      </trkpt>
      <trkpt lat="45.66916" lon="6.69218">
        <ele>2193</ele>
        <time>2022-07-26T07:48:42Z</time>
      </trkpt>
      <trkpt lat="45.66915" lon="6.69218">
        <ele>2193</ele>
        <time>2022-07-26T07:48:43Z</time>
      </trkpt>
      <trkpt lat="45.66915" lon="6.69216">
        <ele>2194</ele>
        <time>2022-07-26T07:48:50Z</time>
      </trkpt>
      <trkpt lat="45.66914" lon="6.69215">
        <ele>2194</ele>
        <time>2022-07-26T07:48:51Z</time>
      </trkpt>
      <trkpt lat="45.66914" lon="6.69214">
        <ele>2195</ele>
        <time>2022-07-26T07:48:52Z</time>
      </trkpt>
      <trkpt lat="45.66913" lon="6.69214">
        <ele>2195</ele>
        <time>2022-07-26T07:48:53Z</time>
      </trkpt>
      <trkpt lat="45.66913" lon="6.69213">
        <ele>2195</ele>
        <time>2022-07-26T07:48:54Z</time>
      </trkpt>
      <trkpt lat="45.66913" lon="6.69213">
        <ele>2195</ele>
        <time>2022-07-26T07:48:55Z</time>
      </trkpt>
      <trkpt lat="45.66913" lon="6.69212">
        <ele>2195</ele>
        <time>2022-07-26T07:48:56Z</time>
      </trkpt>
      <trkpt lat="45.66912" lon="6.69212">
        <ele>2196</ele>
        <time>2022-07-26T07:48:57Z</time>
      </trkpt>
      <trkpt lat="45.66912" lon="6.69211">
        <ele>2196</ele>
        <time>2022-07-26T07:48:58Z</time>
      </trkpt>
      <trkpt lat="45.66912" lon="6.6921">
        <ele>2196</ele>
        <time>2022-07-26T07:48:59Z</time>
      </trkpt>
      <trkpt lat="45.66911" lon="6.6921">
        <ele>2196</ele>
        <time>2022-07-26T07:49:00Z</time>
      </trkpt>
      <trkpt lat="45.66911" lon="6.69209">
        <ele>2196</ele>
        <time>2022-07-26T07:49:01Z</time>
      </trkpt>
      <trkpt lat="45.66911" lon="6.69209">
        <ele>2196</ele>
        <time>2022-07-26T07:49:02Z</time>
      </trkpt>
      <trkpt lat="45.66911" lon="6.69208">
        <ele>2196</ele>
        <time>2022-07-26T07:49:03Z</time>
      </trkpt>
      <trkpt lat="45.66911" lon="6.69208">
        <ele>2196</ele>
        <time>2022-07-26T07:49:04Z</time>
      </trkpt>
      <trkpt lat="45.66911" lon="6.69208">
        <ele>2196</ele>
        <time>2022-07-26T07:49:05Z</time>
      </trkpt>
      <trkpt lat="45.66911" lon="6.69207">
        <ele>2196</ele>
        <time>2022-07-26T07:49:06Z</time>
      </trkpt>
      <trkpt lat="45.6691" lon="6.69206">
        <ele>2197</ele>
        <time>2022-07-26T07:49:07Z</time>
      </trkpt>
      <trkpt lat="45.6691" lon="6.69205">
        <ele>2197</ele>
        <time>2022-07-26T07:49:08Z</time>
      </trkpt>
      <trkpt lat="45.66909" lon="6.69204">
        <ele>2197</ele>
        <time>2022-07-26T07:49:09Z</time>
      </trkpt>
      <trkpt lat="45.66909" lon="6.69203">
        <ele>2197</ele>
        <time>2022-07-26T07:49:10Z</time>
      </trkpt>
      <trkpt lat="45.66909" lon="6.69202">
        <ele>2197</ele>
        <time>2022-07-26T07:49:11Z</time>
      </trkpt>
      <trkpt lat="45.66908" lon="6.69201">
        <ele>2198</ele>
        <time>2022-07-26T07:49:12Z</time>
      </trkpt>
      <trkpt lat="45.66908" lon="6.692">
        <ele>2198</ele>
        <time>2022-07-26T07:49:13Z</time>
      </trkpt>
      <trkpt lat="45.66908" lon="6.69199">
        <ele>2198</ele>
        <time>2022-07-26T07:49:14Z</time>
      </trkpt>
      <trkpt lat="45.66907" lon="6.69198">
        <ele>2198</ele>
        <time>2022-07-26T07:49:15Z</time>
      </trkpt>
      <trkpt lat="45.66907" lon="6.69198">
        <ele>2198</ele>
        <time>2022-07-26T07:49:16Z</time>
      </trkpt>
      <trkpt lat="45.66907" lon="6.69197">
        <ele>2199</ele>
        <time>2022-07-26T07:49:17Z</time>
      </trkpt>
      <trkpt lat="45.66907" lon="6.69196">
        <ele>2199</ele>
        <time>2022-07-26T07:49:18Z</time>
      </trkpt>
      <trkpt lat="45.66907" lon="6.69195">
        <ele>2199</ele>
        <time>2022-07-26T07:49:19Z</time>
      </trkpt>
      <trkpt lat="45.66906" lon="6.69194">
        <ele>2199</ele>
        <time>2022-07-26T07:49:20Z</time>
      </trkpt>
      <trkpt lat="45.66906" lon="6.69193">
        <ele>2199</ele>
        <time>2022-07-26T07:49:21Z</time>
      </trkpt>
      <trkpt lat="45.66906" lon="6.69192">
        <ele>2199</ele>
        <time>2022-07-26T07:49:22Z</time>
      </trkpt>
      <trkpt lat="45.66906" lon="6.69191">
        <ele>2199</ele>
        <time>2022-07-26T07:49:23Z</time>
      </trkpt>
      <trkpt lat="45.66906" lon="6.6919">
        <ele>2199</ele>
        <time>2022-07-26T07:49:24Z</time>
      </trkpt>
      <trkpt lat="45.66906" lon="6.69189">
        <ele>2199</ele>
        <time>2022-07-26T07:49:25Z</time>
      </trkpt>
      <trkpt lat="45.66906" lon="6.69187">
        <ele>2199</ele>
        <time>2022-07-26T07:49:26Z</time>
      </trkpt>
      <trkpt lat="45.66906" lon="6.69186">
        <ele>2200</ele>
        <time>2022-07-26T07:49:27Z</time>
      </trkpt>
      <trkpt lat="45.66905" lon="6.69185">
        <ele>2200</ele>
        <time>2022-07-26T07:49:28Z</time>
      </trkpt>
      <trkpt lat="45.66905" lon="6.69184">
        <ele>2200</ele>
        <time>2022-07-26T07:49:29Z</time>
      </trkpt>
      <trkpt lat="45.66905" lon="6.69183">
        <ele>2200</ele>
        <time>2022-07-26T07:49:30Z</time>
      </trkpt>
      <trkpt lat="45.66905" lon="6.69182">
        <ele>2200</ele>
        <time>2022-07-26T07:49:31Z</time>
      </trkpt>
      <trkpt lat="45.66905" lon="6.69181">
        <ele>2201</ele>
        <time>2022-07-26T07:49:32Z</time>
      </trkpt>
      <trkpt lat="45.66905" lon="6.6918">
        <ele>2201</ele>
        <time>2022-07-26T07:49:33Z</time>
      </trkpt>
      <trkpt lat="45.66904" lon="6.69179">
        <ele>2201</ele>
        <time>2022-07-26T07:49:34Z</time>
      </trkpt>
      <trkpt lat="45.66904" lon="6.69178">
        <ele>2201</ele>
        <time>2022-07-26T07:49:35Z</time>
      </trkpt>
      <trkpt lat="45.66904" lon="6.69176">
        <ele>2201</ele>
        <time>2022-07-26T07:49:36Z</time>
      </trkpt>
      <trkpt lat="45.66904" lon="6.69175">
        <ele>2202</ele>
        <time>2022-07-26T07:49:37Z</time>
      </trkpt>
      <trkpt lat="45.66904" lon="6.69172">
        <ele>2206</ele>
        <time>2022-07-26T07:50:12Z</time>
      </trkpt>
      <trkpt lat="45.66904" lon="6.6917">
        <ele>2206</ele>
        <time>2022-07-26T07:50:13Z</time>
      </trkpt>
      <trkpt lat="45.66903" lon="6.69168">
        <ele>2206</ele>
        <time>2022-07-26T07:50:14Z</time>
      </trkpt>
      <trkpt lat="45.66903" lon="6.69167">
        <ele>2206</ele>
        <time>2022-07-26T07:50:15Z</time>
      </trkpt>
      <trkpt lat="45.66903" lon="6.69167">
        <ele>2206</ele>
        <time>2022-07-26T07:50:16Z</time>
      </trkpt>
      <trkpt lat="45.66903" lon="6.69166">
        <ele>2206</ele>
        <time>2022-07-26T07:50:17Z</time>
      </trkpt>
      <trkpt lat="45.66903" lon="6.69166">
        <ele>2206</ele>
        <time>2022-07-26T07:50:18Z</time>
      </trkpt>
      <trkpt lat="45.66902" lon="6.69165">
        <ele>2206</ele>
        <time>2022-07-26T07:50:19Z</time>
      </trkpt>
      <trkpt lat="45.66902" lon="6.69165">
        <ele>2206</ele>
        <time>2022-07-26T07:50:20Z</time>
      </trkpt>
      <trkpt lat="45.66901" lon="6.69164">
        <ele>2206</ele>
        <time>2022-07-26T07:50:21Z</time>
      </trkpt>
      <trkpt lat="45.66901" lon="6.69164">
        <ele>2207</ele>
        <time>2022-07-26T07:50:22Z</time>
      </trkpt>
      <trkpt lat="45.669" lon="6.69163">
        <ele>2207</ele>
        <time>2022-07-26T07:50:23Z</time>
      </trkpt>
      <trkpt lat="45.669" lon="6.69162">
        <ele>2207</ele>
        <time>2022-07-26T07:50:24Z</time>
      </trkpt>
      <trkpt lat="45.66899" lon="6.69162">
        <ele>2207</ele>
        <time>2022-07-26T07:50:25Z</time>
      </trkpt>
      <trkpt lat="45.66898" lon="6.69161">
        <ele>2207</ele>
        <time>2022-07-26T07:50:26Z</time>
      </trkpt>
      <trkpt lat="45.66898" lon="6.6916">
        <ele>2207</ele>
        <time>2022-07-26T07:50:27Z</time>
      </trkpt>
      <trkpt lat="45.66897" lon="6.6916">
        <ele>2207</ele>
        <time>2022-07-26T07:50:28Z</time>
      </trkpt>
      <trkpt lat="45.66897" lon="6.69159">
        <ele>2207</ele>
        <time>2022-07-26T07:50:29Z</time>
      </trkpt>
      <trkpt lat="45.66896" lon="6.69159">
        <ele>2207</ele>
        <time>2022-07-26T07:50:30Z</time>
      </trkpt>
      <trkpt lat="45.66896" lon="6.69158">
        <ele>2207</ele>
        <time>2022-07-26T07:50:31Z</time>
      </trkpt>
      <trkpt lat="45.66895" lon="6.69158">
        <ele>2207</ele>
        <time>2022-07-26T07:50:32Z</time>
      </trkpt>
      <trkpt lat="45.66895" lon="6.69157">
        <ele>2207</ele>
        <time>2022-07-26T07:50:33Z</time>
      </trkpt>
      <trkpt lat="45.66894" lon="6.69156">
        <ele>2207</ele>
        <time>2022-07-26T07:50:34Z</time>
      </trkpt>
      <trkpt lat="45.66894" lon="6.69156">
        <ele>2207</ele>
        <time>2022-07-26T07:50:35Z</time>
      </trkpt>
      <trkpt lat="45.66894" lon="6.69155">
        <ele>2207</ele>
        <time>2022-07-26T07:50:36Z</time>
      </trkpt>
      <trkpt lat="45.66893" lon="6.69154">
        <ele>2207</ele>
        <time>2022-07-26T07:50:37Z</time>
      </trkpt>
      <trkpt lat="45.66893" lon="6.69153">
        <ele>2207</ele>
        <time>2022-07-26T07:50:38Z</time>
      </trkpt>
      <trkpt lat="45.66892" lon="6.69152">
        <ele>2207</ele>
        <time>2022-07-26T07:50:39Z</time>
      </trkpt>
      <trkpt lat="45.66891" lon="6.69151">
        <ele>2207</ele>
        <time>2022-07-26T07:50:40Z</time>
      </trkpt>
      <trkpt lat="45.66891" lon="6.69151">
        <ele>2207</ele>
        <time>2022-07-26T07:50:41Z</time>
      </trkpt>
      <trkpt lat="45.6689" lon="6.6915">
        <ele>2208</ele>
        <time>2022-07-26T07:50:42Z</time>
      </trkpt>
      <trkpt lat="45.6689" lon="6.69149">
        <ele>2208</ele>
        <time>2022-07-26T07:50:43Z</time>
      </trkpt>
      <trkpt lat="45.66889" lon="6.69148">
        <ele>2208</ele>
        <time>2022-07-26T07:50:44Z</time>
      </trkpt>
      <trkpt lat="45.66889" lon="6.69148">
        <ele>2208</ele>
        <time>2022-07-26T07:50:45Z</time>
      </trkpt>
      <trkpt lat="45.66888" lon="6.69147">
        <ele>2208</ele>
        <time>2022-07-26T07:50:46Z</time>
      </trkpt>
      <trkpt lat="45.66887" lon="6.69146">
        <ele>2208</ele>
        <time>2022-07-26T07:50:47Z</time>
      </trkpt>
      <trkpt lat="45.66887" lon="6.69146">
        <ele>2208</ele>
        <time>2022-07-26T07:50:48Z</time>
      </trkpt>
      <trkpt lat="45.66886" lon="6.69145">
        <ele>2208</ele>
        <time>2022-07-26T07:50:49Z</time>
      </trkpt>
      <trkpt lat="45.66886" lon="6.69144">
        <ele>2208</ele>
        <time>2022-07-26T07:50:50Z</time>
      </trkpt>
      <trkpt lat="45.66885" lon="6.69144">
        <ele>2208</ele>
        <time>2022-07-26T07:50:51Z</time>
      </trkpt>
      <trkpt lat="45.66884" lon="6.69143">
        <ele>2208</ele>
        <time>2022-07-26T07:50:52Z</time>
      </trkpt>
      <trkpt lat="45.66884" lon="6.69143">
        <ele>2208</ele>
        <time>2022-07-26T07:50:53Z</time>
      </trkpt>
      <trkpt lat="45.66884" lon="6.69143">
        <ele>2208</ele>
        <time>2022-07-26T07:50:54Z</time>
      </trkpt>
      <trkpt lat="45.66883" lon="6.69142">
        <ele>2208</ele>
        <time>2022-07-26T07:50:55Z</time>
      </trkpt>
      <trkpt lat="45.66882" lon="6.69142">
        <ele>2208</ele>
        <time>2022-07-26T07:50:56Z</time>
      </trkpt>
      <trkpt lat="45.66882" lon="6.69141">
        <ele>2208</ele>
        <time>2022-07-26T07:50:57Z</time>
      </trkpt>
      <trkpt lat="45.66881" lon="6.69141">
        <ele>2208</ele>
        <time>2022-07-26T07:50:58Z</time>
      </trkpt>
      <trkpt lat="45.66881" lon="6.6914">
        <ele>2208</ele>
        <time>2022-07-26T07:50:59Z</time>
      </trkpt>
      <trkpt lat="45.6688" lon="6.6914">
        <ele>2208</ele>
        <time>2022-07-26T07:51:00Z</time>
      </trkpt>
      <trkpt lat="45.6688" lon="6.69139">
        <ele>2208</ele>
        <time>2022-07-26T07:51:01Z</time>
      </trkpt>
      <trkpt lat="45.66879" lon="6.69139">
        <ele>2209</ele>
        <time>2022-07-26T07:51:02Z</time>
      </trkpt>
      <trkpt lat="45.66878" lon="6.69138">
        <ele>2209</ele>
        <time>2022-07-26T07:51:03Z</time>
      </trkpt>
      <trkpt lat="45.66878" lon="6.69138">
        <ele>2209</ele>
        <time>2022-07-26T07:51:04Z</time>
      </trkpt>
      <trkpt lat="45.66877" lon="6.69137">
        <ele>2209</ele>
        <time>2022-07-26T07:51:05Z</time>
      </trkpt>
      <trkpt lat="45.66877" lon="6.69137">
        <ele>2209</ele>
        <time>2022-07-26T07:51:06Z</time>
      </trkpt>
      <trkpt lat="45.66876" lon="6.69137">
        <ele>2209</ele>
        <time>2022-07-26T07:51:07Z</time>
      </trkpt>
      <trkpt lat="45.66876" lon="6.69136">
        <ele>2209</ele>
        <time>2022-07-26T07:51:08Z</time>
      </trkpt>
      <trkpt lat="45.66875" lon="6.69136">
        <ele>2209</ele>
        <time>2022-07-26T07:51:09Z</time>
      </trkpt>
      <trkpt lat="45.66875" lon="6.69136">
        <ele>2209</ele>
        <time>2022-07-26T07:51:10Z</time>
      </trkpt>
      <trkpt lat="45.66874" lon="6.69136">
        <ele>2209</ele>
        <time>2022-07-26T07:51:11Z</time>
      </trkpt>
      <trkpt lat="45.66874" lon="6.69136">
        <ele>2209</ele>
        <time>2022-07-26T07:51:12Z</time>
      </trkpt>
      <trkpt lat="45.66873" lon="6.69136">
        <ele>2209</ele>
        <time>2022-07-26T07:51:13Z</time>
      </trkpt>
      <trkpt lat="45.66872" lon="6.69136">
        <ele>2209</ele>
        <time>2022-07-26T07:51:14Z</time>
      </trkpt>
      <trkpt lat="45.66872" lon="6.69135">
        <ele>2209</ele>
        <time>2022-07-26T07:51:15Z</time>
      </trkpt>
      <trkpt lat="45.66871" lon="6.69134">
        <ele>2209</ele>
        <time>2022-07-26T07:51:16Z</time>
      </trkpt>
      <trkpt lat="45.66871" lon="6.69133">
        <ele>2210</ele>
        <time>2022-07-26T07:51:17Z</time>
      </trkpt>
      <trkpt lat="45.6687" lon="6.69132">
        <ele>2210</ele>
        <time>2022-07-26T07:51:18Z</time>
      </trkpt>
      <trkpt lat="45.6687" lon="6.69132">
        <ele>2210</ele>
        <time>2022-07-26T07:51:19Z</time>
      </trkpt>
      <trkpt lat="45.6687" lon="6.69131">
        <ele>2210</ele>
        <time>2022-07-26T07:51:20Z</time>
      </trkpt>
      <trkpt lat="45.6687" lon="6.6913">
        <ele>2210</ele>
        <time>2022-07-26T07:51:21Z</time>
      </trkpt>
      <trkpt lat="45.6687" lon="6.69129">
        <ele>2210</ele>
        <time>2022-07-26T07:51:22Z</time>
      </trkpt>
      <trkpt lat="45.6687" lon="6.69128">
        <ele>2210</ele>
        <time>2022-07-26T07:51:23Z</time>
      </trkpt>
      <trkpt lat="45.66869" lon="6.69127">
        <ele>2210</ele>
        <time>2022-07-26T07:51:24Z</time>
      </trkpt>
      <trkpt lat="45.66869" lon="6.69126">
        <ele>2210</ele>
        <time>2022-07-26T07:51:25Z</time>
      </trkpt>
      <trkpt lat="45.66869" lon="6.69125">
        <ele>2210</ele>
        <time>2022-07-26T07:51:26Z</time>
      </trkpt>
      <trkpt lat="45.66869" lon="6.69125">
        <ele>2210</ele>
        <time>2022-07-26T07:51:27Z</time>
      </trkpt>
      <trkpt lat="45.66869" lon="6.69124">
        <ele>2210</ele>
        <time>2022-07-26T07:51:28Z</time>
      </trkpt>
      <trkpt lat="45.66869" lon="6.69123">
        <ele>2210</ele>
        <time>2022-07-26T07:51:29Z</time>
      </trkpt>
      <trkpt lat="45.66869" lon="6.69122">
        <ele>2210</ele>
        <time>2022-07-26T07:51:30Z</time>
      </trkpt>
      <trkpt lat="45.66869" lon="6.69122">
        <ele>2210</ele>
        <time>2022-07-26T07:51:31Z</time>
      </trkpt>
      <trkpt lat="45.66868" lon="6.69121">
        <ele>2211</ele>
        <time>2022-07-26T07:51:32Z</time>
      </trkpt>
      <trkpt lat="45.66868" lon="6.6912">
        <ele>2211</ele>
        <time>2022-07-26T07:51:33Z</time>
      </trkpt>
      <trkpt lat="45.66868" lon="6.6912">
        <ele>2211</ele>
        <time>2022-07-26T07:51:34Z</time>
      </trkpt>
      <trkpt lat="45.66868" lon="6.69119">
        <ele>2211</ele>
        <time>2022-07-26T07:51:35Z</time>
      </trkpt>
      <trkpt lat="45.66868" lon="6.69118">
        <ele>2211</ele>
        <time>2022-07-26T07:51:36Z</time>
      </trkpt>
      <trkpt lat="45.66867" lon="6.69116">
        <ele>2212</ele>
        <time>2022-07-26T07:51:44Z</time>
      </trkpt>
      <trkpt lat="45.66866" lon="6.69115">
        <ele>2212</ele>
        <time>2022-07-26T07:51:45Z</time>
      </trkpt>
      <trkpt lat="45.66866" lon="6.69114">
        <ele>2212</ele>
        <time>2022-07-26T07:51:46Z</time>
      </trkpt>
      <trkpt lat="45.66866" lon="6.69113">
        <ele>2213</ele>
        <time>2022-07-26T07:51:47Z</time>
      </trkpt>
      <trkpt lat="45.66865" lon="6.69112">
        <ele>2213</ele>
        <time>2022-07-26T07:51:48Z</time>
      </trkpt>
      <trkpt lat="45.66865" lon="6.69111">
        <ele>2213</ele>
        <time>2022-07-26T07:51:49Z</time>
      </trkpt>
      <trkpt lat="45.66864" lon="6.6911">
        <ele>2213</ele>
        <time>2022-07-26T07:51:50Z</time>
      </trkpt>
      <trkpt lat="45.66864" lon="6.69109">
        <ele>2213</ele>
        <time>2022-07-26T07:51:51Z</time>
      </trkpt>
      <trkpt lat="45.66863" lon="6.69108">
        <ele>2214</ele>
        <time>2022-07-26T07:51:52Z</time>
      </trkpt>
      <trkpt lat="45.66863" lon="6.69106">
        <ele>2215</ele>
        <time>2022-07-26T07:52:04Z</time>
      </trkpt>
      <trkpt lat="45.66862" lon="6.69105">
        <ele>2215</ele>
        <time>2022-07-26T07:52:05Z</time>
      </trkpt>
      <trkpt lat="45.66862" lon="6.69104">
        <ele>2215</ele>
        <time>2022-07-26T07:52:06Z</time>
      </trkpt>
      <trkpt lat="45.66862" lon="6.69103">
        <ele>2215</ele>
        <time>2022-07-26T07:52:07Z</time>
      </trkpt>
      <trkpt lat="45.66861" lon="6.69103">
        <ele>2215</ele>
        <time>2022-07-26T07:52:08Z</time>
      </trkpt>
      <trkpt lat="45.6686" lon="6.69102">
        <ele>2215</ele>
        <time>2022-07-26T07:52:09Z</time>
      </trkpt>
      <trkpt lat="45.6686" lon="6.69101">
        <ele>2215</ele>
        <time>2022-07-26T07:52:10Z</time>
      </trkpt>
      <trkpt lat="45.66858" lon="6.691">
        <ele>2217</ele>
        <time>2022-07-26T07:53:20Z</time>
      </trkpt>
      <trkpt lat="45.66857" lon="6.69099">
        <ele>2217</ele>
        <time>2022-07-26T07:53:21Z</time>
      </trkpt>
      <trkpt lat="45.66857" lon="6.69099">
        <ele>2217</ele>
        <time>2022-07-26T07:53:22Z</time>
      </trkpt>
      <trkpt lat="45.66856" lon="6.69099">
        <ele>2217</ele>
        <time>2022-07-26T07:53:23Z</time>
      </trkpt>
      <trkpt lat="45.66856" lon="6.69098">
        <ele>2217</ele>
        <time>2022-07-26T07:53:24Z</time>
      </trkpt>
      <trkpt lat="45.66855" lon="6.69098">
        <ele>2217</ele>
        <time>2022-07-26T07:53:25Z</time>
      </trkpt>
      <trkpt lat="45.66854" lon="6.69098">
        <ele>2217</ele>
        <time>2022-07-26T07:53:26Z</time>
      </trkpt>
      <trkpt lat="45.66853" lon="6.69097">
        <ele>2217</ele>
        <time>2022-07-26T07:53:27Z</time>
      </trkpt>
      <trkpt lat="45.66853" lon="6.69097">
        <ele>2217</ele>
        <time>2022-07-26T07:53:28Z</time>
      </trkpt>
      <trkpt lat="45.66852" lon="6.69096">
        <ele>2217</ele>
        <time>2022-07-26T07:53:29Z</time>
      </trkpt>
      <trkpt lat="45.66851" lon="6.69096">
        <ele>2217</ele>
        <time>2022-07-26T07:53:30Z</time>
      </trkpt>
      <trkpt lat="45.66851" lon="6.69095">
        <ele>2217</ele>
        <time>2022-07-26T07:53:31Z</time>
      </trkpt>
      <trkpt lat="45.6685" lon="6.69095">
        <ele>2218</ele>
        <time>2022-07-26T07:53:32Z</time>
      </trkpt>
      <trkpt lat="45.6685" lon="6.69094">
        <ele>2218</ele>
        <time>2022-07-26T07:53:33Z</time>
      </trkpt>
      <trkpt lat="45.66849" lon="6.69094">
        <ele>2218</ele>
        <time>2022-07-26T07:53:34Z</time>
      </trkpt>
      <trkpt lat="45.66849" lon="6.69093">
        <ele>2218</ele>
        <time>2022-07-26T07:53:35Z</time>
      </trkpt>
      <trkpt lat="45.66848" lon="6.69093">
        <ele>2218</ele>
        <time>2022-07-26T07:53:36Z</time>
      </trkpt>
      <trkpt lat="45.66848" lon="6.69092">
        <ele>2218</ele>
        <time>2022-07-26T07:53:37Z</time>
      </trkpt>
      <trkpt lat="45.66848" lon="6.69092">
        <ele>2218</ele>
        <time>2022-07-26T07:53:38Z</time>
      </trkpt>
      <trkpt lat="45.66847" lon="6.69092">
        <ele>2218</ele>
        <time>2022-07-26T07:53:39Z</time>
      </trkpt>
      <trkpt lat="45.66846" lon="6.69091">
        <ele>2218</ele>
        <time>2022-07-26T07:53:40Z</time>
      </trkpt>
      <trkpt lat="45.66846" lon="6.69091">
        <ele>2218</ele>
        <time>2022-07-26T07:53:41Z</time>
      </trkpt>
      <trkpt lat="45.66845" lon="6.69091">
        <ele>2219</ele>
        <time>2022-07-26T07:53:42Z</time>
      </trkpt>
      <trkpt lat="45.66845" lon="6.69091">
        <ele>2219</ele>
        <time>2022-07-26T07:53:43Z</time>
      </trkpt>
      <trkpt lat="45.66844" lon="6.69091">
        <ele>2219</ele>
        <time>2022-07-26T07:53:44Z</time>
      </trkpt>
      <trkpt lat="45.66844" lon="6.6909">
        <ele>2219</ele>
        <time>2022-07-26T07:53:45Z</time>
      </trkpt>
      <trkpt lat="45.66843" lon="6.6909">
        <ele>2219</ele>
        <time>2022-07-26T07:53:46Z</time>
      </trkpt>
      <trkpt lat="45.66842" lon="6.6909">
        <ele>2219</ele>
        <time>2022-07-26T07:53:47Z</time>
      </trkpt>
      <trkpt lat="45.66842" lon="6.6909">
        <ele>2219</ele>
        <time>2022-07-26T07:53:48Z</time>
      </trkpt>
      <trkpt lat="45.66842" lon="6.6909">
        <ele>2219</ele>
        <time>2022-07-26T07:53:49Z</time>
      </trkpt>
      <trkpt lat="45.66841" lon="6.6909">
        <ele>2219</ele>
        <time>2022-07-26T07:53:50Z</time>
      </trkpt>
      <trkpt lat="45.66841" lon="6.69089">
        <ele>2219</ele>
        <time>2022-07-26T07:53:51Z</time>
      </trkpt>
      <trkpt lat="45.6684" lon="6.69089">
        <ele>2220</ele>
        <time>2022-07-26T07:53:52Z</time>
      </trkpt>
      <trkpt lat="45.66839" lon="6.69089">
        <ele>2220</ele>
        <time>2022-07-26T07:53:53Z</time>
      </trkpt>
      <trkpt lat="45.66839" lon="6.69089">
        <ele>2220</ele>
        <time>2022-07-26T07:53:54Z</time>
      </trkpt>
      <trkpt lat="45.66838" lon="6.69088">
        <ele>2220</ele>
        <time>2022-07-26T07:53:55Z</time>
      </trkpt>
      <trkpt lat="45.66838" lon="6.69088">
        <ele>2220</ele>
        <time>2022-07-26T07:53:56Z</time>
      </trkpt>
      <trkpt lat="45.66837" lon="6.69087">
        <ele>2220</ele>
        <time>2022-07-26T07:53:57Z</time>
      </trkpt>
      <trkpt lat="45.66837" lon="6.69087">
        <ele>2220</ele>
        <time>2022-07-26T07:53:58Z</time>
      </trkpt>
      <trkpt lat="45.66837" lon="6.69086">
        <ele>2220</ele>
        <time>2022-07-26T07:53:59Z</time>
      </trkpt>
      <trkpt lat="45.66836" lon="6.69085">
        <ele>2220</ele>
        <time>2022-07-26T07:54:00Z</time>
      </trkpt>
      <trkpt lat="45.66836" lon="6.69085">
        <ele>2220</ele>
        <time>2022-07-26T07:54:01Z</time>
      </trkpt>
      <trkpt lat="45.66835" lon="6.69084">
        <ele>2221</ele>
        <time>2022-07-26T07:54:02Z</time>
      </trkpt>
      <trkpt lat="45.66835" lon="6.69083">
        <ele>2221</ele>
        <time>2022-07-26T07:54:03Z</time>
      </trkpt>
      <trkpt lat="45.66835" lon="6.69083">
        <ele>2221</ele>
        <time>2022-07-26T07:54:04Z</time>
      </trkpt>
      <trkpt lat="45.66834" lon="6.69082">
        <ele>2221</ele>
        <time>2022-07-26T07:54:05Z</time>
      </trkpt>
      <trkpt lat="45.66834" lon="6.69081">
        <ele>2221</ele>
        <time>2022-07-26T07:54:06Z</time>
      </trkpt>
      <trkpt lat="45.66833" lon="6.69081">
        <ele>2222</ele>
        <time>2022-07-26T07:54:07Z</time>
      </trkpt>
      <trkpt lat="45.66833" lon="6.6908">
        <ele>2222</ele>
        <time>2022-07-26T07:54:08Z</time>
      </trkpt>
      <trkpt lat="45.66832" lon="6.69079">
        <ele>2222</ele>
        <time>2022-07-26T07:54:09Z</time>
      </trkpt>
      <trkpt lat="45.66832" lon="6.69078">
        <ele>2222</ele>
        <time>2022-07-26T07:54:10Z</time>
      </trkpt>
      <trkpt lat="45.66831" lon="6.69077">
        <ele>2222</ele>
        <time>2022-07-26T07:54:11Z</time>
      </trkpt>
      <trkpt lat="45.66831" lon="6.69076">
        <ele>2222</ele>
        <time>2022-07-26T07:54:12Z</time>
      </trkpt>
      <trkpt lat="45.6683" lon="6.69075">
        <ele>2222</ele>
        <time>2022-07-26T07:54:13Z</time>
      </trkpt>
      <trkpt lat="45.6683" lon="6.69075">
        <ele>2222</ele>
        <time>2022-07-26T07:54:14Z</time>
      </trkpt>
      <trkpt lat="45.66829" lon="6.69074">
        <ele>2222</ele>
        <time>2022-07-26T07:54:15Z</time>
      </trkpt>
      <trkpt lat="45.66829" lon="6.69074">
        <ele>2222</ele>
        <time>2022-07-26T07:54:16Z</time>
      </trkpt>
      <trkpt lat="45.66828" lon="6.69073">
        <ele>2223</ele>
        <time>2022-07-26T07:54:17Z</time>
      </trkpt>
      <trkpt lat="45.66828" lon="6.69073">
        <ele>2223</ele>
        <time>2022-07-26T07:54:18Z</time>
      </trkpt>
      <trkpt lat="45.66827" lon="6.69072">
        <ele>2223</ele>
        <time>2022-07-26T07:54:19Z</time>
      </trkpt>
      <trkpt lat="45.66827" lon="6.69072">
        <ele>2223</ele>
        <time>2022-07-26T07:54:20Z</time>
      </trkpt>
      <trkpt lat="45.66826" lon="6.69072">
        <ele>2223</ele>
        <time>2022-07-26T07:54:21Z</time>
      </trkpt>
      <trkpt lat="45.66826" lon="6.69071">
        <ele>2224</ele>
        <time>2022-07-26T07:54:22Z</time>
      </trkpt>
      <trkpt lat="45.66826" lon="6.69071">
        <ele>2224</ele>
        <time>2022-07-26T07:54:23Z</time>
      </trkpt>
      <trkpt lat="45.66825" lon="6.6907">
        <ele>2224</ele>
        <time>2022-07-26T07:54:24Z</time>
      </trkpt>
      <trkpt lat="45.66825" lon="6.6907">
        <ele>2224</ele>
        <time>2022-07-26T07:54:25Z</time>
      </trkpt>
      <trkpt lat="45.66824" lon="6.69069">
        <ele>2224</ele>
        <time>2022-07-26T07:54:26Z</time>
      </trkpt>
      <trkpt lat="45.66824" lon="6.69068">
        <ele>2225</ele>
        <time>2022-07-26T07:54:27Z</time>
      </trkpt>
      <trkpt lat="45.66824" lon="6.69067">
        <ele>2225</ele>
        <time>2022-07-26T07:54:28Z</time>
      </trkpt>
      <trkpt lat="45.66823" lon="6.69067">
        <ele>2225</ele>
        <time>2022-07-26T07:54:29Z</time>
      </trkpt>
      <trkpt lat="45.66823" lon="6.69066">
        <ele>2225</ele>
        <time>2022-07-26T07:54:30Z</time>
      </trkpt>
      <trkpt lat="45.66823" lon="6.69066">
        <ele>2225</ele>
        <time>2022-07-26T07:54:31Z</time>
      </trkpt>
      <trkpt lat="45.66822" lon="6.69065">
        <ele>2226</ele>
        <time>2022-07-26T07:54:32Z</time>
      </trkpt>
      <trkpt lat="45.66822" lon="6.69064">
        <ele>2226</ele>
        <time>2022-07-26T07:54:33Z</time>
      </trkpt>
      <trkpt lat="45.66821" lon="6.69064">
        <ele>2226</ele>
        <time>2022-07-26T07:54:34Z</time>
      </trkpt>
      <trkpt lat="45.66821" lon="6.69063">
        <ele>2226</ele>
        <time>2022-07-26T07:54:35Z</time>
      </trkpt>
      <trkpt lat="45.66821" lon="6.69063">
        <ele>2226</ele>
        <time>2022-07-26T07:54:36Z</time>
      </trkpt>
      <trkpt lat="45.6682" lon="6.69062">
        <ele>2227</ele>
        <time>2022-07-26T07:54:37Z</time>
      </trkpt>
      <trkpt lat="45.6682" lon="6.69061">
        <ele>2227</ele>
        <time>2022-07-26T07:54:38Z</time>
      </trkpt>
      <trkpt lat="45.66819" lon="6.6906">
        <ele>2227</ele>
        <time>2022-07-26T07:54:39Z</time>
      </trkpt>
      <trkpt lat="45.66819" lon="6.69059">
        <ele>2227</ele>
        <time>2022-07-26T07:54:40Z</time>
      </trkpt>
      <trkpt lat="45.66819" lon="6.69059">
        <ele>2227</ele>
        <time>2022-07-26T07:54:41Z</time>
      </trkpt>
      <trkpt lat="45.66818" lon="6.69057">
        <ele>2229</ele>
        <time>2022-07-26T07:54:49Z</time>
      </trkpt>
      <trkpt lat="45.66818" lon="6.69056">
        <ele>2229</ele>
        <time>2022-07-26T07:54:50Z</time>
      </trkpt>
      <trkpt lat="45.66818" lon="6.69055">
        <ele>2229</ele>
        <time>2022-07-26T07:54:51Z</time>
      </trkpt>
      <trkpt lat="45.66818" lon="6.69055">
        <ele>2229</ele>
        <time>2022-07-26T07:54:52Z</time>
      </trkpt>
      <trkpt lat="45.66818" lon="6.69054">
        <ele>2229</ele>
        <time>2022-07-26T07:54:53Z</time>
      </trkpt>
      <trkpt lat="45.66818" lon="6.69054">
        <ele>2229</ele>
        <time>2022-07-26T07:54:54Z</time>
      </trkpt>
      <trkpt lat="45.66817" lon="6.69053">
        <ele>2230</ele>
        <time>2022-07-26T07:54:55Z</time>
      </trkpt>
      <trkpt lat="45.66817" lon="6.69052">
        <ele>2230</ele>
        <time>2022-07-26T07:54:56Z</time>
      </trkpt>
      <trkpt lat="45.66816" lon="6.69052">
        <ele>2231</ele>
        <time>2022-07-26T07:54:57Z</time>
      </trkpt>
      <trkpt lat="45.66816" lon="6.69051">
        <ele>2231</ele>
        <time>2022-07-26T07:54:58Z</time>
      </trkpt>
      <trkpt lat="45.66816" lon="6.6905">
        <ele>2231</ele>
        <time>2022-07-26T07:54:59Z</time>
      </trkpt>
      <trkpt lat="45.66816" lon="6.6905">
        <ele>2231</ele>
        <time>2022-07-26T07:55:00Z</time>
      </trkpt>
      <trkpt lat="45.66815" lon="6.6905">
        <ele>2231</ele>
        <time>2022-07-26T07:55:01Z</time>
      </trkpt>
      <trkpt lat="45.66815" lon="6.69049">
        <ele>2231</ele>
        <time>2022-07-26T07:55:02Z</time>
      </trkpt>
      <trkpt lat="45.66815" lon="6.69049">
        <ele>2231</ele>
        <time>2022-07-26T07:55:03Z</time>
      </trkpt>
      <trkpt lat="45.66815" lon="6.69049">
        <ele>2231</ele>
        <time>2022-07-26T07:55:04Z</time>
      </trkpt>
      <trkpt lat="45.66815" lon="6.69048">
        <ele>2231</ele>
        <time>2022-07-26T07:55:05Z</time>
      </trkpt>
      <trkpt lat="45.66815" lon="6.69048">
        <ele>2231</ele>
        <time>2022-07-26T07:55:06Z</time>
      </trkpt>
      <trkpt lat="45.66814" lon="6.69047">
        <ele>2232</ele>
        <time>2022-07-26T07:55:07Z</time>
      </trkpt>
      <trkpt lat="45.66814" lon="6.69046">
        <ele>2232</ele>
        <time>2022-07-26T07:55:08Z</time>
      </trkpt>
      <trkpt lat="45.66813" lon="6.69046">
        <ele>2232</ele>
        <time>2022-07-26T07:55:09Z</time>
      </trkpt>
      <trkpt lat="45.66813" lon="6.69045">
        <ele>2232</ele>
        <time>2022-07-26T07:55:10Z</time>
      </trkpt>
      <trkpt lat="45.66812" lon="6.69044">
        <ele>2232</ele>
        <time>2022-07-26T07:55:11Z</time>
      </trkpt>
      <trkpt lat="45.66812" lon="6.69043">
        <ele>2232</ele>
        <time>2022-07-26T07:55:12Z</time>
      </trkpt>
      <trkpt lat="45.66811" lon="6.69042">
        <ele>2232</ele>
        <time>2022-07-26T07:55:13Z</time>
      </trkpt>
      <trkpt lat="45.6681" lon="6.69041">
        <ele>2232</ele>
        <time>2022-07-26T07:55:14Z</time>
      </trkpt>
      <trkpt lat="45.6681" lon="6.6904">
        <ele>2232</ele>
        <time>2022-07-26T07:55:15Z</time>
      </trkpt>
      <trkpt lat="45.6681" lon="6.69039">
        <ele>2232</ele>
        <time>2022-07-26T07:55:16Z</time>
      </trkpt>
      <trkpt lat="45.66809" lon="6.69038">
        <ele>2233</ele>
        <time>2022-07-26T07:55:17Z</time>
      </trkpt>
      <trkpt lat="45.66809" lon="6.69037">
        <ele>2233</ele>
        <time>2022-07-26T07:55:18Z</time>
      </trkpt>
      <trkpt lat="45.66809" lon="6.69036">
        <ele>2233</ele>
        <time>2022-07-26T07:55:19Z</time>
      </trkpt>
      <trkpt lat="45.66809" lon="6.69035">
        <ele>2233</ele>
        <time>2022-07-26T07:55:20Z</time>
      </trkpt>
      <trkpt lat="45.66808" lon="6.69034">
        <ele>2233</ele>
        <time>2022-07-26T07:55:21Z</time>
      </trkpt>
      <trkpt lat="45.66808" lon="6.69033">
        <ele>2234</ele>
        <time>2022-07-26T07:55:22Z</time>
      </trkpt>
      <trkpt lat="45.66807" lon="6.69032">
        <ele>2234</ele>
        <time>2022-07-26T07:55:23Z</time>
      </trkpt>
      <trkpt lat="45.66807" lon="6.69031">
        <ele>2234</ele>
        <time>2022-07-26T07:55:24Z</time>
      </trkpt>
      <trkpt lat="45.66807" lon="6.6903">
        <ele>2234</ele>
        <time>2022-07-26T07:55:25Z</time>
      </trkpt>
      <trkpt lat="45.66806" lon="6.69029">
        <ele>2234</ele>
        <time>2022-07-26T07:55:26Z</time>
      </trkpt>
      <trkpt lat="45.66806" lon="6.69029">
        <ele>2234</ele>
        <time>2022-07-26T07:55:27Z</time>
      </trkpt>
      <trkpt lat="45.66805" lon="6.69028">
        <ele>2234</ele>
        <time>2022-07-26T07:55:28Z</time>
      </trkpt>
      <trkpt lat="45.66805" lon="6.69027">
        <ele>2234</ele>
        <time>2022-07-26T07:55:29Z</time>
      </trkpt>
      <trkpt lat="45.66804" lon="6.69027">
        <ele>2234</ele>
        <time>2022-07-26T07:55:30Z</time>
      </trkpt>
      <trkpt lat="45.66804" lon="6.69026">
        <ele>2234</ele>
        <time>2022-07-26T07:55:31Z</time>
      </trkpt>
      <trkpt lat="45.66803" lon="6.69025">
        <ele>2235</ele>
        <time>2022-07-26T07:55:32Z</time>
      </trkpt>
      <trkpt lat="45.66803" lon="6.69025">
        <ele>2235</ele>
        <time>2022-07-26T07:55:33Z</time>
      </trkpt>
      <trkpt lat="45.66802" lon="6.69024">
        <ele>2235</ele>
        <time>2022-07-26T07:55:34Z</time>
      </trkpt>
      <trkpt lat="45.66802" lon="6.69023">
        <ele>2235</ele>
        <time>2022-07-26T07:55:35Z</time>
      </trkpt>
      <trkpt lat="45.66802" lon="6.69023">
        <ele>2235</ele>
        <time>2022-07-26T07:55:36Z</time>
      </trkpt>
      <trkpt lat="45.66802" lon="6.69023">
        <ele>2236</ele>
        <time>2022-07-26T07:55:37Z</time>
      </trkpt>
      <trkpt lat="45.66801" lon="6.69022">
        <ele>2236</ele>
        <time>2022-07-26T07:55:38Z</time>
      </trkpt>
      <trkpt lat="45.668" lon="6.69021">
        <ele>2236</ele>
        <time>2022-07-26T07:55:39Z</time>
      </trkpt>
      <trkpt lat="45.668" lon="6.6902">
        <ele>2236</ele>
        <time>2022-07-26T07:55:40Z</time>
      </trkpt>
      <trkpt lat="45.66799" lon="6.6902">
        <ele>2236</ele>
        <time>2022-07-26T07:55:41Z</time>
      </trkpt>
      <trkpt lat="45.66799" lon="6.69019">
        <ele>2237</ele>
        <time>2022-07-26T07:55:42Z</time>
      </trkpt>
      <trkpt lat="45.66798" lon="6.69018">
        <ele>2237</ele>
        <time>2022-07-26T07:55:43Z</time>
      </trkpt>
      <trkpt lat="45.66798" lon="6.69018">
        <ele>2237</ele>
        <time>2022-07-26T07:55:44Z</time>
      </trkpt>
      <trkpt lat="45.66797" lon="6.69017">
        <ele>2237</ele>
        <time>2022-07-26T07:55:45Z</time>
      </trkpt>
      <trkpt lat="45.66797" lon="6.69016">
        <ele>2237</ele>
        <time>2022-07-26T07:55:46Z</time>
      </trkpt>
      <trkpt lat="45.66796" lon="6.69016">
        <ele>2238</ele>
        <time>2022-07-26T07:55:47Z</time>
      </trkpt>
      <trkpt lat="45.66795" lon="6.69015">
        <ele>2238</ele>
        <time>2022-07-26T07:55:48Z</time>
      </trkpt>
      <trkpt lat="45.66794" lon="6.69015">
        <ele>2238</ele>
        <time>2022-07-26T07:55:49Z</time>
      </trkpt>
      <trkpt lat="45.66794" lon="6.69014">
        <ele>2238</ele>
        <time>2022-07-26T07:55:50Z</time>
      </trkpt>
      <trkpt lat="45.66793" lon="6.69014">
        <ele>2238</ele>
        <time>2022-07-26T07:55:51Z</time>
      </trkpt>
      <trkpt lat="45.66792" lon="6.69013">
        <ele>2238</ele>
        <time>2022-07-26T07:55:52Z</time>
      </trkpt>
      <trkpt lat="45.66792" lon="6.69013">
        <ele>2238</ele>
        <time>2022-07-26T07:55:53Z</time>
      </trkpt>
      <trkpt lat="45.66791" lon="6.69012">
        <ele>2238</ele>
        <time>2022-07-26T07:55:54Z</time>
      </trkpt>
      <trkpt lat="45.66791" lon="6.69012">
        <ele>2238</ele>
        <time>2022-07-26T07:55:55Z</time>
      </trkpt>
      <trkpt lat="45.66791" lon="6.69011">
        <ele>2238</ele>
        <time>2022-07-26T07:55:56Z</time>
      </trkpt>
      <trkpt lat="45.6679" lon="6.69011">
        <ele>2239</ele>
        <time>2022-07-26T07:55:57Z</time>
      </trkpt>
      <trkpt lat="45.6679" lon="6.6901">
        <ele>2239</ele>
        <time>2022-07-26T07:55:58Z</time>
      </trkpt>
      <trkpt lat="45.66789" lon="6.69009">
        <ele>2239</ele>
        <time>2022-07-26T07:55:59Z</time>
      </trkpt>
      <trkpt lat="45.66789" lon="6.69009">
        <ele>2239</ele>
        <time>2022-07-26T07:56:00Z</time>
      </trkpt>
      <trkpt lat="45.66789" lon="6.69008">
        <ele>2239</ele>
        <time>2022-07-26T07:56:01Z</time>
      </trkpt>
      <trkpt lat="45.66788" lon="6.69006">
        <ele>2241</ele>
        <time>2022-07-26T07:56:07Z</time>
      </trkpt>
      <trkpt lat="45.66788" lon="6.69005">
        <ele>2241</ele>
        <time>2022-07-26T07:56:08Z</time>
      </trkpt>
      <trkpt lat="45.66787" lon="6.69004">
        <ele>2241</ele>
        <time>2022-07-26T07:56:09Z</time>
      </trkpt>
      <trkpt lat="45.66787" lon="6.69003">
        <ele>2241</ele>
        <time>2022-07-26T07:56:10Z</time>
      </trkpt>
      <trkpt lat="45.66786" lon="6.69002">
        <ele>2241</ele>
        <time>2022-07-26T07:56:11Z</time>
      </trkpt>
      <trkpt lat="45.66786" lon="6.69001">
        <ele>2241</ele>
        <time>2022-07-26T07:56:12Z</time>
      </trkpt>
      <trkpt lat="45.66785" lon="6.69">
        <ele>2241</ele>
        <time>2022-07-26T07:56:13Z</time>
      </trkpt>
      <trkpt lat="45.66785" lon="6.68999">
        <ele>2241</ele>
        <time>2022-07-26T07:56:14Z</time>
      </trkpt>
      <trkpt lat="45.66784" lon="6.68998">
        <ele>2241</ele>
        <time>2022-07-26T07:56:15Z</time>
      </trkpt>
      <trkpt lat="45.66784" lon="6.68998">
        <ele>2241</ele>
        <time>2022-07-26T07:56:16Z</time>
      </trkpt>
      <trkpt lat="45.66783" lon="6.68997">
        <ele>2242</ele>
        <time>2022-07-26T07:56:17Z</time>
      </trkpt>
      <trkpt lat="45.66782" lon="6.68995">
        <ele>2243</ele>
        <time>2022-07-26T07:56:26Z</time>
      </trkpt>
      <trkpt lat="45.66782" lon="6.68994">
        <ele>2243</ele>
        <time>2022-07-26T07:56:27Z</time>
      </trkpt>
      <trkpt lat="45.66781" lon="6.68993">
        <ele>2243</ele>
        <time>2022-07-26T07:56:28Z</time>
      </trkpt>
      <trkpt lat="45.66781" lon="6.68992">
        <ele>2243</ele>
        <time>2022-07-26T07:56:29Z</time>
      </trkpt>
      <trkpt lat="45.6678" lon="6.68991">
        <ele>2243</ele>
        <time>2022-07-26T07:56:30Z</time>
      </trkpt>
      <trkpt lat="45.6678" lon="6.68991">
        <ele>2243</ele>
        <time>2022-07-26T07:56:31Z</time>
      </trkpt>
      <trkpt lat="45.6678" lon="6.6899">
        <ele>2244</ele>
        <time>2022-07-26T07:56:32Z</time>
      </trkpt>
      <trkpt lat="45.66779" lon="6.68989">
        <ele>2244</ele>
        <time>2022-07-26T07:56:33Z</time>
      </trkpt>
      <trkpt lat="45.66779" lon="6.68988">
        <ele>2244</ele>
        <time>2022-07-26T07:56:34Z</time>
      </trkpt>
      <trkpt lat="45.66778" lon="6.68988">
        <ele>2244</ele>
        <time>2022-07-26T07:56:35Z</time>
      </trkpt>
      <trkpt lat="45.66778" lon="6.68987">
        <ele>2244</ele>
        <time>2022-07-26T07:56:36Z</time>
      </trkpt>
      <trkpt lat="45.66777" lon="6.68986">
        <ele>2244</ele>
        <time>2022-07-26T07:56:37Z</time>
      </trkpt>
      <trkpt lat="45.66777" lon="6.68985">
        <ele>2244</ele>
        <time>2022-07-26T07:56:38Z</time>
      </trkpt>
      <trkpt lat="45.66777" lon="6.68984">
        <ele>2244</ele>
        <time>2022-07-26T07:56:39Z</time>
      </trkpt>
      <trkpt lat="45.66776" lon="6.68983">
        <ele>2244</ele>
        <time>2022-07-26T07:56:40Z</time>
      </trkpt>
      <trkpt lat="45.66776" lon="6.68982">
        <ele>2244</ele>
        <time>2022-07-26T07:56:41Z</time>
      </trkpt>
      <trkpt lat="45.66775" lon="6.68981">
        <ele>2245</ele>
        <time>2022-07-26T07:56:42Z</time>
      </trkpt>
      <trkpt lat="45.66775" lon="6.6898">
        <ele>2245</ele>
        <time>2022-07-26T07:56:43Z</time>
      </trkpt>
      <trkpt lat="45.66775" lon="6.6898">
        <ele>2245</ele>
        <time>2022-07-26T07:56:44Z</time>
      </trkpt>
      <trkpt lat="45.66774" lon="6.68979">
        <ele>2245</ele>
        <time>2022-07-26T07:56:45Z</time>
      </trkpt>
      <trkpt lat="45.66774" lon="6.68979">
        <ele>2245</ele>
        <time>2022-07-26T07:56:46Z</time>
      </trkpt>
      <trkpt lat="45.66774" lon="6.68978">
        <ele>2246</ele>
        <time>2022-07-26T07:56:47Z</time>
      </trkpt>
      <trkpt lat="45.66773" lon="6.68978">
        <ele>2246</ele>
        <time>2022-07-26T07:56:48Z</time>
      </trkpt>
      <trkpt lat="45.66773" lon="6.68977">
        <ele>2246</ele>
        <time>2022-07-26T07:56:49Z</time>
      </trkpt>
      <trkpt lat="45.66772" lon="6.68976">
        <ele>2246</ele>
        <time>2022-07-26T07:56:50Z</time>
      </trkpt>
      <trkpt lat="45.66771" lon="6.68976">
        <ele>2246</ele>
        <time>2022-07-26T07:56:51Z</time>
      </trkpt>
      <trkpt lat="45.66771" lon="6.68975">
        <ele>2247</ele>
        <time>2022-07-26T07:56:52Z</time>
      </trkpt>
      <trkpt lat="45.66771" lon="6.68975">
        <ele>2247</ele>
        <time>2022-07-26T07:56:53Z</time>
      </trkpt>
      <trkpt lat="45.6677" lon="6.68974">
        <ele>2247</ele>
        <time>2022-07-26T07:56:54Z</time>
      </trkpt>
      <trkpt lat="45.6677" lon="6.68974">
        <ele>2247</ele>
        <time>2022-07-26T07:56:55Z</time>
      </trkpt>
      <trkpt lat="45.66769" lon="6.68973">
        <ele>2247</ele>
        <time>2022-07-26T07:56:56Z</time>
      </trkpt>
      <trkpt lat="45.66769" lon="6.68973">
        <ele>2247</ele>
        <time>2022-07-26T07:56:57Z</time>
      </trkpt>
      <trkpt lat="45.66769" lon="6.68972">
        <ele>2247</ele>
        <time>2022-07-26T07:56:58Z</time>
      </trkpt>
      <trkpt lat="45.66768" lon="6.68971">
        <ele>2247</ele>
        <time>2022-07-26T07:56:59Z</time>
      </trkpt>
      <trkpt lat="45.66768" lon="6.6897">
        <ele>2247</ele>
        <time>2022-07-26T07:57:00Z</time>
      </trkpt>
      <trkpt lat="45.66767" lon="6.68969">
        <ele>2247</ele>
        <time>2022-07-26T07:57:01Z</time>
      </trkpt>
      <trkpt lat="45.66767" lon="6.68968">
        <ele>2248</ele>
        <time>2022-07-26T07:57:02Z</time>
      </trkpt>
      <trkpt lat="45.66766" lon="6.68967">
        <ele>2248</ele>
        <time>2022-07-26T07:57:03Z</time>
      </trkpt>
      <trkpt lat="45.66766" lon="6.68966">
        <ele>2248</ele>
        <time>2022-07-26T07:57:04Z</time>
      </trkpt>
      <trkpt lat="45.66766" lon="6.68966">
        <ele>2248</ele>
        <time>2022-07-26T07:57:05Z</time>
      </trkpt>
      <trkpt lat="45.66765" lon="6.68965">
        <ele>2248</ele>
        <time>2022-07-26T07:57:06Z</time>
      </trkpt>
      <trkpt lat="45.66765" lon="6.68965">
        <ele>2249</ele>
        <time>2022-07-26T07:57:07Z</time>
      </trkpt>
      <trkpt lat="45.66764" lon="6.68964">
        <ele>2249</ele>
        <time>2022-07-26T07:57:08Z</time>
      </trkpt>
      <trkpt lat="45.66764" lon="6.68963">
        <ele>2249</ele>
        <time>2022-07-26T07:57:09Z</time>
      </trkpt>
      <trkpt lat="45.66763" lon="6.68963">
        <ele>2249</ele>
        <time>2022-07-26T07:57:10Z</time>
      </trkpt>
      <trkpt lat="45.66763" lon="6.68962">
        <ele>2249</ele>
        <time>2022-07-26T07:57:11Z</time>
      </trkpt>
      <trkpt lat="45.66762" lon="6.68961">
        <ele>2250</ele>
        <time>2022-07-26T07:57:12Z</time>
      </trkpt>
      <trkpt lat="45.66762" lon="6.6896">
        <ele>2250</ele>
        <time>2022-07-26T07:57:13Z</time>
      </trkpt>
      <trkpt lat="45.66761" lon="6.68959">
        <ele>2250</ele>
        <time>2022-07-26T07:57:14Z</time>
      </trkpt>
      <trkpt lat="45.66761" lon="6.68958">
        <ele>2250</ele>
        <time>2022-07-26T07:57:15Z</time>
      </trkpt>
      <trkpt lat="45.6676" lon="6.68957">
        <ele>2250</ele>
        <time>2022-07-26T07:57:16Z</time>
      </trkpt>
      <trkpt lat="45.6676" lon="6.68956">
        <ele>2251</ele>
        <time>2022-07-26T07:57:17Z</time>
      </trkpt>
      <trkpt lat="45.66759" lon="6.68956">
        <ele>2251</ele>
        <time>2022-07-26T07:57:18Z</time>
      </trkpt>
      <trkpt lat="45.66759" lon="6.68955">
        <ele>2251</ele>
        <time>2022-07-26T07:57:19Z</time>
      </trkpt>
      <trkpt lat="45.66758" lon="6.68954">
        <ele>2251</ele>
        <time>2022-07-26T07:57:20Z</time>
      </trkpt>
      <trkpt lat="45.66757" lon="6.68954">
        <ele>2251</ele>
        <time>2022-07-26T07:57:21Z</time>
      </trkpt>
      <trkpt lat="45.66757" lon="6.68953">
        <ele>2251</ele>
        <time>2022-07-26T07:57:22Z</time>
      </trkpt>
      <trkpt lat="45.66755" lon="6.68953">
        <ele>2254</ele>
        <time>2022-07-26T07:57:48Z</time>
      </trkpt>
      <trkpt lat="45.66755" lon="6.68952">
        <ele>2254</ele>
        <time>2022-07-26T07:57:49Z</time>
      </trkpt>
      <trkpt lat="45.66754" lon="6.68952">
        <ele>2254</ele>
        <time>2022-07-26T07:57:50Z</time>
      </trkpt>
      <trkpt lat="45.66754" lon="6.68952">
        <ele>2254</ele>
        <time>2022-07-26T07:57:51Z</time>
      </trkpt>
      <trkpt lat="45.66753" lon="6.68951">
        <ele>2254</ele>
        <time>2022-07-26T07:57:52Z</time>
      </trkpt>
      <trkpt lat="45.66752" lon="6.68951">
        <ele>2254</ele>
        <time>2022-07-26T07:57:53Z</time>
      </trkpt>
      <trkpt lat="45.66752" lon="6.6895">
        <ele>2254</ele>
        <time>2022-07-26T07:57:54Z</time>
      </trkpt>
      <trkpt lat="45.66751" lon="6.6895">
        <ele>2254</ele>
        <time>2022-07-26T07:57:55Z</time>
      </trkpt>
      <trkpt lat="45.6675" lon="6.68949">
        <ele>2254</ele>
        <time>2022-07-26T07:57:56Z</time>
      </trkpt>
      <trkpt lat="45.66749" lon="6.68949">
        <ele>2254</ele>
        <time>2022-07-26T07:57:57Z</time>
      </trkpt>
      <trkpt lat="45.66749" lon="6.68948">
        <ele>2254</ele>
        <time>2022-07-26T07:57:58Z</time>
      </trkpt>
      <trkpt lat="45.66748" lon="6.68947">
        <ele>2254</ele>
        <time>2022-07-26T07:57:59Z</time>
      </trkpt>
      <trkpt lat="45.66747" lon="6.68947">
        <ele>2254</ele>
        <time>2022-07-26T07:58:00Z</time>
      </trkpt>
      <trkpt lat="45.66747" lon="6.68946">
        <ele>2254</ele>
        <time>2022-07-26T07:58:01Z</time>
      </trkpt>
      <trkpt lat="45.66746" lon="6.68946">
        <ele>2255</ele>
        <time>2022-07-26T07:58:02Z</time>
      </trkpt>
      <trkpt lat="45.66746" lon="6.68945">
        <ele>2255</ele>
        <time>2022-07-26T07:58:03Z</time>
      </trkpt>
      <trkpt lat="45.66745" lon="6.68945">
        <ele>2255</ele>
        <time>2022-07-26T07:58:04Z</time>
      </trkpt>
      <trkpt lat="45.66744" lon="6.68944">
        <ele>2255</ele>
        <time>2022-07-26T07:58:05Z</time>
      </trkpt>
      <trkpt lat="45.66744" lon="6.68944">
        <ele>2255</ele>
        <time>2022-07-26T07:58:06Z</time>
      </trkpt>
      <trkpt lat="45.66743" lon="6.68943">
        <ele>2255</ele>
        <time>2022-07-26T07:58:07Z</time>
      </trkpt>
      <trkpt lat="45.66742" lon="6.68943">
        <ele>2255</ele>
        <time>2022-07-26T07:58:08Z</time>
      </trkpt>
      <trkpt lat="45.66742" lon="6.68943">
        <ele>2255</ele>
        <time>2022-07-26T07:58:09Z</time>
      </trkpt>
      <trkpt lat="45.66741" lon="6.68943">
        <ele>2255</ele>
        <time>2022-07-26T07:58:10Z</time>
      </trkpt>
      <trkpt lat="45.6674" lon="6.68942">
        <ele>2255</ele>
        <time>2022-07-26T07:58:11Z</time>
      </trkpt>
      <trkpt lat="45.6674" lon="6.68942">
        <ele>2256</ele>
        <time>2022-07-26T07:58:12Z</time>
      </trkpt>
      <trkpt lat="45.66739" lon="6.68941">
        <ele>2256</ele>
        <time>2022-07-26T07:58:13Z</time>
      </trkpt>
      <trkpt lat="45.66738" lon="6.6894">
        <ele>2256</ele>
        <time>2022-07-26T07:58:14Z</time>
      </trkpt>
      <trkpt lat="45.66738" lon="6.6894">
        <ele>2257</ele>
        <time>2022-07-26T07:58:15Z</time>
      </trkpt>
      <trkpt lat="45.66737" lon="6.68939">
        <ele>2257</ele>
        <time>2022-07-26T07:58:16Z</time>
      </trkpt>
      <trkpt lat="45.66737" lon="6.68938">
        <ele>2258</ele>
        <time>2022-07-26T07:58:17Z</time>
      </trkpt>
      <trkpt lat="45.66736" lon="6.68938">
        <ele>2258</ele>
        <time>2022-07-26T07:58:18Z</time>
      </trkpt>
      <trkpt lat="45.66736" lon="6.68937">
        <ele>2258</ele>
        <time>2022-07-26T07:58:19Z</time>
      </trkpt>
      <trkpt lat="45.66735" lon="6.68937">
        <ele>2258</ele>
        <time>2022-07-26T07:58:20Z</time>
      </trkpt>
      <trkpt lat="45.66735" lon="6.68936">
        <ele>2258</ele>
        <time>2022-07-26T07:58:21Z</time>
      </trkpt>
      <trkpt lat="45.66734" lon="6.68936">
        <ele>2258</ele>
        <time>2022-07-26T07:58:22Z</time>
      </trkpt>
      <trkpt lat="45.66734" lon="6.68935">
        <ele>2258</ele>
        <time>2022-07-26T07:58:23Z</time>
      </trkpt>
      <trkpt lat="45.66733" lon="6.68934">
        <ele>2258</ele>
        <time>2022-07-26T07:58:24Z</time>
      </trkpt>
      <trkpt lat="45.66733" lon="6.68934">
        <ele>2258</ele>
        <time>2022-07-26T07:58:25Z</time>
      </trkpt>
      <trkpt lat="45.66732" lon="6.68933">
        <ele>2258</ele>
        <time>2022-07-26T07:58:26Z</time>
      </trkpt>
      <trkpt lat="45.66732" lon="6.68932">
        <ele>2259</ele>
        <time>2022-07-26T07:58:27Z</time>
      </trkpt>
      <trkpt lat="45.66731" lon="6.68932">
        <ele>2259</ele>
        <time>2022-07-26T07:58:28Z</time>
      </trkpt>
      <trkpt lat="45.66731" lon="6.68931">
        <ele>2262</ele>
        <time>2022-07-26T07:59:58Z</time>
      </trkpt>
      <trkpt lat="45.66731" lon="6.6893">
        <ele>2262</ele>
        <time>2022-07-26T07:59:59Z</time>
      </trkpt>
      <trkpt lat="45.66731" lon="6.6893">
        <ele>2262</ele>
        <time>2022-07-26T08:00:00Z</time>
      </trkpt>
      <trkpt lat="45.6673" lon="6.6893">
        <ele>2262</ele>
        <time>2022-07-26T08:00:01Z</time>
      </trkpt>
      <trkpt lat="45.6673" lon="6.6893">
        <ele>2262</ele>
        <time>2022-07-26T08:00:02Z</time>
      </trkpt>
      <trkpt lat="45.66729" lon="6.68929">
        <ele>2262</ele>
        <time>2022-07-26T08:00:03Z</time>
      </trkpt>
      <trkpt lat="45.66728" lon="6.68929">
        <ele>2262</ele>
        <time>2022-07-26T08:00:04Z</time>
      </trkpt>
      <trkpt lat="45.66728" lon="6.68928">
        <ele>2262</ele>
        <time>2022-07-26T08:00:05Z</time>
      </trkpt>
      <trkpt lat="45.66727" lon="6.68928">
        <ele>2262</ele>
        <time>2022-07-26T08:00:06Z</time>
      </trkpt>
      <trkpt lat="45.66726" lon="6.68927">
        <ele>2263</ele>
        <time>2022-07-26T08:00:07Z</time>
      </trkpt>
      <trkpt lat="45.66726" lon="6.68926">
        <ele>2263</ele>
        <time>2022-07-26T08:00:08Z</time>
      </trkpt>
      <trkpt lat="45.66725" lon="6.68925">
        <ele>2263</ele>
        <time>2022-07-26T08:00:09Z</time>
      </trkpt>
      <trkpt lat="45.66724" lon="6.68924">
        <ele>2263</ele>
        <time>2022-07-26T08:00:10Z</time>
      </trkpt>
      <trkpt lat="45.66724" lon="6.68924">
        <ele>2263</ele>
        <time>2022-07-26T08:00:11Z</time>
      </trkpt>
      <trkpt lat="45.66723" lon="6.68923">
        <ele>2263</ele>
        <time>2022-07-26T08:00:12Z</time>
      </trkpt>
      <trkpt lat="45.66723" lon="6.68922">
        <ele>2263</ele>
        <time>2022-07-26T08:00:13Z</time>
      </trkpt>
      <trkpt lat="45.66722" lon="6.68921">
        <ele>2263</ele>
        <time>2022-07-26T08:00:14Z</time>
      </trkpt>
      <trkpt lat="45.66721" lon="6.6892">
        <ele>2263</ele>
        <time>2022-07-26T08:00:15Z</time>
      </trkpt>
      <trkpt lat="45.66721" lon="6.68919">
        <ele>2263</ele>
        <time>2022-07-26T08:00:16Z</time>
      </trkpt>
      <trkpt lat="45.66721" lon="6.68918">
        <ele>2264</ele>
        <time>2022-07-26T08:00:17Z</time>
      </trkpt>
      <trkpt lat="45.6672" lon="6.68917">
        <ele>2264</ele>
        <time>2022-07-26T08:00:18Z</time>
      </trkpt>
      <trkpt lat="45.6672" lon="6.68917">
        <ele>2264</ele>
        <time>2022-07-26T08:00:19Z</time>
      </trkpt>
      <trkpt lat="45.66719" lon="6.68916">
        <ele>2264</ele>
        <time>2022-07-26T08:00:20Z</time>
      </trkpt>
      <trkpt lat="45.66719" lon="6.68915">
        <ele>2264</ele>
        <time>2022-07-26T08:00:21Z</time>
      </trkpt>
      <trkpt lat="45.66719" lon="6.68914">
        <ele>2264</ele>
        <time>2022-07-26T08:00:22Z</time>
      </trkpt>
      <trkpt lat="45.66718" lon="6.68914">
        <ele>2264</ele>
        <time>2022-07-26T08:00:23Z</time>
      </trkpt>
      <trkpt lat="45.66718" lon="6.68913">
        <ele>2264</ele>
        <time>2022-07-26T08:00:24Z</time>
      </trkpt>
      <trkpt lat="45.66718" lon="6.68913">
        <ele>2264</ele>
        <time>2022-07-26T08:00:25Z</time>
      </trkpt>
      <trkpt lat="45.66718" lon="6.68913">
        <ele>2264</ele>
        <time>2022-07-26T08:00:26Z</time>
      </trkpt>
      <trkpt lat="45.66717" lon="6.68912">
        <ele>2265</ele>
        <time>2022-07-26T08:00:27Z</time>
      </trkpt>
      <trkpt lat="45.66717" lon="6.68912">
        <ele>2265</ele>
        <time>2022-07-26T08:00:28Z</time>
      </trkpt>
      <trkpt lat="45.66717" lon="6.68912">
        <ele>2265</ele>
        <time>2022-07-26T08:00:29Z</time>
      </trkpt>
      <trkpt lat="45.66717" lon="6.68911">
        <ele>2265</ele>
        <time>2022-07-26T08:00:30Z</time>
      </trkpt>
      <trkpt lat="45.66716" lon="6.68911">
        <ele>2265</ele>
        <time>2022-07-26T08:00:31Z</time>
      </trkpt>
      <trkpt lat="45.66716" lon="6.68911">
        <ele>2266</ele>
        <time>2022-07-26T08:00:32Z</time>
      </trkpt>
      <trkpt lat="45.66715" lon="6.6891">
        <ele>2266</ele>
        <time>2022-07-26T08:00:33Z</time>
      </trkpt>
      <trkpt lat="45.66715" lon="6.6891">
        <ele>2266</ele>
        <time>2022-07-26T08:00:34Z</time>
      </trkpt>
      <trkpt lat="45.66715" lon="6.68909">
        <ele>2266</ele>
        <time>2022-07-26T08:00:35Z</time>
      </trkpt>
      <trkpt lat="45.66714" lon="6.68908">
        <ele>2266</ele>
        <time>2022-07-26T08:00:36Z</time>
      </trkpt>
      <trkpt lat="45.66714" lon="6.68908">
        <ele>2266</ele>
        <time>2022-07-26T08:00:37Z</time>
      </trkpt>
      <trkpt lat="45.66714" lon="6.68907">
        <ele>2266</ele>
        <time>2022-07-26T08:00:38Z</time>
      </trkpt>
      <trkpt lat="45.66713" lon="6.68907">
        <ele>2266</ele>
        <time>2022-07-26T08:00:39Z</time>
      </trkpt>
      <trkpt lat="45.66713" lon="6.68906">
        <ele>2266</ele>
        <time>2022-07-26T08:00:40Z</time>
      </trkpt>
      <trkpt lat="45.66712" lon="6.68906">
        <ele>2266</ele>
        <time>2022-07-26T08:00:41Z</time>
      </trkpt>
      <trkpt lat="45.66711" lon="6.68906">
        <ele>2266</ele>
        <time>2022-07-26T08:00:42Z</time>
      </trkpt>
      <trkpt lat="45.6671" lon="6.68906">
        <ele>2266</ele>
        <time>2022-07-26T08:00:43Z</time>
      </trkpt>
      <trkpt lat="45.6671" lon="6.68907">
        <ele>2266</ele>
        <time>2022-07-26T08:00:44Z</time>
      </trkpt>
      <trkpt lat="45.66709" lon="6.68908">
        <ele>2266</ele>
        <time>2022-07-26T08:00:45Z</time>
      </trkpt>
      <trkpt lat="45.66708" lon="6.68908">
        <ele>2266</ele>
        <time>2022-07-26T08:00:46Z</time>
      </trkpt>
      <trkpt lat="45.66707" lon="6.68909">
        <ele>2266</ele>
        <time>2022-07-26T08:00:47Z</time>
      </trkpt>
      <trkpt lat="45.66706" lon="6.6891">
        <ele>2266</ele>
        <time>2022-07-26T08:00:48Z</time>
      </trkpt>
      <trkpt lat="45.66705" lon="6.68911">
        <ele>2266</ele>
        <time>2022-07-26T08:00:49Z</time>
      </trkpt>
      <trkpt lat="45.66704" lon="6.68912">
        <ele>2266</ele>
        <time>2022-07-26T08:00:50Z</time>
      </trkpt>
      <trkpt lat="45.66703" lon="6.68912">
        <ele>2267</ele>
        <time>2022-07-26T08:01:35Z</time>
      </trkpt>
      <trkpt lat="45.66703" lon="6.68913">
        <ele>2267</ele>
        <time>2022-07-26T08:01:36Z</time>
      </trkpt>
      <trkpt lat="45.66703" lon="6.68913">
        <ele>2267</ele>
        <time>2022-07-26T08:01:37Z</time>
      </trkpt>
      <trkpt lat="45.66703" lon="6.68912">
        <ele>2267</ele>
        <time>2022-07-26T08:01:38Z</time>
      </trkpt>
      <trkpt lat="45.66703" lon="6.68912">
        <ele>2267</ele>
        <time>2022-07-26T08:01:39Z</time>
      </trkpt>
      <trkpt lat="45.66704" lon="6.68911">
        <ele>2267</ele>
        <time>2022-07-26T08:01:40Z</time>
      </trkpt>
      <trkpt lat="45.66704" lon="6.6891">
        <ele>2267</ele>
        <time>2022-07-26T08:01:41Z</time>
      </trkpt>
      <trkpt lat="45.66705" lon="6.68909">
        <ele>2267</ele>
        <time>2022-07-26T08:01:42Z</time>
      </trkpt>
      <trkpt lat="45.66705" lon="6.68909">
        <ele>2267</ele>
        <time>2022-07-26T08:01:43Z</time>
      </trkpt>
      <trkpt lat="45.66705" lon="6.68908">
        <ele>2267</ele>
        <time>2022-07-26T08:01:44Z</time>
      </trkpt>
      <trkpt lat="45.66705" lon="6.68909">
        <ele>2267</ele>
        <time>2022-07-26T08:01:45Z</time>
      </trkpt>
      <trkpt lat="45.66705" lon="6.68909">
        <ele>2267</ele>
        <time>2022-07-26T08:01:46Z</time>
      </trkpt>
      <trkpt lat="45.66705" lon="6.6891">
        <ele>2267</ele>
        <time>2022-07-26T08:01:47Z</time>
      </trkpt>
      <trkpt lat="45.66704" lon="6.68911">
        <ele>2267</ele>
        <time>2022-07-26T08:01:48Z</time>
      </trkpt>
      <trkpt lat="45.66703" lon="6.68911">
        <ele>2267</ele>
        <time>2022-07-26T08:01:49Z</time>
      </trkpt>
      <trkpt lat="45.66702" lon="6.68912">
        <ele>2267</ele>
        <time>2022-07-26T08:01:50Z</time>
      </trkpt>
      <trkpt lat="45.66702" lon="6.68912">
        <ele>2267</ele>
        <time>2022-07-26T08:03:55Z</time>
      </trkpt>
      <trkpt lat="45.66701" lon="6.68912">
        <ele>2267</ele>
        <time>2022-07-26T08:03:56Z</time>
      </trkpt>
      <trkpt lat="45.66701" lon="6.68912">
        <ele>2267</ele>
        <time>2022-07-26T08:03:57Z</time>
      </trkpt>
      <trkpt lat="45.66701" lon="6.68911">
        <ele>2268</ele>
        <time>2022-07-26T08:06:11Z</time>
      </trkpt>
      <trkpt lat="45.66702" lon="6.6891">
        <ele>2268</ele>
        <time>2022-07-26T08:06:12Z</time>
      </trkpt>
      <trkpt lat="45.66702" lon="6.68909">
        <ele>2268</ele>
        <time>2022-07-26T08:06:13Z</time>
      </trkpt>
      <trkpt lat="45.66702" lon="6.68908">
        <ele>2268</ele>
        <time>2022-07-26T08:06:14Z</time>
      </trkpt>
      <trkpt lat="45.66703" lon="6.68907">
        <ele>2268</ele>
        <time>2022-07-26T08:06:15Z</time>
      </trkpt>
      <trkpt lat="45.66703" lon="6.68906">
        <ele>2268</ele>
        <time>2022-07-26T08:06:16Z</time>
      </trkpt>
      <trkpt lat="45.66703" lon="6.68905">
        <ele>2268</ele>
        <time>2022-07-26T08:06:17Z</time>
      </trkpt>
      <trkpt lat="45.66702" lon="6.68904">
        <ele>2268</ele>
        <time>2022-07-26T08:06:18Z</time>
      </trkpt>
      <trkpt lat="45.66702" lon="6.68903">
        <ele>2268</ele>
        <time>2022-07-26T08:06:19Z</time>
      </trkpt>
      <trkpt lat="45.66702" lon="6.68903">
        <ele>2268</ele>
        <time>2022-07-26T08:06:20Z</time>
      </trkpt>
      <trkpt lat="45.66702" lon="6.68902">
        <ele>2268</ele>
        <time>2022-07-26T08:06:21Z</time>
      </trkpt>
      <trkpt lat="45.66701" lon="6.68902">
        <ele>2269</ele>
        <time>2022-07-26T08:06:22Z</time>
      </trkpt>
      <trkpt lat="45.66701" lon="6.68901">
        <ele>2269</ele>
        <time>2022-07-26T08:06:23Z</time>
      </trkpt>
      <trkpt lat="45.667" lon="6.68901">
        <ele>2269</ele>
        <time>2022-07-26T08:06:24Z</time>
      </trkpt>
      <trkpt lat="45.66699" lon="6.689">
        <ele>2269</ele>
        <time>2022-07-26T08:06:25Z</time>
      </trkpt>
      <trkpt lat="45.66698" lon="6.689">
        <ele>2269</ele>
        <time>2022-07-26T08:06:26Z</time>
      </trkpt>
      <trkpt lat="45.66697" lon="6.68899">
        <ele>2269</ele>
        <time>2022-07-26T08:06:27Z</time>
      </trkpt>
      <trkpt lat="45.66696" lon="6.68899">
        <ele>2269</ele>
        <time>2022-07-26T08:06:28Z</time>
      </trkpt>
      <trkpt lat="45.66696" lon="6.68898">
        <ele>2269</ele>
        <time>2022-07-26T08:06:29Z</time>
      </trkpt>
      <trkpt lat="45.66695" lon="6.68898">
        <ele>2269</ele>
        <time>2022-07-26T08:06:30Z</time>
      </trkpt>
      <trkpt lat="45.66694" lon="6.68897">
        <ele>2269</ele>
        <time>2022-07-26T08:06:31Z</time>
      </trkpt>
      <trkpt lat="45.66693" lon="6.68897">
        <ele>2270</ele>
        <time>2022-07-26T08:06:32Z</time>
      </trkpt>
      <trkpt lat="45.66692" lon="6.68896">
        <ele>2270</ele>
        <time>2022-07-26T08:06:33Z</time>
      </trkpt>
      <trkpt lat="45.66692" lon="6.68895">
        <ele>2270</ele>
        <time>2022-07-26T08:06:34Z</time>
      </trkpt>
      <trkpt lat="45.66691" lon="6.68895">
        <ele>2270</ele>
        <time>2022-07-26T08:06:35Z</time>
      </trkpt>
      <trkpt lat="45.6669" lon="6.68894">
        <ele>2270</ele>
        <time>2022-07-26T08:06:36Z</time>
      </trkpt>
      <trkpt lat="45.66689" lon="6.68894">
        <ele>2270</ele>
        <time>2022-07-26T08:06:37Z</time>
      </trkpt>
      <trkpt lat="45.66688" lon="6.68893">
        <ele>2270</ele>
        <time>2022-07-26T08:06:38Z</time>
      </trkpt>
      <trkpt lat="45.66687" lon="6.68893">
        <ele>2270</ele>
        <time>2022-07-26T08:06:39Z</time>
      </trkpt>
      <trkpt lat="45.66686" lon="6.68893">
        <ele>2270</ele>
        <time>2022-07-26T08:06:40Z</time>
      </trkpt>
      <trkpt lat="45.66685" lon="6.68893">
        <ele>2270</ele>
        <time>2022-07-26T08:06:41Z</time>
      </trkpt>
      <trkpt lat="45.66685" lon="6.68893">
        <ele>2271</ele>
        <time>2022-07-26T08:06:42Z</time>
      </trkpt>
      <trkpt lat="45.66684" lon="6.68892">
        <ele>2271</ele>
        <time>2022-07-26T08:06:43Z</time>
      </trkpt>
      <trkpt lat="45.66683" lon="6.68892">
        <ele>2271</ele>
        <time>2022-07-26T08:06:44Z</time>
      </trkpt>
      <trkpt lat="45.66682" lon="6.68892">
        <ele>2271</ele>
        <time>2022-07-26T08:06:45Z</time>
      </trkpt>
      <trkpt lat="45.66681" lon="6.68892">
        <ele>2271</ele>
        <time>2022-07-26T08:06:46Z</time>
      </trkpt>
      <trkpt lat="45.6668" lon="6.68892">
        <ele>2272</ele>
        <time>2022-07-26T08:06:47Z</time>
      </trkpt>
      <trkpt lat="45.66679" lon="6.68892">
        <ele>2272</ele>
        <time>2022-07-26T08:06:48Z</time>
      </trkpt>
      <trkpt lat="45.66678" lon="6.68892">
        <ele>2272</ele>
        <time>2022-07-26T08:06:49Z</time>
      </trkpt>
      <trkpt lat="45.66677" lon="6.68891">
        <ele>2272</ele>
        <time>2022-07-26T08:06:50Z</time>
      </trkpt>
      <trkpt lat="45.66676" lon="6.68891">
        <ele>2272</ele>
        <time>2022-07-26T08:06:51Z</time>
      </trkpt>
      <trkpt lat="45.66675" lon="6.6889">
        <ele>2273</ele>
        <time>2022-07-26T08:06:52Z</time>
      </trkpt>
      <trkpt lat="45.66674" lon="6.6889">
        <ele>2273</ele>
        <time>2022-07-26T08:06:53Z</time>
      </trkpt>
      <trkpt lat="45.66673" lon="6.68889">
        <ele>2273</ele>
        <time>2022-07-26T08:06:54Z</time>
      </trkpt>
      <trkpt lat="45.66672" lon="6.68889">
        <ele>2273</ele>
        <time>2022-07-26T08:06:55Z</time>
      </trkpt>
      <trkpt lat="45.66671" lon="6.68889">
        <ele>2273</ele>
        <time>2022-07-26T08:06:56Z</time>
      </trkpt>
      <trkpt lat="45.6667" lon="6.68889">
        <ele>2273</ele>
        <time>2022-07-26T08:06:57Z</time>
      </trkpt>
      <trkpt lat="45.66669" lon="6.68888">
        <ele>2273</ele>
        <time>2022-07-26T08:06:58Z</time>
      </trkpt>
      <trkpt lat="45.66669" lon="6.68888">
        <ele>2273</ele>
        <time>2022-07-26T08:06:59Z</time>
      </trkpt>
      <trkpt lat="45.66668" lon="6.68888">
        <ele>2273</ele>
        <time>2022-07-26T08:07:00Z</time>
      </trkpt>
      <trkpt lat="45.66667" lon="6.68888">
        <ele>2273</ele>
        <time>2022-07-26T08:07:01Z</time>
      </trkpt>
      <trkpt lat="45.66667" lon="6.68887">
        <ele>2274</ele>
        <time>2022-07-26T08:07:02Z</time>
      </trkpt>
      <trkpt lat="45.66666" lon="6.68887">
        <ele>2274</ele>
        <time>2022-07-26T08:07:03Z</time>
      </trkpt>
      <trkpt lat="45.66666" lon="6.68886">
        <ele>2274</ele>
        <time>2022-07-26T08:07:04Z</time>
      </trkpt>
      <trkpt lat="45.66665" lon="6.68886">
        <ele>2274</ele>
        <time>2022-07-26T08:07:05Z</time>
      </trkpt>
      <trkpt lat="45.66664" lon="6.68885">
        <ele>2274</ele>
        <time>2022-07-26T08:07:06Z</time>
      </trkpt>
      <trkpt lat="45.66664" lon="6.68885">
        <ele>2275</ele>
        <time>2022-07-26T08:07:07Z</time>
      </trkpt>
      <trkpt lat="45.66663" lon="6.68884">
        <ele>2275</ele>
        <time>2022-07-26T08:07:08Z</time>
      </trkpt>
      <trkpt lat="45.66662" lon="6.68883">
        <ele>2275</ele>
        <time>2022-07-26T08:07:09Z</time>
      </trkpt>
      <trkpt lat="45.66662" lon="6.68882">
        <ele>2275</ele>
        <time>2022-07-26T08:07:10Z</time>
      </trkpt>
      <trkpt lat="45.66661" lon="6.68882">
        <ele>2275</ele>
        <time>2022-07-26T08:07:11Z</time>
      </trkpt>
      <trkpt lat="45.6666" lon="6.68881">
        <ele>2275</ele>
        <time>2022-07-26T08:07:12Z</time>
      </trkpt>
      <trkpt lat="45.6666" lon="6.6888">
        <ele>2275</ele>
        <time>2022-07-26T08:07:13Z</time>
      </trkpt>
      <trkpt lat="45.66659" lon="6.68879">
        <ele>2275</ele>
        <time>2022-07-26T08:07:14Z</time>
      </trkpt>
      <trkpt lat="45.66659" lon="6.68878">
        <ele>2275</ele>
        <time>2022-07-26T08:07:15Z</time>
      </trkpt>
      <trkpt lat="45.66658" lon="6.68877">
        <ele>2275</ele>
        <time>2022-07-26T08:07:16Z</time>
      </trkpt>
      <trkpt lat="45.66658" lon="6.68876">
        <ele>2276</ele>
        <time>2022-07-26T08:07:17Z</time>
      </trkpt>
      <trkpt lat="45.66657" lon="6.68875">
        <ele>2276</ele>
        <time>2022-07-26T08:07:18Z</time>
      </trkpt>
      <trkpt lat="45.66657" lon="6.68874">
        <ele>2276</ele>
        <time>2022-07-26T08:07:19Z</time>
      </trkpt>
      <trkpt lat="45.66656" lon="6.68873">
        <ele>2276</ele>
        <time>2022-07-26T08:07:20Z</time>
      </trkpt>
      <trkpt lat="45.66655" lon="6.68872">
        <ele>2276</ele>
        <time>2022-07-26T08:07:21Z</time>
      </trkpt>
      <trkpt lat="45.66654" lon="6.68871">
        <ele>2277</ele>
        <time>2022-07-26T08:07:22Z</time>
      </trkpt>
      <trkpt lat="45.66654" lon="6.68869">
        <ele>2277</ele>
        <time>2022-07-26T08:07:23Z</time>
      </trkpt>
      <trkpt lat="45.66653" lon="6.68868">
        <ele>2277</ele>
        <time>2022-07-26T08:07:24Z</time>
      </trkpt>
      <trkpt lat="45.66652" lon="6.68867">
        <ele>2277</ele>
        <time>2022-07-26T08:07:25Z</time>
      </trkpt>
      <trkpt lat="45.66651" lon="6.68866">
        <ele>2277</ele>
        <time>2022-07-26T08:07:26Z</time>
      </trkpt>
      <trkpt lat="45.6665" lon="6.68866">
        <ele>2277</ele>
        <time>2022-07-26T08:07:27Z</time>
      </trkpt>
      <trkpt lat="45.66649" lon="6.68865">
        <ele>2277</ele>
        <time>2022-07-26T08:07:28Z</time>
      </trkpt>
      <trkpt lat="45.66648" lon="6.68865">
        <ele>2277</ele>
        <time>2022-07-26T08:07:29Z</time>
      </trkpt>
      <trkpt lat="45.66646" lon="6.68865">
        <ele>2277</ele>
        <time>2022-07-26T08:07:30Z</time>
      </trkpt>
      <trkpt lat="45.66645" lon="6.68865">
        <ele>2277</ele>
        <time>2022-07-26T08:07:31Z</time>
      </trkpt>
      <trkpt lat="45.66644" lon="6.68865">
        <ele>2277</ele>
        <time>2022-07-26T08:07:32Z</time>
      </trkpt>
      <trkpt lat="45.66643" lon="6.68865">
        <ele>2277</ele>
        <time>2022-07-26T08:07:33Z</time>
      </trkpt>
      <trkpt lat="45.66642" lon="6.68865">
        <ele>2277</ele>
        <time>2022-07-26T08:07:34Z</time>
      </trkpt>
      <trkpt lat="45.66641" lon="6.68865">
        <ele>2277</ele>
        <time>2022-07-26T08:07:35Z</time>
      </trkpt>
      <trkpt lat="45.66639" lon="6.68865">
        <ele>2277</ele>
        <time>2022-07-26T08:07:36Z</time>
      </trkpt>
      <trkpt lat="45.66638" lon="6.68864">
        <ele>2278</ele>
        <time>2022-07-26T08:07:37Z</time>
      </trkpt>
      <trkpt lat="45.66638" lon="6.68864">
        <ele>2278</ele>
        <time>2022-07-26T08:07:38Z</time>
      </trkpt>
      <trkpt lat="45.66637" lon="6.68864">
        <ele>2278</ele>
        <time>2022-07-26T08:07:39Z</time>
      </trkpt>
      <trkpt lat="45.66636" lon="6.68864">
        <ele>2278</ele>
        <time>2022-07-26T08:07:40Z</time>
      </trkpt>
      <trkpt lat="45.66635" lon="6.68865">
        <ele>2278</ele>
        <time>2022-07-26T08:07:41Z</time>
      </trkpt>
      <trkpt lat="45.66634" lon="6.68865">
        <ele>2278</ele>
        <time>2022-07-26T08:07:42Z</time>
      </trkpt>
      <trkpt lat="45.66633" lon="6.68865">
        <ele>2278</ele>
        <time>2022-07-26T08:07:43Z</time>
      </trkpt>
      <trkpt lat="45.66632" lon="6.68865">
        <ele>2278</ele>
        <time>2022-07-26T08:07:44Z</time>
      </trkpt>
      <trkpt lat="45.66631" lon="6.68865">
        <ele>2278</ele>
        <time>2022-07-26T08:07:45Z</time>
      </trkpt>
      <trkpt lat="45.6663" lon="6.68865">
        <ele>2278</ele>
        <time>2022-07-26T08:07:46Z</time>
      </trkpt>
      <trkpt lat="45.66629" lon="6.68864">
        <ele>2278</ele>
        <time>2022-07-26T08:07:47Z</time>
      </trkpt>
      <trkpt lat="45.66629" lon="6.68864">
        <ele>2278</ele>
        <time>2022-07-26T08:07:48Z</time>
      </trkpt>
      <trkpt lat="45.66628" lon="6.68863">
        <ele>2278</ele>
        <time>2022-07-26T08:07:49Z</time>
      </trkpt>
      <trkpt lat="45.66627" lon="6.68862">
        <ele>2278</ele>
        <time>2022-07-26T08:07:50Z</time>
      </trkpt>
      <trkpt lat="45.66627" lon="6.68862">
        <ele>2278</ele>
        <time>2022-07-26T08:07:51Z</time>
      </trkpt>
      <trkpt lat="45.66626" lon="6.68861">
        <ele>2279</ele>
        <time>2022-07-26T08:07:52Z</time>
      </trkpt>
      <trkpt lat="45.66625" lon="6.6886">
        <ele>2279</ele>
        <time>2022-07-26T08:07:53Z</time>
      </trkpt>
      <trkpt lat="45.66625" lon="6.6886">
        <ele>2279</ele>
        <time>2022-07-26T08:07:54Z</time>
      </trkpt>
      <trkpt lat="45.66624" lon="6.68859">
        <ele>2279</ele>
        <time>2022-07-26T08:07:55Z</time>
      </trkpt>
      <trkpt lat="45.66623" lon="6.68859">
        <ele>2279</ele>
        <time>2022-07-26T08:07:56Z</time>
      </trkpt>
      <trkpt lat="45.66622" lon="6.68858">
        <ele>2280</ele>
        <time>2022-07-26T08:07:57Z</time>
      </trkpt>
      <trkpt lat="45.66621" lon="6.68858">
        <ele>2280</ele>
        <time>2022-07-26T08:07:58Z</time>
      </trkpt>
      <trkpt lat="45.6662" lon="6.68857">
        <ele>2280</ele>
        <time>2022-07-26T08:07:59Z</time>
      </trkpt>
      <trkpt lat="45.66619" lon="6.68857">
        <ele>2280</ele>
        <time>2022-07-26T08:08:00Z</time>
      </trkpt>
      <trkpt lat="45.66618" lon="6.68856">
        <ele>2280</ele>
        <time>2022-07-26T08:08:01Z</time>
      </trkpt>
      <trkpt lat="45.66618" lon="6.68856">
        <ele>2281</ele>
        <time>2022-07-26T08:08:02Z</time>
      </trkpt>
      <trkpt lat="45.66617" lon="6.68855">
        <ele>2281</ele>
        <time>2022-07-26T08:08:03Z</time>
      </trkpt>
      <trkpt lat="45.66616" lon="6.68855">
        <ele>2281</ele>
        <time>2022-07-26T08:08:04Z</time>
      </trkpt>
      <trkpt lat="45.66615" lon="6.68854">
        <ele>2281</ele>
        <time>2022-07-26T08:08:05Z</time>
      </trkpt>
      <trkpt lat="45.66615" lon="6.68854">
        <ele>2281</ele>
        <time>2022-07-26T08:08:06Z</time>
      </trkpt>
      <trkpt lat="45.66614" lon="6.68853">
        <ele>2282</ele>
        <time>2022-07-26T08:08:07Z</time>
      </trkpt>
      <trkpt lat="45.66613" lon="6.68852">
        <ele>2282</ele>
        <time>2022-07-26T08:08:08Z</time>
      </trkpt>
      <trkpt lat="45.66612" lon="6.68851">
        <ele>2282</ele>
        <time>2022-07-26T08:08:09Z</time>
      </trkpt>
      <trkpt lat="45.66612" lon="6.68851">
        <ele>2282</ele>
        <time>2022-07-26T08:08:10Z</time>
      </trkpt>
      <trkpt lat="45.66611" lon="6.6885">
        <ele>2282</ele>
        <time>2022-07-26T08:08:11Z</time>
      </trkpt>
      <trkpt lat="45.66611" lon="6.68849">
        <ele>2282</ele>
        <time>2022-07-26T08:08:12Z</time>
      </trkpt>
      <trkpt lat="45.6661" lon="6.68849">
        <ele>2282</ele>
        <time>2022-07-26T08:08:13Z</time>
      </trkpt>
      <trkpt lat="45.66609" lon="6.68848">
        <ele>2282</ele>
        <time>2022-07-26T08:08:14Z</time>
      </trkpt>
      <trkpt lat="45.66609" lon="6.68847">
        <ele>2282</ele>
        <time>2022-07-26T08:08:15Z</time>
      </trkpt>
      <trkpt lat="45.66608" lon="6.68846">
        <ele>2282</ele>
        <time>2022-07-26T08:08:16Z</time>
      </trkpt>
      <trkpt lat="45.66608" lon="6.68846">
        <ele>2283</ele>
        <time>2022-07-26T08:08:17Z</time>
      </trkpt>
      <trkpt lat="45.66607" lon="6.68845">
        <ele>2283</ele>
        <time>2022-07-26T08:08:18Z</time>
      </trkpt>
      <trkpt lat="45.66606" lon="6.68844">
        <ele>2283</ele>
        <time>2022-07-26T08:08:19Z</time>
      </trkpt>
      <trkpt lat="45.66606" lon="6.68844">
        <ele>2283</ele>
        <time>2022-07-26T08:08:20Z</time>
      </trkpt>
      <trkpt lat="45.66605" lon="6.68844">
        <ele>2283</ele>
        <time>2022-07-26T08:08:21Z</time>
      </trkpt>
      <trkpt lat="45.66604" lon="6.68843">
        <ele>2284</ele>
        <time>2022-07-26T08:08:22Z</time>
      </trkpt>
      <trkpt lat="45.66604" lon="6.68843">
        <ele>2284</ele>
        <time>2022-07-26T08:08:23Z</time>
      </trkpt>
      <trkpt lat="45.66603" lon="6.68842">
        <ele>2284</ele>
        <time>2022-07-26T08:08:24Z</time>
      </trkpt>
      <trkpt lat="45.66602" lon="6.68842">
        <ele>2285</ele>
        <time>2022-07-26T08:08:25Z</time>
      </trkpt>
      <trkpt lat="45.66602" lon="6.68842">
        <ele>2285</ele>
        <time>2022-07-26T08:08:26Z</time>
      </trkpt>
      <trkpt lat="45.66602" lon="6.68841">
        <ele>2286</ele>
        <time>2022-07-26T08:08:27Z</time>
      </trkpt>
      <trkpt lat="45.66601" lon="6.68841">
        <ele>2286</ele>
        <time>2022-07-26T08:08:28Z</time>
      </trkpt>
      <trkpt lat="45.66601" lon="6.68841">
        <ele>2286</ele>
        <time>2022-07-26T08:08:29Z</time>
      </trkpt>
      <trkpt lat="45.666" lon="6.6884">
        <ele>2286</ele>
        <time>2022-07-26T08:08:30Z</time>
      </trkpt>
      <trkpt lat="45.66599" lon="6.6884">
        <ele>2286</ele>
        <time>2022-07-26T08:08:31Z</time>
      </trkpt>
      <trkpt lat="45.66599" lon="6.6884">
        <ele>2287</ele>
        <time>2022-07-26T08:08:32Z</time>
      </trkpt>
      <trkpt lat="45.66598" lon="6.6884">
        <ele>2287</ele>
        <time>2022-07-26T08:08:33Z</time>
      </trkpt>
      <trkpt lat="45.66597" lon="6.6884">
        <ele>2287</ele>
        <time>2022-07-26T08:08:34Z</time>
      </trkpt>
      <trkpt lat="45.66596" lon="6.68841">
        <ele>2287</ele>
        <time>2022-07-26T08:08:35Z</time>
      </trkpt>
      <trkpt lat="45.66595" lon="6.6884">
        <ele>2287</ele>
        <time>2022-07-26T08:08:36Z</time>
      </trkpt>
      <trkpt lat="45.66595" lon="6.6884">
        <ele>2288</ele>
        <time>2022-07-26T08:08:37Z</time>
      </trkpt>
      <trkpt lat="45.66594" lon="6.6884">
        <ele>2288</ele>
        <time>2022-07-26T08:08:38Z</time>
      </trkpt>
      <trkpt lat="45.66593" lon="6.6884">
        <ele>2288</ele>
        <time>2022-07-26T08:08:39Z</time>
      </trkpt>
      <trkpt lat="45.66592" lon="6.6884">
        <ele>2288</ele>
        <time>2022-07-26T08:08:40Z</time>
      </trkpt>
      <trkpt lat="45.66591" lon="6.6884">
        <ele>2288</ele>
        <time>2022-07-26T08:08:41Z</time>
      </trkpt>
      <trkpt lat="45.6659" lon="6.6884">
        <ele>2289</ele>
        <time>2022-07-26T08:08:42Z</time>
      </trkpt>
      <trkpt lat="45.66589" lon="6.6884">
        <ele>2289</ele>
        <time>2022-07-26T08:08:43Z</time>
      </trkpt>
      <trkpt lat="45.66588" lon="6.6884">
        <ele>2289</ele>
        <time>2022-07-26T08:08:44Z</time>
      </trkpt>
      <trkpt lat="45.66587" lon="6.6884">
        <ele>2289</ele>
        <time>2022-07-26T08:08:45Z</time>
      </trkpt>
      <trkpt lat="45.66586" lon="6.68839">
        <ele>2289</ele>
        <time>2022-07-26T08:08:46Z</time>
      </trkpt>
      <trkpt lat="45.66585" lon="6.68839">
        <ele>2290</ele>
        <time>2022-07-26T08:08:47Z</time>
      </trkpt>
      <trkpt lat="45.66584" lon="6.68838">
        <ele>2290</ele>
        <time>2022-07-26T08:08:48Z</time>
      </trkpt>
      <trkpt lat="45.66583" lon="6.68837">
        <ele>2290</ele>
        <time>2022-07-26T08:08:49Z</time>
      </trkpt>
      <trkpt lat="45.66583" lon="6.68837">
        <ele>2290</ele>
        <time>2022-07-26T08:08:50Z</time>
      </trkpt>
      <trkpt lat="45.66582" lon="6.68836">
        <ele>2290</ele>
        <time>2022-07-26T08:08:51Z</time>
      </trkpt>
      <trkpt lat="45.66581" lon="6.68836">
        <ele>2291</ele>
        <time>2022-07-26T08:08:52Z</time>
      </trkpt>
      <trkpt lat="45.6658" lon="6.68835">
        <ele>2291</ele>
        <time>2022-07-26T08:08:53Z</time>
      </trkpt>
      <trkpt lat="45.66579" lon="6.68835">
        <ele>2291</ele>
        <time>2022-07-26T08:08:54Z</time>
      </trkpt>
      <trkpt lat="45.66579" lon="6.68834">
        <ele>2291</ele>
        <time>2022-07-26T08:08:55Z</time>
      </trkpt>
      <trkpt lat="45.66578" lon="6.68834">
        <ele>2291</ele>
        <time>2022-07-26T08:08:56Z</time>
      </trkpt>
      <trkpt lat="45.66577" lon="6.68833">
        <ele>2291</ele>
        <time>2022-07-26T08:08:57Z</time>
      </trkpt>
      <trkpt lat="45.66576" lon="6.68833">
        <ele>2291</ele>
        <time>2022-07-26T08:08:58Z</time>
      </trkpt>
      <trkpt lat="45.66575" lon="6.68832">
        <ele>2291</ele>
        <time>2022-07-26T08:08:59Z</time>
      </trkpt>
      <trkpt lat="45.66574" lon="6.68832">
        <ele>2292</ele>
        <time>2022-07-26T08:09:00Z</time>
      </trkpt>
      <trkpt lat="45.66574" lon="6.68832">
        <ele>2292</ele>
        <time>2022-07-26T08:09:01Z</time>
      </trkpt>
      <trkpt lat="45.66573" lon="6.68831">
        <ele>2293</ele>
        <time>2022-07-26T08:09:02Z</time>
      </trkpt>
      <trkpt lat="45.66572" lon="6.68831">
        <ele>2293</ele>
        <time>2022-07-26T08:09:03Z</time>
      </trkpt>
      <trkpt lat="45.66571" lon="6.68831">
        <ele>2293</ele>
        <time>2022-07-26T08:09:04Z</time>
      </trkpt>
      <trkpt lat="45.6657" lon="6.68831">
        <ele>2293</ele>
        <time>2022-07-26T08:09:05Z</time>
      </trkpt>
      <trkpt lat="45.66569" lon="6.68831">
        <ele>2293</ele>
        <time>2022-07-26T08:09:06Z</time>
      </trkpt>
      <trkpt lat="45.66567" lon="6.68831">
        <ele>2293</ele>
        <time>2022-07-26T08:09:07Z</time>
      </trkpt>
      <trkpt lat="45.66566" lon="6.68831">
        <ele>2293</ele>
        <time>2022-07-26T08:09:08Z</time>
      </trkpt>
      <trkpt lat="45.66565" lon="6.68831">
        <ele>2293</ele>
        <time>2022-07-26T08:09:09Z</time>
      </trkpt>
      <trkpt lat="45.66564" lon="6.6883">
        <ele>2293</ele>
        <time>2022-07-26T08:09:10Z</time>
      </trkpt>
      <trkpt lat="45.66563" lon="6.6883">
        <ele>2293</ele>
        <time>2022-07-26T08:09:11Z</time>
      </trkpt>
      <trkpt lat="45.66562" lon="6.68829">
        <ele>2294</ele>
        <time>2022-07-26T08:09:12Z</time>
      </trkpt>
      <trkpt lat="45.66561" lon="6.68829">
        <ele>2294</ele>
        <time>2022-07-26T08:09:13Z</time>
      </trkpt>
      <trkpt lat="45.6656" lon="6.68828">
        <ele>2294</ele>
        <time>2022-07-26T08:09:14Z</time>
      </trkpt>
      <trkpt lat="45.66559" lon="6.68827">
        <ele>2294</ele>
        <time>2022-07-26T08:09:15Z</time>
      </trkpt>
      <trkpt lat="45.66558" lon="6.68826">
        <ele>2294</ele>
        <time>2022-07-26T08:09:16Z</time>
      </trkpt>
      <trkpt lat="45.66558" lon="6.68825">
        <ele>2294</ele>
        <time>2022-07-26T08:09:17Z</time>
      </trkpt>
      <trkpt lat="45.66557" lon="6.68824">
        <ele>2294</ele>
        <time>2022-07-26T08:09:18Z</time>
      </trkpt>
      <trkpt lat="45.66556" lon="6.68823">
        <ele>2294</ele>
        <time>2022-07-26T08:09:19Z</time>
      </trkpt>
      <trkpt lat="45.66556" lon="6.68822">
        <ele>2294</ele>
        <time>2022-07-26T08:09:20Z</time>
      </trkpt>
      <trkpt lat="45.66555" lon="6.68821">
        <ele>2294</ele>
        <time>2022-07-26T08:09:21Z</time>
      </trkpt>
      <trkpt lat="45.66554" lon="6.6882">
        <ele>2295</ele>
        <time>2022-07-26T08:09:22Z</time>
      </trkpt>
      <trkpt lat="45.66553" lon="6.6882">
        <ele>2295</ele>
        <time>2022-07-26T08:09:23Z</time>
      </trkpt>
      <trkpt lat="45.66553" lon="6.68819">
        <ele>2295</ele>
        <time>2022-07-26T08:09:24Z</time>
      </trkpt>
      <trkpt lat="45.66552" lon="6.68818">
        <ele>2295</ele>
        <time>2022-07-26T08:09:25Z</time>
      </trkpt>
      <trkpt lat="45.66551" lon="6.68817">
        <ele>2295</ele>
        <time>2022-07-26T08:09:26Z</time>
      </trkpt>
      <trkpt lat="45.6655" lon="6.68816">
        <ele>2296</ele>
        <time>2022-07-26T08:09:27Z</time>
      </trkpt>
      <trkpt lat="45.66549" lon="6.68816">
        <ele>2296</ele>
        <time>2022-07-26T08:09:28Z</time>
      </trkpt>
      <trkpt lat="45.66548" lon="6.68815">
        <ele>2296</ele>
        <time>2022-07-26T08:09:29Z</time>
      </trkpt>
      <trkpt lat="45.66548" lon="6.68814">
        <ele>2296</ele>
        <time>2022-07-26T08:09:30Z</time>
      </trkpt>
      <trkpt lat="45.66547" lon="6.68814">
        <ele>2296</ele>
        <time>2022-07-26T08:09:31Z</time>
      </trkpt>
      <trkpt lat="45.66546" lon="6.68813">
        <ele>2296</ele>
        <time>2022-07-26T08:09:32Z</time>
      </trkpt>
      <trkpt lat="45.66545" lon="6.68812">
        <ele>2296</ele>
        <time>2022-07-26T08:09:33Z</time>
      </trkpt>
      <trkpt lat="45.66544" lon="6.68811">
        <ele>2296</ele>
        <time>2022-07-26T08:09:34Z</time>
      </trkpt>
      <trkpt lat="45.66543" lon="6.68811">
        <ele>2296</ele>
        <time>2022-07-26T08:09:35Z</time>
      </trkpt>
      <trkpt lat="45.66543" lon="6.6881">
        <ele>2296</ele>
        <time>2022-07-26T08:09:36Z</time>
      </trkpt>
      <trkpt lat="45.66542" lon="6.68809">
        <ele>2296</ele>
        <time>2022-07-26T08:09:37Z</time>
      </trkpt>
      <trkpt lat="45.66541" lon="6.68809">
        <ele>2296</ele>
        <time>2022-07-26T08:09:38Z</time>
      </trkpt>
      <trkpt lat="45.6654" lon="6.68808">
        <ele>2296</ele>
        <time>2022-07-26T08:09:39Z</time>
      </trkpt>
      <trkpt lat="45.66539" lon="6.68808">
        <ele>2296</ele>
        <time>2022-07-26T08:09:40Z</time>
      </trkpt>
      <trkpt lat="45.66539" lon="6.68808">
        <ele>2296</ele>
        <time>2022-07-26T08:09:41Z</time>
      </trkpt>
      <trkpt lat="45.66538" lon="6.68807">
        <ele>2297</ele>
        <time>2022-07-26T08:09:42Z</time>
      </trkpt>
      <trkpt lat="45.66537" lon="6.68807">
        <ele>2297</ele>
        <time>2022-07-26T08:09:43Z</time>
      </trkpt>
      <trkpt lat="45.66536" lon="6.68807">
        <ele>2297</ele>
        <time>2022-07-26T08:09:44Z</time>
      </trkpt>
      <trkpt lat="45.66535" lon="6.68806">
        <ele>2297</ele>
        <time>2022-07-26T08:09:45Z</time>
      </trkpt>
      <trkpt lat="45.66534" lon="6.68806">
        <ele>2297</ele>
        <time>2022-07-26T08:09:46Z</time>
      </trkpt>
      <trkpt lat="45.66533" lon="6.68805">
        <ele>2298</ele>
        <time>2022-07-26T08:09:47Z</time>
      </trkpt>
      <trkpt lat="45.66533" lon="6.68805">
        <ele>2298</ele>
        <time>2022-07-26T08:09:48Z</time>
      </trkpt>
      <trkpt lat="45.66532" lon="6.68805">
        <ele>2298</ele>
        <time>2022-07-26T08:09:49Z</time>
      </trkpt>
      <trkpt lat="45.66531" lon="6.68804">
        <ele>2298</ele>
        <time>2022-07-26T08:09:50Z</time>
      </trkpt>
      <trkpt lat="45.6653" lon="6.68804">
        <ele>2298</ele>
        <time>2022-07-26T08:09:51Z</time>
      </trkpt>
      <trkpt lat="45.66529" lon="6.68804">
        <ele>2299</ele>
        <time>2022-07-26T08:09:52Z</time>
      </trkpt>
      <trkpt lat="45.66528" lon="6.68804">
        <ele>2299</ele>
        <time>2022-07-26T08:09:53Z</time>
      </trkpt>
      <trkpt lat="45.66527" lon="6.68803">
        <ele>2299</ele>
        <time>2022-07-26T08:09:54Z</time>
      </trkpt>
      <trkpt lat="45.66527" lon="6.68803">
        <ele>2299</ele>
        <time>2022-07-26T08:09:55Z</time>
      </trkpt>
      <trkpt lat="45.66526" lon="6.68802">
        <ele>2299</ele>
        <time>2022-07-26T08:09:56Z</time>
      </trkpt>
      <trkpt lat="45.66525" lon="6.68802">
        <ele>2300</ele>
        <time>2022-07-26T08:09:57Z</time>
      </trkpt>
      <trkpt lat="45.66524" lon="6.68801">
        <ele>2300</ele>
        <time>2022-07-26T08:09:58Z</time>
      </trkpt>
      <trkpt lat="45.66523" lon="6.688">
        <ele>2300</ele>
        <time>2022-07-26T08:09:59Z</time>
      </trkpt>
      <trkpt lat="45.66522" lon="6.68799">
        <ele>2300</ele>
        <time>2022-07-26T08:10:00Z</time>
      </trkpt>
      <trkpt lat="45.66521" lon="6.68798">
        <ele>2300</ele>
        <time>2022-07-26T08:10:01Z</time>
      </trkpt>
      <trkpt lat="45.66521" lon="6.68797">
        <ele>2301</ele>
        <time>2022-07-26T08:10:02Z</time>
      </trkpt>
      <trkpt lat="45.6652" lon="6.68796">
        <ele>2301</ele>
        <time>2022-07-26T08:10:03Z</time>
      </trkpt>
      <trkpt lat="45.66519" lon="6.68795">
        <ele>2301</ele>
        <time>2022-07-26T08:10:04Z</time>
      </trkpt>
      <trkpt lat="45.66518" lon="6.68794">
        <ele>2301</ele>
        <time>2022-07-26T08:10:05Z</time>
      </trkpt>
      <trkpt lat="45.66517" lon="6.68793">
        <ele>2301</ele>
        <time>2022-07-26T08:10:06Z</time>
      </trkpt>
      <trkpt lat="45.66516" lon="6.68793">
        <ele>2302</ele>
        <time>2022-07-26T08:10:07Z</time>
      </trkpt>
      <trkpt lat="45.66514" lon="6.68792">
        <ele>2302</ele>
        <time>2022-07-26T08:10:08Z</time>
      </trkpt>
      <trkpt lat="45.66513" lon="6.68791">
        <ele>2302</ele>
        <time>2022-07-26T08:10:09Z</time>
      </trkpt>
      <trkpt lat="45.66512" lon="6.68791">
        <ele>2302</ele>
        <time>2022-07-26T08:10:10Z</time>
      </trkpt>
      <trkpt lat="45.66511" lon="6.68791">
        <ele>2302</ele>
        <time>2022-07-26T08:10:11Z</time>
      </trkpt>
      <trkpt lat="45.66509" lon="6.6879">
        <ele>2302</ele>
        <time>2022-07-26T08:10:12Z</time>
      </trkpt>
      <trkpt lat="45.66508" lon="6.6879">
        <ele>2302</ele>
        <time>2022-07-26T08:10:13Z</time>
      </trkpt>
      <trkpt lat="45.66507" lon="6.68789">
        <ele>2302</ele>
        <time>2022-07-26T08:10:14Z</time>
      </trkpt>
      <trkpt lat="45.66506" lon="6.68789">
        <ele>2302</ele>
        <time>2022-07-26T08:10:15Z</time>
      </trkpt>
      <trkpt lat="45.66505" lon="6.68788">
        <ele>2302</ele>
        <time>2022-07-26T08:10:16Z</time>
      </trkpt>
      <trkpt lat="45.66504" lon="6.68787">
        <ele>2302</ele>
        <time>2022-07-26T08:10:17Z</time>
      </trkpt>
      <trkpt lat="45.66503" lon="6.68786">
        <ele>2302</ele>
        <time>2022-07-26T08:10:18Z</time>
      </trkpt>
      <trkpt lat="45.66502" lon="6.68785">
        <ele>2302</ele>
        <time>2022-07-26T08:10:19Z</time>
      </trkpt>
      <trkpt lat="45.66501" lon="6.68785">
        <ele>2302</ele>
        <time>2022-07-26T08:10:20Z</time>
      </trkpt>
      <trkpt lat="45.665" lon="6.68784">
        <ele>2302</ele>
        <time>2022-07-26T08:10:21Z</time>
      </trkpt>
      <trkpt lat="45.66499" lon="6.68783">
        <ele>2302</ele>
        <time>2022-07-26T08:10:22Z</time>
      </trkpt>
      <trkpt lat="45.66498" lon="6.68782">
        <ele>2302</ele>
        <time>2022-07-26T08:10:23Z</time>
      </trkpt>
      <trkpt lat="45.66497" lon="6.68781">
        <ele>2302</ele>
        <time>2022-07-26T08:10:24Z</time>
      </trkpt>
      <trkpt lat="45.66496" lon="6.6878">
        <ele>2302</ele>
        <time>2022-07-26T08:10:25Z</time>
      </trkpt>
      <trkpt lat="45.66495" lon="6.68779">
        <ele>2302</ele>
        <time>2022-07-26T08:10:26Z</time>
      </trkpt>
      <trkpt lat="45.66494" lon="6.68778">
        <ele>2302</ele>
        <time>2022-07-26T08:10:27Z</time>
      </trkpt>
      <trkpt lat="45.66494" lon="6.68777">
        <ele>2302</ele>
        <time>2022-07-26T08:10:28Z</time>
      </trkpt>
      <trkpt lat="45.66493" lon="6.68775">
        <ele>2302</ele>
        <time>2022-07-26T08:10:29Z</time>
      </trkpt>
      <trkpt lat="45.66493" lon="6.68774">
        <ele>2302</ele>
        <time>2022-07-26T08:10:30Z</time>
      </trkpt>
      <trkpt lat="45.66492" lon="6.68773">
        <ele>2302</ele>
        <time>2022-07-26T08:10:31Z</time>
      </trkpt>
      <trkpt lat="45.66492" lon="6.68771">
        <ele>2302</ele>
        <time>2022-07-26T08:10:32Z</time>
      </trkpt>
      <trkpt lat="45.66492" lon="6.68769">
        <ele>2302</ele>
        <time>2022-07-26T08:10:33Z</time>
      </trkpt>
      <trkpt lat="45.66492" lon="6.68768">
        <ele>2302</ele>
        <time>2022-07-26T08:10:34Z</time>
      </trkpt>
      <trkpt lat="45.66491" lon="6.68766">
        <ele>2302</ele>
        <time>2022-07-26T08:10:35Z</time>
      </trkpt>
      <trkpt lat="45.66491" lon="6.68765">
        <ele>2302</ele>
        <time>2022-07-26T08:10:36Z</time>
      </trkpt>
      <trkpt lat="45.66491" lon="6.68764">
        <ele>2303</ele>
        <time>2022-07-26T08:10:37Z</time>
      </trkpt>
      <trkpt lat="45.66491" lon="6.68762">
        <ele>2303</ele>
        <time>2022-07-26T08:10:38Z</time>
      </trkpt>
      <trkpt lat="45.66491" lon="6.68761">
        <ele>2303</ele>
        <time>2022-07-26T08:10:39Z</time>
      </trkpt>
      <trkpt lat="45.66491" lon="6.6876">
        <ele>2303</ele>
        <time>2022-07-26T08:10:40Z</time>
      </trkpt>
      <trkpt lat="45.66491" lon="6.68758">
        <ele>2303</ele>
        <time>2022-07-26T08:10:41Z</time>
      </trkpt>
      <trkpt lat="45.6649" lon="6.68757">
        <ele>2304</ele>
        <time>2022-07-26T08:10:42Z</time>
      </trkpt>
      <trkpt lat="45.6649" lon="6.68755">
        <ele>2304</ele>
        <time>2022-07-26T08:10:43Z</time>
      </trkpt>
      <trkpt lat="45.6649" lon="6.68754">
        <ele>2304</ele>
        <time>2022-07-26T08:10:44Z</time>
      </trkpt>
      <trkpt lat="45.66489" lon="6.68752">
        <ele>2304</ele>
        <time>2022-07-26T08:10:45Z</time>
      </trkpt>
      <trkpt lat="45.66488" lon="6.68751">
        <ele>2304</ele>
        <time>2022-07-26T08:10:46Z</time>
      </trkpt>
      <trkpt lat="45.66488" lon="6.6875">
        <ele>2304</ele>
        <time>2022-07-26T08:10:47Z</time>
      </trkpt>
      <trkpt lat="45.66487" lon="6.68749">
        <ele>2304</ele>
        <time>2022-07-26T08:10:48Z</time>
      </trkpt>
      <trkpt lat="45.66486" lon="6.68749">
        <ele>2304</ele>
        <time>2022-07-26T08:10:49Z</time>
      </trkpt>
      <trkpt lat="45.66485" lon="6.68748">
        <ele>2304</ele>
        <time>2022-07-26T08:10:50Z</time>
      </trkpt>
      <trkpt lat="45.66483" lon="6.68748">
        <ele>2304</ele>
        <time>2022-07-26T08:10:51Z</time>
      </trkpt>
      <trkpt lat="45.66482" lon="6.68748">
        <ele>2304</ele>
        <time>2022-07-26T08:10:52Z</time>
      </trkpt>
      <trkpt lat="45.66481" lon="6.68747">
        <ele>2304</ele>
        <time>2022-07-26T08:10:53Z</time>
      </trkpt>
      <trkpt lat="45.66481" lon="6.68747">
        <ele>2304</ele>
        <time>2022-07-26T08:10:54Z</time>
      </trkpt>
      <trkpt lat="45.6648" lon="6.68746">
        <ele>2304</ele>
        <time>2022-07-26T08:10:55Z</time>
      </trkpt>
      <trkpt lat="45.66479" lon="6.68745">
        <ele>2304</ele>
        <time>2022-07-26T08:10:56Z</time>
      </trkpt>
      <trkpt lat="45.66478" lon="6.68744">
        <ele>2304</ele>
        <time>2022-07-26T08:10:57Z</time>
      </trkpt>
      <trkpt lat="45.66478" lon="6.68743">
        <ele>2304</ele>
        <time>2022-07-26T08:10:58Z</time>
      </trkpt>
      <trkpt lat="45.66478" lon="6.68742">
        <ele>2304</ele>
        <time>2022-07-26T08:10:59Z</time>
      </trkpt>
      <trkpt lat="45.66478" lon="6.68742">
        <ele>2304</ele>
        <time>2022-07-26T08:11:00Z</time>
      </trkpt>
      <trkpt lat="45.66477" lon="6.68741">
        <ele>2304</ele>
        <time>2022-07-26T08:11:01Z</time>
      </trkpt>
      <trkpt lat="45.66477" lon="6.6874">
        <ele>2305</ele>
        <time>2022-07-26T08:11:02Z</time>
      </trkpt>
      <trkpt lat="45.66477" lon="6.68739">
        <ele>2305</ele>
        <time>2022-07-26T08:11:03Z</time>
      </trkpt>
      <trkpt lat="45.66476" lon="6.68738">
        <ele>2305</ele>
        <time>2022-07-26T08:11:04Z</time>
      </trkpt>
      <trkpt lat="45.66475" lon="6.68737">
        <ele>2305</ele>
        <time>2022-07-26T08:11:05Z</time>
      </trkpt>
      <trkpt lat="45.66475" lon="6.68736">
        <ele>2305</ele>
        <time>2022-07-26T08:11:06Z</time>
      </trkpt>
      <trkpt lat="45.66474" lon="6.68735">
        <ele>2306</ele>
        <time>2022-07-26T08:11:07Z</time>
      </trkpt>
      <trkpt lat="45.66473" lon="6.68734">
        <ele>2306</ele>
        <time>2022-07-26T08:11:08Z</time>
      </trkpt>
      <trkpt lat="45.66472" lon="6.68734">
        <ele>2306</ele>
        <time>2022-07-26T08:11:09Z</time>
      </trkpt>
      <trkpt lat="45.66471" lon="6.68733">
        <ele>2306</ele>
        <time>2022-07-26T08:11:10Z</time>
      </trkpt>
      <trkpt lat="45.6647" lon="6.68732">
        <ele>2306</ele>
        <time>2022-07-26T08:11:11Z</time>
      </trkpt>
      <trkpt lat="45.6647" lon="6.68731">
        <ele>2306</ele>
        <time>2022-07-26T08:11:12Z</time>
      </trkpt>
      <trkpt lat="45.66469" lon="6.6873">
        <ele>2306</ele>
        <time>2022-07-26T08:11:13Z</time>
      </trkpt>
      <trkpt lat="45.66468" lon="6.68729">
        <ele>2306</ele>
        <time>2022-07-26T08:11:14Z</time>
      </trkpt>
      <trkpt lat="45.66467" lon="6.68728">
        <ele>2306</ele>
        <time>2022-07-26T08:11:15Z</time>
      </trkpt>
      <trkpt lat="45.66467" lon="6.68727">
        <ele>2306</ele>
        <time>2022-07-26T08:11:16Z</time>
      </trkpt>
      <trkpt lat="45.66466" lon="6.68727">
        <ele>2307</ele>
        <time>2022-07-26T08:11:17Z</time>
      </trkpt>
      <trkpt lat="45.66465" lon="6.68726">
        <ele>2307</ele>
        <time>2022-07-26T08:11:18Z</time>
      </trkpt>
      <trkpt lat="45.66464" lon="6.68725">
        <ele>2307</ele>
        <time>2022-07-26T08:11:19Z</time>
      </trkpt>
      <trkpt lat="45.66464" lon="6.68725">
        <ele>2307</ele>
        <time>2022-07-26T08:11:20Z</time>
      </trkpt>
      <trkpt lat="45.66463" lon="6.68724">
        <ele>2307</ele>
        <time>2022-07-26T08:11:21Z</time>
      </trkpt>
      <trkpt lat="45.66462" lon="6.68723">
        <ele>2308</ele>
        <time>2022-07-26T08:11:22Z</time>
      </trkpt>
      <trkpt lat="45.66462" lon="6.68722">
        <ele>2308</ele>
        <time>2022-07-26T08:11:23Z</time>
      </trkpt>
      <trkpt lat="45.66461" lon="6.68721">
        <ele>2308</ele>
        <time>2022-07-26T08:11:24Z</time>
      </trkpt>
      <trkpt lat="45.66461" lon="6.6872">
        <ele>2308</ele>
        <time>2022-07-26T08:11:25Z</time>
      </trkpt>
      <trkpt lat="45.6646" lon="6.68719">
        <ele>2308</ele>
        <time>2022-07-26T08:11:26Z</time>
      </trkpt>
      <trkpt lat="45.66459" lon="6.68719">
        <ele>2308</ele>
        <time>2022-07-26T08:11:27Z</time>
      </trkpt>
      <trkpt lat="45.66459" lon="6.68718">
        <ele>2308</ele>
        <time>2022-07-26T08:11:28Z</time>
      </trkpt>
      <trkpt lat="45.66458" lon="6.68717">
        <ele>2308</ele>
        <time>2022-07-26T08:11:29Z</time>
      </trkpt>
      <trkpt lat="45.66458" lon="6.68716">
        <ele>2308</ele>
        <time>2022-07-26T08:11:30Z</time>
      </trkpt>
      <trkpt lat="45.66457" lon="6.68715">
        <ele>2308</ele>
        <time>2022-07-26T08:11:31Z</time>
      </trkpt>
      <trkpt lat="45.66456" lon="6.68714">
        <ele>2309</ele>
        <time>2022-07-26T08:11:32Z</time>
      </trkpt>
      <trkpt lat="45.66456" lon="6.68712">
        <ele>2309</ele>
        <time>2022-07-26T08:11:33Z</time>
      </trkpt>
      <trkpt lat="45.66455" lon="6.68711">
        <ele>2309</ele>
        <time>2022-07-26T08:11:34Z</time>
      </trkpt>
      <trkpt lat="45.66455" lon="6.6871">
        <ele>2309</ele>
        <time>2022-07-26T08:11:35Z</time>
      </trkpt>
      <trkpt lat="45.66455" lon="6.68708">
        <ele>2309</ele>
        <time>2022-07-26T08:11:36Z</time>
      </trkpt>
      <trkpt lat="45.66454" lon="6.68707">
        <ele>2310</ele>
        <time>2022-07-26T08:11:37Z</time>
      </trkpt>
      <trkpt lat="45.66454" lon="6.68705">
        <ele>2310</ele>
        <time>2022-07-26T08:11:38Z</time>
      </trkpt>
      <trkpt lat="45.66454" lon="6.68704">
        <ele>2310</ele>
        <time>2022-07-26T08:11:39Z</time>
      </trkpt>
      <trkpt lat="45.66453" lon="6.68702">
        <ele>2310</ele>
        <time>2022-07-26T08:11:40Z</time>
      </trkpt>
      <trkpt lat="45.66453" lon="6.68701">
        <ele>2310</ele>
        <time>2022-07-26T08:11:41Z</time>
      </trkpt>
      <trkpt lat="45.66452" lon="6.68699">
        <ele>2310</ele>
        <time>2022-07-26T08:11:42Z</time>
      </trkpt>
      <trkpt lat="45.66452" lon="6.68698">
        <ele>2310</ele>
        <time>2022-07-26T08:11:43Z</time>
      </trkpt>
      <trkpt lat="45.66451" lon="6.68697">
        <ele>2310</ele>
        <time>2022-07-26T08:11:44Z</time>
      </trkpt>
      <trkpt lat="45.66451" lon="6.68695">
        <ele>2310</ele>
        <time>2022-07-26T08:11:45Z</time>
      </trkpt>
      <trkpt lat="45.6645" lon="6.68694">
        <ele>2310</ele>
        <time>2022-07-26T08:11:46Z</time>
      </trkpt>
      <trkpt lat="45.6645" lon="6.68693">
        <ele>2310</ele>
        <time>2022-07-26T08:11:47Z</time>
      </trkpt>
      <trkpt lat="45.66449" lon="6.68691">
        <ele>2310</ele>
        <time>2022-07-26T08:11:48Z</time>
      </trkpt>
      <trkpt lat="45.66448" lon="6.6869">
        <ele>2310</ele>
        <time>2022-07-26T08:11:49Z</time>
      </trkpt>
      <trkpt lat="45.66448" lon="6.68689">
        <ele>2310</ele>
        <time>2022-07-26T08:11:50Z</time>
      </trkpt>
      <trkpt lat="45.66448" lon="6.68687">
        <ele>2310</ele>
        <time>2022-07-26T08:11:51Z</time>
      </trkpt>
      <trkpt lat="45.66447" lon="6.68686">
        <ele>2311</ele>
        <time>2022-07-26T08:11:52Z</time>
      </trkpt>
      <trkpt lat="45.66448" lon="6.68684">
        <ele>2311</ele>
        <time>2022-07-26T08:11:53Z</time>
      </trkpt>
      <trkpt lat="45.66448" lon="6.68683">
        <ele>2311</ele>
        <time>2022-07-26T08:11:54Z</time>
      </trkpt>
      <trkpt lat="45.66448" lon="6.68681">
        <ele>2311</ele>
        <time>2022-07-26T08:11:55Z</time>
      </trkpt>
      <trkpt lat="45.66448" lon="6.68679">
        <ele>2311</ele>
        <time>2022-07-26T08:11:56Z</time>
      </trkpt>
      <trkpt lat="45.66447" lon="6.68678">
        <ele>2311</ele>
        <time>2022-07-26T08:11:57Z</time>
      </trkpt>
      <trkpt lat="45.66447" lon="6.68676">
        <ele>2311</ele>
        <time>2022-07-26T08:11:58Z</time>
      </trkpt>
      <trkpt lat="45.66447" lon="6.68674">
        <ele>2311</ele>
        <time>2022-07-26T08:11:59Z</time>
      </trkpt>
      <trkpt lat="45.66446" lon="6.68673">
        <ele>2311</ele>
        <time>2022-07-26T08:12:00Z</time>
      </trkpt>
      <trkpt lat="45.66446" lon="6.68672">
        <ele>2311</ele>
        <time>2022-07-26T08:12:01Z</time>
      </trkpt>
      <trkpt lat="45.66445" lon="6.6867">
        <ele>2311</ele>
        <time>2022-07-26T08:12:02Z</time>
      </trkpt>
      <trkpt lat="45.66445" lon="6.68669">
        <ele>2311</ele>
        <time>2022-07-26T08:12:03Z</time>
      </trkpt>
      <trkpt lat="45.66444" lon="6.68668">
        <ele>2311</ele>
        <time>2022-07-26T08:12:04Z</time>
      </trkpt>
      <trkpt lat="45.66444" lon="6.68667">
        <ele>2312</ele>
        <time>2022-07-26T08:12:05Z</time>
      </trkpt>
      <trkpt lat="45.66443" lon="6.68666">
        <ele>2312</ele>
        <time>2022-07-26T08:12:06Z</time>
      </trkpt>
      <trkpt lat="45.66443" lon="6.68665">
        <ele>2313</ele>
        <time>2022-07-26T08:12:07Z</time>
      </trkpt>
      <trkpt lat="45.66442" lon="6.68664">
        <ele>2313</ele>
        <time>2022-07-26T08:12:08Z</time>
      </trkpt>
      <trkpt lat="45.66441" lon="6.68663">
        <ele>2313</ele>
        <time>2022-07-26T08:12:09Z</time>
      </trkpt>
      <trkpt lat="45.66441" lon="6.68662">
        <ele>2313</ele>
        <time>2022-07-26T08:12:10Z</time>
      </trkpt>
      <trkpt lat="45.66441" lon="6.68661">
        <ele>2314</ele>
        <time>2022-07-26T08:12:19Z</time>
      </trkpt>
      <trkpt lat="45.66441" lon="6.68661">
        <ele>2314</ele>
        <time>2022-07-26T08:12:20Z</time>
      </trkpt>
      <trkpt lat="45.6644" lon="6.6866">
        <ele>2314</ele>
        <time>2022-07-26T08:12:21Z</time>
      </trkpt>
      <trkpt lat="45.6644" lon="6.68659">
        <ele>2315</ele>
        <time>2022-07-26T08:12:31Z</time>
      </trkpt>
      <trkpt lat="45.66439" lon="6.68658">
        <ele>2315</ele>
        <time>2022-07-26T08:12:32Z</time>
      </trkpt>
      <trkpt lat="45.66439" lon="6.68657">
        <ele>2315</ele>
        <time>2022-07-26T08:12:33Z</time>
      </trkpt>
      <trkpt lat="45.66438" lon="6.68656">
        <ele>2315</ele>
        <time>2022-07-26T08:12:34Z</time>
      </trkpt>
      <trkpt lat="45.66438" lon="6.68656">
        <ele>2315</ele>
        <time>2022-07-26T08:12:35Z</time>
      </trkpt>
      <trkpt lat="45.66438" lon="6.68655">
        <ele>2315</ele>
        <time>2022-07-26T08:12:36Z</time>
      </trkpt>
      <trkpt lat="45.66438" lon="6.68654">
        <ele>2315</ele>
        <time>2022-07-26T08:12:37Z</time>
      </trkpt>
      <trkpt lat="45.66437" lon="6.68652">
        <ele>2315</ele>
        <time>2022-07-26T08:12:38Z</time>
      </trkpt>
      <trkpt lat="45.66437" lon="6.68651">
        <ele>2315</ele>
        <time>2022-07-26T08:12:39Z</time>
      </trkpt>
      <trkpt lat="45.66437" lon="6.6865">
        <ele>2315</ele>
        <time>2022-07-26T08:12:40Z</time>
      </trkpt>
      <trkpt lat="45.66436" lon="6.68649">
        <ele>2315</ele>
        <time>2022-07-26T08:12:41Z</time>
      </trkpt>
      <trkpt lat="45.66436" lon="6.68648">
        <ele>2315</ele>
        <time>2022-07-26T08:12:42Z</time>
      </trkpt>
      <trkpt lat="45.66435" lon="6.68646">
        <ele>2315</ele>
        <time>2022-07-26T08:12:43Z</time>
      </trkpt>
      <trkpt lat="45.66435" lon="6.68645">
        <ele>2315</ele>
        <time>2022-07-26T08:12:44Z</time>
      </trkpt>
      <trkpt lat="45.66434" lon="6.68644">
        <ele>2315</ele>
        <time>2022-07-26T08:12:45Z</time>
      </trkpt>
      <trkpt lat="45.66434" lon="6.68643">
        <ele>2315</ele>
        <time>2022-07-26T08:12:46Z</time>
      </trkpt>
      <trkpt lat="45.66433" lon="6.68642">
        <ele>2315</ele>
        <time>2022-07-26T08:12:47Z</time>
      </trkpt>
      <trkpt lat="45.66433" lon="6.68641">
        <ele>2315</ele>
        <time>2022-07-26T08:12:48Z</time>
      </trkpt>
      <trkpt lat="45.66432" lon="6.6864">
        <ele>2315</ele>
        <time>2022-07-26T08:12:49Z</time>
      </trkpt>
      <trkpt lat="45.66432" lon="6.68639">
        <ele>2315</ele>
        <time>2022-07-26T08:12:50Z</time>
      </trkpt>
      <trkpt lat="45.66431" lon="6.68639">
        <ele>2315</ele>
        <time>2022-07-26T08:12:51Z</time>
      </trkpt>
      <trkpt lat="45.66431" lon="6.68638">
        <ele>2315</ele>
        <time>2022-07-26T08:12:52Z</time>
      </trkpt>
      <trkpt lat="45.6643" lon="6.68637">
        <ele>2315</ele>
        <time>2022-07-26T08:12:53Z</time>
      </trkpt>
      <trkpt lat="45.6643" lon="6.68636">
        <ele>2315</ele>
        <time>2022-07-26T08:12:54Z</time>
      </trkpt>
      <trkpt lat="45.66429" lon="6.68635">
        <ele>2315</ele>
        <time>2022-07-26T08:12:55Z</time>
      </trkpt>
      <trkpt lat="45.66429" lon="6.68634">
        <ele>2315</ele>
        <time>2022-07-26T08:12:56Z</time>
      </trkpt>
      <trkpt lat="45.66429" lon="6.68633">
        <ele>2316</ele>
        <time>2022-07-26T08:12:57Z</time>
      </trkpt>
      <trkpt lat="45.66429" lon="6.68632">
        <ele>2316</ele>
        <time>2022-07-26T08:12:58Z</time>
      </trkpt>
      <trkpt lat="45.66428" lon="6.68631">
        <ele>2316</ele>
        <time>2022-07-26T08:12:59Z</time>
      </trkpt>
      <trkpt lat="45.66428" lon="6.6863">
        <ele>2316</ele>
        <time>2022-07-26T08:13:00Z</time>
      </trkpt>
      <trkpt lat="45.66427" lon="6.68629">
        <ele>2316</ele>
        <time>2022-07-26T08:13:01Z</time>
      </trkpt>
      <trkpt lat="45.66427" lon="6.68628">
        <ele>2316</ele>
        <time>2022-07-26T08:13:02Z</time>
      </trkpt>
      <trkpt lat="45.66426" lon="6.68627">
        <ele>2316</ele>
        <time>2022-07-26T08:13:03Z</time>
      </trkpt>
      <trkpt lat="45.66426" lon="6.68626">
        <ele>2316</ele>
        <time>2022-07-26T08:13:04Z</time>
      </trkpt>
      <trkpt lat="45.66426" lon="6.68625">
        <ele>2316</ele>
        <time>2022-07-26T08:13:05Z</time>
      </trkpt>
      <trkpt lat="45.66425" lon="6.68624">
        <ele>2316</ele>
        <time>2022-07-26T08:13:06Z</time>
      </trkpt>
      <trkpt lat="45.66424" lon="6.68622">
        <ele>2317</ele>
        <time>2022-07-26T08:13:20Z</time>
      </trkpt>
      <trkpt lat="45.66424" lon="6.68622">
        <ele>2317</ele>
        <time>2022-07-26T08:13:21Z</time>
      </trkpt>
      <trkpt lat="45.66423" lon="6.68621">
        <ele>2318</ele>
        <time>2022-07-26T08:13:22Z</time>
      </trkpt>
      <trkpt lat="45.66423" lon="6.68621">
        <ele>2318</ele>
        <time>2022-07-26T08:13:23Z</time>
      </trkpt>
      <trkpt lat="45.66423" lon="6.6862">
        <ele>2318</ele>
        <time>2022-07-26T08:13:24Z</time>
      </trkpt>
      <trkpt lat="45.66423" lon="6.68619">
        <ele>2318</ele>
        <time>2022-07-26T08:13:25Z</time>
      </trkpt>
      <trkpt lat="45.66422" lon="6.68618">
        <ele>2318</ele>
        <time>2022-07-26T08:13:26Z</time>
      </trkpt>
      <trkpt lat="45.66422" lon="6.68617">
        <ele>2318</ele>
        <time>2022-07-26T08:13:27Z</time>
      </trkpt>
      <trkpt lat="45.66422" lon="6.68616">
        <ele>2318</ele>
        <time>2022-07-26T08:13:28Z</time>
      </trkpt>
      <trkpt lat="45.66421" lon="6.68615">
        <ele>2318</ele>
        <time>2022-07-26T08:13:29Z</time>
      </trkpt>
      <trkpt lat="45.66421" lon="6.68614">
        <ele>2318</ele>
        <time>2022-07-26T08:13:30Z</time>
      </trkpt>
      <trkpt lat="45.6642" lon="6.68613">
        <ele>2318</ele>
        <time>2022-07-26T08:13:31Z</time>
      </trkpt>
      <trkpt lat="45.6642" lon="6.68612">
        <ele>2318</ele>
        <time>2022-07-26T08:13:32Z</time>
      </trkpt>
      <trkpt lat="45.66419" lon="6.68612">
        <ele>2318</ele>
        <time>2022-07-26T08:13:33Z</time>
      </trkpt>
      <trkpt lat="45.66419" lon="6.68611">
        <ele>2318</ele>
        <time>2022-07-26T08:13:34Z</time>
      </trkpt>
      <trkpt lat="45.66418" lon="6.6861">
        <ele>2318</ele>
        <time>2022-07-26T08:13:35Z</time>
      </trkpt>
      <trkpt lat="45.66417" lon="6.68608">
        <ele>2318</ele>
        <time>2022-07-26T08:13:36Z</time>
      </trkpt>
      <trkpt lat="45.66417" lon="6.68607">
        <ele>2318</ele>
        <time>2022-07-26T08:13:37Z</time>
      </trkpt>
      <trkpt lat="45.66416" lon="6.68606">
        <ele>2318</ele>
        <time>2022-07-26T08:13:38Z</time>
      </trkpt>
      <trkpt lat="45.66416" lon="6.68606">
        <ele>2318</ele>
        <time>2022-07-26T08:13:39Z</time>
      </trkpt>
      <trkpt lat="45.66415" lon="6.68605">
        <ele>2318</ele>
        <time>2022-07-26T08:13:40Z</time>
      </trkpt>
      <trkpt lat="45.66415" lon="6.68604">
        <ele>2318</ele>
        <time>2022-07-26T08:13:41Z</time>
      </trkpt>
      <trkpt lat="45.66414" lon="6.68603">
        <ele>2319</ele>
        <time>2022-07-26T08:13:42Z</time>
      </trkpt>
      <trkpt lat="45.66414" lon="6.68602">
        <ele>2319</ele>
        <time>2022-07-26T08:13:43Z</time>
      </trkpt>
      <trkpt lat="45.66413" lon="6.68601">
        <ele>2319</ele>
        <time>2022-07-26T08:13:44Z</time>
      </trkpt>
      <trkpt lat="45.66413" lon="6.686">
        <ele>2319</ele>
        <time>2022-07-26T08:13:45Z</time>
      </trkpt>
      <trkpt lat="45.66412" lon="6.68599">
        <ele>2319</ele>
        <time>2022-07-26T08:13:46Z</time>
      </trkpt>
      <trkpt lat="45.66412" lon="6.68598">
        <ele>2319</ele>
        <time>2022-07-26T08:13:47Z</time>
      </trkpt>
      <trkpt lat="45.66411" lon="6.68597">
        <ele>2319</ele>
        <time>2022-07-26T08:13:48Z</time>
      </trkpt>
      <trkpt lat="45.6641" lon="6.68596">
        <ele>2319</ele>
        <time>2022-07-26T08:13:49Z</time>
      </trkpt>
      <trkpt lat="45.6641" lon="6.68595">
        <ele>2319</ele>
        <time>2022-07-26T08:13:50Z</time>
      </trkpt>
      <trkpt lat="45.66409" lon="6.68594">
        <ele>2319</ele>
        <time>2022-07-26T08:13:51Z</time>
      </trkpt>
      <trkpt lat="45.66409" lon="6.68593">
        <ele>2319</ele>
        <time>2022-07-26T08:13:52Z</time>
      </trkpt>
      <trkpt lat="45.66408" lon="6.68592">
        <ele>2319</ele>
        <time>2022-07-26T08:13:53Z</time>
      </trkpt>
      <trkpt lat="45.66407" lon="6.68591">
        <ele>2319</ele>
        <time>2022-07-26T08:13:54Z</time>
      </trkpt>
      <trkpt lat="45.66407" lon="6.6859">
        <ele>2319</ele>
        <time>2022-07-26T08:13:55Z</time>
      </trkpt>
      <trkpt lat="45.66406" lon="6.68589">
        <ele>2319</ele>
        <time>2022-07-26T08:13:56Z</time>
      </trkpt>
      <trkpt lat="45.66405" lon="6.68588">
        <ele>2320</ele>
        <time>2022-07-26T08:13:57Z</time>
      </trkpt>
      <trkpt lat="45.66404" lon="6.68588">
        <ele>2320</ele>
        <time>2022-07-26T08:13:58Z</time>
      </trkpt>
      <trkpt lat="45.66404" lon="6.68587">
        <ele>2320</ele>
        <time>2022-07-26T08:13:59Z</time>
      </trkpt>
      <trkpt lat="45.66403" lon="6.68586">
        <ele>2320</ele>
        <time>2022-07-26T08:14:00Z</time>
      </trkpt>
      <trkpt lat="45.66402" lon="6.68585">
        <ele>2320</ele>
        <time>2022-07-26T08:14:01Z</time>
      </trkpt>
      <trkpt lat="45.66402" lon="6.68584">
        <ele>2320</ele>
        <time>2022-07-26T08:14:02Z</time>
      </trkpt>
      <trkpt lat="45.66401" lon="6.68583">
        <ele>2320</ele>
        <time>2022-07-26T08:14:03Z</time>
      </trkpt>
      <trkpt lat="45.664" lon="6.68582">
        <ele>2320</ele>
        <time>2022-07-26T08:14:04Z</time>
      </trkpt>
      <trkpt lat="45.664" lon="6.68582">
        <ele>2320</ele>
        <time>2022-07-26T08:14:05Z</time>
      </trkpt>
      <trkpt lat="45.66399" lon="6.68581">
        <ele>2320</ele>
        <time>2022-07-26T08:14:06Z</time>
      </trkpt>
      <trkpt lat="45.66399" lon="6.6858">
        <ele>2320</ele>
        <time>2022-07-26T08:14:07Z</time>
      </trkpt>
      <trkpt lat="45.66398" lon="6.68579">
        <ele>2320</ele>
        <time>2022-07-26T08:14:08Z</time>
      </trkpt>
      <trkpt lat="45.66398" lon="6.68578">
        <ele>2320</ele>
        <time>2022-07-26T08:14:09Z</time>
      </trkpt>
      <trkpt lat="45.66398" lon="6.68577">
        <ele>2320</ele>
        <time>2022-07-26T08:14:10Z</time>
      </trkpt>
      <trkpt lat="45.66397" lon="6.68576">
        <ele>2320</ele>
        <time>2022-07-26T08:14:11Z</time>
      </trkpt>
      <trkpt lat="45.66397" lon="6.68575">
        <ele>2320</ele>
        <time>2022-07-26T08:14:12Z</time>
      </trkpt>
      <trkpt lat="45.66396" lon="6.68574">
        <ele>2320</ele>
        <time>2022-07-26T08:14:13Z</time>
      </trkpt>
      <trkpt lat="45.66396" lon="6.68573">
        <ele>2320</ele>
        <time>2022-07-26T08:14:14Z</time>
      </trkpt>
      <trkpt lat="45.66396" lon="6.68572">
        <ele>2320</ele>
        <time>2022-07-26T08:14:15Z</time>
      </trkpt>
      <trkpt lat="45.66395" lon="6.68572">
        <ele>2320</ele>
        <time>2022-07-26T08:14:16Z</time>
      </trkpt>
      <trkpt lat="45.66395" lon="6.68572">
        <ele>2321</ele>
        <time>2022-07-26T08:14:17Z</time>
      </trkpt>
      <trkpt lat="45.66395" lon="6.68572">
        <ele>2321</ele>
        <time>2022-07-26T08:14:18Z</time>
      </trkpt>
      <trkpt lat="45.66395" lon="6.68571">
        <ele>2321</ele>
        <time>2022-07-26T08:14:19Z</time>
      </trkpt>
      <trkpt lat="45.66394" lon="6.68571">
        <ele>2321</ele>
        <time>2022-07-26T08:14:20Z</time>
      </trkpt>
      <trkpt lat="45.66394" lon="6.6857">
        <ele>2321</ele>
        <time>2022-07-26T08:14:21Z</time>
      </trkpt>
      <trkpt lat="45.66393" lon="6.6857">
        <ele>2322</ele>
        <time>2022-07-26T08:14:22Z</time>
      </trkpt>
      <trkpt lat="45.66392" lon="6.68569">
        <ele>2322</ele>
        <time>2022-07-26T08:14:23Z</time>
      </trkpt>
      <trkpt lat="45.66391" lon="6.68568">
        <ele>2322</ele>
        <time>2022-07-26T08:14:24Z</time>
      </trkpt>
      <trkpt lat="45.6639" lon="6.68568">
        <ele>2322</ele>
        <time>2022-07-26T08:14:25Z</time>
      </trkpt>
      <trkpt lat="45.6639" lon="6.68567">
        <ele>2322</ele>
        <time>2022-07-26T08:14:26Z</time>
      </trkpt>
      <trkpt lat="45.66389" lon="6.68566">
        <ele>2322</ele>
        <time>2022-07-26T08:14:27Z</time>
      </trkpt>
      <trkpt lat="45.66388" lon="6.68566">
        <ele>2322</ele>
        <time>2022-07-26T08:14:28Z</time>
      </trkpt>
      <trkpt lat="45.66387" lon="6.68566">
        <ele>2322</ele>
        <time>2022-07-26T08:14:29Z</time>
      </trkpt>
      <trkpt lat="45.66386" lon="6.68566">
        <ele>2322</ele>
        <time>2022-07-26T08:14:30Z</time>
      </trkpt>
      <trkpt lat="45.66385" lon="6.68566">
        <ele>2322</ele>
        <time>2022-07-26T08:14:31Z</time>
      </trkpt>
      <trkpt lat="45.66385" lon="6.68566">
        <ele>2323</ele>
        <time>2022-07-26T08:14:32Z</time>
      </trkpt>
      <trkpt lat="45.66384" lon="6.68565">
        <ele>2323</ele>
        <time>2022-07-26T08:14:33Z</time>
      </trkpt>
      <trkpt lat="45.66383" lon="6.68565">
        <ele>2323</ele>
        <time>2022-07-26T08:14:34Z</time>
      </trkpt>
      <trkpt lat="45.66382" lon="6.68565">
        <ele>2323</ele>
        <time>2022-07-26T08:14:35Z</time>
      </trkpt>
      <trkpt lat="45.66381" lon="6.68564">
        <ele>2323</ele>
        <time>2022-07-26T08:14:36Z</time>
      </trkpt>
      <trkpt lat="45.6638" lon="6.68563">
        <ele>2323</ele>
        <time>2022-07-26T08:14:37Z</time>
      </trkpt>
      <trkpt lat="45.66379" lon="6.68562">
        <ele>2323</ele>
        <time>2022-07-26T08:14:38Z</time>
      </trkpt>
      <trkpt lat="45.66379" lon="6.68561">
        <ele>2323</ele>
        <time>2022-07-26T08:14:39Z</time>
      </trkpt>
      <trkpt lat="45.66378" lon="6.6856">
        <ele>2323</ele>
        <time>2022-07-26T08:14:40Z</time>
      </trkpt>
      <trkpt lat="45.66378" lon="6.68559">
        <ele>2323</ele>
        <time>2022-07-26T08:14:41Z</time>
      </trkpt>
      <trkpt lat="45.66377" lon="6.68558">
        <ele>2323</ele>
        <time>2022-07-26T08:14:42Z</time>
      </trkpt>
      <trkpt lat="45.66377" lon="6.68557">
        <ele>2323</ele>
        <time>2022-07-26T08:14:43Z</time>
      </trkpt>
      <trkpt lat="45.66376" lon="6.68556">
        <ele>2323</ele>
        <time>2022-07-26T08:14:44Z</time>
      </trkpt>
      <trkpt lat="45.66376" lon="6.68555">
        <ele>2323</ele>
        <time>2022-07-26T08:14:45Z</time>
      </trkpt>
      <trkpt lat="45.66375" lon="6.68553">
        <ele>2323</ele>
        <time>2022-07-26T08:14:46Z</time>
      </trkpt>
      <trkpt lat="45.66375" lon="6.68552">
        <ele>2324</ele>
        <time>2022-07-26T08:14:47Z</time>
      </trkpt>
      <trkpt lat="45.66374" lon="6.68551">
        <ele>2324</ele>
        <time>2022-07-26T08:14:48Z</time>
      </trkpt>
      <trkpt lat="45.66373" lon="6.6855">
        <ele>2324</ele>
        <time>2022-07-26T08:14:49Z</time>
      </trkpt>
      <trkpt lat="45.66373" lon="6.68549">
        <ele>2324</ele>
        <time>2022-07-26T08:14:50Z</time>
      </trkpt>
      <trkpt lat="45.66372" lon="6.68548">
        <ele>2324</ele>
        <time>2022-07-26T08:14:51Z</time>
      </trkpt>
      <trkpt lat="45.66371" lon="6.68547">
        <ele>2324</ele>
        <time>2022-07-26T08:14:52Z</time>
      </trkpt>
      <trkpt lat="45.66371" lon="6.68547">
        <ele>2324</ele>
        <time>2022-07-26T08:14:53Z</time>
      </trkpt>
      <trkpt lat="45.6637" lon="6.68546">
        <ele>2324</ele>
        <time>2022-07-26T08:14:54Z</time>
      </trkpt>
      <trkpt lat="45.6637" lon="6.68545">
        <ele>2324</ele>
        <time>2022-07-26T08:14:55Z</time>
      </trkpt>
      <trkpt lat="45.66369" lon="6.68544">
        <ele>2324</ele>
        <time>2022-07-26T08:14:56Z</time>
      </trkpt>
      <trkpt lat="45.66368" lon="6.68544">
        <ele>2325</ele>
        <time>2022-07-26T08:14:57Z</time>
      </trkpt>
      <trkpt lat="45.66368" lon="6.68543">
        <ele>2325</ele>
        <time>2022-07-26T08:14:58Z</time>
      </trkpt>
      <trkpt lat="45.66368" lon="6.68542">
        <ele>2325</ele>
        <time>2022-07-26T08:14:59Z</time>
      </trkpt>
      <trkpt lat="45.66367" lon="6.68541">
        <ele>2325</ele>
        <time>2022-07-26T08:15:00Z</time>
      </trkpt>
      <trkpt lat="45.66367" lon="6.6854">
        <ele>2325</ele>
        <time>2022-07-26T08:15:01Z</time>
      </trkpt>
      <trkpt lat="45.66367" lon="6.68539">
        <ele>2325</ele>
        <time>2022-07-26T08:15:02Z</time>
      </trkpt>
      <trkpt lat="45.66366" lon="6.68538">
        <ele>2325</ele>
        <time>2022-07-26T08:15:03Z</time>
      </trkpt>
      <trkpt lat="45.66366" lon="6.68538">
        <ele>2325</ele>
        <time>2022-07-26T08:15:04Z</time>
      </trkpt>
      <trkpt lat="45.66366" lon="6.68537">
        <ele>2325</ele>
        <time>2022-07-26T08:15:05Z</time>
      </trkpt>
      <trkpt lat="45.66366" lon="6.68536">
        <ele>2325</ele>
        <time>2022-07-26T08:15:06Z</time>
      </trkpt>
      <trkpt lat="45.66365" lon="6.68535">
        <ele>2326</ele>
        <time>2022-07-26T08:15:07Z</time>
      </trkpt>
      <trkpt lat="45.66365" lon="6.68534">
        <ele>2326</ele>
        <time>2022-07-26T08:15:08Z</time>
      </trkpt>
      <trkpt lat="45.66364" lon="6.68534">
        <ele>2326</ele>
        <time>2022-07-26T08:15:09Z</time>
      </trkpt>
      <trkpt lat="45.66364" lon="6.68533">
        <ele>2326</ele>
        <time>2022-07-26T08:15:10Z</time>
      </trkpt>
      <trkpt lat="45.66363" lon="6.68532">
        <ele>2326</ele>
        <time>2022-07-26T08:15:11Z</time>
      </trkpt>
      <trkpt lat="45.66362" lon="6.68531">
        <ele>2326</ele>
        <time>2022-07-26T08:15:12Z</time>
      </trkpt>
      <trkpt lat="45.66362" lon="6.6853">
        <ele>2326</ele>
        <time>2022-07-26T08:15:13Z</time>
      </trkpt>
      <trkpt lat="45.66361" lon="6.68529">
        <ele>2326</ele>
        <time>2022-07-26T08:15:14Z</time>
      </trkpt>
      <trkpt lat="45.66361" lon="6.68528">
        <ele>2326</ele>
        <time>2022-07-26T08:15:15Z</time>
      </trkpt>
      <trkpt lat="45.6636" lon="6.68527">
        <ele>2326</ele>
        <time>2022-07-26T08:15:16Z</time>
      </trkpt>
      <trkpt lat="45.66359" lon="6.68525">
        <ele>2328</ele>
        <time>2022-07-26T08:15:30Z</time>
      </trkpt>
      <trkpt lat="45.66359" lon="6.68524">
        <ele>2328</ele>
        <time>2022-07-26T08:15:31Z</time>
      </trkpt>
      <trkpt lat="45.66359" lon="6.68523">
        <ele>2329</ele>
        <time>2022-07-26T08:15:32Z</time>
      </trkpt>
      <trkpt lat="45.66358" lon="6.68523">
        <ele>2329</ele>
        <time>2022-07-26T08:15:33Z</time>
      </trkpt>
      <trkpt lat="45.66358" lon="6.68522">
        <ele>2329</ele>
        <time>2022-07-26T08:15:34Z</time>
      </trkpt>
      <trkpt lat="45.66357" lon="6.68521">
        <ele>2329</ele>
        <time>2022-07-26T08:15:35Z</time>
      </trkpt>
      <trkpt lat="45.66357" lon="6.6852">
        <ele>2329</ele>
        <time>2022-07-26T08:15:36Z</time>
      </trkpt>
      <trkpt lat="45.66356" lon="6.68519">
        <ele>2329</ele>
        <time>2022-07-26T08:15:37Z</time>
      </trkpt>
      <trkpt lat="45.66356" lon="6.68518">
        <ele>2329</ele>
        <time>2022-07-26T08:15:38Z</time>
      </trkpt>
      <trkpt lat="45.66355" lon="6.68517">
        <ele>2329</ele>
        <time>2022-07-26T08:15:39Z</time>
      </trkpt>
      <trkpt lat="45.66355" lon="6.68516">
        <ele>2329</ele>
        <time>2022-07-26T08:15:40Z</time>
      </trkpt>
      <trkpt lat="45.66354" lon="6.68515">
        <ele>2329</ele>
        <time>2022-07-26T08:15:41Z</time>
      </trkpt>
      <trkpt lat="45.66354" lon="6.68514">
        <ele>2329</ele>
        <time>2022-07-26T08:15:42Z</time>
      </trkpt>
      <trkpt lat="45.66353" lon="6.68513">
        <ele>2329</ele>
        <time>2022-07-26T08:15:43Z</time>
      </trkpt>
      <trkpt lat="45.66353" lon="6.68512">
        <ele>2329</ele>
        <time>2022-07-26T08:15:44Z</time>
      </trkpt>
      <trkpt lat="45.66352" lon="6.68511">
        <ele>2329</ele>
        <time>2022-07-26T08:15:45Z</time>
      </trkpt>
      <trkpt lat="45.66352" lon="6.6851">
        <ele>2329</ele>
        <time>2022-07-26T08:15:46Z</time>
      </trkpt>
      <trkpt lat="45.66351" lon="6.68508">
        <ele>2329</ele>
        <time>2022-07-26T08:15:47Z</time>
      </trkpt>
      <trkpt lat="45.66351" lon="6.68507">
        <ele>2329</ele>
        <time>2022-07-26T08:15:48Z</time>
      </trkpt>
      <trkpt lat="45.6635" lon="6.68506">
        <ele>2329</ele>
        <time>2022-07-26T08:15:49Z</time>
      </trkpt>
      <trkpt lat="45.6635" lon="6.68505">
        <ele>2329</ele>
        <time>2022-07-26T08:15:50Z</time>
      </trkpt>
      <trkpt lat="45.66348" lon="6.68503">
        <ele>2330</ele>
        <time>2022-07-26T08:16:01Z</time>
      </trkpt>
      <trkpt lat="45.66348" lon="6.68503">
        <ele>2331</ele>
        <time>2022-07-26T08:16:02Z</time>
      </trkpt>
      <trkpt lat="45.66348" lon="6.68502">
        <ele>2331</ele>
        <time>2022-07-26T08:16:03Z</time>
      </trkpt>
      <trkpt lat="45.66348" lon="6.68501">
        <ele>2331</ele>
        <time>2022-07-26T08:16:04Z</time>
      </trkpt>
      <trkpt lat="45.66347" lon="6.68501">
        <ele>2331</ele>
        <time>2022-07-26T08:16:05Z</time>
      </trkpt>
      <trkpt lat="45.66347" lon="6.685">
        <ele>2331</ele>
        <time>2022-07-26T08:16:06Z</time>
      </trkpt>
      <trkpt lat="45.66346" lon="6.68499">
        <ele>2331</ele>
        <time>2022-07-26T08:16:07Z</time>
      </trkpt>
      <trkpt lat="45.66345" lon="6.68498">
        <ele>2331</ele>
        <time>2022-07-26T08:16:08Z</time>
      </trkpt>
      <trkpt lat="45.66345" lon="6.68497">
        <ele>2331</ele>
        <time>2022-07-26T08:16:09Z</time>
      </trkpt>
      <trkpt lat="45.66344" lon="6.68496">
        <ele>2331</ele>
        <time>2022-07-26T08:16:10Z</time>
      </trkpt>
      <trkpt lat="45.66343" lon="6.68495">
        <ele>2331</ele>
        <time>2022-07-26T08:16:11Z</time>
      </trkpt>
      <trkpt lat="45.66342" lon="6.68495">
        <ele>2331</ele>
        <time>2022-07-26T08:16:12Z</time>
      </trkpt>
      <trkpt lat="45.66341" lon="6.68494">
        <ele>2331</ele>
        <time>2022-07-26T08:16:13Z</time>
      </trkpt>
      <trkpt lat="45.6634" lon="6.68494">
        <ele>2331</ele>
        <time>2022-07-26T08:16:14Z</time>
      </trkpt>
      <trkpt lat="45.66338" lon="6.68494">
        <ele>2331</ele>
        <time>2022-07-26T08:16:15Z</time>
      </trkpt>
      <trkpt lat="45.66337" lon="6.68494">
        <ele>2331</ele>
        <time>2022-07-26T08:16:16Z</time>
      </trkpt>
      <trkpt lat="45.66336" lon="6.68493">
        <ele>2331</ele>
        <time>2022-07-26T08:16:17Z</time>
      </trkpt>
      <trkpt lat="45.66335" lon="6.68492">
        <ele>2331</ele>
        <time>2022-07-26T08:16:18Z</time>
      </trkpt>
      <trkpt lat="45.66334" lon="6.68492">
        <ele>2331</ele>
        <time>2022-07-26T08:16:19Z</time>
      </trkpt>
      <trkpt lat="45.66333" lon="6.6849">
        <ele>2331</ele>
        <time>2022-07-26T08:16:20Z</time>
      </trkpt>
      <trkpt lat="45.66332" lon="6.68489">
        <ele>2331</ele>
        <time>2022-07-26T08:16:21Z</time>
      </trkpt>
      <trkpt lat="45.66332" lon="6.68488">
        <ele>2331</ele>
        <time>2022-07-26T08:16:22Z</time>
      </trkpt>
      <trkpt lat="45.66331" lon="6.68487">
        <ele>2331</ele>
        <time>2022-07-26T08:16:23Z</time>
      </trkpt>
      <trkpt lat="45.66331" lon="6.68486">
        <ele>2331</ele>
        <time>2022-07-26T08:16:24Z</time>
      </trkpt>
      <trkpt lat="45.66331" lon="6.68485">
        <ele>2331</ele>
        <time>2022-07-26T08:16:25Z</time>
      </trkpt>
      <trkpt lat="45.66331" lon="6.68483">
        <ele>2331</ele>
        <time>2022-07-26T08:16:26Z</time>
      </trkpt>
      <trkpt lat="45.66331" lon="6.68482">
        <ele>2331</ele>
        <time>2022-07-26T08:16:27Z</time>
      </trkpt>
      <trkpt lat="45.66331" lon="6.68481">
        <ele>2331</ele>
        <time>2022-07-26T08:16:28Z</time>
      </trkpt>
      <trkpt lat="45.66331" lon="6.6848">
        <ele>2331</ele>
        <time>2022-07-26T08:16:29Z</time>
      </trkpt>
      <trkpt lat="45.6633" lon="6.68479">
        <ele>2331</ele>
        <time>2022-07-26T08:16:30Z</time>
      </trkpt>
      <trkpt lat="45.6633" lon="6.68477">
        <ele>2331</ele>
        <time>2022-07-26T08:16:31Z</time>
      </trkpt>
      <trkpt lat="45.6633" lon="6.68477">
        <ele>2332</ele>
        <time>2022-07-26T08:16:32Z</time>
      </trkpt>
      <trkpt lat="45.66329" lon="6.68476">
        <ele>2332</ele>
        <time>2022-07-26T08:16:33Z</time>
      </trkpt>
      <trkpt lat="45.66329" lon="6.68475">
        <ele>2332</ele>
        <time>2022-07-26T08:16:34Z</time>
      </trkpt>
      <trkpt lat="45.66328" lon="6.68474">
        <ele>2332</ele>
        <time>2022-07-26T08:16:35Z</time>
      </trkpt>
      <trkpt lat="45.66328" lon="6.68473">
        <ele>2332</ele>
        <time>2022-07-26T08:16:36Z</time>
      </trkpt>
      <trkpt lat="45.66327" lon="6.68471">
        <ele>2332</ele>
        <time>2022-07-26T08:16:37Z</time>
      </trkpt>
      <trkpt lat="45.66326" lon="6.68471">
        <ele>2332</ele>
        <time>2022-07-26T08:16:38Z</time>
      </trkpt>
      <trkpt lat="45.66326" lon="6.6847">
        <ele>2332</ele>
        <time>2022-07-26T08:16:39Z</time>
      </trkpt>
      <trkpt lat="45.66325" lon="6.68469">
        <ele>2332</ele>
        <time>2022-07-26T08:16:40Z</time>
      </trkpt>
      <trkpt lat="45.66324" lon="6.68468">
        <ele>2332</ele>
        <time>2022-07-26T08:16:41Z</time>
      </trkpt>
      <trkpt lat="45.66324" lon="6.68467">
        <ele>2332</ele>
        <time>2022-07-26T08:16:42Z</time>
      </trkpt>
      <trkpt lat="45.66323" lon="6.68466">
        <ele>2332</ele>
        <time>2022-07-26T08:16:43Z</time>
      </trkpt>
      <trkpt lat="45.66322" lon="6.68465">
        <ele>2332</ele>
        <time>2022-07-26T08:16:44Z</time>
      </trkpt>
      <trkpt lat="45.66321" lon="6.68464">
        <ele>2332</ele>
        <time>2022-07-26T08:16:45Z</time>
      </trkpt>
      <trkpt lat="45.6632" lon="6.68464">
        <ele>2332</ele>
        <time>2022-07-26T08:16:46Z</time>
      </trkpt>
      <trkpt lat="45.66319" lon="6.68463">
        <ele>2333</ele>
        <time>2022-07-26T08:16:47Z</time>
      </trkpt>
      <trkpt lat="45.66319" lon="6.68462">
        <ele>2333</ele>
        <time>2022-07-26T08:16:48Z</time>
      </trkpt>
      <trkpt lat="45.66318" lon="6.68461">
        <ele>2333</ele>
        <time>2022-07-26T08:16:49Z</time>
      </trkpt>
      <trkpt lat="45.66317" lon="6.6846">
        <ele>2333</ele>
        <time>2022-07-26T08:16:50Z</time>
      </trkpt>
      <trkpt lat="45.66316" lon="6.68459">
        <ele>2333</ele>
        <time>2022-07-26T08:16:51Z</time>
      </trkpt>
      <trkpt lat="45.66316" lon="6.68458">
        <ele>2333</ele>
        <time>2022-07-26T08:16:52Z</time>
      </trkpt>
      <trkpt lat="45.66315" lon="6.68457">
        <ele>2333</ele>
        <time>2022-07-26T08:16:53Z</time>
      </trkpt>
      <trkpt lat="45.66315" lon="6.68456">
        <ele>2333</ele>
        <time>2022-07-26T08:16:54Z</time>
      </trkpt>
      <trkpt lat="45.66315" lon="6.68455">
        <ele>2333</ele>
        <time>2022-07-26T08:16:55Z</time>
      </trkpt>
      <trkpt lat="45.66314" lon="6.68454">
        <ele>2333</ele>
        <time>2022-07-26T08:16:56Z</time>
      </trkpt>
      <trkpt lat="45.66314" lon="6.68453">
        <ele>2334</ele>
        <time>2022-07-26T08:16:57Z</time>
      </trkpt>
      <trkpt lat="45.66313" lon="6.68452">
        <ele>2334</ele>
        <time>2022-07-26T08:16:58Z</time>
      </trkpt>
      <trkpt lat="45.66312" lon="6.6845">
        <ele>2334</ele>
        <time>2022-07-26T08:16:59Z</time>
      </trkpt>
      <trkpt lat="45.66312" lon="6.68449">
        <ele>2334</ele>
        <time>2022-07-26T08:17:00Z</time>
      </trkpt>
      <trkpt lat="45.66311" lon="6.68448">
        <ele>2334</ele>
        <time>2022-07-26T08:17:01Z</time>
      </trkpt>
      <trkpt lat="45.6631" lon="6.68447">
        <ele>2334</ele>
        <time>2022-07-26T08:17:02Z</time>
      </trkpt>
      <trkpt lat="45.6631" lon="6.68446">
        <ele>2334</ele>
        <time>2022-07-26T08:17:03Z</time>
      </trkpt>
      <trkpt lat="45.66309" lon="6.68445">
        <ele>2334</ele>
        <time>2022-07-26T08:17:04Z</time>
      </trkpt>
      <trkpt lat="45.66308" lon="6.68444">
        <ele>2334</ele>
        <time>2022-07-26T08:17:05Z</time>
      </trkpt>
      <trkpt lat="45.66308" lon="6.68443">
        <ele>2334</ele>
        <time>2022-07-26T08:17:06Z</time>
      </trkpt>
      <trkpt lat="45.66307" lon="6.68442">
        <ele>2335</ele>
        <time>2022-07-26T08:17:07Z</time>
      </trkpt>
      <trkpt lat="45.66306" lon="6.68441">
        <ele>2335</ele>
        <time>2022-07-26T08:17:08Z</time>
      </trkpt>
      <trkpt lat="45.66306" lon="6.6844">
        <ele>2335</ele>
        <time>2022-07-26T08:17:09Z</time>
      </trkpt>
      <trkpt lat="45.66305" lon="6.6844">
        <ele>2335</ele>
        <time>2022-07-26T08:17:10Z</time>
      </trkpt>
      <trkpt lat="45.66304" lon="6.68439">
        <ele>2335</ele>
        <time>2022-07-26T08:17:11Z</time>
      </trkpt>
      <trkpt lat="45.66303" lon="6.68438">
        <ele>2335</ele>
        <time>2022-07-26T08:17:12Z</time>
      </trkpt>
      <trkpt lat="45.66303" lon="6.68437">
        <ele>2335</ele>
        <time>2022-07-26T08:17:13Z</time>
      </trkpt>
      <trkpt lat="45.66302" lon="6.68436">
        <ele>2335</ele>
        <time>2022-07-26T08:17:14Z</time>
      </trkpt>
      <trkpt lat="45.66301" lon="6.68435">
        <ele>2335</ele>
        <time>2022-07-26T08:17:15Z</time>
      </trkpt>
      <trkpt lat="45.66301" lon="6.68434">
        <ele>2335</ele>
        <time>2022-07-26T08:17:16Z</time>
      </trkpt>
      <trkpt lat="45.663" lon="6.68434">
        <ele>2335</ele>
        <time>2022-07-26T08:17:17Z</time>
      </trkpt>
      <trkpt lat="45.66299" lon="6.68433">
        <ele>2335</ele>
        <time>2022-07-26T08:17:18Z</time>
      </trkpt>
      <trkpt lat="45.66298" lon="6.68432">
        <ele>2335</ele>
        <time>2022-07-26T08:17:19Z</time>
      </trkpt>
      <trkpt lat="45.66298" lon="6.68431">
        <ele>2335</ele>
        <time>2022-07-26T08:17:20Z</time>
      </trkpt>
      <trkpt lat="45.66297" lon="6.6843">
        <ele>2335</ele>
        <time>2022-07-26T08:17:21Z</time>
      </trkpt>
      <trkpt lat="45.66296" lon="6.68429">
        <ele>2336</ele>
        <time>2022-07-26T08:17:22Z</time>
      </trkpt>
      <trkpt lat="45.66295" lon="6.68428">
        <ele>2336</ele>
        <time>2022-07-26T08:17:23Z</time>
      </trkpt>
      <trkpt lat="45.66295" lon="6.68427">
        <ele>2336</ele>
        <time>2022-07-26T08:17:24Z</time>
      </trkpt>
      <trkpt lat="45.66294" lon="6.68426">
        <ele>2336</ele>
        <time>2022-07-26T08:17:25Z</time>
      </trkpt>
      <trkpt lat="45.66293" lon="6.68425">
        <ele>2336</ele>
        <time>2022-07-26T08:17:26Z</time>
      </trkpt>
      <trkpt lat="45.66292" lon="6.68424">
        <ele>2336</ele>
        <time>2022-07-26T08:17:27Z</time>
      </trkpt>
      <trkpt lat="45.66292" lon="6.68423">
        <ele>2336</ele>
        <time>2022-07-26T08:17:28Z</time>
      </trkpt>
      <trkpt lat="45.66291" lon="6.68422">
        <ele>2336</ele>
        <time>2022-07-26T08:17:29Z</time>
      </trkpt>
      <trkpt lat="45.66291" lon="6.68421">
        <ele>2336</ele>
        <time>2022-07-26T08:17:30Z</time>
      </trkpt>
      <trkpt lat="45.6629" lon="6.6842">
        <ele>2336</ele>
        <time>2022-07-26T08:17:31Z</time>
      </trkpt>
      <trkpt lat="45.6629" lon="6.68418">
        <ele>2337</ele>
        <time>2022-07-26T08:17:47Z</time>
      </trkpt>
      <trkpt lat="45.66289" lon="6.68418">
        <ele>2337</ele>
        <time>2022-07-26T08:17:48Z</time>
      </trkpt>
      <trkpt lat="45.66289" lon="6.68418">
        <ele>2337</ele>
        <time>2022-07-26T08:17:49Z</time>
      </trkpt>
      <trkpt lat="45.66288" lon="6.68417">
        <ele>2337</ele>
        <time>2022-07-26T08:17:50Z</time>
      </trkpt>
      <trkpt lat="45.66288" lon="6.68416">
        <ele>2337</ele>
        <time>2022-07-26T08:17:51Z</time>
      </trkpt>
      <trkpt lat="45.66287" lon="6.68415">
        <ele>2338</ele>
        <time>2022-07-26T08:17:52Z</time>
      </trkpt>
      <trkpt lat="45.66286" lon="6.68414">
        <ele>2338</ele>
        <time>2022-07-26T08:17:53Z</time>
      </trkpt>
      <trkpt lat="45.66286" lon="6.68413">
        <ele>2338</ele>
        <time>2022-07-26T08:17:54Z</time>
      </trkpt>
      <trkpt lat="45.66285" lon="6.68412">
        <ele>2338</ele>
        <time>2022-07-26T08:17:55Z</time>
      </trkpt>
      <trkpt lat="45.66284" lon="6.68411">
        <ele>2338</ele>
        <time>2022-07-26T08:17:56Z</time>
      </trkpt>
      <trkpt lat="45.66283" lon="6.6841">
        <ele>2338</ele>
        <time>2022-07-26T08:17:57Z</time>
      </trkpt>
      <trkpt lat="45.66283" lon="6.68409">
        <ele>2338</ele>
        <time>2022-07-26T08:17:58Z</time>
      </trkpt>
      <trkpt lat="45.66282" lon="6.68408">
        <ele>2338</ele>
        <time>2022-07-26T08:17:59Z</time>
      </trkpt>
      <trkpt lat="45.66281" lon="6.68407">
        <ele>2338</ele>
        <time>2022-07-26T08:18:00Z</time>
      </trkpt>
      <trkpt lat="45.6628" lon="6.68406">
        <ele>2338</ele>
        <time>2022-07-26T08:18:01Z</time>
      </trkpt>
      <trkpt lat="45.6628" lon="6.68405">
        <ele>2338</ele>
        <time>2022-07-26T08:18:02Z</time>
      </trkpt>
      <trkpt lat="45.66279" lon="6.68404">
        <ele>2338</ele>
        <time>2022-07-26T08:18:03Z</time>
      </trkpt>
      <trkpt lat="45.66278" lon="6.68402">
        <ele>2340</ele>
        <time>2022-07-26T08:18:21Z</time>
      </trkpt>
      <trkpt lat="45.66278" lon="6.68401">
        <ele>2340</ele>
        <time>2022-07-26T08:18:22Z</time>
      </trkpt>
      <trkpt lat="45.66278" lon="6.68401">
        <ele>2340</ele>
        <time>2022-07-26T08:18:23Z</time>
      </trkpt>
      <trkpt lat="45.66277" lon="6.684">
        <ele>2340</ele>
        <time>2022-07-26T08:18:24Z</time>
      </trkpt>
      <trkpt lat="45.66277" lon="6.68399">
        <ele>2340</ele>
        <time>2022-07-26T08:18:25Z</time>
      </trkpt>
      <trkpt lat="45.66276" lon="6.68399">
        <ele>2340</ele>
        <time>2022-07-26T08:18:26Z</time>
      </trkpt>
      <trkpt lat="45.66275" lon="6.68398">
        <ele>2340</ele>
        <time>2022-07-26T08:18:27Z</time>
      </trkpt>
      <trkpt lat="45.66275" lon="6.68397">
        <ele>2340</ele>
        <time>2022-07-26T08:18:28Z</time>
      </trkpt>
      <trkpt lat="45.66274" lon="6.68396">
        <ele>2340</ele>
        <time>2022-07-26T08:18:29Z</time>
      </trkpt>
      <trkpt lat="45.66273" lon="6.68396">
        <ele>2340</ele>
        <time>2022-07-26T08:18:30Z</time>
      </trkpt>
      <trkpt lat="45.66272" lon="6.68395">
        <ele>2340</ele>
        <time>2022-07-26T08:18:31Z</time>
      </trkpt>
      <trkpt lat="45.66271" lon="6.68395">
        <ele>2340</ele>
        <time>2022-07-26T08:18:32Z</time>
      </trkpt>
      <trkpt lat="45.6627" lon="6.68395">
        <ele>2340</ele>
        <time>2022-07-26T08:18:33Z</time>
      </trkpt>
      <trkpt lat="45.66269" lon="6.68395">
        <ele>2340</ele>
        <time>2022-07-26T08:18:34Z</time>
      </trkpt>
      <trkpt lat="45.66268" lon="6.68395">
        <ele>2340</ele>
        <time>2022-07-26T08:18:35Z</time>
      </trkpt>
      <trkpt lat="45.66267" lon="6.68395">
        <ele>2340</ele>
        <time>2022-07-26T08:18:36Z</time>
      </trkpt>
      <trkpt lat="45.66266" lon="6.68395">
        <ele>2340</ele>
        <time>2022-07-26T08:18:37Z</time>
      </trkpt>
      <trkpt lat="45.66265" lon="6.68395">
        <ele>2340</ele>
        <time>2022-07-26T08:18:38Z</time>
      </trkpt>
      <trkpt lat="45.66264" lon="6.68394">
        <ele>2340</ele>
        <time>2022-07-26T08:18:39Z</time>
      </trkpt>
      <trkpt lat="45.66263" lon="6.68394">
        <ele>2340</ele>
        <time>2022-07-26T08:18:40Z</time>
      </trkpt>
      <trkpt lat="45.66262" lon="6.68394">
        <ele>2340</ele>
        <time>2022-07-26T08:18:41Z</time>
      </trkpt>
      <trkpt lat="45.66262" lon="6.68394">
        <ele>2340</ele>
        <time>2022-07-26T08:18:42Z</time>
      </trkpt>
      <trkpt lat="45.66261" lon="6.68393">
        <ele>2340</ele>
        <time>2022-07-26T08:18:43Z</time>
      </trkpt>
      <trkpt lat="45.6626" lon="6.68393">
        <ele>2340</ele>
        <time>2022-07-26T08:18:44Z</time>
      </trkpt>
      <trkpt lat="45.6626" lon="6.68392">
        <ele>2340</ele>
        <time>2022-07-26T08:18:45Z</time>
      </trkpt>
      <trkpt lat="45.66259" lon="6.68392">
        <ele>2340</ele>
        <time>2022-07-26T08:18:46Z</time>
      </trkpt>
      <trkpt lat="45.66258" lon="6.68391">
        <ele>2341</ele>
        <time>2022-07-26T08:18:47Z</time>
      </trkpt>
      <trkpt lat="45.66258" lon="6.6839">
        <ele>2341</ele>
        <time>2022-07-26T08:18:48Z</time>
      </trkpt>
      <trkpt lat="45.66257" lon="6.6839">
        <ele>2341</ele>
        <time>2022-07-26T08:18:49Z</time>
      </trkpt>
      <trkpt lat="45.66257" lon="6.68389">
        <ele>2341</ele>
        <time>2022-07-26T08:18:50Z</time>
      </trkpt>
      <trkpt lat="45.66256" lon="6.68389">
        <ele>2341</ele>
        <time>2022-07-26T08:18:51Z</time>
      </trkpt>
      <trkpt lat="45.66255" lon="6.68388">
        <ele>2341</ele>
        <time>2022-07-26T08:18:52Z</time>
      </trkpt>
      <trkpt lat="45.66254" lon="6.68387">
        <ele>2341</ele>
        <time>2022-07-26T08:18:53Z</time>
      </trkpt>
      <trkpt lat="45.66253" lon="6.68386">
        <ele>2341</ele>
        <time>2022-07-26T08:18:54Z</time>
      </trkpt>
      <trkpt lat="45.66252" lon="6.68385">
        <ele>2341</ele>
        <time>2022-07-26T08:18:55Z</time>
      </trkpt>
      <trkpt lat="45.66252" lon="6.68384">
        <ele>2341</ele>
        <time>2022-07-26T08:18:56Z</time>
      </trkpt>
      <trkpt lat="45.66251" lon="6.68383">
        <ele>2342</ele>
        <time>2022-07-26T08:18:57Z</time>
      </trkpt>
      <trkpt lat="45.6625" lon="6.68382">
        <ele>2342</ele>
        <time>2022-07-26T08:18:58Z</time>
      </trkpt>
      <trkpt lat="45.66249" lon="6.68381">
        <ele>2342</ele>
        <time>2022-07-26T08:18:59Z</time>
      </trkpt>
      <trkpt lat="45.66248" lon="6.6838">
        <ele>2342</ele>
        <time>2022-07-26T08:19:00Z</time>
      </trkpt>
      <trkpt lat="45.66248" lon="6.68379">
        <ele>2342</ele>
        <time>2022-07-26T08:19:01Z</time>
      </trkpt>
      <trkpt lat="45.66247" lon="6.68378">
        <ele>2342</ele>
        <time>2022-07-26T08:19:02Z</time>
      </trkpt>
      <trkpt lat="45.66247" lon="6.68376">
        <ele>2342</ele>
        <time>2022-07-26T08:19:03Z</time>
      </trkpt>
      <trkpt lat="45.66246" lon="6.68375">
        <ele>2342</ele>
        <time>2022-07-26T08:19:04Z</time>
      </trkpt>
      <trkpt lat="45.66246" lon="6.68374">
        <ele>2342</ele>
        <time>2022-07-26T08:19:05Z</time>
      </trkpt>
      <trkpt lat="45.66245" lon="6.68373">
        <ele>2342</ele>
        <time>2022-07-26T08:19:06Z</time>
      </trkpt>
      <trkpt lat="45.66245" lon="6.68371">
        <ele>2342</ele>
        <time>2022-07-26T08:19:07Z</time>
      </trkpt>
      <trkpt lat="45.66244" lon="6.6837">
        <ele>2342</ele>
        <time>2022-07-26T08:19:08Z</time>
      </trkpt>
      <trkpt lat="45.66244" lon="6.68369">
        <ele>2342</ele>
        <time>2022-07-26T08:19:09Z</time>
      </trkpt>
      <trkpt lat="45.66244" lon="6.68367">
        <ele>2342</ele>
        <time>2022-07-26T08:19:10Z</time>
      </trkpt>
      <trkpt lat="45.66243" lon="6.68366">
        <ele>2342</ele>
        <time>2022-07-26T08:19:11Z</time>
      </trkpt>
      <trkpt lat="45.66243" lon="6.68365">
        <ele>2342</ele>
        <time>2022-07-26T08:19:12Z</time>
      </trkpt>
      <trkpt lat="45.66243" lon="6.68364">
        <ele>2342</ele>
        <time>2022-07-26T08:19:13Z</time>
      </trkpt>
      <trkpt lat="45.66244" lon="6.68363">
        <ele>2342</ele>
        <time>2022-07-26T08:19:14Z</time>
      </trkpt>
      <trkpt lat="45.66244" lon="6.68362">
        <ele>2342</ele>
        <time>2022-07-26T08:19:15Z</time>
      </trkpt>
      <trkpt lat="45.66244" lon="6.68361">
        <ele>2342</ele>
        <time>2022-07-26T08:19:16Z</time>
      </trkpt>
      <trkpt lat="45.66245" lon="6.6836">
        <ele>2342</ele>
        <time>2022-07-26T08:19:17Z</time>
      </trkpt>
      <trkpt lat="45.66245" lon="6.68359">
        <ele>2342</ele>
        <time>2022-07-26T08:19:18Z</time>
      </trkpt>
      <trkpt lat="45.66246" lon="6.68358">
        <ele>2342</ele>
        <time>2022-07-26T08:19:19Z</time>
      </trkpt>
      <trkpt lat="45.66246" lon="6.68357">
        <ele>2342</ele>
        <time>2022-07-26T08:19:20Z</time>
      </trkpt>
      <trkpt lat="45.66246" lon="6.68356">
        <ele>2342</ele>
        <time>2022-07-26T08:19:21Z</time>
      </trkpt>
      <trkpt lat="45.66247" lon="6.68355">
        <ele>2342</ele>
        <time>2022-07-26T08:19:22Z</time>
      </trkpt>
      <trkpt lat="45.66247" lon="6.68354">
        <ele>2342</ele>
        <time>2022-07-26T08:19:23Z</time>
      </trkpt>
      <trkpt lat="45.66248" lon="6.68353">
        <ele>2342</ele>
        <time>2022-07-26T08:19:24Z</time>
      </trkpt>
      <trkpt lat="45.66248" lon="6.68352">
        <ele>2342</ele>
        <time>2022-07-26T08:19:25Z</time>
      </trkpt>
      <trkpt lat="45.66249" lon="6.68351">
        <ele>2342</ele>
        <time>2022-07-26T08:19:26Z</time>
      </trkpt>
      <trkpt lat="45.66249" lon="6.68349">
        <ele>2342</ele>
        <time>2022-07-26T08:19:27Z</time>
      </trkpt>
      <trkpt lat="45.66249" lon="6.68348">
        <ele>2341</ele>
        <time>2022-07-26T08:19:28Z</time>
      </trkpt>
      <trkpt lat="45.6625" lon="6.68347">
        <ele>2341</ele>
        <time>2022-07-26T08:19:29Z</time>
      </trkpt>
      <trkpt lat="45.66249" lon="6.68346">
        <ele>2341</ele>
        <time>2022-07-26T08:19:30Z</time>
      </trkpt>
      <trkpt lat="45.66249" lon="6.68345">
        <ele>2341</ele>
        <time>2022-07-26T08:19:31Z</time>
      </trkpt>
      <trkpt lat="45.66249" lon="6.68344">
        <ele>2341</ele>
        <time>2022-07-26T08:19:32Z</time>
      </trkpt>
      <trkpt lat="45.66249" lon="6.68343">
        <ele>2341</ele>
        <time>2022-07-26T08:19:33Z</time>
      </trkpt>
      <trkpt lat="45.66249" lon="6.68342">
        <ele>2341</ele>
        <time>2022-07-26T08:19:34Z</time>
      </trkpt>
      <trkpt lat="45.66249" lon="6.68341">
        <ele>2341</ele>
        <time>2022-07-26T08:19:35Z</time>
      </trkpt>
      <trkpt lat="45.66248" lon="6.6834">
        <ele>2341</ele>
        <time>2022-07-26T08:22:14Z</time>
      </trkpt>
      <trkpt lat="45.66248" lon="6.68339">
        <ele>2341</ele>
        <time>2022-07-26T08:22:15Z</time>
      </trkpt>
      <trkpt lat="45.66248" lon="6.68338">
        <ele>2341</ele>
        <time>2022-07-26T08:22:16Z</time>
      </trkpt>
      <trkpt lat="45.66249" lon="6.68337">
        <ele>2341</ele>
        <time>2022-07-26T08:22:17Z</time>
      </trkpt>
      <trkpt lat="45.66249" lon="6.68336">
        <ele>2341</ele>
        <time>2022-07-26T08:22:18Z</time>
      </trkpt>
      <trkpt lat="45.66249" lon="6.68335">
        <ele>2341</ele>
        <time>2022-07-26T08:22:19Z</time>
      </trkpt>
      <trkpt lat="45.66249" lon="6.68333">
        <ele>2341</ele>
        <time>2022-07-26T08:22:20Z</time>
      </trkpt>
      <trkpt lat="45.66249" lon="6.68332">
        <ele>2341</ele>
        <time>2022-07-26T08:22:21Z</time>
      </trkpt>
      <trkpt lat="45.66249" lon="6.68331">
        <ele>2341</ele>
        <time>2022-07-26T08:22:22Z</time>
      </trkpt>
      <trkpt lat="45.66249" lon="6.6833">
        <ele>2341</ele>
        <time>2022-07-26T08:22:23Z</time>
      </trkpt>
      <trkpt lat="45.66249" lon="6.68329">
        <ele>2341</ele>
        <time>2022-07-26T08:22:24Z</time>
      </trkpt>
      <trkpt lat="45.66249" lon="6.68328">
        <ele>2341</ele>
        <time>2022-07-26T08:22:25Z</time>
      </trkpt>
      <trkpt lat="45.66249" lon="6.68327">
        <ele>2341</ele>
        <time>2022-07-26T08:22:31Z</time>
      </trkpt>
      <trkpt lat="45.66249" lon="6.68326">
        <ele>2342</ele>
        <time>2022-07-26T08:22:32Z</time>
      </trkpt>
      <trkpt lat="45.66249" lon="6.68325">
        <ele>2342</ele>
        <time>2022-07-26T08:22:33Z</time>
      </trkpt>
      <trkpt lat="45.66249" lon="6.68324">
        <ele>2342</ele>
        <time>2022-07-26T08:22:34Z</time>
      </trkpt>
      <trkpt lat="45.66248" lon="6.68324">
        <ele>2342</ele>
        <time>2022-07-26T08:22:35Z</time>
      </trkpt>
      <trkpt lat="45.66248" lon="6.68323">
        <ele>2342</ele>
        <time>2022-07-26T08:22:36Z</time>
      </trkpt>
      <trkpt lat="45.66248" lon="6.68322">
        <ele>2343</ele>
        <time>2022-07-26T08:22:37Z</time>
      </trkpt>
      <trkpt lat="45.66249" lon="6.68321">
        <ele>2343</ele>
        <time>2022-07-26T08:22:38Z</time>
      </trkpt>
      <trkpt lat="45.66249" lon="6.6832">
        <ele>2343</ele>
        <time>2022-07-26T08:22:39Z</time>
      </trkpt>
      <trkpt lat="45.66249" lon="6.68319">
        <ele>2343</ele>
        <time>2022-07-26T08:22:40Z</time>
      </trkpt>
      <trkpt lat="45.66249" lon="6.68318">
        <ele>2343</ele>
        <time>2022-07-26T08:22:41Z</time>
      </trkpt>
      <trkpt lat="45.66249" lon="6.68318">
        <ele>2343</ele>
        <time>2022-07-26T08:22:42Z</time>
      </trkpt>
      <trkpt lat="45.66249" lon="6.68317">
        <ele>2343</ele>
        <time>2022-07-26T08:22:43Z</time>
      </trkpt>
      <trkpt lat="45.66249" lon="6.68316">
        <ele>2343</ele>
        <time>2022-07-26T08:22:44Z</time>
      </trkpt>
      <trkpt lat="45.66249" lon="6.68315">
        <ele>2343</ele>
        <time>2022-07-26T08:22:45Z</time>
      </trkpt>
      <trkpt lat="45.66249" lon="6.68315">
        <ele>2343</ele>
        <time>2022-07-26T08:22:46Z</time>
      </trkpt>
      <trkpt lat="45.6625" lon="6.68314">
        <ele>2344</ele>
        <time>2022-07-26T08:22:47Z</time>
      </trkpt>
      <trkpt lat="45.6625" lon="6.68313">
        <ele>2344</ele>
        <time>2022-07-26T08:22:48Z</time>
      </trkpt>
      <trkpt lat="45.6625" lon="6.68312">
        <ele>2344</ele>
        <time>2022-07-26T08:22:49Z</time>
      </trkpt>
      <trkpt lat="45.6625" lon="6.68312">
        <ele>2344</ele>
        <time>2022-07-26T08:22:50Z</time>
      </trkpt>
      <trkpt lat="45.6625" lon="6.68311">
        <ele>2344</ele>
        <time>2022-07-26T08:22:51Z</time>
      </trkpt>
      <trkpt lat="45.6625" lon="6.6831">
        <ele>2344</ele>
        <time>2022-07-26T08:22:52Z</time>
      </trkpt>
      <trkpt lat="45.6625" lon="6.68309">
        <ele>2344</ele>
        <time>2022-07-26T08:22:53Z</time>
      </trkpt>
      <trkpt lat="45.6625" lon="6.68308">
        <ele>2344</ele>
        <time>2022-07-26T08:22:54Z</time>
      </trkpt>
      <trkpt lat="45.6625" lon="6.68308">
        <ele>2344</ele>
        <time>2022-07-26T08:22:55Z</time>
      </trkpt>
      <trkpt lat="45.6625" lon="6.68307">
        <ele>2344</ele>
        <time>2022-07-26T08:22:56Z</time>
      </trkpt>
      <trkpt lat="45.6625" lon="6.68307">
        <ele>2345</ele>
        <time>2022-07-26T08:22:57Z</time>
      </trkpt>
      <trkpt lat="45.66251" lon="6.68304">
        <ele>2346</ele>
        <time>2022-07-26T08:23:06Z</time>
      </trkpt>
      <trkpt lat="45.66251" lon="6.68302">
        <ele>2346</ele>
        <time>2022-07-26T08:23:07Z</time>
      </trkpt>
      <trkpt lat="45.66252" lon="6.683">
        <ele>2346</ele>
        <time>2022-07-26T08:23:08Z</time>
      </trkpt>
      <trkpt lat="45.66252" lon="6.68296">
        <ele>2350</ele>
        <time>2022-07-26T08:24:06Z</time>
      </trkpt>
      <trkpt lat="45.66252" lon="6.68294">
        <ele>2350</ele>
        <time>2022-07-26T08:24:07Z</time>
      </trkpt>
      <trkpt lat="45.66253" lon="6.68293">
        <ele>2350</ele>
        <time>2022-07-26T08:24:08Z</time>
      </trkpt>
      <trkpt lat="45.66253" lon="6.68292">
        <ele>2350</ele>
        <time>2022-07-26T08:24:09Z</time>
      </trkpt>
      <trkpt lat="45.66253" lon="6.6829">
        <ele>2350</ele>
        <time>2022-07-26T08:24:10Z</time>
      </trkpt>
      <trkpt lat="45.66253" lon="6.68289">
        <ele>2350</ele>
        <time>2022-07-26T08:24:11Z</time>
      </trkpt>
      <trkpt lat="45.66253" lon="6.68288">
        <ele>2350</ele>
        <time>2022-07-26T08:24:12Z</time>
      </trkpt>
      <trkpt lat="45.66252" lon="6.68287">
        <ele>2350</ele>
        <time>2022-07-26T08:24:13Z</time>
      </trkpt>
      <trkpt lat="45.66252" lon="6.68286">
        <ele>2350</ele>
        <time>2022-07-26T08:24:14Z</time>
      </trkpt>
      <trkpt lat="45.66252" lon="6.68285">
        <ele>2350</ele>
        <time>2022-07-26T08:24:15Z</time>
      </trkpt>
      <trkpt lat="45.66252" lon="6.68284">
        <ele>2350</ele>
        <time>2022-07-26T08:24:16Z</time>
      </trkpt>
      <trkpt lat="45.66252" lon="6.68283">
        <ele>2350</ele>
        <time>2022-07-26T08:24:17Z</time>
      </trkpt>
      <trkpt lat="45.66252" lon="6.68282">
        <ele>2350</ele>
        <time>2022-07-26T08:24:18Z</time>
      </trkpt>
      <trkpt lat="45.66251" lon="6.68281">
        <ele>2350</ele>
        <time>2022-07-26T08:24:19Z</time>
      </trkpt>
      <trkpt lat="45.66251" lon="6.6828">
        <ele>2350</ele>
        <time>2022-07-26T08:24:20Z</time>
      </trkpt>
      <trkpt lat="45.66251" lon="6.68279">
        <ele>2350</ele>
        <time>2022-07-26T08:24:21Z</time>
      </trkpt>
      <trkpt lat="45.66251" lon="6.68278">
        <ele>2351</ele>
        <time>2022-07-26T08:24:22Z</time>
      </trkpt>
      <trkpt lat="45.66251" lon="6.68277">
        <ele>2351</ele>
        <time>2022-07-26T08:24:23Z</time>
      </trkpt>
      <trkpt lat="45.66251" lon="6.68277">
        <ele>2351</ele>
        <time>2022-07-26T08:24:24Z</time>
      </trkpt>
      <trkpt lat="45.66251" lon="6.68276">
        <ele>2351</ele>
        <time>2022-07-26T08:24:25Z</time>
      </trkpt>
      <trkpt lat="45.66251" lon="6.68275">
        <ele>2351</ele>
        <time>2022-07-26T08:24:26Z</time>
      </trkpt>
      <trkpt lat="45.66251" lon="6.68275">
        <ele>2352</ele>
        <time>2022-07-26T08:24:27Z</time>
      </trkpt>
      <trkpt lat="45.6625" lon="6.68274">
        <ele>2352</ele>
        <time>2022-07-26T08:24:28Z</time>
      </trkpt>
      <trkpt lat="45.6625" lon="6.68273">
        <ele>2352</ele>
        <time>2022-07-26T08:24:29Z</time>
      </trkpt>
      <trkpt lat="45.6625" lon="6.68273">
        <ele>2352</ele>
        <time>2022-07-26T08:24:30Z</time>
      </trkpt>
      <trkpt lat="45.66249" lon="6.68272">
        <ele>2352</ele>
        <time>2022-07-26T08:24:31Z</time>
      </trkpt>
      <trkpt lat="45.66249" lon="6.68271">
        <ele>2353</ele>
        <time>2022-07-26T08:24:32Z</time>
      </trkpt>
      <trkpt lat="45.66248" lon="6.68271">
        <ele>2353</ele>
        <time>2022-07-26T08:24:33Z</time>
      </trkpt>
      <trkpt lat="45.66248" lon="6.6827">
        <ele>2353</ele>
        <time>2022-07-26T08:24:34Z</time>
      </trkpt>
      <trkpt lat="45.66248" lon="6.68269">
        <ele>2353</ele>
        <time>2022-07-26T08:24:35Z</time>
      </trkpt>
      <trkpt lat="45.66247" lon="6.68268">
        <ele>2353</ele>
        <time>2022-07-26T08:24:36Z</time>
      </trkpt>
      <trkpt lat="45.66247" lon="6.68268">
        <ele>2354</ele>
        <time>2022-07-26T08:24:37Z</time>
      </trkpt>
      <trkpt lat="45.66246" lon="6.68267">
        <ele>2354</ele>
        <time>2022-07-26T08:24:38Z</time>
      </trkpt>
      <trkpt lat="45.66246" lon="6.68267">
        <ele>2354</ele>
        <time>2022-07-26T08:24:39Z</time>
      </trkpt>
      <trkpt lat="45.66245" lon="6.68266">
        <ele>2354</ele>
        <time>2022-07-26T08:24:40Z</time>
      </trkpt>
      <trkpt lat="45.66245" lon="6.68266">
        <ele>2354</ele>
        <time>2022-07-26T08:24:41Z</time>
      </trkpt>
      <trkpt lat="45.66244" lon="6.68265">
        <ele>2354</ele>
        <time>2022-07-26T08:24:42Z</time>
      </trkpt>
      <trkpt lat="45.66244" lon="6.68265">
        <ele>2354</ele>
        <time>2022-07-26T08:24:43Z</time>
      </trkpt>
      <trkpt lat="45.66243" lon="6.68264">
        <ele>2354</ele>
        <time>2022-07-26T08:24:44Z</time>
      </trkpt>
      <trkpt lat="45.66243" lon="6.68264">
        <ele>2354</ele>
        <time>2022-07-26T08:24:45Z</time>
      </trkpt>
      <trkpt lat="45.66242" lon="6.68263">
        <ele>2354</ele>
        <time>2022-07-26T08:24:46Z</time>
      </trkpt>
      <trkpt lat="45.66242" lon="6.68263">
        <ele>2355</ele>
        <time>2022-07-26T08:24:47Z</time>
      </trkpt>
      <trkpt lat="45.66241" lon="6.68262">
        <ele>2355</ele>
        <time>2022-07-26T08:24:48Z</time>
      </trkpt>
      <trkpt lat="45.66241" lon="6.68261">
        <ele>2355</ele>
        <time>2022-07-26T08:24:49Z</time>
      </trkpt>
      <trkpt lat="45.6624" lon="6.6826">
        <ele>2355</ele>
        <time>2022-07-26T08:24:50Z</time>
      </trkpt>
      <trkpt lat="45.6624" lon="6.68259">
        <ele>2355</ele>
        <time>2022-07-26T08:24:51Z</time>
      </trkpt>
      <trkpt lat="45.6624" lon="6.68259">
        <ele>2355</ele>
        <time>2022-07-26T08:24:52Z</time>
      </trkpt>
      <trkpt lat="45.66239" lon="6.68258">
        <ele>2355</ele>
        <time>2022-07-26T08:24:53Z</time>
      </trkpt>
      <trkpt lat="45.66239" lon="6.68257">
        <ele>2355</ele>
        <time>2022-07-26T08:24:54Z</time>
      </trkpt>
      <trkpt lat="45.66238" lon="6.68256">
        <ele>2355</ele>
        <time>2022-07-26T08:24:55Z</time>
      </trkpt>
      <trkpt lat="45.66238" lon="6.68255">
        <ele>2355</ele>
        <time>2022-07-26T08:24:56Z</time>
      </trkpt>
      <trkpt lat="45.66237" lon="6.68254">
        <ele>2356</ele>
        <time>2022-07-26T08:24:57Z</time>
      </trkpt>
      <trkpt lat="45.66237" lon="6.68253">
        <ele>2356</ele>
        <time>2022-07-26T08:24:58Z</time>
      </trkpt>
      <trkpt lat="45.66236" lon="6.68252">
        <ele>2356</ele>
        <time>2022-07-26T08:24:59Z</time>
      </trkpt>
      <trkpt lat="45.66236" lon="6.68251">
        <ele>2356</ele>
        <time>2022-07-26T08:25:00Z</time>
      </trkpt>
      <trkpt lat="45.66235" lon="6.6825">
        <ele>2356</ele>
        <time>2022-07-26T08:25:01Z</time>
      </trkpt>
      <trkpt lat="45.66234" lon="6.68249">
        <ele>2356</ele>
        <time>2022-07-26T08:25:02Z</time>
      </trkpt>
      <trkpt lat="45.66234" lon="6.68248">
        <ele>2356</ele>
        <time>2022-07-26T08:25:03Z</time>
      </trkpt>
      <trkpt lat="45.66233" lon="6.68247">
        <ele>2356</ele>
        <time>2022-07-26T08:25:04Z</time>
      </trkpt>
      <trkpt lat="45.66232" lon="6.68246">
        <ele>2356</ele>
        <time>2022-07-26T08:25:05Z</time>
      </trkpt>
      <trkpt lat="45.66232" lon="6.68245">
        <ele>2356</ele>
        <time>2022-07-26T08:25:06Z</time>
      </trkpt>
      <trkpt lat="45.66232" lon="6.68244">
        <ele>2357</ele>
        <time>2022-07-26T08:25:07Z</time>
      </trkpt>
      <trkpt lat="45.66231" lon="6.68242">
        <ele>2357</ele>
        <time>2022-07-26T08:25:08Z</time>
      </trkpt>
      <trkpt lat="45.66231" lon="6.68241">
        <ele>2357</ele>
        <time>2022-07-26T08:25:09Z</time>
      </trkpt>
      <trkpt lat="45.66231" lon="6.6824">
        <ele>2357</ele>
        <time>2022-07-26T08:25:10Z</time>
      </trkpt>
      <trkpt lat="45.6623" lon="6.68239">
        <ele>2357</ele>
        <time>2022-07-26T08:25:11Z</time>
      </trkpt>
      <trkpt lat="45.6623" lon="6.68238">
        <ele>2358</ele>
        <time>2022-07-26T08:25:12Z</time>
      </trkpt>
      <trkpt lat="45.6623" lon="6.68237">
        <ele>2358</ele>
        <time>2022-07-26T08:25:13Z</time>
      </trkpt>
      <trkpt lat="45.66229" lon="6.68236">
        <ele>2358</ele>
        <time>2022-07-26T08:25:14Z</time>
      </trkpt>
      <trkpt lat="45.66229" lon="6.68235">
        <ele>2358</ele>
        <time>2022-07-26T08:25:15Z</time>
      </trkpt>
      <trkpt lat="45.66228" lon="6.68234">
        <ele>2358</ele>
        <time>2022-07-26T08:25:16Z</time>
      </trkpt>
      <trkpt lat="45.66228" lon="6.68233">
        <ele>2358</ele>
        <time>2022-07-26T08:25:17Z</time>
      </trkpt>
      <trkpt lat="45.66228" lon="6.68232">
        <ele>2358</ele>
        <time>2022-07-26T08:25:18Z</time>
      </trkpt>
      <trkpt lat="45.66227" lon="6.68231">
        <ele>2358</ele>
        <time>2022-07-26T08:25:19Z</time>
      </trkpt>
      <trkpt lat="45.66227" lon="6.6823">
        <ele>2358</ele>
        <time>2022-07-26T08:25:20Z</time>
      </trkpt>
      <trkpt lat="45.66226" lon="6.68229">
        <ele>2358</ele>
        <time>2022-07-26T08:25:21Z</time>
      </trkpt>
      <trkpt lat="45.66226" lon="6.68229">
        <ele>2359</ele>
        <time>2022-07-26T08:25:22Z</time>
      </trkpt>
      <trkpt lat="45.66225" lon="6.68228">
        <ele>2359</ele>
        <time>2022-07-26T08:25:23Z</time>
      </trkpt>
      <trkpt lat="45.66224" lon="6.68227">
        <ele>2359</ele>
        <time>2022-07-26T08:25:24Z</time>
      </trkpt>
      <trkpt lat="45.66224" lon="6.68226">
        <ele>2359</ele>
        <time>2022-07-26T08:25:25Z</time>
      </trkpt>
      <trkpt lat="45.66223" lon="6.68225">
        <ele>2359</ele>
        <time>2022-07-26T08:25:26Z</time>
      </trkpt>
      <trkpt lat="45.66222" lon="6.68224">
        <ele>2359</ele>
        <time>2022-07-26T08:25:27Z</time>
      </trkpt>
      <trkpt lat="45.66222" lon="6.68223">
        <ele>2359</ele>
        <time>2022-07-26T08:25:28Z</time>
      </trkpt>
      <trkpt lat="45.66221" lon="6.68222">
        <ele>2359</ele>
        <time>2022-07-26T08:25:29Z</time>
      </trkpt>
      <trkpt lat="45.6622" lon="6.68221">
        <ele>2359</ele>
        <time>2022-07-26T08:25:30Z</time>
      </trkpt>
      <trkpt lat="45.6622" lon="6.6822">
        <ele>2359</ele>
        <time>2022-07-26T08:25:31Z</time>
      </trkpt>
      <trkpt lat="45.66219" lon="6.68219">
        <ele>2359</ele>
        <time>2022-07-26T08:25:32Z</time>
      </trkpt>
      <trkpt lat="45.66219" lon="6.68217">
        <ele>2359</ele>
        <time>2022-07-26T08:25:33Z</time>
      </trkpt>
      <trkpt lat="45.66218" lon="6.68216">
        <ele>2359</ele>
        <time>2022-07-26T08:25:34Z</time>
      </trkpt>
      <trkpt lat="45.66218" lon="6.68215">
        <ele>2359</ele>
        <time>2022-07-26T08:25:35Z</time>
      </trkpt>
      <trkpt lat="45.66218" lon="6.68214">
        <ele>2359</ele>
        <time>2022-07-26T08:25:36Z</time>
      </trkpt>
      <trkpt lat="45.66217" lon="6.68212">
        <ele>2360</ele>
        <time>2022-07-26T08:25:37Z</time>
      </trkpt>
      <trkpt lat="45.66217" lon="6.68211">
        <ele>2360</ele>
        <time>2022-07-26T08:25:38Z</time>
      </trkpt>
      <trkpt lat="45.66217" lon="6.6821">
        <ele>2360</ele>
        <time>2022-07-26T08:25:39Z</time>
      </trkpt>
      <trkpt lat="45.66216" lon="6.68208">
        <ele>2360</ele>
        <time>2022-07-26T08:25:40Z</time>
      </trkpt>
      <trkpt lat="45.66216" lon="6.68207">
        <ele>2360</ele>
        <time>2022-07-26T08:25:41Z</time>
      </trkpt>
      <trkpt lat="45.66216" lon="6.68206">
        <ele>2360</ele>
        <time>2022-07-26T08:25:42Z</time>
      </trkpt>
      <trkpt lat="45.66215" lon="6.68204">
        <ele>2360</ele>
        <time>2022-07-26T08:25:43Z</time>
      </trkpt>
      <trkpt lat="45.66215" lon="6.68203">
        <ele>2360</ele>
        <time>2022-07-26T08:25:44Z</time>
      </trkpt>
      <trkpt lat="45.66214" lon="6.68202">
        <ele>2360</ele>
        <time>2022-07-26T08:25:45Z</time>
      </trkpt>
      <trkpt lat="45.66214" lon="6.68201">
        <ele>2360</ele>
        <time>2022-07-26T08:25:46Z</time>
      </trkpt>
      <trkpt lat="45.66213" lon="6.682">
        <ele>2361</ele>
        <time>2022-07-26T08:25:47Z</time>
      </trkpt>
      <trkpt lat="45.66213" lon="6.68199">
        <ele>2361</ele>
        <time>2022-07-26T08:25:48Z</time>
      </trkpt>
      <trkpt lat="45.66212" lon="6.68198">
        <ele>2361</ele>
        <time>2022-07-26T08:25:49Z</time>
      </trkpt>
      <trkpt lat="45.66212" lon="6.68197">
        <ele>2361</ele>
        <time>2022-07-26T08:25:50Z</time>
      </trkpt>
      <trkpt lat="45.66211" lon="6.68196">
        <ele>2361</ele>
        <time>2022-07-26T08:25:51Z</time>
      </trkpt>
      <trkpt lat="45.66211" lon="6.68196">
        <ele>2361</ele>
        <time>2022-07-26T08:25:52Z</time>
      </trkpt>
      <trkpt lat="45.6621" lon="6.68195">
        <ele>2361</ele>
        <time>2022-07-26T08:25:53Z</time>
      </trkpt>
      <trkpt lat="45.6621" lon="6.68194">
        <ele>2361</ele>
        <time>2022-07-26T08:25:54Z</time>
      </trkpt>
      <trkpt lat="45.66209" lon="6.68194">
        <ele>2361</ele>
        <time>2022-07-26T08:25:55Z</time>
      </trkpt>
      <trkpt lat="45.66209" lon="6.68193">
        <ele>2361</ele>
        <time>2022-07-26T08:25:56Z</time>
      </trkpt>
      <trkpt lat="45.66208" lon="6.68192">
        <ele>2362</ele>
        <time>2022-07-26T08:25:57Z</time>
      </trkpt>
      <trkpt lat="45.66207" lon="6.68192">
        <ele>2362</ele>
        <time>2022-07-26T08:25:58Z</time>
      </trkpt>
      <trkpt lat="45.66207" lon="6.68191">
        <ele>2362</ele>
        <time>2022-07-26T08:25:59Z</time>
      </trkpt>
      <trkpt lat="45.66207" lon="6.6819">
        <ele>2362</ele>
        <time>2022-07-26T08:26:00Z</time>
      </trkpt>
      <trkpt lat="45.66206" lon="6.68189">
        <ele>2362</ele>
        <time>2022-07-26T08:26:01Z</time>
      </trkpt>
      <trkpt lat="45.66206" lon="6.68188">
        <ele>2362</ele>
        <time>2022-07-26T08:26:02Z</time>
      </trkpt>
      <trkpt lat="45.66205" lon="6.68187">
        <ele>2362</ele>
        <time>2022-07-26T08:26:03Z</time>
      </trkpt>
      <trkpt lat="45.66205" lon="6.68186">
        <ele>2362</ele>
        <time>2022-07-26T08:26:04Z</time>
      </trkpt>
      <trkpt lat="45.66204" lon="6.68185">
        <ele>2362</ele>
        <time>2022-07-26T08:26:05Z</time>
      </trkpt>
      <trkpt lat="45.66204" lon="6.68184">
        <ele>2362</ele>
        <time>2022-07-26T08:26:06Z</time>
      </trkpt>
      <trkpt lat="45.66203" lon="6.68184">
        <ele>2363</ele>
        <time>2022-07-26T08:26:07Z</time>
      </trkpt>
      <trkpt lat="45.66202" lon="6.68183">
        <ele>2363</ele>
        <time>2022-07-26T08:26:08Z</time>
      </trkpt>
      <trkpt lat="45.66202" lon="6.68182">
        <ele>2363</ele>
        <time>2022-07-26T08:26:09Z</time>
      </trkpt>
      <trkpt lat="45.66202" lon="6.68181">
        <ele>2363</ele>
        <time>2022-07-26T08:26:10Z</time>
      </trkpt>
      <trkpt lat="45.66201" lon="6.6818">
        <ele>2363</ele>
        <time>2022-07-26T08:26:11Z</time>
      </trkpt>
      <trkpt lat="45.66201" lon="6.68179">
        <ele>2363</ele>
        <time>2022-07-26T08:26:12Z</time>
      </trkpt>
      <trkpt lat="45.662" lon="6.68178">
        <ele>2363</ele>
        <time>2022-07-26T08:26:13Z</time>
      </trkpt>
      <trkpt lat="45.662" lon="6.68177">
        <ele>2363</ele>
        <time>2022-07-26T08:26:14Z</time>
      </trkpt>
      <trkpt lat="45.66199" lon="6.68176">
        <ele>2363</ele>
        <time>2022-07-26T08:26:15Z</time>
      </trkpt>
      <trkpt lat="45.66199" lon="6.68175">
        <ele>2363</ele>
        <time>2022-07-26T08:26:16Z</time>
      </trkpt>
      <trkpt lat="45.66199" lon="6.68174">
        <ele>2364</ele>
        <time>2022-07-26T08:26:17Z</time>
      </trkpt>
      <trkpt lat="45.66198" lon="6.68172">
        <ele>2364</ele>
        <time>2022-07-26T08:26:18Z</time>
      </trkpt>
      <trkpt lat="45.66198" lon="6.68171">
        <ele>2364</ele>
        <time>2022-07-26T08:26:19Z</time>
      </trkpt>
      <trkpt lat="45.66198" lon="6.6817">
        <ele>2364</ele>
        <time>2022-07-26T08:26:20Z</time>
      </trkpt>
      <trkpt lat="45.66197" lon="6.68169">
        <ele>2364</ele>
        <time>2022-07-26T08:26:21Z</time>
      </trkpt>
      <trkpt lat="45.66197" lon="6.68167">
        <ele>2364</ele>
        <time>2022-07-26T08:26:22Z</time>
      </trkpt>
      <trkpt lat="45.66197" lon="6.68166">
        <ele>2364</ele>
        <time>2022-07-26T08:26:23Z</time>
      </trkpt>
      <trkpt lat="45.66197" lon="6.68164">
        <ele>2364</ele>
        <time>2022-07-26T08:26:24Z</time>
      </trkpt>
      <trkpt lat="45.66197" lon="6.68163">
        <ele>2364</ele>
        <time>2022-07-26T08:26:25Z</time>
      </trkpt>
      <trkpt lat="45.66196" lon="6.68162">
        <ele>2364</ele>
        <time>2022-07-26T08:26:26Z</time>
      </trkpt>
      <trkpt lat="45.66196" lon="6.68161">
        <ele>2365</ele>
        <time>2022-07-26T08:26:27Z</time>
      </trkpt>
      <trkpt lat="45.66196" lon="6.6816">
        <ele>2365</ele>
        <time>2022-07-26T08:26:28Z</time>
      </trkpt>
      <trkpt lat="45.66195" lon="6.68159">
        <ele>2365</ele>
        <time>2022-07-26T08:26:29Z</time>
      </trkpt>
      <trkpt lat="45.66195" lon="6.68158">
        <ele>2365</ele>
        <time>2022-07-26T08:26:30Z</time>
      </trkpt>
      <trkpt lat="45.66195" lon="6.68157">
        <ele>2365</ele>
        <time>2022-07-26T08:26:31Z</time>
      </trkpt>
      <trkpt lat="45.66195" lon="6.68156">
        <ele>2365</ele>
        <time>2022-07-26T08:26:32Z</time>
      </trkpt>
      <trkpt lat="45.66195" lon="6.68155">
        <ele>2365</ele>
        <time>2022-07-26T08:26:33Z</time>
      </trkpt>
      <trkpt lat="45.66194" lon="6.68154">
        <ele>2365</ele>
        <time>2022-07-26T08:26:34Z</time>
      </trkpt>
      <trkpt lat="45.66194" lon="6.68153">
        <ele>2365</ele>
        <time>2022-07-26T08:26:35Z</time>
      </trkpt>
      <trkpt lat="45.66194" lon="6.68152">
        <ele>2365</ele>
        <time>2022-07-26T08:26:36Z</time>
      </trkpt>
      <trkpt lat="45.66194" lon="6.68151">
        <ele>2365</ele>
        <time>2022-07-26T08:26:37Z</time>
      </trkpt>
      <trkpt lat="45.66194" lon="6.6815">
        <ele>2365</ele>
        <time>2022-07-26T08:26:38Z</time>
      </trkpt>
      <trkpt lat="45.66193" lon="6.68149">
        <ele>2365</ele>
        <time>2022-07-26T08:26:39Z</time>
      </trkpt>
      <trkpt lat="45.66193" lon="6.68149">
        <ele>2366</ele>
        <time>2022-07-26T08:26:40Z</time>
      </trkpt>
      <trkpt lat="45.66193" lon="6.68149">
        <ele>2366</ele>
        <time>2022-07-26T08:26:41Z</time>
      </trkpt>
      <trkpt lat="45.66193" lon="6.68148">
        <ele>2367</ele>
        <time>2022-07-26T08:26:42Z</time>
      </trkpt>
      <trkpt lat="45.66193" lon="6.68147">
        <ele>2367</ele>
        <time>2022-07-26T08:26:43Z</time>
      </trkpt>
      <trkpt lat="45.66193" lon="6.68146">
        <ele>2367</ele>
        <time>2022-07-26T08:26:44Z</time>
      </trkpt>
      <trkpt lat="45.66193" lon="6.68145">
        <ele>2367</ele>
        <time>2022-07-26T08:26:45Z</time>
      </trkpt>
      <trkpt lat="45.66193" lon="6.68144">
        <ele>2367</ele>
        <time>2022-07-26T08:26:46Z</time>
      </trkpt>
      <trkpt lat="45.66193" lon="6.68143">
        <ele>2368</ele>
        <time>2022-07-26T08:26:47Z</time>
      </trkpt>
      <trkpt lat="45.66193" lon="6.68142">
        <ele>2368</ele>
        <time>2022-07-26T08:26:48Z</time>
      </trkpt>
      <trkpt lat="45.66192" lon="6.68141">
        <ele>2368</ele>
        <time>2022-07-26T08:26:49Z</time>
      </trkpt>
      <trkpt lat="45.66192" lon="6.6814">
        <ele>2368</ele>
        <time>2022-07-26T08:26:50Z</time>
      </trkpt>
      <trkpt lat="45.66192" lon="6.68139">
        <ele>2368</ele>
        <time>2022-07-26T08:26:51Z</time>
      </trkpt>
      <trkpt lat="45.66191" lon="6.68138">
        <ele>2368</ele>
        <time>2022-07-26T08:26:52Z</time>
      </trkpt>
      <trkpt lat="45.66191" lon="6.68137">
        <ele>2368</ele>
        <time>2022-07-26T08:26:53Z</time>
      </trkpt>
      <trkpt lat="45.6619" lon="6.68135">
        <ele>2368</ele>
        <time>2022-07-26T08:26:54Z</time>
      </trkpt>
      <trkpt lat="45.6619" lon="6.68134">
        <ele>2368</ele>
        <time>2022-07-26T08:26:55Z</time>
      </trkpt>
      <trkpt lat="45.66189" lon="6.68133">
        <ele>2368</ele>
        <time>2022-07-26T08:26:56Z</time>
      </trkpt>
      <trkpt lat="45.66188" lon="6.68132">
        <ele>2368</ele>
        <time>2022-07-26T08:26:57Z</time>
      </trkpt>
      <trkpt lat="45.66188" lon="6.68131">
        <ele>2368</ele>
        <time>2022-07-26T08:26:58Z</time>
      </trkpt>
      <trkpt lat="45.66187" lon="6.6813">
        <ele>2368</ele>
        <time>2022-07-26T08:26:59Z</time>
      </trkpt>
      <trkpt lat="45.66186" lon="6.6813">
        <ele>2368</ele>
        <time>2022-07-26T08:27:00Z</time>
      </trkpt>
      <trkpt lat="45.66186" lon="6.68129">
        <ele>2368</ele>
        <time>2022-07-26T08:27:01Z</time>
      </trkpt>
      <trkpt lat="45.66185" lon="6.68128">
        <ele>2368</ele>
        <time>2022-07-26T08:27:02Z</time>
      </trkpt>
      <trkpt lat="45.66184" lon="6.68127">
        <ele>2368</ele>
        <time>2022-07-26T08:27:03Z</time>
      </trkpt>
      <trkpt lat="45.66184" lon="6.68126">
        <ele>2368</ele>
        <time>2022-07-26T08:27:04Z</time>
      </trkpt>
      <trkpt lat="45.66183" lon="6.68126">
        <ele>2368</ele>
        <time>2022-07-26T08:27:05Z</time>
      </trkpt>
      <trkpt lat="45.66183" lon="6.68125">
        <ele>2368</ele>
        <time>2022-07-26T08:27:06Z</time>
      </trkpt>
      <trkpt lat="45.66183" lon="6.68125">
        <ele>2369</ele>
        <time>2022-07-26T08:27:07Z</time>
      </trkpt>
      <trkpt lat="45.66182" lon="6.68124">
        <ele>2369</ele>
        <time>2022-07-26T08:27:08Z</time>
      </trkpt>
      <trkpt lat="45.66182" lon="6.68124">
        <ele>2369</ele>
        <time>2022-07-26T08:27:09Z</time>
      </trkpt>
      <trkpt lat="45.66182" lon="6.68123">
        <ele>2369</ele>
        <time>2022-07-26T08:27:10Z</time>
      </trkpt>
      <trkpt lat="45.66181" lon="6.68123">
        <ele>2369</ele>
        <time>2022-07-26T08:27:11Z</time>
      </trkpt>
      <trkpt lat="45.66181" lon="6.68122">
        <ele>2369</ele>
        <time>2022-07-26T08:27:12Z</time>
      </trkpt>
      <trkpt lat="45.6618" lon="6.68122">
        <ele>2369</ele>
        <time>2022-07-26T08:27:13Z</time>
      </trkpt>
      <trkpt lat="45.66179" lon="6.68122">
        <ele>2369</ele>
        <time>2022-07-26T08:27:14Z</time>
      </trkpt>
      <trkpt lat="45.66179" lon="6.68121">
        <ele>2369</ele>
        <time>2022-07-26T08:27:15Z</time>
      </trkpt>
      <trkpt lat="45.66178" lon="6.68121">
        <ele>2369</ele>
        <time>2022-07-26T08:27:16Z</time>
      </trkpt>
      <trkpt lat="45.66177" lon="6.6812">
        <ele>2369</ele>
        <time>2022-07-26T08:27:17Z</time>
      </trkpt>
      <trkpt lat="45.66177" lon="6.68119">
        <ele>2369</ele>
        <time>2022-07-26T08:27:18Z</time>
      </trkpt>
      <trkpt lat="45.66176" lon="6.68119">
        <ele>2369</ele>
        <time>2022-07-26T08:27:19Z</time>
      </trkpt>
      <trkpt lat="45.66175" lon="6.68118">
        <ele>2369</ele>
        <time>2022-07-26T08:27:20Z</time>
      </trkpt>
      <trkpt lat="45.66174" lon="6.68117">
        <ele>2369</ele>
        <time>2022-07-26T08:27:21Z</time>
      </trkpt>
      <trkpt lat="45.66173" lon="6.68116">
        <ele>2370</ele>
        <time>2022-07-26T08:27:22Z</time>
      </trkpt>
      <trkpt lat="45.66172" lon="6.68116">
        <ele>2370</ele>
        <time>2022-07-26T08:27:23Z</time>
      </trkpt>
      <trkpt lat="45.66171" lon="6.68115">
        <ele>2370</ele>
        <time>2022-07-26T08:27:24Z</time>
      </trkpt>
      <trkpt lat="45.66171" lon="6.68114">
        <ele>2370</ele>
        <time>2022-07-26T08:27:25Z</time>
      </trkpt>
      <trkpt lat="45.6617" lon="6.68114">
        <ele>2370</ele>
        <time>2022-07-26T08:27:26Z</time>
      </trkpt>
      <trkpt lat="45.66169" lon="6.68113">
        <ele>2370</ele>
        <time>2022-07-26T08:27:27Z</time>
      </trkpt>
      <trkpt lat="45.66169" lon="6.68113">
        <ele>2370</ele>
        <time>2022-07-26T08:27:28Z</time>
      </trkpt>
      <trkpt lat="45.66168" lon="6.68112">
        <ele>2370</ele>
        <time>2022-07-26T08:27:29Z</time>
      </trkpt>
      <trkpt lat="45.66167" lon="6.68112">
        <ele>2370</ele>
        <time>2022-07-26T08:27:30Z</time>
      </trkpt>
      <trkpt lat="45.66167" lon="6.68111">
        <ele>2370</ele>
        <time>2022-07-26T08:27:31Z</time>
      </trkpt>
      <trkpt lat="45.66166" lon="6.68111">
        <ele>2370</ele>
        <time>2022-07-26T08:27:32Z</time>
      </trkpt>
      <trkpt lat="45.66166" lon="6.6811">
        <ele>2370</ele>
        <time>2022-07-26T08:27:33Z</time>
      </trkpt>
      <trkpt lat="45.66165" lon="6.6811">
        <ele>2370</ele>
        <time>2022-07-26T08:27:34Z</time>
      </trkpt>
      <trkpt lat="45.66164" lon="6.68109">
        <ele>2370</ele>
        <time>2022-07-26T08:27:35Z</time>
      </trkpt>
      <trkpt lat="45.66164" lon="6.68108">
        <ele>2370</ele>
        <time>2022-07-26T08:27:36Z</time>
      </trkpt>
      <trkpt lat="45.66164" lon="6.68108">
        <ele>2371</ele>
        <time>2022-07-26T08:27:37Z</time>
      </trkpt>
      <trkpt lat="45.66163" lon="6.68107">
        <ele>2371</ele>
        <time>2022-07-26T08:27:38Z</time>
      </trkpt>
      <trkpt lat="45.66163" lon="6.68106">
        <ele>2371</ele>
        <time>2022-07-26T08:27:39Z</time>
      </trkpt>
      <trkpt lat="45.66163" lon="6.68106">
        <ele>2371</ele>
        <time>2022-07-26T08:27:40Z</time>
      </trkpt>
      <trkpt lat="45.66163" lon="6.68106">
        <ele>2371</ele>
        <time>2022-07-26T08:27:41Z</time>
      </trkpt>
      <trkpt lat="45.66162" lon="6.68105">
        <ele>2371</ele>
        <time>2022-07-26T08:27:42Z</time>
      </trkpt>
      <trkpt lat="45.66162" lon="6.68105">
        <ele>2371</ele>
        <time>2022-07-26T08:27:43Z</time>
      </trkpt>
      <trkpt lat="45.66162" lon="6.68105">
        <ele>2371</ele>
        <time>2022-07-26T08:27:44Z</time>
      </trkpt>
      <trkpt lat="45.66162" lon="6.68104">
        <ele>2371</ele>
        <time>2022-07-26T08:27:45Z</time>
      </trkpt>
      <trkpt lat="45.66162" lon="6.68103">
        <ele>2371</ele>
        <time>2022-07-26T08:27:46Z</time>
      </trkpt>
      <trkpt lat="45.66161" lon="6.68102">
        <ele>2372</ele>
        <time>2022-07-26T08:27:47Z</time>
      </trkpt>
      <trkpt lat="45.66161" lon="6.68102">
        <ele>2372</ele>
        <time>2022-07-26T08:27:48Z</time>
      </trkpt>
      <trkpt lat="45.6616" lon="6.68101">
        <ele>2372</ele>
        <time>2022-07-26T08:27:49Z</time>
      </trkpt>
      <trkpt lat="45.6616" lon="6.68101">
        <ele>2372</ele>
        <time>2022-07-26T08:27:50Z</time>
      </trkpt>
      <trkpt lat="45.66159" lon="6.681">
        <ele>2372</ele>
        <time>2022-07-26T08:27:51Z</time>
      </trkpt>
      <trkpt lat="45.66158" lon="6.68099">
        <ele>2374</ele>
        <time>2022-07-26T08:28:01Z</time>
      </trkpt>
      <trkpt lat="45.66158" lon="6.68098">
        <ele>2374</ele>
        <time>2022-07-26T08:28:02Z</time>
      </trkpt>
      <trkpt lat="45.66157" lon="6.68098">
        <ele>2374</ele>
        <time>2022-07-26T08:28:03Z</time>
      </trkpt>
      <trkpt lat="45.66157" lon="6.68097">
        <ele>2374</ele>
        <time>2022-07-26T08:28:04Z</time>
      </trkpt>
      <trkpt lat="45.66157" lon="6.68096">
        <ele>2374</ele>
        <time>2022-07-26T08:28:05Z</time>
      </trkpt>
      <trkpt lat="45.66156" lon="6.68096">
        <ele>2374</ele>
        <time>2022-07-26T08:28:06Z</time>
      </trkpt>
      <trkpt lat="45.66156" lon="6.68095">
        <ele>2374</ele>
        <time>2022-07-26T08:28:07Z</time>
      </trkpt>
      <trkpt lat="45.66155" lon="6.68094">
        <ele>2374</ele>
        <time>2022-07-26T08:28:08Z</time>
      </trkpt>
      <trkpt lat="45.66155" lon="6.68093">
        <ele>2374</ele>
        <time>2022-07-26T08:28:09Z</time>
      </trkpt>
      <trkpt lat="45.66155" lon="6.68092">
        <ele>2374</ele>
        <time>2022-07-26T08:28:10Z</time>
      </trkpt>
      <trkpt lat="45.66154" lon="6.68092">
        <ele>2374</ele>
        <time>2022-07-26T08:28:11Z</time>
      </trkpt>
      <trkpt lat="45.66154" lon="6.68091">
        <ele>2375</ele>
        <time>2022-07-26T08:28:12Z</time>
      </trkpt>
      <trkpt lat="45.66153" lon="6.6809">
        <ele>2375</ele>
        <time>2022-07-26T08:28:13Z</time>
      </trkpt>
      <trkpt lat="45.66153" lon="6.68089">
        <ele>2375</ele>
        <time>2022-07-26T08:28:14Z</time>
      </trkpt>
      <trkpt lat="45.66152" lon="6.68089">
        <ele>2375</ele>
        <time>2022-07-26T08:28:15Z</time>
      </trkpt>
      <trkpt lat="45.66152" lon="6.68088">
        <ele>2375</ele>
        <time>2022-07-26T08:28:16Z</time>
      </trkpt>
      <trkpt lat="45.66152" lon="6.68087">
        <ele>2376</ele>
        <time>2022-07-26T08:28:17Z</time>
      </trkpt>
      <trkpt lat="45.66152" lon="6.68085">
        <ele>2376</ele>
        <time>2022-07-26T08:28:18Z</time>
      </trkpt>
      <trkpt lat="45.66151" lon="6.68084">
        <ele>2376</ele>
        <time>2022-07-26T08:28:19Z</time>
      </trkpt>
      <trkpt lat="45.66151" lon="6.68083">
        <ele>2376</ele>
        <time>2022-07-26T08:28:20Z</time>
      </trkpt>
      <trkpt lat="45.66151" lon="6.68081">
        <ele>2376</ele>
        <time>2022-07-26T08:28:21Z</time>
      </trkpt>
      <trkpt lat="45.66151" lon="6.6808">
        <ele>2377</ele>
        <time>2022-07-26T08:28:22Z</time>
      </trkpt>
      <trkpt lat="45.66152" lon="6.68079">
        <ele>2377</ele>
        <time>2022-07-26T08:28:23Z</time>
      </trkpt>
      <trkpt lat="45.66152" lon="6.68077">
        <ele>2377</ele>
        <time>2022-07-26T08:28:24Z</time>
      </trkpt>
      <trkpt lat="45.66152" lon="6.68076">
        <ele>2377</ele>
        <time>2022-07-26T08:28:25Z</time>
      </trkpt>
      <trkpt lat="45.66152" lon="6.68075">
        <ele>2377</ele>
        <time>2022-07-26T08:28:26Z</time>
      </trkpt>
      <trkpt lat="45.66151" lon="6.68074">
        <ele>2377</ele>
        <time>2022-07-26T08:28:27Z</time>
      </trkpt>
      <trkpt lat="45.66151" lon="6.68073">
        <ele>2377</ele>
        <time>2022-07-26T08:28:28Z</time>
      </trkpt>
      <trkpt lat="45.6615" lon="6.68072">
        <ele>2377</ele>
        <time>2022-07-26T08:28:29Z</time>
      </trkpt>
      <trkpt lat="45.6615" lon="6.68071">
        <ele>2377</ele>
        <time>2022-07-26T08:28:30Z</time>
      </trkpt>
      <trkpt lat="45.66149" lon="6.6807">
        <ele>2377</ele>
        <time>2022-07-26T08:28:31Z</time>
      </trkpt>
      <trkpt lat="45.66149" lon="6.6807">
        <ele>2377</ele>
        <time>2022-07-26T08:28:32Z</time>
      </trkpt>
      <trkpt lat="45.66148" lon="6.68069">
        <ele>2377</ele>
        <time>2022-07-26T08:28:33Z</time>
      </trkpt>
      <trkpt lat="45.66148" lon="6.68068">
        <ele>2377</ele>
        <time>2022-07-26T08:28:34Z</time>
      </trkpt>
      <trkpt lat="45.66147" lon="6.68067">
        <ele>2377</ele>
        <time>2022-07-26T08:28:35Z</time>
      </trkpt>
      <trkpt lat="45.66146" lon="6.68067">
        <ele>2377</ele>
        <time>2022-07-26T08:28:36Z</time>
      </trkpt>
      <trkpt lat="45.66146" lon="6.68066">
        <ele>2378</ele>
        <time>2022-07-26T08:28:37Z</time>
      </trkpt>
      <trkpt lat="45.66145" lon="6.68066">
        <ele>2378</ele>
        <time>2022-07-26T08:28:38Z</time>
      </trkpt>
      <trkpt lat="45.66144" lon="6.68065">
        <ele>2378</ele>
        <time>2022-07-26T08:28:39Z</time>
      </trkpt>
      <trkpt lat="45.66143" lon="6.68065">
        <ele>2378</ele>
        <time>2022-07-26T08:28:40Z</time>
      </trkpt>
      <trkpt lat="45.66142" lon="6.68065">
        <ele>2378</ele>
        <time>2022-07-26T08:28:41Z</time>
      </trkpt>
      <trkpt lat="45.66141" lon="6.68065">
        <ele>2378</ele>
        <time>2022-07-26T08:28:42Z</time>
      </trkpt>
      <trkpt lat="45.66141" lon="6.68064">
        <ele>2378</ele>
        <time>2022-07-26T08:28:43Z</time>
      </trkpt>
      <trkpt lat="45.6614" lon="6.68064">
        <ele>2378</ele>
        <time>2022-07-26T08:28:44Z</time>
      </trkpt>
      <trkpt lat="45.66139" lon="6.68064">
        <ele>2378</ele>
        <time>2022-07-26T08:28:45Z</time>
      </trkpt>
      <trkpt lat="45.66138" lon="6.68063">
        <ele>2378</ele>
        <time>2022-07-26T08:28:46Z</time>
      </trkpt>
      <trkpt lat="45.66137" lon="6.68063">
        <ele>2379</ele>
        <time>2022-07-26T08:28:47Z</time>
      </trkpt>
      <trkpt lat="45.66136" lon="6.68063">
        <ele>2379</ele>
        <time>2022-07-26T08:28:48Z</time>
      </trkpt>
      <trkpt lat="45.66135" lon="6.68062">
        <ele>2379</ele>
        <time>2022-07-26T08:28:49Z</time>
      </trkpt>
      <trkpt lat="45.66135" lon="6.68061">
        <ele>2379</ele>
        <time>2022-07-26T08:28:50Z</time>
      </trkpt>
      <trkpt lat="45.66134" lon="6.68061">
        <ele>2379</ele>
        <time>2022-07-26T08:28:51Z</time>
      </trkpt>
      <trkpt lat="45.66133" lon="6.6806">
        <ele>2379</ele>
        <time>2022-07-26T08:28:52Z</time>
      </trkpt>
      <trkpt lat="45.66132" lon="6.68059">
        <ele>2379</ele>
        <time>2022-07-26T08:28:53Z</time>
      </trkpt>
      <trkpt lat="45.66132" lon="6.68058">
        <ele>2379</ele>
        <time>2022-07-26T08:28:54Z</time>
      </trkpt>
      <trkpt lat="45.66131" lon="6.68057">
        <ele>2379</ele>
        <time>2022-07-26T08:28:55Z</time>
      </trkpt>
      <trkpt lat="45.6613" lon="6.68057">
        <ele>2379</ele>
        <time>2022-07-26T08:28:56Z</time>
      </trkpt>
      <trkpt lat="45.66129" lon="6.68056">
        <ele>2379</ele>
        <time>2022-07-26T08:28:57Z</time>
      </trkpt>
      <trkpt lat="45.66129" lon="6.68055">
        <ele>2379</ele>
        <time>2022-07-26T08:28:58Z</time>
      </trkpt>
      <trkpt lat="45.66128" lon="6.68054">
        <ele>2379</ele>
        <time>2022-07-26T08:28:59Z</time>
      </trkpt>
      <trkpt lat="45.66127" lon="6.68053">
        <ele>2379</ele>
        <time>2022-07-26T08:29:00Z</time>
      </trkpt>
      <trkpt lat="45.66126" lon="6.68052">
        <ele>2379</ele>
        <time>2022-07-26T08:29:01Z</time>
      </trkpt>
      <trkpt lat="45.66126" lon="6.68051">
        <ele>2380</ele>
        <time>2022-07-26T08:29:02Z</time>
      </trkpt>
      <trkpt lat="45.66125" lon="6.6805">
        <ele>2380</ele>
        <time>2022-07-26T08:29:03Z</time>
      </trkpt>
      <trkpt lat="45.66124" lon="6.6805">
        <ele>2380</ele>
        <time>2022-07-26T08:29:04Z</time>
      </trkpt>
      <trkpt lat="45.66124" lon="6.68049">
        <ele>2380</ele>
        <time>2022-07-26T08:29:05Z</time>
      </trkpt>
      <trkpt lat="45.66123" lon="6.68048">
        <ele>2380</ele>
        <time>2022-07-26T08:29:06Z</time>
      </trkpt>
      <trkpt lat="45.66122" lon="6.68047">
        <ele>2380</ele>
        <time>2022-07-26T08:29:07Z</time>
      </trkpt>
      <trkpt lat="45.66121" lon="6.68047">
        <ele>2380</ele>
        <time>2022-07-26T08:29:08Z</time>
      </trkpt>
      <trkpt lat="45.6612" lon="6.68046">
        <ele>2380</ele>
        <time>2022-07-26T08:29:09Z</time>
      </trkpt>
      <trkpt lat="45.66119" lon="6.68045">
        <ele>2380</ele>
        <time>2022-07-26T08:29:10Z</time>
      </trkpt>
      <trkpt lat="45.66118" lon="6.68045">
        <ele>2380</ele>
        <time>2022-07-26T08:29:11Z</time>
      </trkpt>
      <trkpt lat="45.66118" lon="6.68044">
        <ele>2380</ele>
        <time>2022-07-26T08:29:12Z</time>
      </trkpt>
      <trkpt lat="45.66117" lon="6.68043">
        <ele>2380</ele>
        <time>2022-07-26T08:29:13Z</time>
      </trkpt>
      <trkpt lat="45.66116" lon="6.68043">
        <ele>2380</ele>
        <time>2022-07-26T08:29:14Z</time>
      </trkpt>
      <trkpt lat="45.66116" lon="6.68042">
        <ele>2380</ele>
        <time>2022-07-26T08:29:15Z</time>
      </trkpt>
      <trkpt lat="45.66115" lon="6.68042">
        <ele>2380</ele>
        <time>2022-07-26T08:29:16Z</time>
      </trkpt>
      <trkpt lat="45.66114" lon="6.68041">
        <ele>2381</ele>
        <time>2022-07-26T08:29:17Z</time>
      </trkpt>
      <trkpt lat="45.66114" lon="6.68041">
        <ele>2381</ele>
        <time>2022-07-26T08:29:18Z</time>
      </trkpt>
      <trkpt lat="45.66114" lon="6.68041">
        <ele>2381</ele>
        <time>2022-07-26T08:29:19Z</time>
      </trkpt>
      <trkpt lat="45.66114" lon="6.68041">
        <ele>2381</ele>
        <time>2022-07-26T08:29:20Z</time>
      </trkpt>
      <trkpt lat="45.66113" lon="6.68041">
        <ele>2381</ele>
        <time>2022-07-26T08:29:21Z</time>
      </trkpt>
      <trkpt lat="45.66113" lon="6.68041">
        <ele>2381</ele>
        <time>2022-07-26T08:29:22Z</time>
      </trkpt>
      <trkpt lat="45.66112" lon="6.68041">
        <ele>2381</ele>
        <time>2022-07-26T08:29:23Z</time>
      </trkpt>
      <trkpt lat="45.66112" lon="6.68041">
        <ele>2381</ele>
        <time>2022-07-26T08:29:24Z</time>
      </trkpt>
      <trkpt lat="45.66112" lon="6.68041">
        <ele>2381</ele>
        <time>2022-07-26T08:29:25Z</time>
      </trkpt>
      <trkpt lat="45.66111" lon="6.68042">
        <ele>2381</ele>
        <time>2022-07-26T08:29:26Z</time>
      </trkpt>
      <trkpt lat="45.66111" lon="6.68042">
        <ele>2381</ele>
        <time>2022-07-26T08:29:27Z</time>
      </trkpt>
      <trkpt lat="45.66111" lon="6.68042">
        <ele>2381</ele>
        <time>2022-07-26T08:29:28Z</time>
      </trkpt>
      <trkpt lat="45.6611" lon="6.68042">
        <ele>2381</ele>
        <time>2022-07-26T08:29:29Z</time>
      </trkpt>
      <trkpt lat="45.66108" lon="6.68042">
        <ele>2382</ele>
        <time>2022-07-26T08:31:37Z</time>
      </trkpt>
      <trkpt lat="45.66107" lon="6.68041">
        <ele>2382</ele>
        <time>2022-07-26T08:31:38Z</time>
      </trkpt>
      <trkpt lat="45.66106" lon="6.6804">
        <ele>2382</ele>
        <time>2022-07-26T08:31:39Z</time>
      </trkpt>
      <trkpt lat="45.66106" lon="6.6804">
        <ele>2382</ele>
        <time>2022-07-26T08:31:40Z</time>
      </trkpt>
      <trkpt lat="45.66105" lon="6.68039">
        <ele>2382</ele>
        <time>2022-07-26T08:31:41Z</time>
      </trkpt>
      <trkpt lat="45.66104" lon="6.68038">
        <ele>2382</ele>
        <time>2022-07-26T08:31:42Z</time>
      </trkpt>
      <trkpt lat="45.66104" lon="6.68037">
        <ele>2382</ele>
        <time>2022-07-26T08:31:43Z</time>
      </trkpt>
      <trkpt lat="45.66103" lon="6.68037">
        <ele>2382</ele>
        <time>2022-07-26T08:31:44Z</time>
      </trkpt>
      <trkpt lat="45.66103" lon="6.68036">
        <ele>2382</ele>
        <time>2022-07-26T08:31:45Z</time>
      </trkpt>
      <trkpt lat="45.66102" lon="6.68035">
        <ele>2382</ele>
        <time>2022-07-26T08:31:46Z</time>
      </trkpt>
      <trkpt lat="45.66102" lon="6.68034">
        <ele>2382</ele>
        <time>2022-07-26T08:31:47Z</time>
      </trkpt>
      <trkpt lat="45.66101" lon="6.68033">
        <ele>2382</ele>
        <time>2022-07-26T08:31:48Z</time>
      </trkpt>
      <trkpt lat="45.66101" lon="6.68033">
        <ele>2382</ele>
        <time>2022-07-26T08:31:49Z</time>
      </trkpt>
      <trkpt lat="45.66101" lon="6.68032">
        <ele>2382</ele>
        <time>2022-07-26T08:31:50Z</time>
      </trkpt>
      <trkpt lat="45.66101" lon="6.68032">
        <ele>2382</ele>
        <time>2022-07-26T08:31:51Z</time>
      </trkpt>
      <trkpt lat="45.661" lon="6.68031">
        <ele>2382</ele>
        <time>2022-07-26T08:31:52Z</time>
      </trkpt>
      <trkpt lat="45.661" lon="6.6803">
        <ele>2382</ele>
        <time>2022-07-26T08:31:53Z</time>
      </trkpt>
      <trkpt lat="45.66099" lon="6.68029">
        <ele>2382</ele>
        <time>2022-07-26T08:31:54Z</time>
      </trkpt>
      <trkpt lat="45.66099" lon="6.68029">
        <ele>2382</ele>
        <time>2022-07-26T08:31:55Z</time>
      </trkpt>
      <trkpt lat="45.66098" lon="6.68028">
        <ele>2382</ele>
        <time>2022-07-26T08:31:56Z</time>
      </trkpt>
      <trkpt lat="45.66098" lon="6.68027">
        <ele>2383</ele>
        <time>2022-07-26T08:31:57Z</time>
      </trkpt>
      <trkpt lat="45.66097" lon="6.68027">
        <ele>2383</ele>
        <time>2022-07-26T08:31:58Z</time>
      </trkpt>
      <trkpt lat="45.66097" lon="6.68027">
        <ele>2383</ele>
        <time>2022-07-26T08:31:59Z</time>
      </trkpt>
      <trkpt lat="45.66096" lon="6.68026">
        <ele>2383</ele>
        <time>2022-07-26T08:32:00Z</time>
      </trkpt>
      <trkpt lat="45.66096" lon="6.68026">
        <ele>2383</ele>
        <time>2022-07-26T08:32:01Z</time>
      </trkpt>
      <trkpt lat="45.66095" lon="6.68025">
        <ele>2383</ele>
        <time>2022-07-26T08:32:02Z</time>
      </trkpt>
      <trkpt lat="45.66095" lon="6.68025">
        <ele>2383</ele>
        <time>2022-07-26T08:32:03Z</time>
      </trkpt>
      <trkpt lat="45.66095" lon="6.68024">
        <ele>2383</ele>
        <time>2022-07-26T08:32:04Z</time>
      </trkpt>
      <trkpt lat="45.66094" lon="6.68023">
        <ele>2383</ele>
        <time>2022-07-26T08:32:05Z</time>
      </trkpt>
      <trkpt lat="45.66094" lon="6.68022">
        <ele>2383</ele>
        <time>2022-07-26T08:32:06Z</time>
      </trkpt>
      <trkpt lat="45.66094" lon="6.68022">
        <ele>2384</ele>
        <time>2022-07-26T08:32:07Z</time>
      </trkpt>
      <trkpt lat="45.66094" lon="6.68021">
        <ele>2384</ele>
        <time>2022-07-26T08:32:08Z</time>
      </trkpt>
      <trkpt lat="45.66094" lon="6.6802">
        <ele>2384</ele>
        <time>2022-07-26T08:32:09Z</time>
      </trkpt>
      <trkpt lat="45.66094" lon="6.68019">
        <ele>2384</ele>
        <time>2022-07-26T08:32:10Z</time>
      </trkpt>
      <trkpt lat="45.66093" lon="6.68017">
        <ele>2385</ele>
        <time>2022-07-26T08:32:17Z</time>
      </trkpt>
      <trkpt lat="45.66092" lon="6.68016">
        <ele>2385</ele>
        <time>2022-07-26T08:32:18Z</time>
      </trkpt>
      <trkpt lat="45.66091" lon="6.68015">
        <ele>2385</ele>
        <time>2022-07-26T08:32:19Z</time>
      </trkpt>
      <trkpt lat="45.66091" lon="6.68015">
        <ele>2385</ele>
        <time>2022-07-26T08:32:20Z</time>
      </trkpt>
      <trkpt lat="45.6609" lon="6.68014">
        <ele>2385</ele>
        <time>2022-07-26T08:32:21Z</time>
      </trkpt>
      <trkpt lat="45.6609" lon="6.68013">
        <ele>2386</ele>
        <time>2022-07-26T08:32:22Z</time>
      </trkpt>
      <trkpt lat="45.66089" lon="6.68013">
        <ele>2386</ele>
        <time>2022-07-26T08:32:23Z</time>
      </trkpt>
      <trkpt lat="45.66089" lon="6.68013">
        <ele>2386</ele>
        <time>2022-07-26T08:32:24Z</time>
      </trkpt>
      <trkpt lat="45.66088" lon="6.68012">
        <ele>2386</ele>
        <time>2022-07-26T08:32:25Z</time>
      </trkpt>
      <trkpt lat="45.66088" lon="6.68011">
        <ele>2386</ele>
        <time>2022-07-26T08:32:26Z</time>
      </trkpt>
      <trkpt lat="45.66087" lon="6.68011">
        <ele>2386</ele>
        <time>2022-07-26T08:32:27Z</time>
      </trkpt>
      <trkpt lat="45.66087" lon="6.6801">
        <ele>2386</ele>
        <time>2022-07-26T08:32:28Z</time>
      </trkpt>
      <trkpt lat="45.66086" lon="6.68009">
        <ele>2386</ele>
        <time>2022-07-26T08:32:29Z</time>
      </trkpt>
      <trkpt lat="45.66086" lon="6.68008">
        <ele>2386</ele>
        <time>2022-07-26T08:32:30Z</time>
      </trkpt>
      <trkpt lat="45.66086" lon="6.68007">
        <ele>2386</ele>
        <time>2022-07-26T08:32:31Z</time>
      </trkpt>
      <trkpt lat="45.66086" lon="6.68005">
        <ele>2387</ele>
        <time>2022-07-26T08:32:32Z</time>
      </trkpt>
      <trkpt lat="45.66086" lon="6.68004">
        <ele>2387</ele>
        <time>2022-07-26T08:32:33Z</time>
      </trkpt>
      <trkpt lat="45.66085" lon="6.68003">
        <ele>2387</ele>
        <time>2022-07-26T08:32:34Z</time>
      </trkpt>
      <trkpt lat="45.66085" lon="6.68002">
        <ele>2387</ele>
        <time>2022-07-26T08:32:35Z</time>
      </trkpt>
      <trkpt lat="45.66084" lon="6.68001">
        <ele>2387</ele>
        <time>2022-07-26T08:32:36Z</time>
      </trkpt>
      <trkpt lat="45.66084" lon="6.68">
        <ele>2387</ele>
        <time>2022-07-26T08:32:37Z</time>
      </trkpt>
      <trkpt lat="45.66083" lon="6.67999">
        <ele>2386</ele>
        <time>2022-07-26T08:32:38Z</time>
      </trkpt>
      <trkpt lat="45.66082" lon="6.67999">
        <ele>2386</ele>
        <time>2022-07-26T08:32:39Z</time>
      </trkpt>
      <trkpt lat="45.66081" lon="6.67998">
        <ele>2386</ele>
        <time>2022-07-26T08:32:40Z</time>
      </trkpt>
      <trkpt lat="45.66081" lon="6.67998">
        <ele>2386</ele>
        <time>2022-07-26T08:32:41Z</time>
      </trkpt>
      <trkpt lat="45.6608" lon="6.67997">
        <ele>2386</ele>
        <time>2022-07-26T08:32:42Z</time>
      </trkpt>
      <trkpt lat="45.6608" lon="6.67997">
        <ele>2386</ele>
        <time>2022-07-26T08:32:43Z</time>
      </trkpt>
      <trkpt lat="45.6608" lon="6.67996">
        <ele>2386</ele>
        <time>2022-07-26T08:32:44Z</time>
      </trkpt>
      <trkpt lat="45.66079" lon="6.67996">
        <ele>2386</ele>
        <time>2022-07-26T08:32:45Z</time>
      </trkpt>
      <trkpt lat="45.66079" lon="6.67995">
        <ele>2386</ele>
        <time>2022-07-26T08:32:46Z</time>
      </trkpt>
      <trkpt lat="45.66078" lon="6.67994">
        <ele>2387</ele>
        <time>2022-07-26T08:32:47Z</time>
      </trkpt>
      <trkpt lat="45.66078" lon="6.67994">
        <ele>2387</ele>
        <time>2022-07-26T08:32:48Z</time>
      </trkpt>
      <trkpt lat="45.66077" lon="6.67993">
        <ele>2387</ele>
        <time>2022-07-26T08:32:49Z</time>
      </trkpt>
      <trkpt lat="45.66077" lon="6.67992">
        <ele>2387</ele>
        <time>2022-07-26T08:32:50Z</time>
      </trkpt>
      <trkpt lat="45.66077" lon="6.67992">
        <ele>2387</ele>
        <time>2022-07-26T08:32:51Z</time>
      </trkpt>
      <trkpt lat="45.66077" lon="6.67991">
        <ele>2387</ele>
        <time>2022-07-26T08:32:52Z</time>
      </trkpt>
      <trkpt lat="45.66076" lon="6.6799">
        <ele>2387</ele>
        <time>2022-07-26T08:32:53Z</time>
      </trkpt>
      <trkpt lat="45.66076" lon="6.6799">
        <ele>2387</ele>
        <time>2022-07-26T08:32:54Z</time>
      </trkpt>
      <trkpt lat="45.66076" lon="6.67989">
        <ele>2387</ele>
        <time>2022-07-26T08:32:55Z</time>
      </trkpt>
      <trkpt lat="45.66075" lon="6.67989">
        <ele>2387</ele>
        <time>2022-07-26T08:32:56Z</time>
      </trkpt>
      <trkpt lat="45.66075" lon="6.67988">
        <ele>2387</ele>
        <time>2022-07-26T08:32:57Z</time>
      </trkpt>
      <trkpt lat="45.66075" lon="6.67987">
        <ele>2387</ele>
        <time>2022-07-26T08:32:58Z</time>
      </trkpt>
      <trkpt lat="45.66074" lon="6.67987">
        <ele>2387</ele>
        <time>2022-07-26T08:32:59Z</time>
      </trkpt>
      <trkpt lat="45.66074" lon="6.67987">
        <ele>2387</ele>
        <time>2022-07-26T08:33:00Z</time>
      </trkpt>
      <trkpt lat="45.66074" lon="6.67987">
        <ele>2387</ele>
        <time>2022-07-26T08:33:01Z</time>
      </trkpt>
      <trkpt lat="45.66074" lon="6.67986">
        <ele>2388</ele>
        <time>2022-07-26T08:33:02Z</time>
      </trkpt>
      <trkpt lat="45.66073" lon="6.67986">
        <ele>2388</ele>
        <time>2022-07-26T08:33:03Z</time>
      </trkpt>
      <trkpt lat="45.66073" lon="6.67985">
        <ele>2388</ele>
        <time>2022-07-26T08:33:04Z</time>
      </trkpt>
      <trkpt lat="45.66072" lon="6.67985">
        <ele>2388</ele>
        <time>2022-07-26T08:33:05Z</time>
      </trkpt>
      <trkpt lat="45.66072" lon="6.67985">
        <ele>2388</ele>
        <time>2022-07-26T08:33:06Z</time>
      </trkpt>
      <trkpt lat="45.66071" lon="6.67984">
        <ele>2388</ele>
        <time>2022-07-26T08:33:07Z</time>
      </trkpt>
      <trkpt lat="45.6607" lon="6.67984">
        <ele>2388</ele>
        <time>2022-07-26T08:33:08Z</time>
      </trkpt>
      <trkpt lat="45.66068" lon="6.67984">
        <ele>2389</ele>
        <time>2022-07-26T08:33:35Z</time>
      </trkpt>
      <trkpt lat="45.66068" lon="6.67984">
        <ele>2389</ele>
        <time>2022-07-26T08:33:36Z</time>
      </trkpt>
      <trkpt lat="45.66067" lon="6.67983">
        <ele>2389</ele>
        <time>2022-07-26T08:33:37Z</time>
      </trkpt>
      <trkpt lat="45.66067" lon="6.67983">
        <ele>2389</ele>
        <time>2022-07-26T08:33:38Z</time>
      </trkpt>
      <trkpt lat="45.66066" lon="6.67983">
        <ele>2389</ele>
        <time>2022-07-26T08:33:39Z</time>
      </trkpt>
      <trkpt lat="45.66065" lon="6.67982">
        <ele>2389</ele>
        <time>2022-07-26T08:33:40Z</time>
      </trkpt>
      <trkpt lat="45.66065" lon="6.67982">
        <ele>2389</ele>
        <time>2022-07-26T08:33:41Z</time>
      </trkpt>
      <trkpt lat="45.66064" lon="6.67981">
        <ele>2390</ele>
        <time>2022-07-26T08:33:42Z</time>
      </trkpt>
      <trkpt lat="45.66064" lon="6.67981">
        <ele>2390</ele>
        <time>2022-07-26T08:33:43Z</time>
      </trkpt>
      <trkpt lat="45.66063" lon="6.6798">
        <ele>2390</ele>
        <time>2022-07-26T08:33:44Z</time>
      </trkpt>
      <trkpt lat="45.66062" lon="6.6798">
        <ele>2390</ele>
        <time>2022-07-26T08:33:45Z</time>
      </trkpt>
      <trkpt lat="45.66062" lon="6.67979">
        <ele>2390</ele>
        <time>2022-07-26T08:33:46Z</time>
      </trkpt>
      <trkpt lat="45.66061" lon="6.67979">
        <ele>2390</ele>
        <time>2022-07-26T08:33:47Z</time>
      </trkpt>
      <trkpt lat="45.66061" lon="6.67978">
        <ele>2390</ele>
        <time>2022-07-26T08:33:48Z</time>
      </trkpt>
      <trkpt lat="45.66061" lon="6.67978">
        <ele>2390</ele>
        <time>2022-07-26T08:33:49Z</time>
      </trkpt>
      <trkpt lat="45.6606" lon="6.67977">
        <ele>2390</ele>
        <time>2022-07-26T08:33:50Z</time>
      </trkpt>
      <trkpt lat="45.6606" lon="6.67977">
        <ele>2390</ele>
        <time>2022-07-26T08:33:51Z</time>
      </trkpt>
      <trkpt lat="45.6606" lon="6.67976">
        <ele>2390</ele>
        <time>2022-07-26T08:33:52Z</time>
      </trkpt>
      <trkpt lat="45.66059" lon="6.67976">
        <ele>2390</ele>
        <time>2022-07-26T08:33:53Z</time>
      </trkpt>
      <trkpt lat="45.66059" lon="6.67975">
        <ele>2390</ele>
        <time>2022-07-26T08:33:54Z</time>
      </trkpt>
      <trkpt lat="45.66059" lon="6.67974">
        <ele>2390</ele>
        <time>2022-07-26T08:33:55Z</time>
      </trkpt>
      <trkpt lat="45.66058" lon="6.67973">
        <ele>2390</ele>
        <time>2022-07-26T08:33:56Z</time>
      </trkpt>
      <trkpt lat="45.66058" lon="6.67973">
        <ele>2391</ele>
        <time>2022-07-26T08:33:57Z</time>
      </trkpt>
      <trkpt lat="45.66058" lon="6.67973">
        <ele>2391</ele>
        <time>2022-07-26T08:33:58Z</time>
      </trkpt>
      <trkpt lat="45.66057" lon="6.67972">
        <ele>2391</ele>
        <time>2022-07-26T08:33:59Z</time>
      </trkpt>
      <trkpt lat="45.66057" lon="6.67972">
        <ele>2391</ele>
        <time>2022-07-26T08:34:00Z</time>
      </trkpt>
      <trkpt lat="45.66056" lon="6.67971">
        <ele>2391</ele>
        <time>2022-07-26T08:34:01Z</time>
      </trkpt>
      <trkpt lat="45.66056" lon="6.67971">
        <ele>2392</ele>
        <time>2022-07-26T08:34:02Z</time>
      </trkpt>
      <trkpt lat="45.66055" lon="6.6797">
        <ele>2392</ele>
        <time>2022-07-26T08:34:03Z</time>
      </trkpt>
      <trkpt lat="45.66054" lon="6.6797">
        <ele>2392</ele>
        <time>2022-07-26T08:34:04Z</time>
      </trkpt>
      <trkpt lat="45.66054" lon="6.6797">
        <ele>2392</ele>
        <time>2022-07-26T08:34:05Z</time>
      </trkpt>
      <trkpt lat="45.66053" lon="6.67969">
        <ele>2392</ele>
        <time>2022-07-26T08:34:06Z</time>
      </trkpt>
      <trkpt lat="45.66052" lon="6.67969">
        <ele>2393</ele>
        <time>2022-07-26T08:34:07Z</time>
      </trkpt>
      <trkpt lat="45.66051" lon="6.67968">
        <ele>2393</ele>
        <time>2022-07-26T08:34:08Z</time>
      </trkpt>
      <trkpt lat="45.6605" lon="6.67968">
        <ele>2393</ele>
        <time>2022-07-26T08:34:09Z</time>
      </trkpt>
      <trkpt lat="45.66049" lon="6.67968">
        <ele>2393</ele>
        <time>2022-07-26T08:34:10Z</time>
      </trkpt>
      <trkpt lat="45.66049" lon="6.67967">
        <ele>2393</ele>
        <time>2022-07-26T08:34:11Z</time>
      </trkpt>
      <trkpt lat="45.66047" lon="6.67967">
        <ele>2396</ele>
        <time>2022-07-26T08:34:31Z</time>
      </trkpt>
      <trkpt lat="45.66047" lon="6.67966">
        <ele>2396</ele>
        <time>2022-07-26T08:34:32Z</time>
      </trkpt>
      <trkpt lat="45.66046" lon="6.67966">
        <ele>2396</ele>
        <time>2022-07-26T08:34:33Z</time>
      </trkpt>
      <trkpt lat="45.66046" lon="6.67966">
        <ele>2396</ele>
        <time>2022-07-26T08:34:34Z</time>
      </trkpt>
      <trkpt lat="45.66046" lon="6.67965">
        <ele>2396</ele>
        <time>2022-07-26T08:34:35Z</time>
      </trkpt>
      <trkpt lat="45.66045" lon="6.67965">
        <ele>2396</ele>
        <time>2022-07-26T08:34:36Z</time>
      </trkpt>
      <trkpt lat="45.66044" lon="6.67964">
        <ele>2396</ele>
        <time>2022-07-26T08:34:37Z</time>
      </trkpt>
      <trkpt lat="45.66044" lon="6.67964">
        <ele>2396</ele>
        <time>2022-07-26T08:34:38Z</time>
      </trkpt>
      <trkpt lat="45.66043" lon="6.67964">
        <ele>2396</ele>
        <time>2022-07-26T08:34:39Z</time>
      </trkpt>
      <trkpt lat="45.66042" lon="6.67964">
        <ele>2396</ele>
        <time>2022-07-26T08:34:40Z</time>
      </trkpt>
      <trkpt lat="45.66041" lon="6.67964">
        <ele>2396</ele>
        <time>2022-07-26T08:34:41Z</time>
      </trkpt>
      <trkpt lat="45.66041" lon="6.67963">
        <ele>2397</ele>
        <time>2022-07-26T08:34:42Z</time>
      </trkpt>
      <trkpt lat="45.6604" lon="6.67963">
        <ele>2397</ele>
        <time>2022-07-26T08:34:43Z</time>
      </trkpt>
      <trkpt lat="45.66039" lon="6.67963">
        <ele>2397</ele>
        <time>2022-07-26T08:34:44Z</time>
      </trkpt>
      <trkpt lat="45.66038" lon="6.67962">
        <ele>2397</ele>
        <time>2022-07-26T08:34:45Z</time>
      </trkpt>
      <trkpt lat="45.66037" lon="6.67962">
        <ele>2397</ele>
        <time>2022-07-26T08:34:46Z</time>
      </trkpt>
      <trkpt lat="45.66036" lon="6.67962">
        <ele>2397</ele>
        <time>2022-07-26T08:34:47Z</time>
      </trkpt>
      <trkpt lat="45.66036" lon="6.67961">
        <ele>2397</ele>
        <time>2022-07-26T08:34:48Z</time>
      </trkpt>
      <trkpt lat="45.66035" lon="6.67961">
        <ele>2397</ele>
        <time>2022-07-26T08:34:49Z</time>
      </trkpt>
      <trkpt lat="45.66034" lon="6.6796">
        <ele>2397</ele>
        <time>2022-07-26T08:34:50Z</time>
      </trkpt>
      <trkpt lat="45.66034" lon="6.6796">
        <ele>2397</ele>
        <time>2022-07-26T08:34:51Z</time>
      </trkpt>
      <trkpt lat="45.66033" lon="6.67959">
        <ele>2397</ele>
        <time>2022-07-26T08:34:52Z</time>
      </trkpt>
      <trkpt lat="45.66033" lon="6.67958">
        <ele>2397</ele>
        <time>2022-07-26T08:34:53Z</time>
      </trkpt>
      <trkpt lat="45.66032" lon="6.67957">
        <ele>2397</ele>
        <time>2022-07-26T08:34:54Z</time>
      </trkpt>
      <trkpt lat="45.66032" lon="6.67957">
        <ele>2397</ele>
        <time>2022-07-26T08:34:55Z</time>
      </trkpt>
      <trkpt lat="45.66032" lon="6.67956">
        <ele>2397</ele>
        <time>2022-07-26T08:34:56Z</time>
      </trkpt>
      <trkpt lat="45.66031" lon="6.67955">
        <ele>2398</ele>
        <time>2022-07-26T08:34:57Z</time>
      </trkpt>
      <trkpt lat="45.66031" lon="6.67954">
        <ele>2398</ele>
        <time>2022-07-26T08:34:58Z</time>
      </trkpt>
      <trkpt lat="45.6603" lon="6.67954">
        <ele>2398</ele>
        <time>2022-07-26T08:34:59Z</time>
      </trkpt>
      <trkpt lat="45.6603" lon="6.67953">
        <ele>2398</ele>
        <time>2022-07-26T08:35:00Z</time>
      </trkpt>
      <trkpt lat="45.6603" lon="6.67952">
        <ele>2398</ele>
        <time>2022-07-26T08:35:01Z</time>
      </trkpt>
      <trkpt lat="45.6603" lon="6.67951">
        <ele>2398</ele>
        <time>2022-07-26T08:35:02Z</time>
      </trkpt>
      <trkpt lat="45.66029" lon="6.6795">
        <ele>2398</ele>
        <time>2022-07-26T08:35:03Z</time>
      </trkpt>
      <trkpt lat="45.66029" lon="6.67949">
        <ele>2398</ele>
        <time>2022-07-26T08:35:04Z</time>
      </trkpt>
      <trkpt lat="45.66029" lon="6.67949">
        <ele>2398</ele>
        <time>2022-07-26T08:35:05Z</time>
      </trkpt>
      <trkpt lat="45.66028" lon="6.67948">
        <ele>2398</ele>
        <time>2022-07-26T08:35:06Z</time>
      </trkpt>
      <trkpt lat="45.66028" lon="6.67947">
        <ele>2399</ele>
        <time>2022-07-26T08:35:07Z</time>
      </trkpt>
      <trkpt lat="45.66027" lon="6.67946">
        <ele>2399</ele>
        <time>2022-07-26T08:35:08Z</time>
      </trkpt>
      <trkpt lat="45.66027" lon="6.67946">
        <ele>2399</ele>
        <time>2022-07-26T08:35:09Z</time>
      </trkpt>
      <trkpt lat="45.66027" lon="6.67945">
        <ele>2399</ele>
        <time>2022-07-26T08:35:10Z</time>
      </trkpt>
      <trkpt lat="45.66027" lon="6.67944">
        <ele>2399</ele>
        <time>2022-07-26T08:35:11Z</time>
      </trkpt>
      <trkpt lat="45.66026" lon="6.67943">
        <ele>2400</ele>
        <time>2022-07-26T08:35:12Z</time>
      </trkpt>
      <trkpt lat="45.66026" lon="6.67943">
        <ele>2400</ele>
        <time>2022-07-26T08:35:13Z</time>
      </trkpt>
      <trkpt lat="45.66026" lon="6.67942">
        <ele>2400</ele>
        <time>2022-07-26T08:35:14Z</time>
      </trkpt>
      <trkpt lat="45.66026" lon="6.67941">
        <ele>2400</ele>
        <time>2022-07-26T08:35:15Z</time>
      </trkpt>
      <trkpt lat="45.66026" lon="6.67941">
        <ele>2400</ele>
        <time>2022-07-26T08:35:16Z</time>
      </trkpt>
      <trkpt lat="45.66025" lon="6.6794">
        <ele>2400</ele>
        <time>2022-07-26T08:35:17Z</time>
      </trkpt>
      <trkpt lat="45.66025" lon="6.67939">
        <ele>2400</ele>
        <time>2022-07-26T08:35:18Z</time>
      </trkpt>
      <trkpt lat="45.66024" lon="6.67939">
        <ele>2400</ele>
        <time>2022-07-26T08:35:19Z</time>
      </trkpt>
      <trkpt lat="45.66024" lon="6.67938">
        <ele>2400</ele>
        <time>2022-07-26T08:35:20Z</time>
      </trkpt>
      <trkpt lat="45.66023" lon="6.67936">
        <ele>2401</ele>
        <time>2022-07-26T08:35:26Z</time>
      </trkpt>
      <trkpt lat="45.66022" lon="6.67936">
        <ele>2402</ele>
        <time>2022-07-26T08:35:27Z</time>
      </trkpt>
      <trkpt lat="45.66021" lon="6.67935">
        <ele>2402</ele>
        <time>2022-07-26T08:35:28Z</time>
      </trkpt>
      <trkpt lat="45.66021" lon="6.67934">
        <ele>2402</ele>
        <time>2022-07-26T08:35:29Z</time>
      </trkpt>
      <trkpt lat="45.6602" lon="6.67934">
        <ele>2402</ele>
        <time>2022-07-26T08:35:30Z</time>
      </trkpt>
      <trkpt lat="45.66019" lon="6.67933">
        <ele>2402</ele>
        <time>2022-07-26T08:35:31Z</time>
      </trkpt>
      <trkpt lat="45.66019" lon="6.67932">
        <ele>2402</ele>
        <time>2022-07-26T08:35:32Z</time>
      </trkpt>
      <trkpt lat="45.66018" lon="6.67932">
        <ele>2402</ele>
        <time>2022-07-26T08:35:33Z</time>
      </trkpt>
      <trkpt lat="45.66018" lon="6.67931">
        <ele>2402</ele>
        <time>2022-07-26T08:35:34Z</time>
      </trkpt>
      <trkpt lat="45.66018" lon="6.6793">
        <ele>2402</ele>
        <time>2022-07-26T08:35:35Z</time>
      </trkpt>
      <trkpt lat="45.66017" lon="6.67929">
        <ele>2402</ele>
        <time>2022-07-26T08:35:36Z</time>
      </trkpt>
      <trkpt lat="45.66017" lon="6.67929">
        <ele>2403</ele>
        <time>2022-07-26T08:35:37Z</time>
      </trkpt>
      <trkpt lat="45.66016" lon="6.67928">
        <ele>2403</ele>
        <time>2022-07-26T08:35:38Z</time>
      </trkpt>
      <trkpt lat="45.66015" lon="6.67928">
        <ele>2403</ele>
        <time>2022-07-26T08:35:39Z</time>
      </trkpt>
      <trkpt lat="45.66015" lon="6.67927">
        <ele>2403</ele>
        <time>2022-07-26T08:35:40Z</time>
      </trkpt>
      <trkpt lat="45.66014" lon="6.67927">
        <ele>2403</ele>
        <time>2022-07-26T08:35:41Z</time>
      </trkpt>
      <trkpt lat="45.66013" lon="6.67926">
        <ele>2404</ele>
        <time>2022-07-26T08:35:42Z</time>
      </trkpt>
      <trkpt lat="45.66013" lon="6.67926">
        <ele>2404</ele>
        <time>2022-07-26T08:35:43Z</time>
      </trkpt>
      <trkpt lat="45.66012" lon="6.67925">
        <ele>2404</ele>
        <time>2022-07-26T08:35:44Z</time>
      </trkpt>
      <trkpt lat="45.66011" lon="6.67924">
        <ele>2404</ele>
        <time>2022-07-26T08:35:45Z</time>
      </trkpt>
      <trkpt lat="45.66011" lon="6.67924">
        <ele>2404</ele>
        <time>2022-07-26T08:35:46Z</time>
      </trkpt>
      <trkpt lat="45.6601" lon="6.67923">
        <ele>2404</ele>
        <time>2022-07-26T08:35:47Z</time>
      </trkpt>
      <trkpt lat="45.66009" lon="6.67922">
        <ele>2404</ele>
        <time>2022-07-26T08:35:48Z</time>
      </trkpt>
      <trkpt lat="45.66009" lon="6.67921">
        <ele>2404</ele>
        <time>2022-07-26T08:35:49Z</time>
      </trkpt>
      <trkpt lat="45.66008" lon="6.67921">
        <ele>2404</ele>
        <time>2022-07-26T08:35:50Z</time>
      </trkpt>
      <trkpt lat="45.66008" lon="6.6792">
        <ele>2404</ele>
        <time>2022-07-26T08:35:51Z</time>
      </trkpt>
      <trkpt lat="45.66007" lon="6.6792">
        <ele>2405</ele>
        <time>2022-07-26T08:35:52Z</time>
      </trkpt>
      <trkpt lat="45.66006" lon="6.6792">
        <ele>2405</ele>
        <time>2022-07-26T08:35:53Z</time>
      </trkpt>
      <trkpt lat="45.66006" lon="6.6792">
        <ele>2405</ele>
        <time>2022-07-26T08:35:54Z</time>
      </trkpt>
      <trkpt lat="45.66005" lon="6.67919">
        <ele>2405</ele>
        <time>2022-07-26T08:35:55Z</time>
      </trkpt>
      <trkpt lat="45.66005" lon="6.67919">
        <ele>2405</ele>
        <time>2022-07-26T08:35:56Z</time>
      </trkpt>
      <trkpt lat="45.66005" lon="6.67919">
        <ele>2406</ele>
        <time>2022-07-26T08:35:57Z</time>
      </trkpt>
      <trkpt lat="45.66005" lon="6.67919">
        <ele>2406</ele>
        <time>2022-07-26T08:35:58Z</time>
      </trkpt>
      <trkpt lat="45.66004" lon="6.67918">
        <ele>2406</ele>
        <time>2022-07-26T08:35:59Z</time>
      </trkpt>
      <trkpt lat="45.66004" lon="6.67918">
        <ele>2406</ele>
        <time>2022-07-26T08:36:00Z</time>
      </trkpt>
      <trkpt lat="45.66003" lon="6.67917">
        <ele>2406</ele>
        <time>2022-07-26T08:36:01Z</time>
      </trkpt>
      <trkpt lat="45.66003" lon="6.67917">
        <ele>2406</ele>
        <time>2022-07-26T08:36:02Z</time>
      </trkpt>
      <trkpt lat="45.66002" lon="6.67916">
        <ele>2406</ele>
        <time>2022-07-26T08:36:03Z</time>
      </trkpt>
      <trkpt lat="45.66001" lon="6.67915">
        <ele>2407</ele>
        <time>2022-07-26T08:36:17Z</time>
      </trkpt>
      <trkpt lat="45.66001" lon="6.67914">
        <ele>2407</ele>
        <time>2022-07-26T08:36:18Z</time>
      </trkpt>
      <trkpt lat="45.66" lon="6.67914">
        <ele>2407</ele>
        <time>2022-07-26T08:36:19Z</time>
      </trkpt>
      <trkpt lat="45.65999" lon="6.67913">
        <ele>2408</ele>
        <time>2022-07-26T08:36:39Z</time>
      </trkpt>
      <trkpt lat="45.65998" lon="6.67912">
        <ele>2408</ele>
        <time>2022-07-26T08:36:40Z</time>
      </trkpt>
      <trkpt lat="45.65997" lon="6.67912">
        <ele>2408</ele>
        <time>2022-07-26T08:36:41Z</time>
      </trkpt>
      <trkpt lat="45.65997" lon="6.67911">
        <ele>2408</ele>
        <time>2022-07-26T08:36:42Z</time>
      </trkpt>
      <trkpt lat="45.65996" lon="6.6791">
        <ele>2408</ele>
        <time>2022-07-26T08:36:43Z</time>
      </trkpt>
      <trkpt lat="45.65996" lon="6.67909">
        <ele>2408</ele>
        <time>2022-07-26T08:36:44Z</time>
      </trkpt>
      <trkpt lat="45.65996" lon="6.67909">
        <ele>2408</ele>
        <time>2022-07-26T08:36:45Z</time>
      </trkpt>
      <trkpt lat="45.65995" lon="6.67908">
        <ele>2408</ele>
        <time>2022-07-26T08:36:46Z</time>
      </trkpt>
      <trkpt lat="45.65995" lon="6.67907">
        <ele>2408</ele>
        <time>2022-07-26T08:36:47Z</time>
      </trkpt>
      <trkpt lat="45.65994" lon="6.67906">
        <ele>2408</ele>
        <time>2022-07-26T08:36:48Z</time>
      </trkpt>
      <trkpt lat="45.65993" lon="6.67905">
        <ele>2408</ele>
        <time>2022-07-26T08:36:49Z</time>
      </trkpt>
      <trkpt lat="45.65993" lon="6.67905">
        <ele>2408</ele>
        <time>2022-07-26T08:36:50Z</time>
      </trkpt>
      <trkpt lat="45.65992" lon="6.67904">
        <ele>2408</ele>
        <time>2022-07-26T08:36:51Z</time>
      </trkpt>
      <trkpt lat="45.65992" lon="6.67903">
        <ele>2409</ele>
        <time>2022-07-26T08:36:52Z</time>
      </trkpt>
      <trkpt lat="45.65992" lon="6.67903">
        <ele>2409</ele>
        <time>2022-07-26T08:36:53Z</time>
      </trkpt>
      <trkpt lat="45.65991" lon="6.67902">
        <ele>2409</ele>
        <time>2022-07-26T08:36:54Z</time>
      </trkpt>
      <trkpt lat="45.65991" lon="6.67902">
        <ele>2409</ele>
        <time>2022-07-26T08:36:55Z</time>
      </trkpt>
      <trkpt lat="45.6599" lon="6.67901">
        <ele>2409</ele>
        <time>2022-07-26T08:36:56Z</time>
      </trkpt>
      <trkpt lat="45.6599" lon="6.67901">
        <ele>2409</ele>
        <time>2022-07-26T08:36:57Z</time>
      </trkpt>
      <trkpt lat="45.6599" lon="6.679">
        <ele>2409</ele>
        <time>2022-07-26T08:36:58Z</time>
      </trkpt>
      <trkpt lat="45.65989" lon="6.67899">
        <ele>2409</ele>
        <time>2022-07-26T08:36:59Z</time>
      </trkpt>
      <trkpt lat="45.65989" lon="6.67898">
        <ele>2409</ele>
        <time>2022-07-26T08:37:00Z</time>
      </trkpt>
      <trkpt lat="45.65989" lon="6.67897">
        <ele>2409</ele>
        <time>2022-07-26T08:37:01Z</time>
      </trkpt>
      <trkpt lat="45.65988" lon="6.67895">
        <ele>2411</ele>
        <time>2022-07-26T08:37:12Z</time>
      </trkpt>
      <trkpt lat="45.65987" lon="6.67894">
        <ele>2411</ele>
        <time>2022-07-26T08:37:13Z</time>
      </trkpt>
      <trkpt lat="45.65987" lon="6.67892">
        <ele>2411</ele>
        <time>2022-07-26T08:37:14Z</time>
      </trkpt>
      <trkpt lat="45.65986" lon="6.67891">
        <ele>2411</ele>
        <time>2022-07-26T08:37:15Z</time>
      </trkpt>
      <trkpt lat="45.65986" lon="6.6789">
        <ele>2411</ele>
        <time>2022-07-26T08:37:16Z</time>
      </trkpt>
      <trkpt lat="45.65985" lon="6.6789">
        <ele>2411</ele>
        <time>2022-07-26T08:37:17Z</time>
      </trkpt>
      <trkpt lat="45.65984" lon="6.67889">
        <ele>2411</ele>
        <time>2022-07-26T08:37:18Z</time>
      </trkpt>
      <trkpt lat="45.65984" lon="6.67888">
        <ele>2411</ele>
        <time>2022-07-26T08:37:19Z</time>
      </trkpt>
      <trkpt lat="45.65983" lon="6.67888">
        <ele>2411</ele>
        <time>2022-07-26T08:37:20Z</time>
      </trkpt>
      <trkpt lat="45.65983" lon="6.67887">
        <ele>2411</ele>
        <time>2022-07-26T08:37:21Z</time>
      </trkpt>
      <trkpt lat="45.65982" lon="6.67887">
        <ele>2412</ele>
        <time>2022-07-26T08:37:22Z</time>
      </trkpt>
      <trkpt lat="45.65981" lon="6.67886">
        <ele>2412</ele>
        <time>2022-07-26T08:37:23Z</time>
      </trkpt>
      <trkpt lat="45.65981" lon="6.67885">
        <ele>2412</ele>
        <time>2022-07-26T08:37:24Z</time>
      </trkpt>
      <trkpt lat="45.6598" lon="6.67884">
        <ele>2412</ele>
        <time>2022-07-26T08:37:25Z</time>
      </trkpt>
      <trkpt lat="45.65979" lon="6.67884">
        <ele>2412</ele>
        <time>2022-07-26T08:37:26Z</time>
      </trkpt>
      <trkpt lat="45.65979" lon="6.67883">
        <ele>2413</ele>
        <time>2022-07-26T08:37:27Z</time>
      </trkpt>
      <trkpt lat="45.65978" lon="6.67882">
        <ele>2413</ele>
        <time>2022-07-26T08:37:28Z</time>
      </trkpt>
      <trkpt lat="45.65978" lon="6.67882">
        <ele>2413</ele>
        <time>2022-07-26T08:37:29Z</time>
      </trkpt>
      <trkpt lat="45.65977" lon="6.67881">
        <ele>2413</ele>
        <time>2022-07-26T08:37:30Z</time>
      </trkpt>
      <trkpt lat="45.65977" lon="6.6788">
        <ele>2413</ele>
        <time>2022-07-26T08:37:31Z</time>
      </trkpt>
      <trkpt lat="45.65977" lon="6.67879">
        <ele>2413</ele>
        <time>2022-07-26T08:37:32Z</time>
      </trkpt>
      <trkpt lat="45.65976" lon="6.67878">
        <ele>2413</ele>
        <time>2022-07-26T08:37:33Z</time>
      </trkpt>
      <trkpt lat="45.65976" lon="6.67878">
        <ele>2413</ele>
        <time>2022-07-26T08:37:34Z</time>
      </trkpt>
      <trkpt lat="45.65975" lon="6.67877">
        <ele>2413</ele>
        <time>2022-07-26T08:37:35Z</time>
      </trkpt>
      <trkpt lat="45.65975" lon="6.67876">
        <ele>2413</ele>
        <time>2022-07-26T08:37:36Z</time>
      </trkpt>
      <trkpt lat="45.65974" lon="6.67875">
        <ele>2414</ele>
        <time>2022-07-26T08:37:37Z</time>
      </trkpt>
      <trkpt lat="45.65974" lon="6.67874">
        <ele>2414</ele>
        <time>2022-07-26T08:37:38Z</time>
      </trkpt>
      <trkpt lat="45.65973" lon="6.67874">
        <ele>2414</ele>
        <time>2022-07-26T08:37:39Z</time>
      </trkpt>
      <trkpt lat="45.65972" lon="6.67873">
        <ele>2414</ele>
        <time>2022-07-26T08:37:40Z</time>
      </trkpt>
      <trkpt lat="45.65972" lon="6.67873">
        <ele>2414</ele>
        <time>2022-07-26T08:37:41Z</time>
      </trkpt>
      <trkpt lat="45.65971" lon="6.67873">
        <ele>2414</ele>
        <time>2022-07-26T08:37:42Z</time>
      </trkpt>
      <trkpt lat="45.6597" lon="6.67873">
        <ele>2414</ele>
        <time>2022-07-26T08:37:43Z</time>
      </trkpt>
      <trkpt lat="45.65969" lon="6.67872">
        <ele>2414</ele>
        <time>2022-07-26T08:37:44Z</time>
      </trkpt>
      <trkpt lat="45.65969" lon="6.67872">
        <ele>2414</ele>
        <time>2022-07-26T08:37:45Z</time>
      </trkpt>
      <trkpt lat="45.65968" lon="6.67871">
        <ele>2414</ele>
        <time>2022-07-26T08:37:46Z</time>
      </trkpt>
      <trkpt lat="45.65967" lon="6.67871">
        <ele>2414</ele>
        <time>2022-07-26T08:37:47Z</time>
      </trkpt>
      <trkpt lat="45.65967" lon="6.6787">
        <ele>2414</ele>
        <time>2022-07-26T08:37:48Z</time>
      </trkpt>
      <trkpt lat="45.65967" lon="6.67869">
        <ele>2414</ele>
        <time>2022-07-26T08:37:49Z</time>
      </trkpt>
      <trkpt lat="45.65966" lon="6.67869">
        <ele>2414</ele>
        <time>2022-07-26T08:37:50Z</time>
      </trkpt>
      <trkpt lat="45.65966" lon="6.67868">
        <ele>2414</ele>
        <time>2022-07-26T08:37:51Z</time>
      </trkpt>
      <trkpt lat="45.65966" lon="6.67868">
        <ele>2415</ele>
        <time>2022-07-26T08:37:52Z</time>
      </trkpt>
      <trkpt lat="45.65965" lon="6.67867">
        <ele>2415</ele>
        <time>2022-07-26T08:37:53Z</time>
      </trkpt>
      <trkpt lat="45.65965" lon="6.67866">
        <ele>2415</ele>
        <time>2022-07-26T08:37:54Z</time>
      </trkpt>
      <trkpt lat="45.65965" lon="6.67866">
        <ele>2415</ele>
        <time>2022-07-26T08:37:55Z</time>
      </trkpt>
      <trkpt lat="45.65964" lon="6.67866">
        <ele>2415</ele>
        <time>2022-07-26T08:37:56Z</time>
      </trkpt>
      <trkpt lat="45.65964" lon="6.67866">
        <ele>2416</ele>
        <time>2022-07-26T08:37:57Z</time>
      </trkpt>
      <trkpt lat="45.65964" lon="6.67866">
        <ele>2416</ele>
        <time>2022-07-26T08:37:58Z</time>
      </trkpt>
      <trkpt lat="45.65963" lon="6.67866">
        <ele>2416</ele>
        <time>2022-07-26T08:37:59Z</time>
      </trkpt>
      <trkpt lat="45.65962" lon="6.67865">
        <ele>2416</ele>
        <time>2022-07-26T08:38:00Z</time>
      </trkpt>
      <trkpt lat="45.65962" lon="6.67865">
        <ele>2416</ele>
        <time>2022-07-26T08:38:01Z</time>
      </trkpt>
      <trkpt lat="45.65962" lon="6.67864">
        <ele>2416</ele>
        <time>2022-07-26T08:38:02Z</time>
      </trkpt>
      <trkpt lat="45.65961" lon="6.67864">
        <ele>2416</ele>
        <time>2022-07-26T08:38:03Z</time>
      </trkpt>
      <trkpt lat="45.65961" lon="6.67864">
        <ele>2416</ele>
        <time>2022-07-26T08:38:04Z</time>
      </trkpt>
      <trkpt lat="45.6596" lon="6.67863">
        <ele>2416</ele>
        <time>2022-07-26T08:38:05Z</time>
      </trkpt>
      <trkpt lat="45.6596" lon="6.67862">
        <ele>2416</ele>
        <time>2022-07-26T08:38:06Z</time>
      </trkpt>
      <trkpt lat="45.65959" lon="6.67862">
        <ele>2417</ele>
        <time>2022-07-26T08:38:07Z</time>
      </trkpt>
      <trkpt lat="45.65959" lon="6.67861">
        <ele>2417</ele>
        <time>2022-07-26T08:38:08Z</time>
      </trkpt>
      <trkpt lat="45.65959" lon="6.6786">
        <ele>2417</ele>
        <time>2022-07-26T08:38:09Z</time>
      </trkpt>
      <trkpt lat="45.65958" lon="6.6786">
        <ele>2417</ele>
        <time>2022-07-26T08:38:10Z</time>
      </trkpt>
      <trkpt lat="45.65958" lon="6.67859">
        <ele>2417</ele>
        <time>2022-07-26T08:38:11Z</time>
      </trkpt>
      <trkpt lat="45.65957" lon="6.67858">
        <ele>2418</ele>
        <time>2022-07-26T08:38:12Z</time>
      </trkpt>
      <trkpt lat="45.65957" lon="6.67857">
        <ele>2420</ele>
        <time>2022-07-26T08:38:36Z</time>
      </trkpt>
      <trkpt lat="45.65957" lon="6.67856">
        <ele>2420</ele>
        <time>2022-07-26T08:38:37Z</time>
      </trkpt>
      <trkpt lat="45.65957" lon="6.67856">
        <ele>2420</ele>
        <time>2022-07-26T08:38:38Z</time>
      </trkpt>
      <trkpt lat="45.65956" lon="6.67855">
        <ele>2420</ele>
        <time>2022-07-26T08:38:39Z</time>
      </trkpt>
      <trkpt lat="45.65956" lon="6.67854">
        <ele>2420</ele>
        <time>2022-07-26T08:38:40Z</time>
      </trkpt>
      <trkpt lat="45.65955" lon="6.6785">
        <ele>2422</ele>
        <time>2022-07-26T08:40:05Z</time>
      </trkpt>
      <trkpt lat="45.65955" lon="6.67849">
        <ele>2422</ele>
        <time>2022-07-26T08:40:06Z</time>
      </trkpt>
      <trkpt lat="45.65954" lon="6.67847">
        <ele>2423</ele>
        <time>2022-07-26T08:40:07Z</time>
      </trkpt>
      <trkpt lat="45.65954" lon="6.67846">
        <ele>2423</ele>
        <time>2022-07-26T08:40:08Z</time>
      </trkpt>
      <trkpt lat="45.65954" lon="6.67845">
        <ele>2423</ele>
        <time>2022-07-26T08:40:09Z</time>
      </trkpt>
      <trkpt lat="45.65953" lon="6.67844">
        <ele>2423</ele>
        <time>2022-07-26T08:40:10Z</time>
      </trkpt>
      <trkpt lat="45.65953" lon="6.67843">
        <ele>2423</ele>
        <time>2022-07-26T08:40:11Z</time>
      </trkpt>
      <trkpt lat="45.65953" lon="6.67841">
        <ele>2423</ele>
        <time>2022-07-26T08:40:12Z</time>
      </trkpt>
      <trkpt lat="45.65952" lon="6.6784">
        <ele>2423</ele>
        <time>2022-07-26T08:40:13Z</time>
      </trkpt>
      <trkpt lat="45.65952" lon="6.67839">
        <ele>2423</ele>
        <time>2022-07-26T08:40:14Z</time>
      </trkpt>
      <trkpt lat="45.65952" lon="6.67838">
        <ele>2423</ele>
        <time>2022-07-26T08:40:15Z</time>
      </trkpt>
      <trkpt lat="45.65951" lon="6.67837">
        <ele>2423</ele>
        <time>2022-07-26T08:40:16Z</time>
      </trkpt>
      <trkpt lat="45.65951" lon="6.67836">
        <ele>2423</ele>
        <time>2022-07-26T08:40:17Z</time>
      </trkpt>
      <trkpt lat="45.6595" lon="6.67835">
        <ele>2423</ele>
        <time>2022-07-26T08:40:18Z</time>
      </trkpt>
      <trkpt lat="45.6595" lon="6.67834">
        <ele>2423</ele>
        <time>2022-07-26T08:40:19Z</time>
      </trkpt>
      <trkpt lat="45.6595" lon="6.67834">
        <ele>2423</ele>
        <time>2022-07-26T08:40:20Z</time>
      </trkpt>
      <trkpt lat="45.65949" lon="6.67833">
        <ele>2423</ele>
        <time>2022-07-26T08:40:21Z</time>
      </trkpt>
      <trkpt lat="45.65949" lon="6.67832">
        <ele>2424</ele>
        <time>2022-07-26T08:40:22Z</time>
      </trkpt>
      <trkpt lat="45.65949" lon="6.67832">
        <ele>2424</ele>
        <time>2022-07-26T08:40:23Z</time>
      </trkpt>
      <trkpt lat="45.65948" lon="6.67831">
        <ele>2424</ele>
        <time>2022-07-26T08:40:24Z</time>
      </trkpt>
      <trkpt lat="45.65948" lon="6.6783">
        <ele>2424</ele>
        <time>2022-07-26T08:40:25Z</time>
      </trkpt>
      <trkpt lat="45.65948" lon="6.67829">
        <ele>2424</ele>
        <time>2022-07-26T08:40:26Z</time>
      </trkpt>
      <trkpt lat="45.65948" lon="6.67828">
        <ele>2425</ele>
        <time>2022-07-26T08:40:27Z</time>
      </trkpt>
      <trkpt lat="45.65948" lon="6.67826">
        <ele>2425</ele>
        <time>2022-07-26T08:40:28Z</time>
      </trkpt>
      <trkpt lat="45.65947" lon="6.67825">
        <ele>2425</ele>
        <time>2022-07-26T08:40:29Z</time>
      </trkpt>
      <trkpt lat="45.65947" lon="6.67825">
        <ele>2425</ele>
        <time>2022-07-26T08:40:30Z</time>
      </trkpt>
      <trkpt lat="45.65947" lon="6.67824">
        <ele>2425</ele>
        <time>2022-07-26T08:40:31Z</time>
      </trkpt>
      <trkpt lat="45.65946" lon="6.67823">
        <ele>2425</ele>
        <time>2022-07-26T08:40:32Z</time>
      </trkpt>
      <trkpt lat="45.65946" lon="6.67822">
        <ele>2425</ele>
        <time>2022-07-26T08:40:33Z</time>
      </trkpt>
      <trkpt lat="45.65945" lon="6.67822">
        <ele>2425</ele>
        <time>2022-07-26T08:40:34Z</time>
      </trkpt>
      <trkpt lat="45.65944" lon="6.67821">
        <ele>2425</ele>
        <time>2022-07-26T08:40:35Z</time>
      </trkpt>
      <trkpt lat="45.65944" lon="6.6782">
        <ele>2425</ele>
        <time>2022-07-26T08:40:36Z</time>
      </trkpt>
      <trkpt lat="45.65943" lon="6.6782">
        <ele>2426</ele>
        <time>2022-07-26T08:40:37Z</time>
      </trkpt>
      <trkpt lat="45.65943" lon="6.67819">
        <ele>2426</ele>
        <time>2022-07-26T08:40:38Z</time>
      </trkpt>
      <trkpt lat="45.65942" lon="6.67818">
        <ele>2426</ele>
        <time>2022-07-26T08:40:39Z</time>
      </trkpt>
      <trkpt lat="45.65942" lon="6.67817">
        <ele>2426</ele>
        <time>2022-07-26T08:40:40Z</time>
      </trkpt>
      <trkpt lat="45.65942" lon="6.67816">
        <ele>2426</ele>
        <time>2022-07-26T08:40:41Z</time>
      </trkpt>
      <trkpt lat="45.65941" lon="6.67815">
        <ele>2427</ele>
        <time>2022-07-26T08:40:42Z</time>
      </trkpt>
      <trkpt lat="45.65941" lon="6.67814">
        <ele>2427</ele>
        <time>2022-07-26T08:40:43Z</time>
      </trkpt>
      <trkpt lat="45.65941" lon="6.67813">
        <ele>2427</ele>
        <time>2022-07-26T08:40:44Z</time>
      </trkpt>
      <trkpt lat="45.6594" lon="6.67812">
        <ele>2427</ele>
        <time>2022-07-26T08:40:45Z</time>
      </trkpt>
      <trkpt lat="45.6594" lon="6.67811">
        <ele>2427</ele>
        <time>2022-07-26T08:40:46Z</time>
      </trkpt>
      <trkpt lat="45.65939" lon="6.6781">
        <ele>2427</ele>
        <time>2022-07-26T08:40:47Z</time>
      </trkpt>
      <trkpt lat="45.65939" lon="6.6781">
        <ele>2427</ele>
        <time>2022-07-26T08:40:48Z</time>
      </trkpt>
      <trkpt lat="45.65939" lon="6.67809">
        <ele>2427</ele>
        <time>2022-07-26T08:40:49Z</time>
      </trkpt>
      <trkpt lat="45.65939" lon="6.67809">
        <ele>2427</ele>
        <time>2022-07-26T08:40:50Z</time>
      </trkpt>
      <trkpt lat="45.65939" lon="6.67808">
        <ele>2427</ele>
        <time>2022-07-26T08:40:51Z</time>
      </trkpt>
      <trkpt lat="45.65939" lon="6.67808">
        <ele>2428</ele>
        <time>2022-07-26T08:40:52Z</time>
      </trkpt>
      <trkpt lat="45.65939" lon="6.67807">
        <ele>2428</ele>
        <time>2022-07-26T08:40:53Z</time>
      </trkpt>
      <trkpt lat="45.65938" lon="6.67806">
        <ele>2428</ele>
        <time>2022-07-26T08:40:54Z</time>
      </trkpt>
      <trkpt lat="45.65938" lon="6.67805">
        <ele>2428</ele>
        <time>2022-07-26T08:40:55Z</time>
      </trkpt>
      <trkpt lat="45.65938" lon="6.67804">
        <ele>2428</ele>
        <time>2022-07-26T08:40:56Z</time>
      </trkpt>
      <trkpt lat="45.65938" lon="6.67804">
        <ele>2428</ele>
        <time>2022-07-26T08:40:57Z</time>
      </trkpt>
      <trkpt lat="45.65938" lon="6.67803">
        <ele>2428</ele>
        <time>2022-07-26T08:40:58Z</time>
      </trkpt>
      <trkpt lat="45.65938" lon="6.67802">
        <ele>2428</ele>
        <time>2022-07-26T08:40:59Z</time>
      </trkpt>
      <trkpt lat="45.65937" lon="6.67801">
        <ele>2428</ele>
        <time>2022-07-26T08:41:00Z</time>
      </trkpt>
      <trkpt lat="45.65937" lon="6.67801">
        <ele>2428</ele>
        <time>2022-07-26T08:41:01Z</time>
      </trkpt>
      <trkpt lat="45.65937" lon="6.678">
        <ele>2429</ele>
        <time>2022-07-26T08:41:02Z</time>
      </trkpt>
      <trkpt lat="45.65937" lon="6.67799">
        <ele>2429</ele>
        <time>2022-07-26T08:41:03Z</time>
      </trkpt>
      <trkpt lat="45.65936" lon="6.67798">
        <ele>2429</ele>
        <time>2022-07-26T08:41:04Z</time>
      </trkpt>
      <trkpt lat="45.65936" lon="6.67797">
        <ele>2429</ele>
        <time>2022-07-26T08:41:05Z</time>
      </trkpt>
      <trkpt lat="45.65936" lon="6.67796">
        <ele>2429</ele>
        <time>2022-07-26T08:41:06Z</time>
      </trkpt>
      <trkpt lat="45.65936" lon="6.67795">
        <ele>2429</ele>
        <time>2022-07-26T08:41:07Z</time>
      </trkpt>
      <trkpt lat="45.65936" lon="6.67794">
        <ele>2429</ele>
        <time>2022-07-26T08:41:08Z</time>
      </trkpt>
      <trkpt lat="45.65935" lon="6.67793">
        <ele>2429</ele>
        <time>2022-07-26T08:41:09Z</time>
      </trkpt>
      <trkpt lat="45.65935" lon="6.67792">
        <ele>2429</ele>
        <time>2022-07-26T08:41:10Z</time>
      </trkpt>
      <trkpt lat="45.65935" lon="6.67791">
        <ele>2429</ele>
        <time>2022-07-26T08:41:11Z</time>
      </trkpt>
      <trkpt lat="45.65934" lon="6.6779">
        <ele>2430</ele>
        <time>2022-07-26T08:41:12Z</time>
      </trkpt>
      <trkpt lat="45.65933" lon="6.67789">
        <ele>2431</ele>
        <time>2022-07-26T08:42:23Z</time>
      </trkpt>
      <trkpt lat="45.65933" lon="6.67789">
        <ele>2431</ele>
        <time>2022-07-26T08:42:24Z</time>
      </trkpt>
      <trkpt lat="45.65933" lon="6.67788">
        <ele>2431</ele>
        <time>2022-07-26T08:42:25Z</time>
      </trkpt>
      <trkpt lat="45.65932" lon="6.67788">
        <ele>2431</ele>
        <time>2022-07-26T08:42:26Z</time>
      </trkpt>
      <trkpt lat="45.65932" lon="6.67787">
        <ele>2431</ele>
        <time>2022-07-26T08:42:27Z</time>
      </trkpt>
      <trkpt lat="45.65932" lon="6.67786">
        <ele>2431</ele>
        <time>2022-07-26T08:42:28Z</time>
      </trkpt>
      <trkpt lat="45.65931" lon="6.67785">
        <ele>2431</ele>
        <time>2022-07-26T08:42:29Z</time>
      </trkpt>
      <trkpt lat="45.65931" lon="6.67784">
        <ele>2431</ele>
        <time>2022-07-26T08:42:30Z</time>
      </trkpt>
      <trkpt lat="45.6593" lon="6.67783">
        <ele>2431</ele>
        <time>2022-07-26T08:42:31Z</time>
      </trkpt>
      <trkpt lat="45.6593" lon="6.67782">
        <ele>2431</ele>
        <time>2022-07-26T08:42:32Z</time>
      </trkpt>
      <trkpt lat="45.65929" lon="6.67781">
        <ele>2431</ele>
        <time>2022-07-26T08:42:33Z</time>
      </trkpt>
      <trkpt lat="45.65929" lon="6.6778">
        <ele>2431</ele>
        <time>2022-07-26T08:42:34Z</time>
      </trkpt>
      <trkpt lat="45.65929" lon="6.67778">
        <ele>2431</ele>
        <time>2022-07-26T08:42:35Z</time>
      </trkpt>
      <trkpt lat="45.65928" lon="6.67777">
        <ele>2431</ele>
        <time>2022-07-26T08:42:36Z</time>
      </trkpt>
      <trkpt lat="45.65928" lon="6.67776">
        <ele>2431</ele>
        <time>2022-07-26T08:42:37Z</time>
      </trkpt>
      <trkpt lat="45.65927" lon="6.67775">
        <ele>2431</ele>
        <time>2022-07-26T08:42:38Z</time>
      </trkpt>
      <trkpt lat="45.65927" lon="6.67774">
        <ele>2431</ele>
        <time>2022-07-26T08:42:39Z</time>
      </trkpt>
      <trkpt lat="45.65926" lon="6.67773">
        <ele>2431</ele>
        <time>2022-07-26T08:42:40Z</time>
      </trkpt>
      <trkpt lat="45.65926" lon="6.67772">
        <ele>2431</ele>
        <time>2022-07-26T08:42:41Z</time>
      </trkpt>
      <trkpt lat="45.65925" lon="6.67771">
        <ele>2431</ele>
        <time>2022-07-26T08:42:42Z</time>
      </trkpt>
      <trkpt lat="45.65925" lon="6.67769">
        <ele>2431</ele>
        <time>2022-07-26T08:42:43Z</time>
      </trkpt>
      <trkpt lat="45.65924" lon="6.67768">
        <ele>2431</ele>
        <time>2022-07-26T08:42:44Z</time>
      </trkpt>
      <trkpt lat="45.65924" lon="6.67767">
        <ele>2431</ele>
        <time>2022-07-26T08:42:45Z</time>
      </trkpt>
      <trkpt lat="45.65924" lon="6.67766">
        <ele>2431</ele>
        <time>2022-07-26T08:42:46Z</time>
      </trkpt>
      <trkpt lat="45.65923" lon="6.67765">
        <ele>2432</ele>
        <time>2022-07-26T08:42:47Z</time>
      </trkpt>
      <trkpt lat="45.65923" lon="6.67764">
        <ele>2432</ele>
        <time>2022-07-26T08:42:48Z</time>
      </trkpt>
      <trkpt lat="45.65922" lon="6.67763">
        <ele>2432</ele>
        <time>2022-07-26T08:42:49Z</time>
      </trkpt>
      <trkpt lat="45.65922" lon="6.67762">
        <ele>2432</ele>
        <time>2022-07-26T08:42:50Z</time>
      </trkpt>
      <trkpt lat="45.65921" lon="6.67761">
        <ele>2432</ele>
        <time>2022-07-26T08:42:51Z</time>
      </trkpt>
      <trkpt lat="45.6592" lon="6.6776">
        <ele>2432</ele>
        <time>2022-07-26T08:42:52Z</time>
      </trkpt>
      <trkpt lat="45.6592" lon="6.6776">
        <ele>2432</ele>
        <time>2022-07-26T08:42:53Z</time>
      </trkpt>
      <trkpt lat="45.65919" lon="6.67759">
        <ele>2432</ele>
        <time>2022-07-26T08:42:54Z</time>
      </trkpt>
      <trkpt lat="45.65919" lon="6.67758">
        <ele>2432</ele>
        <time>2022-07-26T08:42:55Z</time>
      </trkpt>
      <trkpt lat="45.65918" lon="6.67757">
        <ele>2432</ele>
        <time>2022-07-26T08:42:56Z</time>
      </trkpt>
      <trkpt lat="45.65918" lon="6.67756">
        <ele>2433</ele>
        <time>2022-07-26T08:42:57Z</time>
      </trkpt>
      <trkpt lat="45.65917" lon="6.67755">
        <ele>2433</ele>
        <time>2022-07-26T08:42:58Z</time>
      </trkpt>
      <trkpt lat="45.65916" lon="6.67754">
        <ele>2433</ele>
        <time>2022-07-26T08:42:59Z</time>
      </trkpt>
      <trkpt lat="45.65916" lon="6.67753">
        <ele>2433</ele>
        <time>2022-07-26T08:43:00Z</time>
      </trkpt>
      <trkpt lat="45.65915" lon="6.67752">
        <ele>2433</ele>
        <time>2022-07-26T08:43:01Z</time>
      </trkpt>
      <trkpt lat="45.65915" lon="6.67751">
        <ele>2433</ele>
        <time>2022-07-26T08:43:02Z</time>
      </trkpt>
      <trkpt lat="45.65914" lon="6.6775">
        <ele>2433</ele>
        <time>2022-07-26T08:43:03Z</time>
      </trkpt>
      <trkpt lat="45.65914" lon="6.67749">
        <ele>2433</ele>
        <time>2022-07-26T08:43:04Z</time>
      </trkpt>
      <trkpt lat="45.65913" lon="6.67748">
        <ele>2433</ele>
        <time>2022-07-26T08:43:05Z</time>
      </trkpt>
      <trkpt lat="45.65913" lon="6.67748">
        <ele>2433</ele>
        <time>2022-07-26T08:43:06Z</time>
      </trkpt>
      <trkpt lat="45.65912" lon="6.67747">
        <ele>2433</ele>
        <time>2022-07-26T08:43:07Z</time>
      </trkpt>
      <trkpt lat="45.65912" lon="6.67746">
        <ele>2433</ele>
        <time>2022-07-26T08:43:08Z</time>
      </trkpt>
      <trkpt lat="45.65911" lon="6.67745">
        <ele>2433</ele>
        <time>2022-07-26T08:43:09Z</time>
      </trkpt>
      <trkpt lat="45.65911" lon="6.67744">
        <ele>2433</ele>
        <time>2022-07-26T08:43:10Z</time>
      </trkpt>
      <trkpt lat="45.6591" lon="6.67743">
        <ele>2433</ele>
        <time>2022-07-26T08:43:11Z</time>
      </trkpt>
      <trkpt lat="45.6591" lon="6.67742">
        <ele>2434</ele>
        <time>2022-07-26T08:43:12Z</time>
      </trkpt>
      <trkpt lat="45.65909" lon="6.67742">
        <ele>2434</ele>
        <time>2022-07-26T08:43:13Z</time>
      </trkpt>
      <trkpt lat="45.65909" lon="6.67741">
        <ele>2434</ele>
        <time>2022-07-26T08:43:14Z</time>
      </trkpt>
      <trkpt lat="45.65909" lon="6.6774">
        <ele>2434</ele>
        <time>2022-07-26T08:43:15Z</time>
      </trkpt>
      <trkpt lat="45.65908" lon="6.67739">
        <ele>2434</ele>
        <time>2022-07-26T08:43:16Z</time>
      </trkpt>
      <trkpt lat="45.65908" lon="6.67738">
        <ele>2434</ele>
        <time>2022-07-26T08:43:17Z</time>
      </trkpt>
      <trkpt lat="45.65907" lon="6.67738">
        <ele>2434</ele>
        <time>2022-07-26T08:43:18Z</time>
      </trkpt>
      <trkpt lat="45.65907" lon="6.67737">
        <ele>2434</ele>
        <time>2022-07-26T08:43:19Z</time>
      </trkpt>
      <trkpt lat="45.65906" lon="6.67736">
        <ele>2434</ele>
        <time>2022-07-26T08:43:20Z</time>
      </trkpt>
      <trkpt lat="45.65906" lon="6.67735">
        <ele>2434</ele>
        <time>2022-07-26T08:43:21Z</time>
      </trkpt>
      <trkpt lat="45.65905" lon="6.67734">
        <ele>2435</ele>
        <time>2022-07-26T08:43:22Z</time>
      </trkpt>
      <trkpt lat="45.65905" lon="6.67733">
        <ele>2435</ele>
        <time>2022-07-26T08:43:23Z</time>
      </trkpt>
      <trkpt lat="45.65904" lon="6.67731">
        <ele>2435</ele>
        <time>2022-07-26T08:43:24Z</time>
      </trkpt>
      <trkpt lat="45.65904" lon="6.6773">
        <ele>2435</ele>
        <time>2022-07-26T08:43:25Z</time>
      </trkpt>
      <trkpt lat="45.65904" lon="6.67729">
        <ele>2435</ele>
        <time>2022-07-26T08:43:26Z</time>
      </trkpt>
      <trkpt lat="45.65903" lon="6.67728">
        <ele>2435</ele>
        <time>2022-07-26T08:43:27Z</time>
      </trkpt>
      <trkpt lat="45.65903" lon="6.67726">
        <ele>2435</ele>
        <time>2022-07-26T08:43:28Z</time>
      </trkpt>
      <trkpt lat="45.65903" lon="6.67725">
        <ele>2435</ele>
        <time>2022-07-26T08:43:29Z</time>
      </trkpt>
      <trkpt lat="45.65902" lon="6.67723">
        <ele>2435</ele>
        <time>2022-07-26T08:43:30Z</time>
      </trkpt>
      <trkpt lat="45.65902" lon="6.67722">
        <ele>2435</ele>
        <time>2022-07-26T08:43:31Z</time>
      </trkpt>
      <trkpt lat="45.65901" lon="6.67721">
        <ele>2436</ele>
        <time>2022-07-26T08:43:32Z</time>
      </trkpt>
      <trkpt lat="45.65901" lon="6.67719">
        <ele>2436</ele>
        <time>2022-07-26T08:43:33Z</time>
      </trkpt>
      <trkpt lat="45.659" lon="6.67718">
        <ele>2436</ele>
        <time>2022-07-26T08:43:34Z</time>
      </trkpt>
      <trkpt lat="45.659" lon="6.67716">
        <ele>2436</ele>
        <time>2022-07-26T08:43:35Z</time>
      </trkpt>
      <trkpt lat="45.65899" lon="6.67715">
        <ele>2436</ele>
        <time>2022-07-26T08:43:36Z</time>
      </trkpt>
      <trkpt lat="45.65899" lon="6.67713">
        <ele>2436</ele>
        <time>2022-07-26T08:43:37Z</time>
      </trkpt>
      <trkpt lat="45.65899" lon="6.67711">
        <ele>2436</ele>
        <time>2022-07-26T08:43:38Z</time>
      </trkpt>
      <trkpt lat="45.65898" lon="6.67709">
        <ele>2436</ele>
        <time>2022-07-26T08:43:39Z</time>
      </trkpt>
      <trkpt lat="45.65898" lon="6.67707">
        <ele>2436</ele>
        <time>2022-07-26T08:43:40Z</time>
      </trkpt>
      <trkpt lat="45.65898" lon="6.67706">
        <ele>2436</ele>
        <time>2022-07-26T08:43:41Z</time>
      </trkpt>
      <trkpt lat="45.65898" lon="6.67704">
        <ele>2436</ele>
        <time>2022-07-26T08:43:42Z</time>
      </trkpt>
      <trkpt lat="45.65898" lon="6.67702">
        <ele>2436</ele>
        <time>2022-07-26T08:43:43Z</time>
      </trkpt>
      <trkpt lat="45.65898" lon="6.67701">
        <ele>2436</ele>
        <time>2022-07-26T08:43:44Z</time>
      </trkpt>
      <trkpt lat="45.65898" lon="6.677">
        <ele>2436</ele>
        <time>2022-07-26T08:43:45Z</time>
      </trkpt>
      <trkpt lat="45.65898" lon="6.677">
        <ele>2436</ele>
        <time>2022-07-26T08:43:46Z</time>
      </trkpt>
      <trkpt lat="45.65898" lon="6.67699">
        <ele>2436</ele>
        <time>2022-07-26T08:43:47Z</time>
      </trkpt>
      <trkpt lat="45.65899" lon="6.67698">
        <ele>2436</ele>
        <time>2022-07-26T08:43:48Z</time>
      </trkpt>
      <trkpt lat="45.65899" lon="6.67697">
        <ele>2436</ele>
        <time>2022-07-26T08:43:49Z</time>
      </trkpt>
      <trkpt lat="45.65899" lon="6.67696">
        <ele>2436</ele>
        <time>2022-07-26T08:43:50Z</time>
      </trkpt>
      <trkpt lat="45.65899" lon="6.67694">
        <ele>2436</ele>
        <time>2022-07-26T08:43:51Z</time>
      </trkpt>
      <trkpt lat="45.659" lon="6.67693">
        <ele>2436</ele>
        <time>2022-07-26T08:43:52Z</time>
      </trkpt>
      <trkpt lat="45.659" lon="6.67692">
        <ele>2436</ele>
        <time>2022-07-26T08:43:53Z</time>
      </trkpt>
      <trkpt lat="45.659" lon="6.67691">
        <ele>2436</ele>
        <time>2022-07-26T08:43:54Z</time>
      </trkpt>
      <trkpt lat="45.65901" lon="6.67689">
        <ele>2436</ele>
        <time>2022-07-26T08:43:55Z</time>
      </trkpt>
      <trkpt lat="45.65901" lon="6.67689">
        <ele>2437</ele>
        <time>2022-07-26T08:44:09Z</time>
      </trkpt>
      <trkpt lat="45.65901" lon="6.67688">
        <ele>2437</ele>
        <time>2022-07-26T08:44:10Z</time>
      </trkpt>
      <trkpt lat="45.65901" lon="6.67687">
        <ele>2437</ele>
        <time>2022-07-26T08:44:11Z</time>
      </trkpt>
      <trkpt lat="45.65901" lon="6.67686">
        <ele>2437</ele>
        <time>2022-07-26T08:44:12Z</time>
      </trkpt>
      <trkpt lat="45.65901" lon="6.67685">
        <ele>2437</ele>
        <time>2022-07-26T08:44:13Z</time>
      </trkpt>
      <trkpt lat="45.65901" lon="6.67683">
        <ele>2437</ele>
        <time>2022-07-26T08:44:14Z</time>
      </trkpt>
      <trkpt lat="45.65901" lon="6.67682">
        <ele>2437</ele>
        <time>2022-07-26T08:44:15Z</time>
      </trkpt>
      <trkpt lat="45.65901" lon="6.6768">
        <ele>2437</ele>
        <time>2022-07-26T08:44:16Z</time>
      </trkpt>
      <trkpt lat="45.65902" lon="6.67679">
        <ele>2437</ele>
        <time>2022-07-26T08:44:17Z</time>
      </trkpt>
      <trkpt lat="45.65902" lon="6.67677">
        <ele>2437</ele>
        <time>2022-07-26T08:44:18Z</time>
      </trkpt>
      <trkpt lat="45.65902" lon="6.67675">
        <ele>2437</ele>
        <time>2022-07-26T08:44:19Z</time>
      </trkpt>
      <trkpt lat="45.65902" lon="6.67673">
        <ele>2437</ele>
        <time>2022-07-26T08:44:20Z</time>
      </trkpt>
      <trkpt lat="45.65902" lon="6.67672">
        <ele>2437</ele>
        <time>2022-07-26T08:44:21Z</time>
      </trkpt>
      <trkpt lat="45.65902" lon="6.6767">
        <ele>2437</ele>
        <time>2022-07-26T08:44:22Z</time>
      </trkpt>
      <trkpt lat="45.65902" lon="6.67668">
        <ele>2437</ele>
        <time>2022-07-26T08:44:23Z</time>
      </trkpt>
      <trkpt lat="45.65903" lon="6.67666">
        <ele>2437</ele>
        <time>2022-07-26T08:44:24Z</time>
      </trkpt>
      <trkpt lat="45.65903" lon="6.67665">
        <ele>2437</ele>
        <time>2022-07-26T08:44:25Z</time>
      </trkpt>
      <trkpt lat="45.65903" lon="6.67663">
        <ele>2437</ele>
        <time>2022-07-26T08:44:26Z</time>
      </trkpt>
      <trkpt lat="45.65904" lon="6.67662">
        <ele>2437</ele>
        <time>2022-07-26T08:44:27Z</time>
      </trkpt>
      <trkpt lat="45.65904" lon="6.6766">
        <ele>2437</ele>
        <time>2022-07-26T08:44:28Z</time>
      </trkpt>
      <trkpt lat="45.65905" lon="6.67659">
        <ele>2437</ele>
        <time>2022-07-26T08:44:29Z</time>
      </trkpt>
      <trkpt lat="45.65905" lon="6.67657">
        <ele>2437</ele>
        <time>2022-07-26T08:44:30Z</time>
      </trkpt>
      <trkpt lat="45.65906" lon="6.67656">
        <ele>2437</ele>
        <time>2022-07-26T08:44:31Z</time>
      </trkpt>
      <trkpt lat="45.65906" lon="6.67654">
        <ele>2437</ele>
        <time>2022-07-26T08:44:32Z</time>
      </trkpt>
      <trkpt lat="45.65906" lon="6.67653">
        <ele>2436</ele>
        <time>2022-07-26T08:44:33Z</time>
      </trkpt>
      <trkpt lat="45.65906" lon="6.67652">
        <ele>2436</ele>
        <time>2022-07-26T08:44:34Z</time>
      </trkpt>
      <trkpt lat="45.65907" lon="6.67651">
        <ele>2436</ele>
        <time>2022-07-26T08:44:35Z</time>
      </trkpt>
      <trkpt lat="45.65907" lon="6.67649">
        <ele>2436</ele>
        <time>2022-07-26T08:44:36Z</time>
      </trkpt>
      <trkpt lat="45.65908" lon="6.67648">
        <ele>2436</ele>
        <time>2022-07-26T08:44:37Z</time>
      </trkpt>
      <trkpt lat="45.65908" lon="6.67647">
        <ele>2436</ele>
        <time>2022-07-26T08:44:38Z</time>
      </trkpt>
      <trkpt lat="45.65908" lon="6.67646">
        <ele>2436</ele>
        <time>2022-07-26T08:44:39Z</time>
      </trkpt>
      <trkpt lat="45.65909" lon="6.67644">
        <ele>2436</ele>
        <time>2022-07-26T08:44:40Z</time>
      </trkpt>
      <trkpt lat="45.65909" lon="6.67643">
        <ele>2436</ele>
        <time>2022-07-26T08:44:41Z</time>
      </trkpt>
      <trkpt lat="45.65909" lon="6.67641">
        <ele>2437</ele>
        <time>2022-07-26T08:44:42Z</time>
      </trkpt>
      <trkpt lat="45.65909" lon="6.6764">
        <ele>2437</ele>
        <time>2022-07-26T08:44:43Z</time>
      </trkpt>
      <trkpt lat="45.6591" lon="6.67638">
        <ele>2437</ele>
        <time>2022-07-26T08:44:44Z</time>
      </trkpt>
      <trkpt lat="45.6591" lon="6.67637">
        <ele>2437</ele>
        <time>2022-07-26T08:44:45Z</time>
      </trkpt>
      <trkpt lat="45.6591" lon="6.67636">
        <ele>2437</ele>
        <time>2022-07-26T08:44:46Z</time>
      </trkpt>
      <trkpt lat="45.65911" lon="6.67634">
        <ele>2437</ele>
        <time>2022-07-26T08:44:47Z</time>
      </trkpt>
      <trkpt lat="45.65911" lon="6.67633">
        <ele>2437</ele>
        <time>2022-07-26T08:44:48Z</time>
      </trkpt>
      <trkpt lat="45.65912" lon="6.67632">
        <ele>2437</ele>
        <time>2022-07-26T08:44:49Z</time>
      </trkpt>
      <trkpt lat="45.65912" lon="6.6763">
        <ele>2437</ele>
        <time>2022-07-26T08:44:50Z</time>
      </trkpt>
      <trkpt lat="45.65913" lon="6.67629">
        <ele>2437</ele>
        <time>2022-07-26T08:44:51Z</time>
      </trkpt>
      <trkpt lat="45.65913" lon="6.67628">
        <ele>2437</ele>
        <time>2022-07-26T08:44:52Z</time>
      </trkpt>
      <trkpt lat="45.65914" lon="6.67626">
        <ele>2436</ele>
        <time>2022-07-26T08:44:53Z</time>
      </trkpt>
      <trkpt lat="45.65915" lon="6.67625">
        <ele>2436</ele>
        <time>2022-07-26T08:44:54Z</time>
      </trkpt>
      <trkpt lat="45.65916" lon="6.67624">
        <ele>2436</ele>
        <time>2022-07-26T08:44:55Z</time>
      </trkpt>
      <trkpt lat="45.65916" lon="6.67624">
        <ele>2436</ele>
        <time>2022-07-26T08:44:56Z</time>
      </trkpt>
      <trkpt lat="45.65917" lon="6.67623">
        <ele>2436</ele>
        <time>2022-07-26T08:44:57Z</time>
      </trkpt>
      <trkpt lat="45.65918" lon="6.67622">
        <ele>2436</ele>
        <time>2022-07-26T08:44:58Z</time>
      </trkpt>
      <trkpt lat="45.65918" lon="6.67621">
        <ele>2436</ele>
        <time>2022-07-26T08:44:59Z</time>
      </trkpt>
      <trkpt lat="45.65919" lon="6.67621">
        <ele>2436</ele>
        <time>2022-07-26T08:45:06Z</time>
      </trkpt>
      <trkpt lat="45.6592" lon="6.6762">
        <ele>2436</ele>
        <time>2022-07-26T08:45:07Z</time>
      </trkpt>
      <trkpt lat="45.6592" lon="6.67619">
        <ele>2436</ele>
        <time>2022-07-26T08:45:08Z</time>
      </trkpt>
      <trkpt lat="45.6592" lon="6.67618">
        <ele>2436</ele>
        <time>2022-07-26T08:45:09Z</time>
      </trkpt>
      <trkpt lat="45.65921" lon="6.67618">
        <ele>2436</ele>
        <time>2022-07-26T08:45:10Z</time>
      </trkpt>
      <trkpt lat="45.65921" lon="6.67616">
        <ele>2436</ele>
        <time>2022-07-26T08:45:11Z</time>
      </trkpt>
      <trkpt lat="45.65921" lon="6.67615">
        <ele>2436</ele>
        <time>2022-07-26T08:45:12Z</time>
      </trkpt>
      <trkpt lat="45.65921" lon="6.67614">
        <ele>2435</ele>
        <time>2022-07-26T08:45:13Z</time>
      </trkpt>
      <trkpt lat="45.65921" lon="6.67612">
        <ele>2435</ele>
        <time>2022-07-26T08:45:14Z</time>
      </trkpt>
      <trkpt lat="45.65921" lon="6.67611">
        <ele>2435</ele>
        <time>2022-07-26T08:45:15Z</time>
      </trkpt>
      <trkpt lat="45.65921" lon="6.67609">
        <ele>2435</ele>
        <time>2022-07-26T08:45:16Z</time>
      </trkpt>
      <trkpt lat="45.65921" lon="6.67608">
        <ele>2435</ele>
        <time>2022-07-26T08:45:17Z</time>
      </trkpt>
      <trkpt lat="45.65921" lon="6.67607">
        <ele>2435</ele>
        <time>2022-07-26T08:45:18Z</time>
      </trkpt>
      <trkpt lat="45.65922" lon="6.67605">
        <ele>2435</ele>
        <time>2022-07-26T08:45:19Z</time>
      </trkpt>
      <trkpt lat="45.65922" lon="6.67603">
        <ele>2435</ele>
        <time>2022-07-26T08:45:20Z</time>
      </trkpt>
      <trkpt lat="45.65923" lon="6.67602">
        <ele>2435</ele>
        <time>2022-07-26T08:45:21Z</time>
      </trkpt>
      <trkpt lat="45.65923" lon="6.67601">
        <ele>2436</ele>
        <time>2022-07-26T08:45:22Z</time>
      </trkpt>
      <trkpt lat="45.65924" lon="6.67599">
        <ele>2436</ele>
        <time>2022-07-26T08:45:23Z</time>
      </trkpt>
      <trkpt lat="45.65924" lon="6.67598">
        <ele>2436</ele>
        <time>2022-07-26T08:45:24Z</time>
      </trkpt>
      <trkpt lat="45.65925" lon="6.67597">
        <ele>2436</ele>
        <time>2022-07-26T08:45:25Z</time>
      </trkpt>
      <trkpt lat="45.65926" lon="6.67595">
        <ele>2436</ele>
        <time>2022-07-26T08:45:26Z</time>
      </trkpt>
      <trkpt lat="45.65927" lon="6.67594">
        <ele>2436</ele>
        <time>2022-07-26T08:45:27Z</time>
      </trkpt>
      <trkpt lat="45.65927" lon="6.67592">
        <ele>2436</ele>
        <time>2022-07-26T08:45:28Z</time>
      </trkpt>
      <trkpt lat="45.65928" lon="6.67591">
        <ele>2436</ele>
        <time>2022-07-26T08:45:29Z</time>
      </trkpt>
      <trkpt lat="45.65929" lon="6.67589">
        <ele>2436</ele>
        <time>2022-07-26T08:45:30Z</time>
      </trkpt>
      <trkpt lat="45.65929" lon="6.67588">
        <ele>2436</ele>
        <time>2022-07-26T08:45:31Z</time>
      </trkpt>
      <trkpt lat="45.6593" lon="6.67587">
        <ele>2436</ele>
        <time>2022-07-26T08:45:32Z</time>
      </trkpt>
      <trkpt lat="45.65931" lon="6.67586">
        <ele>2436</ele>
        <time>2022-07-26T08:45:33Z</time>
      </trkpt>
      <trkpt lat="45.65931" lon="6.67585">
        <ele>2436</ele>
        <time>2022-07-26T08:45:34Z</time>
      </trkpt>
      <trkpt lat="45.65931" lon="6.67584">
        <ele>2436</ele>
        <time>2022-07-26T08:45:35Z</time>
      </trkpt>
      <trkpt lat="45.65932" lon="6.67582">
        <ele>2436</ele>
        <time>2022-07-26T08:45:36Z</time>
      </trkpt>
      <trkpt lat="45.65931" lon="6.67581">
        <ele>2436</ele>
        <time>2022-07-26T08:45:37Z</time>
      </trkpt>
      <trkpt lat="45.65931" lon="6.6758">
        <ele>2436</ele>
        <time>2022-07-26T08:45:38Z</time>
      </trkpt>
      <trkpt lat="45.65931" lon="6.67579">
        <ele>2436</ele>
        <time>2022-07-26T08:45:39Z</time>
      </trkpt>
      <trkpt lat="45.65931" lon="6.67578">
        <ele>2436</ele>
        <time>2022-07-26T08:45:40Z</time>
      </trkpt>
      <trkpt lat="45.65931" lon="6.67577">
        <ele>2436</ele>
        <time>2022-07-26T08:45:41Z</time>
      </trkpt>
      <trkpt lat="45.6593" lon="6.67575">
        <ele>2436</ele>
        <time>2022-07-26T08:45:42Z</time>
      </trkpt>
      <trkpt lat="45.6593" lon="6.67574">
        <ele>2435</ele>
        <time>2022-07-26T08:45:43Z</time>
      </trkpt>
      <trkpt lat="45.6593" lon="6.67573">
        <ele>2435</ele>
        <time>2022-07-26T08:45:44Z</time>
      </trkpt>
      <trkpt lat="45.6593" lon="6.67572">
        <ele>2435</ele>
        <time>2022-07-26T08:45:45Z</time>
      </trkpt>
      <trkpt lat="45.6593" lon="6.6757">
        <ele>2435</ele>
        <time>2022-07-26T08:45:46Z</time>
      </trkpt>
      <trkpt lat="45.6593" lon="6.67569">
        <ele>2435</ele>
        <time>2022-07-26T08:45:47Z</time>
      </trkpt>
      <trkpt lat="45.6593" lon="6.67568">
        <ele>2435</ele>
        <time>2022-07-26T08:45:48Z</time>
      </trkpt>
      <trkpt lat="45.6593" lon="6.67567">
        <ele>2435</ele>
        <time>2022-07-26T08:45:49Z</time>
      </trkpt>
      <trkpt lat="45.6593" lon="6.67566">
        <ele>2435</ele>
        <time>2022-07-26T08:45:50Z</time>
      </trkpt>
      <trkpt lat="45.6593" lon="6.67565">
        <ele>2435</ele>
        <time>2022-07-26T08:45:51Z</time>
      </trkpt>
      <trkpt lat="45.6593" lon="6.67564">
        <ele>2436</ele>
        <time>2022-07-26T08:45:52Z</time>
      </trkpt>
      <trkpt lat="45.6593" lon="6.67563">
        <ele>2436</ele>
        <time>2022-07-26T08:45:53Z</time>
      </trkpt>
      <trkpt lat="45.6593" lon="6.67562">
        <ele>2436</ele>
        <time>2022-07-26T08:45:54Z</time>
      </trkpt>
      <trkpt lat="45.6593" lon="6.6756">
        <ele>2436</ele>
        <time>2022-07-26T08:45:55Z</time>
      </trkpt>
      <trkpt lat="45.6593" lon="6.67559">
        <ele>2436</ele>
        <time>2022-07-26T08:45:56Z</time>
      </trkpt>
      <trkpt lat="45.65931" lon="6.67558">
        <ele>2436</ele>
        <time>2022-07-26T08:45:57Z</time>
      </trkpt>
      <trkpt lat="45.65931" lon="6.67557">
        <ele>2436</ele>
        <time>2022-07-26T08:45:58Z</time>
      </trkpt>
      <trkpt lat="45.65931" lon="6.67556">
        <ele>2436</ele>
        <time>2022-07-26T08:45:59Z</time>
      </trkpt>
      <trkpt lat="45.65931" lon="6.67555">
        <ele>2436</ele>
        <time>2022-07-26T08:46:00Z</time>
      </trkpt>
      <trkpt lat="45.65931" lon="6.67554">
        <ele>2436</ele>
        <time>2022-07-26T08:46:01Z</time>
      </trkpt>
      <trkpt lat="45.65931" lon="6.67553">
        <ele>2437</ele>
        <time>2022-07-26T08:46:02Z</time>
      </trkpt>
      <trkpt lat="45.65931" lon="6.67552">
        <ele>2437</ele>
        <time>2022-07-26T08:46:03Z</time>
      </trkpt>
      <trkpt lat="45.65931" lon="6.67551">
        <ele>2437</ele>
        <time>2022-07-26T08:46:04Z</time>
      </trkpt>
      <trkpt lat="45.65931" lon="6.6755">
        <ele>2437</ele>
        <time>2022-07-26T08:46:05Z</time>
      </trkpt>
      <trkpt lat="45.65931" lon="6.67549">
        <ele>2437</ele>
        <time>2022-07-26T08:46:06Z</time>
      </trkpt>
      <trkpt lat="45.65931" lon="6.67547">
        <ele>2437</ele>
        <time>2022-07-26T08:46:07Z</time>
      </trkpt>
      <trkpt lat="45.65931" lon="6.67546">
        <ele>2437</ele>
        <time>2022-07-26T08:46:08Z</time>
      </trkpt>
      <trkpt lat="45.65931" lon="6.67545">
        <ele>2437</ele>
        <time>2022-07-26T08:46:09Z</time>
      </trkpt>
      <trkpt lat="45.65931" lon="6.67544">
        <ele>2437</ele>
        <time>2022-07-26T08:46:10Z</time>
      </trkpt>
      <trkpt lat="45.65931" lon="6.67543">
        <ele>2437</ele>
        <time>2022-07-26T08:46:11Z</time>
      </trkpt>
      <trkpt lat="45.65931" lon="6.67542">
        <ele>2437</ele>
        <time>2022-07-26T08:46:12Z</time>
      </trkpt>
      <trkpt lat="45.65931" lon="6.6754">
        <ele>2437</ele>
        <time>2022-07-26T08:46:13Z</time>
      </trkpt>
      <trkpt lat="45.65931" lon="6.67539">
        <ele>2437</ele>
        <time>2022-07-26T08:46:14Z</time>
      </trkpt>
      <trkpt lat="45.65931" lon="6.67538">
        <ele>2437</ele>
        <time>2022-07-26T08:46:15Z</time>
      </trkpt>
      <trkpt lat="45.65931" lon="6.67537">
        <ele>2437</ele>
        <time>2022-07-26T08:46:16Z</time>
      </trkpt>
      <trkpt lat="45.65931" lon="6.67535">
        <ele>2438</ele>
        <time>2022-07-26T08:46:17Z</time>
      </trkpt>
      <trkpt lat="45.6593" lon="6.67534">
        <ele>2438</ele>
        <time>2022-07-26T08:46:18Z</time>
      </trkpt>
      <trkpt lat="45.6593" lon="6.67533">
        <ele>2438</ele>
        <time>2022-07-26T08:46:19Z</time>
      </trkpt>
      <trkpt lat="45.6593" lon="6.67532">
        <ele>2438</ele>
        <time>2022-07-26T08:46:20Z</time>
      </trkpt>
      <trkpt lat="45.6593" lon="6.67531">
        <ele>2438</ele>
        <time>2022-07-26T08:46:21Z</time>
      </trkpt>
      <trkpt lat="45.6593" lon="6.6753">
        <ele>2438</ele>
        <time>2022-07-26T08:46:22Z</time>
      </trkpt>
      <trkpt lat="45.65929" lon="6.67528">
        <ele>2438</ele>
        <time>2022-07-26T08:46:23Z</time>
      </trkpt>
      <trkpt lat="45.65929" lon="6.67527">
        <ele>2438</ele>
        <time>2022-07-26T08:46:24Z</time>
      </trkpt>
      <trkpt lat="45.65929" lon="6.67526">
        <ele>2438</ele>
        <time>2022-07-26T08:46:25Z</time>
      </trkpt>
      <trkpt lat="45.65929" lon="6.67525">
        <ele>2438</ele>
        <time>2022-07-26T08:46:26Z</time>
      </trkpt>
      <trkpt lat="45.65929" lon="6.67524">
        <ele>2439</ele>
        <time>2022-07-26T08:46:27Z</time>
      </trkpt>
      <trkpt lat="45.65928" lon="6.67523">
        <ele>2439</ele>
        <time>2022-07-26T08:46:28Z</time>
      </trkpt>
      <trkpt lat="45.65928" lon="6.67522">
        <ele>2439</ele>
        <time>2022-07-26T08:46:29Z</time>
      </trkpt>
      <trkpt lat="45.65928" lon="6.67521">
        <ele>2439</ele>
        <time>2022-07-26T08:46:30Z</time>
      </trkpt>
      <trkpt lat="45.65927" lon="6.6752">
        <ele>2439</ele>
        <time>2022-07-26T08:46:31Z</time>
      </trkpt>
      <trkpt lat="45.65927" lon="6.67518">
        <ele>2440</ele>
        <time>2022-07-26T08:46:32Z</time>
      </trkpt>
      <trkpt lat="45.65927" lon="6.67517">
        <ele>2440</ele>
        <time>2022-07-26T08:46:33Z</time>
      </trkpt>
      <trkpt lat="45.65926" lon="6.67516">
        <ele>2440</ele>
        <time>2022-07-26T08:46:34Z</time>
      </trkpt>
      <trkpt lat="45.65926" lon="6.67514">
        <ele>2440</ele>
        <time>2022-07-26T08:46:35Z</time>
      </trkpt>
      <trkpt lat="45.65926" lon="6.67513">
        <ele>2440</ele>
        <time>2022-07-26T08:46:36Z</time>
      </trkpt>
      <trkpt lat="45.65926" lon="6.67511">
        <ele>2440</ele>
        <time>2022-07-26T08:46:37Z</time>
      </trkpt>
      <trkpt lat="45.65926" lon="6.6751">
        <ele>2440</ele>
        <time>2022-07-26T08:46:38Z</time>
      </trkpt>
      <trkpt lat="45.65926" lon="6.67509">
        <ele>2440</ele>
        <time>2022-07-26T08:46:39Z</time>
      </trkpt>
      <trkpt lat="45.65926" lon="6.67508">
        <ele>2440</ele>
        <time>2022-07-26T08:46:40Z</time>
      </trkpt>
      <trkpt lat="45.65926" lon="6.67506">
        <ele>2440</ele>
        <time>2022-07-26T08:46:41Z</time>
      </trkpt>
      <trkpt lat="45.65926" lon="6.67505">
        <ele>2441</ele>
        <time>2022-07-26T08:46:42Z</time>
      </trkpt>
      <trkpt lat="45.65926" lon="6.67504">
        <ele>2441</ele>
        <time>2022-07-26T08:46:43Z</time>
      </trkpt>
      <trkpt lat="45.65925" lon="6.67502">
        <ele>2441</ele>
        <time>2022-07-26T08:46:44Z</time>
      </trkpt>
      <trkpt lat="45.65925" lon="6.67501">
        <ele>2441</ele>
        <time>2022-07-26T08:46:45Z</time>
      </trkpt>
      <trkpt lat="45.65925" lon="6.675">
        <ele>2441</ele>
        <time>2022-07-26T08:46:46Z</time>
      </trkpt>
      <trkpt lat="45.65925" lon="6.67498">
        <ele>2441</ele>
        <time>2022-07-26T08:46:47Z</time>
      </trkpt>
      <trkpt lat="45.65925" lon="6.67497">
        <ele>2441</ele>
        <time>2022-07-26T08:46:48Z</time>
      </trkpt>
      <trkpt lat="45.65926" lon="6.67495">
        <ele>2441</ele>
        <time>2022-07-26T08:46:49Z</time>
      </trkpt>
      <trkpt lat="45.65926" lon="6.67494">
        <ele>2441</ele>
        <time>2022-07-26T08:46:50Z</time>
      </trkpt>
      <trkpt lat="45.65926" lon="6.67493">
        <ele>2441</ele>
        <time>2022-07-26T08:46:51Z</time>
      </trkpt>
      <trkpt lat="45.65926" lon="6.67492">
        <ele>2441</ele>
        <time>2022-07-26T08:46:52Z</time>
      </trkpt>
      <trkpt lat="45.65926" lon="6.6749">
        <ele>2441</ele>
        <time>2022-07-26T08:46:53Z</time>
      </trkpt>
      <trkpt lat="45.65927" lon="6.67489">
        <ele>2441</ele>
        <time>2022-07-26T08:46:54Z</time>
      </trkpt>
      <trkpt lat="45.65927" lon="6.67488">
        <ele>2441</ele>
        <time>2022-07-26T08:46:55Z</time>
      </trkpt>
      <trkpt lat="45.65927" lon="6.67488">
        <ele>2441</ele>
        <time>2022-07-26T08:46:56Z</time>
      </trkpt>
      <trkpt lat="45.65927" lon="6.67487">
        <ele>2442</ele>
        <time>2022-07-26T08:46:57Z</time>
      </trkpt>
      <trkpt lat="45.65927" lon="6.67487">
        <ele>2442</ele>
        <time>2022-07-26T08:46:58Z</time>
      </trkpt>
      <trkpt lat="45.65927" lon="6.67487">
        <ele>2442</ele>
        <time>2022-07-26T08:46:59Z</time>
      </trkpt>
      <trkpt lat="45.65928" lon="6.67487">
        <ele>2442</ele>
        <time>2022-07-26T08:47:00Z</time>
      </trkpt>
      <trkpt lat="45.65928" lon="6.67486">
        <ele>2442</ele>
        <time>2022-07-26T08:47:01Z</time>
      </trkpt>
      <trkpt lat="45.65928" lon="6.67485">
        <ele>2442</ele>
        <time>2022-07-26T08:47:02Z</time>
      </trkpt>
      <trkpt lat="45.65929" lon="6.67484">
        <ele>2442</ele>
        <time>2022-07-26T08:47:03Z</time>
      </trkpt>
      <trkpt lat="45.65929" lon="6.67483">
        <ele>2442</ele>
        <time>2022-07-26T08:47:04Z</time>
      </trkpt>
      <trkpt lat="45.65929" lon="6.67482">
        <ele>2442</ele>
        <time>2022-07-26T08:47:05Z</time>
      </trkpt>
      <trkpt lat="45.6593" lon="6.67481">
        <ele>2442</ele>
        <time>2022-07-26T08:47:06Z</time>
      </trkpt>
      <trkpt lat="45.6593" lon="6.6748">
        <ele>2442</ele>
        <time>2022-07-26T08:47:07Z</time>
      </trkpt>
      <trkpt lat="45.6593" lon="6.67478">
        <ele>2442</ele>
        <time>2022-07-26T08:47:08Z</time>
      </trkpt>
      <trkpt lat="45.6593" lon="6.67477">
        <ele>2442</ele>
        <time>2022-07-26T08:47:09Z</time>
      </trkpt>
      <trkpt lat="45.65931" lon="6.67477">
        <ele>2442</ele>
        <time>2022-07-26T08:47:10Z</time>
      </trkpt>
      <trkpt lat="45.65931" lon="6.67476">
        <ele>2442</ele>
        <time>2022-07-26T08:47:11Z</time>
      </trkpt>
      <trkpt lat="45.65931" lon="6.67475">
        <ele>2443</ele>
        <time>2022-07-26T08:47:12Z</time>
      </trkpt>
      <trkpt lat="45.65931" lon="6.67474">
        <ele>2443</ele>
        <time>2022-07-26T08:47:13Z</time>
      </trkpt>
      <trkpt lat="45.65931" lon="6.67473">
        <ele>2443</ele>
        <time>2022-07-26T08:47:14Z</time>
      </trkpt>
      <trkpt lat="45.65932" lon="6.67473">
        <ele>2443</ele>
        <time>2022-07-26T08:47:15Z</time>
      </trkpt>
      <trkpt lat="45.65932" lon="6.67472">
        <ele>2443</ele>
        <time>2022-07-26T08:47:16Z</time>
      </trkpt>
      <trkpt lat="45.65932" lon="6.67472">
        <ele>2443</ele>
        <time>2022-07-26T08:47:17Z</time>
      </trkpt>
      <trkpt lat="45.65932" lon="6.67471">
        <ele>2443</ele>
        <time>2022-07-26T08:47:18Z</time>
      </trkpt>
      <trkpt lat="45.65932" lon="6.6747">
        <ele>2443</ele>
        <time>2022-07-26T08:47:19Z</time>
      </trkpt>
      <trkpt lat="45.65932" lon="6.67469">
        <ele>2443</ele>
        <time>2022-07-26T08:47:20Z</time>
      </trkpt>
      <trkpt lat="45.65933" lon="6.67468">
        <ele>2443</ele>
        <time>2022-07-26T08:47:21Z</time>
      </trkpt>
      <trkpt lat="45.65933" lon="6.67467">
        <ele>2444</ele>
        <time>2022-07-26T08:47:22Z</time>
      </trkpt>
      <trkpt lat="45.65933" lon="6.67465">
        <ele>2444</ele>
        <time>2022-07-26T08:47:23Z</time>
      </trkpt>
      <trkpt lat="45.65933" lon="6.67464">
        <ele>2444</ele>
        <time>2022-07-26T08:47:24Z</time>
      </trkpt>
      <trkpt lat="45.65933" lon="6.67463">
        <ele>2444</ele>
        <time>2022-07-26T08:47:25Z</time>
      </trkpt>
      <trkpt lat="45.65934" lon="6.67462">
        <ele>2444</ele>
        <time>2022-07-26T08:47:26Z</time>
      </trkpt>
      <trkpt lat="45.65934" lon="6.67461">
        <ele>2445</ele>
        <time>2022-07-26T08:47:27Z</time>
      </trkpt>
      <trkpt lat="45.65934" lon="6.6746">
        <ele>2445</ele>
        <time>2022-07-26T08:47:28Z</time>
      </trkpt>
      <trkpt lat="45.65934" lon="6.67459">
        <ele>2445</ele>
        <time>2022-07-26T08:47:29Z</time>
      </trkpt>
      <trkpt lat="45.65935" lon="6.67458">
        <ele>2445</ele>
        <time>2022-07-26T08:47:30Z</time>
      </trkpt>
      <trkpt lat="45.65935" lon="6.67457">
        <ele>2445</ele>
        <time>2022-07-26T08:47:31Z</time>
      </trkpt>
      <trkpt lat="45.65935" lon="6.67456">
        <ele>2445</ele>
        <time>2022-07-26T08:47:32Z</time>
      </trkpt>
      <trkpt lat="45.65935" lon="6.67455">
        <ele>2445</ele>
        <time>2022-07-26T08:47:33Z</time>
      </trkpt>
      <trkpt lat="45.65935" lon="6.67455">
        <ele>2445</ele>
        <time>2022-07-26T08:47:34Z</time>
      </trkpt>
      <trkpt lat="45.65935" lon="6.67454">
        <ele>2445</ele>
        <time>2022-07-26T08:47:35Z</time>
      </trkpt>
      <trkpt lat="45.65935" lon="6.67453">
        <ele>2445</ele>
        <time>2022-07-26T08:47:36Z</time>
      </trkpt>
      <trkpt lat="45.65935" lon="6.67452">
        <ele>2446</ele>
        <time>2022-07-26T08:47:37Z</time>
      </trkpt>
      <trkpt lat="45.65936" lon="6.67451">
        <ele>2446</ele>
        <time>2022-07-26T08:47:38Z</time>
      </trkpt>
      <trkpt lat="45.65936" lon="6.6745">
        <ele>2446</ele>
        <time>2022-07-26T08:47:39Z</time>
      </trkpt>
      <trkpt lat="45.65936" lon="6.67449">
        <ele>2446</ele>
        <time>2022-07-26T08:47:40Z</time>
      </trkpt>
      <trkpt lat="45.65936" lon="6.67448">
        <ele>2446</ele>
        <time>2022-07-26T08:47:41Z</time>
      </trkpt>
      <trkpt lat="45.65936" lon="6.67447">
        <ele>2446</ele>
        <time>2022-07-26T08:47:42Z</time>
      </trkpt>
      <trkpt lat="45.65936" lon="6.67446">
        <ele>2446</ele>
        <time>2022-07-26T08:47:43Z</time>
      </trkpt>
      <trkpt lat="45.65936" lon="6.67445">
        <ele>2446</ele>
        <time>2022-07-26T08:47:44Z</time>
      </trkpt>
      <trkpt lat="45.65936" lon="6.67443">
        <ele>2446</ele>
        <time>2022-07-26T08:47:45Z</time>
      </trkpt>
      <trkpt lat="45.65936" lon="6.67442">
        <ele>2446</ele>
        <time>2022-07-26T08:47:46Z</time>
      </trkpt>
      <trkpt lat="45.65935" lon="6.67441">
        <ele>2446</ele>
        <time>2022-07-26T08:47:47Z</time>
      </trkpt>
      <trkpt lat="45.65935" lon="6.6744">
        <ele>2446</ele>
        <time>2022-07-26T08:47:48Z</time>
      </trkpt>
      <trkpt lat="45.65935" lon="6.67438">
        <ele>2446</ele>
        <time>2022-07-26T08:47:49Z</time>
      </trkpt>
      <trkpt lat="45.65935" lon="6.67437">
        <ele>2446</ele>
        <time>2022-07-26T08:47:50Z</time>
      </trkpt>
      <trkpt lat="45.65934" lon="6.67435">
        <ele>2446</ele>
        <time>2022-07-26T08:47:51Z</time>
      </trkpt>
      <trkpt lat="45.65934" lon="6.67434">
        <ele>2446</ele>
        <time>2022-07-26T08:47:52Z</time>
      </trkpt>
      <trkpt lat="45.65934" lon="6.67433">
        <ele>2446</ele>
        <time>2022-07-26T08:47:53Z</time>
      </trkpt>
      <trkpt lat="45.65933" lon="6.67431">
        <ele>2446</ele>
        <time>2022-07-26T08:47:54Z</time>
      </trkpt>
      <trkpt lat="45.65933" lon="6.6743">
        <ele>2446</ele>
        <time>2022-07-26T08:47:55Z</time>
      </trkpt>
      <trkpt lat="45.65933" lon="6.67429">
        <ele>2446</ele>
        <time>2022-07-26T08:47:56Z</time>
      </trkpt>
      <trkpt lat="45.65933" lon="6.67427">
        <ele>2446</ele>
        <time>2022-07-26T08:47:57Z</time>
      </trkpt>
      <trkpt lat="45.65933" lon="6.67426">
        <ele>2446</ele>
        <time>2022-07-26T08:47:58Z</time>
      </trkpt>
      <trkpt lat="45.65933" lon="6.67424">
        <ele>2446</ele>
        <time>2022-07-26T08:47:59Z</time>
      </trkpt>
      <trkpt lat="45.65933" lon="6.67423">
        <ele>2446</ele>
        <time>2022-07-26T08:48:00Z</time>
      </trkpt>
      <trkpt lat="45.65933" lon="6.67421">
        <ele>2446</ele>
        <time>2022-07-26T08:48:01Z</time>
      </trkpt>
      <trkpt lat="45.65933" lon="6.6742">
        <ele>2446</ele>
        <time>2022-07-26T08:48:02Z</time>
      </trkpt>
      <trkpt lat="45.65933" lon="6.67419">
        <ele>2446</ele>
        <time>2022-07-26T08:48:03Z</time>
      </trkpt>
      <trkpt lat="45.65934" lon="6.67418">
        <ele>2446</ele>
        <time>2022-07-26T08:48:04Z</time>
      </trkpt>
      <trkpt lat="45.65934" lon="6.67417">
        <ele>2447</ele>
        <time>2022-07-26T08:48:58Z</time>
      </trkpt>
      <trkpt lat="45.65934" lon="6.67417">
        <ele>2447</ele>
        <time>2022-07-26T08:48:59Z</time>
      </trkpt>
      <trkpt lat="45.65934" lon="6.67416">
        <ele>2447</ele>
        <time>2022-07-26T08:49:00Z</time>
      </trkpt>
      <trkpt lat="45.65934" lon="6.67416">
        <ele>2447</ele>
        <time>2022-07-26T08:49:01Z</time>
      </trkpt>
      <trkpt lat="45.65935" lon="6.67415">
        <ele>2447</ele>
        <time>2022-07-26T08:49:02Z</time>
      </trkpt>
      <trkpt lat="45.65935" lon="6.67414">
        <ele>2447</ele>
        <time>2022-07-26T08:49:03Z</time>
      </trkpt>
      <trkpt lat="45.65935" lon="6.67413">
        <ele>2447</ele>
        <time>2022-07-26T08:49:04Z</time>
      </trkpt>
      <trkpt lat="45.65935" lon="6.67413">
        <ele>2447</ele>
        <time>2022-07-26T08:49:05Z</time>
      </trkpt>
      <trkpt lat="45.65936" lon="6.67412">
        <ele>2447</ele>
        <time>2022-07-26T08:49:06Z</time>
      </trkpt>
      <trkpt lat="45.65936" lon="6.67411">
        <ele>2447</ele>
        <time>2022-07-26T08:49:07Z</time>
      </trkpt>
      <trkpt lat="45.65936" lon="6.6741">
        <ele>2447</ele>
        <time>2022-07-26T08:49:08Z</time>
      </trkpt>
      <trkpt lat="45.65936" lon="6.67409">
        <ele>2447</ele>
        <time>2022-07-26T08:49:09Z</time>
      </trkpt>
      <trkpt lat="45.65936" lon="6.67409">
        <ele>2447</ele>
        <time>2022-07-26T08:49:10Z</time>
      </trkpt>
      <trkpt lat="45.65936" lon="6.67408">
        <ele>2447</ele>
        <time>2022-07-26T08:49:11Z</time>
      </trkpt>
      <trkpt lat="45.65936" lon="6.67407">
        <ele>2447</ele>
        <time>2022-07-26T08:49:12Z</time>
      </trkpt>
      <trkpt lat="45.65936" lon="6.67407">
        <ele>2447</ele>
        <time>2022-07-26T08:49:13Z</time>
      </trkpt>
      <trkpt lat="45.65935" lon="6.67406">
        <ele>2447</ele>
        <time>2022-07-26T08:49:14Z</time>
      </trkpt>
      <trkpt lat="45.65935" lon="6.67404">
        <ele>2449</ele>
        <time>2022-07-26T08:49:21Z</time>
      </trkpt>
      <trkpt lat="45.65935" lon="6.67403">
        <ele>2449</ele>
        <time>2022-07-26T08:49:22Z</time>
      </trkpt>
      <trkpt lat="45.65936" lon="6.67402">
        <ele>2449</ele>
        <time>2022-07-26T08:49:23Z</time>
      </trkpt>
      <trkpt lat="45.65936" lon="6.67401">
        <ele>2449</ele>
        <time>2022-07-26T08:49:24Z</time>
      </trkpt>
      <trkpt lat="45.65936" lon="6.674">
        <ele>2449</ele>
        <time>2022-07-26T08:49:25Z</time>
      </trkpt>
      <trkpt lat="45.65936" lon="6.67399">
        <ele>2449</ele>
        <time>2022-07-26T08:49:26Z</time>
      </trkpt>
      <trkpt lat="45.65936" lon="6.67398">
        <ele>2450</ele>
        <time>2022-07-26T08:49:27Z</time>
      </trkpt>
      <trkpt lat="45.65936" lon="6.67397">
        <ele>2450</ele>
        <time>2022-07-26T08:49:28Z</time>
      </trkpt>
      <trkpt lat="45.65936" lon="6.67396">
        <ele>2450</ele>
        <time>2022-07-26T08:49:29Z</time>
      </trkpt>
      <trkpt lat="45.65936" lon="6.67395">
        <ele>2450</ele>
        <time>2022-07-26T08:49:30Z</time>
      </trkpt>
      <trkpt lat="45.65937" lon="6.67394">
        <ele>2450</ele>
        <time>2022-07-26T08:49:31Z</time>
      </trkpt>
      <trkpt lat="45.65937" lon="6.67393">
        <ele>2450</ele>
        <time>2022-07-26T08:49:32Z</time>
      </trkpt>
      <trkpt lat="45.65937" lon="6.67393">
        <ele>2450</ele>
        <time>2022-07-26T08:49:33Z</time>
      </trkpt>
      <trkpt lat="45.65937" lon="6.67392">
        <ele>2450</ele>
        <time>2022-07-26T08:49:34Z</time>
      </trkpt>
      <trkpt lat="45.65937" lon="6.67391">
        <ele>2450</ele>
        <time>2022-07-26T08:49:35Z</time>
      </trkpt>
      <trkpt lat="45.65937" lon="6.67391">
        <ele>2450</ele>
        <time>2022-07-26T08:49:36Z</time>
      </trkpt>
      <trkpt lat="45.65937" lon="6.6739">
        <ele>2451</ele>
        <time>2022-07-26T08:49:37Z</time>
      </trkpt>
      <trkpt lat="45.65937" lon="6.67389">
        <ele>2451</ele>
        <time>2022-07-26T08:49:38Z</time>
      </trkpt>
      <trkpt lat="45.65937" lon="6.67388">
        <ele>2451</ele>
        <time>2022-07-26T08:49:39Z</time>
      </trkpt>
      <trkpt lat="45.65938" lon="6.67387">
        <ele>2451</ele>
        <time>2022-07-26T08:49:40Z</time>
      </trkpt>
      <trkpt lat="45.65938" lon="6.67385">
        <ele>2451</ele>
        <time>2022-07-26T08:49:46Z</time>
      </trkpt>
      <trkpt lat="45.65938" lon="6.67384">
        <ele>2452</ele>
        <time>2022-07-26T08:49:47Z</time>
      </trkpt>
      <trkpt lat="45.65938" lon="6.67383">
        <ele>2452</ele>
        <time>2022-07-26T08:49:48Z</time>
      </trkpt>
      <trkpt lat="45.65938" lon="6.67382">
        <ele>2452</ele>
        <time>2022-07-26T08:49:49Z</time>
      </trkpt>
      <trkpt lat="45.65938" lon="6.67381">
        <ele>2452</ele>
        <time>2022-07-26T08:49:50Z</time>
      </trkpt>
      <trkpt lat="45.65938" lon="6.67379">
        <ele>2454</ele>
        <time>2022-07-26T08:50:07Z</time>
      </trkpt>
      <trkpt lat="45.65938" lon="6.67378">
        <ele>2454</ele>
        <time>2022-07-26T08:50:08Z</time>
      </trkpt>
      <trkpt lat="45.65938" lon="6.67377">
        <ele>2454</ele>
        <time>2022-07-26T08:50:09Z</time>
      </trkpt>
      <trkpt lat="45.65938" lon="6.67374">
        <ele>2454</ele>
        <time>2022-07-26T08:50:15Z</time>
      </trkpt>
      <trkpt lat="45.65938" lon="6.67372">
        <ele>2454</ele>
        <time>2022-07-26T08:50:16Z</time>
      </trkpt>
      <trkpt lat="45.65938" lon="6.67371">
        <ele>2455</ele>
        <time>2022-07-26T08:50:17Z</time>
      </trkpt>
      <trkpt lat="45.65937" lon="6.6737">
        <ele>2455</ele>
        <time>2022-07-26T08:50:18Z</time>
      </trkpt>
      <trkpt lat="45.65937" lon="6.67368">
        <ele>2455</ele>
        <time>2022-07-26T08:50:19Z</time>
      </trkpt>
      <trkpt lat="45.65937" lon="6.67367">
        <ele>2455</ele>
        <time>2022-07-26T08:50:20Z</time>
      </trkpt>
      <trkpt lat="45.65937" lon="6.67366">
        <ele>2455</ele>
        <time>2022-07-26T08:50:21Z</time>
      </trkpt>
      <trkpt lat="45.65936" lon="6.67365">
        <ele>2455</ele>
        <time>2022-07-26T08:50:22Z</time>
      </trkpt>
      <trkpt lat="45.65936" lon="6.67364">
        <ele>2455</ele>
        <time>2022-07-26T08:50:23Z</time>
      </trkpt>
      <trkpt lat="45.65935" lon="6.67363">
        <ele>2455</ele>
        <time>2022-07-26T08:50:24Z</time>
      </trkpt>
      <trkpt lat="45.65935" lon="6.67362">
        <ele>2455</ele>
        <time>2022-07-26T08:50:25Z</time>
      </trkpt>
      <trkpt lat="45.65935" lon="6.67361">
        <ele>2455</ele>
        <time>2022-07-26T08:50:26Z</time>
      </trkpt>
      <trkpt lat="45.65935" lon="6.6736">
        <ele>2455</ele>
        <time>2022-07-26T08:50:27Z</time>
      </trkpt>
      <trkpt lat="45.65935" lon="6.67358">
        <ele>2455</ele>
        <time>2022-07-26T08:50:28Z</time>
      </trkpt>
      <trkpt lat="45.65935" lon="6.67357">
        <ele>2455</ele>
        <time>2022-07-26T08:50:29Z</time>
      </trkpt>
      <trkpt lat="45.65935" lon="6.67356">
        <ele>2455</ele>
        <time>2022-07-26T08:50:30Z</time>
      </trkpt>
      <trkpt lat="45.65935" lon="6.67355">
        <ele>2455</ele>
        <time>2022-07-26T08:50:31Z</time>
      </trkpt>
      <trkpt lat="45.65935" lon="6.67354">
        <ele>2456</ele>
        <time>2022-07-26T08:50:32Z</time>
      </trkpt>
      <trkpt lat="45.65935" lon="6.67353">
        <ele>2456</ele>
        <time>2022-07-26T08:50:33Z</time>
      </trkpt>
      <trkpt lat="45.65934" lon="6.67352">
        <ele>2456</ele>
        <time>2022-07-26T08:50:34Z</time>
      </trkpt>
      <trkpt lat="45.65934" lon="6.67351">
        <ele>2456</ele>
        <time>2022-07-26T08:50:35Z</time>
      </trkpt>
      <trkpt lat="45.65933" lon="6.6735">
        <ele>2456</ele>
        <time>2022-07-26T08:50:36Z</time>
      </trkpt>
      <trkpt lat="45.65933" lon="6.67349">
        <ele>2456</ele>
        <time>2022-07-26T08:50:37Z</time>
      </trkpt>
      <trkpt lat="45.65933" lon="6.67348">
        <ele>2456</ele>
        <time>2022-07-26T08:50:38Z</time>
      </trkpt>
      <trkpt lat="45.65932" lon="6.67347">
        <ele>2456</ele>
        <time>2022-07-26T08:50:39Z</time>
      </trkpt>
      <trkpt lat="45.65932" lon="6.67346">
        <ele>2456</ele>
        <time>2022-07-26T08:50:40Z</time>
      </trkpt>
      <trkpt lat="45.65932" lon="6.67345">
        <ele>2456</ele>
        <time>2022-07-26T08:50:41Z</time>
      </trkpt>
      <trkpt lat="45.65932" lon="6.67339">
        <ele>2460</ele>
        <time>2022-07-26T08:51:09Z</time>
      </trkpt>
      <trkpt lat="45.65932" lon="6.67337">
        <ele>2460</ele>
        <time>2022-07-26T08:51:10Z</time>
      </trkpt>
      <trkpt lat="45.65932" lon="6.67334">
        <ele>2460</ele>
        <time>2022-07-26T08:51:11Z</time>
      </trkpt>
      <trkpt lat="45.65931" lon="6.67333">
        <ele>2461</ele>
        <time>2022-07-26T08:51:12Z</time>
      </trkpt>
      <trkpt lat="45.65931" lon="6.67332">
        <ele>2461</ele>
        <time>2022-07-26T08:51:13Z</time>
      </trkpt>
      <trkpt lat="45.65931" lon="6.67331">
        <ele>2461</ele>
        <time>2022-07-26T08:51:14Z</time>
      </trkpt>
      <trkpt lat="45.65931" lon="6.6733">
        <ele>2461</ele>
        <time>2022-07-26T08:51:15Z</time>
      </trkpt>
      <trkpt lat="45.6593" lon="6.67329">
        <ele>2461</ele>
        <time>2022-07-26T08:51:16Z</time>
      </trkpt>
      <trkpt lat="45.6593" lon="6.67328">
        <ele>2461</ele>
        <time>2022-07-26T08:51:17Z</time>
      </trkpt>
      <trkpt lat="45.65929" lon="6.67328">
        <ele>2461</ele>
        <time>2022-07-26T08:51:18Z</time>
      </trkpt>
      <trkpt lat="45.65929" lon="6.67327">
        <ele>2461</ele>
        <time>2022-07-26T08:51:19Z</time>
      </trkpt>
      <trkpt lat="45.65928" lon="6.67326">
        <ele>2461</ele>
        <time>2022-07-26T08:51:20Z</time>
      </trkpt>
      <trkpt lat="45.65927" lon="6.67326">
        <ele>2461</ele>
        <time>2022-07-26T08:51:21Z</time>
      </trkpt>
      <trkpt lat="45.65927" lon="6.67325">
        <ele>2462</ele>
        <time>2022-07-26T08:51:22Z</time>
      </trkpt>
      <trkpt lat="45.65926" lon="6.67324">
        <ele>2463</ele>
        <time>2022-07-26T08:51:34Z</time>
      </trkpt>
      <trkpt lat="45.65926" lon="6.67323">
        <ele>2463</ele>
        <time>2022-07-26T08:51:35Z</time>
      </trkpt>
      <trkpt lat="45.65925" lon="6.67322">
        <ele>2463</ele>
        <time>2022-07-26T08:51:36Z</time>
      </trkpt>
      <trkpt lat="45.65925" lon="6.6732">
        <ele>2465</ele>
        <time>2022-07-26T08:51:47Z</time>
      </trkpt>
      <trkpt lat="45.65925" lon="6.67319">
        <ele>2465</ele>
        <time>2022-07-26T08:51:48Z</time>
      </trkpt>
      <trkpt lat="45.65926" lon="6.67318">
        <ele>2465</ele>
        <time>2022-07-26T08:51:49Z</time>
      </trkpt>
      <trkpt lat="45.65926" lon="6.67317">
        <ele>2465</ele>
        <time>2022-07-26T08:51:50Z</time>
      </trkpt>
      <trkpt lat="45.65927" lon="6.67317">
        <ele>2465</ele>
        <time>2022-07-26T08:51:51Z</time>
      </trkpt>
      <trkpt lat="45.65927" lon="6.67316">
        <ele>2465</ele>
        <time>2022-07-26T08:51:52Z</time>
      </trkpt>
      <trkpt lat="45.65928" lon="6.67316">
        <ele>2465</ele>
        <time>2022-07-26T08:51:53Z</time>
      </trkpt>
      <trkpt lat="45.65929" lon="6.67315">
        <ele>2465</ele>
        <time>2022-07-26T08:51:54Z</time>
      </trkpt>
      <trkpt lat="45.65929" lon="6.67314">
        <ele>2465</ele>
        <time>2022-07-26T08:51:55Z</time>
      </trkpt>
      <trkpt lat="45.65929" lon="6.67313">
        <ele>2465</ele>
        <time>2022-07-26T08:51:56Z</time>
      </trkpt>
      <trkpt lat="45.6593" lon="6.67312">
        <ele>2466</ele>
        <time>2022-07-26T08:51:57Z</time>
      </trkpt>
      <trkpt lat="45.6593" lon="6.67311">
        <ele>2466</ele>
        <time>2022-07-26T08:51:58Z</time>
      </trkpt>
      <trkpt lat="45.6593" lon="6.6731">
        <ele>2466</ele>
        <time>2022-07-26T08:51:59Z</time>
      </trkpt>
      <trkpt lat="45.6593" lon="6.67309">
        <ele>2466</ele>
        <time>2022-07-26T08:52:00Z</time>
      </trkpt>
      <trkpt lat="45.6593" lon="6.67308">
        <ele>2466</ele>
        <time>2022-07-26T08:52:01Z</time>
      </trkpt>
      <trkpt lat="45.6593" lon="6.67307">
        <ele>2467</ele>
        <time>2022-07-26T08:52:02Z</time>
      </trkpt>
      <trkpt lat="45.65929" lon="6.67306">
        <ele>2467</ele>
        <time>2022-07-26T08:52:03Z</time>
      </trkpt>
      <trkpt lat="45.65929" lon="6.67305">
        <ele>2467</ele>
        <time>2022-07-26T08:52:04Z</time>
      </trkpt>
      <trkpt lat="45.65929" lon="6.67304">
        <ele>2467</ele>
        <time>2022-07-26T08:52:05Z</time>
      </trkpt>
      <trkpt lat="45.65929" lon="6.67303">
        <ele>2467</ele>
        <time>2022-07-26T08:52:06Z</time>
      </trkpt>
      <trkpt lat="45.65929" lon="6.67302">
        <ele>2467</ele>
        <time>2022-07-26T08:52:07Z</time>
      </trkpt>
      <trkpt lat="45.65928" lon="6.67298">
        <ele>2470</ele>
        <time>2022-07-26T08:52:22Z</time>
      </trkpt>
      <trkpt lat="45.65927" lon="6.67297">
        <ele>2470</ele>
        <time>2022-07-26T08:52:23Z</time>
      </trkpt>
      <trkpt lat="45.65927" lon="6.67295">
        <ele>2470</ele>
        <time>2022-07-26T08:52:24Z</time>
      </trkpt>
      <trkpt lat="45.65926" lon="6.67294">
        <ele>2470</ele>
        <time>2022-07-26T08:52:25Z</time>
      </trkpt>
      <trkpt lat="45.65926" lon="6.67293">
        <ele>2470</ele>
        <time>2022-07-26T08:52:26Z</time>
      </trkpt>
      <trkpt lat="45.65925" lon="6.67292">
        <ele>2471</ele>
        <time>2022-07-26T08:52:27Z</time>
      </trkpt>
      <trkpt lat="45.65925" lon="6.67291">
        <ele>2471</ele>
        <time>2022-07-26T08:52:28Z</time>
      </trkpt>
      <trkpt lat="45.65924" lon="6.67289">
        <ele>2471</ele>
        <time>2022-07-26T08:52:29Z</time>
      </trkpt>
      <trkpt lat="45.65924" lon="6.67288">
        <ele>2471</ele>
        <time>2022-07-26T08:52:30Z</time>
      </trkpt>
      <trkpt lat="45.65924" lon="6.67287">
        <ele>2471</ele>
        <time>2022-07-26T08:52:31Z</time>
      </trkpt>
      <trkpt lat="45.65924" lon="6.67286">
        <ele>2471</ele>
        <time>2022-07-26T08:52:32Z</time>
      </trkpt>
      <trkpt lat="45.65924" lon="6.67284">
        <ele>2471</ele>
        <time>2022-07-26T08:52:33Z</time>
      </trkpt>
      <trkpt lat="45.65923" lon="6.67283">
        <ele>2471</ele>
        <time>2022-07-26T08:52:34Z</time>
      </trkpt>
      <trkpt lat="45.65923" lon="6.67282">
        <ele>2471</ele>
        <time>2022-07-26T08:52:35Z</time>
      </trkpt>
      <trkpt lat="45.65923" lon="6.67281">
        <ele>2471</ele>
        <time>2022-07-26T08:52:36Z</time>
      </trkpt>
      <trkpt lat="45.65923" lon="6.6728">
        <ele>2472</ele>
        <time>2022-07-26T08:52:37Z</time>
      </trkpt>
      <trkpt lat="45.65923" lon="6.67278">
        <ele>2472</ele>
        <time>2022-07-26T08:52:38Z</time>
      </trkpt>
      <trkpt lat="45.65924" lon="6.67277">
        <ele>2472</ele>
        <time>2022-07-26T08:52:39Z</time>
      </trkpt>
      <trkpt lat="45.65924" lon="6.67276">
        <ele>2472</ele>
        <time>2022-07-26T08:52:40Z</time>
      </trkpt>
      <trkpt lat="45.65924" lon="6.67275">
        <ele>2472</ele>
        <time>2022-07-26T08:52:41Z</time>
      </trkpt>
      <trkpt lat="45.65924" lon="6.67274">
        <ele>2472</ele>
        <time>2022-07-26T08:52:42Z</time>
      </trkpt>
      <trkpt lat="45.65925" lon="6.67273">
        <ele>2472</ele>
        <time>2022-07-26T08:52:43Z</time>
      </trkpt>
      <trkpt lat="45.65925" lon="6.67272">
        <ele>2472</ele>
        <time>2022-07-26T08:52:44Z</time>
      </trkpt>
      <trkpt lat="45.65925" lon="6.67271">
        <ele>2472</ele>
        <time>2022-07-26T08:52:45Z</time>
      </trkpt>
      <trkpt lat="45.65926" lon="6.6727">
        <ele>2472</ele>
        <time>2022-07-26T08:52:46Z</time>
      </trkpt>
      <trkpt lat="45.65926" lon="6.67269">
        <ele>2473</ele>
        <time>2022-07-26T08:52:47Z</time>
      </trkpt>
      <trkpt lat="45.65926" lon="6.67267">
        <ele>2473</ele>
        <time>2022-07-26T08:52:48Z</time>
      </trkpt>
      <trkpt lat="45.65926" lon="6.67266">
        <ele>2473</ele>
        <time>2022-07-26T08:52:49Z</time>
      </trkpt>
      <trkpt lat="45.65927" lon="6.67265">
        <ele>2473</ele>
        <time>2022-07-26T08:52:50Z</time>
      </trkpt>
      <trkpt lat="45.65927" lon="6.67263">
        <ele>2473</ele>
        <time>2022-07-26T08:52:51Z</time>
      </trkpt>
      <trkpt lat="45.65927" lon="6.67262">
        <ele>2473</ele>
        <time>2022-07-26T08:52:52Z</time>
      </trkpt>
      <trkpt lat="45.65927" lon="6.6726">
        <ele>2473</ele>
        <time>2022-07-26T08:52:53Z</time>
      </trkpt>
      <trkpt lat="45.65927" lon="6.67259">
        <ele>2473</ele>
        <time>2022-07-26T08:52:54Z</time>
      </trkpt>
      <trkpt lat="45.65927" lon="6.67258">
        <ele>2473</ele>
        <time>2022-07-26T08:52:55Z</time>
      </trkpt>
      <trkpt lat="45.65927" lon="6.67257">
        <ele>2473</ele>
        <time>2022-07-26T08:52:56Z</time>
      </trkpt>
      <trkpt lat="45.65927" lon="6.67256">
        <ele>2474</ele>
        <time>2022-07-26T08:52:57Z</time>
      </trkpt>
      <trkpt lat="45.65927" lon="6.67255">
        <ele>2474</ele>
        <time>2022-07-26T08:52:58Z</time>
      </trkpt>
      <trkpt lat="45.65927" lon="6.67253">
        <ele>2474</ele>
        <time>2022-07-26T08:52:59Z</time>
      </trkpt>
      <trkpt lat="45.65927" lon="6.67252">
        <ele>2474</ele>
        <time>2022-07-26T08:53:00Z</time>
      </trkpt>
      <trkpt lat="45.65927" lon="6.67251">
        <ele>2474</ele>
        <time>2022-07-26T08:53:01Z</time>
      </trkpt>
      <trkpt lat="45.65927" lon="6.6725">
        <ele>2474</ele>
        <time>2022-07-26T08:53:02Z</time>
      </trkpt>
      <trkpt lat="45.65927" lon="6.67248">
        <ele>2474</ele>
        <time>2022-07-26T08:53:03Z</time>
      </trkpt>
      <trkpt lat="45.65927" lon="6.67247">
        <ele>2474</ele>
        <time>2022-07-26T08:53:04Z</time>
      </trkpt>
      <trkpt lat="45.65927" lon="6.67246">
        <ele>2474</ele>
        <time>2022-07-26T08:53:05Z</time>
      </trkpt>
      <trkpt lat="45.65927" lon="6.67244">
        <ele>2474</ele>
        <time>2022-07-26T08:53:06Z</time>
      </trkpt>
      <trkpt lat="45.65927" lon="6.67244">
        <ele>2475</ele>
        <time>2022-07-26T08:53:07Z</time>
      </trkpt>
      <trkpt lat="45.65927" lon="6.67243">
        <ele>2475</ele>
        <time>2022-07-26T08:53:08Z</time>
      </trkpt>
      <trkpt lat="45.65927" lon="6.67242">
        <ele>2475</ele>
        <time>2022-07-26T08:53:09Z</time>
      </trkpt>
      <trkpt lat="45.65927" lon="6.67242">
        <ele>2476</ele>
        <time>2022-07-26T08:53:10Z</time>
      </trkpt>
      <trkpt lat="45.65928" lon="6.67241">
        <ele>2476</ele>
        <time>2022-07-26T08:53:11Z</time>
      </trkpt>
      <trkpt lat="45.65928" lon="6.6724">
        <ele>2477</ele>
        <time>2022-07-26T08:53:12Z</time>
      </trkpt>
      <trkpt lat="45.65928" lon="6.67239">
        <ele>2477</ele>
        <time>2022-07-26T08:53:13Z</time>
      </trkpt>
      <trkpt lat="45.65928" lon="6.67238">
        <ele>2477</ele>
        <time>2022-07-26T08:53:14Z</time>
      </trkpt>
      <trkpt lat="45.65928" lon="6.67236">
        <ele>2477</ele>
        <time>2022-07-26T08:53:15Z</time>
      </trkpt>
      <trkpt lat="45.65928" lon="6.67235">
        <ele>2477</ele>
        <time>2022-07-26T08:53:16Z</time>
      </trkpt>
      <trkpt lat="45.65928" lon="6.67234">
        <ele>2477</ele>
        <time>2022-07-26T08:53:17Z</time>
      </trkpt>
      <trkpt lat="45.65928" lon="6.67233">
        <ele>2477</ele>
        <time>2022-07-26T08:53:18Z</time>
      </trkpt>
      <trkpt lat="45.65928" lon="6.67231">
        <ele>2477</ele>
        <time>2022-07-26T08:53:19Z</time>
      </trkpt>
      <trkpt lat="45.65928" lon="6.6723">
        <ele>2477</ele>
        <time>2022-07-26T08:53:20Z</time>
      </trkpt>
      <trkpt lat="45.65928" lon="6.67228">
        <ele>2477</ele>
        <time>2022-07-26T08:53:21Z</time>
      </trkpt>
      <trkpt lat="45.65928" lon="6.67227">
        <ele>2478</ele>
        <time>2022-07-26T08:53:22Z</time>
      </trkpt>
      <trkpt lat="45.65928" lon="6.67225">
        <ele>2478</ele>
        <time>2022-07-26T08:53:23Z</time>
      </trkpt>
      <trkpt lat="45.65928" lon="6.67224">
        <ele>2478</ele>
        <time>2022-07-26T08:53:24Z</time>
      </trkpt>
      <trkpt lat="45.65927" lon="6.67222">
        <ele>2478</ele>
        <time>2022-07-26T08:53:25Z</time>
      </trkpt>
      <trkpt lat="45.65927" lon="6.67221">
        <ele>2478</ele>
        <time>2022-07-26T08:53:26Z</time>
      </trkpt>
      <trkpt lat="45.65927" lon="6.6722">
        <ele>2479</ele>
        <time>2022-07-26T08:53:27Z</time>
      </trkpt>
      <trkpt lat="45.65927" lon="6.67218">
        <ele>2479</ele>
        <time>2022-07-26T08:53:28Z</time>
      </trkpt>
      <trkpt lat="45.65927" lon="6.67217">
        <ele>2479</ele>
        <time>2022-07-26T08:53:29Z</time>
      </trkpt>
      <trkpt lat="45.65927" lon="6.67216">
        <ele>2479</ele>
        <time>2022-07-26T08:53:30Z</time>
      </trkpt>
      <trkpt lat="45.65927" lon="6.67215">
        <ele>2479</ele>
        <time>2022-07-26T08:53:31Z</time>
      </trkpt>
      <trkpt lat="45.65926" lon="6.67213">
        <ele>2479</ele>
        <time>2022-07-26T08:53:32Z</time>
      </trkpt>
      <trkpt lat="45.65926" lon="6.67212">
        <ele>2479</ele>
        <time>2022-07-26T08:53:33Z</time>
      </trkpt>
      <trkpt lat="45.65926" lon="6.67211">
        <ele>2479</ele>
        <time>2022-07-26T08:53:34Z</time>
      </trkpt>
      <trkpt lat="45.65926" lon="6.67209">
        <ele>2479</ele>
        <time>2022-07-26T08:53:35Z</time>
      </trkpt>
      <trkpt lat="45.65926" lon="6.67208">
        <ele>2479</ele>
        <time>2022-07-26T08:53:36Z</time>
      </trkpt>
      <trkpt lat="45.65926" lon="6.67206">
        <ele>2480</ele>
        <time>2022-07-26T08:53:37Z</time>
      </trkpt>
      <trkpt lat="45.65925" lon="6.67205">
        <ele>2480</ele>
        <time>2022-07-26T08:53:38Z</time>
      </trkpt>
      <trkpt lat="45.65925" lon="6.67204">
        <ele>2480</ele>
        <time>2022-07-26T08:53:39Z</time>
      </trkpt>
      <trkpt lat="45.65925" lon="6.67203">
        <ele>2480</ele>
        <time>2022-07-26T08:53:40Z</time>
      </trkpt>
      <trkpt lat="45.65925" lon="6.67202">
        <ele>2480</ele>
        <time>2022-07-26T08:53:41Z</time>
      </trkpt>
      <trkpt lat="45.65925" lon="6.67201">
        <ele>2480</ele>
        <time>2022-07-26T08:53:42Z</time>
      </trkpt>
      <trkpt lat="45.65925" lon="6.67201">
        <ele>2480</ele>
        <time>2022-07-26T08:53:43Z</time>
      </trkpt>
      <trkpt lat="45.65924" lon="6.672">
        <ele>2480</ele>
        <time>2022-07-26T08:53:44Z</time>
      </trkpt>
      <trkpt lat="45.65924" lon="6.67199">
        <ele>2480</ele>
        <time>2022-07-26T08:53:45Z</time>
      </trkpt>
      <trkpt lat="45.65924" lon="6.67197">
        <ele>2482</ele>
        <time>2022-07-26T08:56:28Z</time>
      </trkpt>
      <trkpt lat="45.65924" lon="6.67196">
        <ele>2482</ele>
        <time>2022-07-26T08:56:29Z</time>
      </trkpt>
      <trkpt lat="45.65924" lon="6.67195">
        <ele>2482</ele>
        <time>2022-07-26T08:56:30Z</time>
      </trkpt>
      <trkpt lat="45.65924" lon="6.67194">
        <ele>2482</ele>
        <time>2022-07-26T08:56:31Z</time>
      </trkpt>
      <trkpt lat="45.65924" lon="6.67193">
        <ele>2482</ele>
        <time>2022-07-26T08:56:32Z</time>
      </trkpt>
      <trkpt lat="45.65923" lon="6.67191">
        <ele>2482</ele>
        <time>2022-07-26T08:56:33Z</time>
      </trkpt>
      <trkpt lat="45.65923" lon="6.6719">
        <ele>2482</ele>
        <time>2022-07-26T08:56:34Z</time>
      </trkpt>
      <trkpt lat="45.65922" lon="6.67189">
        <ele>2482</ele>
        <time>2022-07-26T08:56:35Z</time>
      </trkpt>
      <trkpt lat="45.65922" lon="6.67187">
        <ele>2482</ele>
        <time>2022-07-26T08:56:36Z</time>
      </trkpt>
      <trkpt lat="45.65922" lon="6.67186">
        <ele>2482</ele>
        <time>2022-07-26T08:56:37Z</time>
      </trkpt>
      <trkpt lat="45.65922" lon="6.67185">
        <ele>2482</ele>
        <time>2022-07-26T08:56:38Z</time>
      </trkpt>
      <trkpt lat="45.65922" lon="6.67184">
        <ele>2482</ele>
        <time>2022-07-26T08:56:39Z</time>
      </trkpt>
      <trkpt lat="45.65922" lon="6.67182">
        <ele>2482</ele>
        <time>2022-07-26T08:56:40Z</time>
      </trkpt>
      <trkpt lat="45.65923" lon="6.67181">
        <ele>2482</ele>
        <time>2022-07-26T08:56:41Z</time>
      </trkpt>
      <trkpt lat="45.65923" lon="6.6718">
        <ele>2482</ele>
        <time>2022-07-26T08:56:42Z</time>
      </trkpt>
      <trkpt lat="45.65923" lon="6.67179">
        <ele>2482</ele>
        <time>2022-07-26T08:56:43Z</time>
      </trkpt>
      <trkpt lat="45.65923" lon="6.67178">
        <ele>2482</ele>
        <time>2022-07-26T08:56:44Z</time>
      </trkpt>
      <trkpt lat="45.65922" lon="6.67177">
        <ele>2482</ele>
        <time>2022-07-26T08:56:45Z</time>
      </trkpt>
      <trkpt lat="45.65922" lon="6.67175">
        <ele>2482</ele>
        <time>2022-07-26T08:56:46Z</time>
      </trkpt>
      <trkpt lat="45.65921" lon="6.67174">
        <ele>2483</ele>
        <time>2022-07-26T08:56:47Z</time>
      </trkpt>
      <trkpt lat="45.65921" lon="6.67173">
        <ele>2483</ele>
        <time>2022-07-26T08:56:48Z</time>
      </trkpt>
      <trkpt lat="45.6592" lon="6.67172">
        <ele>2483</ele>
        <time>2022-07-26T08:56:49Z</time>
      </trkpt>
      <trkpt lat="45.6592" lon="6.67171">
        <ele>2483</ele>
        <time>2022-07-26T08:56:50Z</time>
      </trkpt>
      <trkpt lat="45.65919" lon="6.67169">
        <ele>2483</ele>
        <time>2022-07-26T08:56:51Z</time>
      </trkpt>
      <trkpt lat="45.65919" lon="6.67168">
        <ele>2483</ele>
        <time>2022-07-26T08:56:52Z</time>
      </trkpt>
      <trkpt lat="45.65918" lon="6.67167">
        <ele>2483</ele>
        <time>2022-07-26T08:56:53Z</time>
      </trkpt>
      <trkpt lat="45.65918" lon="6.67166">
        <ele>2483</ele>
        <time>2022-07-26T08:56:54Z</time>
      </trkpt>
      <trkpt lat="45.65918" lon="6.67166">
        <ele>2483</ele>
        <time>2022-07-26T08:56:55Z</time>
      </trkpt>
      <trkpt lat="45.65917" lon="6.67165">
        <ele>2483</ele>
        <time>2022-07-26T08:56:56Z</time>
      </trkpt>
      <trkpt lat="45.65917" lon="6.67164">
        <ele>2483</ele>
        <time>2022-07-26T08:56:57Z</time>
      </trkpt>
      <trkpt lat="45.65916" lon="6.67163">
        <ele>2483</ele>
        <time>2022-07-26T08:56:58Z</time>
      </trkpt>
      <trkpt lat="45.65916" lon="6.67162">
        <ele>2483</ele>
        <time>2022-07-26T08:56:59Z</time>
      </trkpt>
      <trkpt lat="45.65916" lon="6.67161">
        <ele>2483</ele>
        <time>2022-07-26T08:57:00Z</time>
      </trkpt>
      <trkpt lat="45.65916" lon="6.67161">
        <ele>2483</ele>
        <time>2022-07-26T08:57:01Z</time>
      </trkpt>
      <trkpt lat="45.65916" lon="6.6716">
        <ele>2483</ele>
        <time>2022-07-26T08:57:02Z</time>
      </trkpt>
      <trkpt lat="45.65916" lon="6.67159">
        <ele>2483</ele>
        <time>2022-07-26T08:57:03Z</time>
      </trkpt>
      <trkpt lat="45.65916" lon="6.67158">
        <ele>2483</ele>
        <time>2022-07-26T08:57:04Z</time>
      </trkpt>
      <trkpt lat="45.65915" lon="6.67158">
        <ele>2483</ele>
        <time>2022-07-26T08:57:05Z</time>
      </trkpt>
      <trkpt lat="45.65915" lon="6.67157">
        <ele>2483</ele>
        <time>2022-07-26T08:57:06Z</time>
      </trkpt>
      <trkpt lat="45.65915" lon="6.67156">
        <ele>2484</ele>
        <time>2022-07-26T08:57:07Z</time>
      </trkpt>
      <trkpt lat="45.65914" lon="6.67156">
        <ele>2484</ele>
        <time>2022-07-26T08:57:08Z</time>
      </trkpt>
      <trkpt lat="45.65914" lon="6.67155">
        <ele>2484</ele>
        <time>2022-07-26T08:57:09Z</time>
      </trkpt>
      <trkpt lat="45.65913" lon="6.67154">
        <ele>2484</ele>
        <time>2022-07-26T08:57:10Z</time>
      </trkpt>
      <trkpt lat="45.65913" lon="6.67153">
        <ele>2484</ele>
        <time>2022-07-26T08:57:11Z</time>
      </trkpt>
      <trkpt lat="45.65912" lon="6.67152">
        <ele>2484</ele>
        <time>2022-07-26T08:57:12Z</time>
      </trkpt>
      <trkpt lat="45.65912" lon="6.67151">
        <ele>2484</ele>
        <time>2022-07-26T08:57:13Z</time>
      </trkpt>
      <trkpt lat="45.65911" lon="6.6715">
        <ele>2484</ele>
        <time>2022-07-26T08:57:14Z</time>
      </trkpt>
      <trkpt lat="45.65911" lon="6.67149">
        <ele>2484</ele>
        <time>2022-07-26T08:57:15Z</time>
      </trkpt>
      <trkpt lat="45.6591" lon="6.67147">
        <ele>2484</ele>
        <time>2022-07-26T08:57:16Z</time>
      </trkpt>
      <trkpt lat="45.6591" lon="6.67147">
        <ele>2485</ele>
        <time>2022-07-26T08:57:17Z</time>
      </trkpt>
      <trkpt lat="45.6591" lon="6.67146">
        <ele>2485</ele>
        <time>2022-07-26T08:57:18Z</time>
      </trkpt>
      <trkpt lat="45.65909" lon="6.67145">
        <ele>2485</ele>
        <time>2022-07-26T08:57:19Z</time>
      </trkpt>
      <trkpt lat="45.65909" lon="6.67144">
        <ele>2485</ele>
        <time>2022-07-26T08:57:20Z</time>
      </trkpt>
      <trkpt lat="45.65908" lon="6.67143">
        <ele>2485</ele>
        <time>2022-07-26T08:57:21Z</time>
      </trkpt>
      <trkpt lat="45.65908" lon="6.67143">
        <ele>2485</ele>
        <time>2022-07-26T08:57:22Z</time>
      </trkpt>
      <trkpt lat="45.65907" lon="6.67142">
        <ele>2485</ele>
        <time>2022-07-26T08:57:23Z</time>
      </trkpt>
      <trkpt lat="45.65907" lon="6.67141">
        <ele>2485</ele>
        <time>2022-07-26T08:57:24Z</time>
      </trkpt>
      <trkpt lat="45.65906" lon="6.67141">
        <ele>2485</ele>
        <time>2022-07-26T08:57:25Z</time>
      </trkpt>
      <trkpt lat="45.65906" lon="6.6714">
        <ele>2485</ele>
        <time>2022-07-26T08:57:26Z</time>
      </trkpt>
      <trkpt lat="45.65905" lon="6.67139">
        <ele>2486</ele>
        <time>2022-07-26T08:57:27Z</time>
      </trkpt>
      <trkpt lat="45.65905" lon="6.67139">
        <ele>2486</ele>
        <time>2022-07-26T08:57:28Z</time>
      </trkpt>
      <trkpt lat="45.65905" lon="6.67139">
        <ele>2486</ele>
        <time>2022-07-26T08:57:29Z</time>
      </trkpt>
      <trkpt lat="45.65904" lon="6.67139">
        <ele>2486</ele>
        <time>2022-07-26T08:57:30Z</time>
      </trkpt>
      <trkpt lat="45.65904" lon="6.67138">
        <ele>2486</ele>
        <time>2022-07-26T08:57:31Z</time>
      </trkpt>
      <trkpt lat="45.65903" lon="6.67138">
        <ele>2487</ele>
        <time>2022-07-26T08:57:32Z</time>
      </trkpt>
      <trkpt lat="45.65903" lon="6.67137">
        <ele>2487</ele>
        <time>2022-07-26T08:57:33Z</time>
      </trkpt>
      <trkpt lat="45.65903" lon="6.67136">
        <ele>2487</ele>
        <time>2022-07-26T08:57:34Z</time>
      </trkpt>
      <trkpt lat="45.65903" lon="6.67136">
        <ele>2487</ele>
        <time>2022-07-26T08:57:35Z</time>
      </trkpt>
      <trkpt lat="45.65903" lon="6.67135">
        <ele>2487</ele>
        <time>2022-07-26T08:57:36Z</time>
      </trkpt>
      <trkpt lat="45.65903" lon="6.67135">
        <ele>2487</ele>
        <time>2022-07-26T08:57:37Z</time>
      </trkpt>
      <trkpt lat="45.65903" lon="6.67134">
        <ele>2487</ele>
        <time>2022-07-26T08:57:38Z</time>
      </trkpt>
      <trkpt lat="45.65903" lon="6.67134">
        <ele>2487</ele>
        <time>2022-07-26T08:57:39Z</time>
      </trkpt>
      <trkpt lat="45.65903" lon="6.67133">
        <ele>2487</ele>
        <time>2022-07-26T08:57:40Z</time>
      </trkpt>
      <trkpt lat="45.65903" lon="6.67133">
        <ele>2487</ele>
        <time>2022-07-26T08:57:41Z</time>
      </trkpt>
      <trkpt lat="45.65902" lon="6.67132">
        <ele>2488</ele>
        <time>2022-07-26T08:57:42Z</time>
      </trkpt>
      <trkpt lat="45.65902" lon="6.67131">
        <ele>2488</ele>
        <time>2022-07-26T08:57:43Z</time>
      </trkpt>
      <trkpt lat="45.65901" lon="6.67131">
        <ele>2488</ele>
        <time>2022-07-26T08:57:44Z</time>
      </trkpt>
      <trkpt lat="45.65901" lon="6.6713">
        <ele>2488</ele>
        <time>2022-07-26T08:57:45Z</time>
      </trkpt>
      <trkpt lat="45.65901" lon="6.67129">
        <ele>2488</ele>
        <time>2022-07-26T08:57:46Z</time>
      </trkpt>
      <trkpt lat="45.659" lon="6.67129">
        <ele>2489</ele>
        <time>2022-07-26T08:57:47Z</time>
      </trkpt>
      <trkpt lat="45.659" lon="6.67128">
        <ele>2489</ele>
        <time>2022-07-26T08:57:48Z</time>
      </trkpt>
      <trkpt lat="45.659" lon="6.67127">
        <ele>2489</ele>
        <time>2022-07-26T08:57:49Z</time>
      </trkpt>
      <trkpt lat="45.659" lon="6.67127">
        <ele>2489</ele>
        <time>2022-07-26T08:57:50Z</time>
      </trkpt>
      <trkpt lat="45.65899" lon="6.67126">
        <ele>2489</ele>
        <time>2022-07-26T08:57:51Z</time>
      </trkpt>
      <trkpt lat="45.65899" lon="6.67125">
        <ele>2489</ele>
        <time>2022-07-26T08:57:52Z</time>
      </trkpt>
      <trkpt lat="45.65899" lon="6.67124">
        <ele>2489</ele>
        <time>2022-07-26T08:57:53Z</time>
      </trkpt>
      <trkpt lat="45.65899" lon="6.67123">
        <ele>2489</ele>
        <time>2022-07-26T08:57:54Z</time>
      </trkpt>
      <trkpt lat="45.65899" lon="6.67123">
        <ele>2489</ele>
        <time>2022-07-26T08:57:55Z</time>
      </trkpt>
      <trkpt lat="45.65899" lon="6.67122">
        <ele>2489</ele>
        <time>2022-07-26T08:57:56Z</time>
      </trkpt>
      <trkpt lat="45.65899" lon="6.67121">
        <ele>2491</ele>
        <time>2022-07-26T08:58:03Z</time>
      </trkpt>
      <trkpt lat="45.65898" lon="6.67119">
        <ele>2491</ele>
        <time>2022-07-26T08:58:04Z</time>
      </trkpt>
      <trkpt lat="45.65898" lon="6.67118">
        <ele>2491</ele>
        <time>2022-07-26T08:58:05Z</time>
      </trkpt>
      <trkpt lat="45.65898" lon="6.67118">
        <ele>2491</ele>
        <time>2022-07-26T08:58:06Z</time>
      </trkpt>
      <trkpt lat="45.65898" lon="6.67117">
        <ele>2492</ele>
        <time>2022-07-26T08:58:07Z</time>
      </trkpt>
      <trkpt lat="45.65898" lon="6.67116">
        <ele>2492</ele>
        <time>2022-07-26T08:58:08Z</time>
      </trkpt>
      <trkpt lat="45.65898" lon="6.67115">
        <ele>2492</ele>
        <time>2022-07-26T08:58:09Z</time>
      </trkpt>
      <trkpt lat="45.65897" lon="6.67114">
        <ele>2492</ele>
        <time>2022-07-26T08:58:10Z</time>
      </trkpt>
      <trkpt lat="45.65897" lon="6.67113">
        <ele>2492</ele>
        <time>2022-07-26T08:58:11Z</time>
      </trkpt>
      <trkpt lat="45.65897" lon="6.67112">
        <ele>2492</ele>
        <time>2022-07-26T08:58:12Z</time>
      </trkpt>
      <trkpt lat="45.65897" lon="6.67111">
        <ele>2492</ele>
        <time>2022-07-26T08:58:13Z</time>
      </trkpt>
      <trkpt lat="45.65896" lon="6.6711">
        <ele>2492</ele>
        <time>2022-07-26T08:58:14Z</time>
      </trkpt>
      <trkpt lat="45.65896" lon="6.67109">
        <ele>2492</ele>
        <time>2022-07-26T08:58:15Z</time>
      </trkpt>
      <trkpt lat="45.65896" lon="6.67109">
        <ele>2492</ele>
        <time>2022-07-26T08:58:16Z</time>
      </trkpt>
      <trkpt lat="45.65896" lon="6.67108">
        <ele>2493</ele>
        <time>2022-07-26T08:58:17Z</time>
      </trkpt>
      <trkpt lat="45.65895" lon="6.67108">
        <ele>2493</ele>
        <time>2022-07-26T08:58:18Z</time>
      </trkpt>
      <trkpt lat="45.65895" lon="6.67108">
        <ele>2493</ele>
        <time>2022-07-26T08:58:19Z</time>
      </trkpt>
      <trkpt lat="45.65895" lon="6.67107">
        <ele>2493</ele>
        <time>2022-07-26T08:58:20Z</time>
      </trkpt>
      <trkpt lat="45.65895" lon="6.67107">
        <ele>2493</ele>
        <time>2022-07-26T08:58:21Z</time>
      </trkpt>
      <trkpt lat="45.65895" lon="6.67106">
        <ele>2493</ele>
        <time>2022-07-26T08:58:22Z</time>
      </trkpt>
      <trkpt lat="45.65895" lon="6.67106">
        <ele>2493</ele>
        <time>2022-07-26T08:58:23Z</time>
      </trkpt>
      <trkpt lat="45.65894" lon="6.671">
        <ele>2497</ele>
        <time>2022-07-26T08:58:52Z</time>
      </trkpt>
      <trkpt lat="45.65893" lon="6.67097">
        <ele>2497</ele>
        <time>2022-07-26T08:58:53Z</time>
      </trkpt>
      <trkpt lat="45.65892" lon="6.67095">
        <ele>2497</ele>
        <time>2022-07-26T08:58:54Z</time>
      </trkpt>
      <trkpt lat="45.65892" lon="6.67093">
        <ele>2497</ele>
        <time>2022-07-26T08:58:55Z</time>
      </trkpt>
      <trkpt lat="45.65891" lon="6.67091">
        <ele>2497</ele>
        <time>2022-07-26T08:58:56Z</time>
      </trkpt>
      <trkpt lat="45.65891" lon="6.6709">
        <ele>2497</ele>
        <time>2022-07-26T08:58:57Z</time>
      </trkpt>
      <trkpt lat="45.65891" lon="6.67089">
        <ele>2497</ele>
        <time>2022-07-26T08:58:58Z</time>
      </trkpt>
      <trkpt lat="45.6589" lon="6.67087">
        <ele>2501</ele>
        <time>2022-07-26T09:01:18Z</time>
      </trkpt>
      <trkpt lat="45.6589" lon="6.67086">
        <ele>2501</ele>
        <time>2022-07-26T09:01:19Z</time>
      </trkpt>
      <trkpt lat="45.6589" lon="6.67085">
        <ele>2501</ele>
        <time>2022-07-26T09:01:20Z</time>
      </trkpt>
      <trkpt lat="45.65889" lon="6.67084">
        <ele>2501</ele>
        <time>2022-07-26T09:01:21Z</time>
      </trkpt>
      <trkpt lat="45.65889" lon="6.67084">
        <ele>2501</ele>
        <time>2022-07-26T09:01:22Z</time>
      </trkpt>
      <trkpt lat="45.65888" lon="6.67083">
        <ele>2501</ele>
        <time>2022-07-26T09:01:23Z</time>
      </trkpt>
      <trkpt lat="45.65887" lon="6.67082">
        <ele>2501</ele>
        <time>2022-07-26T09:01:24Z</time>
      </trkpt>
      <trkpt lat="45.65887" lon="6.67082">
        <ele>2501</ele>
        <time>2022-07-26T09:01:25Z</time>
      </trkpt>
      <trkpt lat="45.65886" lon="6.67081">
        <ele>2501</ele>
        <time>2022-07-26T09:01:26Z</time>
      </trkpt>
      <trkpt lat="45.65886" lon="6.6708">
        <ele>2501</ele>
        <time>2022-07-26T09:01:27Z</time>
      </trkpt>
      <trkpt lat="45.65885" lon="6.67079">
        <ele>2501</ele>
        <time>2022-07-26T09:01:28Z</time>
      </trkpt>
      <trkpt lat="45.65885" lon="6.67079">
        <ele>2501</ele>
        <time>2022-07-26T09:01:29Z</time>
      </trkpt>
      <trkpt lat="45.65885" lon="6.67079">
        <ele>2501</ele>
        <time>2022-07-26T09:01:30Z</time>
      </trkpt>
      <trkpt lat="45.65885" lon="6.67079">
        <ele>2501</ele>
        <time>2022-07-26T09:01:31Z</time>
      </trkpt>
      <trkpt lat="45.65885" lon="6.67078">
        <ele>2501</ele>
        <time>2022-07-26T09:01:32Z</time>
      </trkpt>
      <trkpt lat="45.65885" lon="6.67078">
        <ele>2501</ele>
        <time>2022-07-26T09:01:33Z</time>
      </trkpt>
      <trkpt lat="45.65884" lon="6.67078">
        <ele>2501</ele>
        <time>2022-07-26T09:01:34Z</time>
      </trkpt>
      <trkpt lat="45.65883" lon="6.67077">
        <ele>2501</ele>
        <time>2022-07-26T09:01:35Z</time>
      </trkpt>
      <trkpt lat="45.65883" lon="6.67077">
        <ele>2501</ele>
        <time>2022-07-26T09:01:36Z</time>
      </trkpt>
      <trkpt lat="45.65882" lon="6.67076">
        <ele>2502</ele>
        <time>2022-07-26T09:01:37Z</time>
      </trkpt>
      <trkpt lat="45.65881" lon="6.67076">
        <ele>2502</ele>
        <time>2022-07-26T09:01:38Z</time>
      </trkpt>
      <trkpt lat="45.65881" lon="6.67075">
        <ele>2502</ele>
        <time>2022-07-26T09:01:39Z</time>
      </trkpt>
      <trkpt lat="45.6588" lon="6.67074">
        <ele>2503</ele>
        <time>2022-07-26T09:01:40Z</time>
      </trkpt>
      <trkpt lat="45.65879" lon="6.67073">
        <ele>2503</ele>
        <time>2022-07-26T09:01:41Z</time>
      </trkpt>
      <trkpt lat="45.65879" lon="6.67072">
        <ele>2504</ele>
        <time>2022-07-26T09:01:42Z</time>
      </trkpt>
      <trkpt lat="45.65879" lon="6.67071">
        <ele>2504</ele>
        <time>2022-07-26T09:01:43Z</time>
      </trkpt>
      <trkpt lat="45.65879" lon="6.6707">
        <ele>2504</ele>
        <time>2022-07-26T09:01:44Z</time>
      </trkpt>
      <trkpt lat="45.65879" lon="6.6707">
        <ele>2504</ele>
        <time>2022-07-26T09:01:45Z</time>
      </trkpt>
      <trkpt lat="45.65878" lon="6.67069">
        <ele>2504</ele>
        <time>2022-07-26T09:01:46Z</time>
      </trkpt>
      <trkpt lat="45.65878" lon="6.67066">
        <ele>2506</ele>
        <time>2022-07-26T09:01:54Z</time>
      </trkpt>
      <trkpt lat="45.65878" lon="6.67065">
        <ele>2506</ele>
        <time>2022-07-26T09:01:55Z</time>
      </trkpt>
      <trkpt lat="45.65877" lon="6.67063">
        <ele>2506</ele>
        <time>2022-07-26T09:01:56Z</time>
      </trkpt>
      <trkpt lat="45.65877" lon="6.67062">
        <ele>2506</ele>
        <time>2022-07-26T09:01:57Z</time>
      </trkpt>
      <trkpt lat="45.65877" lon="6.67061">
        <ele>2506</ele>
        <time>2022-07-26T09:01:58Z</time>
      </trkpt>
      <trkpt lat="45.65876" lon="6.67058">
        <ele>2509</ele>
        <time>2022-07-26T09:02:07Z</time>
      </trkpt>
      <trkpt lat="45.65876" lon="6.67057">
        <ele>2509</ele>
        <time>2022-07-26T09:02:08Z</time>
      </trkpt>
      <trkpt lat="45.65875" lon="6.67055">
        <ele>2509</ele>
        <time>2022-07-26T09:02:09Z</time>
      </trkpt>
      <trkpt lat="45.65875" lon="6.67054">
        <ele>2509</ele>
        <time>2022-07-26T09:02:10Z</time>
      </trkpt>
      <trkpt lat="45.65874" lon="6.67054">
        <ele>2509</ele>
        <time>2022-07-26T09:02:11Z</time>
      </trkpt>
      <trkpt lat="45.65873" lon="6.67053">
        <ele>2510</ele>
        <time>2022-07-26T09:02:12Z</time>
      </trkpt>
      <trkpt lat="45.65872" lon="6.67053">
        <ele>2510</ele>
        <time>2022-07-26T09:02:13Z</time>
      </trkpt>
      <trkpt lat="45.65872" lon="6.67052">
        <ele>2510</ele>
        <time>2022-07-26T09:02:14Z</time>
      </trkpt>
      <trkpt lat="45.65872" lon="6.67052">
        <ele>2510</ele>
        <time>2022-07-26T09:02:15Z</time>
      </trkpt>
      <trkpt lat="45.65871" lon="6.67052">
        <ele>2510</ele>
        <time>2022-07-26T09:02:16Z</time>
      </trkpt>
      <trkpt lat="45.65871" lon="6.67051">
        <ele>2511</ele>
        <time>2022-07-26T09:02:17Z</time>
      </trkpt>
      <trkpt lat="45.6587" lon="6.6705">
        <ele>2511</ele>
        <time>2022-07-26T09:02:18Z</time>
      </trkpt>
      <trkpt lat="45.6587" lon="6.6705">
        <ele>2511</ele>
        <time>2022-07-26T09:02:19Z</time>
      </trkpt>
      <trkpt lat="45.6587" lon="6.67049">
        <ele>2511</ele>
        <time>2022-07-26T09:02:20Z</time>
      </trkpt>
      <trkpt lat="45.6587" lon="6.67049">
        <ele>2511</ele>
        <time>2022-07-26T09:02:21Z</time>
      </trkpt>
      <trkpt lat="45.65869" lon="6.67049">
        <ele>2512</ele>
        <time>2022-07-26T09:02:22Z</time>
      </trkpt>
      <trkpt lat="45.65868" lon="6.67048">
        <ele>2512</ele>
        <time>2022-07-26T09:02:23Z</time>
      </trkpt>
      <trkpt lat="45.65868" lon="6.67048">
        <ele>2512</ele>
        <time>2022-07-26T09:02:24Z</time>
      </trkpt>
      <trkpt lat="45.65867" lon="6.67047">
        <ele>2512</ele>
        <time>2022-07-26T09:02:25Z</time>
      </trkpt>
      <trkpt lat="45.65866" lon="6.67047">
        <ele>2512</ele>
        <time>2022-07-26T09:02:26Z</time>
      </trkpt>
      <trkpt lat="45.65866" lon="6.67047">
        <ele>2512</ele>
        <time>2022-07-26T09:02:27Z</time>
      </trkpt>
      <trkpt lat="45.65865" lon="6.67047">
        <ele>2512</ele>
        <time>2022-07-26T09:02:28Z</time>
      </trkpt>
      <trkpt lat="45.65865" lon="6.67047">
        <ele>2512</ele>
        <time>2022-07-26T09:02:29Z</time>
      </trkpt>
      <trkpt lat="45.65864" lon="6.67047">
        <ele>2512</ele>
        <time>2022-07-26T09:02:30Z</time>
      </trkpt>
      <trkpt lat="45.65863" lon="6.67047">
        <ele>2512</ele>
        <time>2022-07-26T09:02:31Z</time>
      </trkpt>
      <trkpt lat="45.65862" lon="6.67047">
        <ele>2513</ele>
        <time>2022-07-26T09:02:32Z</time>
      </trkpt>
      <trkpt lat="45.65861" lon="6.67047">
        <ele>2513</ele>
        <time>2022-07-26T09:02:33Z</time>
      </trkpt>
      <trkpt lat="45.65861" lon="6.67047">
        <ele>2513</ele>
        <time>2022-07-26T09:02:34Z</time>
      </trkpt>
      <trkpt lat="45.6586" lon="6.67047">
        <ele>2513</ele>
        <time>2022-07-26T09:02:35Z</time>
      </trkpt>
      <trkpt lat="45.65859" lon="6.67047">
        <ele>2513</ele>
        <time>2022-07-26T09:02:36Z</time>
      </trkpt>
      <trkpt lat="45.65859" lon="6.67047">
        <ele>2514</ele>
        <time>2022-07-26T09:02:37Z</time>
      </trkpt>
      <trkpt lat="45.65859" lon="6.67046">
        <ele>2514</ele>
        <time>2022-07-26T09:02:38Z</time>
      </trkpt>
      <trkpt lat="45.65858" lon="6.67046">
        <ele>2514</ele>
        <time>2022-07-26T09:02:39Z</time>
      </trkpt>
      <trkpt lat="45.65858" lon="6.67046">
        <ele>2514</ele>
        <time>2022-07-26T09:02:40Z</time>
      </trkpt>
      <trkpt lat="45.65858" lon="6.67046">
        <ele>2514</ele>
        <time>2022-07-26T09:02:41Z</time>
      </trkpt>
      <trkpt lat="45.65858" lon="6.67045">
        <ele>2515</ele>
        <time>2022-07-26T09:02:42Z</time>
      </trkpt>
      <trkpt lat="45.65857" lon="6.67045">
        <ele>2515</ele>
        <time>2022-07-26T09:02:43Z</time>
      </trkpt>
      <trkpt lat="45.65857" lon="6.67044">
        <ele>2515</ele>
        <time>2022-07-26T09:02:44Z</time>
      </trkpt>
      <trkpt lat="45.65857" lon="6.67043">
        <ele>2515</ele>
        <time>2022-07-26T09:02:45Z</time>
      </trkpt>
      <trkpt lat="45.65857" lon="6.67042">
        <ele>2515</ele>
        <time>2022-07-26T09:02:46Z</time>
      </trkpt>
      <trkpt lat="45.65856" lon="6.67041">
        <ele>2516</ele>
        <time>2022-07-26T09:02:47Z</time>
      </trkpt>
      <trkpt lat="45.65856" lon="6.6704">
        <ele>2516</ele>
        <time>2022-07-26T09:02:48Z</time>
      </trkpt>
      <trkpt lat="45.65856" lon="6.67039">
        <ele>2516</ele>
        <time>2022-07-26T09:02:49Z</time>
      </trkpt>
      <trkpt lat="45.65855" lon="6.67039">
        <ele>2516</ele>
        <time>2022-07-26T09:02:50Z</time>
      </trkpt>
      <trkpt lat="45.65855" lon="6.67038">
        <ele>2516</ele>
        <time>2022-07-26T09:02:51Z</time>
      </trkpt>
      <trkpt lat="45.65854" lon="6.67037">
        <ele>2517</ele>
        <time>2022-07-26T09:02:52Z</time>
      </trkpt>
      <trkpt lat="45.65854" lon="6.67036">
        <ele>2517</ele>
        <time>2022-07-26T09:02:53Z</time>
      </trkpt>
      <trkpt lat="45.65854" lon="6.67035">
        <ele>2517</ele>
        <time>2022-07-26T09:02:54Z</time>
      </trkpt>
      <trkpt lat="45.65853" lon="6.67034">
        <ele>2517</ele>
        <time>2022-07-26T09:02:55Z</time>
      </trkpt>
      <trkpt lat="45.65853" lon="6.67033">
        <ele>2517</ele>
        <time>2022-07-26T09:02:56Z</time>
      </trkpt>
      <trkpt lat="45.65853" lon="6.67032">
        <ele>2518</ele>
        <time>2022-07-26T09:02:57Z</time>
      </trkpt>
      <trkpt lat="45.65852" lon="6.67031">
        <ele>2518</ele>
        <time>2022-07-26T09:02:58Z</time>
      </trkpt>
      <trkpt lat="45.65852" lon="6.67028">
        <ele>2520</ele>
        <time>2022-07-26T09:03:28Z</time>
      </trkpt>
      <trkpt lat="45.65851" lon="6.67028">
        <ele>2520</ele>
        <time>2022-07-26T09:03:29Z</time>
      </trkpt>
      <trkpt lat="45.65851" lon="6.67027">
        <ele>2520</ele>
        <time>2022-07-26T09:03:30Z</time>
      </trkpt>
      <trkpt lat="45.65851" lon="6.67026">
        <ele>2520</ele>
        <time>2022-07-26T09:03:31Z</time>
      </trkpt>
      <trkpt lat="45.6585" lon="6.67025">
        <ele>2521</ele>
        <time>2022-07-26T09:03:32Z</time>
      </trkpt>
      <trkpt lat="45.6585" lon="6.67024">
        <ele>2521</ele>
        <time>2022-07-26T09:03:33Z</time>
      </trkpt>
      <trkpt lat="45.65849" lon="6.67023">
        <ele>2521</ele>
        <time>2022-07-26T09:03:34Z</time>
      </trkpt>
      <trkpt lat="45.65848" lon="6.67022">
        <ele>2521</ele>
        <time>2022-07-26T09:03:35Z</time>
      </trkpt>
      <trkpt lat="45.65848" lon="6.6702">
        <ele>2521</ele>
        <time>2022-07-26T09:03:36Z</time>
      </trkpt>
      <trkpt lat="45.65847" lon="6.67019">
        <ele>2521</ele>
        <time>2022-07-26T09:03:37Z</time>
      </trkpt>
      <trkpt lat="45.65846" lon="6.67019">
        <ele>2521</ele>
        <time>2022-07-26T09:03:38Z</time>
      </trkpt>
      <trkpt lat="45.65845" lon="6.67018">
        <ele>2521</ele>
        <time>2022-07-26T09:03:39Z</time>
      </trkpt>
      <trkpt lat="45.65844" lon="6.67017">
        <ele>2521</ele>
        <time>2022-07-26T09:03:40Z</time>
      </trkpt>
      <trkpt lat="45.65843" lon="6.67016">
        <ele>2521</ele>
        <time>2022-07-26T09:03:41Z</time>
      </trkpt>
      <trkpt lat="45.65842" lon="6.67016">
        <ele>2521</ele>
        <time>2022-07-26T09:03:42Z</time>
      </trkpt>
      <trkpt lat="45.65841" lon="6.67015">
        <ele>2521</ele>
        <time>2022-07-26T09:03:43Z</time>
      </trkpt>
      <trkpt lat="45.6584" lon="6.67014">
        <ele>2521</ele>
        <time>2022-07-26T09:03:44Z</time>
      </trkpt>
      <trkpt lat="45.6584" lon="6.67014">
        <ele>2521</ele>
        <time>2022-07-26T09:03:45Z</time>
      </trkpt>
      <trkpt lat="45.65839" lon="6.67013">
        <ele>2521</ele>
        <time>2022-07-26T09:03:46Z</time>
      </trkpt>
      <trkpt lat="45.65838" lon="6.67012">
        <ele>2521</ele>
        <time>2022-07-26T09:03:47Z</time>
      </trkpt>
      <trkpt lat="45.65837" lon="6.67011">
        <ele>2521</ele>
        <time>2022-07-26T09:03:48Z</time>
      </trkpt>
      <trkpt lat="45.65837" lon="6.67011">
        <ele>2521</ele>
        <time>2022-07-26T09:03:49Z</time>
      </trkpt>
      <trkpt lat="45.65836" lon="6.6701">
        <ele>2521</ele>
        <time>2022-07-26T09:03:50Z</time>
      </trkpt>
      <trkpt lat="45.65835" lon="6.67009">
        <ele>2521</ele>
        <time>2022-07-26T09:03:51Z</time>
      </trkpt>
      <trkpt lat="45.65834" lon="6.67009">
        <ele>2521</ele>
        <time>2022-07-26T09:03:52Z</time>
      </trkpt>
      <trkpt lat="45.65834" lon="6.67008">
        <ele>2521</ele>
        <time>2022-07-26T09:03:53Z</time>
      </trkpt>
      <trkpt lat="45.65833" lon="6.67007">
        <ele>2521</ele>
        <time>2022-07-26T09:03:54Z</time>
      </trkpt>
      <trkpt lat="45.65832" lon="6.67006">
        <ele>2521</ele>
        <time>2022-07-26T09:03:55Z</time>
      </trkpt>
      <trkpt lat="45.65831" lon="6.67006">
        <ele>2521</ele>
        <time>2022-07-26T09:03:56Z</time>
      </trkpt>
      <trkpt lat="45.6583" lon="6.67005">
        <ele>2521</ele>
        <time>2022-07-26T09:03:57Z</time>
      </trkpt>
      <trkpt lat="45.6583" lon="6.67004">
        <ele>2521</ele>
        <time>2022-07-26T09:03:58Z</time>
      </trkpt>
      <trkpt lat="45.65829" lon="6.67004">
        <ele>2521</ele>
        <time>2022-07-26T09:03:59Z</time>
      </trkpt>
      <trkpt lat="45.65828" lon="6.67003">
        <ele>2521</ele>
        <time>2022-07-26T09:04:00Z</time>
      </trkpt>
      <trkpt lat="45.65828" lon="6.67002">
        <ele>2521</ele>
        <time>2022-07-26T09:04:01Z</time>
      </trkpt>
      <trkpt lat="45.65827" lon="6.67002">
        <ele>2521</ele>
        <time>2022-07-26T09:04:02Z</time>
      </trkpt>
      <trkpt lat="45.65826" lon="6.67001">
        <ele>2521</ele>
        <time>2022-07-26T09:04:03Z</time>
      </trkpt>
      <trkpt lat="45.65826" lon="6.66999">
        <ele>2521</ele>
        <time>2022-07-26T09:04:04Z</time>
      </trkpt>
      <trkpt lat="45.65826" lon="6.66998">
        <ele>2521</ele>
        <time>2022-07-26T09:04:05Z</time>
      </trkpt>
      <trkpt lat="45.65825" lon="6.66997">
        <ele>2521</ele>
        <time>2022-07-26T09:04:06Z</time>
      </trkpt>
      <trkpt lat="45.65825" lon="6.66996">
        <ele>2522</ele>
        <time>2022-07-26T09:04:07Z</time>
      </trkpt>
      <trkpt lat="45.65824" lon="6.66995">
        <ele>2522</ele>
        <time>2022-07-26T09:04:08Z</time>
      </trkpt>
      <trkpt lat="45.65824" lon="6.66994">
        <ele>2522</ele>
        <time>2022-07-26T09:04:09Z</time>
      </trkpt>
      <trkpt lat="45.65824" lon="6.66993">
        <ele>2522</ele>
        <time>2022-07-26T09:04:10Z</time>
      </trkpt>
      <trkpt lat="45.65823" lon="6.66992">
        <ele>2522</ele>
        <time>2022-07-26T09:04:11Z</time>
      </trkpt>
      <trkpt lat="45.65823" lon="6.66992">
        <ele>2522</ele>
        <time>2022-07-26T09:04:12Z</time>
      </trkpt>
      <trkpt lat="45.65822" lon="6.66992">
        <ele>2522</ele>
        <time>2022-07-26T09:04:13Z</time>
      </trkpt>
      <trkpt lat="45.65822" lon="6.66991">
        <ele>2522</ele>
        <time>2022-07-26T09:04:14Z</time>
      </trkpt>
      <trkpt lat="45.65821" lon="6.66991">
        <ele>2522</ele>
        <time>2022-07-26T09:04:15Z</time>
      </trkpt>
      <trkpt lat="45.65821" lon="6.66991">
        <ele>2522</ele>
        <time>2022-07-26T09:04:16Z</time>
      </trkpt>
      <trkpt lat="45.6582" lon="6.66991">
        <ele>2523</ele>
        <time>2022-07-26T09:04:17Z</time>
      </trkpt>
      <trkpt lat="45.65819" lon="6.6699">
        <ele>2523</ele>
        <time>2022-07-26T09:04:18Z</time>
      </trkpt>
      <trkpt lat="45.65819" lon="6.6699">
        <ele>2523</ele>
        <time>2022-07-26T09:04:19Z</time>
      </trkpt>
      <trkpt lat="45.65818" lon="6.66989">
        <ele>2523</ele>
        <time>2022-07-26T09:04:20Z</time>
      </trkpt>
      <trkpt lat="45.65817" lon="6.66989">
        <ele>2523</ele>
        <time>2022-07-26T09:04:21Z</time>
      </trkpt>
      <trkpt lat="45.65816" lon="6.66988">
        <ele>2523</ele>
        <time>2022-07-26T09:04:22Z</time>
      </trkpt>
      <trkpt lat="45.65816" lon="6.66988">
        <ele>2523</ele>
        <time>2022-07-26T09:04:23Z</time>
      </trkpt>
      <trkpt lat="45.65815" lon="6.66987">
        <ele>2523</ele>
        <time>2022-07-26T09:04:24Z</time>
      </trkpt>
      <trkpt lat="45.65814" lon="6.66984">
        <ele>2525</ele>
        <time>2022-07-26T09:07:17Z</time>
      </trkpt>
      <trkpt lat="45.65813" lon="6.66983">
        <ele>2525</ele>
        <time>2022-07-26T09:07:18Z</time>
      </trkpt>
      <trkpt lat="45.65813" lon="6.66981">
        <ele>2525</ele>
        <time>2022-07-26T09:07:19Z</time>
      </trkpt>
      <trkpt lat="45.65812" lon="6.66981">
        <ele>2525</ele>
        <time>2022-07-26T09:07:20Z</time>
      </trkpt>
      <trkpt lat="45.65811" lon="6.6698">
        <ele>2525</ele>
        <time>2022-07-26T09:07:21Z</time>
      </trkpt>
      <trkpt lat="45.6581" lon="6.66979">
        <ele>2525</ele>
        <time>2022-07-26T09:07:22Z</time>
      </trkpt>
      <trkpt lat="45.6581" lon="6.66979">
        <ele>2525</ele>
        <time>2022-07-26T09:07:23Z</time>
      </trkpt>
      <trkpt lat="45.65809" lon="6.66978">
        <ele>2525</ele>
        <time>2022-07-26T09:07:24Z</time>
      </trkpt>
      <trkpt lat="45.65808" lon="6.66978">
        <ele>2525</ele>
        <time>2022-07-26T09:07:25Z</time>
      </trkpt>
      <trkpt lat="45.65808" lon="6.66977">
        <ele>2525</ele>
        <time>2022-07-26T09:07:26Z</time>
      </trkpt>
      <trkpt lat="45.65807" lon="6.66976">
        <ele>2525</ele>
        <time>2022-07-26T09:07:27Z</time>
      </trkpt>
      <trkpt lat="45.65807" lon="6.66976">
        <ele>2525</ele>
        <time>2022-07-26T09:07:28Z</time>
      </trkpt>
      <trkpt lat="45.65807" lon="6.66975">
        <ele>2525</ele>
        <time>2022-07-26T09:07:29Z</time>
      </trkpt>
      <trkpt lat="45.65806" lon="6.66974">
        <ele>2525</ele>
        <time>2022-07-26T09:07:30Z</time>
      </trkpt>
      <trkpt lat="45.65806" lon="6.66973">
        <ele>2525</ele>
        <time>2022-07-26T09:07:31Z</time>
      </trkpt>
      <trkpt lat="45.65806" lon="6.66972">
        <ele>2526</ele>
        <time>2022-07-26T09:07:32Z</time>
      </trkpt>
      <trkpt lat="45.65806" lon="6.66971">
        <ele>2526</ele>
        <time>2022-07-26T09:07:33Z</time>
      </trkpt>
      <trkpt lat="45.65807" lon="6.6697">
        <ele>2526</ele>
        <time>2022-07-26T09:07:34Z</time>
      </trkpt>
      <trkpt lat="45.65807" lon="6.66969">
        <ele>2526</ele>
        <time>2022-07-26T09:07:35Z</time>
      </trkpt>
      <trkpt lat="45.65807" lon="6.66967">
        <ele>2528</ele>
        <time>2022-07-26T09:07:43Z</time>
      </trkpt>
      <trkpt lat="45.65808" lon="6.66966">
        <ele>2528</ele>
        <time>2022-07-26T09:07:44Z</time>
      </trkpt>
      <trkpt lat="45.65808" lon="6.66966">
        <ele>2528</ele>
        <time>2022-07-26T09:07:45Z</time>
      </trkpt>
      <trkpt lat="45.65808" lon="6.66965">
        <ele>2528</ele>
        <time>2022-07-26T09:07:46Z</time>
      </trkpt>
      <trkpt lat="45.65808" lon="6.66964">
        <ele>2528</ele>
        <time>2022-07-26T09:07:47Z</time>
      </trkpt>
      <trkpt lat="45.65807" lon="6.66963">
        <ele>2528</ele>
        <time>2022-07-26T09:07:48Z</time>
      </trkpt>
      <trkpt lat="45.65807" lon="6.66962">
        <ele>2528</ele>
        <time>2022-07-26T09:07:49Z</time>
      </trkpt>
      <trkpt lat="45.65807" lon="6.66961">
        <ele>2528</ele>
        <time>2022-07-26T09:07:50Z</time>
      </trkpt>
      <trkpt lat="45.65807" lon="6.6696">
        <ele>2528</ele>
        <time>2022-07-26T09:07:51Z</time>
      </trkpt>
      <trkpt lat="45.65807" lon="6.66959">
        <ele>2529</ele>
        <time>2022-07-26T09:07:52Z</time>
      </trkpt>
      <trkpt lat="45.65806" lon="6.66958">
        <ele>2529</ele>
        <time>2022-07-26T09:07:53Z</time>
      </trkpt>
      <trkpt lat="45.65806" lon="6.66957">
        <ele>2529</ele>
        <time>2022-07-26T09:07:54Z</time>
      </trkpt>
      <trkpt lat="45.65806" lon="6.66956">
        <ele>2529</ele>
        <time>2022-07-26T09:07:55Z</time>
      </trkpt>
      <trkpt lat="45.65805" lon="6.66955">
        <ele>2529</ele>
        <time>2022-07-26T09:07:56Z</time>
      </trkpt>
      <trkpt lat="45.65805" lon="6.66955">
        <ele>2529</ele>
        <time>2022-07-26T09:07:57Z</time>
      </trkpt>
      <trkpt lat="45.65805" lon="6.66954">
        <ele>2531</ele>
        <time>2022-07-26T09:08:06Z</time>
      </trkpt>
      <trkpt lat="45.65805" lon="6.66954">
        <ele>2532</ele>
        <time>2022-07-26T09:08:07Z</time>
      </trkpt>
      <trkpt lat="45.65804" lon="6.66954">
        <ele>2532</ele>
        <time>2022-07-26T09:08:08Z</time>
      </trkpt>
      <trkpt lat="45.65804" lon="6.66953">
        <ele>2532</ele>
        <time>2022-07-26T09:08:09Z</time>
      </trkpt>
      <trkpt lat="45.65804" lon="6.66952">
        <ele>2532</ele>
        <time>2022-07-26T09:08:10Z</time>
      </trkpt>
      <trkpt lat="45.65803" lon="6.6695">
        <ele>2534</ele>
        <time>2022-07-26T09:08:31Z</time>
      </trkpt>
      <trkpt lat="45.65802" lon="6.66949">
        <ele>2534</ele>
        <time>2022-07-26T09:08:32Z</time>
      </trkpt>
      <trkpt lat="45.65802" lon="6.66948">
        <ele>2534</ele>
        <time>2022-07-26T09:08:33Z</time>
      </trkpt>
      <trkpt lat="45.658" lon="6.66947">
        <ele>2534</ele>
        <time>2022-07-26T09:08:40Z</time>
      </trkpt>
      <trkpt lat="45.658" lon="6.66946">
        <ele>2534</ele>
        <time>2022-07-26T09:08:41Z</time>
      </trkpt>
      <trkpt lat="45.65799" lon="6.66946">
        <ele>2534</ele>
        <time>2022-07-26T09:08:42Z</time>
      </trkpt>
      <trkpt lat="45.65798" lon="6.66946">
        <ele>2534</ele>
        <time>2022-07-26T09:08:43Z</time>
      </trkpt>
      <trkpt lat="45.65798" lon="6.66945">
        <ele>2534</ele>
        <time>2022-07-26T09:08:44Z</time>
      </trkpt>
      <trkpt lat="45.65796" lon="6.66944">
        <ele>2535</ele>
        <time>2022-07-26T09:08:50Z</time>
      </trkpt>
      <trkpt lat="45.65796" lon="6.66943">
        <ele>2535</ele>
        <time>2022-07-26T09:08:51Z</time>
      </trkpt>
      <trkpt lat="45.65795" lon="6.66943">
        <ele>2535</ele>
        <time>2022-07-26T09:08:52Z</time>
      </trkpt>
      <trkpt lat="45.65794" lon="6.66942">
        <ele>2535</ele>
        <time>2022-07-26T09:08:53Z</time>
      </trkpt>
      <trkpt lat="45.65794" lon="6.66942">
        <ele>2535</ele>
        <time>2022-07-26T09:08:54Z</time>
      </trkpt>
      <trkpt lat="45.65793" lon="6.66941">
        <ele>2535</ele>
        <time>2022-07-26T09:08:55Z</time>
      </trkpt>
      <trkpt lat="45.65793" lon="6.66941">
        <ele>2535</ele>
        <time>2022-07-26T09:08:56Z</time>
      </trkpt>
      <trkpt lat="45.65792" lon="6.6694">
        <ele>2536</ele>
        <time>2022-07-26T09:09:04Z</time>
      </trkpt>
      <trkpt lat="45.65792" lon="6.6694">
        <ele>2536</ele>
        <time>2022-07-26T09:09:05Z</time>
      </trkpt>
      <trkpt lat="45.65791" lon="6.6694">
        <ele>2536</ele>
        <time>2022-07-26T09:09:06Z</time>
      </trkpt>
      <trkpt lat="45.6579" lon="6.66939">
        <ele>2537</ele>
        <time>2022-07-26T09:09:07Z</time>
      </trkpt>
      <trkpt lat="45.6579" lon="6.66939">
        <ele>2537</ele>
        <time>2022-07-26T09:09:08Z</time>
      </trkpt>
      <trkpt lat="45.65789" lon="6.66938">
        <ele>2537</ele>
        <time>2022-07-26T09:09:09Z</time>
      </trkpt>
      <trkpt lat="45.65788" lon="6.66937">
        <ele>2537</ele>
        <time>2022-07-26T09:09:10Z</time>
      </trkpt>
      <trkpt lat="45.65788" lon="6.66936">
        <ele>2537</ele>
        <time>2022-07-26T09:09:11Z</time>
      </trkpt>
      <trkpt lat="45.65787" lon="6.66936">
        <ele>2537</ele>
        <time>2022-07-26T09:09:12Z</time>
      </trkpt>
      <trkpt lat="45.65786" lon="6.66935">
        <ele>2537</ele>
        <time>2022-07-26T09:09:13Z</time>
      </trkpt>
      <trkpt lat="45.65785" lon="6.66934">
        <ele>2537</ele>
        <time>2022-07-26T09:09:14Z</time>
      </trkpt>
      <trkpt lat="45.65785" lon="6.66934">
        <ele>2537</ele>
        <time>2022-07-26T09:09:15Z</time>
      </trkpt>
      <trkpt lat="45.65784" lon="6.66933">
        <ele>2537</ele>
        <time>2022-07-26T09:09:16Z</time>
      </trkpt>
      <trkpt lat="45.65783" lon="6.66933">
        <ele>2538</ele>
        <time>2022-07-26T09:09:17Z</time>
      </trkpt>
      <trkpt lat="45.65782" lon="6.66933">
        <ele>2538</ele>
        <time>2022-07-26T09:09:18Z</time>
      </trkpt>
      <trkpt lat="45.65781" lon="6.66932">
        <ele>2538</ele>
        <time>2022-07-26T09:09:19Z</time>
      </trkpt>
      <trkpt lat="45.65781" lon="6.66932">
        <ele>2538</ele>
        <time>2022-07-26T09:09:20Z</time>
      </trkpt>
      <trkpt lat="45.6578" lon="6.66932">
        <ele>2538</ele>
        <time>2022-07-26T09:09:21Z</time>
      </trkpt>
      <trkpt lat="45.65779" lon="6.66932">
        <ele>2538</ele>
        <time>2022-07-26T09:09:22Z</time>
      </trkpt>
      <trkpt lat="45.65778" lon="6.66931">
        <ele>2538</ele>
        <time>2022-07-26T09:09:23Z</time>
      </trkpt>
      <trkpt lat="45.65777" lon="6.66931">
        <ele>2538</ele>
        <time>2022-07-26T09:09:24Z</time>
      </trkpt>
      <trkpt lat="45.65776" lon="6.66931">
        <ele>2538</ele>
        <time>2022-07-26T09:09:25Z</time>
      </trkpt>
      <trkpt lat="45.65776" lon="6.66931">
        <ele>2538</ele>
        <time>2022-07-26T09:09:26Z</time>
      </trkpt>
      <trkpt lat="45.65775" lon="6.6693">
        <ele>2539</ele>
        <time>2022-07-26T09:09:27Z</time>
      </trkpt>
      <trkpt lat="45.65774" lon="6.6693">
        <ele>2539</ele>
        <time>2022-07-26T09:09:28Z</time>
      </trkpt>
      <trkpt lat="45.65774" lon="6.6693">
        <ele>2539</ele>
        <time>2022-07-26T09:09:29Z</time>
      </trkpt>
      <trkpt lat="45.65773" lon="6.6693">
        <ele>2539</ele>
        <time>2022-07-26T09:09:30Z</time>
      </trkpt>
      <trkpt lat="45.65773" lon="6.66929">
        <ele>2539</ele>
        <time>2022-07-26T09:09:31Z</time>
      </trkpt>
      <trkpt lat="45.65772" lon="6.66929">
        <ele>2539</ele>
        <time>2022-07-26T09:09:32Z</time>
      </trkpt>
      <trkpt lat="45.65771" lon="6.66929">
        <ele>2539</ele>
        <time>2022-07-26T09:09:33Z</time>
      </trkpt>
      <trkpt lat="45.65771" lon="6.66929">
        <ele>2539</ele>
        <time>2022-07-26T09:09:34Z</time>
      </trkpt>
      <trkpt lat="45.6577" lon="6.66929">
        <ele>2539</ele>
        <time>2022-07-26T09:09:35Z</time>
      </trkpt>
      <trkpt lat="45.65769" lon="6.66929">
        <ele>2539</ele>
        <time>2022-07-26T09:09:36Z</time>
      </trkpt>
      <trkpt lat="45.65769" lon="6.66929">
        <ele>2540</ele>
        <time>2022-07-26T09:09:37Z</time>
      </trkpt>
      <trkpt lat="45.65768" lon="6.66929">
        <ele>2540</ele>
        <time>2022-07-26T09:09:38Z</time>
      </trkpt>
      <trkpt lat="45.65767" lon="6.66929">
        <ele>2540</ele>
        <time>2022-07-26T09:09:39Z</time>
      </trkpt>
      <trkpt lat="45.65767" lon="6.66929">
        <ele>2540</ele>
        <time>2022-07-26T09:09:40Z</time>
      </trkpt>
      <trkpt lat="45.65766" lon="6.66929">
        <ele>2540</ele>
        <time>2022-07-26T09:09:41Z</time>
      </trkpt>
      <trkpt lat="45.65765" lon="6.66929">
        <ele>2541</ele>
        <time>2022-07-26T09:09:42Z</time>
      </trkpt>
      <trkpt lat="45.65765" lon="6.66929">
        <ele>2541</ele>
        <time>2022-07-26T09:09:43Z</time>
      </trkpt>
      <trkpt lat="45.65765" lon="6.66929">
        <ele>2541</ele>
        <time>2022-07-26T09:09:44Z</time>
      </trkpt>
      <trkpt lat="45.65764" lon="6.66929">
        <ele>2541</ele>
        <time>2022-07-26T09:09:45Z</time>
      </trkpt>
      <trkpt lat="45.65764" lon="6.66929">
        <ele>2541</ele>
        <time>2022-07-26T09:09:46Z</time>
      </trkpt>
      <trkpt lat="45.65764" lon="6.66929">
        <ele>2541</ele>
        <time>2022-07-26T09:09:47Z</time>
      </trkpt>
      <trkpt lat="45.65763" lon="6.66928">
        <ele>2541</ele>
        <time>2022-07-26T09:09:48Z</time>
      </trkpt>
      <trkpt lat="45.65762" lon="6.66928">
        <ele>2541</ele>
        <time>2022-07-26T09:09:49Z</time>
      </trkpt>
      <trkpt lat="45.65762" lon="6.66928">
        <ele>2541</ele>
        <time>2022-07-26T09:09:50Z</time>
      </trkpt>
      <trkpt lat="45.65761" lon="6.66928">
        <ele>2541</ele>
        <time>2022-07-26T09:09:51Z</time>
      </trkpt>
      <trkpt lat="45.65761" lon="6.66928">
        <ele>2541</ele>
        <time>2022-07-26T09:09:52Z</time>
      </trkpt>
      <trkpt lat="45.6576" lon="6.66928">
        <ele>2541</ele>
        <time>2022-07-26T09:09:53Z</time>
      </trkpt>
      <trkpt lat="45.6576" lon="6.66928">
        <ele>2541</ele>
        <time>2022-07-26T09:09:54Z</time>
      </trkpt>
      <trkpt lat="45.6576" lon="6.66927">
        <ele>2541</ele>
        <time>2022-07-26T09:09:55Z</time>
      </trkpt>
      <trkpt lat="45.65759" lon="6.66927">
        <ele>2541</ele>
        <time>2022-07-26T09:09:56Z</time>
      </trkpt>
      <trkpt lat="45.65758" lon="6.66927">
        <ele>2542</ele>
        <time>2022-07-26T09:09:57Z</time>
      </trkpt>
      <trkpt lat="45.65758" lon="6.66927">
        <ele>2542</ele>
        <time>2022-07-26T09:09:58Z</time>
      </trkpt>
      <trkpt lat="45.65758" lon="6.66926">
        <ele>2542</ele>
        <time>2022-07-26T09:09:59Z</time>
      </trkpt>
      <trkpt lat="45.65757" lon="6.66926">
        <ele>2542</ele>
        <time>2022-07-26T09:10:00Z</time>
      </trkpt>
      <trkpt lat="45.65757" lon="6.66926">
        <ele>2542</ele>
        <time>2022-07-26T09:10:01Z</time>
      </trkpt>
      <trkpt lat="45.65757" lon="6.66926">
        <ele>2542</ele>
        <time>2022-07-26T09:10:02Z</time>
      </trkpt>
      <trkpt lat="45.65756" lon="6.66926">
        <ele>2542</ele>
        <time>2022-07-26T09:10:03Z</time>
      </trkpt>
      <trkpt lat="45.65756" lon="6.66926">
        <ele>2542</ele>
        <time>2022-07-26T09:10:04Z</time>
      </trkpt>
      <trkpt lat="45.65755" lon="6.66926">
        <ele>2542</ele>
        <time>2022-07-26T09:10:05Z</time>
      </trkpt>
      <trkpt lat="45.65755" lon="6.66926">
        <ele>2542</ele>
        <time>2022-07-26T09:10:06Z</time>
      </trkpt>
      <trkpt lat="45.65755" lon="6.66926">
        <ele>2543</ele>
        <time>2022-07-26T09:10:07Z</time>
      </trkpt>
      <trkpt lat="45.65755" lon="6.66927">
        <ele>2543</ele>
        <time>2022-07-26T09:10:08Z</time>
      </trkpt>
      <trkpt lat="45.65754" lon="6.66927">
        <ele>2543</ele>
        <time>2022-07-26T09:10:09Z</time>
      </trkpt>
      <trkpt lat="45.65753" lon="6.66927">
        <ele>2543</ele>
        <time>2022-07-26T09:10:10Z</time>
      </trkpt>
      <trkpt lat="45.65751" lon="6.66927">
        <ele>2544</ele>
        <time>2022-07-26T09:10:19Z</time>
      </trkpt>
      <trkpt lat="45.65751" lon="6.66926">
        <ele>2544</ele>
        <time>2022-07-26T09:10:20Z</time>
      </trkpt>
      <trkpt lat="45.6575" lon="6.66926">
        <ele>2544</ele>
        <time>2022-07-26T09:10:21Z</time>
      </trkpt>
      <trkpt lat="45.65747" lon="6.66926">
        <ele>2546</ele>
        <time>2022-07-26T09:11:13Z</time>
      </trkpt>
      <trkpt lat="45.65746" lon="6.66926">
        <ele>2546</ele>
        <time>2022-07-26T09:11:14Z</time>
      </trkpt>
      <trkpt lat="45.65744" lon="6.66926">
        <ele>2546</ele>
        <time>2022-07-26T09:11:15Z</time>
      </trkpt>
      <trkpt lat="45.65743" lon="6.66926">
        <ele>2546</ele>
        <time>2022-07-26T09:11:16Z</time>
      </trkpt>
      <trkpt lat="45.65742" lon="6.66926">
        <ele>2546</ele>
        <time>2022-07-26T09:11:17Z</time>
      </trkpt>
      <trkpt lat="45.65741" lon="6.66926">
        <ele>2546</ele>
        <time>2022-07-26T09:11:18Z</time>
      </trkpt>
      <trkpt lat="45.6574" lon="6.66926">
        <ele>2546</ele>
        <time>2022-07-26T09:11:19Z</time>
      </trkpt>
      <trkpt lat="45.6574" lon="6.66926">
        <ele>2546</ele>
        <time>2022-07-26T09:11:20Z</time>
      </trkpt>
      <trkpt lat="45.65739" lon="6.66926">
        <ele>2546</ele>
        <time>2022-07-26T09:11:21Z</time>
      </trkpt>
      <trkpt lat="45.65738" lon="6.66924">
        <ele>2547</ele>
        <time>2022-07-26T09:11:29Z</time>
      </trkpt>
      <trkpt lat="45.65737" lon="6.66923">
        <ele>2547</ele>
        <time>2022-07-26T09:11:30Z</time>
      </trkpt>
      <trkpt lat="45.65736" lon="6.66923">
        <ele>2547</ele>
        <time>2022-07-26T09:11:31Z</time>
      </trkpt>
      <trkpt lat="45.65736" lon="6.66923">
        <ele>2548</ele>
        <time>2022-07-26T09:11:32Z</time>
      </trkpt>
      <trkpt lat="45.65735" lon="6.66923">
        <ele>2548</ele>
        <time>2022-07-26T09:11:33Z</time>
      </trkpt>
      <trkpt lat="45.65734" lon="6.66923">
        <ele>2548</ele>
        <time>2022-07-26T09:11:34Z</time>
      </trkpt>
      <trkpt lat="45.65734" lon="6.66923">
        <ele>2548</ele>
        <time>2022-07-26T09:11:35Z</time>
      </trkpt>
      <trkpt lat="45.65733" lon="6.66923">
        <ele>2548</ele>
        <time>2022-07-26T09:11:36Z</time>
      </trkpt>
      <trkpt lat="45.65732" lon="6.66923">
        <ele>2548</ele>
        <time>2022-07-26T09:11:37Z</time>
      </trkpt>
      <trkpt lat="45.65732" lon="6.66923">
        <ele>2548</ele>
        <time>2022-07-26T09:11:38Z</time>
      </trkpt>
      <trkpt lat="45.65732" lon="6.66923">
        <ele>2548</ele>
        <time>2022-07-26T09:11:39Z</time>
      </trkpt>
      <trkpt lat="45.65731" lon="6.66924">
        <ele>2548</ele>
        <time>2022-07-26T09:11:40Z</time>
      </trkpt>
      <trkpt lat="45.6573" lon="6.66924">
        <ele>2548</ele>
        <time>2022-07-26T09:11:41Z</time>
      </trkpt>
      <trkpt lat="45.6573" lon="6.66924">
        <ele>2548</ele>
        <time>2022-07-26T09:11:42Z</time>
      </trkpt>
      <trkpt lat="45.6573" lon="6.66924">
        <ele>2548</ele>
        <time>2022-07-26T09:11:43Z</time>
      </trkpt>
      <trkpt lat="45.65729" lon="6.66924">
        <ele>2548</ele>
        <time>2022-07-26T09:11:44Z</time>
      </trkpt>
      <trkpt lat="45.65729" lon="6.66923">
        <ele>2548</ele>
        <time>2022-07-26T09:11:45Z</time>
      </trkpt>
      <trkpt lat="45.65728" lon="6.66923">
        <ele>2548</ele>
        <time>2022-07-26T09:11:46Z</time>
      </trkpt>
      <trkpt lat="45.65727" lon="6.66923">
        <ele>2549</ele>
        <time>2022-07-26T09:11:47Z</time>
      </trkpt>
      <trkpt lat="45.65727" lon="6.66922">
        <ele>2549</ele>
        <time>2022-07-26T09:11:48Z</time>
      </trkpt>
      <trkpt lat="45.65726" lon="6.66922">
        <ele>2549</ele>
        <time>2022-07-26T09:11:49Z</time>
      </trkpt>
      <trkpt lat="45.65725" lon="6.66922">
        <ele>2549</ele>
        <time>2022-07-26T09:11:50Z</time>
      </trkpt>
      <trkpt lat="45.65725" lon="6.66921">
        <ele>2549</ele>
        <time>2022-07-26T09:11:51Z</time>
      </trkpt>
      <trkpt lat="45.65724" lon="6.66921">
        <ele>2549</ele>
        <time>2022-07-26T09:11:52Z</time>
      </trkpt>
      <trkpt lat="45.65723" lon="6.66921">
        <ele>2549</ele>
        <time>2022-07-26T09:11:53Z</time>
      </trkpt>
      <trkpt lat="45.65722" lon="6.66921">
        <ele>2549</ele>
        <time>2022-07-26T09:11:54Z</time>
      </trkpt>
      <trkpt lat="45.65722" lon="6.66921">
        <ele>2549</ele>
        <time>2022-07-26T09:11:55Z</time>
      </trkpt>
      <trkpt lat="45.65721" lon="6.6692">
        <ele>2549</ele>
        <time>2022-07-26T09:11:56Z</time>
      </trkpt>
      <trkpt lat="45.6572" lon="6.6692">
        <ele>2550</ele>
        <time>2022-07-26T09:11:57Z</time>
      </trkpt>
      <trkpt lat="45.65719" lon="6.6692">
        <ele>2550</ele>
        <time>2022-07-26T09:11:58Z</time>
      </trkpt>
      <trkpt lat="45.65718" lon="6.6692">
        <ele>2550</ele>
        <time>2022-07-26T09:11:59Z</time>
      </trkpt>
      <trkpt lat="45.65717" lon="6.6692">
        <ele>2550</ele>
        <time>2022-07-26T09:12:00Z</time>
      </trkpt>
      <trkpt lat="45.65717" lon="6.6692">
        <ele>2550</ele>
        <time>2022-07-26T09:12:01Z</time>
      </trkpt>
      <trkpt lat="45.65716" lon="6.66921">
        <ele>2550</ele>
        <time>2022-07-26T09:12:02Z</time>
      </trkpt>
      <trkpt lat="45.65715" lon="6.66921">
        <ele>2550</ele>
        <time>2022-07-26T09:12:03Z</time>
      </trkpt>
      <trkpt lat="45.65714" lon="6.66921">
        <ele>2550</ele>
        <time>2022-07-26T09:12:04Z</time>
      </trkpt>
      <trkpt lat="45.65714" lon="6.66922">
        <ele>2550</ele>
        <time>2022-07-26T09:12:05Z</time>
      </trkpt>
      <trkpt lat="45.65713" lon="6.66922">
        <ele>2550</ele>
        <time>2022-07-26T09:12:06Z</time>
      </trkpt>
      <trkpt lat="45.65712" lon="6.66922">
        <ele>2551</ele>
        <time>2022-07-26T09:12:07Z</time>
      </trkpt>
      <trkpt lat="45.65712" lon="6.66922">
        <ele>2551</ele>
        <time>2022-07-26T09:12:08Z</time>
      </trkpt>
      <trkpt lat="45.65711" lon="6.66922">
        <ele>2551</ele>
        <time>2022-07-26T09:12:09Z</time>
      </trkpt>
      <trkpt lat="45.65711" lon="6.66922">
        <ele>2551</ele>
        <time>2022-07-26T09:12:10Z</time>
      </trkpt>
      <trkpt lat="45.65711" lon="6.66922">
        <ele>2551</ele>
        <time>2022-07-26T09:12:11Z</time>
      </trkpt>
      <trkpt lat="45.6571" lon="6.66922">
        <ele>2551</ele>
        <time>2022-07-26T09:12:12Z</time>
      </trkpt>
      <trkpt lat="45.6571" lon="6.66922">
        <ele>2551</ele>
        <time>2022-07-26T09:12:13Z</time>
      </trkpt>
      <trkpt lat="45.65709" lon="6.66922">
        <ele>2551</ele>
        <time>2022-07-26T09:12:14Z</time>
      </trkpt>
      <trkpt lat="45.65708" lon="6.66922">
        <ele>2551</ele>
        <time>2022-07-26T09:12:15Z</time>
      </trkpt>
      <trkpt lat="45.65708" lon="6.66922">
        <ele>2551</ele>
        <time>2022-07-26T09:12:16Z</time>
      </trkpt>
      <trkpt lat="45.65707" lon="6.66922">
        <ele>2552</ele>
        <time>2022-07-26T09:12:17Z</time>
      </trkpt>
      <trkpt lat="45.65707" lon="6.66922">
        <ele>2552</ele>
        <time>2022-07-26T09:12:18Z</time>
      </trkpt>
      <trkpt lat="45.65706" lon="6.66922">
        <ele>2552</ele>
        <time>2022-07-26T09:12:19Z</time>
      </trkpt>
      <trkpt lat="45.65705" lon="6.66922">
        <ele>2552</ele>
        <time>2022-07-26T09:12:20Z</time>
      </trkpt>
      <trkpt lat="45.65705" lon="6.66923">
        <ele>2552</ele>
        <time>2022-07-26T09:12:21Z</time>
      </trkpt>
      <trkpt lat="45.65704" lon="6.66923">
        <ele>2553</ele>
        <time>2022-07-26T09:12:22Z</time>
      </trkpt>
      <trkpt lat="45.65703" lon="6.66923">
        <ele>2553</ele>
        <time>2022-07-26T09:12:23Z</time>
      </trkpt>
      <trkpt lat="45.65703" lon="6.66923">
        <ele>2553</ele>
        <time>2022-07-26T09:12:24Z</time>
      </trkpt>
      <trkpt lat="45.65702" lon="6.66923">
        <ele>2553</ele>
        <time>2022-07-26T09:12:25Z</time>
      </trkpt>
      <trkpt lat="45.65701" lon="6.66924">
        <ele>2553</ele>
        <time>2022-07-26T09:12:26Z</time>
      </trkpt>
      <trkpt lat="45.65701" lon="6.66924">
        <ele>2556</ele>
        <time>2022-07-26T09:12:37Z</time>
      </trkpt>
      <trkpt lat="45.657" lon="6.66924">
        <ele>2556</ele>
        <time>2022-07-26T09:12:38Z</time>
      </trkpt>
      <trkpt lat="45.657" lon="6.66924">
        <ele>2556</ele>
        <time>2022-07-26T09:12:39Z</time>
      </trkpt>
      <trkpt lat="45.65699" lon="6.66924">
        <ele>2556</ele>
        <time>2022-07-26T09:12:40Z</time>
      </trkpt>
      <trkpt lat="45.65699" lon="6.66923">
        <ele>2556</ele>
        <time>2022-07-26T09:12:41Z</time>
      </trkpt>
      <trkpt lat="45.65699" lon="6.66923">
        <ele>2556</ele>
        <time>2022-07-26T09:12:42Z</time>
      </trkpt>
      <trkpt lat="45.65698" lon="6.66922">
        <ele>2556</ele>
        <time>2022-07-26T09:12:43Z</time>
      </trkpt>
      <trkpt lat="45.65698" lon="6.66922">
        <ele>2556</ele>
        <time>2022-07-26T09:12:44Z</time>
      </trkpt>
      <trkpt lat="45.65698" lon="6.66921">
        <ele>2556</ele>
        <time>2022-07-26T09:12:45Z</time>
      </trkpt>
      <trkpt lat="45.65698" lon="6.6692">
        <ele>2556</ele>
        <time>2022-07-26T09:12:46Z</time>
      </trkpt>
      <trkpt lat="45.65697" lon="6.6692">
        <ele>2556</ele>
        <time>2022-07-26T09:12:47Z</time>
      </trkpt>
      <trkpt lat="45.65697" lon="6.66919">
        <ele>2556</ele>
        <time>2022-07-26T09:12:48Z</time>
      </trkpt>
      <trkpt lat="45.65696" lon="6.66919">
        <ele>2556</ele>
        <time>2022-07-26T09:12:49Z</time>
      </trkpt>
      <trkpt lat="45.65696" lon="6.66918">
        <ele>2557</ele>
        <time>2022-07-26T09:12:50Z</time>
      </trkpt>
      <trkpt lat="45.65695" lon="6.66918">
        <ele>2557</ele>
        <time>2022-07-26T09:12:51Z</time>
      </trkpt>
      <trkpt lat="45.65694" lon="6.66917">
        <ele>2558</ele>
        <time>2022-07-26T09:12:52Z</time>
      </trkpt>
      <trkpt lat="45.65694" lon="6.66917">
        <ele>2558</ele>
        <time>2022-07-26T09:12:53Z</time>
      </trkpt>
      <trkpt lat="45.65693" lon="6.66917">
        <ele>2558</ele>
        <time>2022-07-26T09:12:54Z</time>
      </trkpt>
      <trkpt lat="45.65692" lon="6.66917">
        <ele>2558</ele>
        <time>2022-07-26T09:12:55Z</time>
      </trkpt>
      <trkpt lat="45.65692" lon="6.66916">
        <ele>2558</ele>
        <time>2022-07-26T09:12:56Z</time>
      </trkpt>
      <trkpt lat="45.65691" lon="6.66916">
        <ele>2558</ele>
        <time>2022-07-26T09:12:57Z</time>
      </trkpt>
      <trkpt lat="45.6569" lon="6.66916">
        <ele>2558</ele>
        <time>2022-07-26T09:12:58Z</time>
      </trkpt>
      <trkpt lat="45.6569" lon="6.66916">
        <ele>2558</ele>
        <time>2022-07-26T09:12:59Z</time>
      </trkpt>
      <trkpt lat="45.65689" lon="6.66916">
        <ele>2558</ele>
        <time>2022-07-26T09:13:00Z</time>
      </trkpt>
      <trkpt lat="45.65688" lon="6.66916">
        <ele>2558</ele>
        <time>2022-07-26T09:13:01Z</time>
      </trkpt>
      <trkpt lat="45.65688" lon="6.66916">
        <ele>2558</ele>
        <time>2022-07-26T09:13:02Z</time>
      </trkpt>
      <trkpt lat="45.65687" lon="6.66916">
        <ele>2558</ele>
        <time>2022-07-26T09:13:03Z</time>
      </trkpt>
      <trkpt lat="45.65686" lon="6.66916">
        <ele>2558</ele>
        <time>2022-07-26T09:13:04Z</time>
      </trkpt>
      <trkpt lat="45.65685" lon="6.66916">
        <ele>2558</ele>
        <time>2022-07-26T09:13:05Z</time>
      </trkpt>
      <trkpt lat="45.65684" lon="6.66916">
        <ele>2558</ele>
        <time>2022-07-26T09:13:06Z</time>
      </trkpt>
      <trkpt lat="45.65684" lon="6.66916">
        <ele>2558</ele>
        <time>2022-07-26T09:13:07Z</time>
      </trkpt>
      <trkpt lat="45.65683" lon="6.66916">
        <ele>2558</ele>
        <time>2022-07-26T09:13:08Z</time>
      </trkpt>
      <trkpt lat="45.65682" lon="6.66915">
        <ele>2558</ele>
        <time>2022-07-26T09:13:09Z</time>
      </trkpt>
      <trkpt lat="45.65681" lon="6.66915">
        <ele>2558</ele>
        <time>2022-07-26T09:13:10Z</time>
      </trkpt>
      <trkpt lat="45.65681" lon="6.66914">
        <ele>2558</ele>
        <time>2022-07-26T09:13:11Z</time>
      </trkpt>
      <trkpt lat="45.6568" lon="6.66914">
        <ele>2559</ele>
        <time>2022-07-26T09:13:12Z</time>
      </trkpt>
      <trkpt lat="45.6568" lon="6.66912">
        <ele>2560</ele>
        <time>2022-07-26T09:13:21Z</time>
      </trkpt>
      <trkpt lat="45.6568" lon="6.66911">
        <ele>2560</ele>
        <time>2022-07-26T09:13:22Z</time>
      </trkpt>
      <trkpt lat="45.65681" lon="6.6691">
        <ele>2560</ele>
        <time>2022-07-26T09:13:23Z</time>
      </trkpt>
      <trkpt lat="45.65681" lon="6.66909">
        <ele>2560</ele>
        <time>2022-07-26T09:13:24Z</time>
      </trkpt>
      <trkpt lat="45.65681" lon="6.66908">
        <ele>2560</ele>
        <time>2022-07-26T09:13:25Z</time>
      </trkpt>
      <trkpt lat="45.65681" lon="6.66908">
        <ele>2560</ele>
        <time>2022-07-26T09:13:26Z</time>
      </trkpt>
      <trkpt lat="45.65682" lon="6.66907">
        <ele>2561</ele>
        <time>2022-07-26T09:13:27Z</time>
      </trkpt>
      <trkpt lat="45.65682" lon="6.66906">
        <ele>2561</ele>
        <time>2022-07-26T09:13:28Z</time>
      </trkpt>
      <trkpt lat="45.65682" lon="6.66906">
        <ele>2561</ele>
        <time>2022-07-26T09:13:29Z</time>
      </trkpt>
      <trkpt lat="45.65683" lon="6.66905">
        <ele>2561</ele>
        <time>2022-07-26T09:13:30Z</time>
      </trkpt>
      <trkpt lat="45.65683" lon="6.66904">
        <ele>2561</ele>
        <time>2022-07-26T09:13:31Z</time>
      </trkpt>
      <trkpt lat="45.65683" lon="6.66903">
        <ele>2561</ele>
        <time>2022-07-26T09:13:32Z</time>
      </trkpt>
      <trkpt lat="45.65682" lon="6.66902">
        <ele>2561</ele>
        <time>2022-07-26T09:13:33Z</time>
      </trkpt>
      <trkpt lat="45.65682" lon="6.66901">
        <ele>2561</ele>
        <time>2022-07-26T09:13:34Z</time>
      </trkpt>
      <trkpt lat="45.65682" lon="6.669">
        <ele>2561</ele>
        <time>2022-07-26T09:13:35Z</time>
      </trkpt>
      <trkpt lat="45.65681" lon="6.669">
        <ele>2561</ele>
        <time>2022-07-26T09:13:36Z</time>
      </trkpt>
      <trkpt lat="45.65681" lon="6.66899">
        <ele>2561</ele>
        <time>2022-07-26T09:13:37Z</time>
      </trkpt>
      <trkpt lat="45.65681" lon="6.66899">
        <ele>2561</ele>
        <time>2022-07-26T09:13:38Z</time>
      </trkpt>
      <trkpt lat="45.65681" lon="6.66898">
        <ele>2561</ele>
        <time>2022-07-26T09:13:39Z</time>
      </trkpt>
      <trkpt lat="45.65681" lon="6.66898">
        <ele>2561</ele>
        <time>2022-07-26T09:13:40Z</time>
      </trkpt>
      <trkpt lat="45.65681" lon="6.66897">
        <ele>2561</ele>
        <time>2022-07-26T09:13:41Z</time>
      </trkpt>
      <trkpt lat="45.6568" lon="6.66896">
        <ele>2562</ele>
        <time>2022-07-26T09:13:42Z</time>
      </trkpt>
      <trkpt lat="45.6568" lon="6.66895">
        <ele>2562</ele>
        <time>2022-07-26T09:13:43Z</time>
      </trkpt>
      <trkpt lat="45.65679" lon="6.66894">
        <ele>2562</ele>
        <time>2022-07-26T09:13:44Z</time>
      </trkpt>
      <trkpt lat="45.65679" lon="6.66894">
        <ele>2562</ele>
        <time>2022-07-26T09:13:45Z</time>
      </trkpt>
      <trkpt lat="45.65679" lon="6.66893">
        <ele>2562</ele>
        <time>2022-07-26T09:13:46Z</time>
      </trkpt>
      <trkpt lat="45.65678" lon="6.66893">
        <ele>2562</ele>
        <time>2022-07-26T09:13:47Z</time>
      </trkpt>
      <trkpt lat="45.65678" lon="6.66893">
        <ele>2562</ele>
        <time>2022-07-26T09:13:48Z</time>
      </trkpt>
      <trkpt lat="45.65677" lon="6.66892">
        <ele>2562</ele>
        <time>2022-07-26T09:13:49Z</time>
      </trkpt>
      <trkpt lat="45.65677" lon="6.66892">
        <ele>2562</ele>
        <time>2022-07-26T09:13:50Z</time>
      </trkpt>
      <trkpt lat="45.65676" lon="6.66891">
        <ele>2562</ele>
        <time>2022-07-26T09:13:51Z</time>
      </trkpt>
      <trkpt lat="45.65676" lon="6.66891">
        <ele>2562</ele>
        <time>2022-07-26T09:13:52Z</time>
      </trkpt>
      <trkpt lat="45.65675" lon="6.66891">
        <ele>2562</ele>
        <time>2022-07-26T09:13:53Z</time>
      </trkpt>
      <trkpt lat="45.65675" lon="6.66891">
        <ele>2562</ele>
        <time>2022-07-26T09:13:54Z</time>
      </trkpt>
      <trkpt lat="45.65674" lon="6.66891">
        <ele>2562</ele>
        <time>2022-07-26T09:13:55Z</time>
      </trkpt>
      <trkpt lat="45.65673" lon="6.66891">
        <ele>2562</ele>
        <time>2022-07-26T09:13:56Z</time>
      </trkpt>
      <trkpt lat="45.65673" lon="6.66891">
        <ele>2562</ele>
        <time>2022-07-26T09:13:57Z</time>
      </trkpt>
      <trkpt lat="45.65672" lon="6.66891">
        <ele>2562</ele>
        <time>2022-07-26T09:13:58Z</time>
      </trkpt>
      <trkpt lat="45.65671" lon="6.66891">
        <ele>2562</ele>
        <time>2022-07-26T09:13:59Z</time>
      </trkpt>
      <trkpt lat="45.6567" lon="6.66891">
        <ele>2562</ele>
        <time>2022-07-26T09:14:00Z</time>
      </trkpt>
      <trkpt lat="45.6567" lon="6.6689">
        <ele>2562</ele>
        <time>2022-07-26T09:14:01Z</time>
      </trkpt>
      <trkpt lat="45.65669" lon="6.6689">
        <ele>2562</ele>
        <time>2022-07-26T09:14:02Z</time>
      </trkpt>
      <trkpt lat="45.65669" lon="6.66889">
        <ele>2562</ele>
        <time>2022-07-26T09:14:03Z</time>
      </trkpt>
      <trkpt lat="45.65668" lon="6.66888">
        <ele>2562</ele>
        <time>2022-07-26T09:14:04Z</time>
      </trkpt>
      <trkpt lat="45.65667" lon="6.66886">
        <ele>2563</ele>
        <time>2022-07-26T09:14:13Z</time>
      </trkpt>
      <trkpt lat="45.65667" lon="6.66885">
        <ele>2563</ele>
        <time>2022-07-26T09:14:14Z</time>
      </trkpt>
      <trkpt lat="45.65667" lon="6.66884">
        <ele>2563</ele>
        <time>2022-07-26T09:14:15Z</time>
      </trkpt>
      <trkpt lat="45.65666" lon="6.66883">
        <ele>2563</ele>
        <time>2022-07-26T09:14:16Z</time>
      </trkpt>
      <trkpt lat="45.65666" lon="6.66883">
        <ele>2564</ele>
        <time>2022-07-26T09:14:17Z</time>
      </trkpt>
      <trkpt lat="45.65665" lon="6.66883">
        <ele>2564</ele>
        <time>2022-07-26T09:14:18Z</time>
      </trkpt>
      <trkpt lat="45.65664" lon="6.66883">
        <ele>2564</ele>
        <time>2022-07-26T09:14:19Z</time>
      </trkpt>
      <trkpt lat="45.65663" lon="6.66879">
        <ele>2568</ele>
        <time>2022-07-26T09:14:45Z</time>
      </trkpt>
      <trkpt lat="45.65662" lon="6.66878">
        <ele>2568</ele>
        <time>2022-07-26T09:14:46Z</time>
      </trkpt>
      <trkpt lat="45.65662" lon="6.66876">
        <ele>2568</ele>
        <time>2022-07-26T09:14:47Z</time>
      </trkpt>
      <trkpt lat="45.65661" lon="6.66875">
        <ele>2568</ele>
        <time>2022-07-26T09:14:48Z</time>
      </trkpt>
      <trkpt lat="45.65661" lon="6.66873">
        <ele>2568</ele>
        <time>2022-07-26T09:14:49Z</time>
      </trkpt>
      <trkpt lat="45.65661" lon="6.66872">
        <ele>2568</ele>
        <time>2022-07-26T09:14:50Z</time>
      </trkpt>
      <trkpt lat="45.6566" lon="6.66871">
        <ele>2568</ele>
        <time>2022-07-26T09:14:51Z</time>
      </trkpt>
      <trkpt lat="45.65661" lon="6.6687">
        <ele>2569</ele>
        <time>2022-07-26T09:14:52Z</time>
      </trkpt>
      <trkpt lat="45.65661" lon="6.66869">
        <ele>2569</ele>
        <time>2022-07-26T09:14:53Z</time>
      </trkpt>
      <trkpt lat="45.65661" lon="6.66869">
        <ele>2569</ele>
        <time>2022-07-26T09:14:54Z</time>
      </trkpt>
      <trkpt lat="45.65661" lon="6.66868">
        <ele>2569</ele>
        <time>2022-07-26T09:14:55Z</time>
      </trkpt>
      <trkpt lat="45.65662" lon="6.66868">
        <ele>2569</ele>
        <time>2022-07-26T09:14:56Z</time>
      </trkpt>
      <trkpt lat="45.65662" lon="6.66867">
        <ele>2570</ele>
        <time>2022-07-26T09:14:57Z</time>
      </trkpt>
      <trkpt lat="45.65662" lon="6.66867">
        <ele>2570</ele>
        <time>2022-07-26T09:14:58Z</time>
      </trkpt>
      <trkpt lat="45.65662" lon="6.66866">
        <ele>2570</ele>
        <time>2022-07-26T09:14:59Z</time>
      </trkpt>
      <trkpt lat="45.65662" lon="6.66866">
        <ele>2570</ele>
        <time>2022-07-26T09:15:00Z</time>
      </trkpt>
      <trkpt lat="45.65662" lon="6.66865">
        <ele>2570</ele>
        <time>2022-07-26T09:15:01Z</time>
      </trkpt>
      <trkpt lat="45.65662" lon="6.66864">
        <ele>2571</ele>
        <time>2022-07-26T09:15:02Z</time>
      </trkpt>
      <trkpt lat="45.65662" lon="6.66863">
        <ele>2571</ele>
        <time>2022-07-26T09:15:03Z</time>
      </trkpt>
      <trkpt lat="45.65661" lon="6.66862">
        <ele>2572</ele>
        <time>2022-07-26T09:15:15Z</time>
      </trkpt>
      <trkpt lat="45.6566" lon="6.66861">
        <ele>2572</ele>
        <time>2022-07-26T09:15:16Z</time>
      </trkpt>
      <trkpt lat="45.65659" lon="6.66861">
        <ele>2573</ele>
        <time>2022-07-26T09:15:17Z</time>
      </trkpt>
      <trkpt lat="45.65659" lon="6.6686">
        <ele>2573</ele>
        <time>2022-07-26T09:15:18Z</time>
      </trkpt>
      <trkpt lat="45.65659" lon="6.6686">
        <ele>2573</ele>
        <time>2022-07-26T09:15:19Z</time>
      </trkpt>
      <trkpt lat="45.65659" lon="6.6686">
        <ele>2573</ele>
        <time>2022-07-26T09:15:20Z</time>
      </trkpt>
      <trkpt lat="45.65658" lon="6.66859">
        <ele>2573</ele>
        <time>2022-07-26T09:15:21Z</time>
      </trkpt>
      <trkpt lat="45.65658" lon="6.66859">
        <ele>2573</ele>
        <time>2022-07-26T09:15:22Z</time>
      </trkpt>
      <trkpt lat="45.65658" lon="6.66858">
        <ele>2573</ele>
        <time>2022-07-26T09:15:23Z</time>
      </trkpt>
      <trkpt lat="45.65657" lon="6.66857">
        <ele>2573</ele>
        <time>2022-07-26T09:15:24Z</time>
      </trkpt>
      <trkpt lat="45.65655" lon="6.66856">
        <ele>2576</ele>
        <time>2022-07-26T09:15:44Z</time>
      </trkpt>
      <trkpt lat="45.65655" lon="6.66855">
        <ele>2576</ele>
        <time>2022-07-26T09:15:45Z</time>
      </trkpt>
      <trkpt lat="45.65654" lon="6.66854">
        <ele>2576</ele>
        <time>2022-07-26T09:15:46Z</time>
      </trkpt>
      <trkpt lat="45.65654" lon="6.66853">
        <ele>2576</ele>
        <time>2022-07-26T09:15:47Z</time>
      </trkpt>
      <trkpt lat="45.65653" lon="6.66853">
        <ele>2576</ele>
        <time>2022-07-26T09:15:48Z</time>
      </trkpt>
      <trkpt lat="45.65653" lon="6.66852">
        <ele>2576</ele>
        <time>2022-07-26T09:15:49Z</time>
      </trkpt>
      <trkpt lat="45.65652" lon="6.66851">
        <ele>2576</ele>
        <time>2022-07-26T09:15:50Z</time>
      </trkpt>
      <trkpt lat="45.65652" lon="6.6685">
        <ele>2578</ele>
        <time>2022-07-26T09:16:11Z</time>
      </trkpt>
      <trkpt lat="45.65651" lon="6.66849">
        <ele>2578</ele>
        <time>2022-07-26T09:16:12Z</time>
      </trkpt>
      <trkpt lat="45.65651" lon="6.66848">
        <ele>2578</ele>
        <time>2022-07-26T09:16:13Z</time>
      </trkpt>
      <trkpt lat="45.6565" lon="6.66847">
        <ele>2578</ele>
        <time>2022-07-26T09:16:14Z</time>
      </trkpt>
      <trkpt lat="45.6565" lon="6.66846">
        <ele>2578</ele>
        <time>2022-07-26T09:16:15Z</time>
      </trkpt>
      <trkpt lat="45.65649" lon="6.66846">
        <ele>2578</ele>
        <time>2022-07-26T09:16:16Z</time>
      </trkpt>
      <trkpt lat="45.65648" lon="6.66845">
        <ele>2578</ele>
        <time>2022-07-26T09:16:17Z</time>
      </trkpt>
      <trkpt lat="45.65647" lon="6.66845">
        <ele>2580</ele>
        <time>2022-07-26T09:16:40Z</time>
      </trkpt>
      <trkpt lat="45.65647" lon="6.66844">
        <ele>2580</ele>
        <time>2022-07-26T09:16:41Z</time>
      </trkpt>
      <trkpt lat="45.65647" lon="6.66844">
        <ele>2580</ele>
        <time>2022-07-26T09:16:42Z</time>
      </trkpt>
      <trkpt lat="45.65646" lon="6.66843">
        <ele>2580</ele>
        <time>2022-07-26T09:16:43Z</time>
      </trkpt>
      <trkpt lat="45.65646" lon="6.66842">
        <ele>2580</ele>
        <time>2022-07-26T09:16:44Z</time>
      </trkpt>
      <trkpt lat="45.65645" lon="6.66842">
        <ele>2580</ele>
        <time>2022-07-26T09:16:45Z</time>
      </trkpt>
      <trkpt lat="45.65645" lon="6.66841">
        <ele>2580</ele>
        <time>2022-07-26T09:16:46Z</time>
      </trkpt>
      <trkpt lat="45.65644" lon="6.66841">
        <ele>2580</ele>
        <time>2022-07-26T09:16:47Z</time>
      </trkpt>
      <trkpt lat="45.65643" lon="6.6684">
        <ele>2580</ele>
        <time>2022-07-26T09:16:48Z</time>
      </trkpt>
      <trkpt lat="45.65642" lon="6.66839">
        <ele>2580</ele>
        <time>2022-07-26T09:16:49Z</time>
      </trkpt>
      <trkpt lat="45.65641" lon="6.66839">
        <ele>2580</ele>
        <time>2022-07-26T09:16:50Z</time>
      </trkpt>
      <trkpt lat="45.65641" lon="6.66836">
        <ele>2581</ele>
        <time>2022-07-26T09:16:57Z</time>
      </trkpt>
      <trkpt lat="45.65641" lon="6.66835">
        <ele>2581</ele>
        <time>2022-07-26T09:16:58Z</time>
      </trkpt>
      <trkpt lat="45.65641" lon="6.66834">
        <ele>2581</ele>
        <time>2022-07-26T09:16:59Z</time>
      </trkpt>
      <trkpt lat="45.6564" lon="6.66833">
        <ele>2581</ele>
        <time>2022-07-26T09:17:00Z</time>
      </trkpt>
      <trkpt lat="45.6564" lon="6.66832">
        <ele>2581</ele>
        <time>2022-07-26T09:17:01Z</time>
      </trkpt>
      <trkpt lat="45.6564" lon="6.66831">
        <ele>2582</ele>
        <time>2022-07-26T09:17:02Z</time>
      </trkpt>
      <trkpt lat="45.65639" lon="6.6683">
        <ele>2582</ele>
        <time>2022-07-26T09:17:03Z</time>
      </trkpt>
      <trkpt lat="45.65639" lon="6.6683">
        <ele>2582</ele>
        <time>2022-07-26T09:17:04Z</time>
      </trkpt>
      <trkpt lat="45.65638" lon="6.66829">
        <ele>2582</ele>
        <time>2022-07-26T09:17:05Z</time>
      </trkpt>
      <trkpt lat="45.65637" lon="6.66829">
        <ele>2582</ele>
        <time>2022-07-26T09:17:06Z</time>
      </trkpt>
      <trkpt lat="45.65637" lon="6.66828">
        <ele>2583</ele>
        <time>2022-07-26T09:17:07Z</time>
      </trkpt>
      <trkpt lat="45.65636" lon="6.66828">
        <ele>2583</ele>
        <time>2022-07-26T09:17:08Z</time>
      </trkpt>
      <trkpt lat="45.65636" lon="6.66827">
        <ele>2583</ele>
        <time>2022-07-26T09:17:09Z</time>
      </trkpt>
      <trkpt lat="45.65635" lon="6.66827">
        <ele>2583</ele>
        <time>2022-07-26T09:17:10Z</time>
      </trkpt>
      <trkpt lat="45.65635" lon="6.66826">
        <ele>2583</ele>
        <time>2022-07-26T09:17:11Z</time>
      </trkpt>
      <trkpt lat="45.65634" lon="6.66826">
        <ele>2583</ele>
        <time>2022-07-26T09:17:12Z</time>
      </trkpt>
      <trkpt lat="45.65634" lon="6.66825">
        <ele>2583</ele>
        <time>2022-07-26T09:17:13Z</time>
      </trkpt>
      <trkpt lat="45.65633" lon="6.66825">
        <ele>2583</ele>
        <time>2022-07-26T09:17:14Z</time>
      </trkpt>
      <trkpt lat="45.65633" lon="6.66824">
        <ele>2583</ele>
        <time>2022-07-26T09:17:15Z</time>
      </trkpt>
      <trkpt lat="45.65632" lon="6.66823">
        <ele>2583</ele>
        <time>2022-07-26T09:17:16Z</time>
      </trkpt>
      <trkpt lat="45.65632" lon="6.66823">
        <ele>2584</ele>
        <time>2022-07-26T09:17:17Z</time>
      </trkpt>
      <trkpt lat="45.65631" lon="6.66822">
        <ele>2584</ele>
        <time>2022-07-26T09:17:18Z</time>
      </trkpt>
      <trkpt lat="45.65631" lon="6.66821">
        <ele>2584</ele>
        <time>2022-07-26T09:17:19Z</time>
      </trkpt>
      <trkpt lat="45.6563" lon="6.66821">
        <ele>2585</ele>
        <time>2022-07-26T09:17:20Z</time>
      </trkpt>
      <trkpt lat="45.6563" lon="6.6682">
        <ele>2585</ele>
        <time>2022-07-26T09:17:21Z</time>
      </trkpt>
      <trkpt lat="45.65629" lon="6.66819">
        <ele>2586</ele>
        <time>2022-07-26T09:17:22Z</time>
      </trkpt>
      <trkpt lat="45.65628" lon="6.66819">
        <ele>2586</ele>
        <time>2022-07-26T09:17:23Z</time>
      </trkpt>
      <trkpt lat="45.65628" lon="6.66818">
        <ele>2586</ele>
        <time>2022-07-26T09:17:24Z</time>
      </trkpt>
      <trkpt lat="45.65627" lon="6.66818">
        <ele>2586</ele>
        <time>2022-07-26T09:17:25Z</time>
      </trkpt>
      <trkpt lat="45.65627" lon="6.66817">
        <ele>2586</ele>
        <time>2022-07-26T09:17:26Z</time>
      </trkpt>
      <trkpt lat="45.65627" lon="6.66817">
        <ele>2587</ele>
        <time>2022-07-26T09:17:27Z</time>
      </trkpt>
      <trkpt lat="45.65626" lon="6.66816">
        <ele>2587</ele>
        <time>2022-07-26T09:17:28Z</time>
      </trkpt>
      <trkpt lat="45.65626" lon="6.66816">
        <ele>2587</ele>
        <time>2022-07-26T09:17:29Z</time>
      </trkpt>
      <trkpt lat="45.65626" lon="6.66815">
        <ele>2587</ele>
        <time>2022-07-26T09:17:30Z</time>
      </trkpt>
      <trkpt lat="45.65625" lon="6.66815">
        <ele>2587</ele>
        <time>2022-07-26T09:17:31Z</time>
      </trkpt>
      <trkpt lat="45.65625" lon="6.66814">
        <ele>2588</ele>
        <time>2022-07-26T09:17:32Z</time>
      </trkpt>
      <trkpt lat="45.65624" lon="6.66814">
        <ele>2588</ele>
        <time>2022-07-26T09:17:33Z</time>
      </trkpt>
      <trkpt lat="45.65624" lon="6.66813">
        <ele>2588</ele>
        <time>2022-07-26T09:17:34Z</time>
      </trkpt>
      <trkpt lat="45.65623" lon="6.66812">
        <ele>2588</ele>
        <time>2022-07-26T09:17:35Z</time>
      </trkpt>
      <trkpt lat="45.65623" lon="6.66812">
        <ele>2588</ele>
        <time>2022-07-26T09:17:36Z</time>
      </trkpt>
      <trkpt lat="45.65623" lon="6.66811">
        <ele>2588</ele>
        <time>2022-07-26T09:17:37Z</time>
      </trkpt>
      <trkpt lat="45.65622" lon="6.66811">
        <ele>2588</ele>
        <time>2022-07-26T09:17:38Z</time>
      </trkpt>
      <trkpt lat="45.65622" lon="6.6681">
        <ele>2588</ele>
        <time>2022-07-26T09:17:39Z</time>
      </trkpt>
      <trkpt lat="45.65621" lon="6.66809">
        <ele>2588</ele>
        <time>2022-07-26T09:17:40Z</time>
      </trkpt>
      <trkpt lat="45.65621" lon="6.66809">
        <ele>2588</ele>
        <time>2022-07-26T09:17:41Z</time>
      </trkpt>
      <trkpt lat="45.6562" lon="6.66808">
        <ele>2589</ele>
        <time>2022-07-26T09:17:42Z</time>
      </trkpt>
      <trkpt lat="45.6562" lon="6.66808">
        <ele>2589</ele>
        <time>2022-07-26T09:17:43Z</time>
      </trkpt>
      <trkpt lat="45.65619" lon="6.66807">
        <ele>2589</ele>
        <time>2022-07-26T09:17:44Z</time>
      </trkpt>
      <trkpt lat="45.65618" lon="6.66807">
        <ele>2589</ele>
        <time>2022-07-26T09:17:45Z</time>
      </trkpt>
      <trkpt lat="45.65618" lon="6.66806">
        <ele>2589</ele>
        <time>2022-07-26T09:17:46Z</time>
      </trkpt>
      <trkpt lat="45.65617" lon="6.66806">
        <ele>2590</ele>
        <time>2022-07-26T09:17:47Z</time>
      </trkpt>
      <trkpt lat="45.65615" lon="6.66804">
        <ele>2592</ele>
        <time>2022-07-26T09:18:04Z</time>
      </trkpt>
      <trkpt lat="45.65614" lon="6.66803">
        <ele>2592</ele>
        <time>2022-07-26T09:18:05Z</time>
      </trkpt>
      <trkpt lat="45.65613" lon="6.66802">
        <ele>2592</ele>
        <time>2022-07-26T09:18:06Z</time>
      </trkpt>
      <trkpt lat="45.65612" lon="6.66801">
        <ele>2592</ele>
        <time>2022-07-26T09:18:07Z</time>
      </trkpt>
      <trkpt lat="45.65611" lon="6.668">
        <ele>2592</ele>
        <time>2022-07-26T09:18:08Z</time>
      </trkpt>
      <trkpt lat="45.6561" lon="6.66799">
        <ele>2592</ele>
        <time>2022-07-26T09:18:09Z</time>
      </trkpt>
      <trkpt lat="45.65609" lon="6.66799">
        <ele>2592</ele>
        <time>2022-07-26T09:18:10Z</time>
      </trkpt>
      <trkpt lat="45.65609" lon="6.66798">
        <ele>2592</ele>
        <time>2022-07-26T09:18:11Z</time>
      </trkpt>
      <trkpt lat="45.65608" lon="6.66797">
        <ele>2593</ele>
        <time>2022-07-26T09:18:12Z</time>
      </trkpt>
      <trkpt lat="45.65607" lon="6.66796">
        <ele>2593</ele>
        <time>2022-07-26T09:18:13Z</time>
      </trkpt>
      <trkpt lat="45.65607" lon="6.66796">
        <ele>2593</ele>
        <time>2022-07-26T09:18:14Z</time>
      </trkpt>
      <trkpt lat="45.65606" lon="6.66795">
        <ele>2593</ele>
        <time>2022-07-26T09:18:15Z</time>
      </trkpt>
      <trkpt lat="45.65606" lon="6.66794">
        <ele>2593</ele>
        <time>2022-07-26T09:18:16Z</time>
      </trkpt>
      <trkpt lat="45.65605" lon="6.66794">
        <ele>2594</ele>
        <time>2022-07-26T09:18:17Z</time>
      </trkpt>
      <trkpt lat="45.65604" lon="6.66793">
        <ele>2594</ele>
        <time>2022-07-26T09:18:18Z</time>
      </trkpt>
      <trkpt lat="45.65604" lon="6.66793">
        <ele>2594</ele>
        <time>2022-07-26T09:18:19Z</time>
      </trkpt>
      <trkpt lat="45.65603" lon="6.66792">
        <ele>2594</ele>
        <time>2022-07-26T09:18:20Z</time>
      </trkpt>
      <trkpt lat="45.65603" lon="6.6679">
        <ele>2596</ele>
        <time>2022-07-26T09:18:32Z</time>
      </trkpt>
      <trkpt lat="45.65602" lon="6.66788">
        <ele>2596</ele>
        <time>2022-07-26T09:18:33Z</time>
      </trkpt>
      <trkpt lat="45.65601" lon="6.66787">
        <ele>2596</ele>
        <time>2022-07-26T09:18:34Z</time>
      </trkpt>
      <trkpt lat="45.65601" lon="6.66786">
        <ele>2596</ele>
        <time>2022-07-26T09:18:35Z</time>
      </trkpt>
      <trkpt lat="45.656" lon="6.66785">
        <ele>2596</ele>
        <time>2022-07-26T09:18:36Z</time>
      </trkpt>
      <trkpt lat="45.65599" lon="6.66785">
        <ele>2597</ele>
        <time>2022-07-26T09:18:37Z</time>
      </trkpt>
      <trkpt lat="45.65599" lon="6.66784">
        <ele>2597</ele>
        <time>2022-07-26T09:18:38Z</time>
      </trkpt>
      <trkpt lat="45.65597" lon="6.66783">
        <ele>2599</ele>
        <time>2022-07-26T09:18:56Z</time>
      </trkpt>
      <trkpt lat="45.65597" lon="6.66783">
        <ele>2600</ele>
        <time>2022-07-26T09:18:57Z</time>
      </trkpt>
      <trkpt lat="45.65596" lon="6.66782">
        <ele>2600</ele>
        <time>2022-07-26T09:18:58Z</time>
      </trkpt>
      <trkpt lat="45.65595" lon="6.66782">
        <ele>2600</ele>
        <time>2022-07-26T09:18:59Z</time>
      </trkpt>
      <trkpt lat="45.65595" lon="6.66781">
        <ele>2600</ele>
        <time>2022-07-26T09:19:00Z</time>
      </trkpt>
      <trkpt lat="45.65594" lon="6.66781">
        <ele>2600</ele>
        <time>2022-07-26T09:19:01Z</time>
      </trkpt>
      <trkpt lat="45.65593" lon="6.6678">
        <ele>2600</ele>
        <time>2022-07-26T09:19:02Z</time>
      </trkpt>
      <trkpt lat="45.65593" lon="6.6678">
        <ele>2600</ele>
        <time>2022-07-26T09:19:03Z</time>
      </trkpt>
      <trkpt lat="45.65592" lon="6.66779">
        <ele>2600</ele>
        <time>2022-07-26T09:19:04Z</time>
      </trkpt>
      <trkpt lat="45.65591" lon="6.66778">
        <ele>2602</ele>
        <time>2022-07-26T09:19:14Z</time>
      </trkpt>
      <trkpt lat="45.6559" lon="6.66778">
        <ele>2602</ele>
        <time>2022-07-26T09:19:15Z</time>
      </trkpt>
      <trkpt lat="45.65589" lon="6.66777">
        <ele>2602</ele>
        <time>2022-07-26T09:19:16Z</time>
      </trkpt>
      <trkpt lat="45.65588" lon="6.66777">
        <ele>2602</ele>
        <time>2022-07-26T09:19:17Z</time>
      </trkpt>
      <trkpt lat="45.65588" lon="6.66776">
        <ele>2602</ele>
        <time>2022-07-26T09:19:18Z</time>
      </trkpt>
      <trkpt lat="45.65586" lon="6.66776">
        <ele>2604</ele>
        <time>2022-07-26T09:19:36Z</time>
      </trkpt>
      <trkpt lat="45.65586" lon="6.66776">
        <ele>2604</ele>
        <time>2022-07-26T09:19:37Z</time>
      </trkpt>
      <trkpt lat="45.65585" lon="6.66776">
        <ele>2604</ele>
        <time>2022-07-26T09:19:38Z</time>
      </trkpt>
      <trkpt lat="45.65583" lon="6.66772">
        <ele>2607</ele>
        <time>2022-07-26T09:20:56Z</time>
      </trkpt>
      <trkpt lat="45.65582" lon="6.6677">
        <ele>2607</ele>
        <time>2022-07-26T09:20:57Z</time>
      </trkpt>
      <trkpt lat="45.65581" lon="6.66769">
        <ele>2607</ele>
        <time>2022-07-26T09:20:58Z</time>
      </trkpt>
      <trkpt lat="45.6558" lon="6.66768">
        <ele>2607</ele>
        <time>2022-07-26T09:20:59Z</time>
      </trkpt>
      <trkpt lat="45.6558" lon="6.66767">
        <ele>2607</ele>
        <time>2022-07-26T09:21:00Z</time>
      </trkpt>
      <trkpt lat="45.65579" lon="6.66766">
        <ele>2607</ele>
        <time>2022-07-26T09:21:01Z</time>
      </trkpt>
      <trkpt lat="45.65579" lon="6.66765">
        <ele>2608</ele>
        <time>2022-07-26T09:21:02Z</time>
      </trkpt>
      <trkpt lat="45.65578" lon="6.66764">
        <ele>2608</ele>
        <time>2022-07-26T09:21:03Z</time>
      </trkpt>
      <trkpt lat="45.65577" lon="6.66763">
        <ele>2608</ele>
        <time>2022-07-26T09:21:04Z</time>
      </trkpt>
      <trkpt lat="45.65577" lon="6.66763">
        <ele>2608</ele>
        <time>2022-07-26T09:21:05Z</time>
      </trkpt>
      <trkpt lat="45.65577" lon="6.66763">
        <ele>2608</ele>
        <time>2022-07-26T09:21:06Z</time>
      </trkpt>
      <trkpt lat="45.65577" lon="6.66763">
        <ele>2608</ele>
        <time>2022-07-26T09:21:07Z</time>
      </trkpt>
      <trkpt lat="45.65577" lon="6.66762">
        <ele>2608</ele>
        <time>2022-07-26T09:21:08Z</time>
      </trkpt>
      <trkpt lat="45.65577" lon="6.66762">
        <ele>2608</ele>
        <time>2022-07-26T09:21:09Z</time>
      </trkpt>
      <trkpt lat="45.65576" lon="6.66762">
        <ele>2608</ele>
        <time>2022-07-26T09:21:10Z</time>
      </trkpt>
      <trkpt lat="45.65576" lon="6.66761">
        <ele>2608</ele>
        <time>2022-07-26T09:21:11Z</time>
      </trkpt>
      <trkpt lat="45.65575" lon="6.6676">
        <ele>2609</ele>
        <time>2022-07-26T09:21:12Z</time>
      </trkpt>
      <trkpt lat="45.65575" lon="6.66759">
        <ele>2609</ele>
        <time>2022-07-26T09:21:13Z</time>
      </trkpt>
      <trkpt lat="45.65573" lon="6.66757">
        <ele>2609</ele>
        <time>2022-07-26T09:21:23Z</time>
      </trkpt>
      <trkpt lat="45.65572" lon="6.66756">
        <ele>2609</ele>
        <time>2022-07-26T09:21:24Z</time>
      </trkpt>
      <trkpt lat="45.65571" lon="6.66756">
        <ele>2609</ele>
        <time>2022-07-26T09:21:25Z</time>
      </trkpt>
      <trkpt lat="45.65571" lon="6.66755">
        <ele>2609</ele>
        <time>2022-07-26T09:21:26Z</time>
      </trkpt>
      <trkpt lat="45.6557" lon="6.66754">
        <ele>2610</ele>
        <time>2022-07-26T09:21:27Z</time>
      </trkpt>
      <trkpt lat="45.6557" lon="6.66754">
        <ele>2610</ele>
        <time>2022-07-26T09:21:28Z</time>
      </trkpt>
      <trkpt lat="45.65569" lon="6.66753">
        <ele>2610</ele>
        <time>2022-07-26T09:21:29Z</time>
      </trkpt>
      <trkpt lat="45.65569" lon="6.66753">
        <ele>2610</ele>
        <time>2022-07-26T09:21:30Z</time>
      </trkpt>
      <trkpt lat="45.65569" lon="6.66752">
        <ele>2610</ele>
        <time>2022-07-26T09:21:31Z</time>
      </trkpt>
      <trkpt lat="45.65569" lon="6.66752">
        <ele>2610</ele>
        <time>2022-07-26T09:21:32Z</time>
      </trkpt>
      <trkpt lat="45.65568" lon="6.66752">
        <ele>2610</ele>
        <time>2022-07-26T09:21:33Z</time>
      </trkpt>
      <trkpt lat="45.65568" lon="6.66751">
        <ele>2610</ele>
        <time>2022-07-26T09:21:34Z</time>
      </trkpt>
      <trkpt lat="45.65568" lon="6.6675">
        <ele>2610</ele>
        <time>2022-07-26T09:21:35Z</time>
      </trkpt>
      <trkpt lat="45.65567" lon="6.6675">
        <ele>2610</ele>
        <time>2022-07-26T09:21:36Z</time>
      </trkpt>
      <trkpt lat="45.65567" lon="6.66749">
        <ele>2611</ele>
        <time>2022-07-26T09:21:37Z</time>
      </trkpt>
      <trkpt lat="45.65566" lon="6.66749">
        <ele>2611</ele>
        <time>2022-07-26T09:21:38Z</time>
      </trkpt>
      <trkpt lat="45.65566" lon="6.66749">
        <ele>2611</ele>
        <time>2022-07-26T09:21:39Z</time>
      </trkpt>
      <trkpt lat="45.65566" lon="6.6675">
        <ele>2611</ele>
        <time>2022-07-26T09:21:40Z</time>
      </trkpt>
      <trkpt lat="45.65566" lon="6.6675">
        <ele>2611</ele>
        <time>2022-07-26T09:21:41Z</time>
      </trkpt>
      <trkpt lat="45.65566" lon="6.6675">
        <ele>2611</ele>
        <time>2022-07-26T09:21:42Z</time>
      </trkpt>
      <trkpt lat="45.65565" lon="6.6675">
        <ele>2611</ele>
        <time>2022-07-26T09:21:43Z</time>
      </trkpt>
      <trkpt lat="45.65565" lon="6.6675">
        <ele>2611</ele>
        <time>2022-07-26T09:21:44Z</time>
      </trkpt>
      <trkpt lat="45.65564" lon="6.6675">
        <ele>2612</ele>
        <time>2022-07-26T09:21:45Z</time>
      </trkpt>
      <trkpt lat="45.65564" lon="6.6675">
        <ele>2612</ele>
        <time>2022-07-26T09:21:46Z</time>
      </trkpt>
      <trkpt lat="45.65563" lon="6.6675">
        <ele>2613</ele>
        <time>2022-07-26T09:21:47Z</time>
      </trkpt>
      <trkpt lat="45.65562" lon="6.6675">
        <ele>2613</ele>
        <time>2022-07-26T09:21:48Z</time>
      </trkpt>
      <trkpt lat="45.65561" lon="6.66749">
        <ele>2613</ele>
        <time>2022-07-26T09:21:49Z</time>
      </trkpt>
      <trkpt lat="45.65561" lon="6.66749">
        <ele>2613</ele>
        <time>2022-07-26T09:21:50Z</time>
      </trkpt>
      <trkpt lat="45.6556" lon="6.66749">
        <ele>2613</ele>
        <time>2022-07-26T09:21:51Z</time>
      </trkpt>
      <trkpt lat="45.6556" lon="6.66749">
        <ele>2614</ele>
        <time>2022-07-26T09:21:52Z</time>
      </trkpt>
      <trkpt lat="45.65559" lon="6.66747">
        <ele>2616</ele>
        <time>2022-07-26T09:22:08Z</time>
      </trkpt>
      <trkpt lat="45.65558" lon="6.66746">
        <ele>2616</ele>
        <time>2022-07-26T09:22:09Z</time>
      </trkpt>
      <trkpt lat="45.65558" lon="6.66745">
        <ele>2616</ele>
        <time>2022-07-26T09:22:10Z</time>
      </trkpt>
      <trkpt lat="45.65555" lon="6.66742">
        <ele>2619</ele>
        <time>2022-07-26T09:22:39Z</time>
      </trkpt>
      <trkpt lat="45.65553" lon="6.6674">
        <ele>2619</ele>
        <time>2022-07-26T09:22:40Z</time>
      </trkpt>
      <trkpt lat="45.65552" lon="6.66738">
        <ele>2619</ele>
        <time>2022-07-26T09:22:41Z</time>
      </trkpt>
      <trkpt lat="45.65551" lon="6.66737">
        <ele>2620</ele>
        <time>2022-07-26T09:22:42Z</time>
      </trkpt>
      <trkpt lat="45.65551" lon="6.66736">
        <ele>2620</ele>
        <time>2022-07-26T09:22:43Z</time>
      </trkpt>
      <trkpt lat="45.65551" lon="6.66736">
        <ele>2620</ele>
        <time>2022-07-26T09:22:44Z</time>
      </trkpt>
      <trkpt lat="45.65551" lon="6.66735">
        <ele>2620</ele>
        <time>2022-07-26T09:22:45Z</time>
      </trkpt>
      <trkpt lat="45.65551" lon="6.66735">
        <ele>2620</ele>
        <time>2022-07-26T09:22:46Z</time>
      </trkpt>
      <trkpt lat="45.65551" lon="6.66734">
        <ele>2621</ele>
        <time>2022-07-26T09:22:47Z</time>
      </trkpt>
      <trkpt lat="45.65552" lon="6.66731">
        <ele>2622</ele>
        <time>2022-07-26T09:23:01Z</time>
      </trkpt>
      <trkpt lat="45.65552" lon="6.66729">
        <ele>2623</ele>
        <time>2022-07-26T09:23:02Z</time>
      </trkpt>
      <trkpt lat="45.65552" lon="6.66728">
        <ele>2623</ele>
        <time>2022-07-26T09:23:03Z</time>
      </trkpt>
      <trkpt lat="45.65551" lon="6.66725">
        <ele>2627</ele>
        <time>2022-07-26T09:25:22Z</time>
      </trkpt>
      <trkpt lat="45.6555" lon="6.66724">
        <ele>2627</ele>
        <time>2022-07-26T09:25:23Z</time>
      </trkpt>
      <trkpt lat="45.65549" lon="6.66723">
        <ele>2627</ele>
        <time>2022-07-26T09:25:24Z</time>
      </trkpt>
      <trkpt lat="45.65549" lon="6.66723">
        <ele>2627</ele>
        <time>2022-07-26T09:25:25Z</time>
      </trkpt>
      <trkpt lat="45.65548" lon="6.66722">
        <ele>2627</ele>
        <time>2022-07-26T09:25:26Z</time>
      </trkpt>
      <trkpt lat="45.65547" lon="6.66721">
        <ele>2627</ele>
        <time>2022-07-26T09:25:27Z</time>
      </trkpt>
      <trkpt lat="45.65547" lon="6.6672">
        <ele>2627</ele>
        <time>2022-07-26T09:25:28Z</time>
      </trkpt>
      <trkpt lat="45.65545" lon="6.66717">
        <ele>2627</ele>
        <time>2022-07-26T09:25:41Z</time>
      </trkpt>
      <trkpt lat="45.65544" lon="6.66716">
        <ele>2627</ele>
        <time>2022-07-26T09:25:42Z</time>
      </trkpt>
      <trkpt lat="45.65544" lon="6.66714">
        <ele>2627</ele>
        <time>2022-07-26T09:25:43Z</time>
      </trkpt>
      <trkpt lat="45.65543" lon="6.66714">
        <ele>2627</ele>
        <time>2022-07-26T09:25:44Z</time>
      </trkpt>
      <trkpt lat="45.65543" lon="6.66713">
        <ele>2627</ele>
        <time>2022-07-26T09:25:45Z</time>
      </trkpt>
      <trkpt lat="45.65542" lon="6.66713">
        <ele>2627</ele>
        <time>2022-07-26T09:25:46Z</time>
      </trkpt>
      <trkpt lat="45.65541" lon="6.66713">
        <ele>2627</ele>
        <time>2022-07-26T09:25:47Z</time>
      </trkpt>
      <trkpt lat="45.6554" lon="6.66713">
        <ele>2627</ele>
        <time>2022-07-26T09:25:48Z</time>
      </trkpt>
      <trkpt lat="45.65539" lon="6.66713">
        <ele>2627</ele>
        <time>2022-07-26T09:25:49Z</time>
      </trkpt>
      <trkpt lat="45.65539" lon="6.66713">
        <ele>2627</ele>
        <time>2022-07-26T09:25:50Z</time>
      </trkpt>
      <trkpt lat="45.65538" lon="6.66713">
        <ele>2627</ele>
        <time>2022-07-26T09:25:51Z</time>
      </trkpt>
      <trkpt lat="45.65537" lon="6.66713">
        <ele>2628</ele>
        <time>2022-07-26T09:25:52Z</time>
      </trkpt>
      <trkpt lat="45.65536" lon="6.66713">
        <ele>2628</ele>
        <time>2022-07-26T09:25:53Z</time>
      </trkpt>
      <trkpt lat="45.65535" lon="6.66712">
        <ele>2628</ele>
        <time>2022-07-26T09:25:54Z</time>
      </trkpt>
      <trkpt lat="45.65534" lon="6.66712">
        <ele>2628</ele>
        <time>2022-07-26T09:25:55Z</time>
      </trkpt>
      <trkpt lat="45.65534" lon="6.66712">
        <ele>2628</ele>
        <time>2022-07-26T09:25:56Z</time>
      </trkpt>
      <trkpt lat="45.65533" lon="6.66711">
        <ele>2628</ele>
        <time>2022-07-26T09:25:57Z</time>
      </trkpt>
      <trkpt lat="45.65532" lon="6.66711">
        <ele>2628</ele>
        <time>2022-07-26T09:25:58Z</time>
      </trkpt>
      <trkpt lat="45.65532" lon="6.66711">
        <ele>2628</ele>
        <time>2022-07-26T09:25:59Z</time>
      </trkpt>
      <trkpt lat="45.65531" lon="6.6671">
        <ele>2628</ele>
        <time>2022-07-26T09:26:00Z</time>
      </trkpt>
      <trkpt lat="45.6553" lon="6.6671">
        <ele>2628</ele>
        <time>2022-07-26T09:26:01Z</time>
      </trkpt>
      <trkpt lat="45.6553" lon="6.66709">
        <ele>2628</ele>
        <time>2022-07-26T09:26:02Z</time>
      </trkpt>
      <trkpt lat="45.65529" lon="6.66709">
        <ele>2628</ele>
        <time>2022-07-26T09:26:03Z</time>
      </trkpt>
      <trkpt lat="45.65529" lon="6.66709">
        <ele>2628</ele>
        <time>2022-07-26T09:26:04Z</time>
      </trkpt>
      <trkpt lat="45.65528" lon="6.66708">
        <ele>2628</ele>
        <time>2022-07-26T09:26:05Z</time>
      </trkpt>
      <trkpt lat="45.65527" lon="6.66708">
        <ele>2628</ele>
        <time>2022-07-26T09:26:06Z</time>
      </trkpt>
      <trkpt lat="45.65527" lon="6.66708">
        <ele>2629</ele>
        <time>2022-07-26T09:26:07Z</time>
      </trkpt>
      <trkpt lat="45.65526" lon="6.66708">
        <ele>2629</ele>
        <time>2022-07-26T09:26:08Z</time>
      </trkpt>
      <trkpt lat="45.65525" lon="6.66708">
        <ele>2629</ele>
        <time>2022-07-26T09:26:09Z</time>
      </trkpt>
      <trkpt lat="45.65525" lon="6.66708">
        <ele>2629</ele>
        <time>2022-07-26T09:26:10Z</time>
      </trkpt>
      <trkpt lat="45.65524" lon="6.66708">
        <ele>2629</ele>
        <time>2022-07-26T09:26:11Z</time>
      </trkpt>
      <trkpt lat="45.65524" lon="6.66708">
        <ele>2629</ele>
        <time>2022-07-26T09:26:12Z</time>
      </trkpt>
      <trkpt lat="45.65523" lon="6.66708">
        <ele>2629</ele>
        <time>2022-07-26T09:26:13Z</time>
      </trkpt>
      <trkpt lat="45.65523" lon="6.66708">
        <ele>2629</ele>
        <time>2022-07-26T09:26:14Z</time>
      </trkpt>
      <trkpt lat="45.65522" lon="6.66707">
        <ele>2629</ele>
        <time>2022-07-26T09:26:15Z</time>
      </trkpt>
      <trkpt lat="45.65522" lon="6.66707">
        <ele>2629</ele>
        <time>2022-07-26T09:26:16Z</time>
      </trkpt>
      <trkpt lat="45.65521" lon="6.66707">
        <ele>2630</ele>
        <time>2022-07-26T09:26:17Z</time>
      </trkpt>
      <trkpt lat="45.6552" lon="6.66706">
        <ele>2630</ele>
        <time>2022-07-26T09:26:18Z</time>
      </trkpt>
      <trkpt lat="45.6552" lon="6.66706">
        <ele>2630</ele>
        <time>2022-07-26T09:26:19Z</time>
      </trkpt>
      <trkpt lat="45.65519" lon="6.66706">
        <ele>2630</ele>
        <time>2022-07-26T09:26:20Z</time>
      </trkpt>
      <trkpt lat="45.65518" lon="6.66705">
        <ele>2630</ele>
        <time>2022-07-26T09:26:21Z</time>
      </trkpt>
      <trkpt lat="45.65518" lon="6.66705">
        <ele>2631</ele>
        <time>2022-07-26T09:26:22Z</time>
      </trkpt>
      <trkpt lat="45.65518" lon="6.66705">
        <ele>2631</ele>
        <time>2022-07-26T09:26:23Z</time>
      </trkpt>
      <trkpt lat="45.65517" lon="6.66704">
        <ele>2631</ele>
        <time>2022-07-26T09:26:24Z</time>
      </trkpt>
      <trkpt lat="45.65517" lon="6.66704">
        <ele>2631</ele>
        <time>2022-07-26T09:26:25Z</time>
      </trkpt>
      <trkpt lat="45.65516" lon="6.66704">
        <ele>2631</ele>
        <time>2022-07-26T09:26:26Z</time>
      </trkpt>
      <trkpt lat="45.65516" lon="6.66703">
        <ele>2631</ele>
        <time>2022-07-26T09:26:27Z</time>
      </trkpt>
      <trkpt lat="45.65516" lon="6.66703">
        <ele>2631</ele>
        <time>2022-07-26T09:26:28Z</time>
      </trkpt>
      <trkpt lat="45.65515" lon="6.66702">
        <ele>2631</ele>
        <time>2022-07-26T09:26:29Z</time>
      </trkpt>
      <trkpt lat="45.65515" lon="6.66702">
        <ele>2631</ele>
        <time>2022-07-26T09:26:30Z</time>
      </trkpt>
      <trkpt lat="45.65514" lon="6.66702">
        <ele>2631</ele>
        <time>2022-07-26T09:26:31Z</time>
      </trkpt>
      <trkpt lat="45.65514" lon="6.66702">
        <ele>2632</ele>
        <time>2022-07-26T09:26:32Z</time>
      </trkpt>
      <trkpt lat="45.65511" lon="6.66699">
        <ele>2637</ele>
        <time>2022-07-26T09:27:11Z</time>
      </trkpt>
      <trkpt lat="45.6551" lon="6.66697">
        <ele>2638</ele>
        <time>2022-07-26T09:27:12Z</time>
      </trkpt>
      <trkpt lat="45.65508" lon="6.66695">
        <ele>2638</ele>
        <time>2022-07-26T09:27:13Z</time>
      </trkpt>
      <trkpt lat="45.65507" lon="6.66694">
        <ele>2638</ele>
        <time>2022-07-26T09:27:14Z</time>
      </trkpt>
      <trkpt lat="45.65506" lon="6.66694">
        <ele>2638</ele>
        <time>2022-07-26T09:27:15Z</time>
      </trkpt>
      <trkpt lat="45.65505" lon="6.66693">
        <ele>2638</ele>
        <time>2022-07-26T09:27:16Z</time>
      </trkpt>
      <trkpt lat="45.65505" lon="6.66693">
        <ele>2638</ele>
        <time>2022-07-26T09:27:17Z</time>
      </trkpt>
      <trkpt lat="45.65504" lon="6.66692">
        <ele>2638</ele>
        <time>2022-07-26T09:27:18Z</time>
      </trkpt>
      <trkpt lat="45.65504" lon="6.66692">
        <ele>2638</ele>
        <time>2022-07-26T09:27:19Z</time>
      </trkpt>
      <trkpt lat="45.65504" lon="6.66692">
        <ele>2638</ele>
        <time>2022-07-26T09:27:20Z</time>
      </trkpt>
      <trkpt lat="45.65504" lon="6.66692">
        <ele>2638</ele>
        <time>2022-07-26T09:27:21Z</time>
      </trkpt>
      <trkpt lat="45.65504" lon="6.66692">
        <ele>2638</ele>
        <time>2022-07-26T09:27:22Z</time>
      </trkpt>
      <trkpt lat="45.65503" lon="6.66691">
        <ele>2638</ele>
        <time>2022-07-26T09:27:23Z</time>
      </trkpt>
      <trkpt lat="45.65503" lon="6.6669">
        <ele>2638</ele>
        <time>2022-07-26T09:27:24Z</time>
      </trkpt>
      <trkpt lat="45.65502" lon="6.6669">
        <ele>2639</ele>
        <time>2022-07-26T09:27:25Z</time>
      </trkpt>
      <trkpt lat="45.65502" lon="6.66689">
        <ele>2639</ele>
        <time>2022-07-26T09:27:26Z</time>
      </trkpt>
      <trkpt lat="45.65501" lon="6.66689">
        <ele>2640</ele>
        <time>2022-07-26T09:27:27Z</time>
      </trkpt>
      <trkpt lat="45.655" lon="6.66688">
        <ele>2640</ele>
        <time>2022-07-26T09:27:28Z</time>
      </trkpt>
      <trkpt lat="45.655" lon="6.66688">
        <ele>2640</ele>
        <time>2022-07-26T09:27:29Z</time>
      </trkpt>
      <trkpt lat="45.65499" lon="6.66687">
        <ele>2640</ele>
        <time>2022-07-26T09:27:30Z</time>
      </trkpt>
      <trkpt lat="45.65499" lon="6.66687">
        <ele>2640</ele>
        <time>2022-07-26T09:27:31Z</time>
      </trkpt>
      <trkpt lat="45.65498" lon="6.66687">
        <ele>2641</ele>
        <time>2022-07-26T09:27:32Z</time>
      </trkpt>
      <trkpt lat="45.65497" lon="6.66687">
        <ele>2641</ele>
        <time>2022-07-26T09:27:33Z</time>
      </trkpt>
      <trkpt lat="45.65497" lon="6.66687">
        <ele>2641</ele>
        <time>2022-07-26T09:27:34Z</time>
      </trkpt>
      <trkpt lat="45.65496" lon="6.66687">
        <ele>2641</ele>
        <time>2022-07-26T09:27:35Z</time>
      </trkpt>
      <trkpt lat="45.65496" lon="6.66687">
        <ele>2641</ele>
        <time>2022-07-26T09:27:36Z</time>
      </trkpt>
      <trkpt lat="45.65494" lon="6.66686">
        <ele>2644</ele>
        <time>2022-07-26T09:28:15Z</time>
      </trkpt>
      <trkpt lat="45.65494" lon="6.66686">
        <ele>2644</ele>
        <time>2022-07-26T09:28:16Z</time>
      </trkpt>
      <trkpt lat="45.65493" lon="6.66686">
        <ele>2644</ele>
        <time>2022-07-26T09:28:17Z</time>
      </trkpt>
      <trkpt lat="45.65492" lon="6.66686">
        <ele>2644</ele>
        <time>2022-07-26T09:28:18Z</time>
      </trkpt>
      <trkpt lat="45.65492" lon="6.66686">
        <ele>2644</ele>
        <time>2022-07-26T09:28:19Z</time>
      </trkpt>
      <trkpt lat="45.6549" lon="6.6669">
        <ele>2644</ele>
        <time>2022-07-26T09:28:42Z</time>
      </trkpt>
      <trkpt lat="45.65489" lon="6.66693">
        <ele>2643</ele>
        <time>2022-07-26T09:28:43Z</time>
      </trkpt>
      <trkpt lat="45.65488" lon="6.66696">
        <ele>2643</ele>
        <time>2022-07-26T09:28:44Z</time>
      </trkpt>
      <trkpt lat="45.65487" lon="6.66697">
        <ele>2643</ele>
        <time>2022-07-26T09:28:45Z</time>
      </trkpt>
      <trkpt lat="45.65487" lon="6.66699">
        <ele>2643</ele>
        <time>2022-07-26T09:28:46Z</time>
      </trkpt>
      <trkpt lat="45.65486" lon="6.667">
        <ele>2643</ele>
        <time>2022-07-26T09:28:47Z</time>
      </trkpt>
      <trkpt lat="45.65486" lon="6.66701">
        <ele>2643</ele>
        <time>2022-07-26T09:28:48Z</time>
      </trkpt>
      <trkpt lat="45.65485" lon="6.66702">
        <ele>2643</ele>
        <time>2022-07-26T09:28:49Z</time>
      </trkpt>
      <trkpt lat="45.65485" lon="6.66702">
        <ele>2643</ele>
        <time>2022-07-26T09:28:50Z</time>
      </trkpt>
      <trkpt lat="45.65484" lon="6.66703">
        <ele>2643</ele>
        <time>2022-07-26T09:28:51Z</time>
      </trkpt>
      <trkpt lat="45.65483" lon="6.66703">
        <ele>2643</ele>
        <time>2022-07-26T09:28:52Z</time>
      </trkpt>
      <trkpt lat="45.65483" lon="6.66703">
        <ele>2643</ele>
        <time>2022-07-26T09:28:53Z</time>
      </trkpt>
      <trkpt lat="45.65482" lon="6.66703">
        <ele>2643</ele>
        <time>2022-07-26T09:28:54Z</time>
      </trkpt>
      <trkpt lat="45.65482" lon="6.66703">
        <ele>2643</ele>
        <time>2022-07-26T09:28:55Z</time>
      </trkpt>
      <trkpt lat="45.65482" lon="6.66704">
        <ele>2643</ele>
        <time>2022-07-26T09:28:56Z</time>
      </trkpt>
      <trkpt lat="45.65481" lon="6.66704">
        <ele>2643</ele>
        <time>2022-07-26T09:28:57Z</time>
      </trkpt>
      <trkpt lat="45.65481" lon="6.66704">
        <ele>2643</ele>
        <time>2022-07-26T09:28:58Z</time>
      </trkpt>
      <trkpt lat="45.6548" lon="6.66704">
        <ele>2643</ele>
        <time>2022-07-26T09:28:59Z</time>
      </trkpt>
      <trkpt lat="45.6548" lon="6.66705">
        <ele>2643</ele>
        <time>2022-07-26T09:29:00Z</time>
      </trkpt>
      <trkpt lat="45.65479" lon="6.66705">
        <ele>2643</ele>
        <time>2022-07-26T09:29:01Z</time>
      </trkpt>
      <trkpt lat="45.65479" lon="6.66705">
        <ele>2643</ele>
        <time>2022-07-26T09:29:02Z</time>
      </trkpt>
      <trkpt lat="45.65478" lon="6.66706">
        <ele>2643</ele>
        <time>2022-07-26T09:29:03Z</time>
      </trkpt>
      <trkpt lat="45.65478" lon="6.66706">
        <ele>2643</ele>
        <time>2022-07-26T09:29:04Z</time>
      </trkpt>
      <trkpt lat="45.65477" lon="6.66707">
        <ele>2643</ele>
        <time>2022-07-26T09:29:05Z</time>
      </trkpt>
      <trkpt lat="45.65476" lon="6.66707">
        <ele>2643</ele>
        <time>2022-07-26T09:29:06Z</time>
      </trkpt>
      <trkpt lat="45.65476" lon="6.66708">
        <ele>2643</ele>
        <time>2022-07-26T09:29:07Z</time>
      </trkpt>
      <trkpt lat="45.65475" lon="6.66709">
        <ele>2643</ele>
        <time>2022-07-26T09:29:08Z</time>
      </trkpt>
      <trkpt lat="45.65474" lon="6.66709">
        <ele>2643</ele>
        <time>2022-07-26T09:29:09Z</time>
      </trkpt>
      <trkpt lat="45.65474" lon="6.6671">
        <ele>2643</ele>
        <time>2022-07-26T09:29:10Z</time>
      </trkpt>
      <trkpt lat="45.65473" lon="6.66711">
        <ele>2643</ele>
        <time>2022-07-26T09:29:11Z</time>
      </trkpt>
      <trkpt lat="45.65473" lon="6.66711">
        <ele>2643</ele>
        <time>2022-07-26T09:29:12Z</time>
      </trkpt>
      <trkpt lat="45.65473" lon="6.66712">
        <ele>2643</ele>
        <time>2022-07-26T09:29:13Z</time>
      </trkpt>
      <trkpt lat="45.65472" lon="6.66712">
        <ele>2643</ele>
        <time>2022-07-26T09:29:14Z</time>
      </trkpt>
      <trkpt lat="45.65471" lon="6.66713">
        <ele>2643</ele>
        <time>2022-07-26T09:29:15Z</time>
      </trkpt>
      <trkpt lat="45.6547" lon="6.66713">
        <ele>2645</ele>
        <time>2022-07-26T09:29:27Z</time>
      </trkpt>
      <trkpt lat="45.65469" lon="6.66713">
        <ele>2645</ele>
        <time>2022-07-26T09:29:28Z</time>
      </trkpt>
      <trkpt lat="45.65468" lon="6.66713">
        <ele>2645</ele>
        <time>2022-07-26T09:29:29Z</time>
      </trkpt>
      <trkpt lat="45.65468" lon="6.66713">
        <ele>2645</ele>
        <time>2022-07-26T09:29:30Z</time>
      </trkpt>
      <trkpt lat="45.65467" lon="6.66714">
        <ele>2645</ele>
        <time>2022-07-26T09:29:31Z</time>
      </trkpt>
      <trkpt lat="45.65467" lon="6.66714">
        <ele>2646</ele>
        <time>2022-07-26T09:29:32Z</time>
      </trkpt>
      <trkpt lat="45.65467" lon="6.66714">
        <ele>2646</ele>
        <time>2022-07-26T09:29:33Z</time>
      </trkpt>
      <trkpt lat="45.65466" lon="6.66714">
        <ele>2646</ele>
        <time>2022-07-26T09:29:34Z</time>
      </trkpt>
      <trkpt lat="45.65466" lon="6.66714">
        <ele>2646</ele>
        <time>2022-07-26T09:29:35Z</time>
      </trkpt>
      <trkpt lat="45.65466" lon="6.66713">
        <ele>2646</ele>
        <time>2022-07-26T09:29:36Z</time>
      </trkpt>
      <trkpt lat="45.65465" lon="6.66713">
        <ele>2647</ele>
        <time>2022-07-26T09:29:37Z</time>
      </trkpt>
      <trkpt lat="45.65464" lon="6.66711">
        <ele>2649</ele>
        <time>2022-07-26T09:30:12Z</time>
      </trkpt>
      <trkpt lat="45.65463" lon="6.6671">
        <ele>2649</ele>
        <time>2022-07-26T09:30:13Z</time>
      </trkpt>
      <trkpt lat="45.65462" lon="6.66709">
        <ele>2649</ele>
        <time>2022-07-26T09:30:14Z</time>
      </trkpt>
      <trkpt lat="45.65462" lon="6.66708">
        <ele>2649</ele>
        <time>2022-07-26T09:30:15Z</time>
      </trkpt>
      <trkpt lat="45.65461" lon="6.66708">
        <ele>2649</ele>
        <time>2022-07-26T09:30:16Z</time>
      </trkpt>
      <trkpt lat="45.6546" lon="6.66707">
        <ele>2650</ele>
        <time>2022-07-26T09:30:17Z</time>
      </trkpt>
      <trkpt lat="45.6546" lon="6.66706">
        <ele>2650</ele>
        <time>2022-07-26T09:30:18Z</time>
      </trkpt>
      <trkpt lat="45.6546" lon="6.66705">
        <ele>2650</ele>
        <time>2022-07-26T09:30:19Z</time>
      </trkpt>
      <trkpt lat="45.65459" lon="6.66704">
        <ele>2650</ele>
        <time>2022-07-26T09:30:20Z</time>
      </trkpt>
      <trkpt lat="45.65459" lon="6.66704">
        <ele>2650</ele>
        <time>2022-07-26T09:30:21Z</time>
      </trkpt>
      <trkpt lat="45.65459" lon="6.66704">
        <ele>2650</ele>
        <time>2022-07-26T09:30:22Z</time>
      </trkpt>
      <trkpt lat="45.65459" lon="6.66704">
        <ele>2650</ele>
        <time>2022-07-26T09:30:23Z</time>
      </trkpt>
      <trkpt lat="45.65459" lon="6.66703">
        <ele>2650</ele>
        <time>2022-07-26T09:30:24Z</time>
      </trkpt>
      <trkpt lat="45.65458" lon="6.66703">
        <ele>2650</ele>
        <time>2022-07-26T09:30:25Z</time>
      </trkpt>
      <trkpt lat="45.65458" lon="6.66702">
        <ele>2650</ele>
        <time>2022-07-26T09:30:26Z</time>
      </trkpt>
      <trkpt lat="45.65457" lon="6.66702">
        <ele>2651</ele>
        <time>2022-07-26T09:30:27Z</time>
      </trkpt>
      <trkpt lat="45.65457" lon="6.66702">
        <ele>2651</ele>
        <time>2022-07-26T09:30:28Z</time>
      </trkpt>
      <trkpt lat="45.65457" lon="6.66701">
        <ele>2651</ele>
        <time>2022-07-26T09:30:29Z</time>
      </trkpt>
      <trkpt lat="45.65457" lon="6.66701">
        <ele>2651</ele>
        <time>2022-07-26T09:30:30Z</time>
      </trkpt>
      <trkpt lat="45.65456" lon="6.667">
        <ele>2651</ele>
        <time>2022-07-26T09:30:31Z</time>
      </trkpt>
      <trkpt lat="45.65455" lon="6.66699">
        <ele>2654</ele>
        <time>2022-07-26T09:30:47Z</time>
      </trkpt>
      <trkpt lat="45.65454" lon="6.66698">
        <ele>2654</ele>
        <time>2022-07-26T09:30:48Z</time>
      </trkpt>
      <trkpt lat="45.65453" lon="6.66697">
        <ele>2654</ele>
        <time>2022-07-26T09:30:49Z</time>
      </trkpt>
      <trkpt lat="45.65452" lon="6.66696">
        <ele>2654</ele>
        <time>2022-07-26T09:30:50Z</time>
      </trkpt>
      <trkpt lat="45.65452" lon="6.66695">
        <ele>2654</ele>
        <time>2022-07-26T09:30:51Z</time>
      </trkpt>
      <trkpt lat="45.65451" lon="6.66695">
        <ele>2655</ele>
        <time>2022-07-26T09:30:52Z</time>
      </trkpt>
      <trkpt lat="45.65451" lon="6.66694">
        <ele>2655</ele>
        <time>2022-07-26T09:30:53Z</time>
      </trkpt>
      <trkpt lat="45.6545" lon="6.66692">
        <ele>2657</ele>
        <time>2022-07-26T09:31:03Z</time>
      </trkpt>
      <trkpt lat="45.65449" lon="6.66692">
        <ele>2657</ele>
        <time>2022-07-26T09:31:04Z</time>
      </trkpt>
      <trkpt lat="45.65449" lon="6.66691">
        <ele>2657</ele>
        <time>2022-07-26T09:31:05Z</time>
      </trkpt>
      <trkpt lat="45.65448" lon="6.66691">
        <ele>2657</ele>
        <time>2022-07-26T09:31:06Z</time>
      </trkpt>
      <trkpt lat="45.65447" lon="6.6669">
        <ele>2657</ele>
        <time>2022-07-26T09:31:07Z</time>
      </trkpt>
      <trkpt lat="45.65447" lon="6.6669">
        <ele>2657</ele>
        <time>2022-07-26T09:31:08Z</time>
      </trkpt>
      <trkpt lat="45.65446" lon="6.6669">
        <ele>2657</ele>
        <time>2022-07-26T09:31:09Z</time>
      </trkpt>
      <trkpt lat="45.65445" lon="6.6669">
        <ele>2657</ele>
        <time>2022-07-26T09:31:10Z</time>
      </trkpt>
      <trkpt lat="45.65445" lon="6.6669">
        <ele>2657</ele>
        <time>2022-07-26T09:31:11Z</time>
      </trkpt>
      <trkpt lat="45.65444" lon="6.6669">
        <ele>2658</ele>
        <time>2022-07-26T09:31:12Z</time>
      </trkpt>
      <trkpt lat="45.65443" lon="6.66691">
        <ele>2658</ele>
        <time>2022-07-26T09:31:13Z</time>
      </trkpt>
      <trkpt lat="45.65443" lon="6.66691">
        <ele>2658</ele>
        <time>2022-07-26T09:31:14Z</time>
      </trkpt>
      <trkpt lat="45.65442" lon="6.66692">
        <ele>2658</ele>
        <time>2022-07-26T09:31:15Z</time>
      </trkpt>
      <trkpt lat="45.65441" lon="6.66693">
        <ele>2658</ele>
        <time>2022-07-26T09:31:16Z</time>
      </trkpt>
      <trkpt lat="45.6544" lon="6.66693">
        <ele>2659</ele>
        <time>2022-07-26T09:31:17Z</time>
      </trkpt>
      <trkpt lat="45.6544" lon="6.66694">
        <ele>2659</ele>
        <time>2022-07-26T09:31:18Z</time>
      </trkpt>
      <trkpt lat="45.65439" lon="6.66695">
        <ele>2659</ele>
        <time>2022-07-26T09:31:19Z</time>
      </trkpt>
      <trkpt lat="45.65438" lon="6.66695">
        <ele>2659</ele>
        <time>2022-07-26T09:31:20Z</time>
      </trkpt>
      <trkpt lat="45.65438" lon="6.66696">
        <ele>2659</ele>
        <time>2022-07-26T09:31:21Z</time>
      </trkpt>
      <trkpt lat="45.65437" lon="6.66696">
        <ele>2660</ele>
        <time>2022-07-26T09:31:22Z</time>
      </trkpt>
      <trkpt lat="45.65436" lon="6.66696">
        <ele>2660</ele>
        <time>2022-07-26T09:31:23Z</time>
      </trkpt>
      <trkpt lat="45.65436" lon="6.66696">
        <ele>2660</ele>
        <time>2022-07-26T09:31:24Z</time>
      </trkpt>
      <trkpt lat="45.65435" lon="6.66697">
        <ele>2660</ele>
        <time>2022-07-26T09:31:25Z</time>
      </trkpt>
      <trkpt lat="45.65435" lon="6.66697">
        <ele>2660</ele>
        <time>2022-07-26T09:31:26Z</time>
      </trkpt>
      <trkpt lat="45.65434" lon="6.66696">
        <ele>2661</ele>
        <time>2022-07-26T09:31:27Z</time>
      </trkpt>
      <trkpt lat="45.65433" lon="6.66697">
        <ele>2661</ele>
        <time>2022-07-26T09:31:28Z</time>
      </trkpt>
      <trkpt lat="45.65433" lon="6.66697">
        <ele>2661</ele>
        <time>2022-07-26T09:31:29Z</time>
      </trkpt>
      <trkpt lat="45.65432" lon="6.66697">
        <ele>2661</ele>
        <time>2022-07-26T09:31:30Z</time>
      </trkpt>
      <trkpt lat="45.65431" lon="6.66697">
        <ele>2661</ele>
        <time>2022-07-26T09:31:31Z</time>
      </trkpt>
      <trkpt lat="45.65431" lon="6.66697">
        <ele>2662</ele>
        <time>2022-07-26T09:31:32Z</time>
      </trkpt>
      <trkpt lat="45.6543" lon="6.66697">
        <ele>2662</ele>
        <time>2022-07-26T09:31:33Z</time>
      </trkpt>
      <trkpt lat="45.65429" lon="6.66697">
        <ele>2662</ele>
        <time>2022-07-26T09:31:34Z</time>
      </trkpt>
      <trkpt lat="45.65429" lon="6.66697">
        <ele>2662</ele>
        <time>2022-07-26T09:31:35Z</time>
      </trkpt>
      <trkpt lat="45.65428" lon="6.66697">
        <ele>2662</ele>
        <time>2022-07-26T09:31:36Z</time>
      </trkpt>
      <trkpt lat="45.65428" lon="6.66697">
        <ele>2663</ele>
        <time>2022-07-26T09:31:37Z</time>
      </trkpt>
      <trkpt lat="45.65427" lon="6.66697">
        <ele>2663</ele>
        <time>2022-07-26T09:31:38Z</time>
      </trkpt>
      <trkpt lat="45.65426" lon="6.66697">
        <ele>2663</ele>
        <time>2022-07-26T09:31:39Z</time>
      </trkpt>
      <trkpt lat="45.65426" lon="6.66697">
        <ele>2663</ele>
        <time>2022-07-26T09:31:40Z</time>
      </trkpt>
      <trkpt lat="45.65425" lon="6.66697">
        <ele>2663</ele>
        <time>2022-07-26T09:31:41Z</time>
      </trkpt>
      <trkpt lat="45.65424" lon="6.66697">
        <ele>2664</ele>
        <time>2022-07-26T09:31:42Z</time>
      </trkpt>
      <trkpt lat="45.65424" lon="6.66697">
        <ele>2664</ele>
        <time>2022-07-26T09:31:43Z</time>
      </trkpt>
      <trkpt lat="45.65423" lon="6.66697">
        <ele>2665</ele>
        <time>2022-07-26T09:31:57Z</time>
      </trkpt>
      <trkpt lat="45.65423" lon="6.66697">
        <ele>2665</ele>
        <time>2022-07-26T09:31:58Z</time>
      </trkpt>
      <trkpt lat="45.65423" lon="6.66697">
        <ele>2665</ele>
        <time>2022-07-26T09:31:59Z</time>
      </trkpt>
      <trkpt lat="45.65422" lon="6.66697">
        <ele>2665</ele>
        <time>2022-07-26T09:32:00Z</time>
      </trkpt>
      <trkpt lat="45.65422" lon="6.66698">
        <ele>2665</ele>
        <time>2022-07-26T09:32:01Z</time>
      </trkpt>
      <trkpt lat="45.65421" lon="6.66698">
        <ele>2665</ele>
        <time>2022-07-26T09:32:02Z</time>
      </trkpt>
      <trkpt lat="45.6542" lon="6.66698">
        <ele>2665</ele>
        <time>2022-07-26T09:32:03Z</time>
      </trkpt>
      <trkpt lat="45.6542" lon="6.66697">
        <ele>2667</ele>
        <time>2022-07-26T09:32:44Z</time>
      </trkpt>
      <trkpt lat="45.65419" lon="6.66697">
        <ele>2667</ele>
        <time>2022-07-26T09:32:45Z</time>
      </trkpt>
      <trkpt lat="45.65419" lon="6.66696">
        <ele>2667</ele>
        <time>2022-07-26T09:32:46Z</time>
      </trkpt>
      <trkpt lat="45.65419" lon="6.66697">
        <ele>2667</ele>
        <time>2022-07-26T09:32:47Z</time>
      </trkpt>
      <trkpt lat="45.65419" lon="6.66697">
        <ele>2667</ele>
        <time>2022-07-26T09:32:48Z</time>
      </trkpt>
      <trkpt lat="45.65419" lon="6.66698">
        <ele>2667</ele>
        <time>2022-07-26T09:32:49Z</time>
      </trkpt>
      <trkpt lat="45.65419" lon="6.66699">
        <ele>2667</ele>
        <time>2022-07-26T09:32:50Z</time>
      </trkpt>
      <trkpt lat="45.65419" lon="6.667">
        <ele>2667</ele>
        <time>2022-07-26T09:32:51Z</time>
      </trkpt>
      <trkpt lat="45.65419" lon="6.66701">
        <ele>2667</ele>
        <time>2022-07-26T09:32:52Z</time>
      </trkpt>
      <trkpt lat="45.6542" lon="6.66702">
        <ele>2667</ele>
        <time>2022-07-26T09:32:53Z</time>
      </trkpt>
      <trkpt lat="45.6542" lon="6.66703">
        <ele>2667</ele>
        <time>2022-07-26T09:32:54Z</time>
      </trkpt>
      <trkpt lat="45.6542" lon="6.66704">
        <ele>2667</ele>
        <time>2022-07-26T09:32:55Z</time>
      </trkpt>
      <trkpt lat="45.6542" lon="6.66705">
        <ele>2667</ele>
        <time>2022-07-26T09:32:56Z</time>
      </trkpt>
      <trkpt lat="45.65418" lon="6.66705">
        <ele>2665</ele>
        <time>2022-07-26T09:40:49Z</time>
      </trkpt>
      <trkpt lat="45.65417" lon="6.66705">
        <ele>2665</ele>
        <time>2022-07-26T09:40:50Z</time>
      </trkpt>
      <trkpt lat="45.65416" lon="6.66705">
        <ele>2665</ele>
        <time>2022-07-26T09:40:51Z</time>
      </trkpt>
      <trkpt lat="45.65415" lon="6.66703">
        <ele>2664</ele>
        <time>2022-07-26T09:41:27Z</time>
      </trkpt>
      <trkpt lat="45.65414" lon="6.66702">
        <ele>2664</ele>
        <time>2022-07-26T09:41:28Z</time>
      </trkpt>
      <trkpt lat="45.65413" lon="6.667">
        <ele>2664</ele>
        <time>2022-07-26T09:41:29Z</time>
      </trkpt>
      <trkpt lat="45.65413" lon="6.667">
        <ele>2664</ele>
        <time>2022-07-26T09:41:30Z</time>
      </trkpt>
      <trkpt lat="45.65412" lon="6.66699">
        <ele>2664</ele>
        <time>2022-07-26T09:41:31Z</time>
      </trkpt>
      <trkpt lat="45.65411" lon="6.66698">
        <ele>2664</ele>
        <time>2022-07-26T09:41:32Z</time>
      </trkpt>
      <trkpt lat="45.65411" lon="6.66697">
        <ele>2663</ele>
        <time>2022-07-26T09:41:33Z</time>
      </trkpt>
      <trkpt lat="45.65411" lon="6.66697">
        <ele>2663</ele>
        <time>2022-07-26T09:41:34Z</time>
      </trkpt>
      <trkpt lat="45.6541" lon="6.66697">
        <ele>2663</ele>
        <time>2022-07-26T09:41:35Z</time>
      </trkpt>
      <trkpt lat="45.6541" lon="6.66696">
        <ele>2663</ele>
        <time>2022-07-26T09:41:36Z</time>
      </trkpt>
      <trkpt lat="45.6541" lon="6.66696">
        <ele>2663</ele>
        <time>2022-07-26T09:41:37Z</time>
      </trkpt>
      <trkpt lat="45.6541" lon="6.66695">
        <ele>2662</ele>
        <time>2022-07-26T09:41:38Z</time>
      </trkpt>
      <trkpt lat="45.65409" lon="6.66695">
        <ele>2662</ele>
        <time>2022-07-26T09:41:39Z</time>
      </trkpt>
      <trkpt lat="45.65409" lon="6.66694">
        <ele>2662</ele>
        <time>2022-07-26T09:41:40Z</time>
      </trkpt>
      <trkpt lat="45.65408" lon="6.66694">
        <ele>2662</ele>
        <time>2022-07-26T09:41:41Z</time>
      </trkpt>
      <trkpt lat="45.65408" lon="6.66694">
        <ele>2662</ele>
        <time>2022-07-26T09:41:42Z</time>
      </trkpt>
      <trkpt lat="45.65408" lon="6.66695">
        <ele>2662</ele>
        <time>2022-07-26T09:41:43Z</time>
      </trkpt>
      <trkpt lat="45.65407" lon="6.66695">
        <ele>2662</ele>
        <time>2022-07-26T09:41:44Z</time>
      </trkpt>
      <trkpt lat="45.65407" lon="6.66696">
        <ele>2662</ele>
        <time>2022-07-26T09:41:45Z</time>
      </trkpt>
      <trkpt lat="45.65406" lon="6.66696">
        <ele>2662</ele>
        <time>2022-07-26T09:41:46Z</time>
      </trkpt>
      <trkpt lat="45.65406" lon="6.66696">
        <ele>2662</ele>
        <time>2022-07-26T09:41:47Z</time>
      </trkpt>
      <trkpt lat="45.65405" lon="6.66696">
        <ele>2661</ele>
        <time>2022-07-26T09:41:48Z</time>
      </trkpt>
      <trkpt lat="45.65405" lon="6.66696">
        <ele>2661</ele>
        <time>2022-07-26T09:41:49Z</time>
      </trkpt>
      <trkpt lat="45.65405" lon="6.66695">
        <ele>2661</ele>
        <time>2022-07-26T09:41:50Z</time>
      </trkpt>
      <trkpt lat="45.65404" lon="6.66695">
        <ele>2661</ele>
        <time>2022-07-26T09:41:51Z</time>
      </trkpt>
      <trkpt lat="45.65404" lon="6.66694">
        <ele>2661</ele>
        <time>2022-07-26T09:41:52Z</time>
      </trkpt>
      <trkpt lat="45.65404" lon="6.66694">
        <ele>2660</ele>
        <time>2022-07-26T09:41:53Z</time>
      </trkpt>
      <trkpt lat="45.65403" lon="6.66693">
        <ele>2660</ele>
        <time>2022-07-26T09:41:54Z</time>
      </trkpt>
      <trkpt lat="45.65403" lon="6.66693">
        <ele>2660</ele>
        <time>2022-07-26T09:41:55Z</time>
      </trkpt>
      <trkpt lat="45.65403" lon="6.66692">
        <ele>2660</ele>
        <time>2022-07-26T09:41:56Z</time>
      </trkpt>
      <trkpt lat="45.65403" lon="6.66692">
        <ele>2660</ele>
        <time>2022-07-26T09:41:57Z</time>
      </trkpt>
      <trkpt lat="45.65403" lon="6.66691">
        <ele>2659</ele>
        <time>2022-07-26T09:41:58Z</time>
      </trkpt>
      <trkpt lat="45.65402" lon="6.6669">
        <ele>2659</ele>
        <time>2022-07-26T09:41:59Z</time>
      </trkpt>
      <trkpt lat="45.65402" lon="6.66688">
        <ele>2656</ele>
        <time>2022-07-26T09:42:08Z</time>
      </trkpt>
      <trkpt lat="45.65401" lon="6.66687">
        <ele>2656</ele>
        <time>2022-07-26T09:42:09Z</time>
      </trkpt>
      <trkpt lat="45.65401" lon="6.66687">
        <ele>2656</ele>
        <time>2022-07-26T09:42:10Z</time>
      </trkpt>
      <trkpt lat="45.654" lon="6.66686">
        <ele>2656</ele>
        <time>2022-07-26T09:42:11Z</time>
      </trkpt>
      <trkpt lat="45.654" lon="6.66686">
        <ele>2656</ele>
        <time>2022-07-26T09:42:12Z</time>
      </trkpt>
      <trkpt lat="45.654" lon="6.66685">
        <ele>2655</ele>
        <time>2022-07-26T09:42:13Z</time>
      </trkpt>
      <trkpt lat="45.654" lon="6.66685">
        <ele>2655</ele>
        <time>2022-07-26T09:42:14Z</time>
      </trkpt>
      <trkpt lat="45.65399" lon="6.66685">
        <ele>2655</ele>
        <time>2022-07-26T09:42:15Z</time>
      </trkpt>
      <trkpt lat="45.65399" lon="6.66684">
        <ele>2655</ele>
        <time>2022-07-26T09:42:16Z</time>
      </trkpt>
      <trkpt lat="45.65399" lon="6.66684">
        <ele>2655</ele>
        <time>2022-07-26T09:42:17Z</time>
      </trkpt>
      <trkpt lat="45.65399" lon="6.66683">
        <ele>2655</ele>
        <time>2022-07-26T09:42:18Z</time>
      </trkpt>
      <trkpt lat="45.65398" lon="6.66682">
        <ele>2655</ele>
        <time>2022-07-26T09:42:19Z</time>
      </trkpt>
      <trkpt lat="45.65398" lon="6.66681">
        <ele>2655</ele>
        <time>2022-07-26T09:42:20Z</time>
      </trkpt>
      <trkpt lat="45.65398" lon="6.66679">
        <ele>2655</ele>
        <time>2022-07-26T09:42:21Z</time>
      </trkpt>
      <trkpt lat="45.65398" lon="6.66678">
        <ele>2655</ele>
        <time>2022-07-26T09:42:22Z</time>
      </trkpt>
      <trkpt lat="45.65397" lon="6.66679">
        <ele>2652</ele>
        <time>2022-07-26T09:43:00Z</time>
      </trkpt>
      <trkpt lat="45.65397" lon="6.66679">
        <ele>2652</ele>
        <time>2022-07-26T09:43:01Z</time>
      </trkpt>
      <trkpt lat="45.65397" lon="6.6668">
        <ele>2652</ele>
        <time>2022-07-26T09:43:02Z</time>
      </trkpt>
      <trkpt lat="45.65397" lon="6.6668">
        <ele>2652</ele>
        <time>2022-07-26T09:43:03Z</time>
      </trkpt>
      <trkpt lat="45.65396" lon="6.6668">
        <ele>2652</ele>
        <time>2022-07-26T09:43:04Z</time>
      </trkpt>
      <trkpt lat="45.65396" lon="6.66681">
        <ele>2652</ele>
        <time>2022-07-26T09:43:05Z</time>
      </trkpt>
      <trkpt lat="45.65396" lon="6.66682">
        <ele>2652</ele>
        <time>2022-07-26T09:43:06Z</time>
      </trkpt>
      <trkpt lat="45.65395" lon="6.66682">
        <ele>2652</ele>
        <time>2022-07-26T09:43:07Z</time>
      </trkpt>
      <trkpt lat="45.65395" lon="6.66683">
        <ele>2651</ele>
        <time>2022-07-26T09:43:08Z</time>
      </trkpt>
      <trkpt lat="45.65395" lon="6.66685">
        <ele>2651</ele>
        <time>2022-07-26T09:43:09Z</time>
      </trkpt>
      <trkpt lat="45.65394" lon="6.66685">
        <ele>2651</ele>
        <time>2022-07-26T09:43:10Z</time>
      </trkpt>
      <trkpt lat="45.65393" lon="6.66686">
        <ele>2651</ele>
        <time>2022-07-26T09:43:11Z</time>
      </trkpt>
      <trkpt lat="45.65392" lon="6.66687">
        <ele>2651</ele>
        <time>2022-07-26T09:43:12Z</time>
      </trkpt>
      <trkpt lat="45.65392" lon="6.66688">
        <ele>2650</ele>
        <time>2022-07-26T09:43:13Z</time>
      </trkpt>
      <trkpt lat="45.65391" lon="6.66688">
        <ele>2650</ele>
        <time>2022-07-26T09:43:14Z</time>
      </trkpt>
      <trkpt lat="45.6539" lon="6.66689">
        <ele>2650</ele>
        <time>2022-07-26T09:43:15Z</time>
      </trkpt>
      <trkpt lat="45.65389" lon="6.6669">
        <ele>2650</ele>
        <time>2022-07-26T09:43:16Z</time>
      </trkpt>
      <trkpt lat="45.65388" lon="6.66691">
        <ele>2650</ele>
        <time>2022-07-26T09:43:17Z</time>
      </trkpt>
      <trkpt lat="45.65387" lon="6.66691">
        <ele>2649</ele>
        <time>2022-07-26T09:43:18Z</time>
      </trkpt>
      <trkpt lat="45.65386" lon="6.66691">
        <ele>2649</ele>
        <time>2022-07-26T09:43:19Z</time>
      </trkpt>
      <trkpt lat="45.65386" lon="6.66691">
        <ele>2649</ele>
        <time>2022-07-26T09:43:20Z</time>
      </trkpt>
      <trkpt lat="45.65385" lon="6.66691">
        <ele>2649</ele>
        <time>2022-07-26T09:43:21Z</time>
      </trkpt>
      <trkpt lat="45.65385" lon="6.6669">
        <ele>2649</ele>
        <time>2022-07-26T09:43:22Z</time>
      </trkpt>
      <trkpt lat="45.65384" lon="6.66689">
        <ele>2648</ele>
        <time>2022-07-26T09:43:23Z</time>
      </trkpt>
      <trkpt lat="45.65384" lon="6.66687">
        <ele>2648</ele>
        <time>2022-07-26T09:43:24Z</time>
      </trkpt>
      <trkpt lat="45.65384" lon="6.66686">
        <ele>2647</ele>
        <time>2022-07-26T09:43:25Z</time>
      </trkpt>
      <trkpt lat="45.65383" lon="6.66685">
        <ele>2647</ele>
        <time>2022-07-26T09:43:26Z</time>
      </trkpt>
      <trkpt lat="45.65383" lon="6.66684">
        <ele>2647</ele>
        <time>2022-07-26T09:43:27Z</time>
      </trkpt>
      <trkpt lat="45.65383" lon="6.66683">
        <ele>2646</ele>
        <time>2022-07-26T09:43:28Z</time>
      </trkpt>
      <trkpt lat="45.65383" lon="6.66682">
        <ele>2646</ele>
        <time>2022-07-26T09:43:29Z</time>
      </trkpt>
      <trkpt lat="45.65382" lon="6.66679">
        <ele>2643</ele>
        <time>2022-07-26T09:43:38Z</time>
      </trkpt>
      <trkpt lat="45.65381" lon="6.66679">
        <ele>2643</ele>
        <time>2022-07-26T09:43:39Z</time>
      </trkpt>
      <trkpt lat="45.6538" lon="6.66678">
        <ele>2643</ele>
        <time>2022-07-26T09:43:40Z</time>
      </trkpt>
      <trkpt lat="45.6538" lon="6.66676">
        <ele>2642</ele>
        <time>2022-07-26T09:43:49Z</time>
      </trkpt>
      <trkpt lat="45.65379" lon="6.66675">
        <ele>2642</ele>
        <time>2022-07-26T09:43:50Z</time>
      </trkpt>
      <trkpt lat="45.65379" lon="6.66673">
        <ele>2642</ele>
        <time>2022-07-26T09:43:51Z</time>
      </trkpt>
      <trkpt lat="45.65379" lon="6.66673">
        <ele>2642</ele>
        <time>2022-07-26T09:43:52Z</time>
      </trkpt>
      <trkpt lat="45.65378" lon="6.66672">
        <ele>2641</ele>
        <time>2022-07-26T09:43:53Z</time>
      </trkpt>
      <trkpt lat="45.65378" lon="6.66671">
        <ele>2641</ele>
        <time>2022-07-26T09:43:54Z</time>
      </trkpt>
      <trkpt lat="45.65378" lon="6.6667">
        <ele>2641</ele>
        <time>2022-07-26T09:43:55Z</time>
      </trkpt>
      <trkpt lat="45.65377" lon="6.66669">
        <ele>2641</ele>
        <time>2022-07-26T09:43:56Z</time>
      </trkpt>
      <trkpt lat="45.65377" lon="6.66668">
        <ele>2641</ele>
        <time>2022-07-26T09:43:57Z</time>
      </trkpt>
      <trkpt lat="45.65377" lon="6.66668">
        <ele>2640</ele>
        <time>2022-07-26T09:43:58Z</time>
      </trkpt>
      <trkpt lat="45.65377" lon="6.66667">
        <ele>2640</ele>
        <time>2022-07-26T09:43:59Z</time>
      </trkpt>
      <trkpt lat="45.65377" lon="6.66666">
        <ele>2640</ele>
        <time>2022-07-26T09:44:00Z</time>
      </trkpt>
      <trkpt lat="45.65375" lon="6.66663">
        <ele>2636</ele>
        <time>2022-07-26T09:44:14Z</time>
      </trkpt>
      <trkpt lat="45.65375" lon="6.66661">
        <ele>2636</ele>
        <time>2022-07-26T09:44:15Z</time>
      </trkpt>
      <trkpt lat="45.65374" lon="6.66659">
        <ele>2636</ele>
        <time>2022-07-26T09:44:16Z</time>
      </trkpt>
      <trkpt lat="45.65374" lon="6.66658">
        <ele>2636</ele>
        <time>2022-07-26T09:44:17Z</time>
      </trkpt>
      <trkpt lat="45.65373" lon="6.66657">
        <ele>2635</ele>
        <time>2022-07-26T09:44:18Z</time>
      </trkpt>
      <trkpt lat="45.65373" lon="6.66656">
        <ele>2635</ele>
        <time>2022-07-26T09:44:19Z</time>
      </trkpt>
      <trkpt lat="45.65372" lon="6.66655">
        <ele>2635</ele>
        <time>2022-07-26T09:44:20Z</time>
      </trkpt>
      <trkpt lat="45.65372" lon="6.66654">
        <ele>2635</ele>
        <time>2022-07-26T09:44:21Z</time>
      </trkpt>
      <trkpt lat="45.65371" lon="6.66654">
        <ele>2635</ele>
        <time>2022-07-26T09:44:22Z</time>
      </trkpt>
      <trkpt lat="45.65371" lon="6.66653">
        <ele>2634</ele>
        <time>2022-07-26T09:44:23Z</time>
      </trkpt>
      <trkpt lat="45.65371" lon="6.66652">
        <ele>2634</ele>
        <time>2022-07-26T09:44:24Z</time>
      </trkpt>
      <trkpt lat="45.65371" lon="6.66651">
        <ele>2634</ele>
        <time>2022-07-26T09:44:25Z</time>
      </trkpt>
      <trkpt lat="45.65371" lon="6.6665">
        <ele>2634</ele>
        <time>2022-07-26T09:44:26Z</time>
      </trkpt>
      <trkpt lat="45.65371" lon="6.66649">
        <ele>2634</ele>
        <time>2022-07-26T09:44:27Z</time>
      </trkpt>
      <trkpt lat="45.65371" lon="6.66649">
        <ele>2634</ele>
        <time>2022-07-26T09:44:28Z</time>
      </trkpt>
      <trkpt lat="45.6537" lon="6.66648">
        <ele>2634</ele>
        <time>2022-07-26T09:44:29Z</time>
      </trkpt>
      <trkpt lat="45.6537" lon="6.66647">
        <ele>2634</ele>
        <time>2022-07-26T09:44:30Z</time>
      </trkpt>
      <trkpt lat="45.65369" lon="6.66644">
        <ele>2632</ele>
        <time>2022-07-26T09:44:45Z</time>
      </trkpt>
      <trkpt lat="45.65368" lon="6.66642">
        <ele>2632</ele>
        <time>2022-07-26T09:44:46Z</time>
      </trkpt>
      <trkpt lat="45.65367" lon="6.66641">
        <ele>2632</ele>
        <time>2022-07-26T09:44:47Z</time>
      </trkpt>
      <trkpt lat="45.65367" lon="6.6664">
        <ele>2631</ele>
        <time>2022-07-26T09:44:48Z</time>
      </trkpt>
      <trkpt lat="45.65366" lon="6.6664">
        <ele>2631</ele>
        <time>2022-07-26T09:44:49Z</time>
      </trkpt>
      <trkpt lat="45.65366" lon="6.66639">
        <ele>2631</ele>
        <time>2022-07-26T09:44:50Z</time>
      </trkpt>
      <trkpt lat="45.65365" lon="6.66639">
        <ele>2631</ele>
        <time>2022-07-26T09:44:51Z</time>
      </trkpt>
      <trkpt lat="45.65365" lon="6.66639">
        <ele>2631</ele>
        <time>2022-07-26T09:44:52Z</time>
      </trkpt>
      <trkpt lat="45.65365" lon="6.66638">
        <ele>2630</ele>
        <time>2022-07-26T09:44:53Z</time>
      </trkpt>
      <trkpt lat="45.65365" lon="6.66638">
        <ele>2630</ele>
        <time>2022-07-26T09:44:54Z</time>
      </trkpt>
      <trkpt lat="45.65365" lon="6.66638">
        <ele>2630</ele>
        <time>2022-07-26T09:44:55Z</time>
      </trkpt>
      <trkpt lat="45.65364" lon="6.66638">
        <ele>2630</ele>
        <time>2022-07-26T09:44:56Z</time>
      </trkpt>
      <trkpt lat="45.65364" lon="6.66637">
        <ele>2630</ele>
        <time>2022-07-26T09:44:57Z</time>
      </trkpt>
      <trkpt lat="45.65363" lon="6.66637">
        <ele>2630</ele>
        <time>2022-07-26T09:44:58Z</time>
      </trkpt>
      <trkpt lat="45.65363" lon="6.66637">
        <ele>2630</ele>
        <time>2022-07-26T09:44:59Z</time>
      </trkpt>
      <trkpt lat="45.65362" lon="6.66638">
        <ele>2630</ele>
        <time>2022-07-26T09:45:00Z</time>
      </trkpt>
      <trkpt lat="45.65362" lon="6.66639">
        <ele>2630</ele>
        <time>2022-07-26T09:45:01Z</time>
      </trkpt>
      <trkpt lat="45.65362" lon="6.6664">
        <ele>2630</ele>
        <time>2022-07-26T09:45:02Z</time>
      </trkpt>
      <trkpt lat="45.65361" lon="6.66641">
        <ele>2629</ele>
        <time>2022-07-26T09:45:03Z</time>
      </trkpt>
      <trkpt lat="45.65361" lon="6.66642">
        <ele>2629</ele>
        <time>2022-07-26T09:45:04Z</time>
      </trkpt>
      <trkpt lat="45.65361" lon="6.66643">
        <ele>2629</ele>
        <time>2022-07-26T09:45:05Z</time>
      </trkpt>
      <trkpt lat="45.65361" lon="6.66644">
        <ele>2629</ele>
        <time>2022-07-26T09:45:06Z</time>
      </trkpt>
      <trkpt lat="45.65361" lon="6.66645">
        <ele>2629</ele>
        <time>2022-07-26T09:45:07Z</time>
      </trkpt>
      <trkpt lat="45.65361" lon="6.66646">
        <ele>2628</ele>
        <time>2022-07-26T09:45:08Z</time>
      </trkpt>
      <trkpt lat="45.65361" lon="6.66647">
        <ele>2628</ele>
        <time>2022-07-26T09:45:09Z</time>
      </trkpt>
      <trkpt lat="45.6536" lon="6.66648">
        <ele>2628</ele>
        <time>2022-07-26T09:45:10Z</time>
      </trkpt>
      <trkpt lat="45.6536" lon="6.66649">
        <ele>2628</ele>
        <time>2022-07-26T09:45:11Z</time>
      </trkpt>
      <trkpt lat="45.6536" lon="6.6665">
        <ele>2628</ele>
        <time>2022-07-26T09:45:12Z</time>
      </trkpt>
      <trkpt lat="45.6536" lon="6.66651">
        <ele>2627</ele>
        <time>2022-07-26T09:45:13Z</time>
      </trkpt>
      <trkpt lat="45.6536" lon="6.66652">
        <ele>2627</ele>
        <time>2022-07-26T09:45:14Z</time>
      </trkpt>
      <trkpt lat="45.6536" lon="6.66653">
        <ele>2627</ele>
        <time>2022-07-26T09:45:15Z</time>
      </trkpt>
      <trkpt lat="45.65359" lon="6.66653">
        <ele>2627</ele>
        <time>2022-07-26T09:45:16Z</time>
      </trkpt>
      <trkpt lat="45.65359" lon="6.66656">
        <ele>2625</ele>
        <time>2022-07-26T09:45:25Z</time>
      </trkpt>
      <trkpt lat="45.65358" lon="6.66656">
        <ele>2625</ele>
        <time>2022-07-26T09:45:26Z</time>
      </trkpt>
      <trkpt lat="45.65358" lon="6.66657">
        <ele>2625</ele>
        <time>2022-07-26T09:45:27Z</time>
      </trkpt>
      <trkpt lat="45.65353" lon="6.66651">
        <ele>2617</ele>
        <time>2022-07-26T09:46:29Z</time>
      </trkpt>
      <trkpt lat="45.6535" lon="6.66647">
        <ele>2617</ele>
        <time>2022-07-26T09:46:30Z</time>
      </trkpt>
      <trkpt lat="45.65348" lon="6.66644">
        <ele>2617</ele>
        <time>2022-07-26T09:46:31Z</time>
      </trkpt>
      <trkpt lat="45.65342" lon="6.66643">
        <ele>2610</ele>
        <time>2022-07-26T09:47:06Z</time>
      </trkpt>
      <trkpt lat="45.6534" lon="6.66644">
        <ele>2610</ele>
        <time>2022-07-26T09:47:07Z</time>
      </trkpt>
      <trkpt lat="45.65338" lon="6.66645">
        <ele>2609</ele>
        <time>2022-07-26T09:47:08Z</time>
      </trkpt>
      <trkpt lat="45.65336" lon="6.66645">
        <ele>2609</ele>
        <time>2022-07-26T09:47:09Z</time>
      </trkpt>
      <trkpt lat="45.65335" lon="6.66645">
        <ele>2609</ele>
        <time>2022-07-26T09:47:10Z</time>
      </trkpt>
      <trkpt lat="45.65335" lon="6.66644">
        <ele>2609</ele>
        <time>2022-07-26T09:47:11Z</time>
      </trkpt>
      <trkpt lat="45.65334" lon="6.66644">
        <ele>2609</ele>
        <time>2022-07-26T09:47:12Z</time>
      </trkpt>
      <trkpt lat="45.65333" lon="6.66643">
        <ele>2608</ele>
        <time>2022-07-26T09:47:13Z</time>
      </trkpt>
      <trkpt lat="45.65333" lon="6.66643">
        <ele>2608</ele>
        <time>2022-07-26T09:47:14Z</time>
      </trkpt>
      <trkpt lat="45.65332" lon="6.66642">
        <ele>2608</ele>
        <time>2022-07-26T09:47:15Z</time>
      </trkpt>
      <trkpt lat="45.65332" lon="6.66642">
        <ele>2608</ele>
        <time>2022-07-26T09:47:16Z</time>
      </trkpt>
      <trkpt lat="45.65332" lon="6.66641">
        <ele>2608</ele>
        <time>2022-07-26T09:47:17Z</time>
      </trkpt>
      <trkpt lat="45.65331" lon="6.6664">
        <ele>2607</ele>
        <time>2022-07-26T09:47:18Z</time>
      </trkpt>
      <trkpt lat="45.65331" lon="6.66639">
        <ele>2607</ele>
        <time>2022-07-26T09:47:19Z</time>
      </trkpt>
      <trkpt lat="45.65331" lon="6.66639">
        <ele>2607</ele>
        <time>2022-07-26T09:47:20Z</time>
      </trkpt>
      <trkpt lat="45.65331" lon="6.66638">
        <ele>2607</ele>
        <time>2022-07-26T09:47:21Z</time>
      </trkpt>
      <trkpt lat="45.6533" lon="6.66637">
        <ele>2607</ele>
        <time>2022-07-26T09:47:22Z</time>
      </trkpt>
      <trkpt lat="45.6533" lon="6.66636">
        <ele>2606</ele>
        <time>2022-07-26T09:47:23Z</time>
      </trkpt>
      <trkpt lat="45.6533" lon="6.66635">
        <ele>2606</ele>
        <time>2022-07-26T09:47:24Z</time>
      </trkpt>
      <trkpt lat="45.65327" lon="6.66635">
        <ele>2601</ele>
        <time>2022-07-26T09:48:13Z</time>
      </trkpt>
      <trkpt lat="45.65325" lon="6.66636">
        <ele>2601</ele>
        <time>2022-07-26T09:48:14Z</time>
      </trkpt>
      <trkpt lat="45.65323" lon="6.66636">
        <ele>2601</ele>
        <time>2022-07-26T09:48:15Z</time>
      </trkpt>
      <trkpt lat="45.65323" lon="6.66637">
        <ele>2601</ele>
        <time>2022-07-26T09:48:16Z</time>
      </trkpt>
      <trkpt lat="45.65322" lon="6.66637">
        <ele>2601</ele>
        <time>2022-07-26T09:48:17Z</time>
      </trkpt>
      <trkpt lat="45.6532" lon="6.66638">
        <ele>2599</ele>
        <time>2022-07-26T09:48:44Z</time>
      </trkpt>
      <trkpt lat="45.65319" lon="6.66638">
        <ele>2599</ele>
        <time>2022-07-26T09:48:45Z</time>
      </trkpt>
      <trkpt lat="45.65318" lon="6.66639">
        <ele>2599</ele>
        <time>2022-07-26T09:48:46Z</time>
      </trkpt>
      <trkpt lat="45.65317" lon="6.66639">
        <ele>2599</ele>
        <time>2022-07-26T09:48:47Z</time>
      </trkpt>
      <trkpt lat="45.65317" lon="6.6664">
        <ele>2598</ele>
        <time>2022-07-26T09:48:48Z</time>
      </trkpt>
      <trkpt lat="45.6531" lon="6.66643">
        <ele>2594</ele>
        <time>2022-07-26T09:50:06Z</time>
      </trkpt>
      <trkpt lat="45.65307" lon="6.66645">
        <ele>2594</ele>
        <time>2022-07-26T09:50:07Z</time>
      </trkpt>
      <trkpt lat="45.65304" lon="6.66646">
        <ele>2594</ele>
        <time>2022-07-26T09:50:08Z</time>
      </trkpt>
      <trkpt lat="45.65302" lon="6.66646">
        <ele>2594</ele>
        <time>2022-07-26T09:50:09Z</time>
      </trkpt>
      <trkpt lat="45.65301" lon="6.66647">
        <ele>2594</ele>
        <time>2022-07-26T09:50:10Z</time>
      </trkpt>
      <trkpt lat="45.65298" lon="6.66647">
        <ele>2594</ele>
        <time>2022-07-26T09:50:20Z</time>
      </trkpt>
      <trkpt lat="45.65297" lon="6.66648">
        <ele>2594</ele>
        <time>2022-07-26T09:50:21Z</time>
      </trkpt>
      <trkpt lat="45.65296" lon="6.66648">
        <ele>2594</ele>
        <time>2022-07-26T09:50:22Z</time>
      </trkpt>
      <trkpt lat="45.65295" lon="6.66648">
        <ele>2593</ele>
        <time>2022-07-26T09:50:23Z</time>
      </trkpt>
      <trkpt lat="45.65294" lon="6.66649">
        <ele>2593</ele>
        <time>2022-07-26T09:50:24Z</time>
      </trkpt>
      <trkpt lat="45.65293" lon="6.66649">
        <ele>2593</ele>
        <time>2022-07-26T09:50:35Z</time>
      </trkpt>
      <trkpt lat="45.65292" lon="6.66649">
        <ele>2593</ele>
        <time>2022-07-26T09:50:36Z</time>
      </trkpt>
      <trkpt lat="45.65292" lon="6.66649">
        <ele>2593</ele>
        <time>2022-07-26T09:50:37Z</time>
      </trkpt>
      <trkpt lat="45.65291" lon="6.6665">
        <ele>2593</ele>
        <time>2022-07-26T09:50:38Z</time>
      </trkpt>
      <trkpt lat="45.6529" lon="6.6665">
        <ele>2593</ele>
        <time>2022-07-26T09:50:39Z</time>
      </trkpt>
      <trkpt lat="45.6529" lon="6.6665">
        <ele>2593</ele>
        <time>2022-07-26T09:50:40Z</time>
      </trkpt>
      <trkpt lat="45.65289" lon="6.6665">
        <ele>2593</ele>
        <time>2022-07-26T09:50:41Z</time>
      </trkpt>
      <trkpt lat="45.65288" lon="6.66651">
        <ele>2593</ele>
        <time>2022-07-26T09:50:42Z</time>
      </trkpt>
      <trkpt lat="45.65288" lon="6.66651">
        <ele>2592</ele>
        <time>2022-07-26T09:50:43Z</time>
      </trkpt>
      <trkpt lat="45.65287" lon="6.66651">
        <ele>2592</ele>
        <time>2022-07-26T09:50:44Z</time>
      </trkpt>
      <trkpt lat="45.65287" lon="6.66651">
        <ele>2592</ele>
        <time>2022-07-26T09:50:45Z</time>
      </trkpt>
      <trkpt lat="45.65286" lon="6.66651">
        <ele>2592</ele>
        <time>2022-07-26T09:50:46Z</time>
      </trkpt>
      <trkpt lat="45.65286" lon="6.66652">
        <ele>2592</ele>
        <time>2022-07-26T09:50:47Z</time>
      </trkpt>
      <trkpt lat="45.65285" lon="6.66652">
        <ele>2592</ele>
        <time>2022-07-26T09:50:48Z</time>
      </trkpt>
      <trkpt lat="45.65284" lon="6.66652">
        <ele>2592</ele>
        <time>2022-07-26T09:50:49Z</time>
      </trkpt>
      <trkpt lat="45.65281" lon="6.66652">
        <ele>2590</ele>
        <time>2022-07-26T09:51:20Z</time>
      </trkpt>
      <trkpt lat="45.6528" lon="6.66652">
        <ele>2590</ele>
        <time>2022-07-26T09:51:21Z</time>
      </trkpt>
      <trkpt lat="45.65278" lon="6.66653">
        <ele>2590</ele>
        <time>2022-07-26T09:51:22Z</time>
      </trkpt>
      <trkpt lat="45.65277" lon="6.66653">
        <ele>2589</ele>
        <time>2022-07-26T09:51:23Z</time>
      </trkpt>
      <trkpt lat="45.65276" lon="6.66653">
        <ele>2589</ele>
        <time>2022-07-26T09:51:24Z</time>
      </trkpt>
      <trkpt lat="45.65275" lon="6.66653">
        <ele>2589</ele>
        <time>2022-07-26T09:51:25Z</time>
      </trkpt>
      <trkpt lat="45.65274" lon="6.66653">
        <ele>2589</ele>
        <time>2022-07-26T09:51:26Z</time>
      </trkpt>
      <trkpt lat="45.65273" lon="6.66652">
        <ele>2588</ele>
        <time>2022-07-26T09:51:33Z</time>
      </trkpt>
      <trkpt lat="45.65272" lon="6.66652">
        <ele>2588</ele>
        <time>2022-07-26T09:51:34Z</time>
      </trkpt>
      <trkpt lat="45.65271" lon="6.66653">
        <ele>2588</ele>
        <time>2022-07-26T09:51:35Z</time>
      </trkpt>
      <trkpt lat="45.6527" lon="6.66653">
        <ele>2588</ele>
        <time>2022-07-26T09:51:36Z</time>
      </trkpt>
      <trkpt lat="45.65269" lon="6.66653">
        <ele>2588</ele>
        <time>2022-07-26T09:51:37Z</time>
      </trkpt>
      <trkpt lat="45.65269" lon="6.66653">
        <ele>2588</ele>
        <time>2022-07-26T09:51:38Z</time>
      </trkpt>
      <trkpt lat="45.65268" lon="6.66653">
        <ele>2588</ele>
        <time>2022-07-26T09:51:39Z</time>
      </trkpt>
      <trkpt lat="45.65267" lon="6.66653">
        <ele>2588</ele>
        <time>2022-07-26T09:51:40Z</time>
      </trkpt>
      <trkpt lat="45.65266" lon="6.66653">
        <ele>2588</ele>
        <time>2022-07-26T09:51:41Z</time>
      </trkpt>
      <trkpt lat="45.65266" lon="6.66654">
        <ele>2588</ele>
        <time>2022-07-26T09:51:42Z</time>
      </trkpt>
      <trkpt lat="45.65265" lon="6.66654">
        <ele>2587</ele>
        <time>2022-07-26T09:51:43Z</time>
      </trkpt>
      <trkpt lat="45.65264" lon="6.66654">
        <ele>2587</ele>
        <time>2022-07-26T09:51:44Z</time>
      </trkpt>
      <trkpt lat="45.65263" lon="6.66655">
        <ele>2587</ele>
        <time>2022-07-26T09:51:45Z</time>
      </trkpt>
      <trkpt lat="45.65262" lon="6.66655">
        <ele>2587</ele>
        <time>2022-07-26T09:51:46Z</time>
      </trkpt>
      <trkpt lat="45.65262" lon="6.66655">
        <ele>2587</ele>
        <time>2022-07-26T09:51:47Z</time>
      </trkpt>
      <trkpt lat="45.65261" lon="6.66655">
        <ele>2587</ele>
        <time>2022-07-26T09:51:48Z</time>
      </trkpt>
      <trkpt lat="45.6526" lon="6.66655">
        <ele>2587</ele>
        <time>2022-07-26T09:51:49Z</time>
      </trkpt>
      <trkpt lat="45.65259" lon="6.66655">
        <ele>2587</ele>
        <time>2022-07-26T09:51:50Z</time>
      </trkpt>
      <trkpt lat="45.65259" lon="6.66655">
        <ele>2587</ele>
        <time>2022-07-26T09:51:51Z</time>
      </trkpt>
      <trkpt lat="45.65258" lon="6.66655">
        <ele>2587</ele>
        <time>2022-07-26T09:51:52Z</time>
      </trkpt>
      <trkpt lat="45.65257" lon="6.66656">
        <ele>2587</ele>
        <time>2022-07-26T09:51:53Z</time>
      </trkpt>
      <trkpt lat="45.65256" lon="6.66656">
        <ele>2587</ele>
        <time>2022-07-26T09:51:54Z</time>
      </trkpt>
      <trkpt lat="45.65256" lon="6.66656">
        <ele>2587</ele>
        <time>2022-07-26T09:51:55Z</time>
      </trkpt>
      <trkpt lat="45.65255" lon="6.66657">
        <ele>2587</ele>
        <time>2022-07-26T09:51:56Z</time>
      </trkpt>
      <trkpt lat="45.65254" lon="6.66658">
        <ele>2587</ele>
        <time>2022-07-26T09:51:57Z</time>
      </trkpt>
      <trkpt lat="45.65253" lon="6.66658">
        <ele>2587</ele>
        <time>2022-07-26T09:51:58Z</time>
      </trkpt>
      <trkpt lat="45.65253" lon="6.66658">
        <ele>2587</ele>
        <time>2022-07-26T09:51:59Z</time>
      </trkpt>
      <trkpt lat="45.65251" lon="6.66658">
        <ele>2587</ele>
        <time>2022-07-26T09:52:17Z</time>
      </trkpt>
      <trkpt lat="45.6525" lon="6.66658">
        <ele>2587</ele>
        <time>2022-07-26T09:52:18Z</time>
      </trkpt>
      <trkpt lat="45.6525" lon="6.66657">
        <ele>2587</ele>
        <time>2022-07-26T09:52:19Z</time>
      </trkpt>
      <trkpt lat="45.65249" lon="6.66657">
        <ele>2587</ele>
        <time>2022-07-26T09:52:20Z</time>
      </trkpt>
      <trkpt lat="45.65249" lon="6.66657">
        <ele>2587</ele>
        <time>2022-07-26T09:52:21Z</time>
      </trkpt>
      <trkpt lat="45.65248" lon="6.66657">
        <ele>2587</ele>
        <time>2022-07-26T09:52:22Z</time>
      </trkpt>
      <trkpt lat="45.65247" lon="6.66657">
        <ele>2587</ele>
        <time>2022-07-26T09:52:23Z</time>
      </trkpt>
      <trkpt lat="45.65246" lon="6.66657">
        <ele>2587</ele>
        <time>2022-07-26T09:52:35Z</time>
      </trkpt>
      <trkpt lat="45.65245" lon="6.66657">
        <ele>2587</ele>
        <time>2022-07-26T09:52:36Z</time>
      </trkpt>
      <trkpt lat="45.65245" lon="6.66657">
        <ele>2587</ele>
        <time>2022-07-26T09:52:37Z</time>
      </trkpt>
      <trkpt lat="45.65244" lon="6.66657">
        <ele>2587</ele>
        <time>2022-07-26T09:52:38Z</time>
      </trkpt>
      <trkpt lat="45.65244" lon="6.66657">
        <ele>2587</ele>
        <time>2022-07-26T09:52:39Z</time>
      </trkpt>
      <trkpt lat="45.65243" lon="6.66657">
        <ele>2587</ele>
        <time>2022-07-26T09:52:40Z</time>
      </trkpt>
      <trkpt lat="45.65242" lon="6.66657">
        <ele>2587</ele>
        <time>2022-07-26T09:52:41Z</time>
      </trkpt>
      <trkpt lat="45.65242" lon="6.66657">
        <ele>2587</ele>
        <time>2022-07-26T09:52:42Z</time>
      </trkpt>
      <trkpt lat="45.65241" lon="6.66656">
        <ele>2587</ele>
        <time>2022-07-26T09:52:43Z</time>
      </trkpt>
      <trkpt lat="45.65241" lon="6.66656">
        <ele>2587</ele>
        <time>2022-07-26T09:52:44Z</time>
      </trkpt>
      <trkpt lat="45.6524" lon="6.66655">
        <ele>2587</ele>
        <time>2022-07-26T09:52:45Z</time>
      </trkpt>
      <trkpt lat="45.6524" lon="6.66654">
        <ele>2587</ele>
        <time>2022-07-26T09:52:46Z</time>
      </trkpt>
      <trkpt lat="45.65238" lon="6.66654">
        <ele>2586</ele>
        <time>2022-07-26T09:52:59Z</time>
      </trkpt>
      <trkpt lat="45.65237" lon="6.66654">
        <ele>2586</ele>
        <time>2022-07-26T09:53:00Z</time>
      </trkpt>
      <trkpt lat="45.65237" lon="6.66654">
        <ele>2586</ele>
        <time>2022-07-26T09:53:01Z</time>
      </trkpt>
      <trkpt lat="45.65236" lon="6.66655">
        <ele>2586</ele>
        <time>2022-07-26T09:53:02Z</time>
      </trkpt>
      <trkpt lat="45.65235" lon="6.66655">
        <ele>2586</ele>
        <time>2022-07-26T09:53:03Z</time>
      </trkpt>
      <trkpt lat="45.65235" lon="6.66656">
        <ele>2586</ele>
        <time>2022-07-26T09:53:04Z</time>
      </trkpt>
      <trkpt lat="45.65234" lon="6.66656">
        <ele>2586</ele>
        <time>2022-07-26T09:53:05Z</time>
      </trkpt>
      <trkpt lat="45.65234" lon="6.66657">
        <ele>2586</ele>
        <time>2022-07-26T09:53:06Z</time>
      </trkpt>
      <trkpt lat="45.65233" lon="6.66657">
        <ele>2586</ele>
        <time>2022-07-26T09:53:07Z</time>
      </trkpt>
      <trkpt lat="45.65233" lon="6.66658">
        <ele>2585</ele>
        <time>2022-07-26T09:53:08Z</time>
      </trkpt>
      <trkpt lat="45.65231" lon="6.66658">
        <ele>2583</ele>
        <time>2022-07-26T09:53:31Z</time>
      </trkpt>
      <trkpt lat="45.65229" lon="6.66658">
        <ele>2583</ele>
        <time>2022-07-26T09:53:32Z</time>
      </trkpt>
      <trkpt lat="45.65228" lon="6.66659">
        <ele>2582</ele>
        <time>2022-07-26T09:53:33Z</time>
      </trkpt>
      <trkpt lat="45.65227" lon="6.66659">
        <ele>2582</ele>
        <time>2022-07-26T09:53:34Z</time>
      </trkpt>
      <trkpt lat="45.65226" lon="6.6666">
        <ele>2582</ele>
        <time>2022-07-26T09:53:35Z</time>
      </trkpt>
      <trkpt lat="45.65225" lon="6.6666">
        <ele>2582</ele>
        <time>2022-07-26T09:53:36Z</time>
      </trkpt>
      <trkpt lat="45.65225" lon="6.6666">
        <ele>2582</ele>
        <time>2022-07-26T09:53:37Z</time>
      </trkpt>
      <trkpt lat="45.65224" lon="6.66661">
        <ele>2582</ele>
        <time>2022-07-26T09:53:38Z</time>
      </trkpt>
      <trkpt lat="45.65223" lon="6.66661">
        <ele>2582</ele>
        <time>2022-07-26T09:53:39Z</time>
      </trkpt>
      <trkpt lat="45.65223" lon="6.66661">
        <ele>2582</ele>
        <time>2022-07-26T09:53:40Z</time>
      </trkpt>
      <trkpt lat="45.65222" lon="6.6666">
        <ele>2582</ele>
        <time>2022-07-26T09:53:41Z</time>
      </trkpt>
      <trkpt lat="45.65222" lon="6.6666">
        <ele>2582</ele>
        <time>2022-07-26T09:53:42Z</time>
      </trkpt>
      <trkpt lat="45.65221" lon="6.6666">
        <ele>2582</ele>
        <time>2022-07-26T09:53:43Z</time>
      </trkpt>
      <trkpt lat="45.65221" lon="6.66659">
        <ele>2582</ele>
        <time>2022-07-26T09:53:44Z</time>
      </trkpt>
      <trkpt lat="45.6522" lon="6.66659">
        <ele>2582</ele>
        <time>2022-07-26T09:53:45Z</time>
      </trkpt>
      <trkpt lat="45.65219" lon="6.66659">
        <ele>2582</ele>
        <time>2022-07-26T09:53:46Z</time>
      </trkpt>
      <trkpt lat="45.65218" lon="6.66659">
        <ele>2582</ele>
        <time>2022-07-26T09:53:47Z</time>
      </trkpt>
      <trkpt lat="45.65217" lon="6.66659">
        <ele>2582</ele>
        <time>2022-07-26T09:53:48Z</time>
      </trkpt>
      <trkpt lat="45.65217" lon="6.66659">
        <ele>2582</ele>
        <time>2022-07-26T09:53:49Z</time>
      </trkpt>
      <trkpt lat="45.65216" lon="6.6666">
        <ele>2582</ele>
        <time>2022-07-26T09:53:50Z</time>
      </trkpt>
      <trkpt lat="45.65215" lon="6.6666">
        <ele>2582</ele>
        <time>2022-07-26T09:53:51Z</time>
      </trkpt>
      <trkpt lat="45.65214" lon="6.6666">
        <ele>2582</ele>
        <time>2022-07-26T09:53:52Z</time>
      </trkpt>
      <trkpt lat="45.65213" lon="6.6666">
        <ele>2581</ele>
        <time>2022-07-26T09:53:53Z</time>
      </trkpt>
      <trkpt lat="45.65212" lon="6.66661">
        <ele>2581</ele>
        <time>2022-07-26T09:53:54Z</time>
      </trkpt>
      <trkpt lat="45.65211" lon="6.66661">
        <ele>2581</ele>
        <time>2022-07-26T09:53:55Z</time>
      </trkpt>
      <trkpt lat="45.6521" lon="6.66661">
        <ele>2581</ele>
        <time>2022-07-26T09:53:56Z</time>
      </trkpt>
      <trkpt lat="45.6521" lon="6.66661">
        <ele>2581</ele>
        <time>2022-07-26T09:53:57Z</time>
      </trkpt>
      <trkpt lat="45.65209" lon="6.66661">
        <ele>2580</ele>
        <time>2022-07-26T09:53:58Z</time>
      </trkpt>
      <trkpt lat="45.65209" lon="6.6666">
        <ele>2580</ele>
        <time>2022-07-26T09:53:59Z</time>
      </trkpt>
      <trkpt lat="45.65208" lon="6.6666">
        <ele>2580</ele>
        <time>2022-07-26T09:54:00Z</time>
      </trkpt>
      <trkpt lat="45.65208" lon="6.6666">
        <ele>2580</ele>
        <time>2022-07-26T09:54:01Z</time>
      </trkpt>
      <trkpt lat="45.65207" lon="6.66659">
        <ele>2580</ele>
        <time>2022-07-26T09:54:02Z</time>
      </trkpt>
      <trkpt lat="45.65207" lon="6.66659">
        <ele>2579</ele>
        <time>2022-07-26T09:54:03Z</time>
      </trkpt>
      <trkpt lat="45.65206" lon="6.66659">
        <ele>2579</ele>
        <time>2022-07-26T09:54:04Z</time>
      </trkpt>
      <trkpt lat="45.65205" lon="6.66659">
        <ele>2579</ele>
        <time>2022-07-26T09:54:05Z</time>
      </trkpt>
      <trkpt lat="45.65204" lon="6.66658">
        <ele>2579</ele>
        <time>2022-07-26T09:54:06Z</time>
      </trkpt>
      <trkpt lat="45.65203" lon="6.66658">
        <ele>2579</ele>
        <time>2022-07-26T09:54:07Z</time>
      </trkpt>
      <trkpt lat="45.65203" lon="6.66658">
        <ele>2579</ele>
        <time>2022-07-26T09:54:08Z</time>
      </trkpt>
      <trkpt lat="45.65201" lon="6.66657">
        <ele>2577</ele>
        <time>2022-07-26T09:54:32Z</time>
      </trkpt>
      <trkpt lat="45.652" lon="6.66657">
        <ele>2577</ele>
        <time>2022-07-26T09:54:33Z</time>
      </trkpt>
      <trkpt lat="45.65199" lon="6.66657">
        <ele>2577</ele>
        <time>2022-07-26T09:54:34Z</time>
      </trkpt>
      <trkpt lat="45.65198" lon="6.66656">
        <ele>2577</ele>
        <time>2022-07-26T09:54:35Z</time>
      </trkpt>
      <trkpt lat="45.65197" lon="6.66656">
        <ele>2577</ele>
        <time>2022-07-26T09:54:36Z</time>
      </trkpt>
      <trkpt lat="45.65196" lon="6.66655">
        <ele>2577</ele>
        <time>2022-07-26T09:54:37Z</time>
      </trkpt>
      <trkpt lat="45.65196" lon="6.66655">
        <ele>2577</ele>
        <time>2022-07-26T09:54:38Z</time>
      </trkpt>
      <trkpt lat="45.65195" lon="6.66654">
        <ele>2577</ele>
        <time>2022-07-26T09:54:39Z</time>
      </trkpt>
      <trkpt lat="45.65194" lon="6.66654">
        <ele>2577</ele>
        <time>2022-07-26T09:54:40Z</time>
      </trkpt>
      <trkpt lat="45.65193" lon="6.66653">
        <ele>2577</ele>
        <time>2022-07-26T09:54:41Z</time>
      </trkpt>
      <trkpt lat="45.65192" lon="6.66652">
        <ele>2577</ele>
        <time>2022-07-26T09:54:42Z</time>
      </trkpt>
      <trkpt lat="45.65192" lon="6.66651">
        <ele>2576</ele>
        <time>2022-07-26T09:54:43Z</time>
      </trkpt>
      <trkpt lat="45.65191" lon="6.6665">
        <ele>2576</ele>
        <time>2022-07-26T09:54:44Z</time>
      </trkpt>
      <trkpt lat="45.6519" lon="6.66649">
        <ele>2576</ele>
        <time>2022-07-26T09:54:45Z</time>
      </trkpt>
      <trkpt lat="45.65189" lon="6.66648">
        <ele>2576</ele>
        <time>2022-07-26T09:54:46Z</time>
      </trkpt>
      <trkpt lat="45.65188" lon="6.66648">
        <ele>2576</ele>
        <time>2022-07-26T09:54:47Z</time>
      </trkpt>
      <trkpt lat="45.65187" lon="6.66647">
        <ele>2575</ele>
        <time>2022-07-26T09:54:48Z</time>
      </trkpt>
      <trkpt lat="45.65187" lon="6.66647">
        <ele>2575</ele>
        <time>2022-07-26T09:54:49Z</time>
      </trkpt>
      <trkpt lat="45.65186" lon="6.66646">
        <ele>2575</ele>
        <time>2022-07-26T09:54:50Z</time>
      </trkpt>
      <trkpt lat="45.65185" lon="6.66645">
        <ele>2575</ele>
        <time>2022-07-26T09:54:51Z</time>
      </trkpt>
      <trkpt lat="45.65185" lon="6.66644">
        <ele>2575</ele>
        <time>2022-07-26T09:54:52Z</time>
      </trkpt>
      <trkpt lat="45.65184" lon="6.66643">
        <ele>2574</ele>
        <time>2022-07-26T09:54:53Z</time>
      </trkpt>
      <trkpt lat="45.65184" lon="6.66642">
        <ele>2574</ele>
        <time>2022-07-26T09:54:54Z</time>
      </trkpt>
      <trkpt lat="45.65184" lon="6.66641">
        <ele>2574</ele>
        <time>2022-07-26T09:54:55Z</time>
      </trkpt>
      <trkpt lat="45.65183" lon="6.6664">
        <ele>2574</ele>
        <time>2022-07-26T09:54:56Z</time>
      </trkpt>
      <trkpt lat="45.65183" lon="6.6664">
        <ele>2574</ele>
        <time>2022-07-26T09:54:57Z</time>
      </trkpt>
      <trkpt lat="45.65182" lon="6.66639">
        <ele>2573</ele>
        <time>2022-07-26T09:54:58Z</time>
      </trkpt>
      <trkpt lat="45.65182" lon="6.66639">
        <ele>2573</ele>
        <time>2022-07-26T09:54:59Z</time>
      </trkpt>
      <trkpt lat="45.65181" lon="6.6664">
        <ele>2573</ele>
        <time>2022-07-26T09:55:00Z</time>
      </trkpt>
      <trkpt lat="45.6518" lon="6.6664">
        <ele>2573</ele>
        <time>2022-07-26T09:55:01Z</time>
      </trkpt>
      <trkpt lat="45.65179" lon="6.6664">
        <ele>2573</ele>
        <time>2022-07-26T09:55:02Z</time>
      </trkpt>
      <trkpt lat="45.65179" lon="6.66641">
        <ele>2572</ele>
        <time>2022-07-26T09:55:03Z</time>
      </trkpt>
      <trkpt lat="45.65178" lon="6.66641">
        <ele>2572</ele>
        <time>2022-07-26T09:55:04Z</time>
      </trkpt>
      <trkpt lat="45.65177" lon="6.66641">
        <ele>2572</ele>
        <time>2022-07-26T09:55:05Z</time>
      </trkpt>
      <trkpt lat="45.65177" lon="6.66641">
        <ele>2572</ele>
        <time>2022-07-26T09:55:06Z</time>
      </trkpt>
      <trkpt lat="45.65177" lon="6.66641">
        <ele>2572</ele>
        <time>2022-07-26T09:55:07Z</time>
      </trkpt>
      <trkpt lat="45.65176" lon="6.66641">
        <ele>2571</ele>
        <time>2022-07-26T09:55:08Z</time>
      </trkpt>
      <trkpt lat="45.65177" lon="6.6664">
        <ele>2571</ele>
        <time>2022-07-26T09:55:09Z</time>
      </trkpt>
      <trkpt lat="45.65177" lon="6.66639">
        <ele>2571</ele>
        <time>2022-07-26T09:55:10Z</time>
      </trkpt>
      <trkpt lat="45.65177" lon="6.66638">
        <ele>2571</ele>
        <time>2022-07-26T09:55:11Z</time>
      </trkpt>
      <trkpt lat="45.65177" lon="6.66637">
        <ele>2571</ele>
        <time>2022-07-26T09:55:12Z</time>
      </trkpt>
      <trkpt lat="45.65177" lon="6.66636">
        <ele>2570</ele>
        <time>2022-07-26T09:55:13Z</time>
      </trkpt>
      <trkpt lat="45.65177" lon="6.66635">
        <ele>2570</ele>
        <time>2022-07-26T09:55:14Z</time>
      </trkpt>
      <trkpt lat="45.65176" lon="6.66634">
        <ele>2570</ele>
        <time>2022-07-26T09:55:15Z</time>
      </trkpt>
      <trkpt lat="45.65176" lon="6.66634">
        <ele>2570</ele>
        <time>2022-07-26T09:55:16Z</time>
      </trkpt>
      <trkpt lat="45.65175" lon="6.66634">
        <ele>2570</ele>
        <time>2022-07-26T09:55:17Z</time>
      </trkpt>
      <trkpt lat="45.65175" lon="6.66634">
        <ele>2570</ele>
        <time>2022-07-26T09:55:18Z</time>
      </trkpt>
      <trkpt lat="45.65174" lon="6.66634">
        <ele>2570</ele>
        <time>2022-07-26T09:55:19Z</time>
      </trkpt>
      <trkpt lat="45.65173" lon="6.66635">
        <ele>2570</ele>
        <time>2022-07-26T09:55:20Z</time>
      </trkpt>
      <trkpt lat="45.65173" lon="6.66636">
        <ele>2570</ele>
        <time>2022-07-26T09:55:21Z</time>
      </trkpt>
      <trkpt lat="45.65173" lon="6.66636">
        <ele>2570</ele>
        <time>2022-07-26T09:55:22Z</time>
      </trkpt>
      <trkpt lat="45.65172" lon="6.66637">
        <ele>2570</ele>
        <time>2022-07-26T09:55:23Z</time>
      </trkpt>
      <trkpt lat="45.65172" lon="6.66638">
        <ele>2570</ele>
        <time>2022-07-26T09:55:24Z</time>
      </trkpt>
      <trkpt lat="45.65172" lon="6.66638">
        <ele>2570</ele>
        <time>2022-07-26T09:55:25Z</time>
      </trkpt>
      <trkpt lat="45.65172" lon="6.66639">
        <ele>2570</ele>
        <time>2022-07-26T09:55:26Z</time>
      </trkpt>
      <trkpt lat="45.65172" lon="6.66639">
        <ele>2570</ele>
        <time>2022-07-26T09:55:27Z</time>
      </trkpt>
      <trkpt lat="45.6517" lon="6.66639">
        <ele>2568</ele>
        <time>2022-07-26T09:55:50Z</time>
      </trkpt>
      <trkpt lat="45.65169" lon="6.66638">
        <ele>2568</ele>
        <time>2022-07-26T09:55:51Z</time>
      </trkpt>
      <trkpt lat="45.65167" lon="6.66638">
        <ele>2568</ele>
        <time>2022-07-26T09:55:52Z</time>
      </trkpt>
      <trkpt lat="45.65167" lon="6.66638">
        <ele>2568</ele>
        <time>2022-07-26T09:55:53Z</time>
      </trkpt>
      <trkpt lat="45.65166" lon="6.66638">
        <ele>2568</ele>
        <time>2022-07-26T09:55:54Z</time>
      </trkpt>
      <trkpt lat="45.65165" lon="6.66638">
        <ele>2568</ele>
        <time>2022-07-26T09:55:55Z</time>
      </trkpt>
      <trkpt lat="45.65164" lon="6.66638">
        <ele>2568</ele>
        <time>2022-07-26T09:55:56Z</time>
      </trkpt>
      <trkpt lat="45.65163" lon="6.66639">
        <ele>2568</ele>
        <time>2022-07-26T09:55:57Z</time>
      </trkpt>
      <trkpt lat="45.65162" lon="6.66639">
        <ele>2567</ele>
        <time>2022-07-26T09:55:58Z</time>
      </trkpt>
      <trkpt lat="45.65161" lon="6.6664">
        <ele>2567</ele>
        <time>2022-07-26T09:55:59Z</time>
      </trkpt>
      <trkpt lat="45.6516" lon="6.6664">
        <ele>2567</ele>
        <time>2022-07-26T09:56:00Z</time>
      </trkpt>
      <trkpt lat="45.65159" lon="6.66641">
        <ele>2567</ele>
        <time>2022-07-26T09:56:01Z</time>
      </trkpt>
      <trkpt lat="45.65158" lon="6.66641">
        <ele>2567</ele>
        <time>2022-07-26T09:56:02Z</time>
      </trkpt>
      <trkpt lat="45.65157" lon="6.66642">
        <ele>2566</ele>
        <time>2022-07-26T09:56:03Z</time>
      </trkpt>
      <trkpt lat="45.65157" lon="6.66643">
        <ele>2566</ele>
        <time>2022-07-26T09:56:04Z</time>
      </trkpt>
      <trkpt lat="45.65156" lon="6.66643">
        <ele>2566</ele>
        <time>2022-07-26T09:56:05Z</time>
      </trkpt>
      <trkpt lat="45.65155" lon="6.66644">
        <ele>2566</ele>
        <time>2022-07-26T09:56:06Z</time>
      </trkpt>
      <trkpt lat="45.65155" lon="6.66644">
        <ele>2566</ele>
        <time>2022-07-26T09:56:07Z</time>
      </trkpt>
      <trkpt lat="45.65154" lon="6.66644">
        <ele>2565</ele>
        <time>2022-07-26T09:56:08Z</time>
      </trkpt>
      <trkpt lat="45.65153" lon="6.66644">
        <ele>2565</ele>
        <time>2022-07-26T09:56:09Z</time>
      </trkpt>
      <trkpt lat="45.65152" lon="6.66644">
        <ele>2565</ele>
        <time>2022-07-26T09:56:10Z</time>
      </trkpt>
      <trkpt lat="45.65151" lon="6.66644">
        <ele>2565</ele>
        <time>2022-07-26T09:56:11Z</time>
      </trkpt>
      <trkpt lat="45.6515" lon="6.66643">
        <ele>2565</ele>
        <time>2022-07-26T09:56:12Z</time>
      </trkpt>
      <trkpt lat="45.65149" lon="6.66643">
        <ele>2565</ele>
        <time>2022-07-26T09:56:13Z</time>
      </trkpt>
      <trkpt lat="45.65149" lon="6.66643">
        <ele>2565</ele>
        <time>2022-07-26T09:56:14Z</time>
      </trkpt>
      <trkpt lat="45.65148" lon="6.66643">
        <ele>2565</ele>
        <time>2022-07-26T09:56:15Z</time>
      </trkpt>
      <trkpt lat="45.65147" lon="6.66643">
        <ele>2565</ele>
        <time>2022-07-26T09:56:16Z</time>
      </trkpt>
      <trkpt lat="45.65147" lon="6.66643">
        <ele>2565</ele>
        <time>2022-07-26T09:56:17Z</time>
      </trkpt>
      <trkpt lat="45.65146" lon="6.66643">
        <ele>2564</ele>
        <time>2022-07-26T09:56:18Z</time>
      </trkpt>
      <trkpt lat="45.65145" lon="6.66643">
        <ele>2564</ele>
        <time>2022-07-26T09:56:19Z</time>
      </trkpt>
      <trkpt lat="45.65145" lon="6.66643">
        <ele>2564</ele>
        <time>2022-07-26T09:56:20Z</time>
      </trkpt>
      <trkpt lat="45.65144" lon="6.66642">
        <ele>2564</ele>
        <time>2022-07-26T09:56:21Z</time>
      </trkpt>
      <trkpt lat="45.65144" lon="6.66641">
        <ele>2564</ele>
        <time>2022-07-26T09:56:22Z</time>
      </trkpt>
      <trkpt lat="45.65144" lon="6.6664">
        <ele>2563</ele>
        <time>2022-07-26T09:56:23Z</time>
      </trkpt>
      <trkpt lat="45.65143" lon="6.6664">
        <ele>2563</ele>
        <time>2022-07-26T09:56:24Z</time>
      </trkpt>
      <trkpt lat="45.65143" lon="6.66639">
        <ele>2563</ele>
        <time>2022-07-26T09:56:25Z</time>
      </trkpt>
      <trkpt lat="45.65142" lon="6.66639">
        <ele>2563</ele>
        <time>2022-07-26T09:56:26Z</time>
      </trkpt>
      <trkpt lat="45.65141" lon="6.66639">
        <ele>2563</ele>
        <time>2022-07-26T09:56:27Z</time>
      </trkpt>
      <trkpt lat="45.65141" lon="6.66638">
        <ele>2563</ele>
        <time>2022-07-26T09:56:28Z</time>
      </trkpt>
      <trkpt lat="45.6514" lon="6.66638">
        <ele>2563</ele>
        <time>2022-07-26T09:56:29Z</time>
      </trkpt>
      <trkpt lat="45.65139" lon="6.66638">
        <ele>2563</ele>
        <time>2022-07-26T09:56:30Z</time>
      </trkpt>
      <trkpt lat="45.65138" lon="6.66638">
        <ele>2563</ele>
        <time>2022-07-26T09:56:31Z</time>
      </trkpt>
      <trkpt lat="45.65137" lon="6.66638">
        <ele>2563</ele>
        <time>2022-07-26T09:56:32Z</time>
      </trkpt>
      <trkpt lat="45.65136" lon="6.66638">
        <ele>2562</ele>
        <time>2022-07-26T09:56:33Z</time>
      </trkpt>
      <trkpt lat="45.65135" lon="6.66639">
        <ele>2562</ele>
        <time>2022-07-26T09:56:34Z</time>
      </trkpt>
      <trkpt lat="45.65135" lon="6.66639">
        <ele>2562</ele>
        <time>2022-07-26T09:56:35Z</time>
      </trkpt>
      <trkpt lat="45.65134" lon="6.66639">
        <ele>2562</ele>
        <time>2022-07-26T09:56:36Z</time>
      </trkpt>
      <trkpt lat="45.65134" lon="6.66639">
        <ele>2562</ele>
        <time>2022-07-26T09:56:37Z</time>
      </trkpt>
      <trkpt lat="45.65133" lon="6.66639">
        <ele>2561</ele>
        <time>2022-07-26T09:56:38Z</time>
      </trkpt>
      <trkpt lat="45.65132" lon="6.66638">
        <ele>2561</ele>
        <time>2022-07-26T09:56:39Z</time>
      </trkpt>
      <trkpt lat="45.65131" lon="6.66638">
        <ele>2561</ele>
        <time>2022-07-26T09:56:40Z</time>
      </trkpt>
      <trkpt lat="45.65131" lon="6.66638">
        <ele>2561</ele>
        <time>2022-07-26T09:56:41Z</time>
      </trkpt>
      <trkpt lat="45.6513" lon="6.66637">
        <ele>2561</ele>
        <time>2022-07-26T09:56:42Z</time>
      </trkpt>
      <trkpt lat="45.65129" lon="6.66637">
        <ele>2560</ele>
        <time>2022-07-26T09:56:43Z</time>
      </trkpt>
      <trkpt lat="45.65129" lon="6.66637">
        <ele>2560</ele>
        <time>2022-07-26T09:56:44Z</time>
      </trkpt>
      <trkpt lat="45.65128" lon="6.66636">
        <ele>2560</ele>
        <time>2022-07-26T09:56:45Z</time>
      </trkpt>
      <trkpt lat="45.65127" lon="6.66636">
        <ele>2560</ele>
        <time>2022-07-26T09:56:46Z</time>
      </trkpt>
      <trkpt lat="45.65126" lon="6.66635">
        <ele>2560</ele>
        <time>2022-07-26T09:56:47Z</time>
      </trkpt>
      <trkpt lat="45.65126" lon="6.66635">
        <ele>2559</ele>
        <time>2022-07-26T09:56:48Z</time>
      </trkpt>
      <trkpt lat="45.65125" lon="6.66635">
        <ele>2559</ele>
        <time>2022-07-26T09:56:49Z</time>
      </trkpt>
      <trkpt lat="45.65124" lon="6.66635">
        <ele>2559</ele>
        <time>2022-07-26T09:56:50Z</time>
      </trkpt>
      <trkpt lat="45.65123" lon="6.66635">
        <ele>2559</ele>
        <time>2022-07-26T09:56:51Z</time>
      </trkpt>
      <trkpt lat="45.65122" lon="6.66635">
        <ele>2559</ele>
        <time>2022-07-26T09:56:52Z</time>
      </trkpt>
      <trkpt lat="45.65121" lon="6.66636">
        <ele>2559</ele>
        <time>2022-07-26T09:56:53Z</time>
      </trkpt>
      <trkpt lat="45.6512" lon="6.66637">
        <ele>2559</ele>
        <time>2022-07-26T09:56:54Z</time>
      </trkpt>
      <trkpt lat="45.6512" lon="6.66637">
        <ele>2559</ele>
        <time>2022-07-26T09:56:55Z</time>
      </trkpt>
      <trkpt lat="45.65119" lon="6.66638">
        <ele>2559</ele>
        <time>2022-07-26T09:56:56Z</time>
      </trkpt>
      <trkpt lat="45.65119" lon="6.66639">
        <ele>2559</ele>
        <time>2022-07-26T09:56:57Z</time>
      </trkpt>
      <trkpt lat="45.65118" lon="6.6664">
        <ele>2558</ele>
        <time>2022-07-26T09:56:58Z</time>
      </trkpt>
      <trkpt lat="45.65118" lon="6.6664">
        <ele>2558</ele>
        <time>2022-07-26T09:56:59Z</time>
      </trkpt>
      <trkpt lat="45.65117" lon="6.66641">
        <ele>2558</ele>
        <time>2022-07-26T09:57:00Z</time>
      </trkpt>
      <trkpt lat="45.65116" lon="6.66641">
        <ele>2558</ele>
        <time>2022-07-26T09:57:01Z</time>
      </trkpt>
      <trkpt lat="45.65116" lon="6.66642">
        <ele>2558</ele>
        <time>2022-07-26T09:57:02Z</time>
      </trkpt>
      <trkpt lat="45.65115" lon="6.66643">
        <ele>2557</ele>
        <time>2022-07-26T09:57:03Z</time>
      </trkpt>
      <trkpt lat="45.65115" lon="6.66643">
        <ele>2557</ele>
        <time>2022-07-26T09:57:04Z</time>
      </trkpt>
      <trkpt lat="45.65114" lon="6.66643">
        <ele>2556</ele>
        <time>2022-07-26T09:57:05Z</time>
      </trkpt>
      <trkpt lat="45.65114" lon="6.66644">
        <ele>2556</ele>
        <time>2022-07-26T09:57:06Z</time>
      </trkpt>
      <trkpt lat="45.65113" lon="6.66644">
        <ele>2556</ele>
        <time>2022-07-26T09:57:07Z</time>
      </trkpt>
      <trkpt lat="45.65112" lon="6.66645">
        <ele>2556</ele>
        <time>2022-07-26T09:57:08Z</time>
      </trkpt>
      <trkpt lat="45.65111" lon="6.66645">
        <ele>2556</ele>
        <time>2022-07-26T09:57:09Z</time>
      </trkpt>
      <trkpt lat="45.6511" lon="6.66645">
        <ele>2556</ele>
        <time>2022-07-26T09:57:10Z</time>
      </trkpt>
      <trkpt lat="45.6511" lon="6.66644">
        <ele>2556</ele>
        <time>2022-07-26T09:57:11Z</time>
      </trkpt>
      <trkpt lat="45.65109" lon="6.66644">
        <ele>2556</ele>
        <time>2022-07-26T09:57:12Z</time>
      </trkpt>
      <trkpt lat="45.65108" lon="6.66644">
        <ele>2555</ele>
        <time>2022-07-26T09:57:13Z</time>
      </trkpt>
      <trkpt lat="45.65107" lon="6.66644">
        <ele>2555</ele>
        <time>2022-07-26T09:57:14Z</time>
      </trkpt>
      <trkpt lat="45.65107" lon="6.66644">
        <ele>2555</ele>
        <time>2022-07-26T09:57:15Z</time>
      </trkpt>
      <trkpt lat="45.65106" lon="6.66645">
        <ele>2555</ele>
        <time>2022-07-26T09:57:16Z</time>
      </trkpt>
      <trkpt lat="45.65105" lon="6.66645">
        <ele>2555</ele>
        <time>2022-07-26T09:57:17Z</time>
      </trkpt>
      <trkpt lat="45.65105" lon="6.66644">
        <ele>2554</ele>
        <time>2022-07-26T09:57:18Z</time>
      </trkpt>
      <trkpt lat="45.65104" lon="6.66644">
        <ele>2554</ele>
        <time>2022-07-26T09:57:19Z</time>
      </trkpt>
      <trkpt lat="45.65103" lon="6.66643">
        <ele>2553</ele>
        <time>2022-07-26T09:57:27Z</time>
      </trkpt>
      <trkpt lat="45.65102" lon="6.66643">
        <ele>2553</ele>
        <time>2022-07-26T09:57:28Z</time>
      </trkpt>
      <trkpt lat="45.65102" lon="6.66642">
        <ele>2553</ele>
        <time>2022-07-26T09:57:29Z</time>
      </trkpt>
      <trkpt lat="45.65102" lon="6.66641">
        <ele>2553</ele>
        <time>2022-07-26T09:57:30Z</time>
      </trkpt>
      <trkpt lat="45.65102" lon="6.66641">
        <ele>2553</ele>
        <time>2022-07-26T09:57:31Z</time>
      </trkpt>
      <trkpt lat="45.65101" lon="6.6664">
        <ele>2553</ele>
        <time>2022-07-26T09:57:32Z</time>
      </trkpt>
      <trkpt lat="45.65101" lon="6.66639">
        <ele>2552</ele>
        <time>2022-07-26T09:57:33Z</time>
      </trkpt>
      <trkpt lat="45.651" lon="6.66638">
        <ele>2552</ele>
        <time>2022-07-26T09:57:34Z</time>
      </trkpt>
      <trkpt lat="45.651" lon="6.66637">
        <ele>2552</ele>
        <time>2022-07-26T09:57:35Z</time>
      </trkpt>
      <trkpt lat="45.65099" lon="6.66636">
        <ele>2552</ele>
        <time>2022-07-26T09:57:36Z</time>
      </trkpt>
      <trkpt lat="45.65098" lon="6.66635">
        <ele>2552</ele>
        <time>2022-07-26T09:57:37Z</time>
      </trkpt>
      <trkpt lat="45.65098" lon="6.66634">
        <ele>2552</ele>
        <time>2022-07-26T09:57:38Z</time>
      </trkpt>
      <trkpt lat="45.65098" lon="6.66633">
        <ele>2552</ele>
        <time>2022-07-26T09:57:39Z</time>
      </trkpt>
      <trkpt lat="45.65097" lon="6.66632">
        <ele>2552</ele>
        <time>2022-07-26T09:57:40Z</time>
      </trkpt>
      <trkpt lat="45.65097" lon="6.66631">
        <ele>2552</ele>
        <time>2022-07-26T09:57:41Z</time>
      </trkpt>
      <trkpt lat="45.65096" lon="6.6663">
        <ele>2552</ele>
        <time>2022-07-26T09:57:42Z</time>
      </trkpt>
      <trkpt lat="45.65096" lon="6.6663">
        <ele>2551</ele>
        <time>2022-07-26T09:57:43Z</time>
      </trkpt>
      <trkpt lat="45.65095" lon="6.66629">
        <ele>2551</ele>
        <time>2022-07-26T09:57:44Z</time>
      </trkpt>
      <trkpt lat="45.65095" lon="6.66629">
        <ele>2551</ele>
        <time>2022-07-26T09:57:45Z</time>
      </trkpt>
      <trkpt lat="45.65094" lon="6.66629">
        <ele>2551</ele>
        <time>2022-07-26T09:57:46Z</time>
      </trkpt>
      <trkpt lat="45.65094" lon="6.66628">
        <ele>2551</ele>
        <time>2022-07-26T09:57:47Z</time>
      </trkpt>
      <trkpt lat="45.65093" lon="6.66628">
        <ele>2550</ele>
        <time>2022-07-26T09:57:48Z</time>
      </trkpt>
      <trkpt lat="45.65093" lon="6.66627">
        <ele>2550</ele>
        <time>2022-07-26T09:57:49Z</time>
      </trkpt>
      <trkpt lat="45.65092" lon="6.66627">
        <ele>2550</ele>
        <time>2022-07-26T09:57:50Z</time>
      </trkpt>
      <trkpt lat="45.65091" lon="6.66625">
        <ele>2548</ele>
        <time>2022-07-26T09:58:00Z</time>
      </trkpt>
      <trkpt lat="45.6509" lon="6.66624">
        <ele>2548</ele>
        <time>2022-07-26T09:58:01Z</time>
      </trkpt>
      <trkpt lat="45.65089" lon="6.66624">
        <ele>2548</ele>
        <time>2022-07-26T09:58:02Z</time>
      </trkpt>
      <trkpt lat="45.65089" lon="6.66623">
        <ele>2548</ele>
        <time>2022-07-26T09:58:03Z</time>
      </trkpt>
      <trkpt lat="45.65088" lon="6.66623">
        <ele>2548</ele>
        <time>2022-07-26T09:58:04Z</time>
      </trkpt>
      <trkpt lat="45.65088" lon="6.66622">
        <ele>2548</ele>
        <time>2022-07-26T09:58:05Z</time>
      </trkpt>
      <trkpt lat="45.65087" lon="6.66622">
        <ele>2548</ele>
        <time>2022-07-26T09:58:06Z</time>
      </trkpt>
      <trkpt lat="45.65087" lon="6.66621">
        <ele>2548</ele>
        <time>2022-07-26T09:58:07Z</time>
      </trkpt>
      <trkpt lat="45.65087" lon="6.6662">
        <ele>2547</ele>
        <time>2022-07-26T09:58:08Z</time>
      </trkpt>
      <trkpt lat="45.65086" lon="6.66619">
        <ele>2547</ele>
        <time>2022-07-26T09:58:09Z</time>
      </trkpt>
      <trkpt lat="45.65086" lon="6.66619">
        <ele>2547</ele>
        <time>2022-07-26T09:58:10Z</time>
      </trkpt>
      <trkpt lat="45.65085" lon="6.66618">
        <ele>2547</ele>
        <time>2022-07-26T09:58:11Z</time>
      </trkpt>
      <trkpt lat="45.65085" lon="6.66617">
        <ele>2547</ele>
        <time>2022-07-26T09:58:12Z</time>
      </trkpt>
      <trkpt lat="45.65084" lon="6.66617">
        <ele>2546</ele>
        <time>2022-07-26T09:58:13Z</time>
      </trkpt>
      <trkpt lat="45.65083" lon="6.66616">
        <ele>2546</ele>
        <time>2022-07-26T09:58:14Z</time>
      </trkpt>
      <trkpt lat="45.65083" lon="6.66616">
        <ele>2546</ele>
        <time>2022-07-26T09:58:15Z</time>
      </trkpt>
      <trkpt lat="45.65082" lon="6.66615">
        <ele>2546</ele>
        <time>2022-07-26T09:58:16Z</time>
      </trkpt>
      <trkpt lat="45.65081" lon="6.66614">
        <ele>2546</ele>
        <time>2022-07-26T09:58:17Z</time>
      </trkpt>
      <trkpt lat="45.65081" lon="6.66613">
        <ele>2545</ele>
        <time>2022-07-26T09:58:18Z</time>
      </trkpt>
      <trkpt lat="45.6508" lon="6.66612">
        <ele>2545</ele>
        <time>2022-07-26T09:58:19Z</time>
      </trkpt>
      <trkpt lat="45.65079" lon="6.66612">
        <ele>2545</ele>
        <time>2022-07-26T09:58:20Z</time>
      </trkpt>
      <trkpt lat="45.65079" lon="6.66611">
        <ele>2545</ele>
        <time>2022-07-26T09:58:21Z</time>
      </trkpt>
      <trkpt lat="45.65078" lon="6.66611">
        <ele>2545</ele>
        <time>2022-07-26T09:58:22Z</time>
      </trkpt>
      <trkpt lat="45.65077" lon="6.6661">
        <ele>2545</ele>
        <time>2022-07-26T09:58:23Z</time>
      </trkpt>
      <trkpt lat="45.65076" lon="6.6661">
        <ele>2545</ele>
        <time>2022-07-26T09:58:24Z</time>
      </trkpt>
      <trkpt lat="45.65076" lon="6.6661">
        <ele>2545</ele>
        <time>2022-07-26T09:58:25Z</time>
      </trkpt>
      <trkpt lat="45.65075" lon="6.6661">
        <ele>2545</ele>
        <time>2022-07-26T09:58:26Z</time>
      </trkpt>
      <trkpt lat="45.65074" lon="6.66609">
        <ele>2545</ele>
        <time>2022-07-26T09:58:27Z</time>
      </trkpt>
      <trkpt lat="45.65073" lon="6.66609">
        <ele>2544</ele>
        <time>2022-07-26T09:58:28Z</time>
      </trkpt>
      <trkpt lat="45.65073" lon="6.66609">
        <ele>2544</ele>
        <time>2022-07-26T09:58:29Z</time>
      </trkpt>
      <trkpt lat="45.65072" lon="6.66609">
        <ele>2544</ele>
        <time>2022-07-26T09:58:30Z</time>
      </trkpt>
      <trkpt lat="45.65071" lon="6.66609">
        <ele>2544</ele>
        <time>2022-07-26T09:58:31Z</time>
      </trkpt>
      <trkpt lat="45.6507" lon="6.66609">
        <ele>2544</ele>
        <time>2022-07-26T09:58:32Z</time>
      </trkpt>
      <trkpt lat="45.6507" lon="6.6661">
        <ele>2543</ele>
        <time>2022-07-26T09:58:33Z</time>
      </trkpt>
      <trkpt lat="45.65069" lon="6.6661">
        <ele>2543</ele>
        <time>2022-07-26T09:58:34Z</time>
      </trkpt>
      <trkpt lat="45.65068" lon="6.6661">
        <ele>2543</ele>
        <time>2022-07-26T09:58:35Z</time>
      </trkpt>
      <trkpt lat="45.65067" lon="6.6661">
        <ele>2543</ele>
        <time>2022-07-26T09:58:36Z</time>
      </trkpt>
      <trkpt lat="45.65067" lon="6.6661">
        <ele>2543</ele>
        <time>2022-07-26T09:58:37Z</time>
      </trkpt>
      <trkpt lat="45.65066" lon="6.66611">
        <ele>2542</ele>
        <time>2022-07-26T09:58:38Z</time>
      </trkpt>
      <trkpt lat="45.65065" lon="6.66611">
        <ele>2542</ele>
        <time>2022-07-26T09:58:39Z</time>
      </trkpt>
      <trkpt lat="45.65065" lon="6.66611">
        <ele>2542</ele>
        <time>2022-07-26T09:58:40Z</time>
      </trkpt>
      <trkpt lat="45.65064" lon="6.66611">
        <ele>2542</ele>
        <time>2022-07-26T09:58:41Z</time>
      </trkpt>
      <trkpt lat="45.65063" lon="6.66612">
        <ele>2542</ele>
        <time>2022-07-26T09:58:42Z</time>
      </trkpt>
      <trkpt lat="45.65062" lon="6.66612">
        <ele>2541</ele>
        <time>2022-07-26T09:58:43Z</time>
      </trkpt>
      <trkpt lat="45.65061" lon="6.66612">
        <ele>2541</ele>
        <time>2022-07-26T09:58:44Z</time>
      </trkpt>
      <trkpt lat="45.65061" lon="6.66612">
        <ele>2540</ele>
        <time>2022-07-26T09:58:54Z</time>
      </trkpt>
      <trkpt lat="45.6506" lon="6.66611">
        <ele>2540</ele>
        <time>2022-07-26T09:58:55Z</time>
      </trkpt>
      <trkpt lat="45.6506" lon="6.66611">
        <ele>2540</ele>
        <time>2022-07-26T09:58:56Z</time>
      </trkpt>
      <trkpt lat="45.65059" lon="6.66611">
        <ele>2540</ele>
        <time>2022-07-26T09:58:57Z</time>
      </trkpt>
      <trkpt lat="45.65059" lon="6.66611">
        <ele>2540</ele>
        <time>2022-07-26T09:58:58Z</time>
      </trkpt>
      <trkpt lat="45.65058" lon="6.66611">
        <ele>2540</ele>
        <time>2022-07-26T09:58:59Z</time>
      </trkpt>
      <trkpt lat="45.65057" lon="6.66611">
        <ele>2540</ele>
        <time>2022-07-26T09:59:00Z</time>
      </trkpt>
      <trkpt lat="45.65056" lon="6.66611">
        <ele>2540</ele>
        <time>2022-07-26T09:59:01Z</time>
      </trkpt>
      <trkpt lat="45.65056" lon="6.66612">
        <ele>2540</ele>
        <time>2022-07-26T09:59:02Z</time>
      </trkpt>
      <trkpt lat="45.65055" lon="6.66612">
        <ele>2540</ele>
        <time>2022-07-26T09:59:03Z</time>
      </trkpt>
      <trkpt lat="45.65054" lon="6.66612">
        <ele>2540</ele>
        <time>2022-07-26T09:59:04Z</time>
      </trkpt>
      <trkpt lat="45.65054" lon="6.66612">
        <ele>2540</ele>
        <time>2022-07-26T09:59:05Z</time>
      </trkpt>
      <trkpt lat="45.65053" lon="6.66612">
        <ele>2540</ele>
        <time>2022-07-26T09:59:06Z</time>
      </trkpt>
      <trkpt lat="45.65052" lon="6.66612">
        <ele>2540</ele>
        <time>2022-07-26T09:59:07Z</time>
      </trkpt>
      <trkpt lat="45.65052" lon="6.66612">
        <ele>2539</ele>
        <time>2022-07-26T09:59:08Z</time>
      </trkpt>
      <trkpt lat="45.65051" lon="6.66613">
        <ele>2539</ele>
        <time>2022-07-26T09:59:09Z</time>
      </trkpt>
      <trkpt lat="45.6505" lon="6.66613">
        <ele>2539</ele>
        <time>2022-07-26T09:59:10Z</time>
      </trkpt>
      <trkpt lat="45.65049" lon="6.66614">
        <ele>2539</ele>
        <time>2022-07-26T09:59:11Z</time>
      </trkpt>
      <trkpt lat="45.65049" lon="6.66615">
        <ele>2539</ele>
        <time>2022-07-26T09:59:12Z</time>
      </trkpt>
      <trkpt lat="45.65048" lon="6.66616">
        <ele>2538</ele>
        <time>2022-07-26T09:59:13Z</time>
      </trkpt>
      <trkpt lat="45.65048" lon="6.66617">
        <ele>2538</ele>
        <time>2022-07-26T09:59:14Z</time>
      </trkpt>
      <trkpt lat="45.65047" lon="6.66618">
        <ele>2538</ele>
        <time>2022-07-26T09:59:15Z</time>
      </trkpt>
      <trkpt lat="45.65047" lon="6.66619">
        <ele>2538</ele>
        <time>2022-07-26T09:59:16Z</time>
      </trkpt>
      <trkpt lat="45.65046" lon="6.6662">
        <ele>2538</ele>
        <time>2022-07-26T09:59:17Z</time>
      </trkpt>
      <trkpt lat="45.65046" lon="6.66621">
        <ele>2537</ele>
        <time>2022-07-26T09:59:18Z</time>
      </trkpt>
      <trkpt lat="45.65045" lon="6.66621">
        <ele>2537</ele>
        <time>2022-07-26T09:59:19Z</time>
      </trkpt>
      <trkpt lat="45.65045" lon="6.66622">
        <ele>2536</ele>
        <time>2022-07-26T09:59:20Z</time>
      </trkpt>
      <trkpt lat="45.65044" lon="6.66622">
        <ele>2536</ele>
        <time>2022-07-26T09:59:21Z</time>
      </trkpt>
      <trkpt lat="45.65043" lon="6.66623">
        <ele>2536</ele>
        <time>2022-07-26T09:59:22Z</time>
      </trkpt>
      <trkpt lat="45.65042" lon="6.66623">
        <ele>2535</ele>
        <time>2022-07-26T09:59:23Z</time>
      </trkpt>
      <trkpt lat="45.65042" lon="6.66624">
        <ele>2535</ele>
        <time>2022-07-26T09:59:24Z</time>
      </trkpt>
      <trkpt lat="45.65041" lon="6.66624">
        <ele>2535</ele>
        <time>2022-07-26T09:59:25Z</time>
      </trkpt>
      <trkpt lat="45.65041" lon="6.66624">
        <ele>2535</ele>
        <time>2022-07-26T09:59:26Z</time>
      </trkpt>
      <trkpt lat="45.6504" lon="6.66625">
        <ele>2535</ele>
        <time>2022-07-26T09:59:27Z</time>
      </trkpt>
      <trkpt lat="45.6504" lon="6.66625">
        <ele>2534</ele>
        <time>2022-07-26T09:59:28Z</time>
      </trkpt>
      <trkpt lat="45.65039" lon="6.66626">
        <ele>2534</ele>
        <time>2022-07-26T09:59:29Z</time>
      </trkpt>
      <trkpt lat="45.65039" lon="6.66626">
        <ele>2534</ele>
        <time>2022-07-26T09:59:30Z</time>
      </trkpt>
      <trkpt lat="45.65038" lon="6.66627">
        <ele>2534</ele>
        <time>2022-07-26T09:59:31Z</time>
      </trkpt>
      <trkpt lat="45.65038" lon="6.66627">
        <ele>2534</ele>
        <time>2022-07-26T09:59:32Z</time>
      </trkpt>
      <trkpt lat="45.65037" lon="6.66628">
        <ele>2533</ele>
        <time>2022-07-26T09:59:33Z</time>
      </trkpt>
      <trkpt lat="45.65036" lon="6.66629">
        <ele>2533</ele>
        <time>2022-07-26T09:59:34Z</time>
      </trkpt>
      <trkpt lat="45.65035" lon="6.66629">
        <ele>2533</ele>
        <time>2022-07-26T09:59:35Z</time>
      </trkpt>
      <trkpt lat="45.65034" lon="6.6663">
        <ele>2533</ele>
        <time>2022-07-26T09:59:36Z</time>
      </trkpt>
      <trkpt lat="45.65033" lon="6.66631">
        <ele>2533</ele>
        <time>2022-07-26T09:59:37Z</time>
      </trkpt>
      <trkpt lat="45.65031" lon="6.66631">
        <ele>2532</ele>
        <time>2022-07-26T09:59:38Z</time>
      </trkpt>
      <trkpt lat="45.6503" lon="6.66632">
        <ele>2532</ele>
        <time>2022-07-26T09:59:39Z</time>
      </trkpt>
      <trkpt lat="45.65029" lon="6.66633">
        <ele>2532</ele>
        <time>2022-07-26T09:59:40Z</time>
      </trkpt>
      <trkpt lat="45.65028" lon="6.66634">
        <ele>2532</ele>
        <time>2022-07-26T09:59:41Z</time>
      </trkpt>
      <trkpt lat="45.65027" lon="6.66634">
        <ele>2532</ele>
        <time>2022-07-26T09:59:42Z</time>
      </trkpt>
      <trkpt lat="45.65026" lon="6.66635">
        <ele>2532</ele>
        <time>2022-07-26T09:59:43Z</time>
      </trkpt>
      <trkpt lat="45.65025" lon="6.66635">
        <ele>2532</ele>
        <time>2022-07-26T09:59:44Z</time>
      </trkpt>
      <trkpt lat="45.65024" lon="6.66636">
        <ele>2532</ele>
        <time>2022-07-26T09:59:45Z</time>
      </trkpt>
      <trkpt lat="45.65023" lon="6.66636">
        <ele>2532</ele>
        <time>2022-07-26T09:59:46Z</time>
      </trkpt>
      <trkpt lat="45.65022" lon="6.66637">
        <ele>2532</ele>
        <time>2022-07-26T09:59:47Z</time>
      </trkpt>
      <trkpt lat="45.65021" lon="6.66637">
        <ele>2531</ele>
        <time>2022-07-26T09:59:48Z</time>
      </trkpt>
      <trkpt lat="45.6502" lon="6.66637">
        <ele>2531</ele>
        <time>2022-07-26T09:59:49Z</time>
      </trkpt>
      <trkpt lat="45.6502" lon="6.66638">
        <ele>2531</ele>
        <time>2022-07-26T09:59:50Z</time>
      </trkpt>
      <trkpt lat="45.65019" lon="6.66639">
        <ele>2531</ele>
        <time>2022-07-26T09:59:51Z</time>
      </trkpt>
      <trkpt lat="45.65018" lon="6.6664">
        <ele>2531</ele>
        <time>2022-07-26T09:59:52Z</time>
      </trkpt>
      <trkpt lat="45.65017" lon="6.66641">
        <ele>2530</ele>
        <time>2022-07-26T09:59:53Z</time>
      </trkpt>
      <trkpt lat="45.65016" lon="6.66642">
        <ele>2530</ele>
        <time>2022-07-26T09:59:54Z</time>
      </trkpt>
      <trkpt lat="45.65015" lon="6.66642">
        <ele>2529</ele>
        <time>2022-07-26T09:59:55Z</time>
      </trkpt>
      <trkpt lat="45.65014" lon="6.66643">
        <ele>2529</ele>
        <time>2022-07-26T09:59:56Z</time>
      </trkpt>
      <trkpt lat="45.65013" lon="6.66644">
        <ele>2529</ele>
        <time>2022-07-26T09:59:57Z</time>
      </trkpt>
      <trkpt lat="45.65012" lon="6.66645">
        <ele>2528</ele>
        <time>2022-07-26T09:59:58Z</time>
      </trkpt>
      <trkpt lat="45.65011" lon="6.66645">
        <ele>2528</ele>
        <time>2022-07-26T09:59:59Z</time>
      </trkpt>
      <trkpt lat="45.6501" lon="6.66646">
        <ele>2528</ele>
        <time>2022-07-26T10:00:00Z</time>
      </trkpt>
      <trkpt lat="45.65009" lon="6.66646">
        <ele>2528</ele>
        <time>2022-07-26T10:00:01Z</time>
      </trkpt>
      <trkpt lat="45.65008" lon="6.66647">
        <ele>2528</ele>
        <time>2022-07-26T10:00:02Z</time>
      </trkpt>
      <trkpt lat="45.65007" lon="6.66647">
        <ele>2527</ele>
        <time>2022-07-26T10:00:03Z</time>
      </trkpt>
      <trkpt lat="45.65007" lon="6.66647">
        <ele>2527</ele>
        <time>2022-07-26T10:00:04Z</time>
      </trkpt>
      <trkpt lat="45.65006" lon="6.66647">
        <ele>2527</ele>
        <time>2022-07-26T10:00:05Z</time>
      </trkpt>
      <trkpt lat="45.65005" lon="6.66647">
        <ele>2527</ele>
        <time>2022-07-26T10:00:06Z</time>
      </trkpt>
      <trkpt lat="45.65004" lon="6.66647">
        <ele>2527</ele>
        <time>2022-07-26T10:00:07Z</time>
      </trkpt>
      <trkpt lat="45.65003" lon="6.66647">
        <ele>2526</ele>
        <time>2022-07-26T10:00:08Z</time>
      </trkpt>
      <trkpt lat="45.65003" lon="6.66647">
        <ele>2526</ele>
        <time>2022-07-26T10:00:09Z</time>
      </trkpt>
      <trkpt lat="45.65002" lon="6.66646">
        <ele>2526</ele>
        <time>2022-07-26T10:00:10Z</time>
      </trkpt>
      <trkpt lat="45.65001" lon="6.66646">
        <ele>2526</ele>
        <time>2022-07-26T10:00:11Z</time>
      </trkpt>
      <trkpt lat="45.65" lon="6.66646">
        <ele>2526</ele>
        <time>2022-07-26T10:00:12Z</time>
      </trkpt>
      <trkpt lat="45.64999" lon="6.66645">
        <ele>2525</ele>
        <time>2022-07-26T10:00:13Z</time>
      </trkpt>
      <trkpt lat="45.64998" lon="6.66645">
        <ele>2525</ele>
        <time>2022-07-26T10:00:14Z</time>
      </trkpt>
      <trkpt lat="45.64997" lon="6.66644">
        <ele>2525</ele>
        <time>2022-07-26T10:00:15Z</time>
      </trkpt>
      <trkpt lat="45.64996" lon="6.66644">
        <ele>2525</ele>
        <time>2022-07-26T10:00:16Z</time>
      </trkpt>
      <trkpt lat="45.64996" lon="6.66644">
        <ele>2525</ele>
        <time>2022-07-26T10:00:17Z</time>
      </trkpt>
      <trkpt lat="45.64995" lon="6.66643">
        <ele>2525</ele>
        <time>2022-07-26T10:00:18Z</time>
      </trkpt>
      <trkpt lat="45.64994" lon="6.66643">
        <ele>2525</ele>
        <time>2022-07-26T10:00:19Z</time>
      </trkpt>
      <trkpt lat="45.64993" lon="6.66643">
        <ele>2525</ele>
        <time>2022-07-26T10:00:20Z</time>
      </trkpt>
      <trkpt lat="45.64992" lon="6.66642">
        <ele>2525</ele>
        <time>2022-07-26T10:00:21Z</time>
      </trkpt>
      <trkpt lat="45.64991" lon="6.66642">
        <ele>2525</ele>
        <time>2022-07-26T10:00:22Z</time>
      </trkpt>
      <trkpt lat="45.64991" lon="6.66642">
        <ele>2524</ele>
        <time>2022-07-26T10:00:23Z</time>
      </trkpt>
      <trkpt lat="45.6499" lon="6.66641">
        <ele>2524</ele>
        <time>2022-07-26T10:00:24Z</time>
      </trkpt>
      <trkpt lat="45.64989" lon="6.66641">
        <ele>2524</ele>
        <time>2022-07-26T10:00:25Z</time>
      </trkpt>
      <trkpt lat="45.64988" lon="6.66641">
        <ele>2524</ele>
        <time>2022-07-26T10:00:26Z</time>
      </trkpt>
      <trkpt lat="45.64988" lon="6.66641">
        <ele>2524</ele>
        <time>2022-07-26T10:00:27Z</time>
      </trkpt>
      <trkpt lat="45.64987" lon="6.66641">
        <ele>2523</ele>
        <time>2022-07-26T10:00:28Z</time>
      </trkpt>
      <trkpt lat="45.64986" lon="6.66641">
        <ele>2523</ele>
        <time>2022-07-26T10:00:29Z</time>
      </trkpt>
      <trkpt lat="45.64985" lon="6.66641">
        <ele>2523</ele>
        <time>2022-07-26T10:00:30Z</time>
      </trkpt>
      <trkpt lat="45.64984" lon="6.66641">
        <ele>2523</ele>
        <time>2022-07-26T10:00:31Z</time>
      </trkpt>
      <trkpt lat="45.64983" lon="6.66641">
        <ele>2523</ele>
        <time>2022-07-26T10:00:32Z</time>
      </trkpt>
      <trkpt lat="45.64983" lon="6.66641">
        <ele>2523</ele>
        <time>2022-07-26T10:00:33Z</time>
      </trkpt>
      <trkpt lat="45.64982" lon="6.66641">
        <ele>2523</ele>
        <time>2022-07-26T10:00:34Z</time>
      </trkpt>
      <trkpt lat="45.64981" lon="6.66641">
        <ele>2523</ele>
        <time>2022-07-26T10:00:35Z</time>
      </trkpt>
      <trkpt lat="45.6498" lon="6.66641">
        <ele>2523</ele>
        <time>2022-07-26T10:00:36Z</time>
      </trkpt>
      <trkpt lat="45.6498" lon="6.66641">
        <ele>2523</ele>
        <time>2022-07-26T10:00:37Z</time>
      </trkpt>
      <trkpt lat="45.64979" lon="6.66641">
        <ele>2522</ele>
        <time>2022-07-26T10:00:38Z</time>
      </trkpt>
      <trkpt lat="45.64978" lon="6.66641">
        <ele>2522</ele>
        <time>2022-07-26T10:00:39Z</time>
      </trkpt>
      <trkpt lat="45.64978" lon="6.6664">
        <ele>2522</ele>
        <time>2022-07-26T10:00:40Z</time>
      </trkpt>
      <trkpt lat="45.64977" lon="6.6664">
        <ele>2522</ele>
        <time>2022-07-26T10:00:41Z</time>
      </trkpt>
      <trkpt lat="45.64976" lon="6.6664">
        <ele>2522</ele>
        <time>2022-07-26T10:00:42Z</time>
      </trkpt>
      <trkpt lat="45.64975" lon="6.6664">
        <ele>2521</ele>
        <time>2022-07-26T10:00:50Z</time>
      </trkpt>
      <trkpt lat="45.64975" lon="6.6664">
        <ele>2521</ele>
        <time>2022-07-26T10:00:51Z</time>
      </trkpt>
      <trkpt lat="45.64974" lon="6.6664">
        <ele>2521</ele>
        <time>2022-07-26T10:00:52Z</time>
      </trkpt>
      <trkpt lat="45.64973" lon="6.6664">
        <ele>2520</ele>
        <time>2022-07-26T10:00:53Z</time>
      </trkpt>
      <trkpt lat="45.64972" lon="6.6664">
        <ele>2520</ele>
        <time>2022-07-26T10:00:54Z</time>
      </trkpt>
      <trkpt lat="45.64971" lon="6.6664">
        <ele>2520</ele>
        <time>2022-07-26T10:00:55Z</time>
      </trkpt>
      <trkpt lat="45.6497" lon="6.6664">
        <ele>2520</ele>
        <time>2022-07-26T10:00:56Z</time>
      </trkpt>
      <trkpt lat="45.64969" lon="6.66639">
        <ele>2520</ele>
        <time>2022-07-26T10:00:57Z</time>
      </trkpt>
      <trkpt lat="45.64967" lon="6.66639">
        <ele>2520</ele>
        <time>2022-07-26T10:00:58Z</time>
      </trkpt>
      <trkpt lat="45.64966" lon="6.66638">
        <ele>2520</ele>
        <time>2022-07-26T10:00:59Z</time>
      </trkpt>
      <trkpt lat="45.64965" lon="6.66638">
        <ele>2520</ele>
        <time>2022-07-26T10:01:00Z</time>
      </trkpt>
      <trkpt lat="45.64964" lon="6.66637">
        <ele>2520</ele>
        <time>2022-07-26T10:01:01Z</time>
      </trkpt>
      <trkpt lat="45.64962" lon="6.66637">
        <ele>2520</ele>
        <time>2022-07-26T10:01:02Z</time>
      </trkpt>
      <trkpt lat="45.64961" lon="6.66636">
        <ele>2519</ele>
        <time>2022-07-26T10:01:03Z</time>
      </trkpt>
      <trkpt lat="45.6496" lon="6.66635">
        <ele>2519</ele>
        <time>2022-07-26T10:01:04Z</time>
      </trkpt>
      <trkpt lat="45.64959" lon="6.66634">
        <ele>2519</ele>
        <time>2022-07-26T10:01:05Z</time>
      </trkpt>
      <trkpt lat="45.64958" lon="6.66633">
        <ele>2519</ele>
        <time>2022-07-26T10:01:06Z</time>
      </trkpt>
      <trkpt lat="45.64957" lon="6.66633">
        <ele>2519</ele>
        <time>2022-07-26T10:01:07Z</time>
      </trkpt>
      <trkpt lat="45.64956" lon="6.66632">
        <ele>2518</ele>
        <time>2022-07-26T10:01:08Z</time>
      </trkpt>
      <trkpt lat="45.64955" lon="6.66631">
        <ele>2518</ele>
        <time>2022-07-26T10:01:09Z</time>
      </trkpt>
      <trkpt lat="45.64954" lon="6.6663">
        <ele>2518</ele>
        <time>2022-07-26T10:01:10Z</time>
      </trkpt>
      <trkpt lat="45.64953" lon="6.66629">
        <ele>2518</ele>
        <time>2022-07-26T10:01:11Z</time>
      </trkpt>
      <trkpt lat="45.64953" lon="6.66627">
        <ele>2518</ele>
        <time>2022-07-26T10:01:12Z</time>
      </trkpt>
      <trkpt lat="45.64952" lon="6.66626">
        <ele>2517</ele>
        <time>2022-07-26T10:01:13Z</time>
      </trkpt>
      <trkpt lat="45.64951" lon="6.66624">
        <ele>2517</ele>
        <time>2022-07-26T10:01:14Z</time>
      </trkpt>
      <trkpt lat="45.6495" lon="6.66622">
        <ele>2517</ele>
        <time>2022-07-26T10:01:15Z</time>
      </trkpt>
      <trkpt lat="45.6495" lon="6.66621">
        <ele>2517</ele>
        <time>2022-07-26T10:01:16Z</time>
      </trkpt>
      <trkpt lat="45.64949" lon="6.66619">
        <ele>2517</ele>
        <time>2022-07-26T10:01:17Z</time>
      </trkpt>
      <trkpt lat="45.64948" lon="6.66617">
        <ele>2517</ele>
        <time>2022-07-26T10:01:18Z</time>
      </trkpt>
      <trkpt lat="45.64948" lon="6.66616">
        <ele>2517</ele>
        <time>2022-07-26T10:01:19Z</time>
      </trkpt>
      <trkpt lat="45.64947" lon="6.66614">
        <ele>2517</ele>
        <time>2022-07-26T10:01:20Z</time>
      </trkpt>
      <trkpt lat="45.64947" lon="6.66613">
        <ele>2517</ele>
        <time>2022-07-26T10:01:21Z</time>
      </trkpt>
      <trkpt lat="45.64947" lon="6.66612">
        <ele>2517</ele>
        <time>2022-07-26T10:01:22Z</time>
      </trkpt>
      <trkpt lat="45.64946" lon="6.66611">
        <ele>2516</ele>
        <time>2022-07-26T10:01:23Z</time>
      </trkpt>
      <trkpt lat="45.64946" lon="6.66609">
        <ele>2516</ele>
        <time>2022-07-26T10:01:24Z</time>
      </trkpt>
      <trkpt lat="45.64945" lon="6.66608">
        <ele>2516</ele>
        <time>2022-07-26T10:01:25Z</time>
      </trkpt>
      <trkpt lat="45.64945" lon="6.66607">
        <ele>2516</ele>
        <time>2022-07-26T10:01:26Z</time>
      </trkpt>
      <trkpt lat="45.64944" lon="6.66606">
        <ele>2516</ele>
        <time>2022-07-26T10:01:27Z</time>
      </trkpt>
      <trkpt lat="45.64943" lon="6.66605">
        <ele>2516</ele>
        <time>2022-07-26T10:01:28Z</time>
      </trkpt>
      <trkpt lat="45.64942" lon="6.66605">
        <ele>2516</ele>
        <time>2022-07-26T10:01:29Z</time>
      </trkpt>
      <trkpt lat="45.64941" lon="6.66604">
        <ele>2516</ele>
        <time>2022-07-26T10:01:30Z</time>
      </trkpt>
      <trkpt lat="45.64941" lon="6.66603">
        <ele>2516</ele>
        <time>2022-07-26T10:01:31Z</time>
      </trkpt>
      <trkpt lat="45.6494" lon="6.66603">
        <ele>2516</ele>
        <time>2022-07-26T10:01:32Z</time>
      </trkpt>
      <trkpt lat="45.64939" lon="6.66602">
        <ele>2515</ele>
        <time>2022-07-26T10:01:53Z</time>
      </trkpt>
      <trkpt lat="45.64939" lon="6.66602">
        <ele>2515</ele>
        <time>2022-07-26T10:01:54Z</time>
      </trkpt>
      <trkpt lat="45.64939" lon="6.66601">
        <ele>2515</ele>
        <time>2022-07-26T10:01:55Z</time>
      </trkpt>
      <trkpt lat="45.64939" lon="6.66601">
        <ele>2515</ele>
        <time>2022-07-26T10:01:56Z</time>
      </trkpt>
      <trkpt lat="45.64939" lon="6.666">
        <ele>2515</ele>
        <time>2022-07-26T10:01:57Z</time>
      </trkpt>
      <trkpt lat="45.64939" lon="6.66599">
        <ele>2515</ele>
        <time>2022-07-26T10:01:58Z</time>
      </trkpt>
      <trkpt lat="45.6494" lon="6.66598">
        <ele>2515</ele>
        <time>2022-07-26T10:01:59Z</time>
      </trkpt>
      <trkpt lat="45.64941" lon="6.66596">
        <ele>2514</ele>
        <time>2022-07-26T10:02:12Z</time>
      </trkpt>
      <trkpt lat="45.64941" lon="6.66594">
        <ele>2514</ele>
        <time>2022-07-26T10:02:13Z</time>
      </trkpt>
      <trkpt lat="45.64941" lon="6.66593">
        <ele>2514</ele>
        <time>2022-07-26T10:02:14Z</time>
      </trkpt>
      <trkpt lat="45.64941" lon="6.66592">
        <ele>2514</ele>
        <time>2022-07-26T10:02:15Z</time>
      </trkpt>
      <trkpt lat="45.6494" lon="6.66591">
        <ele>2514</ele>
        <time>2022-07-26T10:02:16Z</time>
      </trkpt>
      <trkpt lat="45.6494" lon="6.6659">
        <ele>2514</ele>
        <time>2022-07-26T10:02:17Z</time>
      </trkpt>
      <trkpt lat="45.6494" lon="6.66589">
        <ele>2514</ele>
        <time>2022-07-26T10:02:18Z</time>
      </trkpt>
      <trkpt lat="45.64939" lon="6.66588">
        <ele>2514</ele>
        <time>2022-07-26T10:02:19Z</time>
      </trkpt>
      <trkpt lat="45.64938" lon="6.66587">
        <ele>2514</ele>
        <time>2022-07-26T10:02:20Z</time>
      </trkpt>
      <trkpt lat="45.64938" lon="6.66587">
        <ele>2514</ele>
        <time>2022-07-26T10:02:21Z</time>
      </trkpt>
      <trkpt lat="45.64937" lon="6.66586">
        <ele>2514</ele>
        <time>2022-07-26T10:02:22Z</time>
      </trkpt>
      <trkpt lat="45.64936" lon="6.66586">
        <ele>2514</ele>
        <time>2022-07-26T10:02:28Z</time>
      </trkpt>
      <trkpt lat="45.64936" lon="6.66585">
        <ele>2514</ele>
        <time>2022-07-26T10:02:29Z</time>
      </trkpt>
      <trkpt lat="45.64936" lon="6.66585">
        <ele>2514</ele>
        <time>2022-07-26T10:02:30Z</time>
      </trkpt>
      <trkpt lat="45.64936" lon="6.66583">
        <ele>2514</ele>
        <time>2022-07-26T10:02:31Z</time>
      </trkpt>
      <trkpt lat="45.64936" lon="6.66582">
        <ele>2514</ele>
        <time>2022-07-26T10:02:32Z</time>
      </trkpt>
      <trkpt lat="45.64937" lon="6.66581">
        <ele>2513</ele>
        <time>2022-07-26T10:02:33Z</time>
      </trkpt>
      <trkpt lat="45.64937" lon="6.6658">
        <ele>2513</ele>
        <time>2022-07-26T10:02:34Z</time>
      </trkpt>
      <trkpt lat="45.64937" lon="6.66578">
        <ele>2513</ele>
        <time>2022-07-26T10:02:35Z</time>
      </trkpt>
      <trkpt lat="45.64938" lon="6.66577">
        <ele>2513</ele>
        <time>2022-07-26T10:02:36Z</time>
      </trkpt>
      <trkpt lat="45.64938" lon="6.66575">
        <ele>2513</ele>
        <time>2022-07-26T10:02:37Z</time>
      </trkpt>
      <trkpt lat="45.64938" lon="6.66574">
        <ele>2513</ele>
        <time>2022-07-26T10:02:38Z</time>
      </trkpt>
      <trkpt lat="45.64937" lon="6.66573">
        <ele>2513</ele>
        <time>2022-07-26T10:02:39Z</time>
      </trkpt>
      <trkpt lat="45.64937" lon="6.66571">
        <ele>2513</ele>
        <time>2022-07-26T10:02:40Z</time>
      </trkpt>
      <trkpt lat="45.64936" lon="6.6657">
        <ele>2513</ele>
        <time>2022-07-26T10:02:41Z</time>
      </trkpt>
      <trkpt lat="45.64936" lon="6.66568">
        <ele>2513</ele>
        <time>2022-07-26T10:02:42Z</time>
      </trkpt>
      <trkpt lat="45.64935" lon="6.66567">
        <ele>2512</ele>
        <time>2022-07-26T10:02:43Z</time>
      </trkpt>
      <trkpt lat="45.64934" lon="6.66565">
        <ele>2512</ele>
        <time>2022-07-26T10:02:44Z</time>
      </trkpt>
      <trkpt lat="45.64933" lon="6.66564">
        <ele>2512</ele>
        <time>2022-07-26T10:02:45Z</time>
      </trkpt>
      <trkpt lat="45.64933" lon="6.66562">
        <ele>2512</ele>
        <time>2022-07-26T10:02:46Z</time>
      </trkpt>
      <trkpt lat="45.64932" lon="6.66561">
        <ele>2512</ele>
        <time>2022-07-26T10:02:47Z</time>
      </trkpt>
      <trkpt lat="45.64931" lon="6.66559">
        <ele>2511</ele>
        <time>2022-07-26T10:02:48Z</time>
      </trkpt>
      <trkpt lat="45.6493" lon="6.66558">
        <ele>2511</ele>
        <time>2022-07-26T10:02:49Z</time>
      </trkpt>
      <trkpt lat="45.64929" lon="6.66557">
        <ele>2511</ele>
        <time>2022-07-26T10:02:50Z</time>
      </trkpt>
      <trkpt lat="45.64928" lon="6.66555">
        <ele>2511</ele>
        <time>2022-07-26T10:02:51Z</time>
      </trkpt>
      <trkpt lat="45.64927" lon="6.66554">
        <ele>2511</ele>
        <time>2022-07-26T10:02:52Z</time>
      </trkpt>
      <trkpt lat="45.64927" lon="6.66552">
        <ele>2510</ele>
        <time>2022-07-26T10:02:53Z</time>
      </trkpt>
      <trkpt lat="45.64926" lon="6.66551">
        <ele>2510</ele>
        <time>2022-07-26T10:02:54Z</time>
      </trkpt>
      <trkpt lat="45.64926" lon="6.66549">
        <ele>2509</ele>
        <time>2022-07-26T10:02:55Z</time>
      </trkpt>
      <trkpt lat="45.64926" lon="6.66547">
        <ele>2509</ele>
        <time>2022-07-26T10:02:56Z</time>
      </trkpt>
      <trkpt lat="45.64925" lon="6.66545">
        <ele>2509</ele>
        <time>2022-07-26T10:02:57Z</time>
      </trkpt>
      <trkpt lat="45.64925" lon="6.66543">
        <ele>2508</ele>
        <time>2022-07-26T10:02:58Z</time>
      </trkpt>
      <trkpt lat="45.64925" lon="6.6654">
        <ele>2508</ele>
        <time>2022-07-26T10:02:59Z</time>
      </trkpt>
      <trkpt lat="45.64924" lon="6.66538">
        <ele>2508</ele>
        <time>2022-07-26T10:03:00Z</time>
      </trkpt>
      <trkpt lat="45.64924" lon="6.66536">
        <ele>2508</ele>
        <time>2022-07-26T10:03:01Z</time>
      </trkpt>
      <trkpt lat="45.64923" lon="6.66534">
        <ele>2508</ele>
        <time>2022-07-26T10:03:02Z</time>
      </trkpt>
      <trkpt lat="45.64923" lon="6.66533">
        <ele>2507</ele>
        <time>2022-07-26T10:03:03Z</time>
      </trkpt>
      <trkpt lat="45.64922" lon="6.66531">
        <ele>2507</ele>
        <time>2022-07-26T10:03:04Z</time>
      </trkpt>
      <trkpt lat="45.64922" lon="6.6653">
        <ele>2507</ele>
        <time>2022-07-26T10:03:05Z</time>
      </trkpt>
      <trkpt lat="45.64922" lon="6.66528">
        <ele>2507</ele>
        <time>2022-07-26T10:03:06Z</time>
      </trkpt>
      <trkpt lat="45.64922" lon="6.66527">
        <ele>2507</ele>
        <time>2022-07-26T10:03:07Z</time>
      </trkpt>
      <trkpt lat="45.64922" lon="6.66526">
        <ele>2506</ele>
        <time>2022-07-26T10:03:08Z</time>
      </trkpt>
      <trkpt lat="45.64922" lon="6.66525">
        <ele>2506</ele>
        <time>2022-07-26T10:03:09Z</time>
      </trkpt>
      <trkpt lat="45.64923" lon="6.66524">
        <ele>2506</ele>
        <time>2022-07-26T10:03:10Z</time>
      </trkpt>
      <trkpt lat="45.64923" lon="6.66523">
        <ele>2506</ele>
        <time>2022-07-26T10:03:11Z</time>
      </trkpt>
      <trkpt lat="45.64924" lon="6.66521">
        <ele>2506</ele>
        <time>2022-07-26T10:03:12Z</time>
      </trkpt>
      <trkpt lat="45.64924" lon="6.6652">
        <ele>2505</ele>
        <time>2022-07-26T10:03:13Z</time>
      </trkpt>
      <trkpt lat="45.64924" lon="6.66519">
        <ele>2505</ele>
        <time>2022-07-26T10:03:14Z</time>
      </trkpt>
      <trkpt lat="45.64924" lon="6.66518">
        <ele>2505</ele>
        <time>2022-07-26T10:03:15Z</time>
      </trkpt>
      <trkpt lat="45.64924" lon="6.66516">
        <ele>2505</ele>
        <time>2022-07-26T10:03:16Z</time>
      </trkpt>
      <trkpt lat="45.64924" lon="6.66514">
        <ele>2505</ele>
        <time>2022-07-26T10:03:17Z</time>
      </trkpt>
      <trkpt lat="45.64924" lon="6.66513">
        <ele>2505</ele>
        <time>2022-07-26T10:03:18Z</time>
      </trkpt>
      <trkpt lat="45.64924" lon="6.66511">
        <ele>2505</ele>
        <time>2022-07-26T10:03:19Z</time>
      </trkpt>
      <trkpt lat="45.64923" lon="6.66509">
        <ele>2505</ele>
        <time>2022-07-26T10:03:20Z</time>
      </trkpt>
      <trkpt lat="45.64923" lon="6.66507">
        <ele>2505</ele>
        <time>2022-07-26T10:03:21Z</time>
      </trkpt>
      <trkpt lat="45.64923" lon="6.66505">
        <ele>2505</ele>
        <time>2022-07-26T10:03:22Z</time>
      </trkpt>
      <trkpt lat="45.64922" lon="6.66503">
        <ele>2504</ele>
        <time>2022-07-26T10:03:23Z</time>
      </trkpt>
      <trkpt lat="45.64922" lon="6.66502">
        <ele>2504</ele>
        <time>2022-07-26T10:03:24Z</time>
      </trkpt>
      <trkpt lat="45.64921" lon="6.665">
        <ele>2504</ele>
        <time>2022-07-26T10:03:25Z</time>
      </trkpt>
      <trkpt lat="45.64921" lon="6.66499">
        <ele>2504</ele>
        <time>2022-07-26T10:03:26Z</time>
      </trkpt>
      <trkpt lat="45.6492" lon="6.66498">
        <ele>2504</ele>
        <time>2022-07-26T10:03:27Z</time>
      </trkpt>
      <trkpt lat="45.64919" lon="6.66497">
        <ele>2503</ele>
        <time>2022-07-26T10:03:28Z</time>
      </trkpt>
      <trkpt lat="45.64918" lon="6.66496">
        <ele>2503</ele>
        <time>2022-07-26T10:03:29Z</time>
      </trkpt>
      <trkpt lat="45.64917" lon="6.66495">
        <ele>2502</ele>
        <time>2022-07-26T10:03:30Z</time>
      </trkpt>
      <trkpt lat="45.64916" lon="6.66495">
        <ele>2502</ele>
        <time>2022-07-26T10:03:31Z</time>
      </trkpt>
      <trkpt lat="45.64916" lon="6.66494">
        <ele>2502</ele>
        <time>2022-07-26T10:03:32Z</time>
      </trkpt>
      <trkpt lat="45.64914" lon="6.66494">
        <ele>2501</ele>
        <time>2022-07-26T10:03:33Z</time>
      </trkpt>
      <trkpt lat="45.64913" lon="6.66494">
        <ele>2501</ele>
        <time>2022-07-26T10:03:34Z</time>
      </trkpt>
      <trkpt lat="45.64912" lon="6.66494">
        <ele>2501</ele>
        <time>2022-07-26T10:03:35Z</time>
      </trkpt>
      <trkpt lat="45.64911" lon="6.66494">
        <ele>2501</ele>
        <time>2022-07-26T10:03:36Z</time>
      </trkpt>
      <trkpt lat="45.6491" lon="6.66493">
        <ele>2501</ele>
        <time>2022-07-26T10:03:37Z</time>
      </trkpt>
      <trkpt lat="45.64909" lon="6.66493">
        <ele>2501</ele>
        <time>2022-07-26T10:03:38Z</time>
      </trkpt>
      <trkpt lat="45.64908" lon="6.66492">
        <ele>2501</ele>
        <time>2022-07-26T10:03:39Z</time>
      </trkpt>
      <trkpt lat="45.64908" lon="6.66491">
        <ele>2501</ele>
        <time>2022-07-26T10:03:40Z</time>
      </trkpt>
      <trkpt lat="45.64907" lon="6.6649">
        <ele>2501</ele>
        <time>2022-07-26T10:03:41Z</time>
      </trkpt>
      <trkpt lat="45.64906" lon="6.6649">
        <ele>2501</ele>
        <time>2022-07-26T10:03:42Z</time>
      </trkpt>
      <trkpt lat="45.64905" lon="6.66488">
        <ele>2501</ele>
        <time>2022-07-26T10:03:43Z</time>
      </trkpt>
      <trkpt lat="45.64904" lon="6.66487">
        <ele>2501</ele>
        <time>2022-07-26T10:03:44Z</time>
      </trkpt>
      <trkpt lat="45.64903" lon="6.66486">
        <ele>2501</ele>
        <time>2022-07-26T10:03:45Z</time>
      </trkpt>
      <trkpt lat="45.64902" lon="6.66486">
        <ele>2501</ele>
        <time>2022-07-26T10:03:46Z</time>
      </trkpt>
      <trkpt lat="45.64901" lon="6.66485">
        <ele>2501</ele>
        <time>2022-07-26T10:03:47Z</time>
      </trkpt>
      <trkpt lat="45.649" lon="6.66484">
        <ele>2501</ele>
        <time>2022-07-26T10:03:48Z</time>
      </trkpt>
      <trkpt lat="45.64899" lon="6.66483">
        <ele>2501</ele>
        <time>2022-07-26T10:03:49Z</time>
      </trkpt>
      <trkpt lat="45.64898" lon="6.66483">
        <ele>2501</ele>
        <time>2022-07-26T10:03:50Z</time>
      </trkpt>
      <trkpt lat="45.64897" lon="6.66482">
        <ele>2501</ele>
        <time>2022-07-26T10:03:51Z</time>
      </trkpt>
      <trkpt lat="45.64896" lon="6.66482">
        <ele>2501</ele>
        <time>2022-07-26T10:03:52Z</time>
      </trkpt>
      <trkpt lat="45.64895" lon="6.66482">
        <ele>2501</ele>
        <time>2022-07-26T10:03:53Z</time>
      </trkpt>
      <trkpt lat="45.64894" lon="6.66481">
        <ele>2501</ele>
        <time>2022-07-26T10:03:54Z</time>
      </trkpt>
      <trkpt lat="45.64894" lon="6.66481">
        <ele>2501</ele>
        <time>2022-07-26T10:03:55Z</time>
      </trkpt>
      <trkpt lat="45.64893" lon="6.66481">
        <ele>2501</ele>
        <time>2022-07-26T10:03:56Z</time>
      </trkpt>
      <trkpt lat="45.64892" lon="6.6648">
        <ele>2501</ele>
        <time>2022-07-26T10:03:57Z</time>
      </trkpt>
      <trkpt lat="45.64891" lon="6.6648">
        <ele>2501</ele>
        <time>2022-07-26T10:03:58Z</time>
      </trkpt>
      <trkpt lat="45.6489" lon="6.66479">
        <ele>2501</ele>
        <time>2022-07-26T10:03:59Z</time>
      </trkpt>
      <trkpt lat="45.6489" lon="6.66478">
        <ele>2501</ele>
        <time>2022-07-26T10:04:00Z</time>
      </trkpt>
      <trkpt lat="45.64889" lon="6.66477">
        <ele>2501</ele>
        <time>2022-07-26T10:04:01Z</time>
      </trkpt>
      <trkpt lat="45.64888" lon="6.66476">
        <ele>2501</ele>
        <time>2022-07-26T10:04:02Z</time>
      </trkpt>
      <trkpt lat="45.64888" lon="6.66475">
        <ele>2500</ele>
        <time>2022-07-26T10:04:03Z</time>
      </trkpt>
      <trkpt lat="45.64887" lon="6.66474">
        <ele>2500</ele>
        <time>2022-07-26T10:04:04Z</time>
      </trkpt>
      <trkpt lat="45.64886" lon="6.66473">
        <ele>2500</ele>
        <time>2022-07-26T10:04:05Z</time>
      </trkpt>
      <trkpt lat="45.64886" lon="6.66471">
        <ele>2500</ele>
        <time>2022-07-26T10:04:06Z</time>
      </trkpt>
      <trkpt lat="45.64885" lon="6.6647">
        <ele>2500</ele>
        <time>2022-07-26T10:04:07Z</time>
      </trkpt>
      <trkpt lat="45.64885" lon="6.6647">
        <ele>2500</ele>
        <time>2022-07-26T10:04:08Z</time>
      </trkpt>
      <trkpt lat="45.64884" lon="6.66469">
        <ele>2500</ele>
        <time>2022-07-26T10:04:09Z</time>
      </trkpt>
      <trkpt lat="45.64884" lon="6.66468">
        <ele>2500</ele>
        <time>2022-07-26T10:04:10Z</time>
      </trkpt>
      <trkpt lat="45.64883" lon="6.66466">
        <ele>2500</ele>
        <time>2022-07-26T10:04:25Z</time>
      </trkpt>
      <trkpt lat="45.64883" lon="6.66465">
        <ele>2500</ele>
        <time>2022-07-26T10:04:26Z</time>
      </trkpt>
      <trkpt lat="45.64883" lon="6.66464">
        <ele>2500</ele>
        <time>2022-07-26T10:04:27Z</time>
      </trkpt>
      <trkpt lat="45.64883" lon="6.66463">
        <ele>2500</ele>
        <time>2022-07-26T10:04:28Z</time>
      </trkpt>
      <trkpt lat="45.64884" lon="6.66463">
        <ele>2500</ele>
        <time>2022-07-26T10:04:29Z</time>
      </trkpt>
      <trkpt lat="45.64885" lon="6.66463">
        <ele>2500</ele>
        <time>2022-07-26T10:04:30Z</time>
      </trkpt>
      <trkpt lat="45.64886" lon="6.66463">
        <ele>2500</ele>
        <time>2022-07-26T10:04:31Z</time>
      </trkpt>
      <trkpt lat="45.64888" lon="6.66463">
        <ele>2500</ele>
        <time>2022-07-26T10:40:47Z</time>
      </trkpt>
      <trkpt lat="45.64888" lon="6.66463">
        <ele>2500</ele>
        <time>2022-07-26T10:40:48Z</time>
      </trkpt>
      <trkpt lat="45.64888" lon="6.66462">
        <ele>2500</ele>
        <time>2022-07-26T10:40:49Z</time>
      </trkpt>
      <trkpt lat="45.64888" lon="6.66461">
        <ele>2500</ele>
        <time>2022-07-26T10:40:50Z</time>
      </trkpt>
      <trkpt lat="45.64887" lon="6.66461">
        <ele>2500</ele>
        <time>2022-07-26T10:40:51Z</time>
      </trkpt>
      <trkpt lat="45.64887" lon="6.6646">
        <ele>2500</ele>
        <time>2022-07-26T10:40:52Z</time>
      </trkpt>
      <trkpt lat="45.64887" lon="6.66459">
        <ele>2500</ele>
        <time>2022-07-26T10:40:53Z</time>
      </trkpt>
      <trkpt lat="45.64887" lon="6.66458">
        <ele>2500</ele>
        <time>2022-07-26T10:40:54Z</time>
      </trkpt>
      <trkpt lat="45.64886" lon="6.66457">
        <ele>2499</ele>
        <time>2022-07-26T10:40:55Z</time>
      </trkpt>
      <trkpt lat="45.64886" lon="6.66456">
        <ele>2499</ele>
        <time>2022-07-26T10:40:56Z</time>
      </trkpt>
      <trkpt lat="45.64885" lon="6.66455">
        <ele>2499</ele>
        <time>2022-07-26T10:40:57Z</time>
      </trkpt>
      <trkpt lat="45.64884" lon="6.66454">
        <ele>2499</ele>
        <time>2022-07-26T10:40:58Z</time>
      </trkpt>
      <trkpt lat="45.64884" lon="6.66453">
        <ele>2499</ele>
        <time>2022-07-26T10:40:59Z</time>
      </trkpt>
      <trkpt lat="45.64883" lon="6.66452">
        <ele>2499</ele>
        <time>2022-07-26T10:41:00Z</time>
      </trkpt>
      <trkpt lat="45.64882" lon="6.66451">
        <ele>2499</ele>
        <time>2022-07-26T10:41:01Z</time>
      </trkpt>
      <trkpt lat="45.64881" lon="6.6645">
        <ele>2499</ele>
        <time>2022-07-26T10:41:02Z</time>
      </trkpt>
      <trkpt lat="45.6488" lon="6.66449">
        <ele>2499</ele>
        <time>2022-07-26T10:41:03Z</time>
      </trkpt>
      <trkpt lat="45.64879" lon="6.66448">
        <ele>2499</ele>
        <time>2022-07-26T10:41:04Z</time>
      </trkpt>
      <trkpt lat="45.64878" lon="6.66447">
        <ele>2499</ele>
        <time>2022-07-26T10:41:05Z</time>
      </trkpt>
      <trkpt lat="45.64877" lon="6.66446">
        <ele>2499</ele>
        <time>2022-07-26T10:41:06Z</time>
      </trkpt>
      <trkpt lat="45.64876" lon="6.66446">
        <ele>2499</ele>
        <time>2022-07-26T10:41:07Z</time>
      </trkpt>
      <trkpt lat="45.64876" lon="6.66445">
        <ele>2499</ele>
        <time>2022-07-26T10:41:08Z</time>
      </trkpt>
      <trkpt lat="45.64875" lon="6.66444">
        <ele>2499</ele>
        <time>2022-07-26T10:41:09Z</time>
      </trkpt>
      <trkpt lat="45.64875" lon="6.66442">
        <ele>2498</ele>
        <time>2022-07-26T10:41:10Z</time>
      </trkpt>
      <trkpt lat="45.64874" lon="6.66441">
        <ele>2498</ele>
        <time>2022-07-26T10:41:11Z</time>
      </trkpt>
      <trkpt lat="45.64874" lon="6.6644">
        <ele>2498</ele>
        <time>2022-07-26T10:41:12Z</time>
      </trkpt>
      <trkpt lat="45.64874" lon="6.66438">
        <ele>2498</ele>
        <time>2022-07-26T10:41:13Z</time>
      </trkpt>
      <trkpt lat="45.64873" lon="6.66437">
        <ele>2498</ele>
        <time>2022-07-26T10:41:14Z</time>
      </trkpt>
      <trkpt lat="45.64872" lon="6.66436">
        <ele>2498</ele>
        <time>2022-07-26T10:41:15Z</time>
      </trkpt>
      <trkpt lat="45.64871" lon="6.66435">
        <ele>2498</ele>
        <time>2022-07-26T10:41:16Z</time>
      </trkpt>
      <trkpt lat="45.64871" lon="6.66434">
        <ele>2498</ele>
        <time>2022-07-26T10:41:17Z</time>
      </trkpt>
      <trkpt lat="45.64869" lon="6.66432">
        <ele>2499</ele>
        <time>2022-07-26T10:41:23Z</time>
      </trkpt>
      <trkpt lat="45.64868" lon="6.66432">
        <ele>2499</ele>
        <time>2022-07-26T10:41:24Z</time>
      </trkpt>
      <trkpt lat="45.64867" lon="6.66431">
        <ele>2499</ele>
        <time>2022-07-26T10:41:25Z</time>
      </trkpt>
      <trkpt lat="45.64867" lon="6.66431">
        <ele>2499</ele>
        <time>2022-07-26T10:41:26Z</time>
      </trkpt>
      <trkpt lat="45.64866" lon="6.66431">
        <ele>2499</ele>
        <time>2022-07-26T10:41:27Z</time>
      </trkpt>
      <trkpt lat="45.64865" lon="6.66431">
        <ele>2499</ele>
        <time>2022-07-26T10:41:28Z</time>
      </trkpt>
      <trkpt lat="45.64864" lon="6.6643">
        <ele>2499</ele>
        <time>2022-07-26T10:41:29Z</time>
      </trkpt>
      <trkpt lat="45.64863" lon="6.6643">
        <ele>2499</ele>
        <time>2022-07-26T10:41:30Z</time>
      </trkpt>
      <trkpt lat="45.64862" lon="6.66429">
        <ele>2499</ele>
        <time>2022-07-26T10:41:31Z</time>
      </trkpt>
      <trkpt lat="45.64862" lon="6.66429">
        <ele>2499</ele>
        <time>2022-07-26T10:41:32Z</time>
      </trkpt>
      <trkpt lat="45.64861" lon="6.66428">
        <ele>2499</ele>
        <time>2022-07-26T10:41:33Z</time>
      </trkpt>
      <trkpt lat="45.6486" lon="6.66427">
        <ele>2499</ele>
        <time>2022-07-26T10:41:34Z</time>
      </trkpt>
      <trkpt lat="45.6486" lon="6.66426">
        <ele>2499</ele>
        <time>2022-07-26T10:41:35Z</time>
      </trkpt>
      <trkpt lat="45.6486" lon="6.66424">
        <ele>2499</ele>
        <time>2022-07-26T10:41:36Z</time>
      </trkpt>
      <trkpt lat="45.64859" lon="6.66423">
        <ele>2499</ele>
        <time>2022-07-26T10:41:37Z</time>
      </trkpt>
      <trkpt lat="45.64859" lon="6.66421">
        <ele>2499</ele>
        <time>2022-07-26T10:41:38Z</time>
      </trkpt>
      <trkpt lat="45.64859" lon="6.6642">
        <ele>2500</ele>
        <time>2022-07-26T10:41:39Z</time>
      </trkpt>
      <trkpt lat="45.64859" lon="6.66419">
        <ele>2500</ele>
        <time>2022-07-26T10:41:40Z</time>
      </trkpt>
      <trkpt lat="45.64858" lon="6.66418">
        <ele>2500</ele>
        <time>2022-07-26T10:41:41Z</time>
      </trkpt>
      <trkpt lat="45.64858" lon="6.66417">
        <ele>2500</ele>
        <time>2022-07-26T10:41:42Z</time>
      </trkpt>
      <trkpt lat="45.64858" lon="6.66416">
        <ele>2500</ele>
        <time>2022-07-26T10:41:43Z</time>
      </trkpt>
      <trkpt lat="45.64858" lon="6.66415">
        <ele>2500</ele>
        <time>2022-07-26T10:41:44Z</time>
      </trkpt>
      <trkpt lat="45.64857" lon="6.66414">
        <ele>2500</ele>
        <time>2022-07-26T10:41:45Z</time>
      </trkpt>
      <trkpt lat="45.64857" lon="6.66413">
        <ele>2500</ele>
        <time>2022-07-26T10:41:46Z</time>
      </trkpt>
      <trkpt lat="45.64857" lon="6.66411">
        <ele>2500</ele>
        <time>2022-07-26T10:41:47Z</time>
      </trkpt>
      <trkpt lat="45.64857" lon="6.6641">
        <ele>2500</ele>
        <time>2022-07-26T10:41:48Z</time>
      </trkpt>
      <trkpt lat="45.64857" lon="6.66409">
        <ele>2501</ele>
        <time>2022-07-26T10:41:49Z</time>
      </trkpt>
      <trkpt lat="45.64857" lon="6.66408">
        <ele>2501</ele>
        <time>2022-07-26T10:41:50Z</time>
      </trkpt>
      <trkpt lat="45.64857" lon="6.66407">
        <ele>2501</ele>
        <time>2022-07-26T10:41:51Z</time>
      </trkpt>
      <trkpt lat="45.64856" lon="6.66405">
        <ele>2501</ele>
        <time>2022-07-26T10:41:52Z</time>
      </trkpt>
      <trkpt lat="45.64856" lon="6.66404">
        <ele>2501</ele>
        <time>2022-07-26T10:41:53Z</time>
      </trkpt>
      <trkpt lat="45.64856" lon="6.66403">
        <ele>2502</ele>
        <time>2022-07-26T10:41:54Z</time>
      </trkpt>
      <trkpt lat="45.64856" lon="6.66402">
        <ele>2502</ele>
        <time>2022-07-26T10:41:55Z</time>
      </trkpt>
      <trkpt lat="45.64856" lon="6.664">
        <ele>2502</ele>
        <time>2022-07-26T10:41:56Z</time>
      </trkpt>
      <trkpt lat="45.64856" lon="6.66399">
        <ele>2502</ele>
        <time>2022-07-26T10:41:57Z</time>
      </trkpt>
      <trkpt lat="45.64856" lon="6.66398">
        <ele>2502</ele>
        <time>2022-07-26T10:41:58Z</time>
      </trkpt>
      <trkpt lat="45.64856" lon="6.66397">
        <ele>2502</ele>
        <time>2022-07-26T10:41:59Z</time>
      </trkpt>
      <trkpt lat="45.64855" lon="6.66396">
        <ele>2502</ele>
        <time>2022-07-26T10:42:00Z</time>
      </trkpt>
      <trkpt lat="45.64855" lon="6.66395">
        <ele>2502</ele>
        <time>2022-07-26T10:42:01Z</time>
      </trkpt>
      <trkpt lat="45.64855" lon="6.66394">
        <ele>2503</ele>
        <time>2022-07-26T10:42:02Z</time>
      </trkpt>
      <trkpt lat="45.64854" lon="6.66393">
        <ele>2503</ele>
        <time>2022-07-26T10:42:03Z</time>
      </trkpt>
      <trkpt lat="45.64854" lon="6.66392">
        <ele>2504</ele>
        <time>2022-07-26T10:42:04Z</time>
      </trkpt>
      <trkpt lat="45.64853" lon="6.66392">
        <ele>2504</ele>
        <time>2022-07-26T10:42:05Z</time>
      </trkpt>
      <trkpt lat="45.64853" lon="6.66391">
        <ele>2504</ele>
        <time>2022-07-26T10:42:06Z</time>
      </trkpt>
      <trkpt lat="45.64852" lon="6.6639">
        <ele>2504</ele>
        <time>2022-07-26T10:42:07Z</time>
      </trkpt>
      <trkpt lat="45.64851" lon="6.6639">
        <ele>2504</ele>
        <time>2022-07-26T10:42:08Z</time>
      </trkpt>
      <trkpt lat="45.64851" lon="6.66389">
        <ele>2504</ele>
        <time>2022-07-26T10:42:09Z</time>
      </trkpt>
      <trkpt lat="45.6485" lon="6.66388">
        <ele>2504</ele>
        <time>2022-07-26T10:42:10Z</time>
      </trkpt>
      <trkpt lat="45.64849" lon="6.66388">
        <ele>2504</ele>
        <time>2022-07-26T10:42:11Z</time>
      </trkpt>
      <trkpt lat="45.64849" lon="6.66387">
        <ele>2504</ele>
        <time>2022-07-26T10:42:12Z</time>
      </trkpt>
      <trkpt lat="45.64848" lon="6.66386">
        <ele>2504</ele>
        <time>2022-07-26T10:42:13Z</time>
      </trkpt>
      <trkpt lat="45.64847" lon="6.66385">
        <ele>2505</ele>
        <time>2022-07-26T10:42:14Z</time>
      </trkpt>
      <trkpt lat="45.64847" lon="6.66384">
        <ele>2505</ele>
        <time>2022-07-26T10:42:15Z</time>
      </trkpt>
      <trkpt lat="45.64846" lon="6.66383">
        <ele>2505</ele>
        <time>2022-07-26T10:42:16Z</time>
      </trkpt>
      <trkpt lat="45.64846" lon="6.66382">
        <ele>2505</ele>
        <time>2022-07-26T10:42:17Z</time>
      </trkpt>
      <trkpt lat="45.64845" lon="6.66382">
        <ele>2505</ele>
        <time>2022-07-26T10:42:18Z</time>
      </trkpt>
      <trkpt lat="45.64845" lon="6.66381">
        <ele>2506</ele>
        <time>2022-07-26T10:42:19Z</time>
      </trkpt>
      <trkpt lat="45.64844" lon="6.6638">
        <ele>2506</ele>
        <time>2022-07-26T10:42:20Z</time>
      </trkpt>
      <trkpt lat="45.64844" lon="6.66379">
        <ele>2506</ele>
        <time>2022-07-26T10:42:21Z</time>
      </trkpt>
      <trkpt lat="45.64844" lon="6.66379">
        <ele>2506</ele>
        <time>2022-07-26T10:42:22Z</time>
      </trkpt>
      <trkpt lat="45.64843" lon="6.66379">
        <ele>2506</ele>
        <time>2022-07-26T10:42:23Z</time>
      </trkpt>
      <trkpt lat="45.64842" lon="6.66378">
        <ele>2507</ele>
        <time>2022-07-26T10:42:24Z</time>
      </trkpt>
      <trkpt lat="45.64842" lon="6.66378">
        <ele>2507</ele>
        <time>2022-07-26T10:42:25Z</time>
      </trkpt>
      <trkpt lat="45.64841" lon="6.66378">
        <ele>2507</ele>
        <time>2022-07-26T10:42:26Z</time>
      </trkpt>
      <trkpt lat="45.6484" lon="6.66378">
        <ele>2507</ele>
        <time>2022-07-26T10:42:27Z</time>
      </trkpt>
      <trkpt lat="45.64839" lon="6.66377">
        <ele>2507</ele>
        <time>2022-07-26T10:42:28Z</time>
      </trkpt>
      <trkpt lat="45.64832" lon="6.66375">
        <ele>2512</ele>
        <time>2022-07-26T11:47:08Z</time>
      </trkpt>
      <trkpt lat="45.64831" lon="6.66375">
        <ele>2512</ele>
        <time>2022-07-26T11:47:09Z</time>
      </trkpt>
      <trkpt lat="45.64831" lon="6.66375">
        <ele>2512</ele>
        <time>2022-07-26T11:47:10Z</time>
      </trkpt>
      <trkpt lat="45.6483" lon="6.66374">
        <ele>2512</ele>
        <time>2022-07-26T11:47:11Z</time>
      </trkpt>
      <trkpt lat="45.6483" lon="6.66374">
        <ele>2512</ele>
        <time>2022-07-26T11:47:12Z</time>
      </trkpt>
      <trkpt lat="45.6483" lon="6.66374">
        <ele>2512</ele>
        <time>2022-07-26T11:47:13Z</time>
      </trkpt>
      <trkpt lat="45.64829" lon="6.66373">
        <ele>2511</ele>
        <time>2022-07-26T11:47:14Z</time>
      </trkpt>
      <trkpt lat="45.64829" lon="6.66373">
        <ele>2511</ele>
        <time>2022-07-26T11:47:15Z</time>
      </trkpt>
      <trkpt lat="45.64828" lon="6.66373">
        <ele>2511</ele>
        <time>2022-07-26T11:47:16Z</time>
      </trkpt>
      <trkpt lat="45.64828" lon="6.66372">
        <ele>2511</ele>
        <time>2022-07-26T11:47:17Z</time>
      </trkpt>
      <trkpt lat="45.64828" lon="6.66372">
        <ele>2511</ele>
        <time>2022-07-26T11:47:18Z</time>
      </trkpt>
      <trkpt lat="45.64828" lon="6.66371">
        <ele>2511</ele>
        <time>2022-07-26T11:47:19Z</time>
      </trkpt>
      <trkpt lat="45.64828" lon="6.6637">
        <ele>2511</ele>
        <time>2022-07-26T11:47:20Z</time>
      </trkpt>
      <trkpt lat="45.64828" lon="6.6637">
        <ele>2511</ele>
        <time>2022-07-26T11:47:21Z</time>
      </trkpt>
      <trkpt lat="45.64828" lon="6.66369">
        <ele>2511</ele>
        <time>2022-07-26T11:47:22Z</time>
      </trkpt>
      <trkpt lat="45.64828" lon="6.66368">
        <ele>2511</ele>
        <time>2022-07-26T11:47:23Z</time>
      </trkpt>
      <trkpt lat="45.6483" lon="6.66367">
        <ele>2509</ele>
        <time>2022-07-26T11:47:35Z</time>
      </trkpt>
      <trkpt lat="45.6483" lon="6.66366">
        <ele>2509</ele>
        <time>2022-07-26T11:47:36Z</time>
      </trkpt>
      <trkpt lat="45.64831" lon="6.66366">
        <ele>2509</ele>
        <time>2022-07-26T11:47:37Z</time>
      </trkpt>
      <trkpt lat="45.64831" lon="6.66365">
        <ele>2509</ele>
        <time>2022-07-26T11:47:38Z</time>
      </trkpt>
      <trkpt lat="45.64832" lon="6.66365">
        <ele>2509</ele>
        <time>2022-07-26T11:47:39Z</time>
      </trkpt>
      <trkpt lat="45.64832" lon="6.66364">
        <ele>2509</ele>
        <time>2022-07-26T11:47:40Z</time>
      </trkpt>
      <trkpt lat="45.64832" lon="6.66364">
        <ele>2509</ele>
        <time>2022-07-26T11:47:41Z</time>
      </trkpt>
      <trkpt lat="45.64833" lon="6.66363">
        <ele>2509</ele>
        <time>2022-07-26T11:47:42Z</time>
      </trkpt>
      <trkpt lat="45.64833" lon="6.66363">
        <ele>2509</ele>
        <time>2022-07-26T11:47:43Z</time>
      </trkpt>
      <trkpt lat="45.64833" lon="6.66362">
        <ele>2508</ele>
        <time>2022-07-26T11:47:44Z</time>
      </trkpt>
      <trkpt lat="45.64833" lon="6.66361">
        <ele>2508</ele>
        <time>2022-07-26T11:47:45Z</time>
      </trkpt>
      <trkpt lat="45.64833" lon="6.6636">
        <ele>2508</ele>
        <time>2022-07-26T11:47:46Z</time>
      </trkpt>
      <trkpt lat="45.64833" lon="6.6636">
        <ele>2508</ele>
        <time>2022-07-26T11:47:47Z</time>
      </trkpt>
      <trkpt lat="45.64833" lon="6.66359">
        <ele>2508</ele>
        <time>2022-07-26T11:47:48Z</time>
      </trkpt>
      <trkpt lat="45.64834" lon="6.66359">
        <ele>2507</ele>
        <time>2022-07-26T11:47:49Z</time>
      </trkpt>
      <trkpt lat="45.64834" lon="6.66358">
        <ele>2507</ele>
        <time>2022-07-26T11:47:50Z</time>
      </trkpt>
      <trkpt lat="45.64834" lon="6.66357">
        <ele>2507</ele>
        <time>2022-07-26T11:47:51Z</time>
      </trkpt>
      <trkpt lat="45.64834" lon="6.66357">
        <ele>2507</ele>
        <time>2022-07-26T11:47:52Z</time>
      </trkpt>
      <trkpt lat="45.64834" lon="6.66356">
        <ele>2507</ele>
        <time>2022-07-26T11:47:53Z</time>
      </trkpt>
      <trkpt lat="45.64834" lon="6.66355">
        <ele>2506</ele>
        <time>2022-07-26T11:47:54Z</time>
      </trkpt>
      <trkpt lat="45.64834" lon="6.66354">
        <ele>2506</ele>
        <time>2022-07-26T11:47:55Z</time>
      </trkpt>
      <trkpt lat="45.64834" lon="6.66353">
        <ele>2506</ele>
        <time>2022-07-26T11:47:56Z</time>
      </trkpt>
      <trkpt lat="45.64834" lon="6.66353">
        <ele>2506</ele>
        <time>2022-07-26T11:47:57Z</time>
      </trkpt>
      <trkpt lat="45.64834" lon="6.66352">
        <ele>2506</ele>
        <time>2022-07-26T11:47:58Z</time>
      </trkpt>
      <trkpt lat="45.64834" lon="6.66352">
        <ele>2506</ele>
        <time>2022-07-26T11:47:59Z</time>
      </trkpt>
      <trkpt lat="45.64834" lon="6.66352">
        <ele>2506</ele>
        <time>2022-07-26T11:48:00Z</time>
      </trkpt>
      <trkpt lat="45.64834" lon="6.66352">
        <ele>2506</ele>
        <time>2022-07-26T11:48:01Z</time>
      </trkpt>
      <trkpt lat="45.64835" lon="6.66351">
        <ele>2506</ele>
        <time>2022-07-26T11:48:02Z</time>
      </trkpt>
      <trkpt lat="45.64835" lon="6.6635">
        <ele>2506</ele>
        <time>2022-07-26T11:48:03Z</time>
      </trkpt>
      <trkpt lat="45.64835" lon="6.66349">
        <ele>2506</ele>
        <time>2022-07-26T11:48:04Z</time>
      </trkpt>
      <trkpt lat="45.64836" lon="6.66349">
        <ele>2506</ele>
        <time>2022-07-26T11:48:05Z</time>
      </trkpt>
      <trkpt lat="45.64836" lon="6.66348">
        <ele>2506</ele>
        <time>2022-07-26T11:48:06Z</time>
      </trkpt>
      <trkpt lat="45.64836" lon="6.66347">
        <ele>2506</ele>
        <time>2022-07-26T11:48:07Z</time>
      </trkpt>
      <trkpt lat="45.64837" lon="6.66346">
        <ele>2506</ele>
        <time>2022-07-26T11:48:08Z</time>
      </trkpt>
      <trkpt lat="45.64837" lon="6.66346">
        <ele>2505</ele>
        <time>2022-07-26T11:48:09Z</time>
      </trkpt>
      <trkpt lat="45.64837" lon="6.66345">
        <ele>2505</ele>
        <time>2022-07-26T11:48:10Z</time>
      </trkpt>
      <trkpt lat="45.64837" lon="6.66344">
        <ele>2505</ele>
        <time>2022-07-26T11:48:11Z</time>
      </trkpt>
      <trkpt lat="45.64836" lon="6.66344">
        <ele>2505</ele>
        <time>2022-07-26T11:48:12Z</time>
      </trkpt>
      <trkpt lat="45.64836" lon="6.66343">
        <ele>2505</ele>
        <time>2022-07-26T11:48:13Z</time>
      </trkpt>
      <trkpt lat="45.64836" lon="6.66342">
        <ele>2504</ele>
        <time>2022-07-26T11:48:14Z</time>
      </trkpt>
      <trkpt lat="45.64835" lon="6.66341">
        <ele>2504</ele>
        <time>2022-07-26T11:48:15Z</time>
      </trkpt>
      <trkpt lat="45.64835" lon="6.66338">
        <ele>2501</ele>
        <time>2022-07-26T11:48:24Z</time>
      </trkpt>
      <trkpt lat="45.64835" lon="6.66337">
        <ele>2501</ele>
        <time>2022-07-26T11:48:25Z</time>
      </trkpt>
      <trkpt lat="45.64835" lon="6.66335">
        <ele>2501</ele>
        <time>2022-07-26T11:48:26Z</time>
      </trkpt>
      <trkpt lat="45.64835" lon="6.66335">
        <ele>2501</ele>
        <time>2022-07-26T11:48:27Z</time>
      </trkpt>
      <trkpt lat="45.64835" lon="6.66334">
        <ele>2501</ele>
        <time>2022-07-26T11:48:28Z</time>
      </trkpt>
      <trkpt lat="45.64835" lon="6.66333">
        <ele>2498</ele>
        <time>2022-07-26T11:49:56Z</time>
      </trkpt>
      <trkpt lat="45.64836" lon="6.66333">
        <ele>2498</ele>
        <time>2022-07-26T11:49:57Z</time>
      </trkpt>
      <trkpt lat="45.64836" lon="6.66332">
        <ele>2498</ele>
        <time>2022-07-26T11:49:58Z</time>
      </trkpt>
      <trkpt lat="45.64836" lon="6.66331">
        <ele>2498</ele>
        <time>2022-07-26T11:49:59Z</time>
      </trkpt>
      <trkpt lat="45.64836" lon="6.6633">
        <ele>2498</ele>
        <time>2022-07-26T11:50:00Z</time>
      </trkpt>
      <trkpt lat="45.64836" lon="6.66329">
        <ele>2498</ele>
        <time>2022-07-26T11:50:01Z</time>
      </trkpt>
      <trkpt lat="45.64836" lon="6.66328">
        <ele>2498</ele>
        <time>2022-07-26T11:50:02Z</time>
      </trkpt>
      <trkpt lat="45.64836" lon="6.66328">
        <ele>2498</ele>
        <time>2022-07-26T11:50:03Z</time>
      </trkpt>
      <trkpt lat="45.64836" lon="6.66327">
        <ele>2498</ele>
        <time>2022-07-26T11:50:04Z</time>
      </trkpt>
      <trkpt lat="45.64837" lon="6.66325">
        <ele>2498</ele>
        <time>2022-07-26T11:50:14Z</time>
      </trkpt>
      <trkpt lat="45.64837" lon="6.66324">
        <ele>2498</ele>
        <time>2022-07-26T11:50:15Z</time>
      </trkpt>
      <trkpt lat="45.64837" lon="6.66324">
        <ele>2498</ele>
        <time>2022-07-26T11:50:16Z</time>
      </trkpt>
      <trkpt lat="45.64838" lon="6.66323">
        <ele>2498</ele>
        <time>2022-07-26T11:50:17Z</time>
      </trkpt>
      <trkpt lat="45.64838" lon="6.66322">
        <ele>2498</ele>
        <time>2022-07-26T11:50:18Z</time>
      </trkpt>
      <trkpt lat="45.64838" lon="6.66322">
        <ele>2499</ele>
        <time>2022-07-26T11:50:43Z</time>
      </trkpt>
      <trkpt lat="45.64838" lon="6.66322">
        <ele>2499</ele>
        <time>2022-07-26T11:50:44Z</time>
      </trkpt>
      <trkpt lat="45.64838" lon="6.66322">
        <ele>2499</ele>
        <time>2022-07-26T11:50:45Z</time>
      </trkpt>
      <trkpt lat="45.64838" lon="6.66322">
        <ele>2499</ele>
        <time>2022-07-26T11:50:46Z</time>
      </trkpt>
      <trkpt lat="45.64837" lon="6.66323">
        <ele>2499</ele>
        <time>2022-07-26T11:50:47Z</time>
      </trkpt>
      <trkpt lat="45.64837" lon="6.66322">
        <ele>2499</ele>
        <time>2022-07-26T11:50:48Z</time>
      </trkpt>
      <trkpt lat="45.64837" lon="6.66322">
        <ele>2498</ele>
        <time>2022-07-26T11:50:49Z</time>
      </trkpt>
      <trkpt lat="45.64836" lon="6.66321">
        <ele>2497</ele>
        <time>2022-07-26T11:51:09Z</time>
      </trkpt>
      <trkpt lat="45.64836" lon="6.6632">
        <ele>2497</ele>
        <time>2022-07-26T11:51:10Z</time>
      </trkpt>
      <trkpt lat="45.64837" lon="6.66319">
        <ele>2497</ele>
        <time>2022-07-26T11:51:11Z</time>
      </trkpt>
      <trkpt lat="45.64837" lon="6.66318">
        <ele>2497</ele>
        <time>2022-07-26T11:51:12Z</time>
      </trkpt>
      <trkpt lat="45.64837" lon="6.66317">
        <ele>2497</ele>
        <time>2022-07-26T11:51:13Z</time>
      </trkpt>
      <trkpt lat="45.64837" lon="6.66316">
        <ele>2497</ele>
        <time>2022-07-26T11:51:14Z</time>
      </trkpt>
      <trkpt lat="45.64837" lon="6.66314">
        <ele>2497</ele>
        <time>2022-07-26T11:51:15Z</time>
      </trkpt>
      <trkpt lat="45.64837" lon="6.66313">
        <ele>2497</ele>
        <time>2022-07-26T11:51:16Z</time>
      </trkpt>
      <trkpt lat="45.64837" lon="6.66311">
        <ele>2497</ele>
        <time>2022-07-26T11:51:17Z</time>
      </trkpt>
      <trkpt lat="45.64838" lon="6.66309">
        <ele>2497</ele>
        <time>2022-07-26T11:51:18Z</time>
      </trkpt>
      <trkpt lat="45.64838" lon="6.66307">
        <ele>2496</ele>
        <time>2022-07-26T11:51:19Z</time>
      </trkpt>
      <trkpt lat="45.64838" lon="6.66305">
        <ele>2496</ele>
        <time>2022-07-26T11:51:20Z</time>
      </trkpt>
      <trkpt lat="45.64839" lon="6.66302">
        <ele>2496</ele>
        <time>2022-07-26T11:51:21Z</time>
      </trkpt>
      <trkpt lat="45.64839" lon="6.663">
        <ele>2496</ele>
        <time>2022-07-26T11:51:22Z</time>
      </trkpt>
      <trkpt lat="45.6484" lon="6.66298">
        <ele>2496</ele>
        <time>2022-07-26T11:51:23Z</time>
      </trkpt>
      <trkpt lat="45.6484" lon="6.66296">
        <ele>2495</ele>
        <time>2022-07-26T11:51:24Z</time>
      </trkpt>
      <trkpt lat="45.64841" lon="6.66294">
        <ele>2495</ele>
        <time>2022-07-26T11:51:25Z</time>
      </trkpt>
      <trkpt lat="45.64841" lon="6.66292">
        <ele>2495</ele>
        <time>2022-07-26T11:51:26Z</time>
      </trkpt>
      <trkpt lat="45.64842" lon="6.66291">
        <ele>2495</ele>
        <time>2022-07-26T11:51:27Z</time>
      </trkpt>
      <trkpt lat="45.64842" lon="6.66289">
        <ele>2495</ele>
        <time>2022-07-26T11:51:28Z</time>
      </trkpt>
      <trkpt lat="45.64843" lon="6.66287">
        <ele>2494</ele>
        <time>2022-07-26T11:51:29Z</time>
      </trkpt>
      <trkpt lat="45.64843" lon="6.66285">
        <ele>2494</ele>
        <time>2022-07-26T11:51:30Z</time>
      </trkpt>
      <trkpt lat="45.64844" lon="6.66284">
        <ele>2493</ele>
        <time>2022-07-26T11:51:31Z</time>
      </trkpt>
      <trkpt lat="45.64845" lon="6.66282">
        <ele>2493</ele>
        <time>2022-07-26T11:51:32Z</time>
      </trkpt>
      <trkpt lat="45.64845" lon="6.6628">
        <ele>2493</ele>
        <time>2022-07-26T11:51:33Z</time>
      </trkpt>
      <trkpt lat="45.64846" lon="6.66279">
        <ele>2492</ele>
        <time>2022-07-26T11:51:34Z</time>
      </trkpt>
      <trkpt lat="45.64847" lon="6.66277">
        <ele>2492</ele>
        <time>2022-07-26T11:51:35Z</time>
      </trkpt>
      <trkpt lat="45.64847" lon="6.66276">
        <ele>2492</ele>
        <time>2022-07-26T11:51:36Z</time>
      </trkpt>
      <trkpt lat="45.64848" lon="6.66274">
        <ele>2492</ele>
        <time>2022-07-26T11:51:37Z</time>
      </trkpt>
      <trkpt lat="45.64848" lon="6.66273">
        <ele>2492</ele>
        <time>2022-07-26T11:51:38Z</time>
      </trkpt>
      <trkpt lat="45.64848" lon="6.66271">
        <ele>2491</ele>
        <time>2022-07-26T11:51:39Z</time>
      </trkpt>
      <trkpt lat="45.64848" lon="6.6627">
        <ele>2491</ele>
        <time>2022-07-26T11:51:40Z</time>
      </trkpt>
      <trkpt lat="45.64849" lon="6.66268">
        <ele>2491</ele>
        <time>2022-07-26T11:51:41Z</time>
      </trkpt>
      <trkpt lat="45.64849" lon="6.66267">
        <ele>2491</ele>
        <time>2022-07-26T11:51:42Z</time>
      </trkpt>
      <trkpt lat="45.64849" lon="6.66265">
        <ele>2491</ele>
        <time>2022-07-26T11:51:43Z</time>
      </trkpt>
      <trkpt lat="45.6485" lon="6.66264">
        <ele>2490</ele>
        <time>2022-07-26T11:51:44Z</time>
      </trkpt>
      <trkpt lat="45.6485" lon="6.66262">
        <ele>2490</ele>
        <time>2022-07-26T11:51:45Z</time>
      </trkpt>
      <trkpt lat="45.64851" lon="6.66261">
        <ele>2490</ele>
        <time>2022-07-26T11:51:46Z</time>
      </trkpt>
      <trkpt lat="45.64851" lon="6.66259">
        <ele>2490</ele>
        <time>2022-07-26T11:51:47Z</time>
      </trkpt>
      <trkpt lat="45.64852" lon="6.66258">
        <ele>2490</ele>
        <time>2022-07-26T11:51:48Z</time>
      </trkpt>
      <trkpt lat="45.64853" lon="6.66257">
        <ele>2489</ele>
        <time>2022-07-26T11:51:49Z</time>
      </trkpt>
      <trkpt lat="45.64854" lon="6.66256">
        <ele>2489</ele>
        <time>2022-07-26T11:51:50Z</time>
      </trkpt>
      <trkpt lat="45.64855" lon="6.66256">
        <ele>2489</ele>
        <time>2022-07-26T11:51:51Z</time>
      </trkpt>
      <trkpt lat="45.64855" lon="6.66255">
        <ele>2489</ele>
        <time>2022-07-26T11:51:52Z</time>
      </trkpt>
      <trkpt lat="45.64855" lon="6.66254">
        <ele>2489</ele>
        <time>2022-07-26T11:51:53Z</time>
      </trkpt>
      <trkpt lat="45.64855" lon="6.66252">
        <ele>2488</ele>
        <time>2022-07-26T11:51:54Z</time>
      </trkpt>
      <trkpt lat="45.64855" lon="6.66251">
        <ele>2488</ele>
        <time>2022-07-26T11:51:55Z</time>
      </trkpt>
      <trkpt lat="45.64855" lon="6.6625">
        <ele>2488</ele>
        <time>2022-07-26T11:51:56Z</time>
      </trkpt>
      <trkpt lat="45.64855" lon="6.66248">
        <ele>2488</ele>
        <time>2022-07-26T11:51:57Z</time>
      </trkpt>
      <trkpt lat="45.64855" lon="6.66247">
        <ele>2488</ele>
        <time>2022-07-26T11:51:58Z</time>
      </trkpt>
      <trkpt lat="45.64855" lon="6.66246">
        <ele>2487</ele>
        <time>2022-07-26T11:51:59Z</time>
      </trkpt>
      <trkpt lat="45.64854" lon="6.66245">
        <ele>2487</ele>
        <time>2022-07-26T11:52:00Z</time>
      </trkpt>
      <trkpt lat="45.64854" lon="6.66244">
        <ele>2487</ele>
        <time>2022-07-26T11:52:01Z</time>
      </trkpt>
      <trkpt lat="45.64854" lon="6.66243">
        <ele>2487</ele>
        <time>2022-07-26T11:52:02Z</time>
      </trkpt>
      <trkpt lat="45.64854" lon="6.66242">
        <ele>2487</ele>
        <time>2022-07-26T11:52:03Z</time>
      </trkpt>
      <trkpt lat="45.64854" lon="6.6624">
        <ele>2486</ele>
        <time>2022-07-26T11:52:04Z</time>
      </trkpt>
      <trkpt lat="45.64853" lon="6.66239">
        <ele>2486</ele>
        <time>2022-07-26T11:52:05Z</time>
      </trkpt>
      <trkpt lat="45.64853" lon="6.66238">
        <ele>2486</ele>
        <time>2022-07-26T11:52:06Z</time>
      </trkpt>
      <trkpt lat="45.64853" lon="6.66237">
        <ele>2486</ele>
        <time>2022-07-26T11:52:07Z</time>
      </trkpt>
      <trkpt lat="45.64853" lon="6.66236">
        <ele>2486</ele>
        <time>2022-07-26T11:52:08Z</time>
      </trkpt>
      <trkpt lat="45.64853" lon="6.66235">
        <ele>2485</ele>
        <time>2022-07-26T11:52:09Z</time>
      </trkpt>
      <trkpt lat="45.64853" lon="6.66234">
        <ele>2485</ele>
        <time>2022-07-26T11:52:10Z</time>
      </trkpt>
      <trkpt lat="45.64853" lon="6.66233">
        <ele>2485</ele>
        <time>2022-07-26T11:52:11Z</time>
      </trkpt>
      <trkpt lat="45.64853" lon="6.66231">
        <ele>2485</ele>
        <time>2022-07-26T11:52:12Z</time>
      </trkpt>
      <trkpt lat="45.64853" lon="6.66229">
        <ele>2485</ele>
        <time>2022-07-26T11:52:13Z</time>
      </trkpt>
      <trkpt lat="45.64852" lon="6.66228">
        <ele>2484</ele>
        <time>2022-07-26T11:52:14Z</time>
      </trkpt>
      <trkpt lat="45.64852" lon="6.66226">
        <ele>2484</ele>
        <time>2022-07-26T11:52:15Z</time>
      </trkpt>
      <trkpt lat="45.64852" lon="6.66224">
        <ele>2484</ele>
        <time>2022-07-26T11:52:16Z</time>
      </trkpt>
      <trkpt lat="45.64851" lon="6.66223">
        <ele>2484</ele>
        <time>2022-07-26T11:52:17Z</time>
      </trkpt>
      <trkpt lat="45.64851" lon="6.66221">
        <ele>2484</ele>
        <time>2022-07-26T11:52:18Z</time>
      </trkpt>
      <trkpt lat="45.6485" lon="6.6622">
        <ele>2483</ele>
        <time>2022-07-26T11:52:19Z</time>
      </trkpt>
      <trkpt lat="45.6485" lon="6.66218">
        <ele>2483</ele>
        <time>2022-07-26T11:52:20Z</time>
      </trkpt>
      <trkpt lat="45.64849" lon="6.66217">
        <ele>2483</ele>
        <time>2022-07-26T11:52:21Z</time>
      </trkpt>
      <trkpt lat="45.64849" lon="6.66216">
        <ele>2483</ele>
        <time>2022-07-26T11:52:22Z</time>
      </trkpt>
      <trkpt lat="45.64849" lon="6.66214">
        <ele>2483</ele>
        <time>2022-07-26T11:52:23Z</time>
      </trkpt>
      <trkpt lat="45.64849" lon="6.66213">
        <ele>2482</ele>
        <time>2022-07-26T11:52:24Z</time>
      </trkpt>
      <trkpt lat="45.64849" lon="6.66211">
        <ele>2482</ele>
        <time>2022-07-26T11:52:25Z</time>
      </trkpt>
      <trkpt lat="45.64849" lon="6.6621">
        <ele>2482</ele>
        <time>2022-07-26T11:52:26Z</time>
      </trkpt>
      <trkpt lat="45.64849" lon="6.66208">
        <ele>2482</ele>
        <time>2022-07-26T11:52:27Z</time>
      </trkpt>
      <trkpt lat="45.64849" lon="6.66206">
        <ele>2482</ele>
        <time>2022-07-26T11:52:28Z</time>
      </trkpt>
      <trkpt lat="45.64848" lon="6.66205">
        <ele>2481</ele>
        <time>2022-07-26T11:52:29Z</time>
      </trkpt>
      <trkpt lat="45.64848" lon="6.66204">
        <ele>2481</ele>
        <time>2022-07-26T11:52:30Z</time>
      </trkpt>
      <trkpt lat="45.64848" lon="6.66202">
        <ele>2481</ele>
        <time>2022-07-26T11:52:31Z</time>
      </trkpt>
      <trkpt lat="45.64847" lon="6.66201">
        <ele>2481</ele>
        <time>2022-07-26T11:52:32Z</time>
      </trkpt>
      <trkpt lat="45.64847" lon="6.662">
        <ele>2481</ele>
        <time>2022-07-26T11:52:33Z</time>
      </trkpt>
      <trkpt lat="45.64846" lon="6.66199">
        <ele>2481</ele>
        <time>2022-07-26T11:52:34Z</time>
      </trkpt>
      <trkpt lat="45.64846" lon="6.66198">
        <ele>2481</ele>
        <time>2022-07-26T11:52:35Z</time>
      </trkpt>
      <trkpt lat="45.64845" lon="6.66197">
        <ele>2481</ele>
        <time>2022-07-26T11:52:36Z</time>
      </trkpt>
      <trkpt lat="45.64844" lon="6.66196">
        <ele>2481</ele>
        <time>2022-07-26T11:52:37Z</time>
      </trkpt>
      <trkpt lat="45.64844" lon="6.66195">
        <ele>2481</ele>
        <time>2022-07-26T11:52:38Z</time>
      </trkpt>
      <trkpt lat="45.64843" lon="6.66194">
        <ele>2480</ele>
        <time>2022-07-26T11:52:39Z</time>
      </trkpt>
      <trkpt lat="45.64842" lon="6.66192">
        <ele>2480</ele>
        <time>2022-07-26T11:52:40Z</time>
      </trkpt>
      <trkpt lat="45.64842" lon="6.66191">
        <ele>2480</ele>
        <time>2022-07-26T11:52:41Z</time>
      </trkpt>
      <trkpt lat="45.64841" lon="6.6619">
        <ele>2480</ele>
        <time>2022-07-26T11:52:42Z</time>
      </trkpt>
      <trkpt lat="45.64841" lon="6.66189">
        <ele>2480</ele>
        <time>2022-07-26T11:52:43Z</time>
      </trkpt>
      <trkpt lat="45.6484" lon="6.66187">
        <ele>2479</ele>
        <time>2022-07-26T11:52:44Z</time>
      </trkpt>
      <trkpt lat="45.6484" lon="6.66186">
        <ele>2479</ele>
        <time>2022-07-26T11:52:45Z</time>
      </trkpt>
      <trkpt lat="45.6484" lon="6.66185">
        <ele>2479</ele>
        <time>2022-07-26T11:52:46Z</time>
      </trkpt>
      <trkpt lat="45.64839" lon="6.66183">
        <ele>2479</ele>
        <time>2022-07-26T11:52:47Z</time>
      </trkpt>
      <trkpt lat="45.64839" lon="6.66182">
        <ele>2479</ele>
        <time>2022-07-26T11:52:48Z</time>
      </trkpt>
      <trkpt lat="45.64838" lon="6.66181">
        <ele>2478</ele>
        <time>2022-07-26T11:52:49Z</time>
      </trkpt>
      <trkpt lat="45.64838" lon="6.6618">
        <ele>2478</ele>
        <time>2022-07-26T11:52:50Z</time>
      </trkpt>
      <trkpt lat="45.64838" lon="6.66179">
        <ele>2478</ele>
        <time>2022-07-26T11:52:51Z</time>
      </trkpt>
      <trkpt lat="45.64837" lon="6.66178">
        <ele>2478</ele>
        <time>2022-07-26T11:52:52Z</time>
      </trkpt>
      <trkpt lat="45.64837" lon="6.66177">
        <ele>2478</ele>
        <time>2022-07-26T11:52:53Z</time>
      </trkpt>
      <trkpt lat="45.64835" lon="6.66175">
        <ele>2476</ele>
        <time>2022-07-26T11:53:05Z</time>
      </trkpt>
      <trkpt lat="45.64835" lon="6.66174">
        <ele>2475</ele>
        <time>2022-07-26T11:53:06Z</time>
      </trkpt>
      <trkpt lat="45.64834" lon="6.66173">
        <ele>2475</ele>
        <time>2022-07-26T11:53:07Z</time>
      </trkpt>
      <trkpt lat="45.64834" lon="6.66173">
        <ele>2475</ele>
        <time>2022-07-26T11:53:08Z</time>
      </trkpt>
      <trkpt lat="45.64833" lon="6.66172">
        <ele>2475</ele>
        <time>2022-07-26T11:53:09Z</time>
      </trkpt>
      <trkpt lat="45.64832" lon="6.66172">
        <ele>2475</ele>
        <time>2022-07-26T11:53:10Z</time>
      </trkpt>
      <trkpt lat="45.64832" lon="6.66171">
        <ele>2475</ele>
        <time>2022-07-26T11:53:11Z</time>
      </trkpt>
      <trkpt lat="45.64831" lon="6.66171">
        <ele>2475</ele>
        <time>2022-07-26T11:53:12Z</time>
      </trkpt>
      <trkpt lat="45.64831" lon="6.6617">
        <ele>2475</ele>
        <time>2022-07-26T11:53:13Z</time>
      </trkpt>
      <trkpt lat="45.6483" lon="6.6617">
        <ele>2474</ele>
        <time>2022-07-26T11:53:14Z</time>
      </trkpt>
      <trkpt lat="45.6483" lon="6.66169">
        <ele>2474</ele>
        <time>2022-07-26T11:53:15Z</time>
      </trkpt>
      <trkpt lat="45.64829" lon="6.66169">
        <ele>2474</ele>
        <time>2022-07-26T11:53:16Z</time>
      </trkpt>
      <trkpt lat="45.64828" lon="6.66169">
        <ele>2474</ele>
        <time>2022-07-26T11:53:17Z</time>
      </trkpt>
      <trkpt lat="45.64828" lon="6.66169">
        <ele>2474</ele>
        <time>2022-07-26T11:53:18Z</time>
      </trkpt>
      <trkpt lat="45.64827" lon="6.66169">
        <ele>2474</ele>
        <time>2022-07-26T11:53:19Z</time>
      </trkpt>
      <trkpt lat="45.64824" lon="6.66167">
        <ele>2470</ele>
        <time>2022-07-26T11:53:47Z</time>
      </trkpt>
      <trkpt lat="45.64822" lon="6.66166">
        <ele>2470</ele>
        <time>2022-07-26T11:53:48Z</time>
      </trkpt>
      <trkpt lat="45.6482" lon="6.66165">
        <ele>2470</ele>
        <time>2022-07-26T11:53:49Z</time>
      </trkpt>
      <trkpt lat="45.64819" lon="6.66164">
        <ele>2470</ele>
        <time>2022-07-26T11:53:50Z</time>
      </trkpt>
      <trkpt lat="45.64818" lon="6.66164">
        <ele>2470</ele>
        <time>2022-07-26T11:53:51Z</time>
      </trkpt>
      <trkpt lat="45.64818" lon="6.66163">
        <ele>2470</ele>
        <time>2022-07-26T11:53:52Z</time>
      </trkpt>
      <trkpt lat="45.64817" lon="6.66162">
        <ele>2470</ele>
        <time>2022-07-26T11:53:53Z</time>
      </trkpt>
      <trkpt lat="45.64817" lon="6.66161">
        <ele>2469</ele>
        <time>2022-07-26T11:53:54Z</time>
      </trkpt>
      <trkpt lat="45.64817" lon="6.6616">
        <ele>2469</ele>
        <time>2022-07-26T11:53:55Z</time>
      </trkpt>
      <trkpt lat="45.64815" lon="6.66156">
        <ele>2466</ele>
        <time>2022-07-26T11:54:34Z</time>
      </trkpt>
      <trkpt lat="45.64814" lon="6.66155">
        <ele>2466</ele>
        <time>2022-07-26T11:54:35Z</time>
      </trkpt>
      <trkpt lat="45.64813" lon="6.66154">
        <ele>2466</ele>
        <time>2022-07-26T11:54:36Z</time>
      </trkpt>
      <trkpt lat="45.64812" lon="6.66153">
        <ele>2466</ele>
        <time>2022-07-26T11:54:37Z</time>
      </trkpt>
      <trkpt lat="45.64812" lon="6.66152">
        <ele>2466</ele>
        <time>2022-07-26T11:54:38Z</time>
      </trkpt>
      <trkpt lat="45.6481" lon="6.6615">
        <ele>2465</ele>
        <time>2022-07-26T11:54:58Z</time>
      </trkpt>
      <trkpt lat="45.64809" lon="6.66149">
        <ele>2465</ele>
        <time>2022-07-26T11:54:59Z</time>
      </trkpt>
      <trkpt lat="45.64808" lon="6.66147">
        <ele>2465</ele>
        <time>2022-07-26T11:55:00Z</time>
      </trkpt>
      <trkpt lat="45.64807" lon="6.66147">
        <ele>2465</ele>
        <time>2022-07-26T11:55:01Z</time>
      </trkpt>
      <trkpt lat="45.64806" lon="6.66146">
        <ele>2465</ele>
        <time>2022-07-26T11:55:02Z</time>
      </trkpt>
      <trkpt lat="45.64803" lon="6.66145">
        <ele>2465</ele>
        <time>2022-07-26T11:55:29Z</time>
      </trkpt>
      <trkpt lat="45.64801" lon="6.66145">
        <ele>2465</ele>
        <time>2022-07-26T11:55:30Z</time>
      </trkpt>
      <trkpt lat="45.648" lon="6.66145">
        <ele>2465</ele>
        <time>2022-07-26T11:55:31Z</time>
      </trkpt>
      <trkpt lat="45.64799" lon="6.66145">
        <ele>2465</ele>
        <time>2022-07-26T11:55:32Z</time>
      </trkpt>
      <trkpt lat="45.64798" lon="6.66145">
        <ele>2465</ele>
        <time>2022-07-26T11:55:33Z</time>
      </trkpt>
      <trkpt lat="45.64798" lon="6.66145">
        <ele>2464</ele>
        <time>2022-07-26T11:55:34Z</time>
      </trkpt>
      <trkpt lat="45.64797" lon="6.66144">
        <ele>2464</ele>
        <time>2022-07-26T11:55:35Z</time>
      </trkpt>
      <trkpt lat="45.64796" lon="6.66143">
        <ele>2464</ele>
        <time>2022-07-26T11:55:36Z</time>
      </trkpt>
      <trkpt lat="45.64796" lon="6.66143">
        <ele>2464</ele>
        <time>2022-07-26T11:55:37Z</time>
      </trkpt>
      <trkpt lat="45.64795" lon="6.66142">
        <ele>2464</ele>
        <time>2022-07-26T11:55:38Z</time>
      </trkpt>
      <trkpt lat="45.64795" lon="6.66141">
        <ele>2464</ele>
        <time>2022-07-26T11:55:39Z</time>
      </trkpt>
      <trkpt lat="45.64794" lon="6.66141">
        <ele>2464</ele>
        <time>2022-07-26T11:55:40Z</time>
      </trkpt>
      <trkpt lat="45.64794" lon="6.6614">
        <ele>2464</ele>
        <time>2022-07-26T11:55:41Z</time>
      </trkpt>
      <trkpt lat="45.64794" lon="6.66139">
        <ele>2464</ele>
        <time>2022-07-26T11:55:42Z</time>
      </trkpt>
      <trkpt lat="45.64793" lon="6.66139">
        <ele>2464</ele>
        <time>2022-07-26T11:55:43Z</time>
      </trkpt>
      <trkpt lat="45.64793" lon="6.66138">
        <ele>2464</ele>
        <time>2022-07-26T11:55:44Z</time>
      </trkpt>
      <trkpt lat="45.64792" lon="6.66137">
        <ele>2464</ele>
        <time>2022-07-26T11:55:45Z</time>
      </trkpt>
      <trkpt lat="45.64792" lon="6.66137">
        <ele>2464</ele>
        <time>2022-07-26T11:55:46Z</time>
      </trkpt>
      <trkpt lat="45.64791" lon="6.66136">
        <ele>2464</ele>
        <time>2022-07-26T11:55:47Z</time>
      </trkpt>
      <trkpt lat="45.6479" lon="6.66135">
        <ele>2464</ele>
        <time>2022-07-26T11:55:48Z</time>
      </trkpt>
      <trkpt lat="45.6479" lon="6.66135">
        <ele>2464</ele>
        <time>2022-07-26T11:55:49Z</time>
      </trkpt>
      <trkpt lat="45.64789" lon="6.66135">
        <ele>2464</ele>
        <time>2022-07-26T11:55:50Z</time>
      </trkpt>
      <trkpt lat="45.64789" lon="6.66135">
        <ele>2464</ele>
        <time>2022-07-26T11:55:51Z</time>
      </trkpt>
      <trkpt lat="45.64788" lon="6.66135">
        <ele>2464</ele>
        <time>2022-07-26T11:55:52Z</time>
      </trkpt>
      <trkpt lat="45.64787" lon="6.66135">
        <ele>2464</ele>
        <time>2022-07-26T11:55:53Z</time>
      </trkpt>
      <trkpt lat="45.64786" lon="6.66135">
        <ele>2464</ele>
        <time>2022-07-26T11:55:54Z</time>
      </trkpt>
      <trkpt lat="45.64785" lon="6.66135">
        <ele>2464</ele>
        <time>2022-07-26T11:55:55Z</time>
      </trkpt>
      <trkpt lat="45.64784" lon="6.66135">
        <ele>2464</ele>
        <time>2022-07-26T11:55:56Z</time>
      </trkpt>
      <trkpt lat="45.64784" lon="6.66135">
        <ele>2464</ele>
        <time>2022-07-26T11:55:57Z</time>
      </trkpt>
      <trkpt lat="45.64783" lon="6.66135">
        <ele>2464</ele>
        <time>2022-07-26T11:55:58Z</time>
      </trkpt>
      <trkpt lat="45.64782" lon="6.66134">
        <ele>2464</ele>
        <time>2022-07-26T11:55:59Z</time>
      </trkpt>
      <trkpt lat="45.64781" lon="6.66134">
        <ele>2464</ele>
        <time>2022-07-26T11:56:00Z</time>
      </trkpt>
      <trkpt lat="45.6478" lon="6.66133">
        <ele>2464</ele>
        <time>2022-07-26T11:56:01Z</time>
      </trkpt>
      <trkpt lat="45.6478" lon="6.66133">
        <ele>2464</ele>
        <time>2022-07-26T11:56:02Z</time>
      </trkpt>
      <trkpt lat="45.64779" lon="6.66132">
        <ele>2464</ele>
        <time>2022-07-26T11:56:03Z</time>
      </trkpt>
      <trkpt lat="45.64778" lon="6.66132">
        <ele>2464</ele>
        <time>2022-07-26T11:56:04Z</time>
      </trkpt>
      <trkpt lat="45.64777" lon="6.66132">
        <ele>2464</ele>
        <time>2022-07-26T11:56:05Z</time>
      </trkpt>
      <trkpt lat="45.64777" lon="6.66131">
        <ele>2464</ele>
        <time>2022-07-26T11:56:06Z</time>
      </trkpt>
      <trkpt lat="45.64776" lon="6.66131">
        <ele>2464</ele>
        <time>2022-07-26T11:56:07Z</time>
      </trkpt>
      <trkpt lat="45.64776" lon="6.66131">
        <ele>2465</ele>
        <time>2022-07-26T11:56:08Z</time>
      </trkpt>
      <trkpt lat="45.64775" lon="6.66131">
        <ele>2465</ele>
        <time>2022-07-26T11:56:09Z</time>
      </trkpt>
      <trkpt lat="45.64774" lon="6.66131">
        <ele>2465</ele>
        <time>2022-07-26T11:56:10Z</time>
      </trkpt>
      <trkpt lat="45.64774" lon="6.6613">
        <ele>2465</ele>
        <time>2022-07-26T11:56:11Z</time>
      </trkpt>
      <trkpt lat="45.64773" lon="6.6613">
        <ele>2465</ele>
        <time>2022-07-26T11:56:12Z</time>
      </trkpt>
      <trkpt lat="45.64773" lon="6.6613">
        <ele>2465</ele>
        <time>2022-07-26T11:56:13Z</time>
      </trkpt>
      <trkpt lat="45.64772" lon="6.6613">
        <ele>2465</ele>
        <time>2022-07-26T11:56:14Z</time>
      </trkpt>
      <trkpt lat="45.64771" lon="6.6613">
        <ele>2465</ele>
        <time>2022-07-26T11:56:15Z</time>
      </trkpt>
      <trkpt lat="45.64771" lon="6.66129">
        <ele>2465</ele>
        <time>2022-07-26T11:56:16Z</time>
      </trkpt>
      <trkpt lat="45.6477" lon="6.66129">
        <ele>2465</ele>
        <time>2022-07-26T11:56:17Z</time>
      </trkpt>
      <trkpt lat="45.6477" lon="6.66128">
        <ele>2465</ele>
        <time>2022-07-26T11:56:18Z</time>
      </trkpt>
      <trkpt lat="45.64769" lon="6.66127">
        <ele>2465</ele>
        <time>2022-07-26T11:56:19Z</time>
      </trkpt>
      <trkpt lat="45.64769" lon="6.66127">
        <ele>2465</ele>
        <time>2022-07-26T11:56:20Z</time>
      </trkpt>
      <trkpt lat="45.64769" lon="6.66127">
        <ele>2465</ele>
        <time>2022-07-26T11:56:21Z</time>
      </trkpt>
      <trkpt lat="45.64768" lon="6.66126">
        <ele>2465</ele>
        <time>2022-07-26T11:56:22Z</time>
      </trkpt>
      <trkpt lat="45.64768" lon="6.66126">
        <ele>2465</ele>
        <time>2022-07-26T11:56:23Z</time>
      </trkpt>
      <trkpt lat="45.64768" lon="6.66125">
        <ele>2465</ele>
        <time>2022-07-26T11:56:24Z</time>
      </trkpt>
      <trkpt lat="45.64767" lon="6.66124">
        <ele>2465</ele>
        <time>2022-07-26T11:56:25Z</time>
      </trkpt>
      <trkpt lat="45.64767" lon="6.66124">
        <ele>2465</ele>
        <time>2022-07-26T11:56:26Z</time>
      </trkpt>
      <trkpt lat="45.64766" lon="6.66123">
        <ele>2465</ele>
        <time>2022-07-26T11:56:27Z</time>
      </trkpt>
      <trkpt lat="45.64766" lon="6.66122">
        <ele>2465</ele>
        <time>2022-07-26T11:56:28Z</time>
      </trkpt>
      <trkpt lat="45.64765" lon="6.66121">
        <ele>2465</ele>
        <time>2022-07-26T11:56:29Z</time>
      </trkpt>
      <trkpt lat="45.64765" lon="6.6612">
        <ele>2465</ele>
        <time>2022-07-26T11:56:30Z</time>
      </trkpt>
      <trkpt lat="45.64764" lon="6.66119">
        <ele>2465</ele>
        <time>2022-07-26T11:56:31Z</time>
      </trkpt>
      <trkpt lat="45.64764" lon="6.66117">
        <ele>2465</ele>
        <time>2022-07-26T11:56:32Z</time>
      </trkpt>
      <trkpt lat="45.64763" lon="6.66115">
        <ele>2465</ele>
        <time>2022-07-26T11:56:33Z</time>
      </trkpt>
      <trkpt lat="45.64763" lon="6.66113">
        <ele>2464</ele>
        <time>2022-07-26T11:56:34Z</time>
      </trkpt>
      <trkpt lat="45.64762" lon="6.66111">
        <ele>2464</ele>
        <time>2022-07-26T11:56:35Z</time>
      </trkpt>
      <trkpt lat="45.64762" lon="6.6611">
        <ele>2464</ele>
        <time>2022-07-26T11:56:36Z</time>
      </trkpt>
      <trkpt lat="45.64761" lon="6.66108">
        <ele>2464</ele>
        <time>2022-07-26T11:56:37Z</time>
      </trkpt>
      <trkpt lat="45.64761" lon="6.66106">
        <ele>2464</ele>
        <time>2022-07-26T11:56:38Z</time>
      </trkpt>
      <trkpt lat="45.6476" lon="6.66105">
        <ele>2464</ele>
        <time>2022-07-26T11:56:39Z</time>
      </trkpt>
      <trkpt lat="45.6476" lon="6.66104">
        <ele>2464</ele>
        <time>2022-07-26T11:56:40Z</time>
      </trkpt>
      <trkpt lat="45.64759" lon="6.66103">
        <ele>2464</ele>
        <time>2022-07-26T11:56:41Z</time>
      </trkpt>
      <trkpt lat="45.64758" lon="6.66102">
        <ele>2464</ele>
        <time>2022-07-26T11:56:42Z</time>
      </trkpt>
      <trkpt lat="45.64758" lon="6.66101">
        <ele>2464</ele>
        <time>2022-07-26T11:56:43Z</time>
      </trkpt>
      <trkpt lat="45.64758" lon="6.661">
        <ele>2463</ele>
        <time>2022-07-26T11:56:44Z</time>
      </trkpt>
      <trkpt lat="45.64757" lon="6.661">
        <ele>2463</ele>
        <time>2022-07-26T11:56:45Z</time>
      </trkpt>
      <trkpt lat="45.64757" lon="6.66099">
        <ele>2463</ele>
        <time>2022-07-26T11:56:46Z</time>
      </trkpt>
      <trkpt lat="45.64757" lon="6.66099">
        <ele>2463</ele>
        <time>2022-07-26T11:56:47Z</time>
      </trkpt>
      <trkpt lat="45.64756" lon="6.66098">
        <ele>2463</ele>
        <time>2022-07-26T11:56:48Z</time>
      </trkpt>
      <trkpt lat="45.64756" lon="6.66097">
        <ele>2462</ele>
        <time>2022-07-26T11:56:49Z</time>
      </trkpt>
      <trkpt lat="45.64755" lon="6.66097">
        <ele>2462</ele>
        <time>2022-07-26T11:56:50Z</time>
      </trkpt>
      <trkpt lat="45.64755" lon="6.66096">
        <ele>2462</ele>
        <time>2022-07-26T11:56:51Z</time>
      </trkpt>
      <trkpt lat="45.64755" lon="6.66096">
        <ele>2462</ele>
        <time>2022-07-26T11:56:52Z</time>
      </trkpt>
      <trkpt lat="45.64754" lon="6.66096">
        <ele>2462</ele>
        <time>2022-07-26T11:56:53Z</time>
      </trkpt>
      <trkpt lat="45.64753" lon="6.66095">
        <ele>2460</ele>
        <time>2022-07-26T11:56:59Z</time>
      </trkpt>
      <trkpt lat="45.64753" lon="6.66095">
        <ele>2460</ele>
        <time>2022-07-26T11:57:00Z</time>
      </trkpt>
      <trkpt lat="45.64752" lon="6.66095">
        <ele>2460</ele>
        <time>2022-07-26T11:57:01Z</time>
      </trkpt>
      <trkpt lat="45.64751" lon="6.66094">
        <ele>2460</ele>
        <time>2022-07-26T11:57:02Z</time>
      </trkpt>
      <trkpt lat="45.6475" lon="6.66094">
        <ele>2460</ele>
        <time>2022-07-26T11:57:03Z</time>
      </trkpt>
      <trkpt lat="45.6475" lon="6.66093">
        <ele>2459</ele>
        <time>2022-07-26T11:57:04Z</time>
      </trkpt>
      <trkpt lat="45.64749" lon="6.66092">
        <ele>2459</ele>
        <time>2022-07-26T11:57:05Z</time>
      </trkpt>
      <trkpt lat="45.64748" lon="6.66091">
        <ele>2459</ele>
        <time>2022-07-26T11:57:06Z</time>
      </trkpt>
      <trkpt lat="45.64747" lon="6.6609">
        <ele>2459</ele>
        <time>2022-07-26T11:57:07Z</time>
      </trkpt>
      <trkpt lat="45.64746" lon="6.6609">
        <ele>2459</ele>
        <time>2022-07-26T11:57:08Z</time>
      </trkpt>
      <trkpt lat="45.64746" lon="6.66089">
        <ele>2458</ele>
        <time>2022-07-26T11:57:09Z</time>
      </trkpt>
      <trkpt lat="45.64745" lon="6.66088">
        <ele>2458</ele>
        <time>2022-07-26T11:57:10Z</time>
      </trkpt>
      <trkpt lat="45.64744" lon="6.66087">
        <ele>2458</ele>
        <time>2022-07-26T11:57:11Z</time>
      </trkpt>
      <trkpt lat="45.64743" lon="6.66086">
        <ele>2458</ele>
        <time>2022-07-26T11:57:12Z</time>
      </trkpt>
      <trkpt lat="45.64742" lon="6.66086">
        <ele>2458</ele>
        <time>2022-07-26T11:57:13Z</time>
      </trkpt>
      <trkpt lat="45.64742" lon="6.66085">
        <ele>2457</ele>
        <time>2022-07-26T11:57:14Z</time>
      </trkpt>
      <trkpt lat="45.64741" lon="6.66084">
        <ele>2457</ele>
        <time>2022-07-26T11:57:15Z</time>
      </trkpt>
      <trkpt lat="45.6474" lon="6.66084">
        <ele>2457</ele>
        <time>2022-07-26T11:57:16Z</time>
      </trkpt>
      <trkpt lat="45.64739" lon="6.66083">
        <ele>2457</ele>
        <time>2022-07-26T11:57:17Z</time>
      </trkpt>
      <trkpt lat="45.64739" lon="6.66082">
        <ele>2457</ele>
        <time>2022-07-26T11:57:18Z</time>
      </trkpt>
      <trkpt lat="45.64738" lon="6.66081">
        <ele>2456</ele>
        <time>2022-07-26T11:57:19Z</time>
      </trkpt>
      <trkpt lat="45.64737" lon="6.6608">
        <ele>2456</ele>
        <time>2022-07-26T11:57:20Z</time>
      </trkpt>
      <trkpt lat="45.64737" lon="6.6608">
        <ele>2456</ele>
        <time>2022-07-26T11:57:21Z</time>
      </trkpt>
      <trkpt lat="45.64736" lon="6.66079">
        <ele>2456</ele>
        <time>2022-07-26T11:57:22Z</time>
      </trkpt>
      <trkpt lat="45.64735" lon="6.66078">
        <ele>2456</ele>
        <time>2022-07-26T11:57:23Z</time>
      </trkpt>
      <trkpt lat="45.64735" lon="6.66078">
        <ele>2455</ele>
        <time>2022-07-26T11:57:24Z</time>
      </trkpt>
      <trkpt lat="45.64735" lon="6.66077">
        <ele>2455</ele>
        <time>2022-07-26T11:57:25Z</time>
      </trkpt>
      <trkpt lat="45.64735" lon="6.66077">
        <ele>2454</ele>
        <time>2022-07-26T11:57:26Z</time>
      </trkpt>
      <trkpt lat="45.64734" lon="6.66076">
        <ele>2454</ele>
        <time>2022-07-26T11:57:27Z</time>
      </trkpt>
      <trkpt lat="45.64734" lon="6.66076">
        <ele>2454</ele>
        <time>2022-07-26T11:57:28Z</time>
      </trkpt>
      <trkpt lat="45.64733" lon="6.66075">
        <ele>2454</ele>
        <time>2022-07-26T11:57:29Z</time>
      </trkpt>
      <trkpt lat="45.64733" lon="6.66074">
        <ele>2454</ele>
        <time>2022-07-26T11:57:30Z</time>
      </trkpt>
      <trkpt lat="45.64732" lon="6.66073">
        <ele>2454</ele>
        <time>2022-07-26T11:57:31Z</time>
      </trkpt>
      <trkpt lat="45.64732" lon="6.66073">
        <ele>2454</ele>
        <time>2022-07-26T11:57:32Z</time>
      </trkpt>
      <trkpt lat="45.64731" lon="6.66072">
        <ele>2454</ele>
        <time>2022-07-26T11:57:33Z</time>
      </trkpt>
      <trkpt lat="45.6473" lon="6.66072">
        <ele>2453</ele>
        <time>2022-07-26T11:57:34Z</time>
      </trkpt>
      <trkpt lat="45.64729" lon="6.66071">
        <ele>2453</ele>
        <time>2022-07-26T11:57:35Z</time>
      </trkpt>
      <trkpt lat="45.64728" lon="6.6607">
        <ele>2453</ele>
        <time>2022-07-26T11:57:36Z</time>
      </trkpt>
      <trkpt lat="45.64727" lon="6.66069">
        <ele>2453</ele>
        <time>2022-07-26T11:57:37Z</time>
      </trkpt>
      <trkpt lat="45.64726" lon="6.66069">
        <ele>2453</ele>
        <time>2022-07-26T11:57:38Z</time>
      </trkpt>
      <trkpt lat="45.64725" lon="6.66068">
        <ele>2453</ele>
        <time>2022-07-26T11:57:39Z</time>
      </trkpt>
      <trkpt lat="45.64724" lon="6.66067">
        <ele>2453</ele>
        <time>2022-07-26T11:57:40Z</time>
      </trkpt>
      <trkpt lat="45.64723" lon="6.66067">
        <ele>2453</ele>
        <time>2022-07-26T11:57:41Z</time>
      </trkpt>
      <trkpt lat="45.64722" lon="6.66066">
        <ele>2453</ele>
        <time>2022-07-26T11:57:42Z</time>
      </trkpt>
      <trkpt lat="45.64721" lon="6.66065">
        <ele>2452</ele>
        <time>2022-07-26T11:58:25Z</time>
      </trkpt>
      <trkpt lat="45.64721" lon="6.66065">
        <ele>2452</ele>
        <time>2022-07-26T11:58:26Z</time>
      </trkpt>
      <trkpt lat="45.6472" lon="6.66064">
        <ele>2452</ele>
        <time>2022-07-26T11:58:27Z</time>
      </trkpt>
      <trkpt lat="45.6472" lon="6.66064">
        <ele>2452</ele>
        <time>2022-07-26T11:58:28Z</time>
      </trkpt>
      <trkpt lat="45.6472" lon="6.66063">
        <ele>2452</ele>
        <time>2022-07-26T11:58:29Z</time>
      </trkpt>
      <trkpt lat="45.64719" lon="6.66062">
        <ele>2452</ele>
        <time>2022-07-26T11:58:30Z</time>
      </trkpt>
      <trkpt lat="45.64719" lon="6.66062">
        <ele>2452</ele>
        <time>2022-07-26T11:58:31Z</time>
      </trkpt>
      <trkpt lat="45.64717" lon="6.6606">
        <ele>2452</ele>
        <time>2022-07-26T11:58:47Z</time>
      </trkpt>
      <trkpt lat="45.64717" lon="6.66059">
        <ele>2452</ele>
        <time>2022-07-26T11:58:48Z</time>
      </trkpt>
      <trkpt lat="45.64716" lon="6.66059">
        <ele>2452</ele>
        <time>2022-07-26T11:58:49Z</time>
      </trkpt>
      <trkpt lat="45.64716" lon="6.66058">
        <ele>2452</ele>
        <time>2022-07-26T11:58:50Z</time>
      </trkpt>
      <trkpt lat="45.64715" lon="6.66057">
        <ele>2452</ele>
        <time>2022-07-26T11:58:51Z</time>
      </trkpt>
      <trkpt lat="45.64714" lon="6.66057">
        <ele>2452</ele>
        <time>2022-07-26T11:58:52Z</time>
      </trkpt>
      <trkpt lat="45.64713" lon="6.66056">
        <ele>2452</ele>
        <time>2022-07-26T11:58:53Z</time>
      </trkpt>
      <trkpt lat="45.64712" lon="6.66055">
        <ele>2451</ele>
        <time>2022-07-26T11:58:54Z</time>
      </trkpt>
      <trkpt lat="45.64711" lon="6.66054">
        <ele>2451</ele>
        <time>2022-07-26T11:58:55Z</time>
      </trkpt>
      <trkpt lat="45.64711" lon="6.66053">
        <ele>2451</ele>
        <time>2022-07-26T11:58:56Z</time>
      </trkpt>
      <trkpt lat="45.6471" lon="6.66052">
        <ele>2451</ele>
        <time>2022-07-26T11:58:57Z</time>
      </trkpt>
      <trkpt lat="45.64709" lon="6.66051">
        <ele>2451</ele>
        <time>2022-07-26T11:58:58Z</time>
      </trkpt>
      <trkpt lat="45.64708" lon="6.6605">
        <ele>2451</ele>
        <time>2022-07-26T11:58:59Z</time>
      </trkpt>
      <trkpt lat="45.64707" lon="6.66048">
        <ele>2451</ele>
        <time>2022-07-26T11:59:00Z</time>
      </trkpt>
      <trkpt lat="45.64706" lon="6.66047">
        <ele>2451</ele>
        <time>2022-07-26T11:59:01Z</time>
      </trkpt>
      <trkpt lat="45.64706" lon="6.66046">
        <ele>2451</ele>
        <time>2022-07-26T11:59:02Z</time>
      </trkpt>
      <trkpt lat="45.64705" lon="6.66045">
        <ele>2451</ele>
        <time>2022-07-26T11:59:03Z</time>
      </trkpt>
      <trkpt lat="45.64704" lon="6.66044">
        <ele>2450</ele>
        <time>2022-07-26T11:59:04Z</time>
      </trkpt>
      <trkpt lat="45.64704" lon="6.66043">
        <ele>2450</ele>
        <time>2022-07-26T11:59:05Z</time>
      </trkpt>
      <trkpt lat="45.64703" lon="6.66042">
        <ele>2450</ele>
        <time>2022-07-26T11:59:06Z</time>
      </trkpt>
      <trkpt lat="45.64703" lon="6.66041">
        <ele>2450</ele>
        <time>2022-07-26T11:59:07Z</time>
      </trkpt>
      <trkpt lat="45.64703" lon="6.6604">
        <ele>2450</ele>
        <time>2022-07-26T11:59:08Z</time>
      </trkpt>
      <trkpt lat="45.64703" lon="6.6604">
        <ele>2450</ele>
        <time>2022-07-26T11:59:09Z</time>
      </trkpt>
      <trkpt lat="45.64702" lon="6.66039">
        <ele>2450</ele>
        <time>2022-07-26T11:59:10Z</time>
      </trkpt>
      <trkpt lat="45.64702" lon="6.66039">
        <ele>2450</ele>
        <time>2022-07-26T11:59:11Z</time>
      </trkpt>
      <trkpt lat="45.64702" lon="6.66038">
        <ele>2450</ele>
        <time>2022-07-26T11:59:12Z</time>
      </trkpt>
      <trkpt lat="45.64701" lon="6.66038">
        <ele>2450</ele>
        <time>2022-07-26T11:59:13Z</time>
      </trkpt>
      <trkpt lat="45.647" lon="6.66037">
        <ele>2450</ele>
        <time>2022-07-26T11:59:14Z</time>
      </trkpt>
      <trkpt lat="45.647" lon="6.66037">
        <ele>2450</ele>
        <time>2022-07-26T11:59:15Z</time>
      </trkpt>
      <trkpt lat="45.64699" lon="6.66036">
        <ele>2450</ele>
        <time>2022-07-26T11:59:16Z</time>
      </trkpt>
      <trkpt lat="45.64698" lon="6.66035">
        <ele>2450</ele>
        <time>2022-07-26T11:59:17Z</time>
      </trkpt>
      <trkpt lat="45.64697" lon="6.66034">
        <ele>2450</ele>
        <time>2022-07-26T11:59:18Z</time>
      </trkpt>
      <trkpt lat="45.64697" lon="6.66034">
        <ele>2449</ele>
        <time>2022-07-26T11:59:19Z</time>
      </trkpt>
      <trkpt lat="45.64696" lon="6.66033">
        <ele>2449</ele>
        <time>2022-07-26T11:59:20Z</time>
      </trkpt>
      <trkpt lat="45.64695" lon="6.66032">
        <ele>2449</ele>
        <time>2022-07-26T11:59:21Z</time>
      </trkpt>
      <trkpt lat="45.64695" lon="6.66031">
        <ele>2449</ele>
        <time>2022-07-26T11:59:22Z</time>
      </trkpt>
      <trkpt lat="45.64694" lon="6.6603">
        <ele>2449</ele>
        <time>2022-07-26T11:59:23Z</time>
      </trkpt>
      <trkpt lat="45.64694" lon="6.66029">
        <ele>2449</ele>
        <time>2022-07-26T11:59:24Z</time>
      </trkpt>
      <trkpt lat="45.64693" lon="6.66029">
        <ele>2449</ele>
        <time>2022-07-26T11:59:25Z</time>
      </trkpt>
      <trkpt lat="45.64692" lon="6.66027">
        <ele>2449</ele>
        <time>2022-07-26T11:59:26Z</time>
      </trkpt>
      <trkpt lat="45.64692" lon="6.66026">
        <ele>2449</ele>
        <time>2022-07-26T11:59:27Z</time>
      </trkpt>
      <trkpt lat="45.64691" lon="6.66025">
        <ele>2449</ele>
        <time>2022-07-26T11:59:28Z</time>
      </trkpt>
      <trkpt lat="45.6469" lon="6.66024">
        <ele>2448</ele>
        <time>2022-07-26T11:59:29Z</time>
      </trkpt>
      <trkpt lat="45.64689" lon="6.66023">
        <ele>2448</ele>
        <time>2022-07-26T11:59:30Z</time>
      </trkpt>
      <trkpt lat="45.64688" lon="6.66022">
        <ele>2447</ele>
        <time>2022-07-26T11:59:31Z</time>
      </trkpt>
      <trkpt lat="45.64688" lon="6.66021">
        <ele>2447</ele>
        <time>2022-07-26T11:59:32Z</time>
      </trkpt>
      <trkpt lat="45.64687" lon="6.6602">
        <ele>2447</ele>
        <time>2022-07-26T11:59:33Z</time>
      </trkpt>
      <trkpt lat="45.64686" lon="6.66018">
        <ele>2447</ele>
        <time>2022-07-26T11:59:34Z</time>
      </trkpt>
      <trkpt lat="45.64686" lon="6.66017">
        <ele>2447</ele>
        <time>2022-07-26T11:59:35Z</time>
      </trkpt>
      <trkpt lat="45.64685" lon="6.66016">
        <ele>2447</ele>
        <time>2022-07-26T11:59:36Z</time>
      </trkpt>
      <trkpt lat="45.64685" lon="6.66014">
        <ele>2447</ele>
        <time>2022-07-26T11:59:37Z</time>
      </trkpt>
      <trkpt lat="45.64684" lon="6.66013">
        <ele>2447</ele>
        <time>2022-07-26T11:59:38Z</time>
      </trkpt>
      <trkpt lat="45.64684" lon="6.66012">
        <ele>2447</ele>
        <time>2022-07-26T11:59:39Z</time>
      </trkpt>
      <trkpt lat="45.64683" lon="6.6601">
        <ele>2447</ele>
        <time>2022-07-26T11:59:40Z</time>
      </trkpt>
      <trkpt lat="45.64683" lon="6.66009">
        <ele>2447</ele>
        <time>2022-07-26T11:59:41Z</time>
      </trkpt>
      <trkpt lat="45.64682" lon="6.66008">
        <ele>2447</ele>
        <time>2022-07-26T11:59:42Z</time>
      </trkpt>
      <trkpt lat="45.64682" lon="6.66006">
        <ele>2447</ele>
        <time>2022-07-26T11:59:43Z</time>
      </trkpt>
      <trkpt lat="45.64681" lon="6.66005">
        <ele>2447</ele>
        <time>2022-07-26T11:59:44Z</time>
      </trkpt>
      <trkpt lat="45.64681" lon="6.66004">
        <ele>2447</ele>
        <time>2022-07-26T11:59:45Z</time>
      </trkpt>
      <trkpt lat="45.6468" lon="6.66003">
        <ele>2448</ele>
        <time>2022-07-26T11:59:46Z</time>
      </trkpt>
      <trkpt lat="45.64679" lon="6.66002">
        <ele>2448</ele>
        <time>2022-07-26T11:59:47Z</time>
      </trkpt>
      <trkpt lat="45.64679" lon="6.66002">
        <ele>2449</ele>
        <time>2022-07-26T11:59:48Z</time>
      </trkpt>
      <trkpt lat="45.64679" lon="6.66001">
        <ele>2449</ele>
        <time>2022-07-26T11:59:49Z</time>
      </trkpt>
      <trkpt lat="45.64679" lon="6.66">
        <ele>2449</ele>
        <time>2022-07-26T11:59:50Z</time>
      </trkpt>
      <trkpt lat="45.64678" lon="6.65999">
        <ele>2449</ele>
        <time>2022-07-26T11:59:51Z</time>
      </trkpt>
      <trkpt lat="45.64678" lon="6.65997">
        <ele>2449</ele>
        <time>2022-07-26T11:59:59Z</time>
      </trkpt>
      <trkpt lat="45.64677" lon="6.65996">
        <ele>2449</ele>
        <time>2022-07-26T12:00:00Z</time>
      </trkpt>
      <trkpt lat="45.64677" lon="6.65996">
        <ele>2449</ele>
        <time>2022-07-26T12:00:01Z</time>
      </trkpt>
      <trkpt lat="45.64677" lon="6.65995">
        <ele>2449</ele>
        <time>2022-07-26T12:00:02Z</time>
      </trkpt>
      <trkpt lat="45.64677" lon="6.65994">
        <ele>2449</ele>
        <time>2022-07-26T12:00:03Z</time>
      </trkpt>
      <trkpt lat="45.64677" lon="6.65993">
        <ele>2449</ele>
        <time>2022-07-26T12:00:04Z</time>
      </trkpt>
      <trkpt lat="45.64676" lon="6.65992">
        <ele>2449</ele>
        <time>2022-07-26T12:00:05Z</time>
      </trkpt>
      <trkpt lat="45.64676" lon="6.65991">
        <ele>2449</ele>
        <time>2022-07-26T12:00:06Z</time>
      </trkpt>
      <trkpt lat="45.64676" lon="6.6599">
        <ele>2449</ele>
        <time>2022-07-26T12:00:07Z</time>
      </trkpt>
      <trkpt lat="45.64675" lon="6.65989">
        <ele>2449</ele>
        <time>2022-07-26T12:00:08Z</time>
      </trkpt>
      <trkpt lat="45.64675" lon="6.65987">
        <ele>2449</ele>
        <time>2022-07-26T12:00:09Z</time>
      </trkpt>
      <trkpt lat="45.64675" lon="6.65986">
        <ele>2449</ele>
        <time>2022-07-26T12:00:10Z</time>
      </trkpt>
      <trkpt lat="45.64674" lon="6.65985">
        <ele>2449</ele>
        <time>2022-07-26T12:00:11Z</time>
      </trkpt>
      <trkpt lat="45.64674" lon="6.65984">
        <ele>2449</ele>
        <time>2022-07-26T12:00:12Z</time>
      </trkpt>
      <trkpt lat="45.64673" lon="6.65982">
        <ele>2450</ele>
        <time>2022-07-26T12:00:13Z</time>
      </trkpt>
      <trkpt lat="45.64673" lon="6.65981">
        <ele>2450</ele>
        <time>2022-07-26T12:00:14Z</time>
      </trkpt>
      <trkpt lat="45.64672" lon="6.6598">
        <ele>2450</ele>
        <time>2022-07-26T12:00:15Z</time>
      </trkpt>
      <trkpt lat="45.64672" lon="6.65979">
        <ele>2450</ele>
        <time>2022-07-26T12:00:16Z</time>
      </trkpt>
      <trkpt lat="45.64671" lon="6.65978">
        <ele>2450</ele>
        <time>2022-07-26T12:00:17Z</time>
      </trkpt>
      <trkpt lat="45.64671" lon="6.65977">
        <ele>2450</ele>
        <time>2022-07-26T12:00:18Z</time>
      </trkpt>
      <trkpt lat="45.6467" lon="6.65976">
        <ele>2450</ele>
        <time>2022-07-26T12:00:19Z</time>
      </trkpt>
      <trkpt lat="45.64669" lon="6.65975">
        <ele>2450</ele>
        <time>2022-07-26T12:00:20Z</time>
      </trkpt>
      <trkpt lat="45.64669" lon="6.65973">
        <ele>2450</ele>
        <time>2022-07-26T12:00:21Z</time>
      </trkpt>
      <trkpt lat="45.64668" lon="6.65972">
        <ele>2450</ele>
        <time>2022-07-26T12:00:22Z</time>
      </trkpt>
      <trkpt lat="45.64668" lon="6.65971">
        <ele>2450</ele>
        <time>2022-07-26T12:00:23Z</time>
      </trkpt>
      <trkpt lat="45.64667" lon="6.6597">
        <ele>2450</ele>
        <time>2022-07-26T12:00:24Z</time>
      </trkpt>
      <trkpt lat="45.64666" lon="6.65969">
        <ele>2450</ele>
        <time>2022-07-26T12:00:25Z</time>
      </trkpt>
      <trkpt lat="45.64666" lon="6.65968">
        <ele>2450</ele>
        <time>2022-07-26T12:00:26Z</time>
      </trkpt>
      <trkpt lat="45.64665" lon="6.65967">
        <ele>2450</ele>
        <time>2022-07-26T12:00:27Z</time>
      </trkpt>
      <trkpt lat="45.64665" lon="6.65966">
        <ele>2450</ele>
        <time>2022-07-26T12:00:28Z</time>
      </trkpt>
      <trkpt lat="45.64664" lon="6.65965">
        <ele>2450</ele>
        <time>2022-07-26T12:00:29Z</time>
      </trkpt>
      <trkpt lat="45.64664" lon="6.65964">
        <ele>2450</ele>
        <time>2022-07-26T12:00:30Z</time>
      </trkpt>
      <trkpt lat="45.64663" lon="6.65963">
        <ele>2450</ele>
        <time>2022-07-26T12:00:31Z</time>
      </trkpt>
      <trkpt lat="45.64663" lon="6.65962">
        <ele>2450</ele>
        <time>2022-07-26T12:00:32Z</time>
      </trkpt>
      <trkpt lat="45.64663" lon="6.6596">
        <ele>2450</ele>
        <time>2022-07-26T12:00:33Z</time>
      </trkpt>
      <trkpt lat="45.64662" lon="6.65959">
        <ele>2450</ele>
        <time>2022-07-26T12:00:34Z</time>
      </trkpt>
      <trkpt lat="45.64661" lon="6.65958">
        <ele>2450</ele>
        <time>2022-07-26T12:00:35Z</time>
      </trkpt>
      <trkpt lat="45.64661" lon="6.65956">
        <ele>2450</ele>
        <time>2022-07-26T12:00:36Z</time>
      </trkpt>
      <trkpt lat="45.6466" lon="6.65955">
        <ele>2450</ele>
        <time>2022-07-26T12:00:37Z</time>
      </trkpt>
      <trkpt lat="45.6466" lon="6.65954">
        <ele>2450</ele>
        <time>2022-07-26T12:00:38Z</time>
      </trkpt>
      <trkpt lat="45.6466" lon="6.65953">
        <ele>2450</ele>
        <time>2022-07-26T12:00:39Z</time>
      </trkpt>
      <trkpt lat="45.64659" lon="6.65951">
        <ele>2450</ele>
        <time>2022-07-26T12:00:40Z</time>
      </trkpt>
      <trkpt lat="45.64659" lon="6.6595">
        <ele>2450</ele>
        <time>2022-07-26T12:00:41Z</time>
      </trkpt>
      <trkpt lat="45.64658" lon="6.65949">
        <ele>2450</ele>
        <time>2022-07-26T12:00:42Z</time>
      </trkpt>
      <trkpt lat="45.64658" lon="6.65947">
        <ele>2450</ele>
        <time>2022-07-26T12:00:43Z</time>
      </trkpt>
      <trkpt lat="45.64657" lon="6.65946">
        <ele>2450</ele>
        <time>2022-07-26T12:00:44Z</time>
      </trkpt>
      <trkpt lat="45.64657" lon="6.65945">
        <ele>2450</ele>
        <time>2022-07-26T12:00:45Z</time>
      </trkpt>
      <trkpt lat="45.64656" lon="6.65943">
        <ele>2450</ele>
        <time>2022-07-26T12:00:46Z</time>
      </trkpt>
      <trkpt lat="45.64656" lon="6.65942">
        <ele>2450</ele>
        <time>2022-07-26T12:00:47Z</time>
      </trkpt>
      <trkpt lat="45.64655" lon="6.65941">
        <ele>2450</ele>
        <time>2022-07-26T12:00:48Z</time>
      </trkpt>
      <trkpt lat="45.64655" lon="6.65939">
        <ele>2450</ele>
        <time>2022-07-26T12:00:49Z</time>
      </trkpt>
      <trkpt lat="45.64655" lon="6.65937">
        <ele>2450</ele>
        <time>2022-07-26T12:00:50Z</time>
      </trkpt>
      <trkpt lat="45.64654" lon="6.65936">
        <ele>2450</ele>
        <time>2022-07-26T12:00:51Z</time>
      </trkpt>
      <trkpt lat="45.64654" lon="6.65934">
        <ele>2450</ele>
        <time>2022-07-26T12:00:52Z</time>
      </trkpt>
      <trkpt lat="45.64653" lon="6.65933">
        <ele>2450</ele>
        <time>2022-07-26T12:00:53Z</time>
      </trkpt>
      <trkpt lat="45.64653" lon="6.65931">
        <ele>2450</ele>
        <time>2022-07-26T12:00:54Z</time>
      </trkpt>
      <trkpt lat="45.64652" lon="6.6593">
        <ele>2450</ele>
        <time>2022-07-26T12:00:55Z</time>
      </trkpt>
      <trkpt lat="45.64652" lon="6.65929">
        <ele>2450</ele>
        <time>2022-07-26T12:00:56Z</time>
      </trkpt>
      <trkpt lat="45.64651" lon="6.65928">
        <ele>2450</ele>
        <time>2022-07-26T12:00:57Z</time>
      </trkpt>
      <trkpt lat="45.64651" lon="6.65926">
        <ele>2450</ele>
        <time>2022-07-26T12:00:58Z</time>
      </trkpt>
      <trkpt lat="45.6465" lon="6.65925">
        <ele>2450</ele>
        <time>2022-07-26T12:00:59Z</time>
      </trkpt>
      <trkpt lat="45.6465" lon="6.65924">
        <ele>2450</ele>
        <time>2022-07-26T12:01:00Z</time>
      </trkpt>
      <trkpt lat="45.64649" lon="6.65923">
        <ele>2450</ele>
        <time>2022-07-26T12:01:01Z</time>
      </trkpt>
      <trkpt lat="45.64649" lon="6.65922">
        <ele>2450</ele>
        <time>2022-07-26T12:01:02Z</time>
      </trkpt>
      <trkpt lat="45.64648" lon="6.65921">
        <ele>2450</ele>
        <time>2022-07-26T12:01:03Z</time>
      </trkpt>
      <trkpt lat="45.64648" lon="6.6592">
        <ele>2450</ele>
        <time>2022-07-26T12:01:04Z</time>
      </trkpt>
      <trkpt lat="45.64648" lon="6.65919">
        <ele>2450</ele>
        <time>2022-07-26T12:01:05Z</time>
      </trkpt>
      <trkpt lat="45.64647" lon="6.65917">
        <ele>2450</ele>
        <time>2022-07-26T12:01:06Z</time>
      </trkpt>
      <trkpt lat="45.64647" lon="6.65916">
        <ele>2450</ele>
        <time>2022-07-26T12:01:07Z</time>
      </trkpt>
      <trkpt lat="45.64646" lon="6.65915">
        <ele>2450</ele>
        <time>2022-07-26T12:01:08Z</time>
      </trkpt>
      <trkpt lat="45.64646" lon="6.65914">
        <ele>2450</ele>
        <time>2022-07-26T12:01:09Z</time>
      </trkpt>
      <trkpt lat="45.64645" lon="6.65913">
        <ele>2450</ele>
        <time>2022-07-26T12:01:10Z</time>
      </trkpt>
      <trkpt lat="45.64645" lon="6.65912">
        <ele>2450</ele>
        <time>2022-07-26T12:01:11Z</time>
      </trkpt>
      <trkpt lat="45.64645" lon="6.65911">
        <ele>2450</ele>
        <time>2022-07-26T12:01:12Z</time>
      </trkpt>
      <trkpt lat="45.64644" lon="6.6591">
        <ele>2450</ele>
        <time>2022-07-26T12:01:13Z</time>
      </trkpt>
      <trkpt lat="45.64644" lon="6.65909">
        <ele>2450</ele>
        <time>2022-07-26T12:01:14Z</time>
      </trkpt>
      <trkpt lat="45.64644" lon="6.65908">
        <ele>2450</ele>
        <time>2022-07-26T12:01:15Z</time>
      </trkpt>
      <trkpt lat="45.64643" lon="6.65907">
        <ele>2450</ele>
        <time>2022-07-26T12:01:16Z</time>
      </trkpt>
      <trkpt lat="45.64643" lon="6.65906">
        <ele>2450</ele>
        <time>2022-07-26T12:01:17Z</time>
      </trkpt>
      <trkpt lat="45.64643" lon="6.65903">
        <ele>2453</ele>
        <time>2022-07-26T12:04:04Z</time>
      </trkpt>
      <trkpt lat="45.64643" lon="6.65901">
        <ele>2453</ele>
        <time>2022-07-26T12:04:05Z</time>
      </trkpt>
      <trkpt lat="45.64643" lon="6.659">
        <ele>2453</ele>
        <time>2022-07-26T12:04:06Z</time>
      </trkpt>
      <trkpt lat="45.64643" lon="6.65899">
        <ele>2453</ele>
        <time>2022-07-26T12:04:07Z</time>
      </trkpt>
      <trkpt lat="45.64642" lon="6.65898">
        <ele>2453</ele>
        <time>2022-07-26T12:04:08Z</time>
      </trkpt>
      <trkpt lat="45.64642" lon="6.65897">
        <ele>2453</ele>
        <time>2022-07-26T12:04:09Z</time>
      </trkpt>
      <trkpt lat="45.64641" lon="6.65896">
        <ele>2453</ele>
        <time>2022-07-26T12:04:10Z</time>
      </trkpt>
      <trkpt lat="45.64641" lon="6.65895">
        <ele>2453</ele>
        <time>2022-07-26T12:04:11Z</time>
      </trkpt>
      <trkpt lat="45.6464" lon="6.65895">
        <ele>2453</ele>
        <time>2022-07-26T12:04:12Z</time>
      </trkpt>
      <trkpt lat="45.64639" lon="6.65894">
        <ele>2453</ele>
        <time>2022-07-26T12:04:13Z</time>
      </trkpt>
      <trkpt lat="45.64639" lon="6.65893">
        <ele>2453</ele>
        <time>2022-07-26T12:04:14Z</time>
      </trkpt>
      <trkpt lat="45.64638" lon="6.65892">
        <ele>2453</ele>
        <time>2022-07-26T12:04:15Z</time>
      </trkpt>
      <trkpt lat="45.64638" lon="6.65891">
        <ele>2453</ele>
        <time>2022-07-26T12:04:16Z</time>
      </trkpt>
      <trkpt lat="45.64637" lon="6.6589">
        <ele>2453</ele>
        <time>2022-07-26T12:04:17Z</time>
      </trkpt>
      <trkpt lat="45.64637" lon="6.65889">
        <ele>2454</ele>
        <time>2022-07-26T12:04:18Z</time>
      </trkpt>
      <trkpt lat="45.64636" lon="6.65888">
        <ele>2454</ele>
        <time>2022-07-26T12:04:19Z</time>
      </trkpt>
      <trkpt lat="45.64636" lon="6.65887">
        <ele>2454</ele>
        <time>2022-07-26T12:04:20Z</time>
      </trkpt>
      <trkpt lat="45.64636" lon="6.65886">
        <ele>2454</ele>
        <time>2022-07-26T12:04:21Z</time>
      </trkpt>
      <trkpt lat="45.64635" lon="6.65885">
        <ele>2454</ele>
        <time>2022-07-26T12:04:22Z</time>
      </trkpt>
      <trkpt lat="45.64635" lon="6.65884">
        <ele>2454</ele>
        <time>2022-07-26T12:04:23Z</time>
      </trkpt>
      <trkpt lat="45.64634" lon="6.65883">
        <ele>2454</ele>
        <time>2022-07-26T12:04:24Z</time>
      </trkpt>
      <trkpt lat="45.64634" lon="6.65882">
        <ele>2454</ele>
        <time>2022-07-26T12:04:25Z</time>
      </trkpt>
      <trkpt lat="45.64633" lon="6.65881">
        <ele>2454</ele>
        <time>2022-07-26T12:04:26Z</time>
      </trkpt>
      <trkpt lat="45.64633" lon="6.6588">
        <ele>2454</ele>
        <time>2022-07-26T12:04:27Z</time>
      </trkpt>
      <trkpt lat="45.64632" lon="6.65879">
        <ele>2454</ele>
        <time>2022-07-26T12:04:28Z</time>
      </trkpt>
      <trkpt lat="45.64631" lon="6.65878">
        <ele>2454</ele>
        <time>2022-07-26T12:04:29Z</time>
      </trkpt>
      <trkpt lat="45.64631" lon="6.65877">
        <ele>2454</ele>
        <time>2022-07-26T12:04:30Z</time>
      </trkpt>
      <trkpt lat="45.64631" lon="6.65876">
        <ele>2454</ele>
        <time>2022-07-26T12:04:31Z</time>
      </trkpt>
      <trkpt lat="45.6463" lon="6.65875">
        <ele>2454</ele>
        <time>2022-07-26T12:04:32Z</time>
      </trkpt>
      <trkpt lat="45.6463" lon="6.65874">
        <ele>2455</ele>
        <time>2022-07-26T12:04:33Z</time>
      </trkpt>
      <trkpt lat="45.64629" lon="6.65873">
        <ele>2455</ele>
        <time>2022-07-26T12:04:34Z</time>
      </trkpt>
      <trkpt lat="45.64629" lon="6.65872">
        <ele>2455</ele>
        <time>2022-07-26T12:04:35Z</time>
      </trkpt>
      <trkpt lat="45.64628" lon="6.65871">
        <ele>2455</ele>
        <time>2022-07-26T12:04:36Z</time>
      </trkpt>
      <trkpt lat="45.64628" lon="6.6587">
        <ele>2455</ele>
        <time>2022-07-26T12:04:37Z</time>
      </trkpt>
      <trkpt lat="45.64627" lon="6.65869">
        <ele>2455</ele>
        <time>2022-07-26T12:04:38Z</time>
      </trkpt>
      <trkpt lat="45.64626" lon="6.65868">
        <ele>2455</ele>
        <time>2022-07-26T12:04:39Z</time>
      </trkpt>
      <trkpt lat="45.64626" lon="6.65867">
        <ele>2455</ele>
        <time>2022-07-26T12:04:40Z</time>
      </trkpt>
      <trkpt lat="45.64625" lon="6.65867">
        <ele>2455</ele>
        <time>2022-07-26T12:04:41Z</time>
      </trkpt>
      <trkpt lat="45.64624" lon="6.65866">
        <ele>2455</ele>
        <time>2022-07-26T12:04:42Z</time>
      </trkpt>
      <trkpt lat="45.64624" lon="6.65865">
        <ele>2455</ele>
        <time>2022-07-26T12:04:43Z</time>
      </trkpt>
      <trkpt lat="45.64623" lon="6.65864">
        <ele>2455</ele>
        <time>2022-07-26T12:04:44Z</time>
      </trkpt>
      <trkpt lat="45.64623" lon="6.65863">
        <ele>2456</ele>
        <time>2022-07-26T12:05:39Z</time>
      </trkpt>
      <trkpt lat="45.64623" lon="6.65862">
        <ele>2456</ele>
        <time>2022-07-26T12:05:40Z</time>
      </trkpt>
      <trkpt lat="45.64622" lon="6.65861">
        <ele>2456</ele>
        <time>2022-07-26T12:05:41Z</time>
      </trkpt>
      <trkpt lat="45.64622" lon="6.6586">
        <ele>2456</ele>
        <time>2022-07-26T12:05:42Z</time>
      </trkpt>
      <trkpt lat="45.64621" lon="6.65859">
        <ele>2456</ele>
        <time>2022-07-26T12:05:43Z</time>
      </trkpt>
      <trkpt lat="45.64621" lon="6.65858">
        <ele>2456</ele>
        <time>2022-07-26T12:05:44Z</time>
      </trkpt>
      <trkpt lat="45.6462" lon="6.65857">
        <ele>2456</ele>
        <time>2022-07-26T12:05:45Z</time>
      </trkpt>
      <trkpt lat="45.6462" lon="6.65856">
        <ele>2456</ele>
        <time>2022-07-26T12:05:46Z</time>
      </trkpt>
      <trkpt lat="45.64619" lon="6.65855">
        <ele>2456</ele>
        <time>2022-07-26T12:05:47Z</time>
      </trkpt>
      <trkpt lat="45.64618" lon="6.65854">
        <ele>2456</ele>
        <time>2022-07-26T12:05:48Z</time>
      </trkpt>
      <trkpt lat="45.64618" lon="6.65853">
        <ele>2456</ele>
        <time>2022-07-26T12:05:49Z</time>
      </trkpt>
      <trkpt lat="45.64617" lon="6.65852">
        <ele>2456</ele>
        <time>2022-07-26T12:05:50Z</time>
      </trkpt>
      <trkpt lat="45.64616" lon="6.65851">
        <ele>2456</ele>
        <time>2022-07-26T12:05:51Z</time>
      </trkpt>
      <trkpt lat="45.64615" lon="6.6585">
        <ele>2456</ele>
        <time>2022-07-26T12:05:52Z</time>
      </trkpt>
      <trkpt lat="45.64614" lon="6.65849">
        <ele>2456</ele>
        <time>2022-07-26T12:05:53Z</time>
      </trkpt>
      <trkpt lat="45.64613" lon="6.65848">
        <ele>2456</ele>
        <time>2022-07-26T12:05:54Z</time>
      </trkpt>
      <trkpt lat="45.64612" lon="6.65847">
        <ele>2456</ele>
        <time>2022-07-26T12:05:55Z</time>
      </trkpt>
      <trkpt lat="45.64612" lon="6.65847">
        <ele>2456</ele>
        <time>2022-07-26T12:05:56Z</time>
      </trkpt>
      <trkpt lat="45.64611" lon="6.65846">
        <ele>2456</ele>
        <time>2022-07-26T12:05:57Z</time>
      </trkpt>
      <trkpt lat="45.6461" lon="6.65846">
        <ele>2456</ele>
        <time>2022-07-26T12:05:58Z</time>
      </trkpt>
      <trkpt lat="45.64609" lon="6.65845">
        <ele>2456</ele>
        <time>2022-07-26T12:05:59Z</time>
      </trkpt>
      <trkpt lat="45.64608" lon="6.65844">
        <ele>2456</ele>
        <time>2022-07-26T12:06:00Z</time>
      </trkpt>
      <trkpt lat="45.64607" lon="6.65844">
        <ele>2456</ele>
        <time>2022-07-26T12:06:01Z</time>
      </trkpt>
      <trkpt lat="45.64606" lon="6.65843">
        <ele>2456</ele>
        <time>2022-07-26T12:06:02Z</time>
      </trkpt>
      <trkpt lat="45.64605" lon="6.65842">
        <ele>2456</ele>
        <time>2022-07-26T12:06:03Z</time>
      </trkpt>
      <trkpt lat="45.64605" lon="6.65841">
        <ele>2455</ele>
        <time>2022-07-26T12:06:04Z</time>
      </trkpt>
      <trkpt lat="45.64604" lon="6.6584">
        <ele>2455</ele>
        <time>2022-07-26T12:06:05Z</time>
      </trkpt>
      <trkpt lat="45.64603" lon="6.65839">
        <ele>2455</ele>
        <time>2022-07-26T12:06:06Z</time>
      </trkpt>
      <trkpt lat="45.64602" lon="6.65838">
        <ele>2455</ele>
        <time>2022-07-26T12:06:07Z</time>
      </trkpt>
      <trkpt lat="45.64602" lon="6.65837">
        <ele>2455</ele>
        <time>2022-07-26T12:06:08Z</time>
      </trkpt>
      <trkpt lat="45.64601" lon="6.65836">
        <ele>2454</ele>
        <time>2022-07-26T12:06:09Z</time>
      </trkpt>
      <trkpt lat="45.646" lon="6.65834">
        <ele>2454</ele>
        <time>2022-07-26T12:06:10Z</time>
      </trkpt>
      <trkpt lat="45.646" lon="6.65833">
        <ele>2454</ele>
        <time>2022-07-26T12:06:11Z</time>
      </trkpt>
      <trkpt lat="45.64599" lon="6.65832">
        <ele>2454</ele>
        <time>2022-07-26T12:06:12Z</time>
      </trkpt>
      <trkpt lat="45.64598" lon="6.65831">
        <ele>2454</ele>
        <time>2022-07-26T12:06:13Z</time>
      </trkpt>
      <trkpt lat="45.64597" lon="6.6583">
        <ele>2454</ele>
        <time>2022-07-26T12:06:14Z</time>
      </trkpt>
      <trkpt lat="45.64597" lon="6.65829">
        <ele>2454</ele>
        <time>2022-07-26T12:06:15Z</time>
      </trkpt>
      <trkpt lat="45.64596" lon="6.65828">
        <ele>2454</ele>
        <time>2022-07-26T12:06:16Z</time>
      </trkpt>
      <trkpt lat="45.64595" lon="6.65827">
        <ele>2454</ele>
        <time>2022-07-26T12:06:17Z</time>
      </trkpt>
      <trkpt lat="45.64594" lon="6.65826">
        <ele>2454</ele>
        <time>2022-07-26T12:06:18Z</time>
      </trkpt>
      <trkpt lat="45.64594" lon="6.65826">
        <ele>2454</ele>
        <time>2022-07-26T12:06:19Z</time>
      </trkpt>
      <trkpt lat="45.64593" lon="6.65824">
        <ele>2454</ele>
        <time>2022-07-26T12:06:20Z</time>
      </trkpt>
      <trkpt lat="45.64592" lon="6.65823">
        <ele>2454</ele>
        <time>2022-07-26T12:06:21Z</time>
      </trkpt>
      <trkpt lat="45.64591" lon="6.65822">
        <ele>2454</ele>
        <time>2022-07-26T12:06:22Z</time>
      </trkpt>
      <trkpt lat="45.6459" lon="6.65821">
        <ele>2455</ele>
        <time>2022-07-26T12:06:23Z</time>
      </trkpt>
      <trkpt lat="45.64589" lon="6.6582">
        <ele>2455</ele>
        <time>2022-07-26T12:06:24Z</time>
      </trkpt>
      <trkpt lat="45.64588" lon="6.65819">
        <ele>2455</ele>
        <time>2022-07-26T12:06:25Z</time>
      </trkpt>
      <trkpt lat="45.64587" lon="6.65818">
        <ele>2455</ele>
        <time>2022-07-26T12:06:26Z</time>
      </trkpt>
      <trkpt lat="45.64586" lon="6.65817">
        <ele>2455</ele>
        <time>2022-07-26T12:06:27Z</time>
      </trkpt>
      <trkpt lat="45.64584" lon="6.65816">
        <ele>2455</ele>
        <time>2022-07-26T12:06:28Z</time>
      </trkpt>
      <trkpt lat="45.64583" lon="6.65815">
        <ele>2455</ele>
        <time>2022-07-26T12:06:29Z</time>
      </trkpt>
      <trkpt lat="45.64582" lon="6.65815">
        <ele>2455</ele>
        <time>2022-07-26T12:06:30Z</time>
      </trkpt>
      <trkpt lat="45.64581" lon="6.65814">
        <ele>2455</ele>
        <time>2022-07-26T12:06:31Z</time>
      </trkpt>
      <trkpt lat="45.6458" lon="6.65813">
        <ele>2455</ele>
        <time>2022-07-26T12:06:32Z</time>
      </trkpt>
      <trkpt lat="45.64579" lon="6.65812">
        <ele>2455</ele>
        <time>2022-07-26T12:06:33Z</time>
      </trkpt>
      <trkpt lat="45.64578" lon="6.65811">
        <ele>2454</ele>
        <time>2022-07-26T12:07:10Z</time>
      </trkpt>
      <trkpt lat="45.64577" lon="6.6581">
        <ele>2454</ele>
        <time>2022-07-26T12:07:11Z</time>
      </trkpt>
      <trkpt lat="45.64576" lon="6.6581">
        <ele>2454</ele>
        <time>2022-07-26T12:07:12Z</time>
      </trkpt>
      <trkpt lat="45.64576" lon="6.65809">
        <ele>2454</ele>
        <time>2022-07-26T12:07:13Z</time>
      </trkpt>
      <trkpt lat="45.64575" lon="6.65808">
        <ele>2454</ele>
        <time>2022-07-26T12:07:14Z</time>
      </trkpt>
      <trkpt lat="45.64574" lon="6.65807">
        <ele>2454</ele>
        <time>2022-07-26T12:07:15Z</time>
      </trkpt>
      <trkpt lat="45.64573" lon="6.65806">
        <ele>2454</ele>
        <time>2022-07-26T12:07:16Z</time>
      </trkpt>
      <trkpt lat="45.64572" lon="6.65805">
        <ele>2454</ele>
        <time>2022-07-26T12:07:17Z</time>
      </trkpt>
      <trkpt lat="45.64572" lon="6.65804">
        <ele>2454</ele>
        <time>2022-07-26T12:07:18Z</time>
      </trkpt>
      <trkpt lat="45.6457" lon="6.65803">
        <ele>2454</ele>
        <time>2022-07-26T12:07:19Z</time>
      </trkpt>
      <trkpt lat="45.64569" lon="6.65802">
        <ele>2454</ele>
        <time>2022-07-26T12:07:20Z</time>
      </trkpt>
      <trkpt lat="45.64568" lon="6.65801">
        <ele>2454</ele>
        <time>2022-07-26T12:07:21Z</time>
      </trkpt>
      <trkpt lat="45.64567" lon="6.658">
        <ele>2454</ele>
        <time>2022-07-26T12:07:22Z</time>
      </trkpt>
      <trkpt lat="45.64566" lon="6.65799">
        <ele>2454</ele>
        <time>2022-07-26T12:07:23Z</time>
      </trkpt>
      <trkpt lat="45.64564" lon="6.65798">
        <ele>2453</ele>
        <time>2022-07-26T12:07:24Z</time>
      </trkpt>
      <trkpt lat="45.64563" lon="6.65797">
        <ele>2453</ele>
        <time>2022-07-26T12:07:25Z</time>
      </trkpt>
      <trkpt lat="45.64562" lon="6.65796">
        <ele>2453</ele>
        <time>2022-07-26T12:07:26Z</time>
      </trkpt>
      <trkpt lat="45.64561" lon="6.65795">
        <ele>2453</ele>
        <time>2022-07-26T12:07:27Z</time>
      </trkpt>
      <trkpt lat="45.6456" lon="6.65794">
        <ele>2453</ele>
        <time>2022-07-26T12:07:28Z</time>
      </trkpt>
      <trkpt lat="45.64559" lon="6.65793">
        <ele>2453</ele>
        <time>2022-07-26T12:07:29Z</time>
      </trkpt>
      <trkpt lat="45.64559" lon="6.65792">
        <ele>2453</ele>
        <time>2022-07-26T12:07:30Z</time>
      </trkpt>
      <trkpt lat="45.64558" lon="6.65791">
        <ele>2453</ele>
        <time>2022-07-26T12:07:31Z</time>
      </trkpt>
      <trkpt lat="45.64557" lon="6.6579">
        <ele>2453</ele>
        <time>2022-07-26T12:07:32Z</time>
      </trkpt>
      <trkpt lat="45.64556" lon="6.65789">
        <ele>2453</ele>
        <time>2022-07-26T12:07:33Z</time>
      </trkpt>
      <trkpt lat="45.64556" lon="6.65788">
        <ele>2453</ele>
        <time>2022-07-26T12:07:34Z</time>
      </trkpt>
      <trkpt lat="45.64555" lon="6.65788">
        <ele>2453</ele>
        <time>2022-07-26T12:07:35Z</time>
      </trkpt>
      <trkpt lat="45.64555" lon="6.65788">
        <ele>2453</ele>
        <time>2022-07-26T12:07:36Z</time>
      </trkpt>
      <trkpt lat="45.64555" lon="6.65787">
        <ele>2453</ele>
        <time>2022-07-26T12:07:37Z</time>
      </trkpt>
      <trkpt lat="45.64555" lon="6.65787">
        <ele>2453</ele>
        <time>2022-07-26T12:07:38Z</time>
      </trkpt>
      <trkpt lat="45.64554" lon="6.65786">
        <ele>2453</ele>
        <time>2022-07-26T12:07:39Z</time>
      </trkpt>
      <trkpt lat="45.64554" lon="6.65786">
        <ele>2453</ele>
        <time>2022-07-26T12:07:40Z</time>
      </trkpt>
      <trkpt lat="45.64553" lon="6.65785">
        <ele>2453</ele>
        <time>2022-07-26T12:07:41Z</time>
      </trkpt>
      <trkpt lat="45.64553" lon="6.65784">
        <ele>2453</ele>
        <time>2022-07-26T12:07:42Z</time>
      </trkpt>
      <trkpt lat="45.64552" lon="6.65784">
        <ele>2453</ele>
        <time>2022-07-26T12:07:43Z</time>
      </trkpt>
      <trkpt lat="45.64551" lon="6.65783">
        <ele>2453</ele>
        <time>2022-07-26T12:07:44Z</time>
      </trkpt>
      <trkpt lat="45.6455" lon="6.65783">
        <ele>2453</ele>
        <time>2022-07-26T12:07:45Z</time>
      </trkpt>
      <trkpt lat="45.6455" lon="6.65782">
        <ele>2453</ele>
        <time>2022-07-26T12:07:46Z</time>
      </trkpt>
      <trkpt lat="45.64549" lon="6.65782">
        <ele>2453</ele>
        <time>2022-07-26T12:07:47Z</time>
      </trkpt>
      <trkpt lat="45.64548" lon="6.65781">
        <ele>2453</ele>
        <time>2022-07-26T12:07:48Z</time>
      </trkpt>
      <trkpt lat="45.64548" lon="6.6578">
        <ele>2453</ele>
        <time>2022-07-26T12:07:49Z</time>
      </trkpt>
      <trkpt lat="45.64547" lon="6.6578">
        <ele>2453</ele>
        <time>2022-07-26T12:07:50Z</time>
      </trkpt>
      <trkpt lat="45.64547" lon="6.6578">
        <ele>2453</ele>
        <time>2022-07-26T12:07:51Z</time>
      </trkpt>
      <trkpt lat="45.64546" lon="6.6578">
        <ele>2453</ele>
        <time>2022-07-26T12:07:52Z</time>
      </trkpt>
      <trkpt lat="45.64545" lon="6.6578">
        <ele>2453</ele>
        <time>2022-07-26T12:07:53Z</time>
      </trkpt>
      <trkpt lat="45.64545" lon="6.6578">
        <ele>2453</ele>
        <time>2022-07-26T12:07:54Z</time>
      </trkpt>
      <trkpt lat="45.64544" lon="6.6578">
        <ele>2453</ele>
        <time>2022-07-26T12:07:55Z</time>
      </trkpt>
      <trkpt lat="45.64543" lon="6.65779">
        <ele>2453</ele>
        <time>2022-07-26T12:07:56Z</time>
      </trkpt>
      <trkpt lat="45.64542" lon="6.65779">
        <ele>2453</ele>
        <time>2022-07-26T12:07:57Z</time>
      </trkpt>
      <trkpt lat="45.64541" lon="6.65778">
        <ele>2453</ele>
        <time>2022-07-26T12:07:58Z</time>
      </trkpt>
      <trkpt lat="45.6454" lon="6.65777">
        <ele>2453</ele>
        <time>2022-07-26T12:07:59Z</time>
      </trkpt>
      <trkpt lat="45.6454" lon="6.65777">
        <ele>2453</ele>
        <time>2022-07-26T12:08:00Z</time>
      </trkpt>
      <trkpt lat="45.64539" lon="6.65776">
        <ele>2453</ele>
        <time>2022-07-26T12:08:01Z</time>
      </trkpt>
      <trkpt lat="45.64538" lon="6.65775">
        <ele>2453</ele>
        <time>2022-07-26T12:08:02Z</time>
      </trkpt>
      <trkpt lat="45.64538" lon="6.65774">
        <ele>2453</ele>
        <time>2022-07-26T12:08:03Z</time>
      </trkpt>
      <trkpt lat="45.64537" lon="6.65773">
        <ele>2453</ele>
        <time>2022-07-26T12:08:04Z</time>
      </trkpt>
      <trkpt lat="45.64536" lon="6.65772">
        <ele>2453</ele>
        <time>2022-07-26T12:08:05Z</time>
      </trkpt>
      <trkpt lat="45.64536" lon="6.65772">
        <ele>2453</ele>
        <time>2022-07-26T12:08:06Z</time>
      </trkpt>
      <trkpt lat="45.64535" lon="6.65771">
        <ele>2453</ele>
        <time>2022-07-26T12:08:07Z</time>
      </trkpt>
      <trkpt lat="45.64534" lon="6.65771">
        <ele>2453</ele>
        <time>2022-07-26T12:08:08Z</time>
      </trkpt>
      <trkpt lat="45.64534" lon="6.6577">
        <ele>2453</ele>
        <time>2022-07-26T12:08:09Z</time>
      </trkpt>
      <trkpt lat="45.64533" lon="6.6577">
        <ele>2453</ele>
        <time>2022-07-26T12:08:10Z</time>
      </trkpt>
      <trkpt lat="45.64533" lon="6.6577">
        <ele>2453</ele>
        <time>2022-07-26T12:08:11Z</time>
      </trkpt>
      <trkpt lat="45.64533" lon="6.65769">
        <ele>2453</ele>
        <time>2022-07-26T12:08:12Z</time>
      </trkpt>
      <trkpt lat="45.64532" lon="6.65769">
        <ele>2453</ele>
        <time>2022-07-26T12:08:13Z</time>
      </trkpt>
      <trkpt lat="45.64532" lon="6.65768">
        <ele>2453</ele>
        <time>2022-07-26T12:08:14Z</time>
      </trkpt>
      <trkpt lat="45.64531" lon="6.65767">
        <ele>2453</ele>
        <time>2022-07-26T12:08:15Z</time>
      </trkpt>
      <trkpt lat="45.64531" lon="6.65766">
        <ele>2453</ele>
        <time>2022-07-26T12:08:16Z</time>
      </trkpt>
      <trkpt lat="45.6453" lon="6.65765">
        <ele>2453</ele>
        <time>2022-07-26T12:08:17Z</time>
      </trkpt>
      <trkpt lat="45.6453" lon="6.65764">
        <ele>2453</ele>
        <time>2022-07-26T12:08:18Z</time>
      </trkpt>
      <trkpt lat="45.6453" lon="6.65764">
        <ele>2453</ele>
        <time>2022-07-26T12:08:19Z</time>
      </trkpt>
      <trkpt lat="45.64529" lon="6.65763">
        <ele>2453</ele>
        <time>2022-07-26T12:08:20Z</time>
      </trkpt>
      <trkpt lat="45.64529" lon="6.65762">
        <ele>2453</ele>
        <time>2022-07-26T12:08:21Z</time>
      </trkpt>
      <trkpt lat="45.64528" lon="6.65761">
        <ele>2453</ele>
        <time>2022-07-26T12:08:22Z</time>
      </trkpt>
      <trkpt lat="45.64528" lon="6.65761">
        <ele>2453</ele>
        <time>2022-07-26T12:08:23Z</time>
      </trkpt>
      <trkpt lat="45.64527" lon="6.6576">
        <ele>2453</ele>
        <time>2022-07-26T12:08:24Z</time>
      </trkpt>
      <trkpt lat="45.64527" lon="6.65759">
        <ele>2453</ele>
        <time>2022-07-26T12:08:25Z</time>
      </trkpt>
      <trkpt lat="45.64526" lon="6.65758">
        <ele>2453</ele>
        <time>2022-07-26T12:08:26Z</time>
      </trkpt>
      <trkpt lat="45.64525" lon="6.65757">
        <ele>2453</ele>
        <time>2022-07-26T12:08:27Z</time>
      </trkpt>
      <trkpt lat="45.64525" lon="6.65756">
        <ele>2453</ele>
        <time>2022-07-26T12:08:28Z</time>
      </trkpt>
      <trkpt lat="45.64524" lon="6.65755">
        <ele>2453</ele>
        <time>2022-07-26T12:08:29Z</time>
      </trkpt>
      <trkpt lat="45.64524" lon="6.65754">
        <ele>2453</ele>
        <time>2022-07-26T12:08:30Z</time>
      </trkpt>
      <trkpt lat="45.64522" lon="6.65752">
        <ele>2454</ele>
        <time>2022-07-26T12:08:40Z</time>
      </trkpt>
      <trkpt lat="45.64522" lon="6.6575">
        <ele>2454</ele>
        <time>2022-07-26T12:08:41Z</time>
      </trkpt>
      <trkpt lat="45.64521" lon="6.65749">
        <ele>2454</ele>
        <time>2022-07-26T12:08:42Z</time>
      </trkpt>
      <trkpt lat="45.6452" lon="6.65748">
        <ele>2454</ele>
        <time>2022-07-26T12:08:43Z</time>
      </trkpt>
      <trkpt lat="45.6452" lon="6.65747">
        <ele>2454</ele>
        <time>2022-07-26T12:08:44Z</time>
      </trkpt>
      <trkpt lat="45.64519" lon="6.65746">
        <ele>2454</ele>
        <time>2022-07-26T12:08:45Z</time>
      </trkpt>
      <trkpt lat="45.64519" lon="6.65745">
        <ele>2454</ele>
        <time>2022-07-26T12:08:46Z</time>
      </trkpt>
      <trkpt lat="45.64518" lon="6.65745">
        <ele>2454</ele>
        <time>2022-07-26T12:08:47Z</time>
      </trkpt>
      <trkpt lat="45.64518" lon="6.65744">
        <ele>2455</ele>
        <time>2022-07-26T12:08:48Z</time>
      </trkpt>
      <trkpt lat="45.64517" lon="6.65743">
        <ele>2455</ele>
        <time>2022-07-26T12:08:49Z</time>
      </trkpt>
      <trkpt lat="45.64517" lon="6.65743">
        <ele>2455</ele>
        <time>2022-07-26T12:08:50Z</time>
      </trkpt>
      <trkpt lat="45.64517" lon="6.65742">
        <ele>2455</ele>
        <time>2022-07-26T12:08:51Z</time>
      </trkpt>
      <trkpt lat="45.64516" lon="6.65741">
        <ele>2455</ele>
        <time>2022-07-26T12:08:52Z</time>
      </trkpt>
      <trkpt lat="45.64516" lon="6.6574">
        <ele>2456</ele>
        <time>2022-07-26T12:08:53Z</time>
      </trkpt>
      <trkpt lat="45.64515" lon="6.65739">
        <ele>2456</ele>
        <time>2022-07-26T12:08:54Z</time>
      </trkpt>
      <trkpt lat="45.64515" lon="6.65738">
        <ele>2456</ele>
        <time>2022-07-26T12:08:55Z</time>
      </trkpt>
      <trkpt lat="45.64514" lon="6.65736">
        <ele>2459</ele>
        <time>2022-07-26T12:09:17Z</time>
      </trkpt>
      <trkpt lat="45.64513" lon="6.65735">
        <ele>2459</ele>
        <time>2022-07-26T12:09:18Z</time>
      </trkpt>
      <trkpt lat="45.64512" lon="6.65734">
        <ele>2459</ele>
        <time>2022-07-26T12:09:19Z</time>
      </trkpt>
      <trkpt lat="45.64512" lon="6.65734">
        <ele>2459</ele>
        <time>2022-07-26T12:09:20Z</time>
      </trkpt>
      <trkpt lat="45.64511" lon="6.65733">
        <ele>2459</ele>
        <time>2022-07-26T12:09:21Z</time>
      </trkpt>
      <trkpt lat="45.64511" lon="6.65732">
        <ele>2459</ele>
        <time>2022-07-26T12:09:22Z</time>
      </trkpt>
      <trkpt lat="45.6451" lon="6.65731">
        <ele>2459</ele>
        <time>2022-07-26T12:09:23Z</time>
      </trkpt>
      <trkpt lat="45.64509" lon="6.6573">
        <ele>2462</ele>
        <time>2022-07-26T12:09:49Z</time>
      </trkpt>
      <trkpt lat="45.64509" lon="6.65729">
        <ele>2462</ele>
        <time>2022-07-26T12:09:50Z</time>
      </trkpt>
      <trkpt lat="45.64508" lon="6.65728">
        <ele>2462</ele>
        <time>2022-07-26T12:09:51Z</time>
      </trkpt>
      <trkpt lat="45.64508" lon="6.65726">
        <ele>2462</ele>
        <time>2022-07-26T12:09:52Z</time>
      </trkpt>
      <trkpt lat="45.64508" lon="6.65725">
        <ele>2462</ele>
        <time>2022-07-26T12:09:53Z</time>
      </trkpt>
      <trkpt lat="45.64507" lon="6.65724">
        <ele>2462</ele>
        <time>2022-07-26T12:09:54Z</time>
      </trkpt>
      <trkpt lat="45.64507" lon="6.65722">
        <ele>2462</ele>
        <time>2022-07-26T12:09:55Z</time>
      </trkpt>
      <trkpt lat="45.64506" lon="6.65721">
        <ele>2462</ele>
        <time>2022-07-26T12:09:56Z</time>
      </trkpt>
      <trkpt lat="45.64505" lon="6.65719">
        <ele>2462</ele>
        <time>2022-07-26T12:09:57Z</time>
      </trkpt>
      <trkpt lat="45.64504" lon="6.65718">
        <ele>2462</ele>
        <time>2022-07-26T12:09:58Z</time>
      </trkpt>
      <trkpt lat="45.64503" lon="6.65717">
        <ele>2462</ele>
        <time>2022-07-26T12:09:59Z</time>
      </trkpt>
      <trkpt lat="45.64503" lon="6.65716">
        <ele>2462</ele>
        <time>2022-07-26T12:10:00Z</time>
      </trkpt>
      <trkpt lat="45.64502" lon="6.65716">
        <ele>2462</ele>
        <time>2022-07-26T12:10:01Z</time>
      </trkpt>
      <trkpt lat="45.64501" lon="6.65715">
        <ele>2462</ele>
        <time>2022-07-26T12:10:02Z</time>
      </trkpt>
      <trkpt lat="45.645" lon="6.65714">
        <ele>2463</ele>
        <time>2022-07-26T12:10:03Z</time>
      </trkpt>
      <trkpt lat="45.645" lon="6.65714">
        <ele>2463</ele>
        <time>2022-07-26T12:10:04Z</time>
      </trkpt>
      <trkpt lat="45.64499" lon="6.65713">
        <ele>2463</ele>
        <time>2022-07-26T12:10:05Z</time>
      </trkpt>
      <trkpt lat="45.64499" lon="6.65712">
        <ele>2463</ele>
        <time>2022-07-26T12:10:06Z</time>
      </trkpt>
      <trkpt lat="45.64498" lon="6.65712">
        <ele>2463</ele>
        <time>2022-07-26T12:10:07Z</time>
      </trkpt>
      <trkpt lat="45.64497" lon="6.65711">
        <ele>2463</ele>
        <time>2022-07-26T12:10:08Z</time>
      </trkpt>
      <trkpt lat="45.64497" lon="6.6571">
        <ele>2463</ele>
        <time>2022-07-26T12:10:09Z</time>
      </trkpt>
      <trkpt lat="45.64496" lon="6.65709">
        <ele>2463</ele>
        <time>2022-07-26T12:10:10Z</time>
      </trkpt>
      <trkpt lat="45.64496" lon="6.65708">
        <ele>2463</ele>
        <time>2022-07-26T12:10:11Z</time>
      </trkpt>
      <trkpt lat="45.64495" lon="6.65708">
        <ele>2463</ele>
        <time>2022-07-26T12:10:12Z</time>
      </trkpt>
      <trkpt lat="45.64495" lon="6.65707">
        <ele>2463</ele>
        <time>2022-07-26T12:10:13Z</time>
      </trkpt>
      <trkpt lat="45.64495" lon="6.65707">
        <ele>2463</ele>
        <time>2022-07-26T12:10:14Z</time>
      </trkpt>
      <trkpt lat="45.64495" lon="6.65707">
        <ele>2463</ele>
        <time>2022-07-26T12:10:15Z</time>
      </trkpt>
      <trkpt lat="45.64494" lon="6.65706">
        <ele>2463</ele>
        <time>2022-07-26T12:10:16Z</time>
      </trkpt>
      <trkpt lat="45.64494" lon="6.65706">
        <ele>2463</ele>
        <time>2022-07-26T12:10:17Z</time>
      </trkpt>
      <trkpt lat="45.64494" lon="6.65705">
        <ele>2464</ele>
        <time>2022-07-26T12:10:18Z</time>
      </trkpt>
      <trkpt lat="45.64494" lon="6.65704">
        <ele>2464</ele>
        <time>2022-07-26T12:10:19Z</time>
      </trkpt>
      <trkpt lat="45.64494" lon="6.65703">
        <ele>2464</ele>
        <time>2022-07-26T12:10:20Z</time>
      </trkpt>
      <trkpt lat="45.64494" lon="6.65702">
        <ele>2464</ele>
        <time>2022-07-26T12:10:21Z</time>
      </trkpt>
      <trkpt lat="45.64494" lon="6.65701">
        <ele>2464</ele>
        <time>2022-07-26T12:10:22Z</time>
      </trkpt>
      <trkpt lat="45.64494" lon="6.65701">
        <ele>2465</ele>
        <time>2022-07-26T12:10:23Z</time>
      </trkpt>
      <trkpt lat="45.64494" lon="6.657">
        <ele>2465</ele>
        <time>2022-07-26T12:10:24Z</time>
      </trkpt>
      <trkpt lat="45.64495" lon="6.65699">
        <ele>2465</ele>
        <time>2022-07-26T12:10:25Z</time>
      </trkpt>
      <trkpt lat="45.64495" lon="6.65698">
        <ele>2465</ele>
        <time>2022-07-26T12:10:26Z</time>
      </trkpt>
      <trkpt lat="45.64495" lon="6.65697">
        <ele>2465</ele>
        <time>2022-07-26T12:10:27Z</time>
      </trkpt>
      <trkpt lat="45.64495" lon="6.65696">
        <ele>2466</ele>
        <time>2022-07-26T12:10:28Z</time>
      </trkpt>
      <trkpt lat="45.64495" lon="6.65695">
        <ele>2466</ele>
        <time>2022-07-26T12:10:29Z</time>
      </trkpt>
      <trkpt lat="45.64495" lon="6.65694">
        <ele>2466</ele>
        <time>2022-07-26T12:10:30Z</time>
      </trkpt>
      <trkpt lat="45.64495" lon="6.65693">
        <ele>2466</ele>
        <time>2022-07-26T12:10:31Z</time>
      </trkpt>
      <trkpt lat="45.64495" lon="6.65693">
        <ele>2466</ele>
        <time>2022-07-26T12:10:32Z</time>
      </trkpt>
      <trkpt lat="45.64496" lon="6.65692">
        <ele>2467</ele>
        <time>2022-07-26T12:10:33Z</time>
      </trkpt>
      <trkpt lat="45.64496" lon="6.65691">
        <ele>2467</ele>
        <time>2022-07-26T12:10:34Z</time>
      </trkpt>
      <trkpt lat="45.64497" lon="6.65691">
        <ele>2467</ele>
        <time>2022-07-26T12:10:35Z</time>
      </trkpt>
      <trkpt lat="45.64497" lon="6.6569">
        <ele>2467</ele>
        <time>2022-07-26T12:10:36Z</time>
      </trkpt>
      <trkpt lat="45.64498" lon="6.6569">
        <ele>2467</ele>
        <time>2022-07-26T12:10:37Z</time>
      </trkpt>
      <trkpt lat="45.64498" lon="6.65689">
        <ele>2468</ele>
        <time>2022-07-26T12:10:38Z</time>
      </trkpt>
      <trkpt lat="45.64499" lon="6.65689">
        <ele>2468</ele>
        <time>2022-07-26T12:10:39Z</time>
      </trkpt>
      <trkpt lat="45.64499" lon="6.65688">
        <ele>2468</ele>
        <time>2022-07-26T12:10:40Z</time>
      </trkpt>
      <trkpt lat="45.64499" lon="6.65687">
        <ele>2468</ele>
        <time>2022-07-26T12:10:41Z</time>
      </trkpt>
      <trkpt lat="45.64499" lon="6.65686">
        <ele>2472</ele>
        <time>2022-07-26T12:12:18Z</time>
      </trkpt>
      <trkpt lat="45.645" lon="6.65684">
        <ele>2471</ele>
        <time>2022-07-26T12:12:19Z</time>
      </trkpt>
      <trkpt lat="45.645" lon="6.65683">
        <ele>2471</ele>
        <time>2022-07-26T12:12:20Z</time>
      </trkpt>
      <trkpt lat="45.645" lon="6.65683">
        <ele>2471</ele>
        <time>2022-07-26T12:12:21Z</time>
      </trkpt>
      <trkpt lat="45.645" lon="6.65682">
        <ele>2471</ele>
        <time>2022-07-26T12:12:22Z</time>
      </trkpt>
      <trkpt lat="45.645" lon="6.6568">
        <ele>2471</ele>
        <time>2022-07-26T12:12:23Z</time>
      </trkpt>
      <trkpt lat="45.645" lon="6.65679">
        <ele>2471</ele>
        <time>2022-07-26T12:12:24Z</time>
      </trkpt>
      <trkpt lat="45.645" lon="6.65678">
        <ele>2471</ele>
        <time>2022-07-26T12:12:25Z</time>
      </trkpt>
      <trkpt lat="45.64499" lon="6.65677">
        <ele>2471</ele>
        <time>2022-07-26T12:12:26Z</time>
      </trkpt>
      <trkpt lat="45.64499" lon="6.65676">
        <ele>2471</ele>
        <time>2022-07-26T12:12:27Z</time>
      </trkpt>
      <trkpt lat="45.64499" lon="6.65676">
        <ele>2472</ele>
        <time>2022-07-26T12:12:28Z</time>
      </trkpt>
      <trkpt lat="45.64499" lon="6.65675">
        <ele>2471</ele>
        <time>2022-07-26T12:12:29Z</time>
      </trkpt>
      <trkpt lat="45.64498" lon="6.65675">
        <ele>2471</ele>
        <time>2022-07-26T12:12:30Z</time>
      </trkpt>
      <trkpt lat="45.64498" lon="6.65674">
        <ele>2471</ele>
        <time>2022-07-26T12:12:31Z</time>
      </trkpt>
      <trkpt lat="45.64497" lon="6.65673">
        <ele>2471</ele>
        <time>2022-07-26T12:12:32Z</time>
      </trkpt>
      <trkpt lat="45.64497" lon="6.65672">
        <ele>2471</ele>
        <time>2022-07-26T12:12:33Z</time>
      </trkpt>
      <trkpt lat="45.64497" lon="6.65671">
        <ele>2471</ele>
        <time>2022-07-26T12:12:34Z</time>
      </trkpt>
      <trkpt lat="45.64496" lon="6.65669">
        <ele>2471</ele>
        <time>2022-07-26T12:12:35Z</time>
      </trkpt>
      <trkpt lat="45.64496" lon="6.65668">
        <ele>2471</ele>
        <time>2022-07-26T12:12:36Z</time>
      </trkpt>
      <trkpt lat="45.64496" lon="6.65667">
        <ele>2471</ele>
        <time>2022-07-26T12:12:37Z</time>
      </trkpt>
      <trkpt lat="45.64496" lon="6.65666">
        <ele>2471</ele>
        <time>2022-07-26T12:12:38Z</time>
      </trkpt>
      <trkpt lat="45.64496" lon="6.65665">
        <ele>2470</ele>
        <time>2022-07-26T12:12:39Z</time>
      </trkpt>
      <trkpt lat="45.64496" lon="6.65664">
        <ele>2470</ele>
        <time>2022-07-26T12:12:40Z</time>
      </trkpt>
      <trkpt lat="45.64496" lon="6.65663">
        <ele>2470</ele>
        <time>2022-07-26T12:12:41Z</time>
      </trkpt>
      <trkpt lat="45.64497" lon="6.65662">
        <ele>2470</ele>
        <time>2022-07-26T12:12:42Z</time>
      </trkpt>
      <trkpt lat="45.64497" lon="6.65662">
        <ele>2470</ele>
        <time>2022-07-26T12:12:43Z</time>
      </trkpt>
      <trkpt lat="45.64497" lon="6.65661">
        <ele>2469</ele>
        <time>2022-07-26T12:12:44Z</time>
      </trkpt>
      <trkpt lat="45.64497" lon="6.6566">
        <ele>2469</ele>
        <time>2022-07-26T12:12:45Z</time>
      </trkpt>
      <trkpt lat="45.64497" lon="6.65659">
        <ele>2469</ele>
        <time>2022-07-26T12:12:46Z</time>
      </trkpt>
      <trkpt lat="45.64497" lon="6.65659">
        <ele>2469</ele>
        <time>2022-07-26T12:12:47Z</time>
      </trkpt>
      <trkpt lat="45.64497" lon="6.65658">
        <ele>2469</ele>
        <time>2022-07-26T12:12:48Z</time>
      </trkpt>
      <trkpt lat="45.64497" lon="6.65657">
        <ele>2468</ele>
        <time>2022-07-26T12:12:49Z</time>
      </trkpt>
      <trkpt lat="45.64496" lon="6.65656">
        <ele>2468</ele>
        <time>2022-07-26T12:12:50Z</time>
      </trkpt>
      <trkpt lat="45.64496" lon="6.65655">
        <ele>2468</ele>
        <time>2022-07-26T12:12:51Z</time>
      </trkpt>
      <trkpt lat="45.64496" lon="6.65654">
        <ele>2468</ele>
        <time>2022-07-26T12:12:52Z</time>
      </trkpt>
      <trkpt lat="45.64496" lon="6.65653">
        <ele>2468</ele>
        <time>2022-07-26T12:12:53Z</time>
      </trkpt>
      <trkpt lat="45.64496" lon="6.65652">
        <ele>2467</ele>
        <time>2022-07-26T12:12:54Z</time>
      </trkpt>
      <trkpt lat="45.64496" lon="6.65651">
        <ele>2467</ele>
        <time>2022-07-26T12:12:55Z</time>
      </trkpt>
      <trkpt lat="45.64496" lon="6.6565">
        <ele>2467</ele>
        <time>2022-07-26T12:12:56Z</time>
      </trkpt>
      <trkpt lat="45.64497" lon="6.6565">
        <ele>2467</ele>
        <time>2022-07-26T12:12:57Z</time>
      </trkpt>
      <trkpt lat="45.64497" lon="6.65649">
        <ele>2467</ele>
        <time>2022-07-26T12:12:58Z</time>
      </trkpt>
      <trkpt lat="45.64498" lon="6.65648">
        <ele>2466</ele>
        <time>2022-07-26T12:12:59Z</time>
      </trkpt>
      <trkpt lat="45.64498" lon="6.65647">
        <ele>2466</ele>
        <time>2022-07-26T12:13:00Z</time>
      </trkpt>
      <trkpt lat="45.64499" lon="6.65646">
        <ele>2465</ele>
        <time>2022-07-26T12:13:01Z</time>
      </trkpt>
      <trkpt lat="45.64499" lon="6.65646">
        <ele>2465</ele>
        <time>2022-07-26T12:13:02Z</time>
      </trkpt>
      <trkpt lat="45.64499" lon="6.65645">
        <ele>2465</ele>
        <time>2022-07-26T12:13:03Z</time>
      </trkpt>
      <trkpt lat="45.64499" lon="6.65644">
        <ele>2464</ele>
        <time>2022-07-26T12:13:04Z</time>
      </trkpt>
      <trkpt lat="45.64499" lon="6.65643">
        <ele>2464</ele>
        <time>2022-07-26T12:13:05Z</time>
      </trkpt>
      <trkpt lat="45.64499" lon="6.65642">
        <ele>2464</ele>
        <time>2022-07-26T12:13:06Z</time>
      </trkpt>
      <trkpt lat="45.64498" lon="6.65642">
        <ele>2464</ele>
        <time>2022-07-26T12:13:07Z</time>
      </trkpt>
      <trkpt lat="45.64498" lon="6.65641">
        <ele>2464</ele>
        <time>2022-07-26T12:13:08Z</time>
      </trkpt>
      <trkpt lat="45.64497" lon="6.6564">
        <ele>2463</ele>
        <time>2022-07-26T12:13:09Z</time>
      </trkpt>
      <trkpt lat="45.64497" lon="6.65639">
        <ele>2463</ele>
        <time>2022-07-26T12:13:10Z</time>
      </trkpt>
      <trkpt lat="45.64496" lon="6.65638">
        <ele>2463</ele>
        <time>2022-07-26T12:13:11Z</time>
      </trkpt>
      <trkpt lat="45.64496" lon="6.65637">
        <ele>2463</ele>
        <time>2022-07-26T12:13:12Z</time>
      </trkpt>
      <trkpt lat="45.64496" lon="6.65637">
        <ele>2463</ele>
        <time>2022-07-26T12:13:13Z</time>
      </trkpt>
      <trkpt lat="45.64496" lon="6.65636">
        <ele>2463</ele>
        <time>2022-07-26T12:13:14Z</time>
      </trkpt>
      <trkpt lat="45.64496" lon="6.65635">
        <ele>2463</ele>
        <time>2022-07-26T12:13:15Z</time>
      </trkpt>
      <trkpt lat="45.64495" lon="6.65634">
        <ele>2463</ele>
        <time>2022-07-26T12:13:16Z</time>
      </trkpt>
      <trkpt lat="45.64495" lon="6.65633">
        <ele>2463</ele>
        <time>2022-07-26T12:13:17Z</time>
      </trkpt>
      <trkpt lat="45.64495" lon="6.65633">
        <ele>2463</ele>
        <time>2022-07-26T12:13:18Z</time>
      </trkpt>
      <trkpt lat="45.64494" lon="6.65632">
        <ele>2462</ele>
        <time>2022-07-26T12:13:19Z</time>
      </trkpt>
      <trkpt lat="45.64494" lon="6.65632">
        <ele>2462</ele>
        <time>2022-07-26T12:13:20Z</time>
      </trkpt>
      <trkpt lat="45.64494" lon="6.65632">
        <ele>2462</ele>
        <time>2022-07-26T12:13:21Z</time>
      </trkpt>
      <trkpt lat="45.64493" lon="6.65632">
        <ele>2462</ele>
        <time>2022-07-26T12:13:22Z</time>
      </trkpt>
      <trkpt lat="45.64493" lon="6.65631">
        <ele>2462</ele>
        <time>2022-07-26T12:13:23Z</time>
      </trkpt>
      <trkpt lat="45.64492" lon="6.6563">
        <ele>2460</ele>
        <time>2022-07-26T12:13:42Z</time>
      </trkpt>
      <trkpt lat="45.64492" lon="6.65629">
        <ele>2460</ele>
        <time>2022-07-26T12:13:43Z</time>
      </trkpt>
      <trkpt lat="45.64491" lon="6.65628">
        <ele>2460</ele>
        <time>2022-07-26T12:13:44Z</time>
      </trkpt>
      <trkpt lat="45.64491" lon="6.65627">
        <ele>2460</ele>
        <time>2022-07-26T12:13:45Z</time>
      </trkpt>
      <trkpt lat="45.64491" lon="6.65626">
        <ele>2460</ele>
        <time>2022-07-26T12:13:46Z</time>
      </trkpt>
      <trkpt lat="45.64491" lon="6.65626">
        <ele>2460</ele>
        <time>2022-07-26T12:13:47Z</time>
      </trkpt>
      <trkpt lat="45.64491" lon="6.65625">
        <ele>2460</ele>
        <time>2022-07-26T12:13:48Z</time>
      </trkpt>
      <trkpt lat="45.64491" lon="6.65624">
        <ele>2460</ele>
        <time>2022-07-26T12:13:49Z</time>
      </trkpt>
      <trkpt lat="45.64491" lon="6.65623">
        <ele>2460</ele>
        <time>2022-07-26T12:13:50Z</time>
      </trkpt>
      <trkpt lat="45.64491" lon="6.65622">
        <ele>2460</ele>
        <time>2022-07-26T12:13:51Z</time>
      </trkpt>
      <trkpt lat="45.64491" lon="6.65621">
        <ele>2460</ele>
        <time>2022-07-26T12:13:52Z</time>
      </trkpt>
      <trkpt lat="45.64491" lon="6.6562">
        <ele>2460</ele>
        <time>2022-07-26T12:13:53Z</time>
      </trkpt>
      <trkpt lat="45.64492" lon="6.65619">
        <ele>2459</ele>
        <time>2022-07-26T12:13:54Z</time>
      </trkpt>
      <trkpt lat="45.64492" lon="6.65618">
        <ele>2459</ele>
        <time>2022-07-26T12:13:55Z</time>
      </trkpt>
      <trkpt lat="45.64492" lon="6.65617">
        <ele>2459</ele>
        <time>2022-07-26T12:13:56Z</time>
      </trkpt>
      <trkpt lat="45.64492" lon="6.65616">
        <ele>2459</ele>
        <time>2022-07-26T12:13:57Z</time>
      </trkpt>
      <trkpt lat="45.64493" lon="6.65615">
        <ele>2459</ele>
        <time>2022-07-26T12:13:58Z</time>
      </trkpt>
      <trkpt lat="45.64493" lon="6.65614">
        <ele>2458</ele>
        <time>2022-07-26T12:13:59Z</time>
      </trkpt>
      <trkpt lat="45.64493" lon="6.65613">
        <ele>2458</ele>
        <time>2022-07-26T12:14:00Z</time>
      </trkpt>
      <trkpt lat="45.64493" lon="6.65612">
        <ele>2458</ele>
        <time>2022-07-26T12:14:01Z</time>
      </trkpt>
      <trkpt lat="45.64493" lon="6.65611">
        <ele>2458</ele>
        <time>2022-07-26T12:14:02Z</time>
      </trkpt>
      <trkpt lat="45.64492" lon="6.65611">
        <ele>2458</ele>
        <time>2022-07-26T12:14:03Z</time>
      </trkpt>
      <trkpt lat="45.64492" lon="6.6561">
        <ele>2457</ele>
        <time>2022-07-26T12:14:04Z</time>
      </trkpt>
      <trkpt lat="45.64491" lon="6.6561">
        <ele>2457</ele>
        <time>2022-07-26T12:14:05Z</time>
      </trkpt>
      <trkpt lat="45.6449" lon="6.6561">
        <ele>2457</ele>
        <time>2022-07-26T12:14:06Z</time>
      </trkpt>
      <trkpt lat="45.6449" lon="6.65609">
        <ele>2457</ele>
        <time>2022-07-26T12:14:07Z</time>
      </trkpt>
      <trkpt lat="45.64489" lon="6.65609">
        <ele>2457</ele>
        <time>2022-07-26T12:14:08Z</time>
      </trkpt>
      <trkpt lat="45.64488" lon="6.65605">
        <ele>2451</ele>
        <time>2022-07-26T12:14:47Z</time>
      </trkpt>
      <trkpt lat="45.64488" lon="6.65603">
        <ele>2451</ele>
        <time>2022-07-26T12:14:48Z</time>
      </trkpt>
      <trkpt lat="45.64488" lon="6.65601">
        <ele>2451</ele>
        <time>2022-07-26T12:14:49Z</time>
      </trkpt>
      <trkpt lat="45.64487" lon="6.656">
        <ele>2451</ele>
        <time>2022-07-26T12:14:50Z</time>
      </trkpt>
      <trkpt lat="45.64487" lon="6.65599">
        <ele>2451</ele>
        <time>2022-07-26T12:14:51Z</time>
      </trkpt>
      <trkpt lat="45.64486" lon="6.65599">
        <ele>2451</ele>
        <time>2022-07-26T12:14:52Z</time>
      </trkpt>
      <trkpt lat="45.64486" lon="6.65598">
        <ele>2451</ele>
        <time>2022-07-26T12:14:53Z</time>
      </trkpt>
      <trkpt lat="45.64485" lon="6.65598">
        <ele>2450</ele>
        <time>2022-07-26T12:14:54Z</time>
      </trkpt>
      <trkpt lat="45.64485" lon="6.65597">
        <ele>2450</ele>
        <time>2022-07-26T12:14:55Z</time>
      </trkpt>
      <trkpt lat="45.64485" lon="6.65596">
        <ele>2450</ele>
        <time>2022-07-26T12:14:56Z</time>
      </trkpt>
      <trkpt lat="45.64484" lon="6.65595">
        <ele>2450</ele>
        <time>2022-07-26T12:14:57Z</time>
      </trkpt>
      <trkpt lat="45.64484" lon="6.65594">
        <ele>2450</ele>
        <time>2022-07-26T12:14:58Z</time>
      </trkpt>
      <trkpt lat="45.64484" lon="6.65594">
        <ele>2449</ele>
        <time>2022-07-26T12:14:59Z</time>
      </trkpt>
      <trkpt lat="45.64485" lon="6.65593">
        <ele>2449</ele>
        <time>2022-07-26T12:15:00Z</time>
      </trkpt>
      <trkpt lat="45.64485" lon="6.65593">
        <ele>2449</ele>
        <time>2022-07-26T12:15:01Z</time>
      </trkpt>
      <trkpt lat="45.64486" lon="6.65592">
        <ele>2449</ele>
        <time>2022-07-26T12:15:02Z</time>
      </trkpt>
      <trkpt lat="45.64486" lon="6.65592">
        <ele>2449</ele>
        <time>2022-07-26T12:15:03Z</time>
      </trkpt>
      <trkpt lat="45.64487" lon="6.65591">
        <ele>2448</ele>
        <time>2022-07-26T12:15:04Z</time>
      </trkpt>
      <trkpt lat="45.64487" lon="6.65591">
        <ele>2448</ele>
        <time>2022-07-26T12:15:05Z</time>
      </trkpt>
      <trkpt lat="45.64487" lon="6.6559">
        <ele>2447</ele>
        <time>2022-07-26T12:15:06Z</time>
      </trkpt>
      <trkpt lat="45.64488" lon="6.6559">
        <ele>2447</ele>
        <time>2022-07-26T12:15:07Z</time>
      </trkpt>
      <trkpt lat="45.64488" lon="6.65589">
        <ele>2447</ele>
        <time>2022-07-26T12:15:08Z</time>
      </trkpt>
      <trkpt lat="45.64489" lon="6.65589">
        <ele>2447</ele>
        <time>2022-07-26T12:15:09Z</time>
      </trkpt>
      <trkpt lat="45.64489" lon="6.65588">
        <ele>2447</ele>
        <time>2022-07-26T12:15:10Z</time>
      </trkpt>
      <trkpt lat="45.64489" lon="6.65587">
        <ele>2447</ele>
        <time>2022-07-26T12:15:11Z</time>
      </trkpt>
      <trkpt lat="45.64489" lon="6.65587">
        <ele>2447</ele>
        <time>2022-07-26T12:15:12Z</time>
      </trkpt>
      <trkpt lat="45.6449" lon="6.65586">
        <ele>2447</ele>
        <time>2022-07-26T12:15:13Z</time>
      </trkpt>
      <trkpt lat="45.6449" lon="6.65585">
        <ele>2446</ele>
        <time>2022-07-26T12:15:14Z</time>
      </trkpt>
      <trkpt lat="45.6449" lon="6.65585">
        <ele>2446</ele>
        <time>2022-07-26T12:15:15Z</time>
      </trkpt>
      <trkpt lat="45.6449" lon="6.65585">
        <ele>2445</ele>
        <time>2022-07-26T12:15:16Z</time>
      </trkpt>
      <trkpt lat="45.6449" lon="6.65584">
        <ele>2445</ele>
        <time>2022-07-26T12:15:17Z</time>
      </trkpt>
      <trkpt lat="45.6449" lon="6.65584">
        <ele>2445</ele>
        <time>2022-07-26T12:15:18Z</time>
      </trkpt>
      <trkpt lat="45.64489" lon="6.65583">
        <ele>2445</ele>
        <time>2022-07-26T12:15:19Z</time>
      </trkpt>
      <trkpt lat="45.64489" lon="6.65583">
        <ele>2445</ele>
        <time>2022-07-26T12:15:20Z</time>
      </trkpt>
      <trkpt lat="45.64489" lon="6.65582">
        <ele>2445</ele>
        <time>2022-07-26T12:15:21Z</time>
      </trkpt>
      <trkpt lat="45.64488" lon="6.65582">
        <ele>2445</ele>
        <time>2022-07-26T12:15:22Z</time>
      </trkpt>
      <trkpt lat="45.64488" lon="6.65581">
        <ele>2445</ele>
        <time>2022-07-26T12:15:23Z</time>
      </trkpt>
      <trkpt lat="45.64488" lon="6.65581">
        <ele>2444</ele>
        <time>2022-07-26T12:15:24Z</time>
      </trkpt>
      <trkpt lat="45.64488" lon="6.6558">
        <ele>2444</ele>
        <time>2022-07-26T12:15:25Z</time>
      </trkpt>
      <trkpt lat="45.64488" lon="6.65579">
        <ele>2444</ele>
        <time>2022-07-26T12:15:26Z</time>
      </trkpt>
      <trkpt lat="45.64488" lon="6.65579">
        <ele>2444</ele>
        <time>2022-07-26T12:15:27Z</time>
      </trkpt>
      <trkpt lat="45.64489" lon="6.65578">
        <ele>2444</ele>
        <time>2022-07-26T12:15:28Z</time>
      </trkpt>
      <trkpt lat="45.64489" lon="6.65578">
        <ele>2443</ele>
        <time>2022-07-26T12:15:29Z</time>
      </trkpt>
      <trkpt lat="45.6449" lon="6.65577">
        <ele>2443</ele>
        <time>2022-07-26T12:15:30Z</time>
      </trkpt>
      <trkpt lat="45.64491" lon="6.65576">
        <ele>2443</ele>
        <time>2022-07-26T12:15:31Z</time>
      </trkpt>
      <trkpt lat="45.64491" lon="6.65576">
        <ele>2443</ele>
        <time>2022-07-26T12:15:32Z</time>
      </trkpt>
      <trkpt lat="45.64492" lon="6.65576">
        <ele>2443</ele>
        <time>2022-07-26T12:15:33Z</time>
      </trkpt>
      <trkpt lat="45.64493" lon="6.65575">
        <ele>2442</ele>
        <time>2022-07-26T12:15:34Z</time>
      </trkpt>
      <trkpt lat="45.64493" lon="6.65575">
        <ele>2442</ele>
        <time>2022-07-26T12:15:35Z</time>
      </trkpt>
      <trkpt lat="45.64494" lon="6.65575">
        <ele>2442</ele>
        <time>2022-07-26T12:15:36Z</time>
      </trkpt>
      <trkpt lat="45.64495" lon="6.65575">
        <ele>2442</ele>
        <time>2022-07-26T12:15:37Z</time>
      </trkpt>
      <trkpt lat="45.64496" lon="6.65575">
        <ele>2442</ele>
        <time>2022-07-26T12:15:38Z</time>
      </trkpt>
      <trkpt lat="45.64496" lon="6.65574">
        <ele>2441</ele>
        <time>2022-07-26T12:15:39Z</time>
      </trkpt>
      <trkpt lat="45.64497" lon="6.65574">
        <ele>2441</ele>
        <time>2022-07-26T12:15:40Z</time>
      </trkpt>
      <trkpt lat="45.64498" lon="6.65574">
        <ele>2441</ele>
        <time>2022-07-26T12:15:41Z</time>
      </trkpt>
      <trkpt lat="45.64499" lon="6.65574">
        <ele>2441</ele>
        <time>2022-07-26T12:15:42Z</time>
      </trkpt>
      <trkpt lat="45.645" lon="6.65574">
        <ele>2441</ele>
        <time>2022-07-26T12:15:43Z</time>
      </trkpt>
      <trkpt lat="45.645" lon="6.65574">
        <ele>2440</ele>
        <time>2022-07-26T12:15:44Z</time>
      </trkpt>
      <trkpt lat="45.645" lon="6.65573">
        <ele>2440</ele>
        <time>2022-07-26T12:15:45Z</time>
      </trkpt>
      <trkpt lat="45.645" lon="6.65573">
        <ele>2440</ele>
        <time>2022-07-26T12:15:46Z</time>
      </trkpt>
      <trkpt lat="45.64501" lon="6.65573">
        <ele>2440</ele>
        <time>2022-07-26T12:15:47Z</time>
      </trkpt>
      <trkpt lat="45.64501" lon="6.65573">
        <ele>2440</ele>
        <time>2022-07-26T12:15:48Z</time>
      </trkpt>
      <trkpt lat="45.64502" lon="6.65572">
        <ele>2439</ele>
        <time>2022-07-26T12:15:49Z</time>
      </trkpt>
      <trkpt lat="45.64503" lon="6.65571">
        <ele>2439</ele>
        <time>2022-07-26T12:15:50Z</time>
      </trkpt>
      <trkpt lat="45.64504" lon="6.65569">
        <ele>2439</ele>
        <time>2022-07-26T12:15:51Z</time>
      </trkpt>
      <trkpt lat="45.64505" lon="6.65568">
        <ele>2439</ele>
        <time>2022-07-26T12:15:52Z</time>
      </trkpt>
      <trkpt lat="45.64506" lon="6.65566">
        <ele>2439</ele>
        <time>2022-07-26T12:15:53Z</time>
      </trkpt>
      <trkpt lat="45.64507" lon="6.65564">
        <ele>2438</ele>
        <time>2022-07-26T12:15:54Z</time>
      </trkpt>
      <trkpt lat="45.64508" lon="6.65562">
        <ele>2438</ele>
        <time>2022-07-26T12:15:55Z</time>
      </trkpt>
      <trkpt lat="45.64509" lon="6.6556">
        <ele>2438</ele>
        <time>2022-07-26T12:15:56Z</time>
      </trkpt>
      <trkpt lat="45.6451" lon="6.65558">
        <ele>2438</ele>
        <time>2022-07-26T12:15:57Z</time>
      </trkpt>
      <trkpt lat="45.6451" lon="6.65556">
        <ele>2438</ele>
        <time>2022-07-26T12:15:58Z</time>
      </trkpt>
      <trkpt lat="45.64511" lon="6.65554">
        <ele>2438</ele>
        <time>2022-07-26T12:15:59Z</time>
      </trkpt>
      <trkpt lat="45.64512" lon="6.65553">
        <ele>2438</ele>
        <time>2022-07-26T12:16:00Z</time>
      </trkpt>
      <trkpt lat="45.64512" lon="6.65551">
        <ele>2438</ele>
        <time>2022-07-26T12:16:01Z</time>
      </trkpt>
      <trkpt lat="45.64513" lon="6.65549">
        <ele>2438</ele>
        <time>2022-07-26T12:16:02Z</time>
      </trkpt>
      <trkpt lat="45.64513" lon="6.65548">
        <ele>2438</ele>
        <time>2022-07-26T12:16:03Z</time>
      </trkpt>
      <trkpt lat="45.64514" lon="6.65546">
        <ele>2437</ele>
        <time>2022-07-26T12:16:04Z</time>
      </trkpt>
      <trkpt lat="45.64514" lon="6.65544">
        <ele>2437</ele>
        <time>2022-07-26T12:16:05Z</time>
      </trkpt>
      <trkpt lat="45.64515" lon="6.65543">
        <ele>2437</ele>
        <time>2022-07-26T12:16:06Z</time>
      </trkpt>
      <trkpt lat="45.64515" lon="6.65541">
        <ele>2437</ele>
        <time>2022-07-26T12:16:07Z</time>
      </trkpt>
      <trkpt lat="45.64516" lon="6.65539">
        <ele>2437</ele>
        <time>2022-07-26T12:16:08Z</time>
      </trkpt>
      <trkpt lat="45.64516" lon="6.65538">
        <ele>2437</ele>
        <time>2022-07-26T12:16:09Z</time>
      </trkpt>
      <trkpt lat="45.64516" lon="6.65536">
        <ele>2437</ele>
        <time>2022-07-26T12:16:10Z</time>
      </trkpt>
      <trkpt lat="45.64517" lon="6.65535">
        <ele>2437</ele>
        <time>2022-07-26T12:16:11Z</time>
      </trkpt>
      <trkpt lat="45.64517" lon="6.65533">
        <ele>2437</ele>
        <time>2022-07-26T12:16:12Z</time>
      </trkpt>
      <trkpt lat="45.64517" lon="6.65532">
        <ele>2437</ele>
        <time>2022-07-26T12:16:13Z</time>
      </trkpt>
      <trkpt lat="45.64518" lon="6.6553">
        <ele>2436</ele>
        <time>2022-07-26T12:16:14Z</time>
      </trkpt>
      <trkpt lat="45.64518" lon="6.65529">
        <ele>2436</ele>
        <time>2022-07-26T12:16:15Z</time>
      </trkpt>
      <trkpt lat="45.64519" lon="6.65528">
        <ele>2436</ele>
        <time>2022-07-26T12:16:16Z</time>
      </trkpt>
      <trkpt lat="45.64519" lon="6.65526">
        <ele>2436</ele>
        <time>2022-07-26T12:16:17Z</time>
      </trkpt>
      <trkpt lat="45.6452" lon="6.65525">
        <ele>2436</ele>
        <time>2022-07-26T12:16:18Z</time>
      </trkpt>
      <trkpt lat="45.64521" lon="6.65524">
        <ele>2436</ele>
        <time>2022-07-26T12:16:19Z</time>
      </trkpt>
      <trkpt lat="45.64521" lon="6.65523">
        <ele>2436</ele>
        <time>2022-07-26T12:16:20Z</time>
      </trkpt>
      <trkpt lat="45.64522" lon="6.65523">
        <ele>2436</ele>
        <time>2022-07-26T12:16:21Z</time>
      </trkpt>
      <trkpt lat="45.64522" lon="6.65522">
        <ele>2436</ele>
        <time>2022-07-26T12:16:34Z</time>
      </trkpt>
      <trkpt lat="45.64522" lon="6.65522">
        <ele>2436</ele>
        <time>2022-07-26T12:16:35Z</time>
      </trkpt>
      <trkpt lat="45.64522" lon="6.65521">
        <ele>2436</ele>
        <time>2022-07-26T12:16:36Z</time>
      </trkpt>
      <trkpt lat="45.64522" lon="6.65521">
        <ele>2436</ele>
        <time>2022-07-26T12:16:37Z</time>
      </trkpt>
      <trkpt lat="45.64522" lon="6.6552">
        <ele>2436</ele>
        <time>2022-07-26T12:16:38Z</time>
      </trkpt>
      <trkpt lat="45.64523" lon="6.65519">
        <ele>2436</ele>
        <time>2022-07-26T12:16:39Z</time>
      </trkpt>
      <trkpt lat="45.64523" lon="6.65518">
        <ele>2436</ele>
        <time>2022-07-26T12:16:40Z</time>
      </trkpt>
      <trkpt lat="45.64523" lon="6.65517">
        <ele>2436</ele>
        <time>2022-07-26T12:16:41Z</time>
      </trkpt>
      <trkpt lat="45.64523" lon="6.65516">
        <ele>2436</ele>
        <time>2022-07-26T12:16:42Z</time>
      </trkpt>
      <trkpt lat="45.64523" lon="6.65515">
        <ele>2436</ele>
        <time>2022-07-26T12:16:43Z</time>
      </trkpt>
      <trkpt lat="45.64524" lon="6.65514">
        <ele>2435</ele>
        <time>2022-07-26T12:16:44Z</time>
      </trkpt>
      <trkpt lat="45.64524" lon="6.65513">
        <ele>2435</ele>
        <time>2022-07-26T12:16:45Z</time>
      </trkpt>
      <trkpt lat="45.64524" lon="6.65512">
        <ele>2435</ele>
        <time>2022-07-26T12:16:46Z</time>
      </trkpt>
      <trkpt lat="45.64524" lon="6.65511">
        <ele>2435</ele>
        <time>2022-07-26T12:16:47Z</time>
      </trkpt>
      <trkpt lat="45.64524" lon="6.6551">
        <ele>2435</ele>
        <time>2022-07-26T12:16:48Z</time>
      </trkpt>
      <trkpt lat="45.64524" lon="6.65509">
        <ele>2435</ele>
        <time>2022-07-26T12:16:49Z</time>
      </trkpt>
      <trkpt lat="45.64524" lon="6.65508">
        <ele>2435</ele>
        <time>2022-07-26T12:16:50Z</time>
      </trkpt>
      <trkpt lat="45.64524" lon="6.65507">
        <ele>2435</ele>
        <time>2022-07-26T12:16:51Z</time>
      </trkpt>
      <trkpt lat="45.64524" lon="6.65506">
        <ele>2435</ele>
        <time>2022-07-26T12:16:52Z</time>
      </trkpt>
      <trkpt lat="45.64525" lon="6.65506">
        <ele>2435</ele>
        <time>2022-07-26T12:16:53Z</time>
      </trkpt>
      <trkpt lat="45.64525" lon="6.65505">
        <ele>2434</ele>
        <time>2022-07-26T12:16:54Z</time>
      </trkpt>
      <trkpt lat="45.64525" lon="6.65504">
        <ele>2434</ele>
        <time>2022-07-26T12:16:55Z</time>
      </trkpt>
      <trkpt lat="45.64525" lon="6.65503">
        <ele>2434</ele>
        <time>2022-07-26T12:16:56Z</time>
      </trkpt>
      <trkpt lat="45.64525" lon="6.65502">
        <ele>2434</ele>
        <time>2022-07-26T12:16:57Z</time>
      </trkpt>
      <trkpt lat="45.64525" lon="6.65501">
        <ele>2434</ele>
        <time>2022-07-26T12:16:58Z</time>
      </trkpt>
      <trkpt lat="45.64525" lon="6.655">
        <ele>2434</ele>
        <time>2022-07-26T12:16:59Z</time>
      </trkpt>
      <trkpt lat="45.64525" lon="6.65499">
        <ele>2434</ele>
        <time>2022-07-26T12:17:00Z</time>
      </trkpt>
      <trkpt lat="45.64525" lon="6.65498">
        <ele>2434</ele>
        <time>2022-07-26T12:17:01Z</time>
      </trkpt>
      <trkpt lat="45.64526" lon="6.65497">
        <ele>2434</ele>
        <time>2022-07-26T12:17:02Z</time>
      </trkpt>
      <trkpt lat="45.64526" lon="6.65495">
        <ele>2434</ele>
        <time>2022-07-26T12:17:03Z</time>
      </trkpt>
      <trkpt lat="45.64527" lon="6.65494">
        <ele>2433</ele>
        <time>2022-07-26T12:17:04Z</time>
      </trkpt>
      <trkpt lat="45.64527" lon="6.65493">
        <ele>2433</ele>
        <time>2022-07-26T12:17:05Z</time>
      </trkpt>
      <trkpt lat="45.64528" lon="6.65493">
        <ele>2433</ele>
        <time>2022-07-26T12:17:06Z</time>
      </trkpt>
      <trkpt lat="45.64528" lon="6.65492">
        <ele>2433</ele>
        <time>2022-07-26T12:17:07Z</time>
      </trkpt>
      <trkpt lat="45.64529" lon="6.65491">
        <ele>2433</ele>
        <time>2022-07-26T12:17:08Z</time>
      </trkpt>
      <trkpt lat="45.64529" lon="6.65491">
        <ele>2432</ele>
        <time>2022-07-26T12:17:09Z</time>
      </trkpt>
      <trkpt lat="45.64529" lon="6.6549">
        <ele>2432</ele>
        <time>2022-07-26T12:17:10Z</time>
      </trkpt>
      <trkpt lat="45.64529" lon="6.65489">
        <ele>2432</ele>
        <time>2022-07-26T12:17:11Z</time>
      </trkpt>
      <trkpt lat="45.6453" lon="6.65488">
        <ele>2432</ele>
        <time>2022-07-26T12:17:12Z</time>
      </trkpt>
      <trkpt lat="45.6453" lon="6.65486">
        <ele>2432</ele>
        <time>2022-07-26T12:17:13Z</time>
      </trkpt>
      <trkpt lat="45.6453" lon="6.65486">
        <ele>2431</ele>
        <time>2022-07-26T12:17:14Z</time>
      </trkpt>
      <trkpt lat="45.6453" lon="6.65485">
        <ele>2431</ele>
        <time>2022-07-26T12:17:15Z</time>
      </trkpt>
      <trkpt lat="45.64531" lon="6.65484">
        <ele>2431</ele>
        <time>2022-07-26T12:17:21Z</time>
      </trkpt>
      <trkpt lat="45.64531" lon="6.65483">
        <ele>2431</ele>
        <time>2022-07-26T12:17:22Z</time>
      </trkpt>
      <trkpt lat="45.64532" lon="6.65483">
        <ele>2431</ele>
        <time>2022-07-26T12:17:23Z</time>
      </trkpt>
      <trkpt lat="45.64532" lon="6.65482">
        <ele>2431</ele>
        <time>2022-07-26T12:17:24Z</time>
      </trkpt>
      <trkpt lat="45.64532" lon="6.65481">
        <ele>2431</ele>
        <time>2022-07-26T12:17:25Z</time>
      </trkpt>
      <trkpt lat="45.64531" lon="6.65481">
        <ele>2431</ele>
        <time>2022-07-26T12:17:26Z</time>
      </trkpt>
      <trkpt lat="45.64531" lon="6.6548">
        <ele>2431</ele>
        <time>2022-07-26T12:17:27Z</time>
      </trkpt>
      <trkpt lat="45.6453" lon="6.6548">
        <ele>2431</ele>
        <time>2022-07-26T12:17:28Z</time>
      </trkpt>
      <trkpt lat="45.6453" lon="6.65479">
        <ele>2430</ele>
        <time>2022-07-26T12:17:29Z</time>
      </trkpt>
      <trkpt lat="45.64529" lon="6.65479">
        <ele>2430</ele>
        <time>2022-07-26T12:17:30Z</time>
      </trkpt>
      <trkpt lat="45.64529" lon="6.6548">
        <ele>2430</ele>
        <time>2022-07-26T12:17:31Z</time>
      </trkpt>
      <trkpt lat="45.64528" lon="6.6548">
        <ele>2430</ele>
        <time>2022-07-26T12:17:32Z</time>
      </trkpt>
      <trkpt lat="45.64527" lon="6.6548">
        <ele>2430</ele>
        <time>2022-07-26T12:17:33Z</time>
      </trkpt>
      <trkpt lat="45.64527" lon="6.6548">
        <ele>2429</ele>
        <time>2022-07-26T12:17:34Z</time>
      </trkpt>
      <trkpt lat="45.64526" lon="6.6548">
        <ele>2429</ele>
        <time>2022-07-26T12:17:35Z</time>
      </trkpt>
      <trkpt lat="45.64526" lon="6.65481">
        <ele>2429</ele>
        <time>2022-07-26T12:17:36Z</time>
      </trkpt>
      <trkpt lat="45.64525" lon="6.65481">
        <ele>2429</ele>
        <time>2022-07-26T12:17:37Z</time>
      </trkpt>
      <trkpt lat="45.64524" lon="6.6548">
        <ele>2429</ele>
        <time>2022-07-26T12:17:38Z</time>
      </trkpt>
      <trkpt lat="45.64524" lon="6.6548">
        <ele>2429</ele>
        <time>2022-07-26T12:17:39Z</time>
      </trkpt>
      <trkpt lat="45.64523" lon="6.6548">
        <ele>2429</ele>
        <time>2022-07-26T12:17:40Z</time>
      </trkpt>
      <trkpt lat="45.64523" lon="6.65479">
        <ele>2429</ele>
        <time>2022-07-26T12:17:41Z</time>
      </trkpt>
      <trkpt lat="45.64523" lon="6.65478">
        <ele>2429</ele>
        <time>2022-07-26T12:17:42Z</time>
      </trkpt>
      <trkpt lat="45.64523" lon="6.65477">
        <ele>2429</ele>
        <time>2022-07-26T12:17:43Z</time>
      </trkpt>
      <trkpt lat="45.64523" lon="6.65476">
        <ele>2428</ele>
        <time>2022-07-26T12:17:44Z</time>
      </trkpt>
      <trkpt lat="45.64523" lon="6.65475">
        <ele>2428</ele>
        <time>2022-07-26T12:17:45Z</time>
      </trkpt>
      <trkpt lat="45.64523" lon="6.65475">
        <ele>2428</ele>
        <time>2022-07-26T12:17:46Z</time>
      </trkpt>
      <trkpt lat="45.64524" lon="6.65474">
        <ele>2428</ele>
        <time>2022-07-26T12:17:47Z</time>
      </trkpt>
      <trkpt lat="45.64524" lon="6.65473">
        <ele>2428</ele>
        <time>2022-07-26T12:17:48Z</time>
      </trkpt>
      <trkpt lat="45.64524" lon="6.65473">
        <ele>2427</ele>
        <time>2022-07-26T12:17:49Z</time>
      </trkpt>
      <trkpt lat="45.64525" lon="6.65472">
        <ele>2427</ele>
        <time>2022-07-26T12:17:50Z</time>
      </trkpt>
      <trkpt lat="45.64525" lon="6.65471">
        <ele>2427</ele>
        <time>2022-07-26T12:17:51Z</time>
      </trkpt>
      <trkpt lat="45.64525" lon="6.6547">
        <ele>2427</ele>
        <time>2022-07-26T12:17:52Z</time>
      </trkpt>
      <trkpt lat="45.64525" lon="6.6547">
        <ele>2427</ele>
        <time>2022-07-26T12:17:53Z</time>
      </trkpt>
      <trkpt lat="45.64525" lon="6.65468">
        <ele>2425</ele>
        <time>2022-07-26T12:18:01Z</time>
      </trkpt>
      <trkpt lat="45.64525" lon="6.65467">
        <ele>2425</ele>
        <time>2022-07-26T12:18:02Z</time>
      </trkpt>
      <trkpt lat="45.64525" lon="6.65466">
        <ele>2425</ele>
        <time>2022-07-26T12:18:03Z</time>
      </trkpt>
      <trkpt lat="45.64526" lon="6.65465">
        <ele>2424</ele>
        <time>2022-07-26T12:18:11Z</time>
      </trkpt>
      <trkpt lat="45.64527" lon="6.65464">
        <ele>2424</ele>
        <time>2022-07-26T12:18:12Z</time>
      </trkpt>
      <trkpt lat="45.64527" lon="6.65463">
        <ele>2424</ele>
        <time>2022-07-26T12:18:13Z</time>
      </trkpt>
      <trkpt lat="45.64528" lon="6.65462">
        <ele>2423</ele>
        <time>2022-07-26T12:18:14Z</time>
      </trkpt>
      <trkpt lat="45.64528" lon="6.65461">
        <ele>2423</ele>
        <time>2022-07-26T12:18:15Z</time>
      </trkpt>
      <trkpt lat="45.64528" lon="6.65461">
        <ele>2423</ele>
        <time>2022-07-26T12:18:16Z</time>
      </trkpt>
      <trkpt lat="45.64528" lon="6.6546">
        <ele>2423</ele>
        <time>2022-07-26T12:18:17Z</time>
      </trkpt>
      <trkpt lat="45.64526" lon="6.65457">
        <ele>2416</ele>
        <time>2022-07-26T12:19:01Z</time>
      </trkpt>
      <trkpt lat="45.64524" lon="6.65455">
        <ele>2416</ele>
        <time>2022-07-26T12:19:02Z</time>
      </trkpt>
      <trkpt lat="45.64523" lon="6.65453">
        <ele>2416</ele>
        <time>2022-07-26T12:19:03Z</time>
      </trkpt>
      <trkpt lat="45.64522" lon="6.65452">
        <ele>2415</ele>
        <time>2022-07-26T12:19:04Z</time>
      </trkpt>
      <trkpt lat="45.64521" lon="6.65451">
        <ele>2415</ele>
        <time>2022-07-26T12:19:05Z</time>
      </trkpt>
      <trkpt lat="45.6452" lon="6.6545">
        <ele>2415</ele>
        <time>2022-07-26T12:19:06Z</time>
      </trkpt>
      <trkpt lat="45.6452" lon="6.65449">
        <ele>2415</ele>
        <time>2022-07-26T12:19:07Z</time>
      </trkpt>
      <trkpt lat="45.64519" lon="6.65449">
        <ele>2415</ele>
        <time>2022-07-26T12:19:08Z</time>
      </trkpt>
      <trkpt lat="45.64519" lon="6.65448">
        <ele>2414</ele>
        <time>2022-07-26T12:19:09Z</time>
      </trkpt>
      <trkpt lat="45.64518" lon="6.65448">
        <ele>2414</ele>
        <time>2022-07-26T12:19:10Z</time>
      </trkpt>
      <trkpt lat="45.64517" lon="6.65448">
        <ele>2414</ele>
        <time>2022-07-26T12:19:11Z</time>
      </trkpt>
      <trkpt lat="45.64517" lon="6.65447">
        <ele>2414</ele>
        <time>2022-07-26T12:19:12Z</time>
      </trkpt>
      <trkpt lat="45.64516" lon="6.65447">
        <ele>2414</ele>
        <time>2022-07-26T12:19:13Z</time>
      </trkpt>
      <trkpt lat="45.64515" lon="6.65447">
        <ele>2413</ele>
        <time>2022-07-26T12:19:14Z</time>
      </trkpt>
      <trkpt lat="45.64515" lon="6.65447">
        <ele>2413</ele>
        <time>2022-07-26T12:19:15Z</time>
      </trkpt>
      <trkpt lat="45.64514" lon="6.65447">
        <ele>2413</ele>
        <time>2022-07-26T12:19:16Z</time>
      </trkpt>
      <trkpt lat="45.64513" lon="6.65447">
        <ele>2413</ele>
        <time>2022-07-26T12:19:17Z</time>
      </trkpt>
      <trkpt lat="45.64513" lon="6.65447">
        <ele>2413</ele>
        <time>2022-07-26T12:19:18Z</time>
      </trkpt>
      <trkpt lat="45.64513" lon="6.65447">
        <ele>2412</ele>
        <time>2022-07-26T12:19:19Z</time>
      </trkpt>
      <trkpt lat="45.64512" lon="6.65447">
        <ele>2412</ele>
        <time>2022-07-26T12:19:20Z</time>
      </trkpt>
      <trkpt lat="45.64511" lon="6.65445">
        <ele>2408</ele>
        <time>2022-07-26T12:20:15Z</time>
      </trkpt>
      <trkpt lat="45.64511" lon="6.65444">
        <ele>2408</ele>
        <time>2022-07-26T12:20:16Z</time>
      </trkpt>
      <trkpt lat="45.64511" lon="6.65443">
        <ele>2408</ele>
        <time>2022-07-26T12:20:17Z</time>
      </trkpt>
      <trkpt lat="45.64511" lon="6.65442">
        <ele>2408</ele>
        <time>2022-07-26T12:20:18Z</time>
      </trkpt>
      <trkpt lat="45.64511" lon="6.65441">
        <ele>2408</ele>
        <time>2022-07-26T12:20:19Z</time>
      </trkpt>
      <trkpt lat="45.64512" lon="6.6544">
        <ele>2408</ele>
        <time>2022-07-26T12:20:20Z</time>
      </trkpt>
      <trkpt lat="45.64513" lon="6.6544">
        <ele>2408</ele>
        <time>2022-07-26T12:20:21Z</time>
      </trkpt>
      <trkpt lat="45.64514" lon="6.65439">
        <ele>2408</ele>
        <time>2022-07-26T12:20:22Z</time>
      </trkpt>
      <trkpt lat="45.64514" lon="6.65438">
        <ele>2408</ele>
        <time>2022-07-26T12:20:23Z</time>
      </trkpt>
      <trkpt lat="45.64515" lon="6.65438">
        <ele>2407</ele>
        <time>2022-07-26T12:20:24Z</time>
      </trkpt>
      <trkpt lat="45.64516" lon="6.65438">
        <ele>2407</ele>
        <time>2022-07-26T12:20:25Z</time>
      </trkpt>
      <trkpt lat="45.64517" lon="6.65437">
        <ele>2407</ele>
        <time>2022-07-26T12:20:26Z</time>
      </trkpt>
      <trkpt lat="45.64518" lon="6.65437">
        <ele>2407</ele>
        <time>2022-07-26T12:20:27Z</time>
      </trkpt>
      <trkpt lat="45.64519" lon="6.65437">
        <ele>2407</ele>
        <time>2022-07-26T12:20:28Z</time>
      </trkpt>
      <trkpt lat="45.64519" lon="6.65437">
        <ele>2407</ele>
        <time>2022-07-26T12:20:29Z</time>
      </trkpt>
      <trkpt lat="45.64519" lon="6.65437">
        <ele>2407</ele>
        <time>2022-07-26T12:20:30Z</time>
      </trkpt>
      <trkpt lat="45.64519" lon="6.65436">
        <ele>2407</ele>
        <time>2022-07-26T12:20:31Z</time>
      </trkpt>
      <trkpt lat="45.64519" lon="6.65436">
        <ele>2407</ele>
        <time>2022-07-26T12:20:32Z</time>
      </trkpt>
      <trkpt lat="45.64518" lon="6.65435">
        <ele>2407</ele>
        <time>2022-07-26T12:20:33Z</time>
      </trkpt>
      <trkpt lat="45.64518" lon="6.65435">
        <ele>2406</ele>
        <time>2022-07-26T12:20:34Z</time>
      </trkpt>
      <trkpt lat="45.64517" lon="6.65434">
        <ele>2406</ele>
        <time>2022-07-26T12:20:35Z</time>
      </trkpt>
      <trkpt lat="45.64516" lon="6.65433">
        <ele>2406</ele>
        <time>2022-07-26T12:20:36Z</time>
      </trkpt>
      <trkpt lat="45.64516" lon="6.65433">
        <ele>2406</ele>
        <time>2022-07-26T12:20:37Z</time>
      </trkpt>
      <trkpt lat="45.64515" lon="6.65432">
        <ele>2406</ele>
        <time>2022-07-26T12:20:38Z</time>
      </trkpt>
      <trkpt lat="45.64514" lon="6.65431">
        <ele>2405</ele>
        <time>2022-07-26T12:20:39Z</time>
      </trkpt>
      <trkpt lat="45.64513" lon="6.65431">
        <ele>2405</ele>
        <time>2022-07-26T12:20:40Z</time>
      </trkpt>
      <trkpt lat="45.64512" lon="6.65431">
        <ele>2405</ele>
        <time>2022-07-26T12:20:41Z</time>
      </trkpt>
      <trkpt lat="45.64511" lon="6.65431">
        <ele>2405</ele>
        <time>2022-07-26T12:20:42Z</time>
      </trkpt>
      <trkpt lat="45.6451" lon="6.65432">
        <ele>2405</ele>
        <time>2022-07-26T12:20:43Z</time>
      </trkpt>
      <trkpt lat="45.64509" lon="6.65433">
        <ele>2404</ele>
        <time>2022-07-26T12:20:44Z</time>
      </trkpt>
      <trkpt lat="45.64509" lon="6.65434">
        <ele>2404</ele>
        <time>2022-07-26T12:20:45Z</time>
      </trkpt>
      <trkpt lat="45.64508" lon="6.65435">
        <ele>2404</ele>
        <time>2022-07-26T12:20:46Z</time>
      </trkpt>
      <trkpt lat="45.64507" lon="6.65435">
        <ele>2404</ele>
        <time>2022-07-26T12:20:47Z</time>
      </trkpt>
      <trkpt lat="45.64506" lon="6.65436">
        <ele>2404</ele>
        <time>2022-07-26T12:20:48Z</time>
      </trkpt>
      <trkpt lat="45.64505" lon="6.65437">
        <ele>2403</ele>
        <time>2022-07-26T12:20:49Z</time>
      </trkpt>
      <trkpt lat="45.64505" lon="6.65437">
        <ele>2403</ele>
        <time>2022-07-26T12:20:50Z</time>
      </trkpt>
      <trkpt lat="45.64504" lon="6.65437">
        <ele>2403</ele>
        <time>2022-07-26T12:20:51Z</time>
      </trkpt>
      <trkpt lat="45.64504" lon="6.65437">
        <ele>2403</ele>
        <time>2022-07-26T12:20:52Z</time>
      </trkpt>
      <trkpt lat="45.64503" lon="6.65437">
        <ele>2403</ele>
        <time>2022-07-26T12:20:53Z</time>
      </trkpt>
      <trkpt lat="45.64502" lon="6.65437">
        <ele>2402</ele>
        <time>2022-07-26T12:20:54Z</time>
      </trkpt>
      <trkpt lat="45.64502" lon="6.65436">
        <ele>2402</ele>
        <time>2022-07-26T12:20:55Z</time>
      </trkpt>
      <trkpt lat="45.64501" lon="6.65436">
        <ele>2402</ele>
        <time>2022-07-26T12:20:56Z</time>
      </trkpt>
      <trkpt lat="45.64501" lon="6.65436">
        <ele>2402</ele>
        <time>2022-07-26T12:20:57Z</time>
      </trkpt>
      <trkpt lat="45.645" lon="6.65436">
        <ele>2402</ele>
        <time>2022-07-26T12:20:58Z</time>
      </trkpt>
      <trkpt lat="45.64499" lon="6.65436">
        <ele>2401</ele>
        <time>2022-07-26T12:20:59Z</time>
      </trkpt>
      <trkpt lat="45.64499" lon="6.65435">
        <ele>2401</ele>
        <time>2022-07-26T12:21:00Z</time>
      </trkpt>
      <trkpt lat="45.64498" lon="6.65435">
        <ele>2401</ele>
        <time>2022-07-26T12:21:01Z</time>
      </trkpt>
      <trkpt lat="45.64497" lon="6.65435">
        <ele>2401</ele>
        <time>2022-07-26T12:21:02Z</time>
      </trkpt>
      <trkpt lat="45.64496" lon="6.65435">
        <ele>2401</ele>
        <time>2022-07-26T12:21:03Z</time>
      </trkpt>
      <trkpt lat="45.64496" lon="6.65435">
        <ele>2400</ele>
        <time>2022-07-26T12:21:04Z</time>
      </trkpt>
      <trkpt lat="45.64495" lon="6.65435">
        <ele>2400</ele>
        <time>2022-07-26T12:21:05Z</time>
      </trkpt>
      <trkpt lat="45.64494" lon="6.65435">
        <ele>2400</ele>
        <time>2022-07-26T12:21:06Z</time>
      </trkpt>
      <trkpt lat="45.64493" lon="6.65434">
        <ele>2400</ele>
        <time>2022-07-26T12:21:07Z</time>
      </trkpt>
      <trkpt lat="45.64492" lon="6.65434">
        <ele>2400</ele>
        <time>2022-07-26T12:21:08Z</time>
      </trkpt>
      <trkpt lat="45.64492" lon="6.65434">
        <ele>2399</ele>
        <time>2022-07-26T12:21:09Z</time>
      </trkpt>
      <trkpt lat="45.64491" lon="6.65433">
        <ele>2399</ele>
        <time>2022-07-26T12:21:10Z</time>
      </trkpt>
      <trkpt lat="45.6449" lon="6.65433">
        <ele>2399</ele>
        <time>2022-07-26T12:21:11Z</time>
      </trkpt>
      <trkpt lat="45.6449" lon="6.65432">
        <ele>2399</ele>
        <time>2022-07-26T12:21:12Z</time>
      </trkpt>
      <trkpt lat="45.6449" lon="6.65432">
        <ele>2399</ele>
        <time>2022-07-26T12:21:13Z</time>
      </trkpt>
      <trkpt lat="45.64489" lon="6.65431">
        <ele>2398</ele>
        <time>2022-07-26T12:21:14Z</time>
      </trkpt>
      <trkpt lat="45.64489" lon="6.65431">
        <ele>2398</ele>
        <time>2022-07-26T12:21:15Z</time>
      </trkpt>
      <trkpt lat="45.64489" lon="6.6543">
        <ele>2398</ele>
        <time>2022-07-26T12:21:16Z</time>
      </trkpt>
      <trkpt lat="45.64488" lon="6.6543">
        <ele>2398</ele>
        <time>2022-07-26T12:21:17Z</time>
      </trkpt>
      <trkpt lat="45.64488" lon="6.65429">
        <ele>2398</ele>
        <time>2022-07-26T12:21:18Z</time>
      </trkpt>
      <trkpt lat="45.64487" lon="6.65428">
        <ele>2397</ele>
        <time>2022-07-26T12:21:19Z</time>
      </trkpt>
      <trkpt lat="45.64487" lon="6.65428">
        <ele>2397</ele>
        <time>2022-07-26T12:21:20Z</time>
      </trkpt>
      <trkpt lat="45.64486" lon="6.65427">
        <ele>2396</ele>
        <time>2022-07-26T12:21:21Z</time>
      </trkpt>
      <trkpt lat="45.64486" lon="6.65426">
        <ele>2396</ele>
        <time>2022-07-26T12:21:22Z</time>
      </trkpt>
      <trkpt lat="45.64486" lon="6.65426">
        <ele>2396</ele>
        <time>2022-07-26T12:21:23Z</time>
      </trkpt>
      <trkpt lat="45.64486" lon="6.65425">
        <ele>2395</ele>
        <time>2022-07-26T12:21:24Z</time>
      </trkpt>
      <trkpt lat="45.64487" lon="6.65425">
        <ele>2395</ele>
        <time>2022-07-26T12:21:25Z</time>
      </trkpt>
      <trkpt lat="45.64487" lon="6.65424">
        <ele>2395</ele>
        <time>2022-07-26T12:21:26Z</time>
      </trkpt>
      <trkpt lat="45.64487" lon="6.65424">
        <ele>2395</ele>
        <time>2022-07-26T12:21:27Z</time>
      </trkpt>
      <trkpt lat="45.64488" lon="6.65424">
        <ele>2395</ele>
        <time>2022-07-26T12:21:28Z</time>
      </trkpt>
      <trkpt lat="45.64488" lon="6.65423">
        <ele>2394</ele>
        <time>2022-07-26T12:21:29Z</time>
      </trkpt>
      <trkpt lat="45.64488" lon="6.65423">
        <ele>2394</ele>
        <time>2022-07-26T12:21:30Z</time>
      </trkpt>
      <trkpt lat="45.64489" lon="6.65422">
        <ele>2393</ele>
        <time>2022-07-26T12:21:31Z</time>
      </trkpt>
      <trkpt lat="45.64489" lon="6.65422">
        <ele>2393</ele>
        <time>2022-07-26T12:21:32Z</time>
      </trkpt>
      <trkpt lat="45.6449" lon="6.65421">
        <ele>2393</ele>
        <time>2022-07-26T12:21:33Z</time>
      </trkpt>
      <trkpt lat="45.6449" lon="6.6542">
        <ele>2392</ele>
        <time>2022-07-26T12:21:34Z</time>
      </trkpt>
      <trkpt lat="45.64491" lon="6.6542">
        <ele>2392</ele>
        <time>2022-07-26T12:21:35Z</time>
      </trkpt>
      <trkpt lat="45.64491" lon="6.65419">
        <ele>2392</ele>
        <time>2022-07-26T12:21:36Z</time>
      </trkpt>
      <trkpt lat="45.64492" lon="6.65419">
        <ele>2392</ele>
        <time>2022-07-26T12:21:37Z</time>
      </trkpt>
      <trkpt lat="45.64492" lon="6.65419">
        <ele>2392</ele>
        <time>2022-07-26T12:21:38Z</time>
      </trkpt>
      <trkpt lat="45.64493" lon="6.65418">
        <ele>2391</ele>
        <time>2022-07-26T12:21:39Z</time>
      </trkpt>
      <trkpt lat="45.64493" lon="6.65418">
        <ele>2391</ele>
        <time>2022-07-26T12:21:40Z</time>
      </trkpt>
      <trkpt lat="45.64494" lon="6.65418">
        <ele>2391</ele>
        <time>2022-07-26T12:21:41Z</time>
      </trkpt>
      <trkpt lat="45.64494" lon="6.65417">
        <ele>2391</ele>
        <time>2022-07-26T12:21:42Z</time>
      </trkpt>
      <trkpt lat="45.64494" lon="6.65417">
        <ele>2391</ele>
        <time>2022-07-26T12:21:43Z</time>
      </trkpt>
      <trkpt lat="45.64495" lon="6.65416">
        <ele>2390</ele>
        <time>2022-07-26T12:21:44Z</time>
      </trkpt>
      <trkpt lat="45.64495" lon="6.65415">
        <ele>2390</ele>
        <time>2022-07-26T12:21:45Z</time>
      </trkpt>
      <trkpt lat="45.64495" lon="6.65415">
        <ele>2390</ele>
        <time>2022-07-26T12:21:46Z</time>
      </trkpt>
      <trkpt lat="45.64495" lon="6.65415">
        <ele>2390</ele>
        <time>2022-07-26T12:21:47Z</time>
      </trkpt>
      <trkpt lat="45.64495" lon="6.65415">
        <ele>2390</ele>
        <time>2022-07-26T12:21:48Z</time>
      </trkpt>
      <trkpt lat="45.64495" lon="6.65415">
        <ele>2389</ele>
        <time>2022-07-26T12:21:49Z</time>
      </trkpt>
      <trkpt lat="45.64496" lon="6.65415">
        <ele>2389</ele>
        <time>2022-07-26T12:21:50Z</time>
      </trkpt>
      <trkpt lat="45.64496" lon="6.65414">
        <ele>2389</ele>
        <time>2022-07-26T12:21:51Z</time>
      </trkpt>
      <trkpt lat="45.64496" lon="6.65412">
        <ele>2385</ele>
        <time>2022-07-26T12:22:21Z</time>
      </trkpt>
      <trkpt lat="45.64496" lon="6.6541">
        <ele>2385</ele>
        <time>2022-07-26T12:22:22Z</time>
      </trkpt>
      <trkpt lat="45.64496" lon="6.65409">
        <ele>2385</ele>
        <time>2022-07-26T12:22:23Z</time>
      </trkpt>
      <trkpt lat="45.64496" lon="6.65408">
        <ele>2385</ele>
        <time>2022-07-26T12:22:24Z</time>
      </trkpt>
      <trkpt lat="45.64496" lon="6.65407">
        <ele>2385</ele>
        <time>2022-07-26T12:22:25Z</time>
      </trkpt>
      <trkpt lat="45.64496" lon="6.65406">
        <ele>2385</ele>
        <time>2022-07-26T12:22:26Z</time>
      </trkpt>
      <trkpt lat="45.64496" lon="6.65405">
        <ele>2385</ele>
        <time>2022-07-26T12:22:27Z</time>
      </trkpt>
      <trkpt lat="45.64496" lon="6.65405">
        <ele>2385</ele>
        <time>2022-07-26T12:22:28Z</time>
      </trkpt>
      <trkpt lat="45.64496" lon="6.65404">
        <ele>2385</ele>
        <time>2022-07-26T12:22:29Z</time>
      </trkpt>
      <trkpt lat="45.64495" lon="6.65402">
        <ele>2385</ele>
        <time>2022-07-26T12:22:35Z</time>
      </trkpt>
      <trkpt lat="45.64494" lon="6.65402">
        <ele>2385</ele>
        <time>2022-07-26T12:22:36Z</time>
      </trkpt>
      <trkpt lat="45.64494" lon="6.65401">
        <ele>2385</ele>
        <time>2022-07-26T12:22:37Z</time>
      </trkpt>
      <trkpt lat="45.64493" lon="6.65401">
        <ele>2385</ele>
        <time>2022-07-26T12:22:38Z</time>
      </trkpt>
      <trkpt lat="45.64493" lon="6.654">
        <ele>2384</ele>
        <time>2022-07-26T12:22:39Z</time>
      </trkpt>
      <trkpt lat="45.64493" lon="6.654">
        <ele>2384</ele>
        <time>2022-07-26T12:22:40Z</time>
      </trkpt>
      <trkpt lat="45.64493" lon="6.65399">
        <ele>2384</ele>
        <time>2022-07-26T12:22:41Z</time>
      </trkpt>
      <trkpt lat="45.64493" lon="6.65399">
        <ele>2384</ele>
        <time>2022-07-26T12:22:42Z</time>
      </trkpt>
      <trkpt lat="45.64493" lon="6.65398">
        <ele>2384</ele>
        <time>2022-07-26T12:22:43Z</time>
      </trkpt>
      <trkpt lat="45.64493" lon="6.65398">
        <ele>2383</ele>
        <time>2022-07-26T12:22:44Z</time>
      </trkpt>
      <trkpt lat="45.64493" lon="6.65398">
        <ele>2383</ele>
        <time>2022-07-26T12:22:45Z</time>
      </trkpt>
      <trkpt lat="45.64493" lon="6.65397">
        <ele>2383</ele>
        <time>2022-07-26T12:22:46Z</time>
      </trkpt>
      <trkpt lat="45.64494" lon="6.65396">
        <ele>2383</ele>
        <time>2022-07-26T12:22:47Z</time>
      </trkpt>
      <trkpt lat="45.64494" lon="6.65395">
        <ele>2383</ele>
        <time>2022-07-26T12:22:48Z</time>
      </trkpt>
      <trkpt lat="45.64494" lon="6.65395">
        <ele>2382</ele>
        <time>2022-07-26T12:22:49Z</time>
      </trkpt>
      <trkpt lat="45.64495" lon="6.65394">
        <ele>2382</ele>
        <time>2022-07-26T12:22:50Z</time>
      </trkpt>
      <trkpt lat="45.64495" lon="6.65393">
        <ele>2382</ele>
        <time>2022-07-26T12:22:51Z</time>
      </trkpt>
      <trkpt lat="45.64495" lon="6.65393">
        <ele>2382</ele>
        <time>2022-07-26T12:22:52Z</time>
      </trkpt>
      <trkpt lat="45.64496" lon="6.65392">
        <ele>2382</ele>
        <time>2022-07-26T12:22:53Z</time>
      </trkpt>
      <trkpt lat="45.64496" lon="6.65391">
        <ele>2381</ele>
        <time>2022-07-26T12:22:54Z</time>
      </trkpt>
      <trkpt lat="45.64497" lon="6.65391">
        <ele>2381</ele>
        <time>2022-07-26T12:22:55Z</time>
      </trkpt>
      <trkpt lat="45.64497" lon="6.6539">
        <ele>2381</ele>
        <time>2022-07-26T12:22:56Z</time>
      </trkpt>
      <trkpt lat="45.64498" lon="6.6539">
        <ele>2381</ele>
        <time>2022-07-26T12:22:57Z</time>
      </trkpt>
      <trkpt lat="45.64498" lon="6.65389">
        <ele>2381</ele>
        <time>2022-07-26T12:22:58Z</time>
      </trkpt>
      <trkpt lat="45.64499" lon="6.65389">
        <ele>2380</ele>
        <time>2022-07-26T12:22:59Z</time>
      </trkpt>
      <trkpt lat="45.64499" lon="6.65388">
        <ele>2380</ele>
        <time>2022-07-26T12:23:00Z</time>
      </trkpt>
      <trkpt lat="45.645" lon="6.65388">
        <ele>2380</ele>
        <time>2022-07-26T12:23:01Z</time>
      </trkpt>
      <trkpt lat="45.645" lon="6.65387">
        <ele>2380</ele>
        <time>2022-07-26T12:23:02Z</time>
      </trkpt>
      <trkpt lat="45.64501" lon="6.65386">
        <ele>2380</ele>
        <time>2022-07-26T12:23:03Z</time>
      </trkpt>
      <trkpt lat="45.64501" lon="6.65385">
        <ele>2379</ele>
        <time>2022-07-26T12:23:04Z</time>
      </trkpt>
      <trkpt lat="45.64502" lon="6.65385">
        <ele>2379</ele>
        <time>2022-07-26T12:23:05Z</time>
      </trkpt>
      <trkpt lat="45.64503" lon="6.65385">
        <ele>2379</ele>
        <time>2022-07-26T12:23:06Z</time>
      </trkpt>
      <trkpt lat="45.64503" lon="6.65384">
        <ele>2379</ele>
        <time>2022-07-26T12:23:07Z</time>
      </trkpt>
      <trkpt lat="45.64504" lon="6.65385">
        <ele>2379</ele>
        <time>2022-07-26T12:23:08Z</time>
      </trkpt>
      <trkpt lat="45.64505" lon="6.65385">
        <ele>2378</ele>
        <time>2022-07-26T12:23:09Z</time>
      </trkpt>
      <trkpt lat="45.64506" lon="6.65386">
        <ele>2378</ele>
        <time>2022-07-26T12:23:10Z</time>
      </trkpt>
      <trkpt lat="45.64507" lon="6.65386">
        <ele>2378</ele>
        <time>2022-07-26T12:23:11Z</time>
      </trkpt>
      <trkpt lat="45.64508" lon="6.65387">
        <ele>2378</ele>
        <time>2022-07-26T12:23:12Z</time>
      </trkpt>
      <trkpt lat="45.64509" lon="6.65388">
        <ele>2378</ele>
        <time>2022-07-26T12:23:13Z</time>
      </trkpt>
      <trkpt lat="45.64509" lon="6.65389">
        <ele>2377</ele>
        <time>2022-07-26T12:23:14Z</time>
      </trkpt>
      <trkpt lat="45.6451" lon="6.65389">
        <ele>2377</ele>
        <time>2022-07-26T12:23:15Z</time>
      </trkpt>
      <trkpt lat="45.64511" lon="6.6539">
        <ele>2376</ele>
        <time>2022-07-26T12:23:16Z</time>
      </trkpt>
      <trkpt lat="45.64511" lon="6.6539">
        <ele>2376</ele>
        <time>2022-07-26T12:23:17Z</time>
      </trkpt>
      <trkpt lat="45.64512" lon="6.6539">
        <ele>2376</ele>
        <time>2022-07-26T12:23:18Z</time>
      </trkpt>
      <trkpt lat="45.64512" lon="6.6539">
        <ele>2375</ele>
        <time>2022-07-26T12:23:19Z</time>
      </trkpt>
      <trkpt lat="45.64513" lon="6.6539">
        <ele>2375</ele>
        <time>2022-07-26T12:23:20Z</time>
      </trkpt>
      <trkpt lat="45.64514" lon="6.6539">
        <ele>2375</ele>
        <time>2022-07-26T12:23:21Z</time>
      </trkpt>
      <trkpt lat="45.64515" lon="6.6539">
        <ele>2375</ele>
        <time>2022-07-26T12:23:22Z</time>
      </trkpt>
      <trkpt lat="45.64516" lon="6.6539">
        <ele>2375</ele>
        <time>2022-07-26T12:23:23Z</time>
      </trkpt>
      <trkpt lat="45.64517" lon="6.65389">
        <ele>2374</ele>
        <time>2022-07-26T12:23:24Z</time>
      </trkpt>
      <trkpt lat="45.64518" lon="6.65389">
        <ele>2374</ele>
        <time>2022-07-26T12:23:25Z</time>
      </trkpt>
      <trkpt lat="45.64519" lon="6.65389">
        <ele>2374</ele>
        <time>2022-07-26T12:23:26Z</time>
      </trkpt>
      <trkpt lat="45.6452" lon="6.65388">
        <ele>2374</ele>
        <time>2022-07-26T12:23:27Z</time>
      </trkpt>
      <trkpt lat="45.64522" lon="6.65387">
        <ele>2374</ele>
        <time>2022-07-26T12:23:28Z</time>
      </trkpt>
      <trkpt lat="45.64523" lon="6.65387">
        <ele>2373</ele>
        <time>2022-07-26T12:23:29Z</time>
      </trkpt>
      <trkpt lat="45.64524" lon="6.65386">
        <ele>2373</ele>
        <time>2022-07-26T12:23:30Z</time>
      </trkpt>
      <trkpt lat="45.64525" lon="6.65385">
        <ele>2373</ele>
        <time>2022-07-26T12:23:31Z</time>
      </trkpt>
      <trkpt lat="45.64526" lon="6.65384">
        <ele>2373</ele>
        <time>2022-07-26T12:23:32Z</time>
      </trkpt>
      <trkpt lat="45.64528" lon="6.65384">
        <ele>2373</ele>
        <time>2022-07-26T12:23:33Z</time>
      </trkpt>
      <trkpt lat="45.64529" lon="6.65383">
        <ele>2372</ele>
        <time>2022-07-26T12:23:34Z</time>
      </trkpt>
      <trkpt lat="45.6453" lon="6.65383">
        <ele>2372</ele>
        <time>2022-07-26T12:23:35Z</time>
      </trkpt>
      <trkpt lat="45.64532" lon="6.65382">
        <ele>2371</ele>
        <time>2022-07-26T12:23:36Z</time>
      </trkpt>
      <trkpt lat="45.64533" lon="6.65382">
        <ele>2371</ele>
        <time>2022-07-26T12:23:37Z</time>
      </trkpt>
      <trkpt lat="45.64534" lon="6.65382">
        <ele>2371</ele>
        <time>2022-07-26T12:23:38Z</time>
      </trkpt>
      <trkpt lat="45.64535" lon="6.65382">
        <ele>2370</ele>
        <time>2022-07-26T12:23:39Z</time>
      </trkpt>
      <trkpt lat="45.64537" lon="6.65382">
        <ele>2370</ele>
        <time>2022-07-26T12:23:40Z</time>
      </trkpt>
      <trkpt lat="45.64538" lon="6.65382">
        <ele>2370</ele>
        <time>2022-07-26T12:23:41Z</time>
      </trkpt>
      <trkpt lat="45.64539" lon="6.65381">
        <ele>2370</ele>
        <time>2022-07-26T12:23:42Z</time>
      </trkpt>
      <trkpt lat="45.6454" lon="6.65381">
        <ele>2370</ele>
        <time>2022-07-26T12:23:43Z</time>
      </trkpt>
      <trkpt lat="45.64541" lon="6.6538">
        <ele>2369</ele>
        <time>2022-07-26T12:23:44Z</time>
      </trkpt>
      <trkpt lat="45.64542" lon="6.6538">
        <ele>2369</ele>
        <time>2022-07-26T12:23:45Z</time>
      </trkpt>
      <trkpt lat="45.64542" lon="6.6538">
        <ele>2369</ele>
        <time>2022-07-26T12:23:46Z</time>
      </trkpt>
      <trkpt lat="45.64543" lon="6.65379">
        <ele>2369</ele>
        <time>2022-07-26T12:23:47Z</time>
      </trkpt>
      <trkpt lat="45.64544" lon="6.65379">
        <ele>2369</ele>
        <time>2022-07-26T12:23:48Z</time>
      </trkpt>
      <trkpt lat="45.64545" lon="6.65379">
        <ele>2368</ele>
        <time>2022-07-26T12:23:49Z</time>
      </trkpt>
      <trkpt lat="45.64546" lon="6.65379">
        <ele>2368</ele>
        <time>2022-07-26T12:23:50Z</time>
      </trkpt>
      <trkpt lat="45.64547" lon="6.65379">
        <ele>2368</ele>
        <time>2022-07-26T12:23:51Z</time>
      </trkpt>
      <trkpt lat="45.64548" lon="6.6538">
        <ele>2368</ele>
        <time>2022-07-26T12:23:52Z</time>
      </trkpt>
      <trkpt lat="45.64549" lon="6.6538">
        <ele>2368</ele>
        <time>2022-07-26T12:23:53Z</time>
      </trkpt>
      <trkpt lat="45.6455" lon="6.65381">
        <ele>2368</ele>
        <time>2022-07-26T12:23:54Z</time>
      </trkpt>
      <trkpt lat="45.6455" lon="6.65381">
        <ele>2368</ele>
        <time>2022-07-26T12:23:55Z</time>
      </trkpt>
      <trkpt lat="45.64551" lon="6.65381">
        <ele>2368</ele>
        <time>2022-07-26T12:23:56Z</time>
      </trkpt>
      <trkpt lat="45.64552" lon="6.65381">
        <ele>2368</ele>
        <time>2022-07-26T12:23:57Z</time>
      </trkpt>
      <trkpt lat="45.64552" lon="6.65381">
        <ele>2368</ele>
        <time>2022-07-26T12:23:58Z</time>
      </trkpt>
      <trkpt lat="45.64552" lon="6.65381">
        <ele>2367</ele>
        <time>2022-07-26T12:23:59Z</time>
      </trkpt>
      <trkpt lat="45.64552" lon="6.65381">
        <ele>2367</ele>
        <time>2022-07-26T12:24:00Z</time>
      </trkpt>
      <trkpt lat="45.64553" lon="6.65381">
        <ele>2367</ele>
        <time>2022-07-26T12:24:01Z</time>
      </trkpt>
      <trkpt lat="45.64553" lon="6.65381">
        <ele>2367</ele>
        <time>2022-07-26T12:24:02Z</time>
      </trkpt>
      <trkpt lat="45.64554" lon="6.65381">
        <ele>2367</ele>
        <time>2022-07-26T12:24:03Z</time>
      </trkpt>
      <trkpt lat="45.64555" lon="6.65381">
        <ele>2366</ele>
        <time>2022-07-26T12:24:04Z</time>
      </trkpt>
      <trkpt lat="45.64555" lon="6.6538">
        <ele>2366</ele>
        <time>2022-07-26T12:24:05Z</time>
      </trkpt>
      <trkpt lat="45.64556" lon="6.6538">
        <ele>2365</ele>
        <time>2022-07-26T12:24:06Z</time>
      </trkpt>
      <trkpt lat="45.64557" lon="6.6538">
        <ele>2365</ele>
        <time>2022-07-26T12:24:07Z</time>
      </trkpt>
      <trkpt lat="45.64558" lon="6.6538">
        <ele>2365</ele>
        <time>2022-07-26T12:24:08Z</time>
      </trkpt>
      <trkpt lat="45.64559" lon="6.6538">
        <ele>2364</ele>
        <time>2022-07-26T12:24:09Z</time>
      </trkpt>
      <trkpt lat="45.6456" lon="6.65379">
        <ele>2364</ele>
        <time>2022-07-26T12:24:10Z</time>
      </trkpt>
      <trkpt lat="45.64561" lon="6.65379">
        <ele>2364</ele>
        <time>2022-07-26T12:24:11Z</time>
      </trkpt>
      <trkpt lat="45.64562" lon="6.65378">
        <ele>2364</ele>
        <time>2022-07-26T12:24:12Z</time>
      </trkpt>
      <trkpt lat="45.64563" lon="6.65378">
        <ele>2364</ele>
        <time>2022-07-26T12:24:13Z</time>
      </trkpt>
      <trkpt lat="45.64564" lon="6.65377">
        <ele>2363</ele>
        <time>2022-07-26T12:24:14Z</time>
      </trkpt>
      <trkpt lat="45.64565" lon="6.65377">
        <ele>2363</ele>
        <time>2022-07-26T12:24:15Z</time>
      </trkpt>
      <trkpt lat="45.64566" lon="6.65376">
        <ele>2363</ele>
        <time>2022-07-26T12:24:16Z</time>
      </trkpt>
      <trkpt lat="45.64567" lon="6.65375">
        <ele>2363</ele>
        <time>2022-07-26T12:24:17Z</time>
      </trkpt>
      <trkpt lat="45.64568" lon="6.65375">
        <ele>2363</ele>
        <time>2022-07-26T12:24:18Z</time>
      </trkpt>
      <trkpt lat="45.64569" lon="6.65374">
        <ele>2362</ele>
        <time>2022-07-26T12:24:19Z</time>
      </trkpt>
      <trkpt lat="45.64569" lon="6.65373">
        <ele>2362</ele>
        <time>2022-07-26T12:24:20Z</time>
      </trkpt>
      <trkpt lat="45.6457" lon="6.65373">
        <ele>2362</ele>
        <time>2022-07-26T12:24:21Z</time>
      </trkpt>
      <trkpt lat="45.6457" lon="6.65373">
        <ele>2362</ele>
        <time>2022-07-26T12:24:22Z</time>
      </trkpt>
      <trkpt lat="45.64571" lon="6.65372">
        <ele>2362</ele>
        <time>2022-07-26T12:24:23Z</time>
      </trkpt>
      <trkpt lat="45.64571" lon="6.65372">
        <ele>2361</ele>
        <time>2022-07-26T12:24:24Z</time>
      </trkpt>
      <trkpt lat="45.64572" lon="6.65372">
        <ele>2361</ele>
        <time>2022-07-26T12:24:25Z</time>
      </trkpt>
      <trkpt lat="45.64573" lon="6.65371">
        <ele>2361</ele>
        <time>2022-07-26T12:24:26Z</time>
      </trkpt>
      <trkpt lat="45.64574" lon="6.65371">
        <ele>2361</ele>
        <time>2022-07-26T12:24:27Z</time>
      </trkpt>
      <trkpt lat="45.64575" lon="6.6537">
        <ele>2361</ele>
        <time>2022-07-26T12:24:28Z</time>
      </trkpt>
      <trkpt lat="45.64576" lon="6.6537">
        <ele>2361</ele>
        <time>2022-07-26T12:24:29Z</time>
      </trkpt>
      <trkpt lat="45.64577" lon="6.65369">
        <ele>2361</ele>
        <time>2022-07-26T12:24:30Z</time>
      </trkpt>
      <trkpt lat="45.64578" lon="6.65369">
        <ele>2361</ele>
        <time>2022-07-26T12:24:31Z</time>
      </trkpt>
      <trkpt lat="45.64578" lon="6.65369">
        <ele>2361</ele>
        <time>2022-07-26T12:24:32Z</time>
      </trkpt>
      <trkpt lat="45.64579" lon="6.6537">
        <ele>2360</ele>
        <time>2022-07-26T12:24:42Z</time>
      </trkpt>
      <trkpt lat="45.6458" lon="6.6537">
        <ele>2360</ele>
        <time>2022-07-26T12:24:43Z</time>
      </trkpt>
      <trkpt lat="45.6458" lon="6.6537">
        <ele>2360</ele>
        <time>2022-07-26T12:24:44Z</time>
      </trkpt>
      <trkpt lat="45.6458" lon="6.6537">
        <ele>2360</ele>
        <time>2022-07-26T12:24:45Z</time>
      </trkpt>
      <trkpt lat="45.64581" lon="6.6537">
        <ele>2360</ele>
        <time>2022-07-26T12:24:46Z</time>
      </trkpt>
      <trkpt lat="45.64581" lon="6.65369">
        <ele>2360</ele>
        <time>2022-07-26T12:24:47Z</time>
      </trkpt>
      <trkpt lat="45.64582" lon="6.65369">
        <ele>2360</ele>
        <time>2022-07-26T12:24:48Z</time>
      </trkpt>
      <trkpt lat="45.64583" lon="6.65369">
        <ele>2359</ele>
        <time>2022-07-26T12:25:25Z</time>
      </trkpt>
      <trkpt lat="45.64583" lon="6.65369">
        <ele>2359</ele>
        <time>2022-07-26T12:25:26Z</time>
      </trkpt>
      <trkpt lat="45.64584" lon="6.65369">
        <ele>2359</ele>
        <time>2022-07-26T12:25:27Z</time>
      </trkpt>
      <trkpt lat="45.64584" lon="6.65369">
        <ele>2359</ele>
        <time>2022-07-26T12:25:28Z</time>
      </trkpt>
      <trkpt lat="45.64585" lon="6.65369">
        <ele>2359</ele>
        <time>2022-07-26T12:25:29Z</time>
      </trkpt>
      <trkpt lat="45.64586" lon="6.65368">
        <ele>2359</ele>
        <time>2022-07-26T12:25:30Z</time>
      </trkpt>
      <trkpt lat="45.64587" lon="6.65368">
        <ele>2359</ele>
        <time>2022-07-26T12:25:31Z</time>
      </trkpt>
      <trkpt lat="45.64588" lon="6.65368">
        <ele>2359</ele>
        <time>2022-07-26T12:25:32Z</time>
      </trkpt>
      <trkpt lat="45.64589" lon="6.65368">
        <ele>2359</ele>
        <time>2022-07-26T12:25:33Z</time>
      </trkpt>
      <trkpt lat="45.6459" lon="6.65367">
        <ele>2359</ele>
        <time>2022-07-26T12:25:34Z</time>
      </trkpt>
      <trkpt lat="45.64591" lon="6.65367">
        <ele>2359</ele>
        <time>2022-07-26T12:25:35Z</time>
      </trkpt>
      <trkpt lat="45.64591" lon="6.65367">
        <ele>2359</ele>
        <time>2022-07-26T12:25:36Z</time>
      </trkpt>
      <trkpt lat="45.64592" lon="6.65366">
        <ele>2359</ele>
        <time>2022-07-26T12:25:37Z</time>
      </trkpt>
      <trkpt lat="45.64592" lon="6.65365">
        <ele>2359</ele>
        <time>2022-07-26T12:25:38Z</time>
      </trkpt>
      <trkpt lat="45.64593" lon="6.65365">
        <ele>2358</ele>
        <time>2022-07-26T12:25:39Z</time>
      </trkpt>
      <trkpt lat="45.64593" lon="6.65364">
        <ele>2358</ele>
        <time>2022-07-26T12:25:40Z</time>
      </trkpt>
      <trkpt lat="45.64594" lon="6.65363">
        <ele>2358</ele>
        <time>2022-07-26T12:25:41Z</time>
      </trkpt>
      <trkpt lat="45.64594" lon="6.65363">
        <ele>2358</ele>
        <time>2022-07-26T12:25:42Z</time>
      </trkpt>
      <trkpt lat="45.64595" lon="6.65363">
        <ele>2358</ele>
        <time>2022-07-26T12:25:43Z</time>
      </trkpt>
      <trkpt lat="45.64595" lon="6.65362">
        <ele>2358</ele>
        <time>2022-07-26T12:25:44Z</time>
      </trkpt>
      <trkpt lat="45.64596" lon="6.65362">
        <ele>2358</ele>
        <time>2022-07-26T12:25:45Z</time>
      </trkpt>
      <trkpt lat="45.64597" lon="6.65361">
        <ele>2358</ele>
        <time>2022-07-26T12:25:46Z</time>
      </trkpt>
      <trkpt lat="45.64597" lon="6.6536">
        <ele>2358</ele>
        <time>2022-07-26T12:25:47Z</time>
      </trkpt>
      <trkpt lat="45.64598" lon="6.65359">
        <ele>2358</ele>
        <time>2022-07-26T12:25:48Z</time>
      </trkpt>
      <trkpt lat="45.64599" lon="6.65358">
        <ele>2357</ele>
        <time>2022-07-26T12:25:49Z</time>
      </trkpt>
      <trkpt lat="45.646" lon="6.65357">
        <ele>2357</ele>
        <time>2022-07-26T12:25:50Z</time>
      </trkpt>
      <trkpt lat="45.646" lon="6.65357">
        <ele>2357</ele>
        <time>2022-07-26T12:25:51Z</time>
      </trkpt>
      <trkpt lat="45.64602" lon="6.65354">
        <ele>2356</ele>
        <time>2022-07-26T12:25:59Z</time>
      </trkpt>
      <trkpt lat="45.64602" lon="6.65353">
        <ele>2356</ele>
        <time>2022-07-26T12:26:00Z</time>
      </trkpt>
      <trkpt lat="45.64602" lon="6.65352">
        <ele>2356</ele>
        <time>2022-07-26T12:26:01Z</time>
      </trkpt>
      <trkpt lat="45.64603" lon="6.65351">
        <ele>2356</ele>
        <time>2022-07-26T12:26:02Z</time>
      </trkpt>
      <trkpt lat="45.64603" lon="6.6535">
        <ele>2356</ele>
        <time>2022-07-26T12:26:03Z</time>
      </trkpt>
      <trkpt lat="45.64604" lon="6.65348">
        <ele>2353</ele>
        <time>2022-07-26T12:26:14Z</time>
      </trkpt>
      <trkpt lat="45.64604" lon="6.65347">
        <ele>2353</ele>
        <time>2022-07-26T12:26:15Z</time>
      </trkpt>
      <trkpt lat="45.64605" lon="6.65347">
        <ele>2353</ele>
        <time>2022-07-26T12:26:16Z</time>
      </trkpt>
      <trkpt lat="45.64605" lon="6.65346">
        <ele>2353</ele>
        <time>2022-07-26T12:26:17Z</time>
      </trkpt>
      <trkpt lat="45.64606" lon="6.65345">
        <ele>2353</ele>
        <time>2022-07-26T12:26:18Z</time>
      </trkpt>
      <trkpt lat="45.64606" lon="6.65345">
        <ele>2353</ele>
        <time>2022-07-26T12:26:19Z</time>
      </trkpt>
      <trkpt lat="45.64607" lon="6.65345">
        <ele>2353</ele>
        <time>2022-07-26T12:26:20Z</time>
      </trkpt>
      <trkpt lat="45.64608" lon="6.65344">
        <ele>2353</ele>
        <time>2022-07-26T12:26:21Z</time>
      </trkpt>
      <trkpt lat="45.64608" lon="6.65344">
        <ele>2353</ele>
        <time>2022-07-26T12:26:22Z</time>
      </trkpt>
      <trkpt lat="45.64609" lon="6.65342">
        <ele>2352</ele>
        <time>2022-07-26T12:26:33Z</time>
      </trkpt>
      <trkpt lat="45.64609" lon="6.65341">
        <ele>2351</ele>
        <time>2022-07-26T12:26:34Z</time>
      </trkpt>
      <trkpt lat="45.64609" lon="6.65341">
        <ele>2351</ele>
        <time>2022-07-26T12:26:35Z</time>
      </trkpt>
      <trkpt lat="45.64609" lon="6.6534">
        <ele>2351</ele>
        <time>2022-07-26T12:26:36Z</time>
      </trkpt>
      <trkpt lat="45.64609" lon="6.65339">
        <ele>2351</ele>
        <time>2022-07-26T12:26:37Z</time>
      </trkpt>
      <trkpt lat="45.64609" lon="6.65339">
        <ele>2351</ele>
        <time>2022-07-26T12:26:38Z</time>
      </trkpt>
      <trkpt lat="45.64608" lon="6.65338">
        <ele>2351</ele>
        <time>2022-07-26T12:26:39Z</time>
      </trkpt>
      <trkpt lat="45.64608" lon="6.65337">
        <ele>2351</ele>
        <time>2022-07-26T12:26:40Z</time>
      </trkpt>
      <trkpt lat="45.64608" lon="6.65337">
        <ele>2351</ele>
        <time>2022-07-26T12:26:41Z</time>
      </trkpt>
      <trkpt lat="45.64608" lon="6.65336">
        <ele>2351</ele>
        <time>2022-07-26T12:26:42Z</time>
      </trkpt>
      <trkpt lat="45.64608" lon="6.65335">
        <ele>2351</ele>
        <time>2022-07-26T12:26:43Z</time>
      </trkpt>
      <trkpt lat="45.64608" lon="6.65334">
        <ele>2350</ele>
        <time>2022-07-26T12:26:44Z</time>
      </trkpt>
      <trkpt lat="45.64609" lon="6.65333">
        <ele>2350</ele>
        <time>2022-07-26T12:26:45Z</time>
      </trkpt>
      <trkpt lat="45.64609" lon="6.65332">
        <ele>2350</ele>
        <time>2022-07-26T12:26:46Z</time>
      </trkpt>
      <trkpt lat="45.6461" lon="6.65331">
        <ele>2350</ele>
        <time>2022-07-26T12:26:47Z</time>
      </trkpt>
      <trkpt lat="45.64611" lon="6.65331">
        <ele>2350</ele>
        <time>2022-07-26T12:26:48Z</time>
      </trkpt>
      <trkpt lat="45.64611" lon="6.6533">
        <ele>2349</ele>
        <time>2022-07-26T12:26:49Z</time>
      </trkpt>
      <trkpt lat="45.64612" lon="6.65329">
        <ele>2349</ele>
        <time>2022-07-26T12:26:50Z</time>
      </trkpt>
      <trkpt lat="45.64612" lon="6.65329">
        <ele>2349</ele>
        <time>2022-07-26T12:26:51Z</time>
      </trkpt>
      <trkpt lat="45.64613" lon="6.65328">
        <ele>2349</ele>
        <time>2022-07-26T12:26:52Z</time>
      </trkpt>
      <trkpt lat="45.64613" lon="6.65327">
        <ele>2349</ele>
        <time>2022-07-26T12:26:53Z</time>
      </trkpt>
      <trkpt lat="45.64613" lon="6.65326">
        <ele>2348</ele>
        <time>2022-07-26T12:26:54Z</time>
      </trkpt>
      <trkpt lat="45.64614" lon="6.65325">
        <ele>2348</ele>
        <time>2022-07-26T12:26:55Z</time>
      </trkpt>
      <trkpt lat="45.64614" lon="6.65324">
        <ele>2348</ele>
        <time>2022-07-26T12:26:56Z</time>
      </trkpt>
      <trkpt lat="45.64614" lon="6.65323">
        <ele>2348</ele>
        <time>2022-07-26T12:26:57Z</time>
      </trkpt>
      <trkpt lat="45.64615" lon="6.65322">
        <ele>2348</ele>
        <time>2022-07-26T12:26:58Z</time>
      </trkpt>
      <trkpt lat="45.64616" lon="6.6532">
        <ele>2346</ele>
        <time>2022-07-26T12:27:06Z</time>
      </trkpt>
      <trkpt lat="45.64616" lon="6.65319">
        <ele>2346</ele>
        <time>2022-07-26T12:27:07Z</time>
      </trkpt>
      <trkpt lat="45.64616" lon="6.65318">
        <ele>2346</ele>
        <time>2022-07-26T12:27:08Z</time>
      </trkpt>
      <trkpt lat="45.64616" lon="6.65318">
        <ele>2345</ele>
        <time>2022-07-26T12:27:09Z</time>
      </trkpt>
      <trkpt lat="45.64615" lon="6.65317">
        <ele>2345</ele>
        <time>2022-07-26T12:27:10Z</time>
      </trkpt>
      <trkpt lat="45.64615" lon="6.65317">
        <ele>2345</ele>
        <time>2022-07-26T12:27:11Z</time>
      </trkpt>
      <trkpt lat="45.64615" lon="6.65317">
        <ele>2345</ele>
        <time>2022-07-26T12:27:12Z</time>
      </trkpt>
      <trkpt lat="45.64615" lon="6.65317">
        <ele>2345</ele>
        <time>2022-07-26T12:27:13Z</time>
      </trkpt>
      <trkpt lat="45.64615" lon="6.65317">
        <ele>2344</ele>
        <time>2022-07-26T12:27:14Z</time>
      </trkpt>
      <trkpt lat="45.64614" lon="6.65317">
        <ele>2344</ele>
        <time>2022-07-26T12:27:15Z</time>
      </trkpt>
      <trkpt lat="45.64614" lon="6.65317">
        <ele>2344</ele>
        <time>2022-07-26T12:27:16Z</time>
      </trkpt>
      <trkpt lat="45.64614" lon="6.65316">
        <ele>2344</ele>
        <time>2022-07-26T12:27:17Z</time>
      </trkpt>
      <trkpt lat="45.64614" lon="6.65316">
        <ele>2344</ele>
        <time>2022-07-26T12:27:18Z</time>
      </trkpt>
      <trkpt lat="45.64615" lon="6.65313">
        <ele>2343</ele>
        <time>2022-07-26T12:27:25Z</time>
      </trkpt>
      <trkpt lat="45.64616" lon="6.65312">
        <ele>2343</ele>
        <time>2022-07-26T12:27:26Z</time>
      </trkpt>
      <trkpt lat="45.64617" lon="6.65311">
        <ele>2343</ele>
        <time>2022-07-26T12:27:27Z</time>
      </trkpt>
      <trkpt lat="45.64617" lon="6.65311">
        <ele>2343</ele>
        <time>2022-07-26T12:27:28Z</time>
      </trkpt>
      <trkpt lat="45.64618" lon="6.6531">
        <ele>2342</ele>
        <time>2022-07-26T12:27:29Z</time>
      </trkpt>
      <trkpt lat="45.64618" lon="6.65309">
        <ele>2342</ele>
        <time>2022-07-26T12:27:30Z</time>
      </trkpt>
      <trkpt lat="45.64619" lon="6.65309">
        <ele>2342</ele>
        <time>2022-07-26T12:27:31Z</time>
      </trkpt>
      <trkpt lat="45.64619" lon="6.65308">
        <ele>2342</ele>
        <time>2022-07-26T12:27:32Z</time>
      </trkpt>
      <trkpt lat="45.64619" lon="6.65307">
        <ele>2342</ele>
        <time>2022-07-26T12:27:33Z</time>
      </trkpt>
      <trkpt lat="45.64619" lon="6.65306">
        <ele>2341</ele>
        <time>2022-07-26T12:27:34Z</time>
      </trkpt>
      <trkpt lat="45.64619" lon="6.65305">
        <ele>2341</ele>
        <time>2022-07-26T12:27:35Z</time>
      </trkpt>
      <trkpt lat="45.64619" lon="6.65304">
        <ele>2341</ele>
        <time>2022-07-26T12:27:36Z</time>
      </trkpt>
      <trkpt lat="45.64618" lon="6.65303">
        <ele>2341</ele>
        <time>2022-07-26T12:27:37Z</time>
      </trkpt>
      <trkpt lat="45.64618" lon="6.65302">
        <ele>2341</ele>
        <time>2022-07-26T12:27:38Z</time>
      </trkpt>
      <trkpt lat="45.64618" lon="6.65301">
        <ele>2340</ele>
        <time>2022-07-26T12:27:39Z</time>
      </trkpt>
      <trkpt lat="45.64618" lon="6.653">
        <ele>2340</ele>
        <time>2022-07-26T12:27:40Z</time>
      </trkpt>
      <trkpt lat="45.64618" lon="6.65299">
        <ele>2340</ele>
        <time>2022-07-26T12:27:41Z</time>
      </trkpt>
      <trkpt lat="45.64619" lon="6.65298">
        <ele>2338</ele>
        <time>2022-07-26T12:27:48Z</time>
      </trkpt>
      <trkpt lat="45.64619" lon="6.65297">
        <ele>2337</ele>
        <time>2022-07-26T12:27:49Z</time>
      </trkpt>
      <trkpt lat="45.6462" lon="6.65296">
        <ele>2337</ele>
        <time>2022-07-26T12:27:50Z</time>
      </trkpt>
      <trkpt lat="45.6462" lon="6.65296">
        <ele>2337</ele>
        <time>2022-07-26T12:27:51Z</time>
      </trkpt>
      <trkpt lat="45.6462" lon="6.65295">
        <ele>2337</ele>
        <time>2022-07-26T12:27:52Z</time>
      </trkpt>
      <trkpt lat="45.64621" lon="6.65294">
        <ele>2337</ele>
        <time>2022-07-26T12:27:53Z</time>
      </trkpt>
      <trkpt lat="45.64621" lon="6.65293">
        <ele>2336</ele>
        <time>2022-07-26T12:27:54Z</time>
      </trkpt>
      <trkpt lat="45.64621" lon="6.65292">
        <ele>2336</ele>
        <time>2022-07-26T12:27:55Z</time>
      </trkpt>
      <trkpt lat="45.64621" lon="6.65291">
        <ele>2336</ele>
        <time>2022-07-26T12:27:56Z</time>
      </trkpt>
      <trkpt lat="45.64622" lon="6.6529">
        <ele>2336</ele>
        <time>2022-07-26T12:27:57Z</time>
      </trkpt>
      <trkpt lat="45.64622" lon="6.65289">
        <ele>2336</ele>
        <time>2022-07-26T12:27:58Z</time>
      </trkpt>
      <trkpt lat="45.64622" lon="6.65287">
        <ele>2335</ele>
        <time>2022-07-26T12:27:59Z</time>
      </trkpt>
      <trkpt lat="45.64623" lon="6.65286">
        <ele>2335</ele>
        <time>2022-07-26T12:28:00Z</time>
      </trkpt>
      <trkpt lat="45.64623" lon="6.65285">
        <ele>2335</ele>
        <time>2022-07-26T12:28:01Z</time>
      </trkpt>
      <trkpt lat="45.64624" lon="6.65284">
        <ele>2335</ele>
        <time>2022-07-26T12:28:02Z</time>
      </trkpt>
      <trkpt lat="45.64625" lon="6.65283">
        <ele>2335</ele>
        <time>2022-07-26T12:28:03Z</time>
      </trkpt>
      <trkpt lat="45.64625" lon="6.65282">
        <ele>2334</ele>
        <time>2022-07-26T12:28:04Z</time>
      </trkpt>
      <trkpt lat="45.64626" lon="6.65282">
        <ele>2334</ele>
        <time>2022-07-26T12:28:05Z</time>
      </trkpt>
      <trkpt lat="45.64627" lon="6.65281">
        <ele>2334</ele>
        <time>2022-07-26T12:28:06Z</time>
      </trkpt>
      <trkpt lat="45.64628" lon="6.6528">
        <ele>2334</ele>
        <time>2022-07-26T12:28:07Z</time>
      </trkpt>
      <trkpt lat="45.64628" lon="6.6528">
        <ele>2334</ele>
        <time>2022-07-26T12:28:08Z</time>
      </trkpt>
      <trkpt lat="45.64629" lon="6.65279">
        <ele>2333</ele>
        <time>2022-07-26T12:28:09Z</time>
      </trkpt>
      <trkpt lat="45.6463" lon="6.65279">
        <ele>2333</ele>
        <time>2022-07-26T12:28:10Z</time>
      </trkpt>
      <trkpt lat="45.64631" lon="6.65279">
        <ele>2332</ele>
        <time>2022-07-26T12:28:11Z</time>
      </trkpt>
      <trkpt lat="45.64631" lon="6.65278">
        <ele>2332</ele>
        <time>2022-07-26T12:28:12Z</time>
      </trkpt>
      <trkpt lat="45.64632" lon="6.65278">
        <ele>2332</ele>
        <time>2022-07-26T12:28:13Z</time>
      </trkpt>
      <trkpt lat="45.64633" lon="6.65277">
        <ele>2331</ele>
        <time>2022-07-26T12:28:14Z</time>
      </trkpt>
      <trkpt lat="45.64633" lon="6.65276">
        <ele>2331</ele>
        <time>2022-07-26T12:28:15Z</time>
      </trkpt>
      <trkpt lat="45.64633" lon="6.65275">
        <ele>2331</ele>
        <time>2022-07-26T12:28:16Z</time>
      </trkpt>
      <trkpt lat="45.64633" lon="6.65274">
        <ele>2331</ele>
        <time>2022-07-26T12:28:17Z</time>
      </trkpt>
      <trkpt lat="45.64634" lon="6.65273">
        <ele>2331</ele>
        <time>2022-07-26T12:28:18Z</time>
      </trkpt>
      <trkpt lat="45.64634" lon="6.65272">
        <ele>2330</ele>
        <time>2022-07-26T12:28:19Z</time>
      </trkpt>
      <trkpt lat="45.64634" lon="6.65271">
        <ele>2330</ele>
        <time>2022-07-26T12:28:20Z</time>
      </trkpt>
      <trkpt lat="45.64634" lon="6.65269">
        <ele>2329</ele>
        <time>2022-07-26T12:28:21Z</time>
      </trkpt>
      <trkpt lat="45.64634" lon="6.65267">
        <ele>2329</ele>
        <time>2022-07-26T12:28:22Z</time>
      </trkpt>
      <trkpt lat="45.64634" lon="6.65265">
        <ele>2329</ele>
        <time>2022-07-26T12:28:23Z</time>
      </trkpt>
      <trkpt lat="45.64634" lon="6.65263">
        <ele>2328</ele>
        <time>2022-07-26T12:28:24Z</time>
      </trkpt>
      <trkpt lat="45.64634" lon="6.65261">
        <ele>2328</ele>
        <time>2022-07-26T12:28:25Z</time>
      </trkpt>
      <trkpt lat="45.64634" lon="6.65259">
        <ele>2328</ele>
        <time>2022-07-26T12:28:26Z</time>
      </trkpt>
      <trkpt lat="45.64634" lon="6.65257">
        <ele>2328</ele>
        <time>2022-07-26T12:28:27Z</time>
      </trkpt>
      <trkpt lat="45.64634" lon="6.65254">
        <ele>2328</ele>
        <time>2022-07-26T12:28:28Z</time>
      </trkpt>
      <trkpt lat="45.64634" lon="6.65252">
        <ele>2327</ele>
        <time>2022-07-26T12:28:29Z</time>
      </trkpt>
      <trkpt lat="45.64635" lon="6.6525">
        <ele>2327</ele>
        <time>2022-07-26T12:28:30Z</time>
      </trkpt>
      <trkpt lat="45.64635" lon="6.65248">
        <ele>2327</ele>
        <time>2022-07-26T12:28:31Z</time>
      </trkpt>
      <trkpt lat="45.64635" lon="6.65246">
        <ele>2327</ele>
        <time>2022-07-26T12:28:32Z</time>
      </trkpt>
      <trkpt lat="45.64636" lon="6.65244">
        <ele>2327</ele>
        <time>2022-07-26T12:28:33Z</time>
      </trkpt>
      <trkpt lat="45.64636" lon="6.65241">
        <ele>2326</ele>
        <time>2022-07-26T12:28:34Z</time>
      </trkpt>
      <trkpt lat="45.64637" lon="6.65239">
        <ele>2326</ele>
        <time>2022-07-26T12:28:35Z</time>
      </trkpt>
      <trkpt lat="45.64637" lon="6.65237">
        <ele>2326</ele>
        <time>2022-07-26T12:28:36Z</time>
      </trkpt>
      <trkpt lat="45.64638" lon="6.65236">
        <ele>2326</ele>
        <time>2022-07-26T12:28:37Z</time>
      </trkpt>
      <trkpt lat="45.64639" lon="6.65234">
        <ele>2326</ele>
        <time>2022-07-26T12:28:38Z</time>
      </trkpt>
      <trkpt lat="45.6464" lon="6.65233">
        <ele>2325</ele>
        <time>2022-07-26T12:28:39Z</time>
      </trkpt>
      <trkpt lat="45.6464" lon="6.65232">
        <ele>2325</ele>
        <time>2022-07-26T12:28:40Z</time>
      </trkpt>
      <trkpt lat="45.64641" lon="6.65231">
        <ele>2325</ele>
        <time>2022-07-26T12:28:41Z</time>
      </trkpt>
      <trkpt lat="45.64642" lon="6.6523">
        <ele>2325</ele>
        <time>2022-07-26T12:28:42Z</time>
      </trkpt>
      <trkpt lat="45.64643" lon="6.6523">
        <ele>2326</ele>
        <time>2022-07-26T12:29:17Z</time>
      </trkpt>
      <trkpt lat="45.64643" lon="6.65231">
        <ele>2326</ele>
        <time>2022-07-26T12:29:18Z</time>
      </trkpt>
      <trkpt lat="45.64642" lon="6.65232">
        <ele>2326</ele>
        <time>2022-07-26T12:29:19Z</time>
      </trkpt>
      <trkpt lat="45.64642" lon="6.65233">
        <ele>2326</ele>
        <time>2022-07-26T12:29:20Z</time>
      </trkpt>
      <trkpt lat="45.64641" lon="6.65234">
        <ele>2326</ele>
        <time>2022-07-26T12:29:21Z</time>
      </trkpt>
      <trkpt lat="45.6464" lon="6.65236">
        <ele>2326</ele>
        <time>2022-07-26T12:29:22Z</time>
      </trkpt>
      <trkpt lat="45.6464" lon="6.65237">
        <ele>2326</ele>
        <time>2022-07-26T12:29:23Z</time>
      </trkpt>
      <trkpt lat="45.64639" lon="6.65238">
        <ele>2325</ele>
        <time>2022-07-26T12:29:24Z</time>
      </trkpt>
      <trkpt lat="45.64638" lon="6.65239">
        <ele>2325</ele>
        <time>2022-07-26T12:29:25Z</time>
      </trkpt>
      <trkpt lat="45.64638" lon="6.65241">
        <ele>2325</ele>
        <time>2022-07-26T12:29:26Z</time>
      </trkpt>
      <trkpt lat="45.64637" lon="6.65242">
        <ele>2325</ele>
        <time>2022-07-26T12:29:27Z</time>
      </trkpt>
      <trkpt lat="45.64637" lon="6.65244">
        <ele>2325</ele>
        <time>2022-07-26T12:29:28Z</time>
      </trkpt>
      <trkpt lat="45.64637" lon="6.65245">
        <ele>2325</ele>
        <time>2022-07-26T12:29:29Z</time>
      </trkpt>
      <trkpt lat="45.64637" lon="6.65246">
        <ele>2325</ele>
        <time>2022-07-26T12:29:47Z</time>
      </trkpt>
      <trkpt lat="45.64637" lon="6.65245">
        <ele>2325</ele>
        <time>2022-07-26T12:29:48Z</time>
      </trkpt>
      <trkpt lat="45.64638" lon="6.65245">
        <ele>2325</ele>
        <time>2022-07-26T12:29:49Z</time>
      </trkpt>
      <trkpt lat="45.64638" lon="6.65244">
        <ele>2325</ele>
        <time>2022-07-26T12:29:50Z</time>
      </trkpt>
      <trkpt lat="45.64638" lon="6.65243">
        <ele>2325</ele>
        <time>2022-07-26T12:29:51Z</time>
      </trkpt>
      <trkpt lat="45.64639" lon="6.65241">
        <ele>2325</ele>
        <time>2022-07-26T12:29:52Z</time>
      </trkpt>
      <trkpt lat="45.64639" lon="6.65239">
        <ele>2325</ele>
        <time>2022-07-26T12:29:53Z</time>
      </trkpt>
      <trkpt lat="45.6464" lon="6.65238">
        <ele>2325</ele>
        <time>2022-07-26T12:29:54Z</time>
      </trkpt>
      <trkpt lat="45.6464" lon="6.65236">
        <ele>2325</ele>
        <time>2022-07-26T12:29:55Z</time>
      </trkpt>
      <trkpt lat="45.64641" lon="6.65235">
        <ele>2325</ele>
        <time>2022-07-26T12:29:56Z</time>
      </trkpt>
      <trkpt lat="45.64641" lon="6.65234">
        <ele>2325</ele>
        <time>2022-07-26T12:29:57Z</time>
      </trkpt>
      <trkpt lat="45.64641" lon="6.65233">
        <ele>2325</ele>
        <time>2022-07-26T12:29:58Z</time>
      </trkpt>
      <trkpt lat="45.64641" lon="6.65233">
        <ele>2325</ele>
        <time>2022-07-26T12:29:59Z</time>
      </trkpt>
      <trkpt lat="45.64641" lon="6.65232">
        <ele>2325</ele>
        <time>2022-07-26T12:30:00Z</time>
      </trkpt>
      <trkpt lat="45.64641" lon="6.65233">
        <ele>2325</ele>
        <time>2022-07-26T12:30:15Z</time>
      </trkpt>
      <trkpt lat="45.64641" lon="6.65233">
        <ele>2325</ele>
        <time>2022-07-26T12:30:16Z</time>
      </trkpt>
      <trkpt lat="45.64641" lon="6.65233">
        <ele>2325</ele>
        <time>2022-07-26T12:30:17Z</time>
      </trkpt>
      <trkpt lat="45.64641" lon="6.65232">
        <ele>2325</ele>
        <time>2022-07-26T12:30:18Z</time>
      </trkpt>
      <trkpt lat="45.64641" lon="6.65232">
        <ele>2325</ele>
        <time>2022-07-26T12:30:19Z</time>
      </trkpt>
      <trkpt lat="45.64641" lon="6.65231">
        <ele>2325</ele>
        <time>2022-07-26T12:30:20Z</time>
      </trkpt>
      <trkpt lat="45.64641" lon="6.6523">
        <ele>2325</ele>
        <time>2022-07-26T12:30:21Z</time>
      </trkpt>
      <trkpt lat="45.64641" lon="6.65228">
        <ele>2325</ele>
        <time>2022-07-26T12:30:22Z</time>
      </trkpt>
      <trkpt lat="45.64641" lon="6.65227">
        <ele>2325</ele>
        <time>2022-07-26T12:30:23Z</time>
      </trkpt>
      <trkpt lat="45.64641" lon="6.65226">
        <ele>2325</ele>
        <time>2022-07-26T12:30:24Z</time>
      </trkpt>
      <trkpt lat="45.64641" lon="6.65224">
        <ele>2325</ele>
        <time>2022-07-26T12:30:25Z</time>
      </trkpt>
      <trkpt lat="45.64641" lon="6.65223">
        <ele>2325</ele>
        <time>2022-07-26T12:30:26Z</time>
      </trkpt>
      <trkpt lat="45.64641" lon="6.65222">
        <ele>2325</ele>
        <time>2022-07-26T12:30:27Z</time>
      </trkpt>
      <trkpt lat="45.64641" lon="6.6522">
        <ele>2325</ele>
        <time>2022-07-26T12:30:28Z</time>
      </trkpt>
      <trkpt lat="45.64641" lon="6.65219">
        <ele>2325</ele>
        <time>2022-07-26T12:30:29Z</time>
      </trkpt>
      <trkpt lat="45.64641" lon="6.65217">
        <ele>2325</ele>
        <time>2022-07-26T12:30:30Z</time>
      </trkpt>
      <trkpt lat="45.64641" lon="6.65216">
        <ele>2325</ele>
        <time>2022-07-26T12:30:31Z</time>
      </trkpt>
      <trkpt lat="45.64642" lon="6.65215">
        <ele>2325</ele>
        <time>2022-07-26T12:30:32Z</time>
      </trkpt>
      <trkpt lat="45.64642" lon="6.65213">
        <ele>2325</ele>
        <time>2022-07-26T12:30:33Z</time>
      </trkpt>
      <trkpt lat="45.64643" lon="6.65212">
        <ele>2324</ele>
        <time>2022-07-26T12:30:34Z</time>
      </trkpt>
      <trkpt lat="45.64644" lon="6.65211">
        <ele>2324</ele>
        <time>2022-07-26T12:30:35Z</time>
      </trkpt>
      <trkpt lat="45.64645" lon="6.6521">
        <ele>2324</ele>
        <time>2022-07-26T12:30:36Z</time>
      </trkpt>
      <trkpt lat="45.64645" lon="6.65208">
        <ele>2324</ele>
        <time>2022-07-26T12:30:37Z</time>
      </trkpt>
      <trkpt lat="45.64646" lon="6.65207">
        <ele>2324</ele>
        <time>2022-07-26T12:30:38Z</time>
      </trkpt>
      <trkpt lat="45.64646" lon="6.65206">
        <ele>2323</ele>
        <time>2022-07-26T12:30:39Z</time>
      </trkpt>
      <trkpt lat="45.64646" lon="6.65205">
        <ele>2323</ele>
        <time>2022-07-26T12:30:40Z</time>
      </trkpt>
      <trkpt lat="45.64646" lon="6.65204">
        <ele>2323</ele>
        <time>2022-07-26T12:30:41Z</time>
      </trkpt>
      <trkpt lat="45.64646" lon="6.65203">
        <ele>2323</ele>
        <time>2022-07-26T12:30:42Z</time>
      </trkpt>
      <trkpt lat="45.64646" lon="6.65202">
        <ele>2323</ele>
        <time>2022-07-26T12:30:43Z</time>
      </trkpt>
      <trkpt lat="45.64644" lon="6.65199">
        <ele>2321</ele>
        <time>2022-07-26T12:30:53Z</time>
      </trkpt>
      <trkpt lat="45.64644" lon="6.65198">
        <ele>2320</ele>
        <time>2022-07-26T12:30:54Z</time>
      </trkpt>
      <trkpt lat="45.64643" lon="6.65197">
        <ele>2320</ele>
        <time>2022-07-26T12:30:55Z</time>
      </trkpt>
      <trkpt lat="45.64644" lon="6.65196">
        <ele>2320</ele>
        <time>2022-07-26T12:30:56Z</time>
      </trkpt>
      <trkpt lat="45.64644" lon="6.65195">
        <ele>2320</ele>
        <time>2022-07-26T12:30:57Z</time>
      </trkpt>
      <trkpt lat="45.64644" lon="6.65194">
        <ele>2320</ele>
        <time>2022-07-26T12:30:58Z</time>
      </trkpt>
      <trkpt lat="45.64645" lon="6.65194">
        <ele>2319</ele>
        <time>2022-07-26T12:30:59Z</time>
      </trkpt>
      <trkpt lat="45.64646" lon="6.65194">
        <ele>2319</ele>
        <time>2022-07-26T12:31:00Z</time>
      </trkpt>
      <trkpt lat="45.64647" lon="6.65194">
        <ele>2319</ele>
        <time>2022-07-26T12:31:01Z</time>
      </trkpt>
      <trkpt lat="45.64647" lon="6.65194">
        <ele>2319</ele>
        <time>2022-07-26T12:31:02Z</time>
      </trkpt>
      <trkpt lat="45.64648" lon="6.65194">
        <ele>2319</ele>
        <time>2022-07-26T12:31:03Z</time>
      </trkpt>
      <trkpt lat="45.64648" lon="6.65194">
        <ele>2318</ele>
        <time>2022-07-26T12:31:04Z</time>
      </trkpt>
      <trkpt lat="45.64648" lon="6.65193">
        <ele>2318</ele>
        <time>2022-07-26T12:31:05Z</time>
      </trkpt>
      <trkpt lat="45.64648" lon="6.65193">
        <ele>2318</ele>
        <time>2022-07-26T12:31:06Z</time>
      </trkpt>
      <trkpt lat="45.64648" lon="6.65192">
        <ele>2318</ele>
        <time>2022-07-26T12:31:07Z</time>
      </trkpt>
      <trkpt lat="45.64647" lon="6.65192">
        <ele>2318</ele>
        <time>2022-07-26T12:31:08Z</time>
      </trkpt>
      <trkpt lat="45.64647" lon="6.65191">
        <ele>2317</ele>
        <time>2022-07-26T12:31:09Z</time>
      </trkpt>
      <trkpt lat="45.64646" lon="6.6519">
        <ele>2317</ele>
        <time>2022-07-26T12:31:10Z</time>
      </trkpt>
      <trkpt lat="45.64646" lon="6.6519">
        <ele>2316</ele>
        <time>2022-07-26T12:31:11Z</time>
      </trkpt>
      <trkpt lat="45.64645" lon="6.65187">
        <ele>2311</ele>
        <time>2022-07-26T12:32:08Z</time>
      </trkpt>
      <trkpt lat="45.64644" lon="6.65186">
        <ele>2311</ele>
        <time>2022-07-26T12:32:09Z</time>
      </trkpt>
      <trkpt lat="45.64644" lon="6.65184">
        <ele>2311</ele>
        <time>2022-07-26T12:32:10Z</time>
      </trkpt>
      <trkpt lat="45.64644" lon="6.65181">
        <ele>2310</ele>
        <time>2022-07-26T12:32:26Z</time>
      </trkpt>
      <trkpt lat="45.64645" lon="6.65179">
        <ele>2310</ele>
        <time>2022-07-26T12:32:27Z</time>
      </trkpt>
      <trkpt lat="45.64645" lon="6.65178">
        <ele>2310</ele>
        <time>2022-07-26T12:32:28Z</time>
      </trkpt>
      <trkpt lat="45.64646" lon="6.65177">
        <ele>2310</ele>
        <time>2022-07-26T12:32:29Z</time>
      </trkpt>
      <trkpt lat="45.64646" lon="6.65176">
        <ele>2310</ele>
        <time>2022-07-26T12:32:30Z</time>
      </trkpt>
      <trkpt lat="45.64647" lon="6.65174">
        <ele>2309</ele>
        <time>2022-07-26T12:32:37Z</time>
      </trkpt>
      <trkpt lat="45.64648" lon="6.65173">
        <ele>2309</ele>
        <time>2022-07-26T12:32:38Z</time>
      </trkpt>
      <trkpt lat="45.64649" lon="6.65172">
        <ele>2308</ele>
        <time>2022-07-26T12:32:39Z</time>
      </trkpt>
      <trkpt lat="45.6465" lon="6.65171">
        <ele>2305</ele>
        <time>2022-07-26T12:33:00Z</time>
      </trkpt>
      <trkpt lat="45.6465" lon="6.6517">
        <ele>2305</ele>
        <time>2022-07-26T12:33:01Z</time>
      </trkpt>
      <trkpt lat="45.6465" lon="6.65169">
        <ele>2305</ele>
        <time>2022-07-26T12:33:02Z</time>
      </trkpt>
      <trkpt lat="45.64651" lon="6.65168">
        <ele>2305</ele>
        <time>2022-07-26T12:33:03Z</time>
      </trkpt>
      <trkpt lat="45.64651" lon="6.65168">
        <ele>2305</ele>
        <time>2022-07-26T12:33:04Z</time>
      </trkpt>
      <trkpt lat="45.64652" lon="6.65168">
        <ele>2304</ele>
        <time>2022-07-26T12:33:12Z</time>
      </trkpt>
      <trkpt lat="45.64653" lon="6.65167">
        <ele>2304</ele>
        <time>2022-07-26T12:33:13Z</time>
      </trkpt>
      <trkpt lat="45.64654" lon="6.65167">
        <ele>2303</ele>
        <time>2022-07-26T12:33:14Z</time>
      </trkpt>
      <trkpt lat="45.64655" lon="6.65167">
        <ele>2303</ele>
        <time>2022-07-26T12:33:15Z</time>
      </trkpt>
      <trkpt lat="45.64655" lon="6.65167">
        <ele>2303</ele>
        <time>2022-07-26T12:33:16Z</time>
      </trkpt>
      <trkpt lat="45.64656" lon="6.65168">
        <ele>2303</ele>
        <time>2022-07-26T12:33:17Z</time>
      </trkpt>
      <trkpt lat="45.64657" lon="6.65168">
        <ele>2303</ele>
        <time>2022-07-26T12:33:18Z</time>
      </trkpt>
      <trkpt lat="45.64657" lon="6.65168">
        <ele>2303</ele>
        <time>2022-07-26T12:33:19Z</time>
      </trkpt>
      <trkpt lat="45.64657" lon="6.65168">
        <ele>2303</ele>
        <time>2022-07-26T12:33:20Z</time>
      </trkpt>
      <trkpt lat="45.64658" lon="6.65168">
        <ele>2303</ele>
        <time>2022-07-26T12:33:21Z</time>
      </trkpt>
      <trkpt lat="45.64658" lon="6.65167">
        <ele>2303</ele>
        <time>2022-07-26T12:33:22Z</time>
      </trkpt>
      <trkpt lat="45.64659" lon="6.65167">
        <ele>2303</ele>
        <time>2022-07-26T12:33:23Z</time>
      </trkpt>
      <trkpt lat="45.64659" lon="6.65166">
        <ele>2302</ele>
        <time>2022-07-26T12:33:24Z</time>
      </trkpt>
      <trkpt lat="45.64659" lon="6.65165">
        <ele>2302</ele>
        <time>2022-07-26T12:33:25Z</time>
      </trkpt>
      <trkpt lat="45.64659" lon="6.65165">
        <ele>2302</ele>
        <time>2022-07-26T12:33:26Z</time>
      </trkpt>
      <trkpt lat="45.64659" lon="6.65164">
        <ele>2302</ele>
        <time>2022-07-26T12:33:27Z</time>
      </trkpt>
      <trkpt lat="45.64659" lon="6.65163">
        <ele>2302</ele>
        <time>2022-07-26T12:33:28Z</time>
      </trkpt>
      <trkpt lat="45.64659" lon="6.65162">
        <ele>2301</ele>
        <time>2022-07-26T12:33:29Z</time>
      </trkpt>
      <trkpt lat="45.64659" lon="6.65161">
        <ele>2301</ele>
        <time>2022-07-26T12:33:30Z</time>
      </trkpt>
      <trkpt lat="45.64659" lon="6.65161">
        <ele>2301</ele>
        <time>2022-07-26T12:33:31Z</time>
      </trkpt>
      <trkpt lat="45.64658" lon="6.6516">
        <ele>2301</ele>
        <time>2022-07-26T12:33:32Z</time>
      </trkpt>
      <trkpt lat="45.64658" lon="6.65159">
        <ele>2301</ele>
        <time>2022-07-26T12:33:33Z</time>
      </trkpt>
      <trkpt lat="45.64658" lon="6.65159">
        <ele>2301</ele>
        <time>2022-07-26T12:33:34Z</time>
      </trkpt>
      <trkpt lat="45.64658" lon="6.65158">
        <ele>2301</ele>
        <time>2022-07-26T12:33:35Z</time>
      </trkpt>
      <trkpt lat="45.64658" lon="6.65158">
        <ele>2301</ele>
        <time>2022-07-26T12:33:36Z</time>
      </trkpt>
      <trkpt lat="45.64659" lon="6.65157">
        <ele>2301</ele>
        <time>2022-07-26T12:33:37Z</time>
      </trkpt>
      <trkpt lat="45.64659" lon="6.65157">
        <ele>2301</ele>
        <time>2022-07-26T12:33:38Z</time>
      </trkpt>
      <trkpt lat="45.64659" lon="6.65157">
        <ele>2300</ele>
        <time>2022-07-26T12:33:39Z</time>
      </trkpt>
      <trkpt lat="45.6466" lon="6.65156">
        <ele>2300</ele>
        <time>2022-07-26T12:33:40Z</time>
      </trkpt>
      <trkpt lat="45.6466" lon="6.65156">
        <ele>2300</ele>
        <time>2022-07-26T12:33:41Z</time>
      </trkpt>
      <trkpt lat="45.64661" lon="6.65156">
        <ele>2300</ele>
        <time>2022-07-26T12:33:42Z</time>
      </trkpt>
      <trkpt lat="45.64662" lon="6.65156">
        <ele>2297</ele>
        <time>2022-07-26T12:34:19Z</time>
      </trkpt>
      <trkpt lat="45.64662" lon="6.65155">
        <ele>2297</ele>
        <time>2022-07-26T12:34:20Z</time>
      </trkpt>
      <trkpt lat="45.64663" lon="6.65155">
        <ele>2297</ele>
        <time>2022-07-26T12:34:21Z</time>
      </trkpt>
      <trkpt lat="45.64663" lon="6.65154">
        <ele>2297</ele>
        <time>2022-07-26T12:34:22Z</time>
      </trkpt>
      <trkpt lat="45.64663" lon="6.65154">
        <ele>2297</ele>
        <time>2022-07-26T12:34:23Z</time>
      </trkpt>
      <trkpt lat="45.64663" lon="6.65153">
        <ele>2297</ele>
        <time>2022-07-26T12:34:24Z</time>
      </trkpt>
      <trkpt lat="45.64663" lon="6.65153">
        <ele>2297</ele>
        <time>2022-07-26T12:34:25Z</time>
      </trkpt>
      <trkpt lat="45.64663" lon="6.65152">
        <ele>2297</ele>
        <time>2022-07-26T12:34:26Z</time>
      </trkpt>
      <trkpt lat="45.64663" lon="6.65151">
        <ele>2297</ele>
        <time>2022-07-26T12:34:27Z</time>
      </trkpt>
      <trkpt lat="45.64663" lon="6.6515">
        <ele>2297</ele>
        <time>2022-07-26T12:34:28Z</time>
      </trkpt>
      <trkpt lat="45.64663" lon="6.65149">
        <ele>2296</ele>
        <time>2022-07-26T12:34:29Z</time>
      </trkpt>
      <trkpt lat="45.64664" lon="6.65148">
        <ele>2296</ele>
        <time>2022-07-26T12:34:30Z</time>
      </trkpt>
      <trkpt lat="45.64664" lon="6.65147">
        <ele>2296</ele>
        <time>2022-07-26T12:34:31Z</time>
      </trkpt>
      <trkpt lat="45.64665" lon="6.65147">
        <ele>2296</ele>
        <time>2022-07-26T12:34:32Z</time>
      </trkpt>
      <trkpt lat="45.64666" lon="6.65147">
        <ele>2296</ele>
        <time>2022-07-26T12:34:33Z</time>
      </trkpt>
      <trkpt lat="45.64667" lon="6.65147">
        <ele>2296</ele>
        <time>2022-07-26T12:34:34Z</time>
      </trkpt>
      <trkpt lat="45.64668" lon="6.65146">
        <ele>2296</ele>
        <time>2022-07-26T12:34:35Z</time>
      </trkpt>
      <trkpt lat="45.64669" lon="6.65146">
        <ele>2296</ele>
        <time>2022-07-26T12:34:36Z</time>
      </trkpt>
      <trkpt lat="45.64669" lon="6.65146">
        <ele>2296</ele>
        <time>2022-07-26T12:34:37Z</time>
      </trkpt>
      <trkpt lat="45.64669" lon="6.65145">
        <ele>2296</ele>
        <time>2022-07-26T12:34:38Z</time>
      </trkpt>
      <trkpt lat="45.6467" lon="6.65145">
        <ele>2295</ele>
        <time>2022-07-26T12:34:39Z</time>
      </trkpt>
      <trkpt lat="45.64669" lon="6.65144">
        <ele>2295</ele>
        <time>2022-07-26T12:34:40Z</time>
      </trkpt>
      <trkpt lat="45.64669" lon="6.65143">
        <ele>2295</ele>
        <time>2022-07-26T12:34:41Z</time>
      </trkpt>
      <trkpt lat="45.6467" lon="6.65142">
        <ele>2295</ele>
        <time>2022-07-26T12:34:42Z</time>
      </trkpt>
      <trkpt lat="45.6467" lon="6.65141">
        <ele>2295</ele>
        <time>2022-07-26T12:34:43Z</time>
      </trkpt>
      <trkpt lat="45.6467" lon="6.6514">
        <ele>2295</ele>
        <time>2022-07-26T12:34:44Z</time>
      </trkpt>
      <trkpt lat="45.64671" lon="6.65139">
        <ele>2295</ele>
        <time>2022-07-26T12:34:45Z</time>
      </trkpt>
      <trkpt lat="45.64671" lon="6.65138">
        <ele>2295</ele>
        <time>2022-07-26T12:34:46Z</time>
      </trkpt>
      <trkpt lat="45.64672" lon="6.65138">
        <ele>2295</ele>
        <time>2022-07-26T12:34:47Z</time>
      </trkpt>
      <trkpt lat="45.64673" lon="6.65137">
        <ele>2295</ele>
        <time>2022-07-26T12:34:48Z</time>
      </trkpt>
      <trkpt lat="45.64674" lon="6.65137">
        <ele>2294</ele>
        <time>2022-07-26T12:34:49Z</time>
      </trkpt>
      <trkpt lat="45.64675" lon="6.65137">
        <ele>2294</ele>
        <time>2022-07-26T12:34:50Z</time>
      </trkpt>
      <trkpt lat="45.64676" lon="6.65137">
        <ele>2294</ele>
        <time>2022-07-26T12:34:51Z</time>
      </trkpt>
      <trkpt lat="45.64677" lon="6.65137">
        <ele>2294</ele>
        <time>2022-07-26T12:34:52Z</time>
      </trkpt>
      <trkpt lat="45.64678" lon="6.65136">
        <ele>2294</ele>
        <time>2022-07-26T12:34:53Z</time>
      </trkpt>
      <trkpt lat="45.64679" lon="6.65136">
        <ele>2293</ele>
        <time>2022-07-26T12:34:54Z</time>
      </trkpt>
      <trkpt lat="45.6468" lon="6.65136">
        <ele>2293</ele>
        <time>2022-07-26T12:34:55Z</time>
      </trkpt>
      <trkpt lat="45.64681" lon="6.65136">
        <ele>2293</ele>
        <time>2022-07-26T12:34:56Z</time>
      </trkpt>
      <trkpt lat="45.64681" lon="6.65136">
        <ele>2293</ele>
        <time>2022-07-26T12:34:57Z</time>
      </trkpt>
      <trkpt lat="45.64682" lon="6.65136">
        <ele>2293</ele>
        <time>2022-07-26T12:34:58Z</time>
      </trkpt>
      <trkpt lat="45.64682" lon="6.65136">
        <ele>2292</ele>
        <time>2022-07-26T12:34:59Z</time>
      </trkpt>
      <trkpt lat="45.64683" lon="6.65136">
        <ele>2292</ele>
        <time>2022-07-26T12:35:00Z</time>
      </trkpt>
      <trkpt lat="45.64683" lon="6.65136">
        <ele>2292</ele>
        <time>2022-07-26T12:35:01Z</time>
      </trkpt>
      <trkpt lat="45.64684" lon="6.65135">
        <ele>2292</ele>
        <time>2022-07-26T12:35:02Z</time>
      </trkpt>
      <trkpt lat="45.64684" lon="6.65135">
        <ele>2292</ele>
        <time>2022-07-26T12:35:03Z</time>
      </trkpt>
      <trkpt lat="45.64684" lon="6.65135">
        <ele>2292</ele>
        <time>2022-07-26T12:35:04Z</time>
      </trkpt>
      <trkpt lat="45.64685" lon="6.65135">
        <ele>2292</ele>
        <time>2022-07-26T12:35:05Z</time>
      </trkpt>
      <trkpt lat="45.64685" lon="6.65134">
        <ele>2292</ele>
        <time>2022-07-26T12:35:06Z</time>
      </trkpt>
      <trkpt lat="45.64685" lon="6.65133">
        <ele>2292</ele>
        <time>2022-07-26T12:35:07Z</time>
      </trkpt>
      <trkpt lat="45.64686" lon="6.65132">
        <ele>2292</ele>
        <time>2022-07-26T12:35:08Z</time>
      </trkpt>
      <trkpt lat="45.64686" lon="6.65132">
        <ele>2291</ele>
        <time>2022-07-26T12:35:09Z</time>
      </trkpt>
      <trkpt lat="45.64686" lon="6.65131">
        <ele>2291</ele>
        <time>2022-07-26T12:35:10Z</time>
      </trkpt>
      <trkpt lat="45.64686" lon="6.65131">
        <ele>2291</ele>
        <time>2022-07-26T12:35:11Z</time>
      </trkpt>
      <trkpt lat="45.64687" lon="6.6513">
        <ele>2291</ele>
        <time>2022-07-26T12:35:12Z</time>
      </trkpt>
      <trkpt lat="45.64688" lon="6.6513">
        <ele>2291</ele>
        <time>2022-07-26T12:35:13Z</time>
      </trkpt>
      <trkpt lat="45.64688" lon="6.6513">
        <ele>2291</ele>
        <time>2022-07-26T12:35:14Z</time>
      </trkpt>
      <trkpt lat="45.64688" lon="6.6513">
        <ele>2291</ele>
        <time>2022-07-26T12:35:15Z</time>
      </trkpt>
      <trkpt lat="45.64689" lon="6.6513">
        <ele>2291</ele>
        <time>2022-07-26T12:35:16Z</time>
      </trkpt>
      <trkpt lat="45.64689" lon="6.6513">
        <ele>2291</ele>
        <time>2022-07-26T12:35:17Z</time>
      </trkpt>
      <trkpt lat="45.6469" lon="6.6513">
        <ele>2291</ele>
        <time>2022-07-26T12:35:18Z</time>
      </trkpt>
      <trkpt lat="45.64691" lon="6.65131">
        <ele>2290</ele>
        <time>2022-07-26T12:35:19Z</time>
      </trkpt>
      <trkpt lat="45.64691" lon="6.65131">
        <ele>2290</ele>
        <time>2022-07-26T12:35:20Z</time>
      </trkpt>
      <trkpt lat="45.64692" lon="6.65131">
        <ele>2290</ele>
        <time>2022-07-26T12:35:21Z</time>
      </trkpt>
      <trkpt lat="45.64693" lon="6.65131">
        <ele>2290</ele>
        <time>2022-07-26T12:35:22Z</time>
      </trkpt>
      <trkpt lat="45.64693" lon="6.65131">
        <ele>2290</ele>
        <time>2022-07-26T12:35:23Z</time>
      </trkpt>
      <trkpt lat="45.64694" lon="6.65131">
        <ele>2289</ele>
        <time>2022-07-26T12:35:24Z</time>
      </trkpt>
      <trkpt lat="45.64695" lon="6.6513">
        <ele>2289</ele>
        <time>2022-07-26T12:35:25Z</time>
      </trkpt>
      <trkpt lat="45.64696" lon="6.6513">
        <ele>2289</ele>
        <time>2022-07-26T12:35:26Z</time>
      </trkpt>
      <trkpt lat="45.64697" lon="6.6513">
        <ele>2289</ele>
        <time>2022-07-26T12:35:27Z</time>
      </trkpt>
      <trkpt lat="45.64697" lon="6.6513">
        <ele>2289</ele>
        <time>2022-07-26T12:35:28Z</time>
      </trkpt>
      <trkpt lat="45.64698" lon="6.6513">
        <ele>2288</ele>
        <time>2022-07-26T12:35:29Z</time>
      </trkpt>
      <trkpt lat="45.64699" lon="6.6513">
        <ele>2288</ele>
        <time>2022-07-26T12:35:30Z</time>
      </trkpt>
      <trkpt lat="45.64699" lon="6.6513">
        <ele>2288</ele>
        <time>2022-07-26T12:35:31Z</time>
      </trkpt>
      <trkpt lat="45.647" lon="6.6513">
        <ele>2288</ele>
        <time>2022-07-26T12:35:32Z</time>
      </trkpt>
      <trkpt lat="45.647" lon="6.6513">
        <ele>2288</ele>
        <time>2022-07-26T12:35:33Z</time>
      </trkpt>
      <trkpt lat="45.647" lon="6.65129">
        <ele>2288</ele>
        <time>2022-07-26T12:35:34Z</time>
      </trkpt>
      <trkpt lat="45.647" lon="6.65129">
        <ele>2288</ele>
        <time>2022-07-26T12:35:35Z</time>
      </trkpt>
      <trkpt lat="45.64701" lon="6.65129">
        <ele>2288</ele>
        <time>2022-07-26T12:35:36Z</time>
      </trkpt>
      <trkpt lat="45.64701" lon="6.65128">
        <ele>2288</ele>
        <time>2022-07-26T12:35:37Z</time>
      </trkpt>
      <trkpt lat="45.64702" lon="6.65128">
        <ele>2288</ele>
        <time>2022-07-26T12:35:38Z</time>
      </trkpt>
      <trkpt lat="45.64702" lon="6.65127">
        <ele>2287</ele>
        <time>2022-07-26T12:35:39Z</time>
      </trkpt>
      <trkpt lat="45.64703" lon="6.65127">
        <ele>2287</ele>
        <time>2022-07-26T12:35:40Z</time>
      </trkpt>
      <trkpt lat="45.64703" lon="6.65127">
        <ele>2287</ele>
        <time>2022-07-26T12:35:41Z</time>
      </trkpt>
      <trkpt lat="45.64703" lon="6.65127">
        <ele>2287</ele>
        <time>2022-07-26T12:35:42Z</time>
      </trkpt>
      <trkpt lat="45.64703" lon="6.65124">
        <ele>2283</ele>
        <time>2022-07-26T12:36:06Z</time>
      </trkpt>
      <trkpt lat="45.64703" lon="6.65122">
        <ele>2283</ele>
        <time>2022-07-26T12:36:07Z</time>
      </trkpt>
      <trkpt lat="45.64703" lon="6.6512">
        <ele>2283</ele>
        <time>2022-07-26T12:36:08Z</time>
      </trkpt>
      <trkpt lat="45.64703" lon="6.65119">
        <ele>2283</ele>
        <time>2022-07-26T12:36:09Z</time>
      </trkpt>
      <trkpt lat="45.64703" lon="6.65117">
        <ele>2283</ele>
        <time>2022-07-26T12:36:10Z</time>
      </trkpt>
      <trkpt lat="45.64703" lon="6.65116">
        <ele>2283</ele>
        <time>2022-07-26T12:36:11Z</time>
      </trkpt>
      <trkpt lat="45.64703" lon="6.65115">
        <ele>2283</ele>
        <time>2022-07-26T12:36:12Z</time>
      </trkpt>
      <trkpt lat="45.64703" lon="6.65115">
        <ele>2283</ele>
        <time>2022-07-26T12:36:13Z</time>
      </trkpt>
      <trkpt lat="45.64703" lon="6.65114">
        <ele>2282</ele>
        <time>2022-07-26T12:36:14Z</time>
      </trkpt>
      <trkpt lat="45.64703" lon="6.65114">
        <ele>2282</ele>
        <time>2022-07-26T12:36:15Z</time>
      </trkpt>
      <trkpt lat="45.64703" lon="6.65113">
        <ele>2282</ele>
        <time>2022-07-26T12:36:16Z</time>
      </trkpt>
      <trkpt lat="45.64703" lon="6.65113">
        <ele>2282</ele>
        <time>2022-07-26T12:36:17Z</time>
      </trkpt>
      <trkpt lat="45.64703" lon="6.65112">
        <ele>2282</ele>
        <time>2022-07-26T12:36:18Z</time>
      </trkpt>
      <trkpt lat="45.64703" lon="6.65111">
        <ele>2281</ele>
        <time>2022-07-26T12:36:19Z</time>
      </trkpt>
      <trkpt lat="45.64702" lon="6.65111">
        <ele>2281</ele>
        <time>2022-07-26T12:36:20Z</time>
      </trkpt>
      <trkpt lat="45.64702" lon="6.6511">
        <ele>2281</ele>
        <time>2022-07-26T12:36:21Z</time>
      </trkpt>
      <trkpt lat="45.64702" lon="6.6511">
        <ele>2281</ele>
        <time>2022-07-26T12:36:22Z</time>
      </trkpt>
      <trkpt lat="45.64702" lon="6.65109">
        <ele>2281</ele>
        <time>2022-07-26T12:36:23Z</time>
      </trkpt>
      <trkpt lat="45.64702" lon="6.65109">
        <ele>2281</ele>
        <time>2022-07-26T12:36:24Z</time>
      </trkpt>
      <trkpt lat="45.64701" lon="6.65108">
        <ele>2281</ele>
        <time>2022-07-26T12:36:25Z</time>
      </trkpt>
      <trkpt lat="45.64701" lon="6.65107">
        <ele>2281</ele>
        <time>2022-07-26T12:36:26Z</time>
      </trkpt>
      <trkpt lat="45.64701" lon="6.65107">
        <ele>2281</ele>
        <time>2022-07-26T12:36:27Z</time>
      </trkpt>
      <trkpt lat="45.64702" lon="6.65107">
        <ele>2281</ele>
        <time>2022-07-26T12:36:28Z</time>
      </trkpt>
      <trkpt lat="45.64702" lon="6.65107">
        <ele>2280</ele>
        <time>2022-07-26T12:36:29Z</time>
      </trkpt>
      <trkpt lat="45.64702" lon="6.65106">
        <ele>2280</ele>
        <time>2022-07-26T12:36:30Z</time>
      </trkpt>
      <trkpt lat="45.64702" lon="6.65105">
        <ele>2280</ele>
        <time>2022-07-26T12:36:31Z</time>
      </trkpt>
      <trkpt lat="45.64702" lon="6.65104">
        <ele>2280</ele>
        <time>2022-07-26T12:36:32Z</time>
      </trkpt>
      <trkpt lat="45.64703" lon="6.65103">
        <ele>2280</ele>
        <time>2022-07-26T12:36:33Z</time>
      </trkpt>
      <trkpt lat="45.64703" lon="6.65103">
        <ele>2279</ele>
        <time>2022-07-26T12:36:34Z</time>
      </trkpt>
      <trkpt lat="45.64704" lon="6.65102">
        <ele>2279</ele>
        <time>2022-07-26T12:36:35Z</time>
      </trkpt>
      <trkpt lat="45.64704" lon="6.65102">
        <ele>2279</ele>
        <time>2022-07-26T12:36:36Z</time>
      </trkpt>
      <trkpt lat="45.64704" lon="6.65101">
        <ele>2279</ele>
        <time>2022-07-26T12:36:37Z</time>
      </trkpt>
      <trkpt lat="45.64705" lon="6.65101">
        <ele>2279</ele>
        <time>2022-07-26T12:36:38Z</time>
      </trkpt>
      <trkpt lat="45.64705" lon="6.651">
        <ele>2278</ele>
        <time>2022-07-26T12:36:39Z</time>
      </trkpt>
      <trkpt lat="45.64706" lon="6.651">
        <ele>2278</ele>
        <time>2022-07-26T12:36:40Z</time>
      </trkpt>
      <trkpt lat="45.64706" lon="6.65099">
        <ele>2278</ele>
        <time>2022-07-26T12:36:41Z</time>
      </trkpt>
      <trkpt lat="45.64707" lon="6.65098">
        <ele>2278</ele>
        <time>2022-07-26T12:36:42Z</time>
      </trkpt>
      <trkpt lat="45.64707" lon="6.65096">
        <ele>2276</ele>
        <time>2022-07-26T12:36:52Z</time>
      </trkpt>
      <trkpt lat="45.64707" lon="6.65094">
        <ele>2276</ele>
        <time>2022-07-26T12:36:53Z</time>
      </trkpt>
      <trkpt lat="45.64706" lon="6.65093">
        <ele>2276</ele>
        <time>2022-07-26T12:36:54Z</time>
      </trkpt>
      <trkpt lat="45.64706" lon="6.65092">
        <ele>2276</ele>
        <time>2022-07-26T12:36:55Z</time>
      </trkpt>
      <trkpt lat="45.64706" lon="6.6509">
        <ele>2276</ele>
        <time>2022-07-26T12:36:56Z</time>
      </trkpt>
      <trkpt lat="45.64706" lon="6.65089">
        <ele>2276</ele>
        <time>2022-07-26T12:36:57Z</time>
      </trkpt>
      <trkpt lat="45.64706" lon="6.65088">
        <ele>2276</ele>
        <time>2022-07-26T12:36:58Z</time>
      </trkpt>
      <trkpt lat="45.64707" lon="6.65086">
        <ele>2274</ele>
        <time>2022-07-26T12:37:04Z</time>
      </trkpt>
      <trkpt lat="45.64707" lon="6.65085">
        <ele>2274</ele>
        <time>2022-07-26T12:37:05Z</time>
      </trkpt>
      <trkpt lat="45.64707" lon="6.65084">
        <ele>2274</ele>
        <time>2022-07-26T12:37:06Z</time>
      </trkpt>
      <trkpt lat="45.64707" lon="6.65083">
        <ele>2274</ele>
        <time>2022-07-26T12:37:07Z</time>
      </trkpt>
      <trkpt lat="45.64707" lon="6.65082">
        <ele>2274</ele>
        <time>2022-07-26T12:37:08Z</time>
      </trkpt>
      <trkpt lat="45.64707" lon="6.65081">
        <ele>2274</ele>
        <time>2022-07-26T12:37:09Z</time>
      </trkpt>
      <trkpt lat="45.64707" lon="6.6508">
        <ele>2274</ele>
        <time>2022-07-26T12:37:10Z</time>
      </trkpt>
      <trkpt lat="45.64707" lon="6.65079">
        <ele>2274</ele>
        <time>2022-07-26T12:37:11Z</time>
      </trkpt>
      <trkpt lat="45.64708" lon="6.65078">
        <ele>2274</ele>
        <time>2022-07-26T12:37:12Z</time>
      </trkpt>
      <trkpt lat="45.64708" lon="6.65077">
        <ele>2274</ele>
        <time>2022-07-26T12:37:13Z</time>
      </trkpt>
      <trkpt lat="45.64708" lon="6.65077">
        <ele>2273</ele>
        <time>2022-07-26T12:37:14Z</time>
      </trkpt>
      <trkpt lat="45.64708" lon="6.65076">
        <ele>2273</ele>
        <time>2022-07-26T12:37:15Z</time>
      </trkpt>
      <trkpt lat="45.64709" lon="6.65075">
        <ele>2273</ele>
        <time>2022-07-26T12:37:16Z</time>
      </trkpt>
      <trkpt lat="45.64709" lon="6.65075">
        <ele>2273</ele>
        <time>2022-07-26T12:37:17Z</time>
      </trkpt>
      <trkpt lat="45.6471" lon="6.65074">
        <ele>2273</ele>
        <time>2022-07-26T12:37:18Z</time>
      </trkpt>
      <trkpt lat="45.64711" lon="6.65074">
        <ele>2272</ele>
        <time>2022-07-26T12:37:19Z</time>
      </trkpt>
      <trkpt lat="45.64711" lon="6.65073">
        <ele>2272</ele>
        <time>2022-07-26T12:37:20Z</time>
      </trkpt>
      <trkpt lat="45.64711" lon="6.65073">
        <ele>2272</ele>
        <time>2022-07-26T12:37:21Z</time>
      </trkpt>
      <trkpt lat="45.64712" lon="6.65072">
        <ele>2272</ele>
        <time>2022-07-26T12:37:22Z</time>
      </trkpt>
      <trkpt lat="45.64712" lon="6.65071">
        <ele>2272</ele>
        <time>2022-07-26T12:37:23Z</time>
      </trkpt>
      <trkpt lat="45.64711" lon="6.6507">
        <ele>2271</ele>
        <time>2022-07-26T12:37:24Z</time>
      </trkpt>
      <trkpt lat="45.64711" lon="6.65069">
        <ele>2271</ele>
        <time>2022-07-26T12:37:25Z</time>
      </trkpt>
      <trkpt lat="45.64711" lon="6.65068">
        <ele>2271</ele>
        <time>2022-07-26T12:37:26Z</time>
      </trkpt>
      <trkpt lat="45.64711" lon="6.65067">
        <ele>2271</ele>
        <time>2022-07-26T12:37:27Z</time>
      </trkpt>
      <trkpt lat="45.64711" lon="6.65066">
        <ele>2271</ele>
        <time>2022-07-26T12:37:28Z</time>
      </trkpt>
      <trkpt lat="45.6471" lon="6.65065">
        <ele>2270</ele>
        <time>2022-07-26T12:37:29Z</time>
      </trkpt>
      <trkpt lat="45.6471" lon="6.65065">
        <ele>2270</ele>
        <time>2022-07-26T12:37:30Z</time>
      </trkpt>
      <trkpt lat="45.6471" lon="6.65064">
        <ele>2270</ele>
        <time>2022-07-26T12:37:31Z</time>
      </trkpt>
      <trkpt lat="45.6471" lon="6.65064">
        <ele>2270</ele>
        <time>2022-07-26T12:37:32Z</time>
      </trkpt>
      <trkpt lat="45.6471" lon="6.65063">
        <ele>2270</ele>
        <time>2022-07-26T12:37:33Z</time>
      </trkpt>
      <trkpt lat="45.64709" lon="6.65062">
        <ele>2269</ele>
        <time>2022-07-26T12:37:34Z</time>
      </trkpt>
      <trkpt lat="45.64709" lon="6.65061">
        <ele>2269</ele>
        <time>2022-07-26T12:37:35Z</time>
      </trkpt>
      <trkpt lat="45.64709" lon="6.6506">
        <ele>2269</ele>
        <time>2022-07-26T12:37:36Z</time>
      </trkpt>
      <trkpt lat="45.6471" lon="6.65059">
        <ele>2268</ele>
        <time>2022-07-26T12:38:04Z</time>
      </trkpt>
      <trkpt lat="45.64711" lon="6.65058">
        <ele>2268</ele>
        <time>2022-07-26T12:38:05Z</time>
      </trkpt>
      <trkpt lat="45.64711" lon="6.65057">
        <ele>2268</ele>
        <time>2022-07-26T12:38:06Z</time>
      </trkpt>
      <trkpt lat="45.64711" lon="6.65057">
        <ele>2268</ele>
        <time>2022-07-26T12:38:07Z</time>
      </trkpt>
      <trkpt lat="45.64712" lon="6.65056">
        <ele>2268</ele>
        <time>2022-07-26T12:38:08Z</time>
      </trkpt>
      <trkpt lat="45.64712" lon="6.65056">
        <ele>2268</ele>
        <time>2022-07-26T12:38:09Z</time>
      </trkpt>
      <trkpt lat="45.64712" lon="6.65056">
        <ele>2268</ele>
        <time>2022-07-26T12:38:10Z</time>
      </trkpt>
      <trkpt lat="45.64712" lon="6.65055">
        <ele>2268</ele>
        <time>2022-07-26T12:38:11Z</time>
      </trkpt>
      <trkpt lat="45.64712" lon="6.65053">
        <ele>2268</ele>
        <time>2022-07-26T12:38:12Z</time>
      </trkpt>
      <trkpt lat="45.64712" lon="6.65053">
        <ele>2268</ele>
        <time>2022-07-26T12:38:13Z</time>
      </trkpt>
      <trkpt lat="45.64712" lon="6.65052">
        <ele>2268</ele>
        <time>2022-07-26T12:38:14Z</time>
      </trkpt>
      <trkpt lat="45.64712" lon="6.65051">
        <ele>2268</ele>
        <time>2022-07-26T12:38:15Z</time>
      </trkpt>
      <trkpt lat="45.64712" lon="6.6505">
        <ele>2268</ele>
        <time>2022-07-26T12:38:16Z</time>
      </trkpt>
      <trkpt lat="45.64711" lon="6.65049">
        <ele>2268</ele>
        <time>2022-07-26T12:38:17Z</time>
      </trkpt>
      <trkpt lat="45.64711" lon="6.65048">
        <ele>2268</ele>
        <time>2022-07-26T12:38:18Z</time>
      </trkpt>
      <trkpt lat="45.64711" lon="6.65047">
        <ele>2268</ele>
        <time>2022-07-26T12:38:19Z</time>
      </trkpt>
      <trkpt lat="45.6471" lon="6.65046">
        <ele>2268</ele>
        <time>2022-07-26T12:38:20Z</time>
      </trkpt>
      <trkpt lat="45.6471" lon="6.65045">
        <ele>2268</ele>
        <time>2022-07-26T12:38:21Z</time>
      </trkpt>
      <trkpt lat="45.6471" lon="6.65044">
        <ele>2268</ele>
        <time>2022-07-26T12:38:22Z</time>
      </trkpt>
      <trkpt lat="45.64709" lon="6.65043">
        <ele>2268</ele>
        <time>2022-07-26T12:38:23Z</time>
      </trkpt>
      <trkpt lat="45.64709" lon="6.65042">
        <ele>2267</ele>
        <time>2022-07-26T12:38:24Z</time>
      </trkpt>
      <trkpt lat="45.64709" lon="6.65041">
        <ele>2267</ele>
        <time>2022-07-26T12:38:25Z</time>
      </trkpt>
      <trkpt lat="45.64709" lon="6.6504">
        <ele>2267</ele>
        <time>2022-07-26T12:38:26Z</time>
      </trkpt>
      <trkpt lat="45.64709" lon="6.65039">
        <ele>2267</ele>
        <time>2022-07-26T12:38:27Z</time>
      </trkpt>
      <trkpt lat="45.64709" lon="6.65037">
        <ele>2267</ele>
        <time>2022-07-26T12:38:28Z</time>
      </trkpt>
      <trkpt lat="45.64709" lon="6.65036">
        <ele>2267</ele>
        <time>2022-07-26T12:38:29Z</time>
      </trkpt>
      <trkpt lat="45.64709" lon="6.65035">
        <ele>2267</ele>
        <time>2022-07-26T12:38:30Z</time>
      </trkpt>
      <trkpt lat="45.64709" lon="6.65034">
        <ele>2267</ele>
        <time>2022-07-26T12:38:31Z</time>
      </trkpt>
      <trkpt lat="45.64709" lon="6.65032">
        <ele>2267</ele>
        <time>2022-07-26T12:38:32Z</time>
      </trkpt>
      <trkpt lat="45.64709" lon="6.65031">
        <ele>2267</ele>
        <time>2022-07-26T12:38:33Z</time>
      </trkpt>
      <trkpt lat="45.64708" lon="6.65029">
        <ele>2266</ele>
        <time>2022-07-26T12:38:34Z</time>
      </trkpt>
      <trkpt lat="45.64708" lon="6.65028">
        <ele>2266</ele>
        <time>2022-07-26T12:38:35Z</time>
      </trkpt>
      <trkpt lat="45.64708" lon="6.65027">
        <ele>2266</ele>
        <time>2022-07-26T12:38:36Z</time>
      </trkpt>
      <trkpt lat="45.64709" lon="6.65025">
        <ele>2266</ele>
        <time>2022-07-26T12:38:37Z</time>
      </trkpt>
      <trkpt lat="45.64709" lon="6.65024">
        <ele>2266</ele>
        <time>2022-07-26T12:38:38Z</time>
      </trkpt>
      <trkpt lat="45.64709" lon="6.65023">
        <ele>2265</ele>
        <time>2022-07-26T12:38:39Z</time>
      </trkpt>
      <trkpt lat="45.64709" lon="6.65022">
        <ele>2265</ele>
        <time>2022-07-26T12:38:40Z</time>
      </trkpt>
      <trkpt lat="45.64709" lon="6.65021">
        <ele>2265</ele>
        <time>2022-07-26T12:38:41Z</time>
      </trkpt>
      <trkpt lat="45.64709" lon="6.6502">
        <ele>2265</ele>
        <time>2022-07-26T12:38:42Z</time>
      </trkpt>
      <trkpt lat="45.64709" lon="6.65019">
        <ele>2265</ele>
        <time>2022-07-26T12:38:43Z</time>
      </trkpt>
      <trkpt lat="45.64709" lon="6.65019">
        <ele>2264</ele>
        <time>2022-07-26T12:38:44Z</time>
      </trkpt>
      <trkpt lat="45.64709" lon="6.65018">
        <ele>2264</ele>
        <time>2022-07-26T12:38:45Z</time>
      </trkpt>
      <trkpt lat="45.64709" lon="6.65018">
        <ele>2264</ele>
        <time>2022-07-26T12:38:46Z</time>
      </trkpt>
      <trkpt lat="45.64709" lon="6.65018">
        <ele>2264</ele>
        <time>2022-07-26T12:38:47Z</time>
      </trkpt>
      <trkpt lat="45.64709" lon="6.65017">
        <ele>2264</ele>
        <time>2022-07-26T12:38:48Z</time>
      </trkpt>
      <trkpt lat="45.64708" lon="6.65016">
        <ele>2264</ele>
        <time>2022-07-26T12:38:49Z</time>
      </trkpt>
      <trkpt lat="45.64708" lon="6.65015">
        <ele>2264</ele>
        <time>2022-07-26T12:38:50Z</time>
      </trkpt>
      <trkpt lat="45.64708" lon="6.65014">
        <ele>2264</ele>
        <time>2022-07-26T12:38:51Z</time>
      </trkpt>
      <trkpt lat="45.64708" lon="6.65013">
        <ele>2264</ele>
        <time>2022-07-26T12:38:52Z</time>
      </trkpt>
      <trkpt lat="45.64707" lon="6.65012">
        <ele>2264</ele>
        <time>2022-07-26T12:38:53Z</time>
      </trkpt>
      <trkpt lat="45.64707" lon="6.65011">
        <ele>2263</ele>
        <time>2022-07-26T12:38:54Z</time>
      </trkpt>
      <trkpt lat="45.64707" lon="6.6501">
        <ele>2263</ele>
        <time>2022-07-26T12:38:55Z</time>
      </trkpt>
      <trkpt lat="45.64707" lon="6.65009">
        <ele>2263</ele>
        <time>2022-07-26T12:38:56Z</time>
      </trkpt>
      <trkpt lat="45.64707" lon="6.65007">
        <ele>2263</ele>
        <time>2022-07-26T12:38:57Z</time>
      </trkpt>
      <trkpt lat="45.64708" lon="6.65006">
        <ele>2263</ele>
        <time>2022-07-26T12:38:58Z</time>
      </trkpt>
      <trkpt lat="45.64708" lon="6.65005">
        <ele>2262</ele>
        <time>2022-07-26T12:38:59Z</time>
      </trkpt>
      <trkpt lat="45.64708" lon="6.65004">
        <ele>2262</ele>
        <time>2022-07-26T12:39:00Z</time>
      </trkpt>
      <trkpt lat="45.64709" lon="6.65003">
        <ele>2262</ele>
        <time>2022-07-26T12:39:01Z</time>
      </trkpt>
      <trkpt lat="45.64709" lon="6.65002">
        <ele>2262</ele>
        <time>2022-07-26T12:39:02Z</time>
      </trkpt>
      <trkpt lat="45.64709" lon="6.65002">
        <ele>2262</ele>
        <time>2022-07-26T12:39:03Z</time>
      </trkpt>
      <trkpt lat="45.64709" lon="6.65001">
        <ele>2262</ele>
        <time>2022-07-26T12:39:04Z</time>
      </trkpt>
      <trkpt lat="45.64709" lon="6.65">
        <ele>2262</ele>
        <time>2022-07-26T12:39:05Z</time>
      </trkpt>
      <trkpt lat="45.64709" lon="6.64999">
        <ele>2262</ele>
        <time>2022-07-26T12:39:06Z</time>
      </trkpt>
      <trkpt lat="45.64709" lon="6.64998">
        <ele>2262</ele>
        <time>2022-07-26T12:39:07Z</time>
      </trkpt>
      <trkpt lat="45.6471" lon="6.64996">
        <ele>2262</ele>
        <time>2022-07-26T12:39:16Z</time>
      </trkpt>
      <trkpt lat="45.6471" lon="6.64995">
        <ele>2262</ele>
        <time>2022-07-26T12:39:17Z</time>
      </trkpt>
      <trkpt lat="45.6471" lon="6.64994">
        <ele>2262</ele>
        <time>2022-07-26T12:39:18Z</time>
      </trkpt>
      <trkpt lat="45.64711" lon="6.64993">
        <ele>2262</ele>
        <time>2022-07-26T12:39:19Z</time>
      </trkpt>
      <trkpt lat="45.64711" lon="6.64992">
        <ele>2262</ele>
        <time>2022-07-26T12:39:20Z</time>
      </trkpt>
      <trkpt lat="45.64711" lon="6.64991">
        <ele>2262</ele>
        <time>2022-07-26T12:39:21Z</time>
      </trkpt>
      <trkpt lat="45.64711" lon="6.6499">
        <ele>2262</ele>
        <time>2022-07-26T12:39:22Z</time>
      </trkpt>
      <trkpt lat="45.64711" lon="6.64989">
        <ele>2262</ele>
        <time>2022-07-26T12:39:23Z</time>
      </trkpt>
      <trkpt lat="45.64711" lon="6.64989">
        <ele>2262</ele>
        <time>2022-07-26T12:39:24Z</time>
      </trkpt>
      <trkpt lat="45.64711" lon="6.64988">
        <ele>2262</ele>
        <time>2022-07-26T12:39:25Z</time>
      </trkpt>
      <trkpt lat="45.64711" lon="6.64987">
        <ele>2262</ele>
        <time>2022-07-26T12:39:26Z</time>
      </trkpt>
      <trkpt lat="45.64712" lon="6.64986">
        <ele>2262</ele>
        <time>2022-07-26T12:39:27Z</time>
      </trkpt>
      <trkpt lat="45.64712" lon="6.64985">
        <ele>2262</ele>
        <time>2022-07-26T12:39:28Z</time>
      </trkpt>
      <trkpt lat="45.64712" lon="6.64984">
        <ele>2262</ele>
        <time>2022-07-26T12:39:29Z</time>
      </trkpt>
      <trkpt lat="45.64713" lon="6.64984">
        <ele>2262</ele>
        <time>2022-07-26T12:39:30Z</time>
      </trkpt>
      <trkpt lat="45.64714" lon="6.64984">
        <ele>2262</ele>
        <time>2022-07-26T12:39:31Z</time>
      </trkpt>
      <trkpt lat="45.64714" lon="6.64984">
        <ele>2262</ele>
        <time>2022-07-26T12:39:32Z</time>
      </trkpt>
      <trkpt lat="45.64715" lon="6.64982">
        <ele>2256</ele>
        <time>2022-07-26T12:40:32Z</time>
      </trkpt>
      <trkpt lat="45.64716" lon="6.6498">
        <ele>2256</ele>
        <time>2022-07-26T12:40:33Z</time>
      </trkpt>
      <trkpt lat="45.64716" lon="6.64979">
        <ele>2256</ele>
        <time>2022-07-26T12:40:34Z</time>
      </trkpt>
      <trkpt lat="45.64716" lon="6.64978">
        <ele>2256</ele>
        <time>2022-07-26T12:40:35Z</time>
      </trkpt>
      <trkpt lat="45.64716" lon="6.64977">
        <ele>2256</ele>
        <time>2022-07-26T12:40:36Z</time>
      </trkpt>
      <trkpt lat="45.64716" lon="6.64976">
        <ele>2256</ele>
        <time>2022-07-26T12:40:37Z</time>
      </trkpt>
      <trkpt lat="45.64716" lon="6.64976">
        <ele>2256</ele>
        <time>2022-07-26T12:40:38Z</time>
      </trkpt>
      <trkpt lat="45.64716" lon="6.64975">
        <ele>2255</ele>
        <time>2022-07-26T12:40:39Z</time>
      </trkpt>
      <trkpt lat="45.64716" lon="6.64974">
        <ele>2255</ele>
        <time>2022-07-26T12:40:40Z</time>
      </trkpt>
      <trkpt lat="45.64716" lon="6.64973">
        <ele>2255</ele>
        <time>2022-07-26T12:40:41Z</time>
      </trkpt>
      <trkpt lat="45.64716" lon="6.64973">
        <ele>2255</ele>
        <time>2022-07-26T12:40:42Z</time>
      </trkpt>
      <trkpt lat="45.64716" lon="6.64973">
        <ele>2255</ele>
        <time>2022-07-26T12:40:43Z</time>
      </trkpt>
      <trkpt lat="45.64716" lon="6.64972">
        <ele>2255</ele>
        <time>2022-07-26T12:40:44Z</time>
      </trkpt>
      <trkpt lat="45.64716" lon="6.64972">
        <ele>2255</ele>
        <time>2022-07-26T12:40:45Z</time>
      </trkpt>
      <trkpt lat="45.64716" lon="6.64971">
        <ele>2255</ele>
        <time>2022-07-26T12:40:46Z</time>
      </trkpt>
      <trkpt lat="45.64716" lon="6.64969">
        <ele>2255</ele>
        <time>2022-07-26T12:40:47Z</time>
      </trkpt>
      <trkpt lat="45.64716" lon="6.64969">
        <ele>2255</ele>
        <time>2022-07-26T12:40:48Z</time>
      </trkpt>
      <trkpt lat="45.64716" lon="6.64968">
        <ele>2254</ele>
        <time>2022-07-26T12:40:49Z</time>
      </trkpt>
      <trkpt lat="45.64716" lon="6.64967">
        <ele>2254</ele>
        <time>2022-07-26T12:40:50Z</time>
      </trkpt>
      <trkpt lat="45.64716" lon="6.64966">
        <ele>2254</ele>
        <time>2022-07-26T12:40:51Z</time>
      </trkpt>
      <trkpt lat="45.64716" lon="6.64965">
        <ele>2254</ele>
        <time>2022-07-26T12:40:52Z</time>
      </trkpt>
      <trkpt lat="45.64716" lon="6.64964">
        <ele>2254</ele>
        <time>2022-07-26T12:40:53Z</time>
      </trkpt>
      <trkpt lat="45.64716" lon="6.64963">
        <ele>2253</ele>
        <time>2022-07-26T12:40:54Z</time>
      </trkpt>
      <trkpt lat="45.64716" lon="6.64963">
        <ele>2253</ele>
        <time>2022-07-26T12:40:55Z</time>
      </trkpt>
      <trkpt lat="45.64716" lon="6.64962">
        <ele>2253</ele>
        <time>2022-07-26T12:40:56Z</time>
      </trkpt>
      <trkpt lat="45.64716" lon="6.64961">
        <ele>2253</ele>
        <time>2022-07-26T12:40:57Z</time>
      </trkpt>
      <trkpt lat="45.64716" lon="6.6496">
        <ele>2253</ele>
        <time>2022-07-26T12:40:58Z</time>
      </trkpt>
      <trkpt lat="45.64716" lon="6.64959">
        <ele>2252</ele>
        <time>2022-07-26T12:40:59Z</time>
      </trkpt>
      <trkpt lat="45.64715" lon="6.64958">
        <ele>2252</ele>
        <time>2022-07-26T12:41:00Z</time>
      </trkpt>
      <trkpt lat="45.64714" lon="6.64957">
        <ele>2252</ele>
        <time>2022-07-26T12:41:01Z</time>
      </trkpt>
      <trkpt lat="45.64713" lon="6.64956">
        <ele>2252</ele>
        <time>2022-07-26T12:41:02Z</time>
      </trkpt>
      <trkpt lat="45.64713" lon="6.64955">
        <ele>2252</ele>
        <time>2022-07-26T12:41:03Z</time>
      </trkpt>
      <trkpt lat="45.64712" lon="6.64954">
        <ele>2251</ele>
        <time>2022-07-26T12:41:04Z</time>
      </trkpt>
      <trkpt lat="45.64711" lon="6.64953">
        <ele>2251</ele>
        <time>2022-07-26T12:41:05Z</time>
      </trkpt>
      <trkpt lat="45.6471" lon="6.64952">
        <ele>2251</ele>
        <time>2022-07-26T12:41:06Z</time>
      </trkpt>
      <trkpt lat="45.6471" lon="6.64951">
        <ele>2251</ele>
        <time>2022-07-26T12:41:07Z</time>
      </trkpt>
      <trkpt lat="45.64709" lon="6.6495">
        <ele>2251</ele>
        <time>2022-07-26T12:41:08Z</time>
      </trkpt>
      <trkpt lat="45.64708" lon="6.64949">
        <ele>2250</ele>
        <time>2022-07-26T12:41:09Z</time>
      </trkpt>
      <trkpt lat="45.64708" lon="6.64948">
        <ele>2250</ele>
        <time>2022-07-26T12:41:10Z</time>
      </trkpt>
      <trkpt lat="45.64707" lon="6.64947">
        <ele>2250</ele>
        <time>2022-07-26T12:41:11Z</time>
      </trkpt>
      <trkpt lat="45.64707" lon="6.64947">
        <ele>2250</ele>
        <time>2022-07-26T12:41:12Z</time>
      </trkpt>
      <trkpt lat="45.64706" lon="6.64946">
        <ele>2250</ele>
        <time>2022-07-26T12:41:13Z</time>
      </trkpt>
      <trkpt lat="45.64706" lon="6.64945">
        <ele>2249</ele>
        <time>2022-07-26T12:41:14Z</time>
      </trkpt>
      <trkpt lat="45.64706" lon="6.64944">
        <ele>2249</ele>
        <time>2022-07-26T12:41:15Z</time>
      </trkpt>
      <trkpt lat="45.64705" lon="6.64943">
        <ele>2249</ele>
        <time>2022-07-26T12:41:16Z</time>
      </trkpt>
      <trkpt lat="45.64704" lon="6.64942">
        <ele>2249</ele>
        <time>2022-07-26T12:41:17Z</time>
      </trkpt>
      <trkpt lat="45.64704" lon="6.6494">
        <ele>2249</ele>
        <time>2022-07-26T12:41:18Z</time>
      </trkpt>
      <trkpt lat="45.64703" lon="6.64939">
        <ele>2248</ele>
        <time>2022-07-26T12:41:19Z</time>
      </trkpt>
      <trkpt lat="45.64702" lon="6.64938">
        <ele>2248</ele>
        <time>2022-07-26T12:41:20Z</time>
      </trkpt>
      <trkpt lat="45.64701" lon="6.64937">
        <ele>2248</ele>
        <time>2022-07-26T12:41:21Z</time>
      </trkpt>
      <trkpt lat="45.647" lon="6.64936">
        <ele>2248</ele>
        <time>2022-07-26T12:41:22Z</time>
      </trkpt>
      <trkpt lat="45.647" lon="6.64935">
        <ele>2248</ele>
        <time>2022-07-26T12:41:23Z</time>
      </trkpt>
      <trkpt lat="45.64699" lon="6.64933">
        <ele>2247</ele>
        <time>2022-07-26T12:41:24Z</time>
      </trkpt>
      <trkpt lat="45.64698" lon="6.64932">
        <ele>2247</ele>
        <time>2022-07-26T12:41:25Z</time>
      </trkpt>
      <trkpt lat="45.64697" lon="6.64931">
        <ele>2247</ele>
        <time>2022-07-26T12:41:26Z</time>
      </trkpt>
      <trkpt lat="45.64696" lon="6.6493">
        <ele>2247</ele>
        <time>2022-07-26T12:41:27Z</time>
      </trkpt>
      <trkpt lat="45.64696" lon="6.64929">
        <ele>2247</ele>
        <time>2022-07-26T12:41:28Z</time>
      </trkpt>
      <trkpt lat="45.64695" lon="6.64928">
        <ele>2246</ele>
        <time>2022-07-26T12:41:29Z</time>
      </trkpt>
      <trkpt lat="45.64695" lon="6.64927">
        <ele>2246</ele>
        <time>2022-07-26T12:41:30Z</time>
      </trkpt>
      <trkpt lat="45.64694" lon="6.64926">
        <ele>2246</ele>
        <time>2022-07-26T12:41:31Z</time>
      </trkpt>
      <trkpt lat="45.64693" lon="6.64925">
        <ele>2246</ele>
        <time>2022-07-26T12:41:32Z</time>
      </trkpt>
      <trkpt lat="45.64693" lon="6.64925">
        <ele>2246</ele>
        <time>2022-07-26T12:41:33Z</time>
      </trkpt>
      <trkpt lat="45.64692" lon="6.64922">
        <ele>2243</ele>
        <time>2022-07-26T12:41:58Z</time>
      </trkpt>
      <trkpt lat="45.64691" lon="6.64921">
        <ele>2242</ele>
        <time>2022-07-26T12:41:59Z</time>
      </trkpt>
      <trkpt lat="45.6469" lon="6.64919">
        <ele>2242</ele>
        <time>2022-07-26T12:42:00Z</time>
      </trkpt>
      <trkpt lat="45.6469" lon="6.64918">
        <ele>2242</ele>
        <time>2022-07-26T12:42:01Z</time>
      </trkpt>
      <trkpt lat="45.64689" lon="6.64917">
        <ele>2242</ele>
        <time>2022-07-26T12:42:02Z</time>
      </trkpt>
      <trkpt lat="45.64689" lon="6.64916">
        <ele>2241</ele>
        <time>2022-07-26T12:42:10Z</time>
      </trkpt>
      <trkpt lat="45.64688" lon="6.64915">
        <ele>2241</ele>
        <time>2022-07-26T12:42:11Z</time>
      </trkpt>
      <trkpt lat="45.64688" lon="6.64914">
        <ele>2241</ele>
        <time>2022-07-26T12:42:12Z</time>
      </trkpt>
      <trkpt lat="45.64687" lon="6.64913">
        <ele>2241</ele>
        <time>2022-07-26T12:42:13Z</time>
      </trkpt>
      <trkpt lat="45.64687" lon="6.64913">
        <ele>2241</ele>
        <time>2022-07-26T12:42:14Z</time>
      </trkpt>
      <trkpt lat="45.64686" lon="6.64912">
        <ele>2241</ele>
        <time>2022-07-26T12:42:15Z</time>
      </trkpt>
      <trkpt lat="45.64685" lon="6.64912">
        <ele>2241</ele>
        <time>2022-07-26T12:42:16Z</time>
      </trkpt>
      <trkpt lat="45.64685" lon="6.64911">
        <ele>2241</ele>
        <time>2022-07-26T12:42:17Z</time>
      </trkpt>
      <trkpt lat="45.64684" lon="6.64911">
        <ele>2241</ele>
        <time>2022-07-26T12:42:18Z</time>
      </trkpt>
      <trkpt lat="45.64684" lon="6.6491">
        <ele>2240</ele>
        <time>2022-07-26T12:42:19Z</time>
      </trkpt>
      <trkpt lat="45.64683" lon="6.64909">
        <ele>2240</ele>
        <time>2022-07-26T12:42:20Z</time>
      </trkpt>
      <trkpt lat="45.64682" lon="6.64909">
        <ele>2240</ele>
        <time>2022-07-26T12:42:21Z</time>
      </trkpt>
      <trkpt lat="45.64682" lon="6.64909">
        <ele>2240</ele>
        <time>2022-07-26T12:42:22Z</time>
      </trkpt>
      <trkpt lat="45.64681" lon="6.64909">
        <ele>2240</ele>
        <time>2022-07-26T12:42:23Z</time>
      </trkpt>
      <trkpt lat="45.64681" lon="6.64909">
        <ele>2240</ele>
        <time>2022-07-26T12:42:24Z</time>
      </trkpt>
      <trkpt lat="45.6468" lon="6.64907">
        <ele>2238</ele>
        <time>2022-07-26T12:42:36Z</time>
      </trkpt>
      <trkpt lat="45.64679" lon="6.64907">
        <ele>2238</ele>
        <time>2022-07-26T12:42:37Z</time>
      </trkpt>
      <trkpt lat="45.64679" lon="6.64906">
        <ele>2238</ele>
        <time>2022-07-26T12:42:38Z</time>
      </trkpt>
      <trkpt lat="45.64678" lon="6.64904">
        <ele>2237</ele>
        <time>2022-07-26T12:42:46Z</time>
      </trkpt>
      <trkpt lat="45.64677" lon="6.64903">
        <ele>2237</ele>
        <time>2022-07-26T12:42:47Z</time>
      </trkpt>
      <trkpt lat="45.64676" lon="6.64902">
        <ele>2237</ele>
        <time>2022-07-26T12:42:48Z</time>
      </trkpt>
      <trkpt lat="45.64676" lon="6.64901">
        <ele>2236</ele>
        <time>2022-07-26T12:42:49Z</time>
      </trkpt>
      <trkpt lat="45.64676" lon="6.649">
        <ele>2236</ele>
        <time>2022-07-26T12:42:50Z</time>
      </trkpt>
      <trkpt lat="45.64675" lon="6.64899">
        <ele>2236</ele>
        <time>2022-07-26T12:42:51Z</time>
      </trkpt>
      <trkpt lat="45.64675" lon="6.64899">
        <ele>2236</ele>
        <time>2022-07-26T12:42:52Z</time>
      </trkpt>
      <trkpt lat="45.64674" lon="6.64898">
        <ele>2236</ele>
        <time>2022-07-26T12:42:53Z</time>
      </trkpt>
      <trkpt lat="45.64674" lon="6.64897">
        <ele>2235</ele>
        <time>2022-07-26T12:42:54Z</time>
      </trkpt>
      <trkpt lat="45.64673" lon="6.64897">
        <ele>2235</ele>
        <time>2022-07-26T12:42:55Z</time>
      </trkpt>
      <trkpt lat="45.64672" lon="6.64896">
        <ele>2235</ele>
        <time>2022-07-26T12:42:56Z</time>
      </trkpt>
      <trkpt lat="45.64671" lon="6.64895">
        <ele>2235</ele>
        <time>2022-07-26T12:42:57Z</time>
      </trkpt>
      <trkpt lat="45.64671" lon="6.64894">
        <ele>2235</ele>
        <time>2022-07-26T12:42:58Z</time>
      </trkpt>
      <trkpt lat="45.6467" lon="6.64893">
        <ele>2234</ele>
        <time>2022-07-26T12:42:59Z</time>
      </trkpt>
      <trkpt lat="45.64669" lon="6.64891">
        <ele>2234</ele>
        <time>2022-07-26T12:43:00Z</time>
      </trkpt>
      <trkpt lat="45.64668" lon="6.6489">
        <ele>2234</ele>
        <time>2022-07-26T12:43:01Z</time>
      </trkpt>
      <trkpt lat="45.64667" lon="6.64889">
        <ele>2234</ele>
        <time>2022-07-26T12:43:02Z</time>
      </trkpt>
      <trkpt lat="45.64667" lon="6.64888">
        <ele>2234</ele>
        <time>2022-07-26T12:43:03Z</time>
      </trkpt>
      <trkpt lat="45.64666" lon="6.64887">
        <ele>2233</ele>
        <time>2022-07-26T12:43:04Z</time>
      </trkpt>
      <trkpt lat="45.64665" lon="6.64886">
        <ele>2233</ele>
        <time>2022-07-26T12:43:05Z</time>
      </trkpt>
      <trkpt lat="45.64665" lon="6.64885">
        <ele>2233</ele>
        <time>2022-07-26T12:43:06Z</time>
      </trkpt>
      <trkpt lat="45.64664" lon="6.64884">
        <ele>2233</ele>
        <time>2022-07-26T12:43:07Z</time>
      </trkpt>
      <trkpt lat="45.64664" lon="6.64883">
        <ele>2233</ele>
        <time>2022-07-26T12:43:08Z</time>
      </trkpt>
      <trkpt lat="45.64663" lon="6.64883">
        <ele>2232</ele>
        <time>2022-07-26T12:43:09Z</time>
      </trkpt>
      <trkpt lat="45.64663" lon="6.64882">
        <ele>2232</ele>
        <time>2022-07-26T12:43:10Z</time>
      </trkpt>
      <trkpt lat="45.64663" lon="6.64881">
        <ele>2232</ele>
        <time>2022-07-26T12:43:11Z</time>
      </trkpt>
      <trkpt lat="45.64663" lon="6.64881">
        <ele>2232</ele>
        <time>2022-07-26T12:43:12Z</time>
      </trkpt>
      <trkpt lat="45.64663" lon="6.6488">
        <ele>2232</ele>
        <time>2022-07-26T12:43:13Z</time>
      </trkpt>
      <trkpt lat="45.64663" lon="6.64879">
        <ele>2231</ele>
        <time>2022-07-26T12:43:14Z</time>
      </trkpt>
      <trkpt lat="45.64663" lon="6.64878">
        <ele>2226</ele>
        <time>2022-07-26T12:43:44Z</time>
      </trkpt>
      <trkpt lat="45.64663" lon="6.64878">
        <ele>2226</ele>
        <time>2022-07-26T12:43:45Z</time>
      </trkpt>
      <trkpt lat="45.64663" lon="6.64877">
        <ele>2226</ele>
        <time>2022-07-26T12:43:46Z</time>
      </trkpt>
      <trkpt lat="45.64663" lon="6.64877">
        <ele>2226</ele>
        <time>2022-07-26T12:43:47Z</time>
      </trkpt>
      <trkpt lat="45.64662" lon="6.64876">
        <ele>2226</ele>
        <time>2022-07-26T12:43:48Z</time>
      </trkpt>
      <trkpt lat="45.64662" lon="6.64876">
        <ele>2226</ele>
        <time>2022-07-26T12:43:49Z</time>
      </trkpt>
      <trkpt lat="45.64662" lon="6.64875">
        <ele>2226</ele>
        <time>2022-07-26T12:43:50Z</time>
      </trkpt>
      <trkpt lat="45.64662" lon="6.64874">
        <ele>2226</ele>
        <time>2022-07-26T12:43:51Z</time>
      </trkpt>
      <trkpt lat="45.64661" lon="6.64873">
        <ele>2226</ele>
        <time>2022-07-26T12:43:52Z</time>
      </trkpt>
      <trkpt lat="45.64661" lon="6.64872">
        <ele>2226</ele>
        <time>2022-07-26T12:43:53Z</time>
      </trkpt>
      <trkpt lat="45.6466" lon="6.64871">
        <ele>2225</ele>
        <time>2022-07-26T12:43:54Z</time>
      </trkpt>
      <trkpt lat="45.64659" lon="6.6487">
        <ele>2225</ele>
        <time>2022-07-26T12:43:55Z</time>
      </trkpt>
      <trkpt lat="45.64658" lon="6.64869">
        <ele>2225</ele>
        <time>2022-07-26T12:43:56Z</time>
      </trkpt>
      <trkpt lat="45.64657" lon="6.64868">
        <ele>2225</ele>
        <time>2022-07-26T12:43:57Z</time>
      </trkpt>
      <trkpt lat="45.64657" lon="6.64867">
        <ele>2225</ele>
        <time>2022-07-26T12:43:58Z</time>
      </trkpt>
      <trkpt lat="45.64656" lon="6.64866">
        <ele>2225</ele>
        <time>2022-07-26T12:43:59Z</time>
      </trkpt>
      <trkpt lat="45.64655" lon="6.64865">
        <ele>2225</ele>
        <time>2022-07-26T12:44:00Z</time>
      </trkpt>
      <trkpt lat="45.64655" lon="6.64864">
        <ele>2225</ele>
        <time>2022-07-26T12:44:01Z</time>
      </trkpt>
      <trkpt lat="45.64654" lon="6.64863">
        <ele>2225</ele>
        <time>2022-07-26T12:44:02Z</time>
      </trkpt>
      <trkpt lat="45.64654" lon="6.64862">
        <ele>2225</ele>
        <time>2022-07-26T12:44:03Z</time>
      </trkpt>
      <trkpt lat="45.64654" lon="6.64861">
        <ele>2224</ele>
        <time>2022-07-26T12:44:04Z</time>
      </trkpt>
      <trkpt lat="45.64653" lon="6.64859">
        <ele>2224</ele>
        <time>2022-07-26T12:44:05Z</time>
      </trkpt>
      <trkpt lat="45.64653" lon="6.64858">
        <ele>2224</ele>
        <time>2022-07-26T12:44:06Z</time>
      </trkpt>
      <trkpt lat="45.64652" lon="6.64857">
        <ele>2224</ele>
        <time>2022-07-26T12:44:07Z</time>
      </trkpt>
      <trkpt lat="45.64651" lon="6.64856">
        <ele>2224</ele>
        <time>2022-07-26T12:44:08Z</time>
      </trkpt>
      <trkpt lat="45.64651" lon="6.64854">
        <ele>2224</ele>
        <time>2022-07-26T12:44:09Z</time>
      </trkpt>
      <trkpt lat="45.6465" lon="6.64853">
        <ele>2224</ele>
        <time>2022-07-26T12:44:10Z</time>
      </trkpt>
      <trkpt lat="45.64649" lon="6.64852">
        <ele>2224</ele>
        <time>2022-07-26T12:44:11Z</time>
      </trkpt>
      <trkpt lat="45.64649" lon="6.64851">
        <ele>2224</ele>
        <time>2022-07-26T12:44:12Z</time>
      </trkpt>
      <trkpt lat="45.64648" lon="6.6485">
        <ele>2224</ele>
        <time>2022-07-26T12:44:13Z</time>
      </trkpt>
      <trkpt lat="45.64647" lon="6.64849">
        <ele>2223</ele>
        <time>2022-07-26T12:44:14Z</time>
      </trkpt>
      <trkpt lat="45.64647" lon="6.64848">
        <ele>2223</ele>
        <time>2022-07-26T12:44:15Z</time>
      </trkpt>
      <trkpt lat="45.64646" lon="6.64847">
        <ele>2223</ele>
        <time>2022-07-26T12:44:16Z</time>
      </trkpt>
      <trkpt lat="45.64646" lon="6.64846">
        <ele>2223</ele>
        <time>2022-07-26T12:44:17Z</time>
      </trkpt>
      <trkpt lat="45.64645" lon="6.64845">
        <ele>2223</ele>
        <time>2022-07-26T12:44:18Z</time>
      </trkpt>
      <trkpt lat="45.64645" lon="6.64844">
        <ele>2222</ele>
        <time>2022-07-26T12:44:19Z</time>
      </trkpt>
      <trkpt lat="45.64645" lon="6.64843">
        <ele>2222</ele>
        <time>2022-07-26T12:44:20Z</time>
      </trkpt>
      <trkpt lat="45.64644" lon="6.64842">
        <ele>2222</ele>
        <time>2022-07-26T12:44:21Z</time>
      </trkpt>
      <trkpt lat="45.64644" lon="6.64842">
        <ele>2222</ele>
        <time>2022-07-26T12:44:22Z</time>
      </trkpt>
      <trkpt lat="45.64643" lon="6.6484">
        <ele>2220</ele>
        <time>2022-07-26T12:44:30Z</time>
      </trkpt>
      <trkpt lat="45.64642" lon="6.64839">
        <ele>2220</ele>
        <time>2022-07-26T12:44:31Z</time>
      </trkpt>
      <trkpt lat="45.64641" lon="6.64838">
        <ele>2220</ele>
        <time>2022-07-26T12:44:32Z</time>
      </trkpt>
      <trkpt lat="45.64641" lon="6.64838">
        <ele>2220</ele>
        <time>2022-07-26T12:44:33Z</time>
      </trkpt>
      <trkpt lat="45.6464" lon="6.64837">
        <ele>2220</ele>
        <time>2022-07-26T12:44:34Z</time>
      </trkpt>
      <trkpt lat="45.64639" lon="6.64836">
        <ele>2220</ele>
        <time>2022-07-26T12:44:35Z</time>
      </trkpt>
      <trkpt lat="45.64639" lon="6.64835">
        <ele>2220</ele>
        <time>2022-07-26T12:44:36Z</time>
      </trkpt>
      <trkpt lat="45.64638" lon="6.64834">
        <ele>2220</ele>
        <time>2022-07-26T12:44:37Z</time>
      </trkpt>
      <trkpt lat="45.64638" lon="6.64833">
        <ele>2220</ele>
        <time>2022-07-26T12:44:38Z</time>
      </trkpt>
      <trkpt lat="45.64638" lon="6.64833">
        <ele>2220</ele>
        <time>2022-07-26T12:44:39Z</time>
      </trkpt>
      <trkpt lat="45.64637" lon="6.64832">
        <ele>2220</ele>
        <time>2022-07-26T12:44:40Z</time>
      </trkpt>
      <trkpt lat="45.64637" lon="6.64831">
        <ele>2220</ele>
        <time>2022-07-26T12:44:41Z</time>
      </trkpt>
      <trkpt lat="45.64636" lon="6.6483">
        <ele>2220</ele>
        <time>2022-07-26T12:44:42Z</time>
      </trkpt>
      <trkpt lat="45.64636" lon="6.6483">
        <ele>2220</ele>
        <time>2022-07-26T12:44:43Z</time>
      </trkpt>
      <trkpt lat="45.64636" lon="6.6483">
        <ele>2219</ele>
        <time>2022-07-26T12:44:44Z</time>
      </trkpt>
      <trkpt lat="45.64635" lon="6.64829">
        <ele>2219</ele>
        <time>2022-07-26T12:44:45Z</time>
      </trkpt>
      <trkpt lat="45.64635" lon="6.64829">
        <ele>2219</ele>
        <time>2022-07-26T12:44:46Z</time>
      </trkpt>
      <trkpt lat="45.64634" lon="6.64829">
        <ele>2219</ele>
        <time>2022-07-26T12:44:47Z</time>
      </trkpt>
      <trkpt lat="45.64634" lon="6.64828">
        <ele>2219</ele>
        <time>2022-07-26T12:44:48Z</time>
      </trkpt>
      <trkpt lat="45.64633" lon="6.64828">
        <ele>2218</ele>
        <time>2022-07-26T12:44:49Z</time>
      </trkpt>
      <trkpt lat="45.64633" lon="6.64827">
        <ele>2216</ele>
        <time>2022-07-26T12:45:15Z</time>
      </trkpt>
      <trkpt lat="45.64633" lon="6.64826">
        <ele>2216</ele>
        <time>2022-07-26T12:45:16Z</time>
      </trkpt>
      <trkpt lat="45.64632" lon="6.64825">
        <ele>2216</ele>
        <time>2022-07-26T12:45:17Z</time>
      </trkpt>
      <trkpt lat="45.64632" lon="6.64824">
        <ele>2216</ele>
        <time>2022-07-26T12:45:18Z</time>
      </trkpt>
      <trkpt lat="45.64632" lon="6.64824">
        <ele>2215</ele>
        <time>2022-07-26T12:45:19Z</time>
      </trkpt>
      <trkpt lat="45.64631" lon="6.64823">
        <ele>2215</ele>
        <time>2022-07-26T12:45:20Z</time>
      </trkpt>
      <trkpt lat="45.64631" lon="6.64822">
        <ele>2215</ele>
        <time>2022-07-26T12:45:21Z</time>
      </trkpt>
      <trkpt lat="45.6463" lon="6.64821">
        <ele>2215</ele>
        <time>2022-07-26T12:45:22Z</time>
      </trkpt>
      <trkpt lat="45.64629" lon="6.6482">
        <ele>2215</ele>
        <time>2022-07-26T12:45:23Z</time>
      </trkpt>
      <trkpt lat="45.64629" lon="6.6482">
        <ele>2215</ele>
        <time>2022-07-26T12:45:24Z</time>
      </trkpt>
      <trkpt lat="45.64629" lon="6.64819">
        <ele>2215</ele>
        <time>2022-07-26T12:45:25Z</time>
      </trkpt>
      <trkpt lat="45.64628" lon="6.64818">
        <ele>2215</ele>
        <time>2022-07-26T12:45:26Z</time>
      </trkpt>
      <trkpt lat="45.64628" lon="6.64815">
        <ele>2214</ele>
        <time>2022-07-26T12:45:39Z</time>
      </trkpt>
      <trkpt lat="45.64628" lon="6.64813">
        <ele>2214</ele>
        <time>2022-07-26T12:45:40Z</time>
      </trkpt>
      <trkpt lat="45.64627" lon="6.64812">
        <ele>2214</ele>
        <time>2022-07-26T12:45:41Z</time>
      </trkpt>
      <trkpt lat="45.64627" lon="6.64811">
        <ele>2214</ele>
        <time>2022-07-26T12:45:42Z</time>
      </trkpt>
      <trkpt lat="45.64627" lon="6.6481">
        <ele>2214</ele>
        <time>2022-07-26T12:45:43Z</time>
      </trkpt>
      <trkpt lat="45.64627" lon="6.6481">
        <ele>2213</ele>
        <time>2022-07-26T12:45:44Z</time>
      </trkpt>
      <trkpt lat="45.64627" lon="6.64809">
        <ele>2213</ele>
        <time>2022-07-26T12:45:45Z</time>
      </trkpt>
      <trkpt lat="45.64627" lon="6.64808">
        <ele>2213</ele>
        <time>2022-07-26T12:45:46Z</time>
      </trkpt>
      <trkpt lat="45.64626" lon="6.64807">
        <ele>2213</ele>
        <time>2022-07-26T12:45:47Z</time>
      </trkpt>
      <trkpt lat="45.64626" lon="6.64807">
        <ele>2213</ele>
        <time>2022-07-26T12:45:48Z</time>
      </trkpt>
      <trkpt lat="45.64626" lon="6.64806">
        <ele>2212</ele>
        <time>2022-07-26T12:45:49Z</time>
      </trkpt>
      <trkpt lat="45.64626" lon="6.64805">
        <ele>2212</ele>
        <time>2022-07-26T12:45:50Z</time>
      </trkpt>
      <trkpt lat="45.64625" lon="6.64802">
        <ele>2211</ele>
        <time>2022-07-26T12:46:00Z</time>
      </trkpt>
      <trkpt lat="45.64624" lon="6.64801">
        <ele>2211</ele>
        <time>2022-07-26T12:46:01Z</time>
      </trkpt>
      <trkpt lat="45.64624" lon="6.64799">
        <ele>2211</ele>
        <time>2022-07-26T12:46:02Z</time>
      </trkpt>
      <trkpt lat="45.64623" lon="6.64798">
        <ele>2211</ele>
        <time>2022-07-26T12:46:03Z</time>
      </trkpt>
      <trkpt lat="45.64623" lon="6.64797">
        <ele>2210</ele>
        <time>2022-07-26T12:46:04Z</time>
      </trkpt>
      <trkpt lat="45.64623" lon="6.64796">
        <ele>2210</ele>
        <time>2022-07-26T12:46:05Z</time>
      </trkpt>
      <trkpt lat="45.64622" lon="6.64796">
        <ele>2210</ele>
        <time>2022-07-26T12:46:06Z</time>
      </trkpt>
      <trkpt lat="45.64622" lon="6.64795">
        <ele>2210</ele>
        <time>2022-07-26T12:46:07Z</time>
      </trkpt>
      <trkpt lat="45.64621" lon="6.64794">
        <ele>2210</ele>
        <time>2022-07-26T12:46:08Z</time>
      </trkpt>
      <trkpt lat="45.6462" lon="6.64793">
        <ele>2209</ele>
        <time>2022-07-26T12:46:09Z</time>
      </trkpt>
      <trkpt lat="45.64619" lon="6.64792">
        <ele>2209</ele>
        <time>2022-07-26T12:46:10Z</time>
      </trkpt>
      <trkpt lat="45.64619" lon="6.64791">
        <ele>2209</ele>
        <time>2022-07-26T12:46:11Z</time>
      </trkpt>
      <trkpt lat="45.64618" lon="6.6479">
        <ele>2209</ele>
        <time>2022-07-26T12:46:12Z</time>
      </trkpt>
      <trkpt lat="45.64618" lon="6.64789">
        <ele>2209</ele>
        <time>2022-07-26T12:46:13Z</time>
      </trkpt>
      <trkpt lat="45.64617" lon="6.64788">
        <ele>2208</ele>
        <time>2022-07-26T12:46:14Z</time>
      </trkpt>
      <trkpt lat="45.64617" lon="6.64786">
        <ele>2208</ele>
        <time>2022-07-26T12:46:15Z</time>
      </trkpt>
      <trkpt lat="45.64617" lon="6.64785">
        <ele>2208</ele>
        <time>2022-07-26T12:46:16Z</time>
      </trkpt>
      <trkpt lat="45.64616" lon="6.64784">
        <ele>2208</ele>
        <time>2022-07-26T12:46:17Z</time>
      </trkpt>
      <trkpt lat="45.64616" lon="6.64783">
        <ele>2208</ele>
        <time>2022-07-26T12:46:18Z</time>
      </trkpt>
      <trkpt lat="45.64615" lon="6.64783">
        <ele>2207</ele>
        <time>2022-07-26T12:46:19Z</time>
      </trkpt>
      <trkpt lat="45.64615" lon="6.64782">
        <ele>2207</ele>
        <time>2022-07-26T12:46:20Z</time>
      </trkpt>
      <trkpt lat="45.64614" lon="6.64781">
        <ele>2207</ele>
        <time>2022-07-26T12:46:21Z</time>
      </trkpt>
      <trkpt lat="45.64614" lon="6.6478">
        <ele>2207</ele>
        <time>2022-07-26T12:46:22Z</time>
      </trkpt>
      <trkpt lat="45.64613" lon="6.6478">
        <ele>2207</ele>
        <time>2022-07-26T12:46:23Z</time>
      </trkpt>
      <trkpt lat="45.64612" lon="6.64779">
        <ele>2206</ele>
        <time>2022-07-26T12:46:24Z</time>
      </trkpt>
      <trkpt lat="45.64612" lon="6.64778">
        <ele>2206</ele>
        <time>2022-07-26T12:46:25Z</time>
      </trkpt>
      <trkpt lat="45.64611" lon="6.64777">
        <ele>2205</ele>
        <time>2022-07-26T12:46:26Z</time>
      </trkpt>
      <trkpt lat="45.64611" lon="6.64776">
        <ele>2201</ele>
        <time>2022-07-26T12:46:41Z</time>
      </trkpt>
      <trkpt lat="45.64611" lon="6.64776">
        <ele>2201</ele>
        <time>2022-07-26T12:46:42Z</time>
      </trkpt>
      <trkpt lat="45.64611" lon="6.64775">
        <ele>2201</ele>
        <time>2022-07-26T12:46:43Z</time>
      </trkpt>
      <trkpt lat="45.64611" lon="6.64774">
        <ele>2200</ele>
        <time>2022-07-26T12:46:44Z</time>
      </trkpt>
      <trkpt lat="45.6461" lon="6.64773">
        <ele>2200</ele>
        <time>2022-07-26T12:46:45Z</time>
      </trkpt>
      <trkpt lat="45.6461" lon="6.64773">
        <ele>2200</ele>
        <time>2022-07-26T12:46:46Z</time>
      </trkpt>
      <trkpt lat="45.6461" lon="6.64773">
        <ele>2200</ele>
        <time>2022-07-26T12:46:47Z</time>
      </trkpt>
      <trkpt lat="45.6461" lon="6.64772">
        <ele>2200</ele>
        <time>2022-07-26T12:46:48Z</time>
      </trkpt>
      <trkpt lat="45.64609" lon="6.64772">
        <ele>2200</ele>
        <time>2022-07-26T12:46:49Z</time>
      </trkpt>
      <trkpt lat="45.64609" lon="6.64771">
        <ele>2200</ele>
        <time>2022-07-26T12:46:50Z</time>
      </trkpt>
      <trkpt lat="45.64609" lon="6.6477">
        <ele>2200</ele>
        <time>2022-07-26T12:46:51Z</time>
      </trkpt>
      <trkpt lat="45.64608" lon="6.64769">
        <ele>2200</ele>
        <time>2022-07-26T12:46:52Z</time>
      </trkpt>
      <trkpt lat="45.64608" lon="6.64768">
        <ele>2200</ele>
        <time>2022-07-26T12:46:53Z</time>
      </trkpt>
      <trkpt lat="45.64607" lon="6.64767">
        <ele>2199</ele>
        <time>2022-07-26T12:46:54Z</time>
      </trkpt>
      <trkpt lat="45.64607" lon="6.64766">
        <ele>2199</ele>
        <time>2022-07-26T12:46:55Z</time>
      </trkpt>
      <trkpt lat="45.64606" lon="6.64765">
        <ele>2199</ele>
        <time>2022-07-26T12:46:56Z</time>
      </trkpt>
      <trkpt lat="45.64605" lon="6.64764">
        <ele>2199</ele>
        <time>2022-07-26T12:46:57Z</time>
      </trkpt>
      <trkpt lat="45.64605" lon="6.64763">
        <ele>2199</ele>
        <time>2022-07-26T12:46:58Z</time>
      </trkpt>
      <trkpt lat="45.64604" lon="6.64762">
        <ele>2199</ele>
        <time>2022-07-26T12:46:59Z</time>
      </trkpt>
      <trkpt lat="45.64603" lon="6.64761">
        <ele>2199</ele>
        <time>2022-07-26T12:47:00Z</time>
      </trkpt>
      <trkpt lat="45.64603" lon="6.64761">
        <ele>2199</ele>
        <time>2022-07-26T12:47:01Z</time>
      </trkpt>
      <trkpt lat="45.64602" lon="6.6476">
        <ele>2199</ele>
        <time>2022-07-26T12:47:02Z</time>
      </trkpt>
      <trkpt lat="45.64602" lon="6.64759">
        <ele>2199</ele>
        <time>2022-07-26T12:47:03Z</time>
      </trkpt>
      <trkpt lat="45.64601" lon="6.64758">
        <ele>2198</ele>
        <time>2022-07-26T12:47:04Z</time>
      </trkpt>
      <trkpt lat="45.64601" lon="6.64757">
        <ele>2198</ele>
        <time>2022-07-26T12:47:05Z</time>
      </trkpt>
      <trkpt lat="45.646" lon="6.64756">
        <ele>2198</ele>
        <time>2022-07-26T12:47:06Z</time>
      </trkpt>
      <trkpt lat="45.64599" lon="6.64755">
        <ele>2197</ele>
        <time>2022-07-26T12:47:13Z</time>
      </trkpt>
      <trkpt lat="45.64599" lon="6.64755">
        <ele>2197</ele>
        <time>2022-07-26T12:47:14Z</time>
      </trkpt>
      <trkpt lat="45.64598" lon="6.64755">
        <ele>2197</ele>
        <time>2022-07-26T12:47:15Z</time>
      </trkpt>
      <trkpt lat="45.64598" lon="6.64755">
        <ele>2197</ele>
        <time>2022-07-26T12:47:16Z</time>
      </trkpt>
      <trkpt lat="45.64597" lon="6.64754">
        <ele>2197</ele>
        <time>2022-07-26T12:47:17Z</time>
      </trkpt>
      <trkpt lat="45.64597" lon="6.64754">
        <ele>2197</ele>
        <time>2022-07-26T12:47:18Z</time>
      </trkpt>
      <trkpt lat="45.64596" lon="6.64754">
        <ele>2196</ele>
        <time>2022-07-26T12:47:19Z</time>
      </trkpt>
      <trkpt lat="45.64596" lon="6.64753">
        <ele>2196</ele>
        <time>2022-07-26T12:47:20Z</time>
      </trkpt>
      <trkpt lat="45.64596" lon="6.64752">
        <ele>2196</ele>
        <time>2022-07-26T12:47:21Z</time>
      </trkpt>
      <trkpt lat="45.64595" lon="6.64752">
        <ele>2196</ele>
        <time>2022-07-26T12:47:22Z</time>
      </trkpt>
      <trkpt lat="45.64595" lon="6.64751">
        <ele>2196</ele>
        <time>2022-07-26T12:47:23Z</time>
      </trkpt>
      <trkpt lat="45.64595" lon="6.64751">
        <ele>2196</ele>
        <time>2022-07-26T12:47:24Z</time>
      </trkpt>
      <trkpt lat="45.64594" lon="6.6475">
        <ele>2196</ele>
        <time>2022-07-26T12:47:25Z</time>
      </trkpt>
      <trkpt lat="45.64594" lon="6.6475">
        <ele>2196</ele>
        <time>2022-07-26T12:47:26Z</time>
      </trkpt>
      <trkpt lat="45.64594" lon="6.64749">
        <ele>2196</ele>
        <time>2022-07-26T12:47:27Z</time>
      </trkpt>
      <trkpt lat="45.64594" lon="6.64749">
        <ele>2196</ele>
        <time>2022-07-26T12:47:28Z</time>
      </trkpt>
      <trkpt lat="45.64594" lon="6.64748">
        <ele>2195</ele>
        <time>2022-07-26T12:47:29Z</time>
      </trkpt>
      <trkpt lat="45.64594" lon="6.64747">
        <ele>2195</ele>
        <time>2022-07-26T12:47:30Z</time>
      </trkpt>
      <trkpt lat="45.64594" lon="6.64746">
        <ele>2195</ele>
        <time>2022-07-26T12:47:31Z</time>
      </trkpt>
      <trkpt lat="45.64594" lon="6.64746">
        <ele>2195</ele>
        <time>2022-07-26T12:47:32Z</time>
      </trkpt>
      <trkpt lat="45.64594" lon="6.64745">
        <ele>2195</ele>
        <time>2022-07-26T12:47:33Z</time>
      </trkpt>
      <trkpt lat="45.64594" lon="6.64744">
        <ele>2194</ele>
        <time>2022-07-26T12:47:34Z</time>
      </trkpt>
      <trkpt lat="45.64594" lon="6.64743">
        <ele>2194</ele>
        <time>2022-07-26T12:47:35Z</time>
      </trkpt>
      <trkpt lat="45.64594" lon="6.64743">
        <ele>2194</ele>
        <time>2022-07-26T12:47:36Z</time>
      </trkpt>
      <trkpt lat="45.64594" lon="6.64742">
        <ele>2194</ele>
        <time>2022-07-26T12:47:37Z</time>
      </trkpt>
      <trkpt lat="45.64594" lon="6.64741">
        <ele>2194</ele>
        <time>2022-07-26T12:47:38Z</time>
      </trkpt>
      <trkpt lat="45.64594" lon="6.6474">
        <ele>2193</ele>
        <time>2022-07-26T12:47:39Z</time>
      </trkpt>
      <trkpt lat="45.64594" lon="6.64738">
        <ele>2193</ele>
        <time>2022-07-26T12:47:40Z</time>
      </trkpt>
      <trkpt lat="45.64593" lon="6.64737">
        <ele>2193</ele>
        <time>2022-07-26T12:47:41Z</time>
      </trkpt>
      <trkpt lat="45.64593" lon="6.64736">
        <ele>2193</ele>
        <time>2022-07-26T12:47:42Z</time>
      </trkpt>
      <trkpt lat="45.64593" lon="6.64735">
        <ele>2193</ele>
        <time>2022-07-26T12:47:43Z</time>
      </trkpt>
      <trkpt lat="45.64592" lon="6.64734">
        <ele>2192</ele>
        <time>2022-07-26T12:47:44Z</time>
      </trkpt>
      <trkpt lat="45.64592" lon="6.64732">
        <ele>2192</ele>
        <time>2022-07-26T12:47:45Z</time>
      </trkpt>
      <trkpt lat="45.64591" lon="6.64731">
        <ele>2192</ele>
        <time>2022-07-26T12:47:46Z</time>
      </trkpt>
      <trkpt lat="45.64591" lon="6.6473">
        <ele>2192</ele>
        <time>2022-07-26T12:47:47Z</time>
      </trkpt>
      <trkpt lat="45.6459" lon="6.64729">
        <ele>2192</ele>
        <time>2022-07-26T12:47:48Z</time>
      </trkpt>
      <trkpt lat="45.64589" lon="6.64728">
        <ele>2191</ele>
        <time>2022-07-26T12:47:49Z</time>
      </trkpt>
      <trkpt lat="45.64589" lon="6.64727">
        <ele>2191</ele>
        <time>2022-07-26T12:47:50Z</time>
      </trkpt>
      <trkpt lat="45.64588" lon="6.64726">
        <ele>2191</ele>
        <time>2022-07-26T12:47:51Z</time>
      </trkpt>
      <trkpt lat="45.64587" lon="6.64726">
        <ele>2191</ele>
        <time>2022-07-26T12:47:52Z</time>
      </trkpt>
      <trkpt lat="45.64587" lon="6.64725">
        <ele>2191</ele>
        <time>2022-07-26T12:47:53Z</time>
      </trkpt>
      <trkpt lat="45.64586" lon="6.64724">
        <ele>2190</ele>
        <time>2022-07-26T12:47:54Z</time>
      </trkpt>
      <trkpt lat="45.64586" lon="6.64723">
        <ele>2190</ele>
        <time>2022-07-26T12:47:55Z</time>
      </trkpt>
      <trkpt lat="45.64586" lon="6.64722">
        <ele>2190</ele>
        <time>2022-07-26T12:47:56Z</time>
      </trkpt>
      <trkpt lat="45.64585" lon="6.64722">
        <ele>2190</ele>
        <time>2022-07-26T12:47:57Z</time>
      </trkpt>
      <trkpt lat="45.64585" lon="6.64721">
        <ele>2190</ele>
        <time>2022-07-26T12:47:58Z</time>
      </trkpt>
      <trkpt lat="45.64585" lon="6.6472">
        <ele>2189</ele>
        <time>2022-07-26T12:47:59Z</time>
      </trkpt>
      <trkpt lat="45.64584" lon="6.64719">
        <ele>2189</ele>
        <time>2022-07-26T12:48:00Z</time>
      </trkpt>
      <trkpt lat="45.64584" lon="6.64719">
        <ele>2189</ele>
        <time>2022-07-26T12:48:01Z</time>
      </trkpt>
      <trkpt lat="45.64584" lon="6.64718">
        <ele>2189</ele>
        <time>2022-07-26T12:48:02Z</time>
      </trkpt>
      <trkpt lat="45.64584" lon="6.64717">
        <ele>2189</ele>
        <time>2022-07-26T12:48:03Z</time>
      </trkpt>
      <trkpt lat="45.64583" lon="6.64716">
        <ele>2188</ele>
        <time>2022-07-26T12:48:04Z</time>
      </trkpt>
      <trkpt lat="45.64583" lon="6.64715">
        <ele>2188</ele>
        <time>2022-07-26T12:48:05Z</time>
      </trkpt>
      <trkpt lat="45.64583" lon="6.64714">
        <ele>2188</ele>
        <time>2022-07-26T12:48:06Z</time>
      </trkpt>
      <trkpt lat="45.64583" lon="6.64713">
        <ele>2188</ele>
        <time>2022-07-26T12:48:07Z</time>
      </trkpt>
      <trkpt lat="45.64583" lon="6.64712">
        <ele>2188</ele>
        <time>2022-07-26T12:48:08Z</time>
      </trkpt>
      <trkpt lat="45.64582" lon="6.64711">
        <ele>2187</ele>
        <time>2022-07-26T12:48:09Z</time>
      </trkpt>
      <trkpt lat="45.64582" lon="6.6471">
        <ele>2187</ele>
        <time>2022-07-26T12:48:10Z</time>
      </trkpt>
      <trkpt lat="45.64582" lon="6.64709">
        <ele>2186</ele>
        <time>2022-07-26T12:48:11Z</time>
      </trkpt>
      <trkpt lat="45.64582" lon="6.64709">
        <ele>2186</ele>
        <time>2022-07-26T12:48:12Z</time>
      </trkpt>
      <trkpt lat="45.64582" lon="6.64708">
        <ele>2186</ele>
        <time>2022-07-26T12:48:13Z</time>
      </trkpt>
      <trkpt lat="45.64582" lon="6.64707">
        <ele>2185</ele>
        <time>2022-07-26T12:48:14Z</time>
      </trkpt>
      <trkpt lat="45.64582" lon="6.64707">
        <ele>2185</ele>
        <time>2022-07-26T12:48:15Z</time>
      </trkpt>
      <trkpt lat="45.64583" lon="6.64706">
        <ele>2185</ele>
        <time>2022-07-26T12:48:16Z</time>
      </trkpt>
      <trkpt lat="45.64584" lon="6.64706">
        <ele>2181</ele>
        <time>2022-07-26T12:48:36Z</time>
      </trkpt>
      <trkpt lat="45.64584" lon="6.64705">
        <ele>2181</ele>
        <time>2022-07-26T12:48:37Z</time>
      </trkpt>
      <trkpt lat="45.64585" lon="6.64704">
        <ele>2181</ele>
        <time>2022-07-26T12:48:38Z</time>
      </trkpt>
      <trkpt lat="45.64585" lon="6.64704">
        <ele>2181</ele>
        <time>2022-07-26T12:48:39Z</time>
      </trkpt>
      <trkpt lat="45.64585" lon="6.64703">
        <ele>2181</ele>
        <time>2022-07-26T12:48:40Z</time>
      </trkpt>
      <trkpt lat="45.64585" lon="6.64702">
        <ele>2181</ele>
        <time>2022-07-26T12:48:41Z</time>
      </trkpt>
      <trkpt lat="45.64585" lon="6.64702">
        <ele>2181</ele>
        <time>2022-07-26T12:48:42Z</time>
      </trkpt>
      <trkpt lat="45.64586" lon="6.64701">
        <ele>2181</ele>
        <time>2022-07-26T12:48:43Z</time>
      </trkpt>
      <trkpt lat="45.64586" lon="6.64701">
        <ele>2181</ele>
        <time>2022-07-26T12:48:44Z</time>
      </trkpt>
      <trkpt lat="45.64587" lon="6.64701">
        <ele>2181</ele>
        <time>2022-07-26T12:48:45Z</time>
      </trkpt>
      <trkpt lat="45.64587" lon="6.64701">
        <ele>2181</ele>
        <time>2022-07-26T12:48:46Z</time>
      </trkpt>
      <trkpt lat="45.64588" lon="6.64701">
        <ele>2181</ele>
        <time>2022-07-26T12:48:47Z</time>
      </trkpt>
      <trkpt lat="45.64589" lon="6.64701">
        <ele>2181</ele>
        <time>2022-07-26T12:48:48Z</time>
      </trkpt>
      <trkpt lat="45.6459" lon="6.64701">
        <ele>2180</ele>
        <time>2022-07-26T12:48:49Z</time>
      </trkpt>
      <trkpt lat="45.6459" lon="6.64701">
        <ele>2180</ele>
        <time>2022-07-26T12:48:50Z</time>
      </trkpt>
      <trkpt lat="45.64591" lon="6.64701">
        <ele>2180</ele>
        <time>2022-07-26T12:48:51Z</time>
      </trkpt>
      <trkpt lat="45.64592" lon="6.64701">
        <ele>2180</ele>
        <time>2022-07-26T12:48:52Z</time>
      </trkpt>
      <trkpt lat="45.64593" lon="6.647">
        <ele>2180</ele>
        <time>2022-07-26T12:48:53Z</time>
      </trkpt>
      <trkpt lat="45.64593" lon="6.647">
        <ele>2179</ele>
        <time>2022-07-26T12:48:54Z</time>
      </trkpt>
      <trkpt lat="45.64594" lon="6.64699">
        <ele>2179</ele>
        <time>2022-07-26T12:48:55Z</time>
      </trkpt>
      <trkpt lat="45.64595" lon="6.64698">
        <ele>2179</ele>
        <time>2022-07-26T12:48:56Z</time>
      </trkpt>
      <trkpt lat="45.64596" lon="6.64696">
        <ele>2179</ele>
        <time>2022-07-26T12:48:57Z</time>
      </trkpt>
      <trkpt lat="45.64597" lon="6.64695">
        <ele>2179</ele>
        <time>2022-07-26T12:48:58Z</time>
      </trkpt>
      <trkpt lat="45.64598" lon="6.64694">
        <ele>2178</ele>
        <time>2022-07-26T12:48:59Z</time>
      </trkpt>
      <trkpt lat="45.64599" lon="6.64693">
        <ele>2178</ele>
        <time>2022-07-26T12:49:00Z</time>
      </trkpt>
      <trkpt lat="45.646" lon="6.64692">
        <ele>2178</ele>
        <time>2022-07-26T12:49:01Z</time>
      </trkpt>
      <trkpt lat="45.646" lon="6.64691">
        <ele>2178</ele>
        <time>2022-07-26T12:49:02Z</time>
      </trkpt>
      <trkpt lat="45.64601" lon="6.64689">
        <ele>2178</ele>
        <time>2022-07-26T12:49:03Z</time>
      </trkpt>
      <trkpt lat="45.64602" lon="6.64688">
        <ele>2177</ele>
        <time>2022-07-26T12:49:04Z</time>
      </trkpt>
      <trkpt lat="45.64602" lon="6.64687">
        <ele>2177</ele>
        <time>2022-07-26T12:49:05Z</time>
      </trkpt>
      <trkpt lat="45.64602" lon="6.64686">
        <ele>2177</ele>
        <time>2022-07-26T12:49:06Z</time>
      </trkpt>
      <trkpt lat="45.64602" lon="6.64685">
        <ele>2177</ele>
        <time>2022-07-26T12:49:07Z</time>
      </trkpt>
      <trkpt lat="45.64602" lon="6.64684">
        <ele>2177</ele>
        <time>2022-07-26T12:49:08Z</time>
      </trkpt>
      <trkpt lat="45.64601" lon="6.64683">
        <ele>2176</ele>
        <time>2022-07-26T12:49:09Z</time>
      </trkpt>
      <trkpt lat="45.646" lon="6.64682">
        <ele>2175</ele>
        <time>2022-07-26T12:49:10Z</time>
      </trkpt>
      <trkpt lat="45.64599" lon="6.6468">
        <ele>2175</ele>
        <time>2022-07-26T12:49:11Z</time>
      </trkpt>
      <trkpt lat="45.64598" lon="6.64679">
        <ele>2174</ele>
        <time>2022-07-26T12:49:12Z</time>
      </trkpt>
      <trkpt lat="45.64597" lon="6.64677">
        <ele>2174</ele>
        <time>2022-07-26T12:49:13Z</time>
      </trkpt>
      <trkpt lat="45.64597" lon="6.64676">
        <ele>2173</ele>
        <time>2022-07-26T12:49:14Z</time>
      </trkpt>
      <trkpt lat="45.64596" lon="6.64674">
        <ele>2173</ele>
        <time>2022-07-26T12:49:15Z</time>
      </trkpt>
      <trkpt lat="45.64596" lon="6.64673">
        <ele>2173</ele>
        <time>2022-07-26T12:49:16Z</time>
      </trkpt>
      <trkpt lat="45.64595" lon="6.64672">
        <ele>2173</ele>
        <time>2022-07-26T12:49:17Z</time>
      </trkpt>
      <trkpt lat="45.64595" lon="6.6467">
        <ele>2173</ele>
        <time>2022-07-26T12:49:18Z</time>
      </trkpt>
      <trkpt lat="45.64595" lon="6.64669">
        <ele>2172</ele>
        <time>2022-07-26T12:49:19Z</time>
      </trkpt>
      <trkpt lat="45.64594" lon="6.64668">
        <ele>2172</ele>
        <time>2022-07-26T12:49:20Z</time>
      </trkpt>
      <trkpt lat="45.64594" lon="6.64667">
        <ele>2172</ele>
        <time>2022-07-26T12:49:21Z</time>
      </trkpt>
      <trkpt lat="45.64594" lon="6.64666">
        <ele>2172</ele>
        <time>2022-07-26T12:49:22Z</time>
      </trkpt>
      <trkpt lat="45.64594" lon="6.64664">
        <ele>2172</ele>
        <time>2022-07-26T12:49:23Z</time>
      </trkpt>
      <trkpt lat="45.64594" lon="6.64663">
        <ele>2171</ele>
        <time>2022-07-26T12:49:24Z</time>
      </trkpt>
      <trkpt lat="45.64594" lon="6.64661">
        <ele>2171</ele>
        <time>2022-07-26T12:49:25Z</time>
      </trkpt>
      <trkpt lat="45.64593" lon="6.6466">
        <ele>2171</ele>
        <time>2022-07-26T12:49:26Z</time>
      </trkpt>
      <trkpt lat="45.64593" lon="6.64658">
        <ele>2171</ele>
        <time>2022-07-26T12:49:27Z</time>
      </trkpt>
      <trkpt lat="45.64593" lon="6.64656">
        <ele>2171</ele>
        <time>2022-07-26T12:49:28Z</time>
      </trkpt>
      <trkpt lat="45.64592" lon="6.64655">
        <ele>2170</ele>
        <time>2022-07-26T12:49:29Z</time>
      </trkpt>
      <trkpt lat="45.64592" lon="6.64653">
        <ele>2170</ele>
        <time>2022-07-26T12:49:30Z</time>
      </trkpt>
      <trkpt lat="45.64591" lon="6.64651">
        <ele>2170</ele>
        <time>2022-07-26T12:49:31Z</time>
      </trkpt>
      <trkpt lat="45.6459" lon="6.6465">
        <ele>2170</ele>
        <time>2022-07-26T12:49:32Z</time>
      </trkpt>
      <trkpt lat="45.6459" lon="6.64648">
        <ele>2170</ele>
        <time>2022-07-26T12:49:33Z</time>
      </trkpt>
      <trkpt lat="45.64589" lon="6.64647">
        <ele>2169</ele>
        <time>2022-07-26T12:49:34Z</time>
      </trkpt>
      <trkpt lat="45.64589" lon="6.64645">
        <ele>2169</ele>
        <time>2022-07-26T12:49:35Z</time>
      </trkpt>
      <trkpt lat="45.64588" lon="6.64644">
        <ele>2169</ele>
        <time>2022-07-26T12:49:36Z</time>
      </trkpt>
      <trkpt lat="45.64588" lon="6.64642">
        <ele>2169</ele>
        <time>2022-07-26T12:49:37Z</time>
      </trkpt>
      <trkpt lat="45.64587" lon="6.64641">
        <ele>2169</ele>
        <time>2022-07-26T12:49:38Z</time>
      </trkpt>
      <trkpt lat="45.64587" lon="6.64639">
        <ele>2168</ele>
        <time>2022-07-26T12:49:39Z</time>
      </trkpt>
      <trkpt lat="45.64587" lon="6.64638">
        <ele>2168</ele>
        <time>2022-07-26T12:49:40Z</time>
      </trkpt>
      <trkpt lat="45.64587" lon="6.64636">
        <ele>2168</ele>
        <time>2022-07-26T12:49:41Z</time>
      </trkpt>
      <trkpt lat="45.64587" lon="6.64634">
        <ele>2168</ele>
        <time>2022-07-26T12:49:42Z</time>
      </trkpt>
      <trkpt lat="45.64586" lon="6.64633">
        <ele>2168</ele>
        <time>2022-07-26T12:49:43Z</time>
      </trkpt>
      <trkpt lat="45.64586" lon="6.64631">
        <ele>2167</ele>
        <time>2022-07-26T12:49:44Z</time>
      </trkpt>
      <trkpt lat="45.64587" lon="6.64629">
        <ele>2167</ele>
        <time>2022-07-26T12:49:45Z</time>
      </trkpt>
      <trkpt lat="45.64587" lon="6.64628">
        <ele>2167</ele>
        <time>2022-07-26T12:49:46Z</time>
      </trkpt>
      <trkpt lat="45.64587" lon="6.64627">
        <ele>2167</ele>
        <time>2022-07-26T12:49:47Z</time>
      </trkpt>
      <trkpt lat="45.64587" lon="6.64625">
        <ele>2167</ele>
        <time>2022-07-26T12:49:48Z</time>
      </trkpt>
      <trkpt lat="45.64587" lon="6.64624">
        <ele>2166</ele>
        <time>2022-07-26T12:49:49Z</time>
      </trkpt>
      <trkpt lat="45.64587" lon="6.64623">
        <ele>2166</ele>
        <time>2022-07-26T12:49:50Z</time>
      </trkpt>
      <trkpt lat="45.64586" lon="6.64622">
        <ele>2166</ele>
        <time>2022-07-26T12:49:51Z</time>
      </trkpt>
      <trkpt lat="45.64586" lon="6.64621">
        <ele>2166</ele>
        <time>2022-07-26T12:49:52Z</time>
      </trkpt>
      <trkpt lat="45.64586" lon="6.6462">
        <ele>2166</ele>
        <time>2022-07-26T12:49:53Z</time>
      </trkpt>
      <trkpt lat="45.64586" lon="6.64618">
        <ele>2165</ele>
        <time>2022-07-26T12:49:54Z</time>
      </trkpt>
      <trkpt lat="45.64586" lon="6.64617">
        <ele>2165</ele>
        <time>2022-07-26T12:49:55Z</time>
      </trkpt>
      <trkpt lat="45.64586" lon="6.64615">
        <ele>2165</ele>
        <time>2022-07-26T12:49:56Z</time>
      </trkpt>
      <trkpt lat="45.64586" lon="6.64614">
        <ele>2165</ele>
        <time>2022-07-26T12:49:57Z</time>
      </trkpt>
      <trkpt lat="45.64587" lon="6.64613">
        <ele>2165</ele>
        <time>2022-07-26T12:49:58Z</time>
      </trkpt>
      <trkpt lat="45.64587" lon="6.64611">
        <ele>2164</ele>
        <time>2022-07-26T12:49:59Z</time>
      </trkpt>
      <trkpt lat="45.64588" lon="6.6461">
        <ele>2164</ele>
        <time>2022-07-26T12:50:00Z</time>
      </trkpt>
      <trkpt lat="45.64588" lon="6.64609">
        <ele>2164</ele>
        <time>2022-07-26T12:50:01Z</time>
      </trkpt>
      <trkpt lat="45.64589" lon="6.64608">
        <ele>2164</ele>
        <time>2022-07-26T12:50:02Z</time>
      </trkpt>
      <trkpt lat="45.64589" lon="6.64606">
        <ele>2164</ele>
        <time>2022-07-26T12:50:03Z</time>
      </trkpt>
      <trkpt lat="45.64589" lon="6.64605">
        <ele>2163</ele>
        <time>2022-07-26T12:50:04Z</time>
      </trkpt>
      <trkpt lat="45.6459" lon="6.64604">
        <ele>2163</ele>
        <time>2022-07-26T12:50:05Z</time>
      </trkpt>
      <trkpt lat="45.6459" lon="6.64603">
        <ele>2163</ele>
        <time>2022-07-26T12:50:06Z</time>
      </trkpt>
      <trkpt lat="45.6459" lon="6.64601">
        <ele>2163</ele>
        <time>2022-07-26T12:50:07Z</time>
      </trkpt>
      <trkpt lat="45.6459" lon="6.646">
        <ele>2163</ele>
        <time>2022-07-26T12:50:08Z</time>
      </trkpt>
      <trkpt lat="45.6459" lon="6.64599">
        <ele>2162</ele>
        <time>2022-07-26T12:50:09Z</time>
      </trkpt>
      <trkpt lat="45.6459" lon="6.64598">
        <ele>2162</ele>
        <time>2022-07-26T12:50:10Z</time>
      </trkpt>
      <trkpt lat="45.6459" lon="6.64596">
        <ele>2162</ele>
        <time>2022-07-26T12:50:11Z</time>
      </trkpt>
      <trkpt lat="45.64589" lon="6.64595">
        <ele>2162</ele>
        <time>2022-07-26T12:50:12Z</time>
      </trkpt>
      <trkpt lat="45.64588" lon="6.64594">
        <ele>2162</ele>
        <time>2022-07-26T12:50:13Z</time>
      </trkpt>
      <trkpt lat="45.64588" lon="6.64593">
        <ele>2161</ele>
        <time>2022-07-26T12:50:14Z</time>
      </trkpt>
      <trkpt lat="45.64587" lon="6.64592">
        <ele>2161</ele>
        <time>2022-07-26T12:50:15Z</time>
      </trkpt>
      <trkpt lat="45.64586" lon="6.6459">
        <ele>2161</ele>
        <time>2022-07-26T12:50:16Z</time>
      </trkpt>
      <trkpt lat="45.64585" lon="6.64588">
        <ele>2159</ele>
        <time>2022-07-26T12:50:28Z</time>
      </trkpt>
      <trkpt lat="45.64584" lon="6.64588">
        <ele>2159</ele>
        <time>2022-07-26T12:50:29Z</time>
      </trkpt>
      <trkpt lat="45.64584" lon="6.64588">
        <ele>2159</ele>
        <time>2022-07-26T12:50:30Z</time>
      </trkpt>
      <trkpt lat="45.64583" lon="6.64589">
        <ele>2159</ele>
        <time>2022-07-26T12:50:31Z</time>
      </trkpt>
      <trkpt lat="45.64583" lon="6.64589">
        <ele>2159</ele>
        <time>2022-07-26T12:50:32Z</time>
      </trkpt>
      <trkpt lat="45.64582" lon="6.6459">
        <ele>2159</ele>
        <time>2022-07-26T12:50:33Z</time>
      </trkpt>
      <trkpt lat="45.6458" lon="6.64591">
        <ele>2159</ele>
        <time>2022-07-26T12:50:34Z</time>
      </trkpt>
      <trkpt lat="45.64579" lon="6.64592">
        <ele>2159</ele>
        <time>2022-07-26T12:50:35Z</time>
      </trkpt>
      <trkpt lat="45.64578" lon="6.64593">
        <ele>2159</ele>
        <time>2022-07-26T12:50:36Z</time>
      </trkpt>
      <trkpt lat="45.64577" lon="6.64593">
        <ele>2159</ele>
        <time>2022-07-26T12:50:37Z</time>
      </trkpt>
      <trkpt lat="45.64576" lon="6.64594">
        <ele>2159</ele>
        <time>2022-07-26T12:50:38Z</time>
      </trkpt>
      <trkpt lat="45.64575" lon="6.64595">
        <ele>2159</ele>
        <time>2022-07-26T12:50:39Z</time>
      </trkpt>
      <trkpt lat="45.64573" lon="6.64595">
        <ele>2159</ele>
        <time>2022-07-26T12:50:40Z</time>
      </trkpt>
      <trkpt lat="45.64572" lon="6.64595">
        <ele>2159</ele>
        <time>2022-07-26T12:50:41Z</time>
      </trkpt>
      <trkpt lat="45.64571" lon="6.64595">
        <ele>2159</ele>
        <time>2022-07-26T12:50:42Z</time>
      </trkpt>
      <trkpt lat="45.6457" lon="6.64595">
        <ele>2159</ele>
        <time>2022-07-26T12:50:43Z</time>
      </trkpt>
      <trkpt lat="45.6457" lon="6.64595">
        <ele>2159</ele>
        <time>2022-07-26T12:50:44Z</time>
      </trkpt>
      <trkpt lat="45.64569" lon="6.64595">
        <ele>2159</ele>
        <time>2022-07-26T12:50:45Z</time>
      </trkpt>
      <trkpt lat="45.64568" lon="6.64596">
        <ele>2159</ele>
        <time>2022-07-26T12:50:46Z</time>
      </trkpt>
      <trkpt lat="45.64568" lon="6.64596">
        <ele>2159</ele>
        <time>2022-07-26T12:50:47Z</time>
      </trkpt>
      <trkpt lat="45.64567" lon="6.64596">
        <ele>2159</ele>
        <time>2022-07-26T12:50:48Z</time>
      </trkpt>
      <trkpt lat="45.64566" lon="6.64596">
        <ele>2159</ele>
        <time>2022-07-26T12:50:49Z</time>
      </trkpt>
      <trkpt lat="45.64566" lon="6.64595">
        <ele>2159</ele>
        <time>2022-07-26T12:50:50Z</time>
      </trkpt>
      <trkpt lat="45.64565" lon="6.64594">
        <ele>2159</ele>
        <time>2022-07-26T12:50:51Z</time>
      </trkpt>
      <trkpt lat="45.64564" lon="6.64593">
        <ele>2159</ele>
        <time>2022-07-26T12:50:52Z</time>
      </trkpt>
      <trkpt lat="45.64564" lon="6.64592">
        <ele>2159</ele>
        <time>2022-07-26T12:50:53Z</time>
      </trkpt>
      <trkpt lat="45.64563" lon="6.64591">
        <ele>2159</ele>
        <time>2022-07-26T12:50:54Z</time>
      </trkpt>
      <trkpt lat="45.64563" lon="6.6459">
        <ele>2159</ele>
        <time>2022-07-26T12:50:55Z</time>
      </trkpt>
      <trkpt lat="45.64563" lon="6.64589">
        <ele>2159</ele>
        <time>2022-07-26T12:50:56Z</time>
      </trkpt>
      <trkpt lat="45.64563" lon="6.64587">
        <ele>2159</ele>
        <time>2022-07-26T12:50:57Z</time>
      </trkpt>
      <trkpt lat="45.64563" lon="6.64586">
        <ele>2159</ele>
        <time>2022-07-26T12:50:58Z</time>
      </trkpt>
      <trkpt lat="45.64562" lon="6.64585">
        <ele>2159</ele>
        <time>2022-07-26T12:50:59Z</time>
      </trkpt>
      <trkpt lat="45.64562" lon="6.64583">
        <ele>2159</ele>
        <time>2022-07-26T12:51:00Z</time>
      </trkpt>
      <trkpt lat="45.64562" lon="6.64582">
        <ele>2159</ele>
        <time>2022-07-26T12:51:01Z</time>
      </trkpt>
      <trkpt lat="45.64561" lon="6.64581">
        <ele>2159</ele>
        <time>2022-07-26T12:51:02Z</time>
      </trkpt>
      <trkpt lat="45.64561" lon="6.64578">
        <ele>2159</ele>
        <time>2022-07-26T12:51:08Z</time>
      </trkpt>
      <trkpt lat="45.64561" lon="6.64577">
        <ele>2158</ele>
        <time>2022-07-26T12:51:09Z</time>
      </trkpt>
      <trkpt lat="45.6456" lon="6.64576">
        <ele>2158</ele>
        <time>2022-07-26T12:51:10Z</time>
      </trkpt>
      <trkpt lat="45.64561" lon="6.64575">
        <ele>2158</ele>
        <time>2022-07-26T12:51:11Z</time>
      </trkpt>
      <trkpt lat="45.64561" lon="6.64574">
        <ele>2158</ele>
        <time>2022-07-26T12:51:12Z</time>
      </trkpt>
      <trkpt lat="45.64561" lon="6.64572">
        <ele>2158</ele>
        <time>2022-07-26T12:51:13Z</time>
      </trkpt>
      <trkpt lat="45.64561" lon="6.64571">
        <ele>2157</ele>
        <time>2022-07-26T12:51:14Z</time>
      </trkpt>
      <trkpt lat="45.64561" lon="6.6457">
        <ele>2157</ele>
        <time>2022-07-26T12:51:15Z</time>
      </trkpt>
      <trkpt lat="45.64562" lon="6.64568">
        <ele>2157</ele>
        <time>2022-07-26T12:51:16Z</time>
      </trkpt>
      <trkpt lat="45.64562" lon="6.64567">
        <ele>2157</ele>
        <time>2022-07-26T12:51:17Z</time>
      </trkpt>
      <trkpt lat="45.64562" lon="6.64566">
        <ele>2157</ele>
        <time>2022-07-26T12:51:18Z</time>
      </trkpt>
      <trkpt lat="45.64562" lon="6.64565">
        <ele>2156</ele>
        <time>2022-07-26T12:51:19Z</time>
      </trkpt>
      <trkpt lat="45.64562" lon="6.64564">
        <ele>2156</ele>
        <time>2022-07-26T12:51:20Z</time>
      </trkpt>
      <trkpt lat="45.64562" lon="6.64563">
        <ele>2156</ele>
        <time>2022-07-26T12:51:21Z</time>
      </trkpt>
      <trkpt lat="45.64562" lon="6.64562">
        <ele>2156</ele>
        <time>2022-07-26T12:51:22Z</time>
      </trkpt>
      <trkpt lat="45.64561" lon="6.64561">
        <ele>2156</ele>
        <time>2022-07-26T12:51:23Z</time>
      </trkpt>
      <trkpt lat="45.64561" lon="6.64561">
        <ele>2155</ele>
        <time>2022-07-26T12:51:24Z</time>
      </trkpt>
      <trkpt lat="45.64561" lon="6.64561">
        <ele>2155</ele>
        <time>2022-07-26T12:51:25Z</time>
      </trkpt>
      <trkpt lat="45.64561" lon="6.6456">
        <ele>2155</ele>
        <time>2022-07-26T12:51:26Z</time>
      </trkpt>
      <trkpt lat="45.64561" lon="6.6456">
        <ele>2155</ele>
        <time>2022-07-26T12:51:27Z</time>
      </trkpt>
      <trkpt lat="45.64561" lon="6.64559">
        <ele>2155</ele>
        <time>2022-07-26T12:51:28Z</time>
      </trkpt>
      <trkpt lat="45.6456" lon="6.64558">
        <ele>2154</ele>
        <time>2022-07-26T12:51:29Z</time>
      </trkpt>
      <trkpt lat="45.6456" lon="6.64557">
        <ele>2154</ele>
        <time>2022-07-26T12:51:30Z</time>
      </trkpt>
      <trkpt lat="45.6456" lon="6.64556">
        <ele>2154</ele>
        <time>2022-07-26T12:51:31Z</time>
      </trkpt>
      <trkpt lat="45.6456" lon="6.64556">
        <ele>2154</ele>
        <time>2022-07-26T12:51:32Z</time>
      </trkpt>
      <trkpt lat="45.6456" lon="6.64555">
        <ele>2154</ele>
        <time>2022-07-26T12:51:33Z</time>
      </trkpt>
      <trkpt lat="45.6456" lon="6.64555">
        <ele>2153</ele>
        <time>2022-07-26T12:51:34Z</time>
      </trkpt>
      <trkpt lat="45.6456" lon="6.64555">
        <ele>2153</ele>
        <time>2022-07-26T12:51:35Z</time>
      </trkpt>
      <trkpt lat="45.6456" lon="6.64555">
        <ele>2153</ele>
        <time>2022-07-26T12:51:36Z</time>
      </trkpt>
      <trkpt lat="45.6456" lon="6.64554">
        <ele>2153</ele>
        <time>2022-07-26T12:51:37Z</time>
      </trkpt>
      <trkpt lat="45.6456" lon="6.64553">
        <ele>2153</ele>
        <time>2022-07-26T12:51:38Z</time>
      </trkpt>
      <trkpt lat="45.6456" lon="6.64552">
        <ele>2152</ele>
        <time>2022-07-26T12:51:39Z</time>
      </trkpt>
      <trkpt lat="45.64559" lon="6.64551">
        <ele>2152</ele>
        <time>2022-07-26T12:51:40Z</time>
      </trkpt>
      <trkpt lat="45.64559" lon="6.6455">
        <ele>2152</ele>
        <time>2022-07-26T12:51:41Z</time>
      </trkpt>
      <trkpt lat="45.64559" lon="6.64549">
        <ele>2152</ele>
        <time>2022-07-26T12:51:42Z</time>
      </trkpt>
      <trkpt lat="45.64558" lon="6.64548">
        <ele>2152</ele>
        <time>2022-07-26T12:51:43Z</time>
      </trkpt>
      <trkpt lat="45.64558" lon="6.64547">
        <ele>2152</ele>
        <time>2022-07-26T12:51:44Z</time>
      </trkpt>
      <trkpt lat="45.64557" lon="6.64547">
        <ele>2152</ele>
        <time>2022-07-26T12:51:45Z</time>
      </trkpt>
      <trkpt lat="45.64556" lon="6.64546">
        <ele>2152</ele>
        <time>2022-07-26T12:51:46Z</time>
      </trkpt>
      <trkpt lat="45.64556" lon="6.64545">
        <ele>2149</ele>
        <time>2022-07-26T12:52:05Z</time>
      </trkpt>
      <trkpt lat="45.64555" lon="6.64544">
        <ele>2149</ele>
        <time>2022-07-26T12:52:06Z</time>
      </trkpt>
      <trkpt lat="45.64555" lon="6.64543">
        <ele>2149</ele>
        <time>2022-07-26T12:52:07Z</time>
      </trkpt>
      <trkpt lat="45.64555" lon="6.64542">
        <ele>2149</ele>
        <time>2022-07-26T12:52:08Z</time>
      </trkpt>
      <trkpt lat="45.64554" lon="6.64542">
        <ele>2148</ele>
        <time>2022-07-26T12:52:09Z</time>
      </trkpt>
      <trkpt lat="45.64554" lon="6.64541">
        <ele>2148</ele>
        <time>2022-07-26T12:52:10Z</time>
      </trkpt>
      <trkpt lat="45.64554" lon="6.6454">
        <ele>2147</ele>
        <time>2022-07-26T12:52:11Z</time>
      </trkpt>
      <trkpt lat="45.64555" lon="6.64539">
        <ele>2147</ele>
        <time>2022-07-26T12:52:12Z</time>
      </trkpt>
      <trkpt lat="45.64555" lon="6.64538">
        <ele>2147</ele>
        <time>2022-07-26T12:52:13Z</time>
      </trkpt>
      <trkpt lat="45.64555" lon="6.64537">
        <ele>2147</ele>
        <time>2022-07-26T12:52:14Z</time>
      </trkpt>
      <trkpt lat="45.64556" lon="6.64536">
        <ele>2147</ele>
        <time>2022-07-26T12:52:15Z</time>
      </trkpt>
      <trkpt lat="45.64556" lon="6.64534">
        <ele>2147</ele>
        <time>2022-07-26T12:52:16Z</time>
      </trkpt>
      <trkpt lat="45.64556" lon="6.64533">
        <ele>2147</ele>
        <time>2022-07-26T12:52:17Z</time>
      </trkpt>
      <trkpt lat="45.64556" lon="6.64532">
        <ele>2147</ele>
        <time>2022-07-26T12:52:18Z</time>
      </trkpt>
      <trkpt lat="45.64557" lon="6.64531">
        <ele>2147</ele>
        <time>2022-07-26T12:52:19Z</time>
      </trkpt>
      <trkpt lat="45.64557" lon="6.6453">
        <ele>2147</ele>
        <time>2022-07-26T12:52:20Z</time>
      </trkpt>
      <trkpt lat="45.64557" lon="6.64528">
        <ele>2147</ele>
        <time>2022-07-26T12:52:21Z</time>
      </trkpt>
      <trkpt lat="45.64557" lon="6.64527">
        <ele>2147</ele>
        <time>2022-07-26T12:52:22Z</time>
      </trkpt>
      <trkpt lat="45.64557" lon="6.64526">
        <ele>2147</ele>
        <time>2022-07-26T12:52:23Z</time>
      </trkpt>
      <trkpt lat="45.64557" lon="6.64524">
        <ele>2146</ele>
        <time>2022-07-26T12:52:24Z</time>
      </trkpt>
      <trkpt lat="45.64557" lon="6.64523">
        <ele>2146</ele>
        <time>2022-07-26T12:52:25Z</time>
      </trkpt>
      <trkpt lat="45.64557" lon="6.64522">
        <ele>2146</ele>
        <time>2022-07-26T12:52:26Z</time>
      </trkpt>
      <trkpt lat="45.64557" lon="6.64521">
        <ele>2146</ele>
        <time>2022-07-26T12:52:27Z</time>
      </trkpt>
      <trkpt lat="45.64557" lon="6.64519">
        <ele>2146</ele>
        <time>2022-07-26T12:52:28Z</time>
      </trkpt>
      <trkpt lat="45.64557" lon="6.64517">
        <ele>2145</ele>
        <time>2022-07-26T12:52:29Z</time>
      </trkpt>
      <trkpt lat="45.64557" lon="6.64516">
        <ele>2145</ele>
        <time>2022-07-26T12:52:30Z</time>
      </trkpt>
      <trkpt lat="45.64557" lon="6.64514">
        <ele>2145</ele>
        <time>2022-07-26T12:52:31Z</time>
      </trkpt>
      <trkpt lat="45.64557" lon="6.64513">
        <ele>2145</ele>
        <time>2022-07-26T12:52:32Z</time>
      </trkpt>
      <trkpt lat="45.64557" lon="6.64512">
        <ele>2145</ele>
        <time>2022-07-26T12:52:33Z</time>
      </trkpt>
      <trkpt lat="45.64557" lon="6.64511">
        <ele>2141</ele>
        <time>2022-07-26T12:53:21Z</time>
      </trkpt>
      <trkpt lat="45.64556" lon="6.6451">
        <ele>2141</ele>
        <time>2022-07-26T12:53:22Z</time>
      </trkpt>
      <trkpt lat="45.64556" lon="6.64509">
        <ele>2141</ele>
        <time>2022-07-26T12:53:23Z</time>
      </trkpt>
      <trkpt lat="45.64556" lon="6.64507">
        <ele>2141</ele>
        <time>2022-07-26T12:53:24Z</time>
      </trkpt>
      <trkpt lat="45.64556" lon="6.64506">
        <ele>2141</ele>
        <time>2022-07-26T12:53:25Z</time>
      </trkpt>
      <trkpt lat="45.64556" lon="6.64504">
        <ele>2141</ele>
        <time>2022-07-26T12:53:26Z</time>
      </trkpt>
      <trkpt lat="45.64556" lon="6.64503">
        <ele>2141</ele>
        <time>2022-07-26T12:53:27Z</time>
      </trkpt>
      <trkpt lat="45.64555" lon="6.64501">
        <ele>2141</ele>
        <time>2022-07-26T12:53:28Z</time>
      </trkpt>
      <trkpt lat="45.64555" lon="6.645">
        <ele>2140</ele>
        <time>2022-07-26T12:53:29Z</time>
      </trkpt>
      <trkpt lat="45.64555" lon="6.64498">
        <ele>2140</ele>
        <time>2022-07-26T12:53:30Z</time>
      </trkpt>
      <trkpt lat="45.64555" lon="6.64497">
        <ele>2140</ele>
        <time>2022-07-26T12:53:31Z</time>
      </trkpt>
      <trkpt lat="45.64555" lon="6.64496">
        <ele>2140</ele>
        <time>2022-07-26T12:53:32Z</time>
      </trkpt>
      <trkpt lat="45.64555" lon="6.64496">
        <ele>2140</ele>
        <time>2022-07-26T12:53:33Z</time>
      </trkpt>
      <trkpt lat="45.64555" lon="6.64495">
        <ele>2140</ele>
        <time>2022-07-26T12:53:34Z</time>
      </trkpt>
      <trkpt lat="45.64555" lon="6.64495">
        <ele>2140</ele>
        <time>2022-07-26T12:53:35Z</time>
      </trkpt>
      <trkpt lat="45.64556" lon="6.64494">
        <ele>2140</ele>
        <time>2022-07-26T12:53:36Z</time>
      </trkpt>
      <trkpt lat="45.64556" lon="6.64493">
        <ele>2140</ele>
        <time>2022-07-26T12:53:37Z</time>
      </trkpt>
      <trkpt lat="45.64556" lon="6.64492">
        <ele>2140</ele>
        <time>2022-07-26T12:53:38Z</time>
      </trkpt>
      <trkpt lat="45.64556" lon="6.64492">
        <ele>2140</ele>
        <time>2022-07-26T12:53:39Z</time>
      </trkpt>
      <trkpt lat="45.64556" lon="6.64491">
        <ele>2140</ele>
        <time>2022-07-26T12:53:40Z</time>
      </trkpt>
      <trkpt lat="45.64556" lon="6.6449">
        <ele>2140</ele>
        <time>2022-07-26T12:53:41Z</time>
      </trkpt>
      <trkpt lat="45.64556" lon="6.64489">
        <ele>2140</ele>
        <time>2022-07-26T12:53:42Z</time>
      </trkpt>
      <trkpt lat="45.64556" lon="6.64488">
        <ele>2140</ele>
        <time>2022-07-26T12:53:43Z</time>
      </trkpt>
      <trkpt lat="45.64557" lon="6.64487">
        <ele>2140</ele>
        <time>2022-07-26T12:53:44Z</time>
      </trkpt>
      <trkpt lat="45.64557" lon="6.64486">
        <ele>2140</ele>
        <time>2022-07-26T12:53:45Z</time>
      </trkpt>
      <trkpt lat="45.64557" lon="6.64485">
        <ele>2140</ele>
        <time>2022-07-26T12:53:46Z</time>
      </trkpt>
      <trkpt lat="45.64557" lon="6.64484">
        <ele>2140</ele>
        <time>2022-07-26T12:53:47Z</time>
      </trkpt>
      <trkpt lat="45.64558" lon="6.64483">
        <ele>2140</ele>
        <time>2022-07-26T12:53:48Z</time>
      </trkpt>
      <trkpt lat="45.64558" lon="6.64481">
        <ele>2139</ele>
        <time>2022-07-26T12:53:49Z</time>
      </trkpt>
      <trkpt lat="45.64559" lon="6.6448">
        <ele>2139</ele>
        <time>2022-07-26T12:53:50Z</time>
      </trkpt>
      <trkpt lat="45.64559" lon="6.64479">
        <ele>2139</ele>
        <time>2022-07-26T12:53:51Z</time>
      </trkpt>
      <trkpt lat="45.64559" lon="6.64478">
        <ele>2139</ele>
        <time>2022-07-26T12:53:52Z</time>
      </trkpt>
      <trkpt lat="45.6456" lon="6.64477">
        <ele>2139</ele>
        <time>2022-07-26T12:53:53Z</time>
      </trkpt>
      <trkpt lat="45.6456" lon="6.64475">
        <ele>2138</ele>
        <time>2022-07-26T12:53:54Z</time>
      </trkpt>
      <trkpt lat="45.6456" lon="6.64474">
        <ele>2138</ele>
        <time>2022-07-26T12:53:55Z</time>
      </trkpt>
      <trkpt lat="45.64561" lon="6.64473">
        <ele>2138</ele>
        <time>2022-07-26T12:53:56Z</time>
      </trkpt>
      <trkpt lat="45.64561" lon="6.64472">
        <ele>2138</ele>
        <time>2022-07-26T12:53:57Z</time>
      </trkpt>
      <trkpt lat="45.64562" lon="6.64471">
        <ele>2138</ele>
        <time>2022-07-26T12:53:58Z</time>
      </trkpt>
      <trkpt lat="45.64563" lon="6.64471">
        <ele>2137</ele>
        <time>2022-07-26T12:53:59Z</time>
      </trkpt>
      <trkpt lat="45.64564" lon="6.6447">
        <ele>2137</ele>
        <time>2022-07-26T12:54:00Z</time>
      </trkpt>
      <trkpt lat="45.64564" lon="6.64469">
        <ele>2136</ele>
        <time>2022-07-26T12:54:01Z</time>
      </trkpt>
      <trkpt lat="45.64565" lon="6.64468">
        <ele>2136</ele>
        <time>2022-07-26T12:54:02Z</time>
      </trkpt>
      <trkpt lat="45.64565" lon="6.64468">
        <ele>2136</ele>
        <time>2022-07-26T12:54:03Z</time>
      </trkpt>
      <trkpt lat="45.64566" lon="6.64467">
        <ele>2135</ele>
        <time>2022-07-26T12:54:04Z</time>
      </trkpt>
      <trkpt lat="45.64566" lon="6.64466">
        <ele>2135</ele>
        <time>2022-07-26T12:54:05Z</time>
      </trkpt>
      <trkpt lat="45.64566" lon="6.64466">
        <ele>2135</ele>
        <time>2022-07-26T12:54:06Z</time>
      </trkpt>
      <trkpt lat="45.64567" lon="6.64465">
        <ele>2135</ele>
        <time>2022-07-26T12:54:07Z</time>
      </trkpt>
      <trkpt lat="45.64567" lon="6.64464">
        <ele>2135</ele>
        <time>2022-07-26T12:54:08Z</time>
      </trkpt>
      <trkpt lat="45.64567" lon="6.64463">
        <ele>2134</ele>
        <time>2022-07-26T12:54:09Z</time>
      </trkpt>
      <trkpt lat="45.64567" lon="6.64462">
        <ele>2134</ele>
        <time>2022-07-26T12:54:10Z</time>
      </trkpt>
      <trkpt lat="45.64566" lon="6.64461">
        <ele>2133</ele>
        <time>2022-07-26T12:54:11Z</time>
      </trkpt>
      <trkpt lat="45.64566" lon="6.6446">
        <ele>2133</ele>
        <time>2022-07-26T12:54:12Z</time>
      </trkpt>
      <trkpt lat="45.64566" lon="6.64459">
        <ele>2133</ele>
        <time>2022-07-26T12:54:13Z</time>
      </trkpt>
      <trkpt lat="45.64566" lon="6.64457">
        <ele>2132</ele>
        <time>2022-07-26T12:54:14Z</time>
      </trkpt>
      <trkpt lat="45.64566" lon="6.64456">
        <ele>2132</ele>
        <time>2022-07-26T12:54:15Z</time>
      </trkpt>
      <trkpt lat="45.64566" lon="6.64454">
        <ele>2132</ele>
        <time>2022-07-26T12:54:16Z</time>
      </trkpt>
      <trkpt lat="45.64565" lon="6.64453">
        <ele>2132</ele>
        <time>2022-07-26T12:54:17Z</time>
      </trkpt>
      <trkpt lat="45.64566" lon="6.64451">
        <ele>2132</ele>
        <time>2022-07-26T12:54:18Z</time>
      </trkpt>
      <trkpt lat="45.64566" lon="6.6445">
        <ele>2131</ele>
        <time>2022-07-26T12:54:19Z</time>
      </trkpt>
      <trkpt lat="45.64566" lon="6.64449">
        <ele>2131</ele>
        <time>2022-07-26T12:54:20Z</time>
      </trkpt>
      <trkpt lat="45.64566" lon="6.64448">
        <ele>2131</ele>
        <time>2022-07-26T12:54:21Z</time>
      </trkpt>
      <trkpt lat="45.64566" lon="6.64447">
        <ele>2131</ele>
        <time>2022-07-26T12:54:22Z</time>
      </trkpt>
      <trkpt lat="45.64566" lon="6.64446">
        <ele>2131</ele>
        <time>2022-07-26T12:54:23Z</time>
      </trkpt>
      <trkpt lat="45.64566" lon="6.64445">
        <ele>2130</ele>
        <time>2022-07-26T12:54:24Z</time>
      </trkpt>
      <trkpt lat="45.64567" lon="6.64444">
        <ele>2130</ele>
        <time>2022-07-26T12:54:25Z</time>
      </trkpt>
      <trkpt lat="45.64566" lon="6.64443">
        <ele>2130</ele>
        <time>2022-07-26T12:54:26Z</time>
      </trkpt>
      <trkpt lat="45.64566" lon="6.64442">
        <ele>2130</ele>
        <time>2022-07-26T12:54:27Z</time>
      </trkpt>
      <trkpt lat="45.64566" lon="6.64441">
        <ele>2130</ele>
        <time>2022-07-26T12:54:28Z</time>
      </trkpt>
      <trkpt lat="45.64566" lon="6.6444">
        <ele>2129</ele>
        <time>2022-07-26T12:54:29Z</time>
      </trkpt>
      <trkpt lat="45.64567" lon="6.64439">
        <ele>2129</ele>
        <time>2022-07-26T12:54:30Z</time>
      </trkpt>
      <trkpt lat="45.64567" lon="6.64438">
        <ele>2129</ele>
        <time>2022-07-26T12:54:31Z</time>
      </trkpt>
      <trkpt lat="45.64568" lon="6.64437">
        <ele>2129</ele>
        <time>2022-07-26T12:54:32Z</time>
      </trkpt>
      <trkpt lat="45.64568" lon="6.64436">
        <ele>2129</ele>
        <time>2022-07-26T12:54:33Z</time>
      </trkpt>
      <trkpt lat="45.64569" lon="6.64435">
        <ele>2128</ele>
        <time>2022-07-26T12:54:34Z</time>
      </trkpt>
      <trkpt lat="45.6457" lon="6.64435">
        <ele>2128</ele>
        <time>2022-07-26T12:54:35Z</time>
      </trkpt>
      <trkpt lat="45.6457" lon="6.64434">
        <ele>2126</ele>
        <time>2022-07-26T12:54:44Z</time>
      </trkpt>
      <trkpt lat="45.64571" lon="6.64434">
        <ele>2126</ele>
        <time>2022-07-26T12:54:45Z</time>
      </trkpt>
      <trkpt lat="45.64571" lon="6.64433">
        <ele>2126</ele>
        <time>2022-07-26T12:54:46Z</time>
      </trkpt>
      <trkpt lat="45.6457" lon="6.64431">
        <ele>2123</ele>
        <time>2022-07-26T12:56:54Z</time>
      </trkpt>
      <trkpt lat="45.6457" lon="6.6443">
        <ele>2123</ele>
        <time>2022-07-26T12:56:55Z</time>
      </trkpt>
      <trkpt lat="45.64569" lon="6.64428">
        <ele>2123</ele>
        <time>2022-07-26T12:56:56Z</time>
      </trkpt>
      <trkpt lat="45.64569" lon="6.64427">
        <ele>2123</ele>
        <time>2022-07-26T12:56:57Z</time>
      </trkpt>
      <trkpt lat="45.64568" lon="6.64426">
        <ele>2123</ele>
        <time>2022-07-26T12:56:58Z</time>
      </trkpt>
      <trkpt lat="45.64567" lon="6.64425">
        <ele>2123</ele>
        <time>2022-07-26T12:56:59Z</time>
      </trkpt>
      <trkpt lat="45.64566" lon="6.64424">
        <ele>2123</ele>
        <time>2022-07-26T12:57:00Z</time>
      </trkpt>
      <trkpt lat="45.64565" lon="6.64422">
        <ele>2123</ele>
        <time>2022-07-26T12:57:01Z</time>
      </trkpt>
      <trkpt lat="45.64564" lon="6.6442">
        <ele>2123</ele>
        <time>2022-07-26T12:57:02Z</time>
      </trkpt>
      <trkpt lat="45.64563" lon="6.64418">
        <ele>2123</ele>
        <time>2022-07-26T12:57:03Z</time>
      </trkpt>
      <trkpt lat="45.64562" lon="6.64416">
        <ele>2123</ele>
        <time>2022-07-26T12:57:04Z</time>
      </trkpt>
      <trkpt lat="45.64561" lon="6.64413">
        <ele>2123</ele>
        <time>2022-07-26T12:57:05Z</time>
      </trkpt>
      <trkpt lat="45.6456" lon="6.64411">
        <ele>2123</ele>
        <time>2022-07-26T12:57:06Z</time>
      </trkpt>
      <trkpt lat="45.6456" lon="6.64409">
        <ele>2123</ele>
        <time>2022-07-26T12:57:07Z</time>
      </trkpt>
      <trkpt lat="45.64559" lon="6.64407">
        <ele>2123</ele>
        <time>2022-07-26T12:57:08Z</time>
      </trkpt>
      <trkpt lat="45.64558" lon="6.64406">
        <ele>2122</ele>
        <time>2022-07-26T12:57:09Z</time>
      </trkpt>
      <trkpt lat="45.64557" lon="6.64404">
        <ele>2122</ele>
        <time>2022-07-26T12:57:10Z</time>
      </trkpt>
      <trkpt lat="45.64556" lon="6.64402">
        <ele>2122</ele>
        <time>2022-07-26T12:57:11Z</time>
      </trkpt>
      <trkpt lat="45.64555" lon="6.64401">
        <ele>2122</ele>
        <time>2022-07-26T12:57:12Z</time>
      </trkpt>
      <trkpt lat="45.64554" lon="6.644">
        <ele>2122</ele>
        <time>2022-07-26T12:57:13Z</time>
      </trkpt>
      <trkpt lat="45.64553" lon="6.64398">
        <ele>2122</ele>
        <time>2022-07-26T12:57:14Z</time>
      </trkpt>
      <trkpt lat="45.64552" lon="6.64397">
        <ele>2122</ele>
        <time>2022-07-26T12:57:15Z</time>
      </trkpt>
      <trkpt lat="45.64551" lon="6.64396">
        <ele>2122</ele>
        <time>2022-07-26T12:57:16Z</time>
      </trkpt>
      <trkpt lat="45.6455" lon="6.64394">
        <ele>2122</ele>
        <time>2022-07-26T12:57:17Z</time>
      </trkpt>
      <trkpt lat="45.64549" lon="6.64393">
        <ele>2122</ele>
        <time>2022-07-26T12:57:18Z</time>
      </trkpt>
      <trkpt lat="45.64548" lon="6.64391">
        <ele>2122</ele>
        <time>2022-07-26T12:57:19Z</time>
      </trkpt>
      <trkpt lat="45.64548" lon="6.64389">
        <ele>2122</ele>
        <time>2022-07-26T12:57:20Z</time>
      </trkpt>
      <trkpt lat="45.64547" lon="6.64387">
        <ele>2122</ele>
        <time>2022-07-26T12:57:21Z</time>
      </trkpt>
      <trkpt lat="45.64546" lon="6.64385">
        <ele>2122</ele>
        <time>2022-07-26T12:57:22Z</time>
      </trkpt>
      <trkpt lat="45.64545" lon="6.64383">
        <ele>2122</ele>
        <time>2022-07-26T12:57:23Z</time>
      </trkpt>
      <trkpt lat="45.64544" lon="6.64381">
        <ele>2121</ele>
        <time>2022-07-26T12:57:24Z</time>
      </trkpt>
      <trkpt lat="45.64543" lon="6.64379">
        <ele>2121</ele>
        <time>2022-07-26T12:57:25Z</time>
      </trkpt>
      <trkpt lat="45.64543" lon="6.64377">
        <ele>2120</ele>
        <time>2022-07-26T12:57:26Z</time>
      </trkpt>
      <trkpt lat="45.64542" lon="6.64375">
        <ele>2120</ele>
        <time>2022-07-26T12:57:27Z</time>
      </trkpt>
      <trkpt lat="45.64542" lon="6.64373">
        <ele>2120</ele>
        <time>2022-07-26T12:57:28Z</time>
      </trkpt>
      <trkpt lat="45.64541" lon="6.64372">
        <ele>2119</ele>
        <time>2022-07-26T12:57:29Z</time>
      </trkpt>
      <trkpt lat="45.64541" lon="6.6437">
        <ele>2119</ele>
        <time>2022-07-26T12:57:30Z</time>
      </trkpt>
      <trkpt lat="45.64541" lon="6.64368">
        <ele>2118</ele>
        <time>2022-07-26T12:57:54Z</time>
      </trkpt>
      <trkpt lat="45.64541" lon="6.64367">
        <ele>2118</ele>
        <time>2022-07-26T12:57:55Z</time>
      </trkpt>
      <trkpt lat="45.64541" lon="6.64367">
        <ele>2118</ele>
        <time>2022-07-26T12:57:56Z</time>
      </trkpt>
      <trkpt lat="45.64541" lon="6.64366">
        <ele>2118</ele>
        <time>2022-07-26T12:57:57Z</time>
      </trkpt>
      <trkpt lat="45.6454" lon="6.64366">
        <ele>2118</ele>
        <time>2022-07-26T12:57:58Z</time>
      </trkpt>
      <trkpt lat="45.6454" lon="6.64365">
        <ele>2118</ele>
        <time>2022-07-26T12:57:59Z</time>
      </trkpt>
      <trkpt lat="45.6454" lon="6.64364">
        <ele>2118</ele>
        <time>2022-07-26T12:58:00Z</time>
      </trkpt>
      <trkpt lat="45.64539" lon="6.64363">
        <ele>2118</ele>
        <time>2022-07-26T12:58:01Z</time>
      </trkpt>
      <trkpt lat="45.64539" lon="6.64362">
        <ele>2118</ele>
        <time>2022-07-26T12:58:02Z</time>
      </trkpt>
      <trkpt lat="45.64539" lon="6.6436">
        <ele>2118</ele>
        <time>2022-07-26T12:58:03Z</time>
      </trkpt>
      <trkpt lat="45.64538" lon="6.64359">
        <ele>2118</ele>
        <time>2022-07-26T12:58:04Z</time>
      </trkpt>
      <trkpt lat="45.64538" lon="6.64358">
        <ele>2118</ele>
        <time>2022-07-26T12:58:05Z</time>
      </trkpt>
      <trkpt lat="45.64537" lon="6.64357">
        <ele>2118</ele>
        <time>2022-07-26T12:58:06Z</time>
      </trkpt>
      <trkpt lat="45.64537" lon="6.64355">
        <ele>2118</ele>
        <time>2022-07-26T12:58:07Z</time>
      </trkpt>
      <trkpt lat="45.64537" lon="6.64354">
        <ele>2118</ele>
        <time>2022-07-26T12:58:08Z</time>
      </trkpt>
      <trkpt lat="45.64537" lon="6.64352">
        <ele>2117</ele>
        <time>2022-07-26T12:58:09Z</time>
      </trkpt>
      <trkpt lat="45.64536" lon="6.64351">
        <ele>2117</ele>
        <time>2022-07-26T12:58:10Z</time>
      </trkpt>
      <trkpt lat="45.64536" lon="6.64349">
        <ele>2117</ele>
        <time>2022-07-26T12:58:11Z</time>
      </trkpt>
      <trkpt lat="45.64536" lon="6.64348">
        <ele>2117</ele>
        <time>2022-07-26T12:58:12Z</time>
      </trkpt>
      <trkpt lat="45.64536" lon="6.64346">
        <ele>2117</ele>
        <time>2022-07-26T12:58:13Z</time>
      </trkpt>
      <trkpt lat="45.64536" lon="6.64344">
        <ele>2117</ele>
        <time>2022-07-26T12:58:14Z</time>
      </trkpt>
      <trkpt lat="45.64536" lon="6.64343">
        <ele>2117</ele>
        <time>2022-07-26T12:58:15Z</time>
      </trkpt>
      <trkpt lat="45.64536" lon="6.64341">
        <ele>2117</ele>
        <time>2022-07-26T12:58:16Z</time>
      </trkpt>
      <trkpt lat="45.64535" lon="6.64339">
        <ele>2117</ele>
        <time>2022-07-26T12:58:17Z</time>
      </trkpt>
      <trkpt lat="45.64535" lon="6.64337">
        <ele>2117</ele>
        <time>2022-07-26T12:58:18Z</time>
      </trkpt>
      <trkpt lat="45.64535" lon="6.64335">
        <ele>2116</ele>
        <time>2022-07-26T12:58:19Z</time>
      </trkpt>
      <trkpt lat="45.64535" lon="6.64334">
        <ele>2116</ele>
        <time>2022-07-26T12:58:20Z</time>
      </trkpt>
      <trkpt lat="45.64535" lon="6.64332">
        <ele>2116</ele>
        <time>2022-07-26T12:58:21Z</time>
      </trkpt>
      <trkpt lat="45.64535" lon="6.6433">
        <ele>2116</ele>
        <time>2022-07-26T12:58:22Z</time>
      </trkpt>
      <trkpt lat="45.64535" lon="6.64329">
        <ele>2116</ele>
        <time>2022-07-26T12:58:23Z</time>
      </trkpt>
      <trkpt lat="45.64534" lon="6.64327">
        <ele>2116</ele>
        <time>2022-07-26T12:58:24Z</time>
      </trkpt>
      <trkpt lat="45.64534" lon="6.64326">
        <ele>2116</ele>
        <time>2022-07-26T12:58:25Z</time>
      </trkpt>
      <trkpt lat="45.64534" lon="6.64324">
        <ele>2116</ele>
        <time>2022-07-26T12:58:26Z</time>
      </trkpt>
      <trkpt lat="45.64534" lon="6.64323">
        <ele>2116</ele>
        <time>2022-07-26T12:58:27Z</time>
      </trkpt>
      <trkpt lat="45.64534" lon="6.64322">
        <ele>2116</ele>
        <time>2022-07-26T12:58:28Z</time>
      </trkpt>
      <trkpt lat="45.64533" lon="6.6432">
        <ele>2115</ele>
        <time>2022-07-26T12:58:29Z</time>
      </trkpt>
      <trkpt lat="45.64533" lon="6.64319">
        <ele>2115</ele>
        <time>2022-07-26T12:58:30Z</time>
      </trkpt>
      <trkpt lat="45.64533" lon="6.64318">
        <ele>2115</ele>
        <time>2022-07-26T12:58:31Z</time>
      </trkpt>
      <trkpt lat="45.64533" lon="6.64316">
        <ele>2115</ele>
        <time>2022-07-26T12:58:32Z</time>
      </trkpt>
      <trkpt lat="45.64533" lon="6.64315">
        <ele>2115</ele>
        <time>2022-07-26T12:58:33Z</time>
      </trkpt>
      <trkpt lat="45.64533" lon="6.64313">
        <ele>2114</ele>
        <time>2022-07-26T12:58:34Z</time>
      </trkpt>
      <trkpt lat="45.64533" lon="6.64312">
        <ele>2114</ele>
        <time>2022-07-26T12:58:35Z</time>
      </trkpt>
      <trkpt lat="45.64533" lon="6.6431">
        <ele>2114</ele>
        <time>2022-07-26T12:58:36Z</time>
      </trkpt>
      <trkpt lat="45.64532" lon="6.64309">
        <ele>2114</ele>
        <time>2022-07-26T12:58:37Z</time>
      </trkpt>
      <trkpt lat="45.64532" lon="6.64307">
        <ele>2114</ele>
        <time>2022-07-26T12:58:38Z</time>
      </trkpt>
      <trkpt lat="45.64532" lon="6.64305">
        <ele>2114</ele>
        <time>2022-07-26T12:58:39Z</time>
      </trkpt>
      <trkpt lat="45.64531" lon="6.64304">
        <ele>2114</ele>
        <time>2022-07-26T12:58:40Z</time>
      </trkpt>
      <trkpt lat="45.6453" lon="6.64302">
        <ele>2114</ele>
        <time>2022-07-26T12:58:41Z</time>
      </trkpt>
      <trkpt lat="45.6453" lon="6.64301">
        <ele>2114</ele>
        <time>2022-07-26T12:58:42Z</time>
      </trkpt>
      <trkpt lat="45.64529" lon="6.64299">
        <ele>2114</ele>
        <time>2022-07-26T12:58:43Z</time>
      </trkpt>
      <trkpt lat="45.64528" lon="6.64298">
        <ele>2113</ele>
        <time>2022-07-26T12:58:44Z</time>
      </trkpt>
      <trkpt lat="45.64527" lon="6.64297">
        <ele>2113</ele>
        <time>2022-07-26T12:58:45Z</time>
      </trkpt>
      <trkpt lat="45.64526" lon="6.64295">
        <ele>2113</ele>
        <time>2022-07-26T12:58:46Z</time>
      </trkpt>
      <trkpt lat="45.64525" lon="6.64294">
        <ele>2113</ele>
        <time>2022-07-26T12:58:47Z</time>
      </trkpt>
      <trkpt lat="45.64524" lon="6.64293">
        <ele>2113</ele>
        <time>2022-07-26T12:58:48Z</time>
      </trkpt>
      <trkpt lat="45.64524" lon="6.64292">
        <ele>2113</ele>
        <time>2022-07-26T12:58:49Z</time>
      </trkpt>
      <trkpt lat="45.64523" lon="6.64291">
        <ele>2113</ele>
        <time>2022-07-26T12:58:50Z</time>
      </trkpt>
      <trkpt lat="45.64522" lon="6.6429">
        <ele>2113</ele>
        <time>2022-07-26T12:58:51Z</time>
      </trkpt>
      <trkpt lat="45.64521" lon="6.64288">
        <ele>2113</ele>
        <time>2022-07-26T12:58:52Z</time>
      </trkpt>
      <trkpt lat="45.6452" lon="6.64287">
        <ele>2113</ele>
        <time>2022-07-26T12:58:53Z</time>
      </trkpt>
      <trkpt lat="45.64519" lon="6.64286">
        <ele>2113</ele>
        <time>2022-07-26T12:58:54Z</time>
      </trkpt>
      <trkpt lat="45.64518" lon="6.64284">
        <ele>2113</ele>
        <time>2022-07-26T12:58:55Z</time>
      </trkpt>
      <trkpt lat="45.64518" lon="6.64282">
        <ele>2113</ele>
        <time>2022-07-26T12:58:56Z</time>
      </trkpt>
      <trkpt lat="45.64517" lon="6.64281">
        <ele>2113</ele>
        <time>2022-07-26T12:58:57Z</time>
      </trkpt>
      <trkpt lat="45.64516" lon="6.64279">
        <ele>2113</ele>
        <time>2022-07-26T12:58:58Z</time>
      </trkpt>
      <trkpt lat="45.64516" lon="6.64277">
        <ele>2112</ele>
        <time>2022-07-26T12:58:59Z</time>
      </trkpt>
      <trkpt lat="45.64515" lon="6.64275">
        <ele>2112</ele>
        <time>2022-07-26T12:59:00Z</time>
      </trkpt>
      <trkpt lat="45.64515" lon="6.64273">
        <ele>2112</ele>
        <time>2022-07-26T12:59:01Z</time>
      </trkpt>
      <trkpt lat="45.64514" lon="6.64272">
        <ele>2112</ele>
        <time>2022-07-26T12:59:02Z</time>
      </trkpt>
      <trkpt lat="45.64514" lon="6.6427">
        <ele>2112</ele>
        <time>2022-07-26T12:59:03Z</time>
      </trkpt>
      <trkpt lat="45.64513" lon="6.64268">
        <ele>2112</ele>
        <time>2022-07-26T12:59:04Z</time>
      </trkpt>
      <trkpt lat="45.64513" lon="6.64266">
        <ele>2112</ele>
        <time>2022-07-26T12:59:05Z</time>
      </trkpt>
      <trkpt lat="45.64512" lon="6.64265">
        <ele>2112</ele>
        <time>2022-07-26T12:59:06Z</time>
      </trkpt>
      <trkpt lat="45.64512" lon="6.64263">
        <ele>2112</ele>
        <time>2022-07-26T12:59:07Z</time>
      </trkpt>
      <trkpt lat="45.64512" lon="6.64262">
        <ele>2112</ele>
        <time>2022-07-26T12:59:08Z</time>
      </trkpt>
      <trkpt lat="45.64511" lon="6.6426">
        <ele>2112</ele>
        <time>2022-07-26T12:59:09Z</time>
      </trkpt>
      <trkpt lat="45.64511" lon="6.64259">
        <ele>2112</ele>
        <time>2022-07-26T12:59:10Z</time>
      </trkpt>
      <trkpt lat="45.6451" lon="6.64258">
        <ele>2112</ele>
        <time>2022-07-26T12:59:11Z</time>
      </trkpt>
      <trkpt lat="45.64509" lon="6.64257">
        <ele>2112</ele>
        <time>2022-07-26T12:59:12Z</time>
      </trkpt>
      <trkpt lat="45.64509" lon="6.64255">
        <ele>2112</ele>
        <time>2022-07-26T12:59:13Z</time>
      </trkpt>
      <trkpt lat="45.64508" lon="6.64254">
        <ele>2112</ele>
        <time>2022-07-26T12:59:14Z</time>
      </trkpt>
      <trkpt lat="45.64507" lon="6.64253">
        <ele>2112</ele>
        <time>2022-07-26T12:59:15Z</time>
      </trkpt>
      <trkpt lat="45.64506" lon="6.64252">
        <ele>2112</ele>
        <time>2022-07-26T12:59:16Z</time>
      </trkpt>
      <trkpt lat="45.64505" lon="6.64251">
        <ele>2112</ele>
        <time>2022-07-26T12:59:17Z</time>
      </trkpt>
      <trkpt lat="45.64504" lon="6.6425">
        <ele>2112</ele>
        <time>2022-07-26T12:59:18Z</time>
      </trkpt>
      <trkpt lat="45.64503" lon="6.64249">
        <ele>2112</ele>
        <time>2022-07-26T12:59:19Z</time>
      </trkpt>
      <trkpt lat="45.64502" lon="6.64248">
        <ele>2112</ele>
        <time>2022-07-26T12:59:20Z</time>
      </trkpt>
      <trkpt lat="45.64502" lon="6.64247">
        <ele>2112</ele>
        <time>2022-07-26T12:59:21Z</time>
      </trkpt>
      <trkpt lat="45.64501" lon="6.64246">
        <ele>2112</ele>
        <time>2022-07-26T12:59:22Z</time>
      </trkpt>
      <trkpt lat="45.645" lon="6.64245">
        <ele>2112</ele>
        <time>2022-07-26T12:59:23Z</time>
      </trkpt>
      <trkpt lat="45.64499" lon="6.64244">
        <ele>2112</ele>
        <time>2022-07-26T12:59:24Z</time>
      </trkpt>
      <trkpt lat="45.64498" lon="6.64243">
        <ele>2112</ele>
        <time>2022-07-26T12:59:25Z</time>
      </trkpt>
      <trkpt lat="45.64497" lon="6.64242">
        <ele>2112</ele>
        <time>2022-07-26T12:59:26Z</time>
      </trkpt>
      <trkpt lat="45.64496" lon="6.64241">
        <ele>2112</ele>
        <time>2022-07-26T12:59:27Z</time>
      </trkpt>
      <trkpt lat="45.64495" lon="6.6424">
        <ele>2112</ele>
        <time>2022-07-26T12:59:28Z</time>
      </trkpt>
      <trkpt lat="45.64494" lon="6.64239">
        <ele>2112</ele>
        <time>2022-07-26T12:59:29Z</time>
      </trkpt>
      <trkpt lat="45.64494" lon="6.64238">
        <ele>2112</ele>
        <time>2022-07-26T12:59:30Z</time>
      </trkpt>
      <trkpt lat="45.64493" lon="6.64237">
        <ele>2112</ele>
        <time>2022-07-26T12:59:31Z</time>
      </trkpt>
      <trkpt lat="45.64492" lon="6.64236">
        <ele>2112</ele>
        <time>2022-07-26T12:59:32Z</time>
      </trkpt>
      <trkpt lat="45.64491" lon="6.64235">
        <ele>2112</ele>
        <time>2022-07-26T12:59:33Z</time>
      </trkpt>
      <trkpt lat="45.6449" lon="6.64234">
        <ele>2112</ele>
        <time>2022-07-26T12:59:34Z</time>
      </trkpt>
      <trkpt lat="45.64489" lon="6.64233">
        <ele>2112</ele>
        <time>2022-07-26T12:59:35Z</time>
      </trkpt>
      <trkpt lat="45.64488" lon="6.64232">
        <ele>2112</ele>
        <time>2022-07-26T12:59:36Z</time>
      </trkpt>
      <trkpt lat="45.64488" lon="6.64231">
        <ele>2112</ele>
        <time>2022-07-26T12:59:37Z</time>
      </trkpt>
      <trkpt lat="45.64487" lon="6.6423">
        <ele>2112</ele>
        <time>2022-07-26T12:59:38Z</time>
      </trkpt>
      <trkpt lat="45.64486" lon="6.64229">
        <ele>2112</ele>
        <time>2022-07-26T12:59:39Z</time>
      </trkpt>
      <trkpt lat="45.64485" lon="6.64228">
        <ele>2112</ele>
        <time>2022-07-26T12:59:40Z</time>
      </trkpt>
      <trkpt lat="45.64484" lon="6.64227">
        <ele>2112</ele>
        <time>2022-07-26T12:59:41Z</time>
      </trkpt>
      <trkpt lat="45.64483" lon="6.64226">
        <ele>2112</ele>
        <time>2022-07-26T12:59:42Z</time>
      </trkpt>
      <trkpt lat="45.64482" lon="6.64225">
        <ele>2112</ele>
        <time>2022-07-26T12:59:43Z</time>
      </trkpt>
      <trkpt lat="45.64481" lon="6.64224">
        <ele>2112</ele>
        <time>2022-07-26T12:59:44Z</time>
      </trkpt>
      <trkpt lat="45.6448" lon="6.64223">
        <ele>2112</ele>
        <time>2022-07-26T12:59:45Z</time>
      </trkpt>
      <trkpt lat="45.6448" lon="6.64222">
        <ele>2112</ele>
        <time>2022-07-26T12:59:46Z</time>
      </trkpt>
      <trkpt lat="45.64479" lon="6.64222">
        <ele>2112</ele>
        <time>2022-07-26T12:59:47Z</time>
      </trkpt>
      <trkpt lat="45.64479" lon="6.64221">
        <ele>2113</ele>
        <time>2022-07-26T12:59:48Z</time>
      </trkpt>
      <trkpt lat="45.64478" lon="6.6422">
        <ele>2113</ele>
        <time>2022-07-26T12:59:49Z</time>
      </trkpt>
      <trkpt lat="45.64477" lon="6.64219">
        <ele>2113</ele>
        <time>2022-07-26T12:59:50Z</time>
      </trkpt>
      <trkpt lat="45.64477" lon="6.64219">
        <ele>2113</ele>
        <time>2022-07-26T12:59:51Z</time>
      </trkpt>
      <trkpt lat="45.64476" lon="6.64218">
        <ele>2113</ele>
        <time>2022-07-26T12:59:52Z</time>
      </trkpt>
      <trkpt lat="45.64475" lon="6.64217">
        <ele>2113</ele>
        <time>2022-07-26T12:59:53Z</time>
      </trkpt>
      <trkpt lat="45.64475" lon="6.64217">
        <ele>2113</ele>
        <time>2022-07-26T12:59:54Z</time>
      </trkpt>
      <trkpt lat="45.64474" lon="6.64216">
        <ele>2113</ele>
        <time>2022-07-26T12:59:55Z</time>
      </trkpt>
      <trkpt lat="45.64473" lon="6.64215">
        <ele>2113</ele>
        <time>2022-07-26T12:59:56Z</time>
      </trkpt>
      <trkpt lat="45.64472" lon="6.64215">
        <ele>2113</ele>
        <time>2022-07-26T12:59:57Z</time>
      </trkpt>
      <trkpt lat="45.64471" lon="6.64214">
        <ele>2113</ele>
        <time>2022-07-26T12:59:58Z</time>
      </trkpt>
      <trkpt lat="45.6447" lon="6.64213">
        <ele>2113</ele>
        <time>2022-07-26T12:59:59Z</time>
      </trkpt>
      <trkpt lat="45.6447" lon="6.64212">
        <ele>2113</ele>
        <time>2022-07-26T13:00:00Z</time>
      </trkpt>
      <trkpt lat="45.64469" lon="6.64211">
        <ele>2113</ele>
        <time>2022-07-26T13:00:01Z</time>
      </trkpt>
      <trkpt lat="45.64468" lon="6.6421">
        <ele>2113</ele>
        <time>2022-07-26T13:00:02Z</time>
      </trkpt>
      <trkpt lat="45.64467" lon="6.64209">
        <ele>2113</ele>
        <time>2022-07-26T13:00:03Z</time>
      </trkpt>
      <trkpt lat="45.64467" lon="6.64209">
        <ele>2113</ele>
        <time>2022-07-26T13:00:04Z</time>
      </trkpt>
      <trkpt lat="45.64466" lon="6.64208">
        <ele>2113</ele>
        <time>2022-07-26T13:00:05Z</time>
      </trkpt>
      <trkpt lat="45.64465" lon="6.64207">
        <ele>2113</ele>
        <time>2022-07-26T13:00:06Z</time>
      </trkpt>
      <trkpt lat="45.64463" lon="6.64207">
        <ele>2113</ele>
        <time>2022-07-26T13:00:07Z</time>
      </trkpt>
      <trkpt lat="45.64462" lon="6.64206">
        <ele>2113</ele>
        <time>2022-07-26T13:00:08Z</time>
      </trkpt>
      <trkpt lat="45.64461" lon="6.64205">
        <ele>2113</ele>
        <time>2022-07-26T13:00:09Z</time>
      </trkpt>
      <trkpt lat="45.6446" lon="6.64204">
        <ele>2113</ele>
        <time>2022-07-26T13:00:10Z</time>
      </trkpt>
      <trkpt lat="45.64459" lon="6.64203">
        <ele>2113</ele>
        <time>2022-07-26T13:00:11Z</time>
      </trkpt>
      <trkpt lat="45.64458" lon="6.64203">
        <ele>2113</ele>
        <time>2022-07-26T13:00:12Z</time>
      </trkpt>
      <trkpt lat="45.64457" lon="6.64202">
        <ele>2113</ele>
        <time>2022-07-26T13:00:13Z</time>
      </trkpt>
      <trkpt lat="45.64456" lon="6.64201">
        <ele>2113</ele>
        <time>2022-07-26T13:00:14Z</time>
      </trkpt>
      <trkpt lat="45.64455" lon="6.642">
        <ele>2113</ele>
        <time>2022-07-26T13:00:15Z</time>
      </trkpt>
      <trkpt lat="45.64454" lon="6.64199">
        <ele>2113</ele>
        <time>2022-07-26T13:00:16Z</time>
      </trkpt>
      <trkpt lat="45.64453" lon="6.64198">
        <ele>2113</ele>
        <time>2022-07-26T13:00:17Z</time>
      </trkpt>
      <trkpt lat="45.64453" lon="6.64197">
        <ele>2114</ele>
        <time>2022-07-26T13:00:18Z</time>
      </trkpt>
      <trkpt lat="45.64452" lon="6.64196">
        <ele>2114</ele>
        <time>2022-07-26T13:00:19Z</time>
      </trkpt>
      <trkpt lat="45.64451" lon="6.64195">
        <ele>2114</ele>
        <time>2022-07-26T13:00:20Z</time>
      </trkpt>
      <trkpt lat="45.6445" lon="6.64194">
        <ele>2114</ele>
        <time>2022-07-26T13:00:21Z</time>
      </trkpt>
      <trkpt lat="45.64449" lon="6.64193">
        <ele>2114</ele>
        <time>2022-07-26T13:00:22Z</time>
      </trkpt>
      <trkpt lat="45.64448" lon="6.64192">
        <ele>2114</ele>
        <time>2022-07-26T13:00:23Z</time>
      </trkpt>
      <trkpt lat="45.64447" lon="6.64191">
        <ele>2114</ele>
        <time>2022-07-26T13:00:24Z</time>
      </trkpt>
      <trkpt lat="45.64446" lon="6.6419">
        <ele>2114</ele>
        <time>2022-07-26T13:00:25Z</time>
      </trkpt>
      <trkpt lat="45.64446" lon="6.64189">
        <ele>2114</ele>
        <time>2022-07-26T13:00:26Z</time>
      </trkpt>
      <trkpt lat="45.64445" lon="6.64188">
        <ele>2114</ele>
        <time>2022-07-26T13:00:27Z</time>
      </trkpt>
      <trkpt lat="45.64444" lon="6.64187">
        <ele>2114</ele>
        <time>2022-07-26T13:00:28Z</time>
      </trkpt>
      <trkpt lat="45.64443" lon="6.64186">
        <ele>2114</ele>
        <time>2022-07-26T13:00:29Z</time>
      </trkpt>
      <trkpt lat="45.64442" lon="6.64186">
        <ele>2114</ele>
        <time>2022-07-26T13:00:30Z</time>
      </trkpt>
      <trkpt lat="45.64441" lon="6.64185">
        <ele>2114</ele>
        <time>2022-07-26T13:00:31Z</time>
      </trkpt>
      <trkpt lat="45.6444" lon="6.64184">
        <ele>2114</ele>
        <time>2022-07-26T13:00:32Z</time>
      </trkpt>
      <trkpt lat="45.64439" lon="6.64183">
        <ele>2113</ele>
        <time>2022-07-26T13:00:45Z</time>
      </trkpt>
      <trkpt lat="45.64438" lon="6.64182">
        <ele>2113</ele>
        <time>2022-07-26T13:00:46Z</time>
      </trkpt>
      <trkpt lat="45.64438" lon="6.64181">
        <ele>2113</ele>
        <time>2022-07-26T13:00:47Z</time>
      </trkpt>
      <trkpt lat="45.64437" lon="6.64181">
        <ele>2113</ele>
        <time>2022-07-26T13:00:48Z</time>
      </trkpt>
      <trkpt lat="45.64436" lon="6.64181">
        <ele>2113</ele>
        <time>2022-07-26T13:00:49Z</time>
      </trkpt>
      <trkpt lat="45.64435" lon="6.6418">
        <ele>2113</ele>
        <time>2022-07-26T13:00:50Z</time>
      </trkpt>
      <trkpt lat="45.64435" lon="6.6418">
        <ele>2113</ele>
        <time>2022-07-26T13:00:51Z</time>
      </trkpt>
      <trkpt lat="45.64434" lon="6.64179">
        <ele>2113</ele>
        <time>2022-07-26T13:00:52Z</time>
      </trkpt>
      <trkpt lat="45.64433" lon="6.64179">
        <ele>2113</ele>
        <time>2022-07-26T13:00:53Z</time>
      </trkpt>
      <trkpt lat="45.64432" lon="6.64178">
        <ele>2113</ele>
        <time>2022-07-26T13:00:54Z</time>
      </trkpt>
      <trkpt lat="45.64431" lon="6.64177">
        <ele>2113</ele>
        <time>2022-07-26T13:00:55Z</time>
      </trkpt>
      <trkpt lat="45.6443" lon="6.64176">
        <ele>2113</ele>
        <time>2022-07-26T13:00:56Z</time>
      </trkpt>
      <trkpt lat="45.64429" lon="6.64175">
        <ele>2113</ele>
        <time>2022-07-26T13:00:57Z</time>
      </trkpt>
      <trkpt lat="45.64428" lon="6.64175">
        <ele>2113</ele>
        <time>2022-07-26T13:00:58Z</time>
      </trkpt>
      <trkpt lat="45.64428" lon="6.64174">
        <ele>2113</ele>
        <time>2022-07-26T13:00:59Z</time>
      </trkpt>
      <trkpt lat="45.64427" lon="6.64173">
        <ele>2113</ele>
        <time>2022-07-26T13:01:00Z</time>
      </trkpt>
      <trkpt lat="45.64426" lon="6.64172">
        <ele>2113</ele>
        <time>2022-07-26T13:01:01Z</time>
      </trkpt>
      <trkpt lat="45.64425" lon="6.64171">
        <ele>2113</ele>
        <time>2022-07-26T13:01:02Z</time>
      </trkpt>
      <trkpt lat="45.64424" lon="6.6417">
        <ele>2113</ele>
        <time>2022-07-26T13:01:03Z</time>
      </trkpt>
      <trkpt lat="45.64422" lon="6.64169">
        <ele>2113</ele>
        <time>2022-07-26T13:01:04Z</time>
      </trkpt>
      <trkpt lat="45.64421" lon="6.64168">
        <ele>2113</ele>
        <time>2022-07-26T13:01:05Z</time>
      </trkpt>
      <trkpt lat="45.6442" lon="6.64167">
        <ele>2113</ele>
        <time>2022-07-26T13:01:06Z</time>
      </trkpt>
      <trkpt lat="45.64419" lon="6.64166">
        <ele>2113</ele>
        <time>2022-07-26T13:01:07Z</time>
      </trkpt>
      <trkpt lat="45.64418" lon="6.64165">
        <ele>2113</ele>
        <time>2022-07-26T13:01:08Z</time>
      </trkpt>
      <trkpt lat="45.64417" lon="6.64164">
        <ele>2113</ele>
        <time>2022-07-26T13:01:09Z</time>
      </trkpt>
      <trkpt lat="45.64416" lon="6.64164">
        <ele>2113</ele>
        <time>2022-07-26T13:01:10Z</time>
      </trkpt>
      <trkpt lat="45.64415" lon="6.64163">
        <ele>2113</ele>
        <time>2022-07-26T13:01:11Z</time>
      </trkpt>
      <trkpt lat="45.64414" lon="6.64162">
        <ele>2113</ele>
        <time>2022-07-26T13:01:12Z</time>
      </trkpt>
      <trkpt lat="45.64413" lon="6.64161">
        <ele>2113</ele>
        <time>2022-07-26T13:01:13Z</time>
      </trkpt>
      <trkpt lat="45.64412" lon="6.6416">
        <ele>2113</ele>
        <time>2022-07-26T13:01:14Z</time>
      </trkpt>
      <trkpt lat="45.64412" lon="6.6416">
        <ele>2113</ele>
        <time>2022-07-26T13:01:15Z</time>
      </trkpt>
      <trkpt lat="45.64411" lon="6.64159">
        <ele>2113</ele>
        <time>2022-07-26T13:01:16Z</time>
      </trkpt>
      <trkpt lat="45.6441" lon="6.64159">
        <ele>2113</ele>
        <time>2022-07-26T13:01:17Z</time>
      </trkpt>
      <trkpt lat="45.64409" lon="6.64158">
        <ele>2113</ele>
        <time>2022-07-26T13:01:18Z</time>
      </trkpt>
      <trkpt lat="45.64409" lon="6.64157">
        <ele>2113</ele>
        <time>2022-07-26T13:01:19Z</time>
      </trkpt>
      <trkpt lat="45.64408" lon="6.64157">
        <ele>2113</ele>
        <time>2022-07-26T13:01:20Z</time>
      </trkpt>
      <trkpt lat="45.64407" lon="6.64156">
        <ele>2113</ele>
        <time>2022-07-26T13:01:21Z</time>
      </trkpt>
      <trkpt lat="45.64406" lon="6.64155">
        <ele>2113</ele>
        <time>2022-07-26T13:01:22Z</time>
      </trkpt>
      <trkpt lat="45.64405" lon="6.64154">
        <ele>2113</ele>
        <time>2022-07-26T13:01:23Z</time>
      </trkpt>
      <trkpt lat="45.64403" lon="6.64153">
        <ele>2113</ele>
        <time>2022-07-26T13:01:24Z</time>
      </trkpt>
      <trkpt lat="45.64402" lon="6.64153">
        <ele>2113</ele>
        <time>2022-07-26T13:01:25Z</time>
      </trkpt>
      <trkpt lat="45.64401" lon="6.64152">
        <ele>2113</ele>
        <time>2022-07-26T13:01:26Z</time>
      </trkpt>
      <trkpt lat="45.644" lon="6.64151">
        <ele>2113</ele>
        <time>2022-07-26T13:01:27Z</time>
      </trkpt>
      <trkpt lat="45.64399" lon="6.6415">
        <ele>2113</ele>
        <time>2022-07-26T13:02:04Z</time>
      </trkpt>
      <trkpt lat="45.64398" lon="6.6415">
        <ele>2113</ele>
        <time>2022-07-26T13:02:05Z</time>
      </trkpt>
      <trkpt lat="45.64398" lon="6.64149">
        <ele>2113</ele>
        <time>2022-07-26T13:02:06Z</time>
      </trkpt>
      <trkpt lat="45.64397" lon="6.64149">
        <ele>2113</ele>
        <time>2022-07-26T13:02:07Z</time>
      </trkpt>
      <trkpt lat="45.64397" lon="6.64148">
        <ele>2113</ele>
        <time>2022-07-26T13:02:08Z</time>
      </trkpt>
      <trkpt lat="45.64396" lon="6.64148">
        <ele>2113</ele>
        <time>2022-07-26T13:02:09Z</time>
      </trkpt>
      <trkpt lat="45.64395" lon="6.64147">
        <ele>2113</ele>
        <time>2022-07-26T13:02:10Z</time>
      </trkpt>
      <trkpt lat="45.64394" lon="6.64146">
        <ele>2113</ele>
        <time>2022-07-26T13:02:11Z</time>
      </trkpt>
      <trkpt lat="45.64393" lon="6.64145">
        <ele>2113</ele>
        <time>2022-07-26T13:02:12Z</time>
      </trkpt>
      <trkpt lat="45.64392" lon="6.64144">
        <ele>2113</ele>
        <time>2022-07-26T13:02:13Z</time>
      </trkpt>
      <trkpt lat="45.64391" lon="6.64143">
        <ele>2113</ele>
        <time>2022-07-26T13:02:14Z</time>
      </trkpt>
      <trkpt lat="45.64389" lon="6.64142">
        <ele>2113</ele>
        <time>2022-07-26T13:02:15Z</time>
      </trkpt>
      <trkpt lat="45.64388" lon="6.6414">
        <ele>2113</ele>
        <time>2022-07-26T13:02:16Z</time>
      </trkpt>
      <trkpt lat="45.64387" lon="6.64139">
        <ele>2113</ele>
        <time>2022-07-26T13:02:17Z</time>
      </trkpt>
      <trkpt lat="45.64386" lon="6.64138">
        <ele>2113</ele>
        <time>2022-07-26T13:02:18Z</time>
      </trkpt>
      <trkpt lat="45.64385" lon="6.64137">
        <ele>2112</ele>
        <time>2022-07-26T13:02:19Z</time>
      </trkpt>
      <trkpt lat="45.64384" lon="6.64136">
        <ele>2112</ele>
        <time>2022-07-26T13:02:20Z</time>
      </trkpt>
      <trkpt lat="45.64383" lon="6.64135">
        <ele>2112</ele>
        <time>2022-07-26T13:02:21Z</time>
      </trkpt>
      <trkpt lat="45.64382" lon="6.64134">
        <ele>2112</ele>
        <time>2022-07-26T13:02:22Z</time>
      </trkpt>
      <trkpt lat="45.64381" lon="6.64133">
        <ele>2112</ele>
        <time>2022-07-26T13:02:23Z</time>
      </trkpt>
      <trkpt lat="45.6438" lon="6.64132">
        <ele>2112</ele>
        <time>2022-07-26T13:02:24Z</time>
      </trkpt>
      <trkpt lat="45.64379" lon="6.6413">
        <ele>2112</ele>
        <time>2022-07-26T13:02:25Z</time>
      </trkpt>
      <trkpt lat="45.64378" lon="6.64129">
        <ele>2112</ele>
        <time>2022-07-26T13:02:26Z</time>
      </trkpt>
      <trkpt lat="45.64377" lon="6.64128">
        <ele>2112</ele>
        <time>2022-07-26T13:02:27Z</time>
      </trkpt>
      <trkpt lat="45.64376" lon="6.64127">
        <ele>2112</ele>
        <time>2022-07-26T13:02:28Z</time>
      </trkpt>
      <trkpt lat="45.64375" lon="6.64126">
        <ele>2112</ele>
        <time>2022-07-26T13:02:29Z</time>
      </trkpt>
      <trkpt lat="45.64374" lon="6.64124">
        <ele>2112</ele>
        <time>2022-07-26T13:02:30Z</time>
      </trkpt>
      <trkpt lat="45.64373" lon="6.64123">
        <ele>2112</ele>
        <time>2022-07-26T13:02:31Z</time>
      </trkpt>
      <trkpt lat="45.64372" lon="6.64122">
        <ele>2112</ele>
        <time>2022-07-26T13:02:32Z</time>
      </trkpt>
      <trkpt lat="45.64371" lon="6.64121">
        <ele>2112</ele>
        <time>2022-07-26T13:02:33Z</time>
      </trkpt>
      <trkpt lat="45.6437" lon="6.6412">
        <ele>2112</ele>
        <time>2022-07-26T13:02:34Z</time>
      </trkpt>
      <trkpt lat="45.6437" lon="6.64119">
        <ele>2112</ele>
        <time>2022-07-26T13:02:35Z</time>
      </trkpt>
      <trkpt lat="45.64369" lon="6.64117">
        <ele>2112</ele>
        <time>2022-07-26T13:02:36Z</time>
      </trkpt>
      <trkpt lat="45.64368" lon="6.64116">
        <ele>2112</ele>
        <time>2022-07-26T13:02:37Z</time>
      </trkpt>
      <trkpt lat="45.64368" lon="6.64115">
        <ele>2112</ele>
        <time>2022-07-26T13:02:38Z</time>
      </trkpt>
      <trkpt lat="45.64367" lon="6.64114">
        <ele>2111</ele>
        <time>2022-07-26T13:02:39Z</time>
      </trkpt>
      <trkpt lat="45.64366" lon="6.64112">
        <ele>2111</ele>
        <time>2022-07-26T13:02:40Z</time>
      </trkpt>
      <trkpt lat="45.64365" lon="6.64111">
        <ele>2111</ele>
        <time>2022-07-26T13:02:41Z</time>
      </trkpt>
      <trkpt lat="45.64364" lon="6.6411">
        <ele>2111</ele>
        <time>2022-07-26T13:02:42Z</time>
      </trkpt>
      <trkpt lat="45.64364" lon="6.64109">
        <ele>2111</ele>
        <time>2022-07-26T13:02:43Z</time>
      </trkpt>
      <trkpt lat="45.64363" lon="6.64108">
        <ele>2111</ele>
        <time>2022-07-26T13:02:44Z</time>
      </trkpt>
      <trkpt lat="45.64362" lon="6.64107">
        <ele>2111</ele>
        <time>2022-07-26T13:02:45Z</time>
      </trkpt>
      <trkpt lat="45.64361" lon="6.64105">
        <ele>2111</ele>
        <time>2022-07-26T13:02:46Z</time>
      </trkpt>
      <trkpt lat="45.6436" lon="6.64104">
        <ele>2111</ele>
        <time>2022-07-26T13:02:47Z</time>
      </trkpt>
      <trkpt lat="45.64359" lon="6.64103">
        <ele>2111</ele>
        <time>2022-07-26T13:02:48Z</time>
      </trkpt>
      <trkpt lat="45.64358" lon="6.64102">
        <ele>2111</ele>
        <time>2022-07-26T13:02:49Z</time>
      </trkpt>
      <trkpt lat="45.64357" lon="6.64101">
        <ele>2111</ele>
        <time>2022-07-26T13:02:50Z</time>
      </trkpt>
      <trkpt lat="45.64356" lon="6.64099">
        <ele>2111</ele>
        <time>2022-07-26T13:02:51Z</time>
      </trkpt>
      <trkpt lat="45.64355" lon="6.64098">
        <ele>2111</ele>
        <time>2022-07-26T13:02:52Z</time>
      </trkpt>
      <trkpt lat="45.64354" lon="6.64097">
        <ele>2111</ele>
        <time>2022-07-26T13:02:53Z</time>
      </trkpt>
      <trkpt lat="45.64353" lon="6.64095">
        <ele>2111</ele>
        <time>2022-07-26T13:02:54Z</time>
      </trkpt>
      <trkpt lat="45.64352" lon="6.64094">
        <ele>2111</ele>
        <time>2022-07-26T13:02:55Z</time>
      </trkpt>
      <trkpt lat="45.64352" lon="6.64093">
        <ele>2111</ele>
        <time>2022-07-26T13:02:56Z</time>
      </trkpt>
      <trkpt lat="45.64351" lon="6.64091">
        <ele>2111</ele>
        <time>2022-07-26T13:02:57Z</time>
      </trkpt>
      <trkpt lat="45.6435" lon="6.6409">
        <ele>2111</ele>
        <time>2022-07-26T13:02:58Z</time>
      </trkpt>
      <trkpt lat="45.64349" lon="6.64089">
        <ele>2110</ele>
        <time>2022-07-26T13:02:59Z</time>
      </trkpt>
      <trkpt lat="45.64348" lon="6.64087">
        <ele>2110</ele>
        <time>2022-07-26T13:03:00Z</time>
      </trkpt>
      <trkpt lat="45.64347" lon="6.64086">
        <ele>2110</ele>
        <time>2022-07-26T13:03:01Z</time>
      </trkpt>
      <trkpt lat="45.64347" lon="6.64085">
        <ele>2110</ele>
        <time>2022-07-26T13:03:02Z</time>
      </trkpt>
      <trkpt lat="45.64346" lon="6.64083">
        <ele>2110</ele>
        <time>2022-07-26T13:03:03Z</time>
      </trkpt>
      <trkpt lat="45.64345" lon="6.64082">
        <ele>2110</ele>
        <time>2022-07-26T13:03:04Z</time>
      </trkpt>
      <trkpt lat="45.64344" lon="6.64081">
        <ele>2110</ele>
        <time>2022-07-26T13:03:05Z</time>
      </trkpt>
      <trkpt lat="45.64343" lon="6.6408">
        <ele>2110</ele>
        <time>2022-07-26T13:03:06Z</time>
      </trkpt>
      <trkpt lat="45.64342" lon="6.64079">
        <ele>2110</ele>
        <time>2022-07-26T13:03:07Z</time>
      </trkpt>
      <trkpt lat="45.64341" lon="6.64078">
        <ele>2110</ele>
        <time>2022-07-26T13:03:08Z</time>
      </trkpt>
      <trkpt lat="45.6434" lon="6.64077">
        <ele>2110</ele>
        <time>2022-07-26T13:03:09Z</time>
      </trkpt>
      <trkpt lat="45.64339" lon="6.64076">
        <ele>2110</ele>
        <time>2022-07-26T13:03:10Z</time>
      </trkpt>
      <trkpt lat="45.64338" lon="6.64075">
        <ele>2110</ele>
        <time>2022-07-26T13:03:11Z</time>
      </trkpt>
      <trkpt lat="45.64337" lon="6.64074">
        <ele>2110</ele>
        <time>2022-07-26T13:03:12Z</time>
      </trkpt>
      <trkpt lat="45.64336" lon="6.64073">
        <ele>2110</ele>
        <time>2022-07-26T13:03:13Z</time>
      </trkpt>
      <trkpt lat="45.64335" lon="6.64072">
        <ele>2110</ele>
        <time>2022-07-26T13:03:14Z</time>
      </trkpt>
      <trkpt lat="45.64334" lon="6.64071">
        <ele>2110</ele>
        <time>2022-07-26T13:03:15Z</time>
      </trkpt>
      <trkpt lat="45.64333" lon="6.6407">
        <ele>2110</ele>
        <time>2022-07-26T13:03:16Z</time>
      </trkpt>
      <trkpt lat="45.64332" lon="6.64069">
        <ele>2110</ele>
        <time>2022-07-26T13:03:17Z</time>
      </trkpt>
      <trkpt lat="45.64331" lon="6.64068">
        <ele>2110</ele>
        <time>2022-07-26T13:03:18Z</time>
      </trkpt>
      <trkpt lat="45.6433" lon="6.64067">
        <ele>2109</ele>
        <time>2022-07-26T13:03:19Z</time>
      </trkpt>
      <trkpt lat="45.64329" lon="6.64066">
        <ele>2109</ele>
        <time>2022-07-26T13:03:20Z</time>
      </trkpt>
      <trkpt lat="45.64328" lon="6.64065">
        <ele>2109</ele>
        <time>2022-07-26T13:03:21Z</time>
      </trkpt>
      <trkpt lat="45.64327" lon="6.64064">
        <ele>2109</ele>
        <time>2022-07-26T13:03:22Z</time>
      </trkpt>
      <trkpt lat="45.64326" lon="6.64063">
        <ele>2109</ele>
        <time>2022-07-26T13:03:23Z</time>
      </trkpt>
      <trkpt lat="45.64325" lon="6.64062">
        <ele>2109</ele>
        <time>2022-07-26T13:03:24Z</time>
      </trkpt>
      <trkpt lat="45.64324" lon="6.64061">
        <ele>2109</ele>
        <time>2022-07-26T13:03:25Z</time>
      </trkpt>
      <trkpt lat="45.64323" lon="6.6406">
        <ele>2109</ele>
        <time>2022-07-26T13:03:26Z</time>
      </trkpt>
      <trkpt lat="45.64322" lon="6.64059">
        <ele>2109</ele>
        <time>2022-07-26T13:03:27Z</time>
      </trkpt>
      <trkpt lat="45.64321" lon="6.64058">
        <ele>2109</ele>
        <time>2022-07-26T13:03:28Z</time>
      </trkpt>
      <trkpt lat="45.6432" lon="6.64057">
        <ele>2109</ele>
        <time>2022-07-26T13:03:29Z</time>
      </trkpt>
      <trkpt lat="45.64319" lon="6.64056">
        <ele>2109</ele>
        <time>2022-07-26T13:03:30Z</time>
      </trkpt>
      <trkpt lat="45.64318" lon="6.64055">
        <ele>2109</ele>
        <time>2022-07-26T13:03:31Z</time>
      </trkpt>
      <trkpt lat="45.64317" lon="6.64054">
        <ele>2109</ele>
        <time>2022-07-26T13:03:32Z</time>
      </trkpt>
      <trkpt lat="45.64315" lon="6.64053">
        <ele>2109</ele>
        <time>2022-07-26T13:03:33Z</time>
      </trkpt>
      <trkpt lat="45.64314" lon="6.64052">
        <ele>2109</ele>
        <time>2022-07-26T13:03:34Z</time>
      </trkpt>
      <trkpt lat="45.64313" lon="6.64051">
        <ele>2109</ele>
        <time>2022-07-26T13:03:35Z</time>
      </trkpt>
      <trkpt lat="45.64312" lon="6.6405">
        <ele>2109</ele>
        <time>2022-07-26T13:03:36Z</time>
      </trkpt>
      <trkpt lat="45.64311" lon="6.64049">
        <ele>2109</ele>
        <time>2022-07-26T13:03:37Z</time>
      </trkpt>
      <trkpt lat="45.6431" lon="6.64048">
        <ele>2109</ele>
        <time>2022-07-26T13:03:38Z</time>
      </trkpt>
      <trkpt lat="45.64309" lon="6.64047">
        <ele>2108</ele>
        <time>2022-07-26T13:03:39Z</time>
      </trkpt>
      <trkpt lat="45.64307" lon="6.64046">
        <ele>2108</ele>
        <time>2022-07-26T13:03:40Z</time>
      </trkpt>
      <trkpt lat="45.64306" lon="6.64045">
        <ele>2108</ele>
        <time>2022-07-26T13:03:41Z</time>
      </trkpt>
      <trkpt lat="45.64305" lon="6.64044">
        <ele>2108</ele>
        <time>2022-07-26T13:03:42Z</time>
      </trkpt>
      <trkpt lat="45.64304" lon="6.64043">
        <ele>2108</ele>
        <time>2022-07-26T13:03:43Z</time>
      </trkpt>
      <trkpt lat="45.64303" lon="6.64042">
        <ele>2108</ele>
        <time>2022-07-26T13:03:44Z</time>
      </trkpt>
      <trkpt lat="45.64302" lon="6.64041">
        <ele>2108</ele>
        <time>2022-07-26T13:03:45Z</time>
      </trkpt>
      <trkpt lat="45.64301" lon="6.6404">
        <ele>2108</ele>
        <time>2022-07-26T13:03:46Z</time>
      </trkpt>
      <trkpt lat="45.64301" lon="6.64039">
        <ele>2108</ele>
        <time>2022-07-26T13:03:47Z</time>
      </trkpt>
      <trkpt lat="45.643" lon="6.64038">
        <ele>2108</ele>
        <time>2022-07-26T13:03:48Z</time>
      </trkpt>
      <trkpt lat="45.64299" lon="6.64037">
        <ele>2108</ele>
        <time>2022-07-26T13:03:49Z</time>
      </trkpt>
      <trkpt lat="45.64298" lon="6.64036">
        <ele>2108</ele>
        <time>2022-07-26T13:03:50Z</time>
      </trkpt>
      <trkpt lat="45.64297" lon="6.64036">
        <ele>2108</ele>
        <time>2022-07-26T13:03:51Z</time>
      </trkpt>
      <trkpt lat="45.64296" lon="6.64035">
        <ele>2108</ele>
        <time>2022-07-26T13:03:52Z</time>
      </trkpt>
      <trkpt lat="45.64295" lon="6.64034">
        <ele>2108</ele>
        <time>2022-07-26T13:03:53Z</time>
      </trkpt>
      <trkpt lat="45.64294" lon="6.64033">
        <ele>2108</ele>
        <time>2022-07-26T13:03:54Z</time>
      </trkpt>
      <trkpt lat="45.64293" lon="6.64032">
        <ele>2108</ele>
        <time>2022-07-26T13:03:55Z</time>
      </trkpt>
      <trkpt lat="45.64292" lon="6.64031">
        <ele>2108</ele>
        <time>2022-07-26T13:03:56Z</time>
      </trkpt>
      <trkpt lat="45.64291" lon="6.6403">
        <ele>2108</ele>
        <time>2022-07-26T13:03:57Z</time>
      </trkpt>
      <trkpt lat="45.64291" lon="6.64029">
        <ele>2108</ele>
        <time>2022-07-26T13:03:58Z</time>
      </trkpt>
      <trkpt lat="45.6429" lon="6.64028">
        <ele>2108</ele>
        <time>2022-07-26T13:03:59Z</time>
      </trkpt>
      <trkpt lat="45.64289" lon="6.64027">
        <ele>2108</ele>
        <time>2022-07-26T13:04:00Z</time>
      </trkpt>
      <trkpt lat="45.64288" lon="6.64026">
        <ele>2108</ele>
        <time>2022-07-26T13:04:01Z</time>
      </trkpt>
      <trkpt lat="45.64288" lon="6.64025">
        <ele>2108</ele>
        <time>2022-07-26T13:04:02Z</time>
      </trkpt>
      <trkpt lat="45.64287" lon="6.64024">
        <ele>2108</ele>
        <time>2022-07-26T13:04:03Z</time>
      </trkpt>
      <trkpt lat="45.64286" lon="6.64023">
        <ele>2108</ele>
        <time>2022-07-26T13:04:04Z</time>
      </trkpt>
      <trkpt lat="45.64286" lon="6.64022">
        <ele>2108</ele>
        <time>2022-07-26T13:04:05Z</time>
      </trkpt>
      <trkpt lat="45.64285" lon="6.64022">
        <ele>2108</ele>
        <time>2022-07-26T13:04:06Z</time>
      </trkpt>
      <trkpt lat="45.64284" lon="6.64021">
        <ele>2108</ele>
        <time>2022-07-26T13:04:07Z</time>
      </trkpt>
      <trkpt lat="45.64283" lon="6.6402">
        <ele>2108</ele>
        <time>2022-07-26T13:04:08Z</time>
      </trkpt>
      <trkpt lat="45.64282" lon="6.64019">
        <ele>2108</ele>
        <time>2022-07-26T13:04:09Z</time>
      </trkpt>
      <trkpt lat="45.64282" lon="6.64018">
        <ele>2108</ele>
        <time>2022-07-26T13:04:10Z</time>
      </trkpt>
      <trkpt lat="45.64281" lon="6.64018">
        <ele>2108</ele>
        <time>2022-07-26T13:04:11Z</time>
      </trkpt>
      <trkpt lat="45.6428" lon="6.64017">
        <ele>2108</ele>
        <time>2022-07-26T13:04:12Z</time>
      </trkpt>
      <trkpt lat="45.64278" lon="6.64016">
        <ele>2108</ele>
        <time>2022-07-26T13:04:22Z</time>
      </trkpt>
      <trkpt lat="45.64277" lon="6.64015">
        <ele>2108</ele>
        <time>2022-07-26T13:04:23Z</time>
      </trkpt>
      <trkpt lat="45.64277" lon="6.64015">
        <ele>2108</ele>
        <time>2022-07-26T13:04:24Z</time>
      </trkpt>
      <trkpt lat="45.64276" lon="6.64015">
        <ele>2108</ele>
        <time>2022-07-26T13:04:25Z</time>
      </trkpt>
      <trkpt lat="45.64276" lon="6.64014">
        <ele>2108</ele>
        <time>2022-07-26T13:04:26Z</time>
      </trkpt>
      <trkpt lat="45.64275" lon="6.64014">
        <ele>2108</ele>
        <time>2022-07-26T13:04:27Z</time>
      </trkpt>
      <trkpt lat="45.64274" lon="6.64013">
        <ele>2108</ele>
        <time>2022-07-26T13:04:28Z</time>
      </trkpt>
      <trkpt lat="45.64274" lon="6.64012">
        <ele>2108</ele>
        <time>2022-07-26T13:04:29Z</time>
      </trkpt>
      <trkpt lat="45.64273" lon="6.64012">
        <ele>2108</ele>
        <time>2022-07-26T13:04:30Z</time>
      </trkpt>
      <trkpt lat="45.64272" lon="6.64011">
        <ele>2108</ele>
        <time>2022-07-26T13:04:31Z</time>
      </trkpt>
      <trkpt lat="45.64271" lon="6.6401">
        <ele>2108</ele>
        <time>2022-07-26T13:04:32Z</time>
      </trkpt>
      <trkpt lat="45.6427" lon="6.64009">
        <ele>2108</ele>
        <time>2022-07-26T13:04:33Z</time>
      </trkpt>
      <trkpt lat="45.64269" lon="6.64008">
        <ele>2108</ele>
        <time>2022-07-26T13:04:34Z</time>
      </trkpt>
      <trkpt lat="45.64268" lon="6.64007">
        <ele>2108</ele>
        <time>2022-07-26T13:04:35Z</time>
      </trkpt>
      <trkpt lat="45.64267" lon="6.64006">
        <ele>2108</ele>
        <time>2022-07-26T13:04:36Z</time>
      </trkpt>
      <trkpt lat="45.64266" lon="6.64005">
        <ele>2108</ele>
        <time>2022-07-26T13:04:37Z</time>
      </trkpt>
      <trkpt lat="45.64265" lon="6.64004">
        <ele>2108</ele>
        <time>2022-07-26T13:04:38Z</time>
      </trkpt>
      <trkpt lat="45.64265" lon="6.64004">
        <ele>2108</ele>
        <time>2022-07-26T13:04:39Z</time>
      </trkpt>
      <trkpt lat="45.64264" lon="6.64003">
        <ele>2108</ele>
        <time>2022-07-26T13:04:40Z</time>
      </trkpt>
      <trkpt lat="45.64263" lon="6.64002">
        <ele>2108</ele>
        <time>2022-07-26T13:04:41Z</time>
      </trkpt>
      <trkpt lat="45.64262" lon="6.64001">
        <ele>2108</ele>
        <time>2022-07-26T13:04:42Z</time>
      </trkpt>
      <trkpt lat="45.64261" lon="6.64">
        <ele>2108</ele>
        <time>2022-07-26T13:04:43Z</time>
      </trkpt>
      <trkpt lat="45.6426" lon="6.63999">
        <ele>2108</ele>
        <time>2022-07-26T13:04:44Z</time>
      </trkpt>
      <trkpt lat="45.64259" lon="6.63998">
        <ele>2108</ele>
        <time>2022-07-26T13:04:45Z</time>
      </trkpt>
      <trkpt lat="45.64258" lon="6.63997">
        <ele>2108</ele>
        <time>2022-07-26T13:04:46Z</time>
      </trkpt>
      <trkpt lat="45.64257" lon="6.63996">
        <ele>2108</ele>
        <time>2022-07-26T13:04:47Z</time>
      </trkpt>
      <trkpt lat="45.64256" lon="6.63995">
        <ele>2108</ele>
        <time>2022-07-26T13:04:48Z</time>
      </trkpt>
      <trkpt lat="45.64256" lon="6.63994">
        <ele>2108</ele>
        <time>2022-07-26T13:04:49Z</time>
      </trkpt>
      <trkpt lat="45.64255" lon="6.63993">
        <ele>2108</ele>
        <time>2022-07-26T13:04:50Z</time>
      </trkpt>
      <trkpt lat="45.64254" lon="6.63992">
        <ele>2108</ele>
        <time>2022-07-26T13:04:51Z</time>
      </trkpt>
      <trkpt lat="45.64253" lon="6.63991">
        <ele>2108</ele>
        <time>2022-07-26T13:04:52Z</time>
      </trkpt>
      <trkpt lat="45.64252" lon="6.6399">
        <ele>2108</ele>
        <time>2022-07-26T13:04:53Z</time>
      </trkpt>
      <trkpt lat="45.64252" lon="6.63989">
        <ele>2108</ele>
        <time>2022-07-26T13:04:54Z</time>
      </trkpt>
      <trkpt lat="45.64251" lon="6.63988">
        <ele>2108</ele>
        <time>2022-07-26T13:04:55Z</time>
      </trkpt>
      <trkpt lat="45.6425" lon="6.63987">
        <ele>2108</ele>
        <time>2022-07-26T13:04:56Z</time>
      </trkpt>
      <trkpt lat="45.64249" lon="6.63986">
        <ele>2108</ele>
        <time>2022-07-26T13:04:57Z</time>
      </trkpt>
      <trkpt lat="45.64248" lon="6.63985">
        <ele>2108</ele>
        <time>2022-07-26T13:04:58Z</time>
      </trkpt>
      <trkpt lat="45.64247" lon="6.63984">
        <ele>2108</ele>
        <time>2022-07-26T13:04:59Z</time>
      </trkpt>
      <trkpt lat="45.64246" lon="6.63983">
        <ele>2108</ele>
        <time>2022-07-26T13:05:00Z</time>
      </trkpt>
      <trkpt lat="45.64245" lon="6.63982">
        <ele>2108</ele>
        <time>2022-07-26T13:05:01Z</time>
      </trkpt>
      <trkpt lat="45.64245" lon="6.63981">
        <ele>2108</ele>
        <time>2022-07-26T13:05:02Z</time>
      </trkpt>
      <trkpt lat="45.64244" lon="6.6398">
        <ele>2108</ele>
        <time>2022-07-26T13:05:03Z</time>
      </trkpt>
      <trkpt lat="45.64243" lon="6.63979">
        <ele>2108</ele>
        <time>2022-07-26T13:05:04Z</time>
      </trkpt>
      <trkpt lat="45.64242" lon="6.63978">
        <ele>2108</ele>
        <time>2022-07-26T13:05:05Z</time>
      </trkpt>
      <trkpt lat="45.64241" lon="6.63977">
        <ele>2108</ele>
        <time>2022-07-26T13:05:06Z</time>
      </trkpt>
      <trkpt lat="45.6424" lon="6.63976">
        <ele>2108</ele>
        <time>2022-07-26T13:05:07Z</time>
      </trkpt>
      <trkpt lat="45.6424" lon="6.63975">
        <ele>2108</ele>
        <time>2022-07-26T13:05:08Z</time>
      </trkpt>
      <trkpt lat="45.64239" lon="6.63974">
        <ele>2108</ele>
        <time>2022-07-26T13:05:09Z</time>
      </trkpt>
      <trkpt lat="45.64238" lon="6.63973">
        <ele>2108</ele>
        <time>2022-07-26T13:05:10Z</time>
      </trkpt>
      <trkpt lat="45.64237" lon="6.63972">
        <ele>2108</ele>
        <time>2022-07-26T13:05:11Z</time>
      </trkpt>
      <trkpt lat="45.64236" lon="6.63971">
        <ele>2108</ele>
        <time>2022-07-26T13:05:12Z</time>
      </trkpt>
      <trkpt lat="45.64236" lon="6.6397">
        <ele>2109</ele>
        <time>2022-07-26T13:05:13Z</time>
      </trkpt>
      <trkpt lat="45.64235" lon="6.63969">
        <ele>2109</ele>
        <time>2022-07-26T13:05:14Z</time>
      </trkpt>
      <trkpt lat="45.64234" lon="6.63968">
        <ele>2109</ele>
        <time>2022-07-26T13:05:15Z</time>
      </trkpt>
      <trkpt lat="45.64233" lon="6.63967">
        <ele>2109</ele>
        <time>2022-07-26T13:05:16Z</time>
      </trkpt>
      <trkpt lat="45.64232" lon="6.63966">
        <ele>2109</ele>
        <time>2022-07-26T13:05:17Z</time>
      </trkpt>
      <trkpt lat="45.64232" lon="6.63966">
        <ele>2109</ele>
        <time>2022-07-26T13:05:18Z</time>
      </trkpt>
      <trkpt lat="45.64231" lon="6.63965">
        <ele>2109</ele>
        <time>2022-07-26T13:05:19Z</time>
      </trkpt>
      <trkpt lat="45.64231" lon="6.63964">
        <ele>2109</ele>
        <time>2022-07-26T13:05:20Z</time>
      </trkpt>
      <trkpt lat="45.6423" lon="6.63963">
        <ele>2109</ele>
        <time>2022-07-26T13:05:21Z</time>
      </trkpt>
      <trkpt lat="45.6423" lon="6.63961">
        <ele>2109</ele>
        <time>2022-07-26T13:05:22Z</time>
      </trkpt>
      <trkpt lat="45.64229" lon="6.63961">
        <ele>2109</ele>
        <time>2022-07-26T13:05:23Z</time>
      </trkpt>
      <trkpt lat="45.64228" lon="6.6396">
        <ele>2109</ele>
        <time>2022-07-26T13:05:24Z</time>
      </trkpt>
      <trkpt lat="45.64228" lon="6.63959">
        <ele>2109</ele>
        <time>2022-07-26T13:05:25Z</time>
      </trkpt>
      <trkpt lat="45.64227" lon="6.63959">
        <ele>2109</ele>
        <time>2022-07-26T13:05:26Z</time>
      </trkpt>
      <trkpt lat="45.64226" lon="6.63958">
        <ele>2109</ele>
        <time>2022-07-26T13:05:27Z</time>
      </trkpt>
      <trkpt lat="45.64225" lon="6.63958">
        <ele>2110</ele>
        <time>2022-07-26T13:05:28Z</time>
      </trkpt>
      <trkpt lat="45.64224" lon="6.63958">
        <ele>2110</ele>
        <time>2022-07-26T13:05:29Z</time>
      </trkpt>
      <trkpt lat="45.64223" lon="6.63958">
        <ele>2110</ele>
        <time>2022-07-26T13:05:30Z</time>
      </trkpt>
      <trkpt lat="45.64223" lon="6.63957">
        <ele>2110</ele>
        <time>2022-07-26T13:05:31Z</time>
      </trkpt>
      <trkpt lat="45.64223" lon="6.63957">
        <ele>2110</ele>
        <time>2022-07-26T13:05:32Z</time>
      </trkpt>
      <trkpt lat="45.64222" lon="6.63957">
        <ele>2110</ele>
        <time>2022-07-26T13:05:33Z</time>
      </trkpt>
      <trkpt lat="45.64222" lon="6.63956">
        <ele>2110</ele>
        <time>2022-07-26T13:05:34Z</time>
      </trkpt>
      <trkpt lat="45.64221" lon="6.63955">
        <ele>2110</ele>
        <time>2022-07-26T13:05:35Z</time>
      </trkpt>
      <trkpt lat="45.64221" lon="6.63955">
        <ele>2110</ele>
        <time>2022-07-26T13:05:36Z</time>
      </trkpt>
      <trkpt lat="45.64221" lon="6.63954">
        <ele>2110</ele>
        <time>2022-07-26T13:05:37Z</time>
      </trkpt>
      <trkpt lat="45.6422" lon="6.63953">
        <ele>2110</ele>
        <time>2022-07-26T13:05:38Z</time>
      </trkpt>
      <trkpt lat="45.6422" lon="6.63952">
        <ele>2110</ele>
        <time>2022-07-26T13:05:39Z</time>
      </trkpt>
      <trkpt lat="45.64219" lon="6.63951">
        <ele>2110</ele>
        <time>2022-07-26T13:05:40Z</time>
      </trkpt>
      <trkpt lat="45.64219" lon="6.6395">
        <ele>2110</ele>
        <time>2022-07-26T13:05:41Z</time>
      </trkpt>
      <trkpt lat="45.64218" lon="6.63949">
        <ele>2110</ele>
        <time>2022-07-26T13:05:42Z</time>
      </trkpt>
      <trkpt lat="45.64218" lon="6.63948">
        <ele>2111</ele>
        <time>2022-07-26T13:05:43Z</time>
      </trkpt>
      <trkpt lat="45.64217" lon="6.63947">
        <ele>2111</ele>
        <time>2022-07-26T13:05:44Z</time>
      </trkpt>
      <trkpt lat="45.64217" lon="6.63946">
        <ele>2111</ele>
        <time>2022-07-26T13:05:45Z</time>
      </trkpt>
      <trkpt lat="45.64216" lon="6.63945">
        <ele>2111</ele>
        <time>2022-07-26T13:05:46Z</time>
      </trkpt>
      <trkpt lat="45.64216" lon="6.63943">
        <ele>2111</ele>
        <time>2022-07-26T13:05:47Z</time>
      </trkpt>
      <trkpt lat="45.64215" lon="6.63942">
        <ele>2111</ele>
        <time>2022-07-26T13:05:48Z</time>
      </trkpt>
      <trkpt lat="45.64215" lon="6.63941">
        <ele>2111</ele>
        <time>2022-07-26T13:05:49Z</time>
      </trkpt>
      <trkpt lat="45.64214" lon="6.63939">
        <ele>2111</ele>
        <time>2022-07-26T13:05:50Z</time>
      </trkpt>
      <trkpt lat="45.64213" lon="6.63938">
        <ele>2111</ele>
        <time>2022-07-26T13:05:51Z</time>
      </trkpt>
      <trkpt lat="45.64213" lon="6.63937">
        <ele>2111</ele>
        <time>2022-07-26T13:05:52Z</time>
      </trkpt>
      <trkpt lat="45.64213" lon="6.63936">
        <ele>2112</ele>
        <time>2022-07-26T13:05:53Z</time>
      </trkpt>
      <trkpt lat="45.64212" lon="6.63934">
        <ele>2112</ele>
        <time>2022-07-26T13:05:54Z</time>
      </trkpt>
      <trkpt lat="45.64212" lon="6.63933">
        <ele>2112</ele>
        <time>2022-07-26T13:05:55Z</time>
      </trkpt>
      <trkpt lat="45.64212" lon="6.63932">
        <ele>2112</ele>
        <time>2022-07-26T13:05:56Z</time>
      </trkpt>
      <trkpt lat="45.64212" lon="6.63931">
        <ele>2112</ele>
        <time>2022-07-26T13:05:57Z</time>
      </trkpt>
      <trkpt lat="45.64211" lon="6.6393">
        <ele>2112</ele>
        <time>2022-07-26T13:05:58Z</time>
      </trkpt>
      <trkpt lat="45.64211" lon="6.63928">
        <ele>2112</ele>
        <time>2022-07-26T13:05:59Z</time>
      </trkpt>
      <trkpt lat="45.64211" lon="6.63927">
        <ele>2112</ele>
        <time>2022-07-26T13:06:00Z</time>
      </trkpt>
      <trkpt lat="45.64211" lon="6.63926">
        <ele>2112</ele>
        <time>2022-07-26T13:06:01Z</time>
      </trkpt>
      <trkpt lat="45.64211" lon="6.63925">
        <ele>2112</ele>
        <time>2022-07-26T13:06:02Z</time>
      </trkpt>
      <trkpt lat="45.64211" lon="6.63923">
        <ele>2113</ele>
        <time>2022-07-26T13:06:03Z</time>
      </trkpt>
      <trkpt lat="45.64211" lon="6.63922">
        <ele>2113</ele>
        <time>2022-07-26T13:06:04Z</time>
      </trkpt>
      <trkpt lat="45.6421" lon="6.63921">
        <ele>2113</ele>
        <time>2022-07-26T13:06:05Z</time>
      </trkpt>
      <trkpt lat="45.6421" lon="6.6392">
        <ele>2113</ele>
        <time>2022-07-26T13:06:06Z</time>
      </trkpt>
      <trkpt lat="45.6421" lon="6.6392">
        <ele>2113</ele>
        <time>2022-07-26T13:06:07Z</time>
      </trkpt>
      <trkpt lat="45.6421" lon="6.63919">
        <ele>2113</ele>
        <time>2022-07-26T13:06:08Z</time>
      </trkpt>
      <trkpt lat="45.6421" lon="6.63918">
        <ele>2113</ele>
        <time>2022-07-26T13:06:09Z</time>
      </trkpt>
      <trkpt lat="45.6421" lon="6.63917">
        <ele>2113</ele>
        <time>2022-07-26T13:06:10Z</time>
      </trkpt>
      <trkpt lat="45.6421" lon="6.63916">
        <ele>2113</ele>
        <time>2022-07-26T13:06:11Z</time>
      </trkpt>
      <trkpt lat="45.6421" lon="6.63916">
        <ele>2113</ele>
        <time>2022-07-26T13:06:12Z</time>
      </trkpt>
      <trkpt lat="45.6421" lon="6.63915">
        <ele>2114</ele>
        <time>2022-07-26T13:06:13Z</time>
      </trkpt>
      <trkpt lat="45.6421" lon="6.63914">
        <ele>2114</ele>
        <time>2022-07-26T13:06:14Z</time>
      </trkpt>
      <trkpt lat="45.6421" lon="6.63913">
        <ele>2114</ele>
        <time>2022-07-26T13:06:15Z</time>
      </trkpt>
      <trkpt lat="45.6421" lon="6.63912">
        <ele>2114</ele>
        <time>2022-07-26T13:06:16Z</time>
      </trkpt>
      <trkpt lat="45.64209" lon="6.63911">
        <ele>2114</ele>
        <time>2022-07-26T13:06:17Z</time>
      </trkpt>
      <trkpt lat="45.64209" lon="6.6391">
        <ele>2115</ele>
        <time>2022-07-26T13:06:23Z</time>
      </trkpt>
      <trkpt lat="45.64209" lon="6.63909">
        <ele>2115</ele>
        <time>2022-07-26T13:06:24Z</time>
      </trkpt>
      <trkpt lat="45.64209" lon="6.63909">
        <ele>2115</ele>
        <time>2022-07-26T13:06:25Z</time>
      </trkpt>
      <trkpt lat="45.64208" lon="6.63909">
        <ele>2115</ele>
        <time>2022-07-26T13:06:26Z</time>
      </trkpt>
      <trkpt lat="45.64208" lon="6.63908">
        <ele>2115</ele>
        <time>2022-07-26T13:06:27Z</time>
      </trkpt>
      <trkpt lat="45.64207" lon="6.63908">
        <ele>2115</ele>
        <time>2022-07-26T13:06:28Z</time>
      </trkpt>
      <trkpt lat="45.64206" lon="6.63907">
        <ele>2115</ele>
        <time>2022-07-26T13:06:29Z</time>
      </trkpt>
      <trkpt lat="45.64206" lon="6.63907">
        <ele>2115</ele>
        <time>2022-07-26T13:06:30Z</time>
      </trkpt>
      <trkpt lat="45.64205" lon="6.63906">
        <ele>2115</ele>
        <time>2022-07-26T13:06:31Z</time>
      </trkpt>
      <trkpt lat="45.64204" lon="6.63906">
        <ele>2115</ele>
        <time>2022-07-26T13:06:32Z</time>
      </trkpt>
      <trkpt lat="45.64203" lon="6.63905">
        <ele>2116</ele>
        <time>2022-07-26T13:06:33Z</time>
      </trkpt>
      <trkpt lat="45.64202" lon="6.63905">
        <ele>2116</ele>
        <time>2022-07-26T13:06:34Z</time>
      </trkpt>
      <trkpt lat="45.64201" lon="6.63905">
        <ele>2116</ele>
        <time>2022-07-26T13:06:35Z</time>
      </trkpt>
      <trkpt lat="45.64201" lon="6.63905">
        <ele>2116</ele>
        <time>2022-07-26T13:06:36Z</time>
      </trkpt>
      <trkpt lat="45.642" lon="6.63905">
        <ele>2116</ele>
        <time>2022-07-26T13:06:37Z</time>
      </trkpt>
      <trkpt lat="45.64199" lon="6.63905">
        <ele>2116</ele>
        <time>2022-07-26T13:06:38Z</time>
      </trkpt>
      <trkpt lat="45.64199" lon="6.63905">
        <ele>2116</ele>
        <time>2022-07-26T13:06:39Z</time>
      </trkpt>
      <trkpt lat="45.64199" lon="6.63905">
        <ele>2116</ele>
        <time>2022-07-26T13:06:40Z</time>
      </trkpt>
      <trkpt lat="45.64198" lon="6.63905">
        <ele>2116</ele>
        <time>2022-07-26T13:06:41Z</time>
      </trkpt>
      <trkpt lat="45.64197" lon="6.63905">
        <ele>2116</ele>
        <time>2022-07-26T13:06:42Z</time>
      </trkpt>
      <trkpt lat="45.64197" lon="6.63905">
        <ele>2116</ele>
        <time>2022-07-26T13:06:43Z</time>
      </trkpt>
      <trkpt lat="45.64196" lon="6.63905">
        <ele>2116</ele>
        <time>2022-07-26T13:06:44Z</time>
      </trkpt>
      <trkpt lat="45.64195" lon="6.63904">
        <ele>2116</ele>
        <time>2022-07-26T13:06:45Z</time>
      </trkpt>
      <trkpt lat="45.64195" lon="6.63904">
        <ele>2116</ele>
        <time>2022-07-26T13:06:46Z</time>
      </trkpt>
      <trkpt lat="45.64194" lon="6.63904">
        <ele>2116</ele>
        <time>2022-07-26T13:06:47Z</time>
      </trkpt>
      <trkpt lat="45.64193" lon="6.63904">
        <ele>2116</ele>
        <time>2022-07-26T13:06:48Z</time>
      </trkpt>
      <trkpt lat="45.64193" lon="6.63904">
        <ele>2116</ele>
        <time>2022-07-26T13:06:49Z</time>
      </trkpt>
      <trkpt lat="45.64192" lon="6.63903">
        <ele>2116</ele>
        <time>2022-07-26T13:06:50Z</time>
      </trkpt>
      <trkpt lat="45.64191" lon="6.63903">
        <ele>2116</ele>
        <time>2022-07-26T13:06:51Z</time>
      </trkpt>
      <trkpt lat="45.64191" lon="6.63903">
        <ele>2116</ele>
        <time>2022-07-26T13:06:52Z</time>
      </trkpt>
      <trkpt lat="45.6419" lon="6.63902">
        <ele>2117</ele>
        <time>2022-07-26T13:06:53Z</time>
      </trkpt>
      <trkpt lat="45.64189" lon="6.63902">
        <ele>2117</ele>
        <time>2022-07-26T13:06:54Z</time>
      </trkpt>
      <trkpt lat="45.64189" lon="6.63902">
        <ele>2117</ele>
        <time>2022-07-26T13:06:55Z</time>
      </trkpt>
      <trkpt lat="45.64188" lon="6.63902">
        <ele>2117</ele>
        <time>2022-07-26T13:06:56Z</time>
      </trkpt>
      <trkpt lat="45.64187" lon="6.63902">
        <ele>2117</ele>
        <time>2022-07-26T13:06:57Z</time>
      </trkpt>
      <trkpt lat="45.64187" lon="6.63902">
        <ele>2117</ele>
        <time>2022-07-26T13:06:58Z</time>
      </trkpt>
      <trkpt lat="45.64186" lon="6.63902">
        <ele>2117</ele>
        <time>2022-07-26T13:06:59Z</time>
      </trkpt>
      <trkpt lat="45.64185" lon="6.63902">
        <ele>2117</ele>
        <time>2022-07-26T13:07:00Z</time>
      </trkpt>
      <trkpt lat="45.64184" lon="6.63902">
        <ele>2117</ele>
        <time>2022-07-26T13:07:01Z</time>
      </trkpt>
      <trkpt lat="45.64184" lon="6.63902">
        <ele>2117</ele>
        <time>2022-07-26T13:07:02Z</time>
      </trkpt>
      <trkpt lat="45.64183" lon="6.63902">
        <ele>2117</ele>
        <time>2022-07-26T13:07:03Z</time>
      </trkpt>
      <trkpt lat="45.64182" lon="6.63901">
        <ele>2117</ele>
        <time>2022-07-26T13:07:04Z</time>
      </trkpt>
      <trkpt lat="45.64181" lon="6.63901">
        <ele>2117</ele>
        <time>2022-07-26T13:07:05Z</time>
      </trkpt>
      <trkpt lat="45.6418" lon="6.63901">
        <ele>2117</ele>
        <time>2022-07-26T13:07:06Z</time>
      </trkpt>
      <trkpt lat="45.64179" lon="6.639">
        <ele>2117</ele>
        <time>2022-07-26T13:07:07Z</time>
      </trkpt>
      <trkpt lat="45.64179" lon="6.639">
        <ele>2118</ele>
        <time>2022-07-26T13:07:08Z</time>
      </trkpt>
      <trkpt lat="45.64178" lon="6.639">
        <ele>2118</ele>
        <time>2022-07-26T13:07:09Z</time>
      </trkpt>
      <trkpt lat="45.64177" lon="6.63899">
        <ele>2118</ele>
        <time>2022-07-26T13:07:10Z</time>
      </trkpt>
      <trkpt lat="45.64176" lon="6.63899">
        <ele>2118</ele>
        <time>2022-07-26T13:07:11Z</time>
      </trkpt>
      <trkpt lat="45.64176" lon="6.63899">
        <ele>2118</ele>
        <time>2022-07-26T13:07:12Z</time>
      </trkpt>
      <trkpt lat="45.64175" lon="6.63898">
        <ele>2118</ele>
        <time>2022-07-26T13:07:13Z</time>
      </trkpt>
      <trkpt lat="45.64174" lon="6.63898">
        <ele>2118</ele>
        <time>2022-07-26T13:07:14Z</time>
      </trkpt>
      <trkpt lat="45.64173" lon="6.63897">
        <ele>2118</ele>
        <time>2022-07-26T13:07:15Z</time>
      </trkpt>
      <trkpt lat="45.64172" lon="6.63897">
        <ele>2118</ele>
        <time>2022-07-26T13:07:16Z</time>
      </trkpt>
      <trkpt lat="45.64172" lon="6.63896">
        <ele>2118</ele>
        <time>2022-07-26T13:07:17Z</time>
      </trkpt>
      <trkpt lat="45.64171" lon="6.63896">
        <ele>2119</ele>
        <time>2022-07-26T13:07:18Z</time>
      </trkpt>
      <trkpt lat="45.6417" lon="6.63895">
        <ele>2119</ele>
        <time>2022-07-26T13:07:19Z</time>
      </trkpt>
      <trkpt lat="45.6417" lon="6.63895">
        <ele>2119</ele>
        <time>2022-07-26T13:07:20Z</time>
      </trkpt>
      <trkpt lat="45.64169" lon="6.63894">
        <ele>2119</ele>
        <time>2022-07-26T13:07:21Z</time>
      </trkpt>
      <trkpt lat="45.64168" lon="6.63894">
        <ele>2119</ele>
        <time>2022-07-26T13:07:22Z</time>
      </trkpt>
      <trkpt lat="45.64168" lon="6.63893">
        <ele>2120</ele>
        <time>2022-07-26T13:07:23Z</time>
      </trkpt>
      <trkpt lat="45.64167" lon="6.63893">
        <ele>2120</ele>
        <time>2022-07-26T13:07:24Z</time>
      </trkpt>
      <trkpt lat="45.64167" lon="6.63893">
        <ele>2120</ele>
        <time>2022-07-26T13:07:25Z</time>
      </trkpt>
      <trkpt lat="45.64166" lon="6.63893">
        <ele>2121</ele>
        <time>2022-07-26T13:07:26Z</time>
      </trkpt>
      <trkpt lat="45.64166" lon="6.63892">
        <ele>2121</ele>
        <time>2022-07-26T13:07:27Z</time>
      </trkpt>
      <trkpt lat="45.64165" lon="6.63892">
        <ele>2122</ele>
        <time>2022-07-26T13:07:28Z</time>
      </trkpt>
      <trkpt lat="45.64164" lon="6.63892">
        <ele>2122</ele>
        <time>2022-07-26T13:07:29Z</time>
      </trkpt>
      <trkpt lat="45.64164" lon="6.63892">
        <ele>2122</ele>
        <time>2022-07-26T13:07:30Z</time>
      </trkpt>
      <trkpt lat="45.64163" lon="6.63892">
        <ele>2122</ele>
        <time>2022-07-26T13:07:31Z</time>
      </trkpt>
      <trkpt lat="45.64163" lon="6.63892">
        <ele>2122</ele>
        <time>2022-07-26T13:07:32Z</time>
      </trkpt>
      <trkpt lat="45.64162" lon="6.63892">
        <ele>2123</ele>
        <time>2022-07-26T13:07:33Z</time>
      </trkpt>
      <trkpt lat="45.64161" lon="6.63892">
        <ele>2123</ele>
        <time>2022-07-26T13:07:34Z</time>
      </trkpt>
      <trkpt lat="45.64161" lon="6.63892">
        <ele>2123</ele>
        <time>2022-07-26T13:07:35Z</time>
      </trkpt>
      <trkpt lat="45.64161" lon="6.63892">
        <ele>2123</ele>
        <time>2022-07-26T13:07:36Z</time>
      </trkpt>
      <trkpt lat="45.6416" lon="6.63892">
        <ele>2123</ele>
        <time>2022-07-26T13:07:37Z</time>
      </trkpt>
      <trkpt lat="45.6416" lon="6.63892">
        <ele>2124</ele>
        <time>2022-07-26T13:07:38Z</time>
      </trkpt>
      <trkpt lat="45.64159" lon="6.63892">
        <ele>2124</ele>
        <time>2022-07-26T13:07:39Z</time>
      </trkpt>
      <trkpt lat="45.64159" lon="6.63891">
        <ele>2124</ele>
        <time>2022-07-26T13:07:40Z</time>
      </trkpt>
      <trkpt lat="45.64158" lon="6.63891">
        <ele>2124</ele>
        <time>2022-07-26T13:07:41Z</time>
      </trkpt>
      <trkpt lat="45.64158" lon="6.6389">
        <ele>2124</ele>
        <time>2022-07-26T13:07:42Z</time>
      </trkpt>
      <trkpt lat="45.64157" lon="6.6389">
        <ele>2125</ele>
        <time>2022-07-26T13:07:43Z</time>
      </trkpt>
      <trkpt lat="45.64156" lon="6.63889">
        <ele>2125</ele>
        <time>2022-07-26T13:07:44Z</time>
      </trkpt>
      <trkpt lat="45.64156" lon="6.63889">
        <ele>2125</ele>
        <time>2022-07-26T13:07:45Z</time>
      </trkpt>
      <trkpt lat="45.64155" lon="6.63889">
        <ele>2125</ele>
        <time>2022-07-26T13:07:46Z</time>
      </trkpt>
      <trkpt lat="45.64154" lon="6.63888">
        <ele>2125</ele>
        <time>2022-07-26T13:07:47Z</time>
      </trkpt>
      <trkpt lat="45.64154" lon="6.63888">
        <ele>2126</ele>
        <time>2022-07-26T13:07:48Z</time>
      </trkpt>
      <trkpt lat="45.64153" lon="6.63888">
        <ele>2126</ele>
        <time>2022-07-26T13:07:49Z</time>
      </trkpt>
      <trkpt lat="45.64152" lon="6.63888">
        <ele>2130</ele>
        <time>2022-07-26T13:08:24Z</time>
      </trkpt>
      <trkpt lat="45.64152" lon="6.63888">
        <ele>2130</ele>
        <time>2022-07-26T13:08:25Z</time>
      </trkpt>
      <trkpt lat="45.64151" lon="6.63888">
        <ele>2130</ele>
        <time>2022-07-26T13:08:26Z</time>
      </trkpt>
      <trkpt lat="45.64151" lon="6.63888">
        <ele>2130</ele>
        <time>2022-07-26T13:08:27Z</time>
      </trkpt>
      <trkpt lat="45.6415" lon="6.63887">
        <ele>2130</ele>
        <time>2022-07-26T13:08:28Z</time>
      </trkpt>
      <trkpt lat="45.64149" lon="6.63887">
        <ele>2130</ele>
        <time>2022-07-26T13:08:29Z</time>
      </trkpt>
      <trkpt lat="45.64149" lon="6.63887">
        <ele>2130</ele>
        <time>2022-07-26T13:08:30Z</time>
      </trkpt>
      <trkpt lat="45.64148" lon="6.63886">
        <ele>2130</ele>
        <time>2022-07-26T13:08:31Z</time>
      </trkpt>
      <trkpt lat="45.64147" lon="6.63886">
        <ele>2130</ele>
        <time>2022-07-26T13:08:32Z</time>
      </trkpt>
      <trkpt lat="45.64147" lon="6.63885">
        <ele>2130</ele>
        <time>2022-07-26T13:08:33Z</time>
      </trkpt>
      <trkpt lat="45.64146" lon="6.63885">
        <ele>2130</ele>
        <time>2022-07-26T13:08:34Z</time>
      </trkpt>
      <trkpt lat="45.64145" lon="6.63885">
        <ele>2130</ele>
        <time>2022-07-26T13:08:35Z</time>
      </trkpt>
      <trkpt lat="45.64144" lon="6.63884">
        <ele>2130</ele>
        <time>2022-07-26T13:08:36Z</time>
      </trkpt>
      <trkpt lat="45.64144" lon="6.63884">
        <ele>2130</ele>
        <time>2022-07-26T13:08:37Z</time>
      </trkpt>
      <trkpt lat="45.64143" lon="6.63884">
        <ele>2130</ele>
        <time>2022-07-26T13:08:38Z</time>
      </trkpt>
      <trkpt lat="45.64142" lon="6.63884">
        <ele>2130</ele>
        <time>2022-07-26T13:08:39Z</time>
      </trkpt>
      <trkpt lat="45.64142" lon="6.63884">
        <ele>2130</ele>
        <time>2022-07-26T13:08:40Z</time>
      </trkpt>
      <trkpt lat="45.64141" lon="6.63883">
        <ele>2130</ele>
        <time>2022-07-26T13:08:41Z</time>
      </trkpt>
      <trkpt lat="45.6414" lon="6.63883">
        <ele>2130</ele>
        <time>2022-07-26T13:08:42Z</time>
      </trkpt>
      <trkpt lat="45.6414" lon="6.63883">
        <ele>2131</ele>
        <time>2022-07-26T13:08:43Z</time>
      </trkpt>
      <trkpt lat="45.64139" lon="6.63883">
        <ele>2131</ele>
        <time>2022-07-26T13:08:44Z</time>
      </trkpt>
      <trkpt lat="45.64139" lon="6.63883">
        <ele>2131</ele>
        <time>2022-07-26T13:08:45Z</time>
      </trkpt>
      <trkpt lat="45.64138" lon="6.63883">
        <ele>2131</ele>
        <time>2022-07-26T13:08:46Z</time>
      </trkpt>
      <trkpt lat="45.64138" lon="6.63883">
        <ele>2131</ele>
        <time>2022-07-26T13:08:47Z</time>
      </trkpt>
      <trkpt lat="45.64137" lon="6.63883">
        <ele>2131</ele>
        <time>2022-07-26T13:08:48Z</time>
      </trkpt>
      <trkpt lat="45.64136" lon="6.63884">
        <ele>2131</ele>
        <time>2022-07-26T13:08:49Z</time>
      </trkpt>
      <trkpt lat="45.64136" lon="6.63884">
        <ele>2131</ele>
        <time>2022-07-26T13:08:50Z</time>
      </trkpt>
      <trkpt lat="45.64135" lon="6.63884">
        <ele>2131</ele>
        <time>2022-07-26T13:08:51Z</time>
      </trkpt>
      <trkpt lat="45.64135" lon="6.63884">
        <ele>2131</ele>
        <time>2022-07-26T13:08:52Z</time>
      </trkpt>
      <trkpt lat="45.64134" lon="6.63884">
        <ele>2132</ele>
        <time>2022-07-26T13:08:53Z</time>
      </trkpt>
      <trkpt lat="45.64133" lon="6.63884">
        <ele>2132</ele>
        <time>2022-07-26T13:08:54Z</time>
      </trkpt>
      <trkpt lat="45.64132" lon="6.63884">
        <ele>2132</ele>
        <time>2022-07-26T13:08:55Z</time>
      </trkpt>
      <trkpt lat="45.64132" lon="6.63885">
        <ele>2132</ele>
        <time>2022-07-26T13:08:56Z</time>
      </trkpt>
      <trkpt lat="45.6413" lon="6.63885">
        <ele>2135</ele>
        <time>2022-07-26T13:09:28Z</time>
      </trkpt>
      <trkpt lat="45.64129" lon="6.63885">
        <ele>2135</ele>
        <time>2022-07-26T13:09:29Z</time>
      </trkpt>
      <trkpt lat="45.64128" lon="6.63885">
        <ele>2135</ele>
        <time>2022-07-26T13:09:30Z</time>
      </trkpt>
      <trkpt lat="45.64127" lon="6.63885">
        <ele>2135</ele>
        <time>2022-07-26T13:09:31Z</time>
      </trkpt>
      <trkpt lat="45.64126" lon="6.63885">
        <ele>2135</ele>
        <time>2022-07-26T13:09:32Z</time>
      </trkpt>
      <trkpt lat="45.64126" lon="6.63885">
        <ele>2135</ele>
        <time>2022-07-26T13:09:33Z</time>
      </trkpt>
      <trkpt lat="45.64126" lon="6.63885">
        <ele>2135</ele>
        <time>2022-07-26T13:09:34Z</time>
      </trkpt>
      <trkpt lat="45.64125" lon="6.63885">
        <ele>2135</ele>
        <time>2022-07-26T13:09:35Z</time>
      </trkpt>
      <trkpt lat="45.64124" lon="6.63885">
        <ele>2135</ele>
        <time>2022-07-26T13:09:36Z</time>
      </trkpt>
      <trkpt lat="45.64123" lon="6.63885">
        <ele>2135</ele>
        <time>2022-07-26T13:09:37Z</time>
      </trkpt>
      <trkpt lat="45.64122" lon="6.63885">
        <ele>2136</ele>
        <time>2022-07-26T13:09:38Z</time>
      </trkpt>
      <trkpt lat="45.64122" lon="6.63885">
        <ele>2136</ele>
        <time>2022-07-26T13:09:39Z</time>
      </trkpt>
      <trkpt lat="45.64121" lon="6.63885">
        <ele>2136</ele>
        <time>2022-07-26T13:09:40Z</time>
      </trkpt>
      <trkpt lat="45.6412" lon="6.63885">
        <ele>2136</ele>
        <time>2022-07-26T13:09:41Z</time>
      </trkpt>
      <trkpt lat="45.64119" lon="6.63885">
        <ele>2136</ele>
        <time>2022-07-26T13:09:42Z</time>
      </trkpt>
      <trkpt lat="45.64119" lon="6.63886">
        <ele>2136</ele>
        <time>2022-07-26T13:09:43Z</time>
      </trkpt>
      <trkpt lat="45.64118" lon="6.63886">
        <ele>2136</ele>
        <time>2022-07-26T13:09:44Z</time>
      </trkpt>
      <trkpt lat="45.64117" lon="6.63886">
        <ele>2136</ele>
        <time>2022-07-26T13:09:45Z</time>
      </trkpt>
      <trkpt lat="45.64116" lon="6.63886">
        <ele>2136</ele>
        <time>2022-07-26T13:09:46Z</time>
      </trkpt>
      <trkpt lat="45.64116" lon="6.63886">
        <ele>2136</ele>
        <time>2022-07-26T13:09:47Z</time>
      </trkpt>
      <trkpt lat="45.64115" lon="6.63885">
        <ele>2136</ele>
        <time>2022-07-26T13:09:48Z</time>
      </trkpt>
      <trkpt lat="45.64114" lon="6.63885">
        <ele>2136</ele>
        <time>2022-07-26T13:09:49Z</time>
      </trkpt>
      <trkpt lat="45.64114" lon="6.63885">
        <ele>2136</ele>
        <time>2022-07-26T13:09:50Z</time>
      </trkpt>
      <trkpt lat="45.64113" lon="6.63885">
        <ele>2136</ele>
        <time>2022-07-26T13:09:51Z</time>
      </trkpt>
      <trkpt lat="45.64112" lon="6.63885">
        <ele>2136</ele>
        <time>2022-07-26T13:09:52Z</time>
      </trkpt>
      <trkpt lat="45.64112" lon="6.63885">
        <ele>2137</ele>
        <time>2022-07-26T13:09:53Z</time>
      </trkpt>
      <trkpt lat="45.64111" lon="6.63885">
        <ele>2137</ele>
        <time>2022-07-26T13:09:54Z</time>
      </trkpt>
      <trkpt lat="45.64111" lon="6.63885">
        <ele>2137</ele>
        <time>2022-07-26T13:09:55Z</time>
      </trkpt>
      <trkpt lat="45.6411" lon="6.63885">
        <ele>2137</ele>
        <time>2022-07-26T13:09:56Z</time>
      </trkpt>
      <trkpt lat="45.6411" lon="6.63885">
        <ele>2137</ele>
        <time>2022-07-26T13:09:57Z</time>
      </trkpt>
      <trkpt lat="45.6411" lon="6.63885">
        <ele>2137</ele>
        <time>2022-07-26T13:09:58Z</time>
      </trkpt>
      <trkpt lat="45.64109" lon="6.63885">
        <ele>2137</ele>
        <time>2022-07-26T13:09:59Z</time>
      </trkpt>
      <trkpt lat="45.64109" lon="6.63885">
        <ele>2137</ele>
        <time>2022-07-26T13:10:00Z</time>
      </trkpt>
      <trkpt lat="45.64109" lon="6.63885">
        <ele>2137</ele>
        <time>2022-07-26T13:10:01Z</time>
      </trkpt>
      <trkpt lat="45.64108" lon="6.63886">
        <ele>2137</ele>
        <time>2022-07-26T13:10:02Z</time>
      </trkpt>
      <trkpt lat="45.64107" lon="6.63886">
        <ele>2138</ele>
        <time>2022-07-26T13:10:03Z</time>
      </trkpt>
      <trkpt lat="45.64106" lon="6.63886">
        <ele>2138</ele>
        <time>2022-07-26T13:10:04Z</time>
      </trkpt>
      <trkpt lat="45.64106" lon="6.63886">
        <ele>2138</ele>
        <time>2022-07-26T13:10:05Z</time>
      </trkpt>
      <trkpt lat="45.64105" lon="6.63886">
        <ele>2138</ele>
        <time>2022-07-26T13:10:06Z</time>
      </trkpt>
      <trkpt lat="45.64105" lon="6.63886">
        <ele>2138</ele>
        <time>2022-07-26T13:10:07Z</time>
      </trkpt>
      <trkpt lat="45.64104" lon="6.63886">
        <ele>2138</ele>
        <time>2022-07-26T13:10:08Z</time>
      </trkpt>
      <trkpt lat="45.64104" lon="6.63886">
        <ele>2138</ele>
        <time>2022-07-26T13:10:09Z</time>
      </trkpt>
      <trkpt lat="45.64103" lon="6.63886">
        <ele>2138</ele>
        <time>2022-07-26T13:10:10Z</time>
      </trkpt>
      <trkpt lat="45.64102" lon="6.63886">
        <ele>2138</ele>
        <time>2022-07-26T13:10:11Z</time>
      </trkpt>
      <trkpt lat="45.64102" lon="6.63886">
        <ele>2138</ele>
        <time>2022-07-26T13:10:12Z</time>
      </trkpt>
      <trkpt lat="45.64101" lon="6.63886">
        <ele>2139</ele>
        <time>2022-07-26T13:10:13Z</time>
      </trkpt>
      <trkpt lat="45.64101" lon="6.63886">
        <ele>2139</ele>
        <time>2022-07-26T13:10:14Z</time>
      </trkpt>
      <trkpt lat="45.64101" lon="6.63886">
        <ele>2139</ele>
        <time>2022-07-26T13:10:15Z</time>
      </trkpt>
      <trkpt lat="45.64099" lon="6.63887">
        <ele>2141</ele>
        <time>2022-07-26T13:11:05Z</time>
      </trkpt>
      <trkpt lat="45.64098" lon="6.63887">
        <ele>2141</ele>
        <time>2022-07-26T13:11:06Z</time>
      </trkpt>
      <trkpt lat="45.64097" lon="6.63887">
        <ele>2141</ele>
        <time>2022-07-26T13:11:07Z</time>
      </trkpt>
      <trkpt lat="45.64096" lon="6.63887">
        <ele>2141</ele>
        <time>2022-07-26T13:11:08Z</time>
      </trkpt>
      <trkpt lat="45.64095" lon="6.63887">
        <ele>2141</ele>
        <time>2022-07-26T13:11:09Z</time>
      </trkpt>
      <trkpt lat="45.64094" lon="6.63888">
        <ele>2141</ele>
        <time>2022-07-26T13:11:10Z</time>
      </trkpt>
      <trkpt lat="45.64094" lon="6.63888">
        <ele>2141</ele>
        <time>2022-07-26T13:11:11Z</time>
      </trkpt>
      <trkpt lat="45.64093" lon="6.63889">
        <ele>2141</ele>
        <time>2022-07-26T13:11:12Z</time>
      </trkpt>
      <trkpt lat="45.64092" lon="6.63889">
        <ele>2142</ele>
        <time>2022-07-26T13:11:13Z</time>
      </trkpt>
      <trkpt lat="45.64091" lon="6.6389">
        <ele>2142</ele>
        <time>2022-07-26T13:11:14Z</time>
      </trkpt>
      <trkpt lat="45.6409" lon="6.6389">
        <ele>2142</ele>
        <time>2022-07-26T13:11:15Z</time>
      </trkpt>
      <trkpt lat="45.64089" lon="6.63891">
        <ele>2142</ele>
        <time>2022-07-26T13:11:16Z</time>
      </trkpt>
      <trkpt lat="45.64088" lon="6.63891">
        <ele>2142</ele>
        <time>2022-07-26T13:11:17Z</time>
      </trkpt>
      <trkpt lat="45.64087" lon="6.63891">
        <ele>2142</ele>
        <time>2022-07-26T13:11:18Z</time>
      </trkpt>
      <trkpt lat="45.64087" lon="6.63892">
        <ele>2142</ele>
        <time>2022-07-26T13:11:19Z</time>
      </trkpt>
      <trkpt lat="45.64086" lon="6.63892">
        <ele>2142</ele>
        <time>2022-07-26T13:11:20Z</time>
      </trkpt>
      <trkpt lat="45.64085" lon="6.63893">
        <ele>2142</ele>
        <time>2022-07-26T13:11:21Z</time>
      </trkpt>
      <trkpt lat="45.64084" lon="6.63893">
        <ele>2142</ele>
        <time>2022-07-26T13:11:22Z</time>
      </trkpt>
      <trkpt lat="45.64084" lon="6.63893">
        <ele>2142</ele>
        <time>2022-07-26T13:11:23Z</time>
      </trkpt>
      <trkpt lat="45.64083" lon="6.63893">
        <ele>2142</ele>
        <time>2022-07-26T13:11:24Z</time>
      </trkpt>
      <trkpt lat="45.64082" lon="6.63893">
        <ele>2142</ele>
        <time>2022-07-26T13:11:25Z</time>
      </trkpt>
      <trkpt lat="45.64082" lon="6.63894">
        <ele>2142</ele>
        <time>2022-07-26T13:11:26Z</time>
      </trkpt>
      <trkpt lat="45.64081" lon="6.63894">
        <ele>2142</ele>
        <time>2022-07-26T13:11:27Z</time>
      </trkpt>
      <trkpt lat="45.64081" lon="6.63894">
        <ele>2142</ele>
        <time>2022-07-26T13:11:28Z</time>
      </trkpt>
      <trkpt lat="45.6408" lon="6.63894">
        <ele>2142</ele>
        <time>2022-07-26T13:11:29Z</time>
      </trkpt>
      <trkpt lat="45.64079" lon="6.63895">
        <ele>2142</ele>
        <time>2022-07-26T13:11:30Z</time>
      </trkpt>
      <trkpt lat="45.64078" lon="6.63895">
        <ele>2142</ele>
        <time>2022-07-26T13:11:31Z</time>
      </trkpt>
      <trkpt lat="45.64078" lon="6.63895">
        <ele>2142</ele>
        <time>2022-07-26T13:11:32Z</time>
      </trkpt>
      <trkpt lat="45.64078" lon="6.63895">
        <ele>2143</ele>
        <time>2022-07-26T13:11:33Z</time>
      </trkpt>
      <trkpt lat="45.64077" lon="6.63895">
        <ele>2143</ele>
        <time>2022-07-26T13:11:34Z</time>
      </trkpt>
      <trkpt lat="45.64077" lon="6.63895">
        <ele>2143</ele>
        <time>2022-07-26T13:11:35Z</time>
      </trkpt>
      <trkpt lat="45.64076" lon="6.63895">
        <ele>2143</ele>
        <time>2022-07-26T13:11:36Z</time>
      </trkpt>
      <trkpt lat="45.64075" lon="6.63895">
        <ele>2143</ele>
        <time>2022-07-26T13:11:37Z</time>
      </trkpt>
      <trkpt lat="45.64075" lon="6.63896">
        <ele>2144</ele>
        <time>2022-07-26T13:11:38Z</time>
      </trkpt>
      <trkpt lat="45.64074" lon="6.63896">
        <ele>2144</ele>
        <time>2022-07-26T13:11:39Z</time>
      </trkpt>
      <trkpt lat="45.64073" lon="6.63896">
        <ele>2144</ele>
        <time>2022-07-26T13:11:40Z</time>
      </trkpt>
      <trkpt lat="45.64073" lon="6.63896">
        <ele>2144</ele>
        <time>2022-07-26T13:11:41Z</time>
      </trkpt>
      <trkpt lat="45.64072" lon="6.63897">
        <ele>2144</ele>
        <time>2022-07-26T13:11:42Z</time>
      </trkpt>
      <trkpt lat="45.64071" lon="6.63897">
        <ele>2145</ele>
        <time>2022-07-26T13:11:43Z</time>
      </trkpt>
      <trkpt lat="45.64071" lon="6.63897">
        <ele>2145</ele>
        <time>2022-07-26T13:11:44Z</time>
      </trkpt>
      <trkpt lat="45.6407" lon="6.63897">
        <ele>2145</ele>
        <time>2022-07-26T13:11:45Z</time>
      </trkpt>
      <trkpt lat="45.6407" lon="6.63898">
        <ele>2145</ele>
        <time>2022-07-26T13:11:46Z</time>
      </trkpt>
      <trkpt lat="45.64069" lon="6.63898">
        <ele>2145</ele>
        <time>2022-07-26T13:11:47Z</time>
      </trkpt>
      <trkpt lat="45.64069" lon="6.63898">
        <ele>2146</ele>
        <time>2022-07-26T13:11:48Z</time>
      </trkpt>
      <trkpt lat="45.64068" lon="6.63898">
        <ele>2146</ele>
        <time>2022-07-26T13:11:49Z</time>
      </trkpt>
      <trkpt lat="45.64067" lon="6.63899">
        <ele>2146</ele>
        <time>2022-07-26T13:11:50Z</time>
      </trkpt>
      <trkpt lat="45.64066" lon="6.63899">
        <ele>2146</ele>
        <time>2022-07-26T13:11:51Z</time>
      </trkpt>
      <trkpt lat="45.64066" lon="6.63899">
        <ele>2146</ele>
        <time>2022-07-26T13:11:52Z</time>
      </trkpt>
      <trkpt lat="45.64065" lon="6.63899">
        <ele>2146</ele>
        <time>2022-07-26T13:11:53Z</time>
      </trkpt>
      <trkpt lat="45.64065" lon="6.63899">
        <ele>2146</ele>
        <time>2022-07-26T13:11:54Z</time>
      </trkpt>
      <trkpt lat="45.64064" lon="6.63899">
        <ele>2146</ele>
        <time>2022-07-26T13:11:55Z</time>
      </trkpt>
      <trkpt lat="45.64063" lon="6.63899">
        <ele>2146</ele>
        <time>2022-07-26T13:11:56Z</time>
      </trkpt>
      <trkpt lat="45.64062" lon="6.639">
        <ele>2151</ele>
        <time>2022-07-26T13:12:18Z</time>
      </trkpt>
      <trkpt lat="45.64061" lon="6.639">
        <ele>2151</ele>
        <time>2022-07-26T13:12:19Z</time>
      </trkpt>
      <trkpt lat="45.6406" lon="6.639">
        <ele>2151</ele>
        <time>2022-07-26T13:12:20Z</time>
      </trkpt>
      <trkpt lat="45.6406" lon="6.639">
        <ele>2151</ele>
        <time>2022-07-26T13:12:21Z</time>
      </trkpt>
      <trkpt lat="45.64059" lon="6.63901">
        <ele>2151</ele>
        <time>2022-07-26T13:12:22Z</time>
      </trkpt>
      <trkpt lat="45.64059" lon="6.63901">
        <ele>2152</ele>
        <time>2022-07-26T13:12:23Z</time>
      </trkpt>
      <trkpt lat="45.64058" lon="6.63901">
        <ele>2152</ele>
        <time>2022-07-26T13:12:24Z</time>
      </trkpt>
      <trkpt lat="45.64058" lon="6.63901">
        <ele>2152</ele>
        <time>2022-07-26T13:12:25Z</time>
      </trkpt>
      <trkpt lat="45.64057" lon="6.63901">
        <ele>2152</ele>
        <time>2022-07-26T13:12:26Z</time>
      </trkpt>
      <trkpt lat="45.64057" lon="6.63901">
        <ele>2152</ele>
        <time>2022-07-26T13:12:27Z</time>
      </trkpt>
      <trkpt lat="45.64057" lon="6.63901">
        <ele>2152</ele>
        <time>2022-07-26T13:12:28Z</time>
      </trkpt>
      <trkpt lat="45.64056" lon="6.63902">
        <ele>2152</ele>
        <time>2022-07-26T13:12:29Z</time>
      </trkpt>
      <trkpt lat="45.64055" lon="6.63902">
        <ele>2152</ele>
        <time>2022-07-26T13:12:30Z</time>
      </trkpt>
      <trkpt lat="45.64055" lon="6.63902">
        <ele>2152</ele>
        <time>2022-07-26T13:12:31Z</time>
      </trkpt>
      <trkpt lat="45.64054" lon="6.63902">
        <ele>2152</ele>
        <time>2022-07-26T13:12:32Z</time>
      </trkpt>
      <trkpt lat="45.64053" lon="6.63902">
        <ele>2153</ele>
        <time>2022-07-26T13:12:33Z</time>
      </trkpt>
      <trkpt lat="45.64053" lon="6.63902">
        <ele>2153</ele>
        <time>2022-07-26T13:12:34Z</time>
      </trkpt>
      <trkpt lat="45.64052" lon="6.63902">
        <ele>2153</ele>
        <time>2022-07-26T13:12:44Z</time>
      </trkpt>
      <trkpt lat="45.64052" lon="6.63901">
        <ele>2153</ele>
        <time>2022-07-26T13:12:45Z</time>
      </trkpt>
      <trkpt lat="45.64051" lon="6.63901">
        <ele>2153</ele>
        <time>2022-07-26T13:12:46Z</time>
      </trkpt>
      <trkpt lat="45.64051" lon="6.639">
        <ele>2153</ele>
        <time>2022-07-26T13:12:47Z</time>
      </trkpt>
      <trkpt lat="45.64051" lon="6.639">
        <ele>2154</ele>
        <time>2022-07-26T13:12:48Z</time>
      </trkpt>
      <trkpt lat="45.6405" lon="6.639">
        <ele>2154</ele>
        <time>2022-07-26T13:12:49Z</time>
      </trkpt>
      <trkpt lat="45.6405" lon="6.63899">
        <ele>2154</ele>
        <time>2022-07-26T13:12:50Z</time>
      </trkpt>
      <trkpt lat="45.6405" lon="6.63899">
        <ele>2154</ele>
        <time>2022-07-26T13:12:51Z</time>
      </trkpt>
      <trkpt lat="45.64049" lon="6.63898">
        <ele>2154</ele>
        <time>2022-07-26T13:12:52Z</time>
      </trkpt>
      <trkpt lat="45.64049" lon="6.63898">
        <ele>2155</ele>
        <time>2022-07-26T13:12:53Z</time>
      </trkpt>
      <trkpt lat="45.64048" lon="6.63898">
        <ele>2155</ele>
        <time>2022-07-26T13:12:54Z</time>
      </trkpt>
      <trkpt lat="45.64048" lon="6.63898">
        <ele>2155</ele>
        <time>2022-07-26T13:12:55Z</time>
      </trkpt>
      <trkpt lat="45.64048" lon="6.63898">
        <ele>2155</ele>
        <time>2022-07-26T13:12:56Z</time>
      </trkpt>
      <trkpt lat="45.64047" lon="6.63897">
        <ele>2155</ele>
        <time>2022-07-26T13:12:57Z</time>
      </trkpt>
      <trkpt lat="45.64046" lon="6.63897">
        <ele>2155</ele>
        <time>2022-07-26T13:12:58Z</time>
      </trkpt>
      <trkpt lat="45.64046" lon="6.63897">
        <ele>2155</ele>
        <time>2022-07-26T13:12:59Z</time>
      </trkpt>
      <trkpt lat="45.64045" lon="6.63897">
        <ele>2155</ele>
        <time>2022-07-26T13:13:00Z</time>
      </trkpt>
      <trkpt lat="45.64044" lon="6.63897">
        <ele>2155</ele>
        <time>2022-07-26T13:13:01Z</time>
      </trkpt>
      <trkpt lat="45.64044" lon="6.63897">
        <ele>2155</ele>
        <time>2022-07-26T13:13:02Z</time>
      </trkpt>
      <trkpt lat="45.64043" lon="6.63896">
        <ele>2156</ele>
        <time>2022-07-26T13:13:03Z</time>
      </trkpt>
      <trkpt lat="45.64042" lon="6.63896">
        <ele>2156</ele>
        <time>2022-07-26T13:13:04Z</time>
      </trkpt>
      <trkpt lat="45.64042" lon="6.63896">
        <ele>2156</ele>
        <time>2022-07-26T13:13:05Z</time>
      </trkpt>
      <trkpt lat="45.64041" lon="6.63895">
        <ele>2156</ele>
        <time>2022-07-26T13:13:06Z</time>
      </trkpt>
      <trkpt lat="45.64038" lon="6.63893">
        <ele>2159</ele>
        <time>2022-07-26T13:13:28Z</time>
      </trkpt>
      <trkpt lat="45.64037" lon="6.63892">
        <ele>2159</ele>
        <time>2022-07-26T13:13:29Z</time>
      </trkpt>
      <trkpt lat="45.64035" lon="6.63891">
        <ele>2159</ele>
        <time>2022-07-26T13:13:30Z</time>
      </trkpt>
      <trkpt lat="45.64034" lon="6.6389">
        <ele>2159</ele>
        <time>2022-07-26T13:13:31Z</time>
      </trkpt>
      <trkpt lat="45.64033" lon="6.6389">
        <ele>2159</ele>
        <time>2022-07-26T13:13:32Z</time>
      </trkpt>
      <trkpt lat="45.64031" lon="6.63889">
        <ele>2160</ele>
        <time>2022-07-26T13:13:41Z</time>
      </trkpt>
      <trkpt lat="45.6403" lon="6.63889">
        <ele>2160</ele>
        <time>2022-07-26T13:13:42Z</time>
      </trkpt>
      <trkpt lat="45.64029" lon="6.63889">
        <ele>2161</ele>
        <time>2022-07-26T13:13:43Z</time>
      </trkpt>
      <trkpt lat="45.64028" lon="6.63888">
        <ele>2161</ele>
        <time>2022-07-26T13:13:44Z</time>
      </trkpt>
      <trkpt lat="45.64028" lon="6.63888">
        <ele>2161</ele>
        <time>2022-07-26T13:13:45Z</time>
      </trkpt>
      <trkpt lat="45.64026" lon="6.63887">
        <ele>2164</ele>
        <time>2022-07-26T13:14:06Z</time>
      </trkpt>
      <trkpt lat="45.64024" lon="6.63887">
        <ele>2164</ele>
        <time>2022-07-26T13:14:07Z</time>
      </trkpt>
      <trkpt lat="45.64023" lon="6.63886">
        <ele>2165</ele>
        <time>2022-07-26T13:14:08Z</time>
      </trkpt>
      <trkpt lat="45.64022" lon="6.63886">
        <ele>2165</ele>
        <time>2022-07-26T13:14:09Z</time>
      </trkpt>
      <trkpt lat="45.64021" lon="6.63886">
        <ele>2165</ele>
        <time>2022-07-26T13:14:10Z</time>
      </trkpt>
      <trkpt lat="45.64018" lon="6.63888">
        <ele>2168</ele>
        <time>2022-07-26T13:14:35Z</time>
      </trkpt>
      <trkpt lat="45.64017" lon="6.6389">
        <ele>2168</ele>
        <time>2022-07-26T13:14:36Z</time>
      </trkpt>
      <trkpt lat="45.64016" lon="6.63891">
        <ele>2168</ele>
        <time>2022-07-26T13:14:37Z</time>
      </trkpt>
      <trkpt lat="45.64015" lon="6.63892">
        <ele>2168</ele>
        <time>2022-07-26T13:14:38Z</time>
      </trkpt>
      <trkpt lat="45.64015" lon="6.63893">
        <ele>2168</ele>
        <time>2022-07-26T13:14:39Z</time>
      </trkpt>
      <trkpt lat="45.64014" lon="6.63894">
        <ele>2168</ele>
        <time>2022-07-26T13:14:40Z</time>
      </trkpt>
      <trkpt lat="45.64014" lon="6.63894">
        <ele>2168</ele>
        <time>2022-07-26T13:14:41Z</time>
      </trkpt>
      <trkpt lat="45.64013" lon="6.63895">
        <ele>2168</ele>
        <time>2022-07-26T13:14:42Z</time>
      </trkpt>
      <trkpt lat="45.64013" lon="6.63895">
        <ele>2169</ele>
        <time>2022-07-26T13:14:43Z</time>
      </trkpt>
      <trkpt lat="45.64013" lon="6.63895">
        <ele>2169</ele>
        <time>2022-07-26T13:14:44Z</time>
      </trkpt>
      <trkpt lat="45.64012" lon="6.63895">
        <ele>2169</ele>
        <time>2022-07-26T13:14:45Z</time>
      </trkpt>
      <trkpt lat="45.64012" lon="6.63895">
        <ele>2169</ele>
        <time>2022-07-26T13:14:46Z</time>
      </trkpt>
      <trkpt lat="45.64012" lon="6.63895">
        <ele>2169</ele>
        <time>2022-07-26T13:14:47Z</time>
      </trkpt>
      <trkpt lat="45.64011" lon="6.63895">
        <ele>2169</ele>
        <time>2022-07-26T13:14:48Z</time>
      </trkpt>
      <trkpt lat="45.6401" lon="6.63894">
        <ele>2169</ele>
        <time>2022-07-26T13:14:49Z</time>
      </trkpt>
      <trkpt lat="45.64009" lon="6.63894">
        <ele>2172</ele>
        <time>2022-07-26T13:15:21Z</time>
      </trkpt>
      <trkpt lat="45.64008" lon="6.63893">
        <ele>2172</ele>
        <time>2022-07-26T13:15:22Z</time>
      </trkpt>
      <trkpt lat="45.64008" lon="6.63893">
        <ele>2172</ele>
        <time>2022-07-26T13:15:23Z</time>
      </trkpt>
      <trkpt lat="45.64007" lon="6.63893">
        <ele>2172</ele>
        <time>2022-07-26T13:15:24Z</time>
      </trkpt>
      <trkpt lat="45.64007" lon="6.63893">
        <ele>2172</ele>
        <time>2022-07-26T13:15:25Z</time>
      </trkpt>
      <trkpt lat="45.64006" lon="6.63893">
        <ele>2172</ele>
        <time>2022-07-26T13:15:26Z</time>
      </trkpt>
      <trkpt lat="45.64005" lon="6.63893">
        <ele>2172</ele>
        <time>2022-07-26T13:15:27Z</time>
      </trkpt>
      <trkpt lat="45.64004" lon="6.63894">
        <ele>2172</ele>
        <time>2022-07-26T13:15:28Z</time>
      </trkpt>
      <trkpt lat="45.64004" lon="6.63894">
        <ele>2172</ele>
        <time>2022-07-26T13:15:29Z</time>
      </trkpt>
      <trkpt lat="45.64003" lon="6.63894">
        <ele>2172</ele>
        <time>2022-07-26T13:15:30Z</time>
      </trkpt>
      <trkpt lat="45.64002" lon="6.63895">
        <ele>2172</ele>
        <time>2022-07-26T13:15:31Z</time>
      </trkpt>
      <trkpt lat="45.64001" lon="6.63895">
        <ele>2172</ele>
        <time>2022-07-26T13:15:32Z</time>
      </trkpt>
      <trkpt lat="45.64" lon="6.63895">
        <ele>2172</ele>
        <time>2022-07-26T13:15:33Z</time>
      </trkpt>
      <trkpt lat="45.64" lon="6.63895">
        <ele>2172</ele>
        <time>2022-07-26T13:15:34Z</time>
      </trkpt>
      <trkpt lat="45.63999" lon="6.63895">
        <ele>2172</ele>
        <time>2022-07-26T13:15:35Z</time>
      </trkpt>
      <trkpt lat="45.63999" lon="6.63896">
        <ele>2172</ele>
        <time>2022-07-26T13:15:36Z</time>
      </trkpt>
      <trkpt lat="45.63998" lon="6.63896">
        <ele>2172</ele>
        <time>2022-07-26T13:15:37Z</time>
      </trkpt>
      <trkpt lat="45.63998" lon="6.63896">
        <ele>2173</ele>
        <time>2022-07-26T13:15:38Z</time>
      </trkpt>
      <trkpt lat="45.63998" lon="6.63896">
        <ele>2173</ele>
        <time>2022-07-26T13:15:39Z</time>
      </trkpt>
      <trkpt lat="45.63997" lon="6.63896">
        <ele>2173</ele>
        <time>2022-07-26T13:15:40Z</time>
      </trkpt>
      <trkpt lat="45.63997" lon="6.63896">
        <ele>2173</ele>
        <time>2022-07-26T13:15:41Z</time>
      </trkpt>
      <trkpt lat="45.63996" lon="6.63896">
        <ele>2173</ele>
        <time>2022-07-26T13:15:42Z</time>
      </trkpt>
      <trkpt lat="45.63995" lon="6.63896">
        <ele>2174</ele>
        <time>2022-07-26T13:15:43Z</time>
      </trkpt>
      <trkpt lat="45.63995" lon="6.63896">
        <ele>2174</ele>
        <time>2022-07-26T13:15:44Z</time>
      </trkpt>
      <trkpt lat="45.63994" lon="6.63896">
        <ele>2174</ele>
        <time>2022-07-26T13:15:45Z</time>
      </trkpt>
      <trkpt lat="45.63993" lon="6.63896">
        <ele>2174</ele>
        <time>2022-07-26T13:15:46Z</time>
      </trkpt>
      <trkpt lat="45.63993" lon="6.63895">
        <ele>2174</ele>
        <time>2022-07-26T13:15:47Z</time>
      </trkpt>
      <trkpt lat="45.63992" lon="6.63895">
        <ele>2175</ele>
        <time>2022-07-26T13:15:48Z</time>
      </trkpt>
      <trkpt lat="45.63991" lon="6.63895">
        <ele>2175</ele>
        <time>2022-07-26T13:15:49Z</time>
      </trkpt>
      <trkpt lat="45.63991" lon="6.63894">
        <ele>2175</ele>
        <time>2022-07-26T13:15:50Z</time>
      </trkpt>
      <trkpt lat="45.6399" lon="6.63894">
        <ele>2175</ele>
        <time>2022-07-26T13:15:51Z</time>
      </trkpt>
      <trkpt lat="45.63989" lon="6.63894">
        <ele>2177</ele>
        <time>2022-07-26T13:15:58Z</time>
      </trkpt>
      <trkpt lat="45.63989" lon="6.63894">
        <ele>2177</ele>
        <time>2022-07-26T13:15:59Z</time>
      </trkpt>
      <trkpt lat="45.63988" lon="6.63895">
        <ele>2177</ele>
        <time>2022-07-26T13:16:00Z</time>
      </trkpt>
      <trkpt lat="45.63988" lon="6.63895">
        <ele>2177</ele>
        <time>2022-07-26T13:16:01Z</time>
      </trkpt>
      <trkpt lat="45.63988" lon="6.63896">
        <ele>2177</ele>
        <time>2022-07-26T13:16:02Z</time>
      </trkpt>
      <trkpt lat="45.63988" lon="6.63897">
        <ele>2179</ele>
        <time>2022-07-26T13:16:12Z</time>
      </trkpt>
      <trkpt lat="45.63988" lon="6.63898">
        <ele>2180</ele>
        <time>2022-07-26T13:16:13Z</time>
      </trkpt>
      <trkpt lat="45.63988" lon="6.63899">
        <ele>2180</ele>
        <time>2022-07-26T13:16:14Z</time>
      </trkpt>
      <trkpt lat="45.63988" lon="6.639">
        <ele>2180</ele>
        <time>2022-07-26T13:16:15Z</time>
      </trkpt>
      <trkpt lat="45.63988" lon="6.63901">
        <ele>2180</ele>
        <time>2022-07-26T13:16:16Z</time>
      </trkpt>
      <trkpt lat="45.63988" lon="6.63902">
        <ele>2180</ele>
        <time>2022-07-26T13:16:17Z</time>
      </trkpt>
      <trkpt lat="45.63988" lon="6.63902">
        <ele>2181</ele>
        <time>2022-07-26T13:16:18Z</time>
      </trkpt>
      <trkpt lat="45.63988" lon="6.63903">
        <ele>2181</ele>
        <time>2022-07-26T13:16:19Z</time>
      </trkpt>
      <trkpt lat="45.63988" lon="6.63904">
        <ele>2181</ele>
        <time>2022-07-26T13:16:20Z</time>
      </trkpt>
      <trkpt lat="45.63989" lon="6.63905">
        <ele>2181</ele>
        <time>2022-07-26T13:16:21Z</time>
      </trkpt>
      <trkpt lat="45.63989" lon="6.63906">
        <ele>2181</ele>
        <time>2022-07-26T13:16:22Z</time>
      </trkpt>
      <trkpt lat="45.63987" lon="6.63911">
        <ele>2187</ele>
        <time>2022-07-26T13:17:03Z</time>
      </trkpt>
      <trkpt lat="45.63986" lon="6.63914">
        <ele>2187</ele>
        <time>2022-07-26T13:17:04Z</time>
      </trkpt>
      <trkpt lat="45.63986" lon="6.63918">
        <ele>2187</ele>
        <time>2022-07-26T13:17:05Z</time>
      </trkpt>
      <trkpt lat="45.63985" lon="6.63918">
        <ele>2187</ele>
        <time>2022-07-26T13:17:06Z</time>
      </trkpt>
      <trkpt lat="45.63985" lon="6.63919">
        <ele>2187</ele>
        <time>2022-07-26T13:17:07Z</time>
      </trkpt>
      <trkpt lat="45.63985" lon="6.6392">
        <ele>2188</ele>
        <time>2022-07-26T13:17:08Z</time>
      </trkpt>
      <trkpt lat="45.63985" lon="6.63921">
        <ele>2188</ele>
        <time>2022-07-26T13:17:09Z</time>
      </trkpt>
      <trkpt lat="45.63984" lon="6.63922">
        <ele>2188</ele>
        <time>2022-07-26T13:17:10Z</time>
      </trkpt>
      <trkpt lat="45.63984" lon="6.63922">
        <ele>2188</ele>
        <time>2022-07-26T13:17:11Z</time>
      </trkpt>
      <trkpt lat="45.63983" lon="6.63922">
        <ele>2188</ele>
        <time>2022-07-26T13:17:12Z</time>
      </trkpt>
      <trkpt lat="45.63983" lon="6.63922">
        <ele>2188</ele>
        <time>2022-07-26T13:17:13Z</time>
      </trkpt>
      <trkpt lat="45.63983" lon="6.63922">
        <ele>2188</ele>
        <time>2022-07-26T13:17:14Z</time>
      </trkpt>
      <trkpt lat="45.63983" lon="6.63923">
        <ele>2188</ele>
        <time>2022-07-26T13:17:15Z</time>
      </trkpt>
      <trkpt lat="45.63982" lon="6.63923">
        <ele>2188</ele>
        <time>2022-07-26T13:17:16Z</time>
      </trkpt>
      <trkpt lat="45.63982" lon="6.63922">
        <ele>2188</ele>
        <time>2022-07-26T13:17:17Z</time>
      </trkpt>
      <trkpt lat="45.63981" lon="6.63922">
        <ele>2189</ele>
        <time>2022-07-26T13:17:18Z</time>
      </trkpt>
      <trkpt lat="45.63981" lon="6.63922">
        <ele>2189</ele>
        <time>2022-07-26T13:17:19Z</time>
      </trkpt>
      <trkpt lat="45.6398" lon="6.63921">
        <ele>2189</ele>
        <time>2022-07-26T13:17:20Z</time>
      </trkpt>
      <trkpt lat="45.63979" lon="6.63921">
        <ele>2189</ele>
        <time>2022-07-26T13:17:21Z</time>
      </trkpt>
      <trkpt lat="45.63979" lon="6.63921">
        <ele>2189</ele>
        <time>2022-07-26T13:17:22Z</time>
      </trkpt>
      <trkpt lat="45.63979" lon="6.6392">
        <ele>2189</ele>
        <time>2022-07-26T13:17:23Z</time>
      </trkpt>
      <trkpt lat="45.63978" lon="6.6392">
        <ele>2189</ele>
        <time>2022-07-26T13:17:24Z</time>
      </trkpt>
      <trkpt lat="45.63978" lon="6.6392">
        <ele>2189</ele>
        <time>2022-07-26T13:17:25Z</time>
      </trkpt>
      <trkpt lat="45.63978" lon="6.6392">
        <ele>2189</ele>
        <time>2022-07-26T13:17:26Z</time>
      </trkpt>
      <trkpt lat="45.63978" lon="6.6392">
        <ele>2189</ele>
        <time>2022-07-26T13:17:27Z</time>
      </trkpt>
      <trkpt lat="45.63977" lon="6.63919">
        <ele>2189</ele>
        <time>2022-07-26T13:17:28Z</time>
      </trkpt>
      <trkpt lat="45.63976" lon="6.63919">
        <ele>2189</ele>
        <time>2022-07-26T13:17:29Z</time>
      </trkpt>
      <trkpt lat="45.63975" lon="6.63918">
        <ele>2189</ele>
        <time>2022-07-26T13:17:30Z</time>
      </trkpt>
      <trkpt lat="45.63975" lon="6.63918">
        <ele>2189</ele>
        <time>2022-07-26T13:17:31Z</time>
      </trkpt>
      <trkpt lat="45.63974" lon="6.63918">
        <ele>2189</ele>
        <time>2022-07-26T13:17:32Z</time>
      </trkpt>
      <trkpt lat="45.63974" lon="6.63917">
        <ele>2190</ele>
        <time>2022-07-26T13:17:33Z</time>
      </trkpt>
      <trkpt lat="45.63973" lon="6.63917">
        <ele>2190</ele>
        <time>2022-07-26T13:17:34Z</time>
      </trkpt>
      <trkpt lat="45.63973" lon="6.63916">
        <ele>2190</ele>
        <time>2022-07-26T13:17:35Z</time>
      </trkpt>
      <trkpt lat="45.63972" lon="6.63916">
        <ele>2190</ele>
        <time>2022-07-26T13:17:36Z</time>
      </trkpt>
      <trkpt lat="45.63972" lon="6.63915">
        <ele>2190</ele>
        <time>2022-07-26T13:17:37Z</time>
      </trkpt>
      <trkpt lat="45.63971" lon="6.63915">
        <ele>2191</ele>
        <time>2022-07-26T13:17:38Z</time>
      </trkpt>
      <trkpt lat="45.6397" lon="6.63913">
        <ele>2192</ele>
        <time>2022-07-26T13:17:52Z</time>
      </trkpt>
      <trkpt lat="45.63969" lon="6.63912">
        <ele>2193</ele>
        <time>2022-07-26T13:17:53Z</time>
      </trkpt>
      <trkpt lat="45.63969" lon="6.63911">
        <ele>2193</ele>
        <time>2022-07-26T13:17:54Z</time>
      </trkpt>
      <trkpt lat="45.63968" lon="6.6391">
        <ele>2193</ele>
        <time>2022-07-26T13:17:55Z</time>
      </trkpt>
      <trkpt lat="45.63967" lon="6.63909">
        <ele>2193</ele>
        <time>2022-07-26T13:17:56Z</time>
      </trkpt>
      <trkpt lat="45.63967" lon="6.63909">
        <ele>2193</ele>
        <time>2022-07-26T13:17:57Z</time>
      </trkpt>
      <trkpt lat="45.63967" lon="6.63909">
        <ele>2193</ele>
        <time>2022-07-26T13:17:58Z</time>
      </trkpt>
      <trkpt lat="45.63966" lon="6.63909">
        <ele>2193</ele>
        <time>2022-07-26T13:17:59Z</time>
      </trkpt>
      <trkpt lat="45.63966" lon="6.63909">
        <ele>2193</ele>
        <time>2022-07-26T13:18:00Z</time>
      </trkpt>
      <trkpt lat="45.63965" lon="6.63909">
        <ele>2193</ele>
        <time>2022-07-26T13:18:01Z</time>
      </trkpt>
      <trkpt lat="45.63964" lon="6.63909">
        <ele>2193</ele>
        <time>2022-07-26T13:18:02Z</time>
      </trkpt>
      <trkpt lat="45.63964" lon="6.6391">
        <ele>2194</ele>
        <time>2022-07-26T13:18:03Z</time>
      </trkpt>
      <trkpt lat="45.63962" lon="6.6391">
        <ele>2198</ele>
        <time>2022-07-26T13:19:37Z</time>
      </trkpt>
      <trkpt lat="45.6396" lon="6.63909">
        <ele>2198</ele>
        <time>2022-07-26T13:19:38Z</time>
      </trkpt>
      <trkpt lat="45.63959" lon="6.63909">
        <ele>2198</ele>
        <time>2022-07-26T13:19:39Z</time>
      </trkpt>
      <trkpt lat="45.63958" lon="6.63909">
        <ele>2198</ele>
        <time>2022-07-26T13:19:40Z</time>
      </trkpt>
      <trkpt lat="45.63957" lon="6.63908">
        <ele>2198</ele>
        <time>2022-07-26T13:19:41Z</time>
      </trkpt>
      <trkpt lat="45.63955" lon="6.63908">
        <ele>2198</ele>
        <time>2022-07-26T13:19:48Z</time>
      </trkpt>
      <trkpt lat="45.63954" lon="6.63908">
        <ele>2198</ele>
        <time>2022-07-26T13:19:49Z</time>
      </trkpt>
      <trkpt lat="45.63953" lon="6.63908">
        <ele>2198</ele>
        <time>2022-07-26T13:19:50Z</time>
      </trkpt>
      <trkpt lat="45.63952" lon="6.63908">
        <ele>2198</ele>
        <time>2022-07-26T13:19:51Z</time>
      </trkpt>
      <trkpt lat="45.63951" lon="6.63907">
        <ele>2198</ele>
        <time>2022-07-26T13:19:52Z</time>
      </trkpt>
      <trkpt lat="45.63951" lon="6.63908">
        <ele>2198</ele>
        <time>2022-07-26T13:19:53Z</time>
      </trkpt>
      <trkpt lat="45.6395" lon="6.63908">
        <ele>2198</ele>
        <time>2022-07-26T13:19:54Z</time>
      </trkpt>
      <trkpt lat="45.63949" lon="6.63908">
        <ele>2198</ele>
        <time>2022-07-26T13:19:55Z</time>
      </trkpt>
      <trkpt lat="45.63948" lon="6.63908">
        <ele>2198</ele>
        <time>2022-07-26T13:19:56Z</time>
      </trkpt>
      <trkpt lat="45.63947" lon="6.63909">
        <ele>2198</ele>
        <time>2022-07-26T13:19:57Z</time>
      </trkpt>
      <trkpt lat="45.63947" lon="6.63909">
        <ele>2199</ele>
        <time>2022-07-26T13:19:58Z</time>
      </trkpt>
      <trkpt lat="45.63946" lon="6.6391">
        <ele>2199</ele>
        <time>2022-07-26T13:19:59Z</time>
      </trkpt>
      <trkpt lat="45.63945" lon="6.63911">
        <ele>2199</ele>
        <time>2022-07-26T13:20:00Z</time>
      </trkpt>
      <trkpt lat="45.63945" lon="6.63911">
        <ele>2199</ele>
        <time>2022-07-26T13:20:01Z</time>
      </trkpt>
      <trkpt lat="45.63945" lon="6.63912">
        <ele>2199</ele>
        <time>2022-07-26T13:20:02Z</time>
      </trkpt>
      <trkpt lat="45.63944" lon="6.63912">
        <ele>2199</ele>
        <time>2022-07-26T13:20:03Z</time>
      </trkpt>
      <trkpt lat="45.63944" lon="6.63913">
        <ele>2199</ele>
        <time>2022-07-26T13:20:04Z</time>
      </trkpt>
      <trkpt lat="45.63944" lon="6.63913">
        <ele>2199</ele>
        <time>2022-07-26T13:20:05Z</time>
      </trkpt>
      <trkpt lat="45.63944" lon="6.63914">
        <ele>2199</ele>
        <time>2022-07-26T13:20:06Z</time>
      </trkpt>
      <trkpt lat="45.63944" lon="6.63915">
        <ele>2199</ele>
        <time>2022-07-26T13:20:07Z</time>
      </trkpt>
      <trkpt lat="45.63944" lon="6.63916">
        <ele>2200</ele>
        <time>2022-07-26T13:20:08Z</time>
      </trkpt>
      <trkpt lat="45.63944" lon="6.63917">
        <ele>2200</ele>
        <time>2022-07-26T13:20:09Z</time>
      </trkpt>
      <trkpt lat="45.63941" lon="6.63922">
        <ele>2208</ele>
        <time>2022-07-26T13:20:56Z</time>
      </trkpt>
      <trkpt lat="45.63939" lon="6.63925">
        <ele>2208</ele>
        <time>2022-07-26T13:20:57Z</time>
      </trkpt>
      <trkpt lat="45.63937" lon="6.63927">
        <ele>2208</ele>
        <time>2022-07-26T13:20:58Z</time>
      </trkpt>
      <trkpt lat="45.63936" lon="6.63929">
        <ele>2208</ele>
        <time>2022-07-26T13:20:59Z</time>
      </trkpt>
      <trkpt lat="45.63935" lon="6.6393">
        <ele>2208</ele>
        <time>2022-07-26T13:21:00Z</time>
      </trkpt>
      <trkpt lat="45.63935" lon="6.63931">
        <ele>2208</ele>
        <time>2022-07-26T13:21:01Z</time>
      </trkpt>
      <trkpt lat="45.63935" lon="6.63931">
        <ele>2208</ele>
        <time>2022-07-26T13:21:02Z</time>
      </trkpt>
      <trkpt lat="45.63935" lon="6.63931">
        <ele>2208</ele>
        <time>2022-07-26T13:21:03Z</time>
      </trkpt>
      <trkpt lat="45.63934" lon="6.63932">
        <ele>2208</ele>
        <time>2022-07-26T13:21:04Z</time>
      </trkpt>
      <trkpt lat="45.63934" lon="6.63932">
        <ele>2208</ele>
        <time>2022-07-26T13:21:05Z</time>
      </trkpt>
      <trkpt lat="45.63934" lon="6.63933">
        <ele>2208</ele>
        <time>2022-07-26T13:21:06Z</time>
      </trkpt>
      <trkpt lat="45.63933" lon="6.63935">
        <ele>2208</ele>
        <time>2022-07-26T13:21:07Z</time>
      </trkpt>
      <trkpt lat="45.63933" lon="6.63936">
        <ele>2209</ele>
        <time>2022-07-26T13:21:08Z</time>
      </trkpt>
      <trkpt lat="45.63932" lon="6.63937">
        <ele>2209</ele>
        <time>2022-07-26T13:21:09Z</time>
      </trkpt>
      <trkpt lat="45.63932" lon="6.63937">
        <ele>2209</ele>
        <time>2022-07-26T13:21:10Z</time>
      </trkpt>
      <trkpt lat="45.63932" lon="6.63938">
        <ele>2209</ele>
        <time>2022-07-26T13:21:11Z</time>
      </trkpt>
      <trkpt lat="45.63932" lon="6.63938">
        <ele>2209</ele>
        <time>2022-07-26T13:21:12Z</time>
      </trkpt>
      <trkpt lat="45.63932" lon="6.63939">
        <ele>2210</ele>
        <time>2022-07-26T13:21:13Z</time>
      </trkpt>
      <trkpt lat="45.63932" lon="6.63939">
        <ele>2210</ele>
        <time>2022-07-26T13:21:14Z</time>
      </trkpt>
      <trkpt lat="45.63932" lon="6.6394">
        <ele>2210</ele>
        <time>2022-07-26T13:21:15Z</time>
      </trkpt>
      <trkpt lat="45.63933" lon="6.63941">
        <ele>2210</ele>
        <time>2022-07-26T13:21:16Z</time>
      </trkpt>
      <trkpt lat="45.63929" lon="6.63944">
        <ele>2214</ele>
        <time>2022-07-26T13:21:48Z</time>
      </trkpt>
      <trkpt lat="45.63927" lon="6.63945">
        <ele>2214</ele>
        <time>2022-07-26T13:21:49Z</time>
      </trkpt>
      <trkpt lat="45.63926" lon="6.63946">
        <ele>2214</ele>
        <time>2022-07-26T13:21:50Z</time>
      </trkpt>
      <trkpt lat="45.63923" lon="6.63947">
        <ele>2217</ele>
        <time>2022-07-26T13:22:05Z</time>
      </trkpt>
      <trkpt lat="45.63922" lon="6.63948">
        <ele>2217</ele>
        <time>2022-07-26T13:22:06Z</time>
      </trkpt>
      <trkpt lat="45.63921" lon="6.63949">
        <ele>2217</ele>
        <time>2022-07-26T13:22:07Z</time>
      </trkpt>
      <trkpt lat="45.63921" lon="6.63949">
        <ele>2217</ele>
        <time>2022-07-26T13:22:08Z</time>
      </trkpt>
      <trkpt lat="45.6392" lon="6.63949">
        <ele>2217</ele>
        <time>2022-07-26T13:22:09Z</time>
      </trkpt>
      <trkpt lat="45.6392" lon="6.6395">
        <ele>2217</ele>
        <time>2022-07-26T13:22:10Z</time>
      </trkpt>
      <trkpt lat="45.63919" lon="6.6395">
        <ele>2217</ele>
        <time>2022-07-26T13:22:11Z</time>
      </trkpt>
      <trkpt lat="45.63918" lon="6.6395">
        <ele>2217</ele>
        <time>2022-07-26T13:22:12Z</time>
      </trkpt>
      <trkpt lat="45.63918" lon="6.6395">
        <ele>2218</ele>
        <time>2022-07-26T13:22:13Z</time>
      </trkpt>
      <trkpt lat="45.63917" lon="6.6395">
        <ele>2218</ele>
        <time>2022-07-26T13:22:14Z</time>
      </trkpt>
      <trkpt lat="45.63917" lon="6.6395">
        <ele>2218</ele>
        <time>2022-07-26T13:22:15Z</time>
      </trkpt>
      <trkpt lat="45.63916" lon="6.6395">
        <ele>2218</ele>
        <time>2022-07-26T13:22:16Z</time>
      </trkpt>
      <trkpt lat="45.63916" lon="6.6395">
        <ele>2218</ele>
        <time>2022-07-26T13:22:17Z</time>
      </trkpt>
      <trkpt lat="45.63915" lon="6.6395">
        <ele>2219</ele>
        <time>2022-07-26T13:22:18Z</time>
      </trkpt>
      <trkpt lat="45.63915" lon="6.6395">
        <ele>2219</ele>
        <time>2022-07-26T13:22:19Z</time>
      </trkpt>
      <trkpt lat="45.63915" lon="6.6395">
        <ele>2219</ele>
        <time>2022-07-26T13:22:20Z</time>
      </trkpt>
      <trkpt lat="45.63914" lon="6.6395">
        <ele>2219</ele>
        <time>2022-07-26T13:22:21Z</time>
      </trkpt>
      <trkpt lat="45.63914" lon="6.6395">
        <ele>2219</ele>
        <time>2022-07-26T13:22:22Z</time>
      </trkpt>
      <trkpt lat="45.63914" lon="6.6395">
        <ele>2220</ele>
        <time>2022-07-26T13:22:23Z</time>
      </trkpt>
      <trkpt lat="45.63914" lon="6.6395">
        <ele>2220</ele>
        <time>2022-07-26T13:22:24Z</time>
      </trkpt>
      <trkpt lat="45.63913" lon="6.6395">
        <ele>2220</ele>
        <time>2022-07-26T13:22:25Z</time>
      </trkpt>
      <trkpt lat="45.63912" lon="6.6395">
        <ele>2220</ele>
        <time>2022-07-26T13:22:26Z</time>
      </trkpt>
      <trkpt lat="45.63911" lon="6.63949">
        <ele>2222</ele>
        <time>2022-07-26T13:22:44Z</time>
      </trkpt>
      <trkpt lat="45.63911" lon="6.63949">
        <ele>2222</ele>
        <time>2022-07-26T13:22:45Z</time>
      </trkpt>
      <trkpt lat="45.6391" lon="6.63949">
        <ele>2222</ele>
        <time>2022-07-26T13:22:46Z</time>
      </trkpt>
      <trkpt lat="45.6391" lon="6.63948">
        <ele>2222</ele>
        <time>2022-07-26T13:22:47Z</time>
      </trkpt>
      <trkpt lat="45.6391" lon="6.63948">
        <ele>2222</ele>
        <time>2022-07-26T13:22:48Z</time>
      </trkpt>
      <trkpt lat="45.63909" lon="6.63948">
        <ele>2222</ele>
        <time>2022-07-26T13:22:49Z</time>
      </trkpt>
      <trkpt lat="45.63909" lon="6.63948">
        <ele>2222</ele>
        <time>2022-07-26T13:22:50Z</time>
      </trkpt>
      <trkpt lat="45.63909" lon="6.63948">
        <ele>2222</ele>
        <time>2022-07-26T13:22:51Z</time>
      </trkpt>
      <trkpt lat="45.63909" lon="6.63949">
        <ele>2222</ele>
        <time>2022-07-26T13:22:52Z</time>
      </trkpt>
      <trkpt lat="45.63909" lon="6.63949">
        <ele>2223</ele>
        <time>2022-07-26T13:22:53Z</time>
      </trkpt>
      <trkpt lat="45.63908" lon="6.6395">
        <ele>2223</ele>
        <time>2022-07-26T13:22:54Z</time>
      </trkpt>
      <trkpt lat="45.63908" lon="6.6395">
        <ele>2223</ele>
        <time>2022-07-26T13:22:55Z</time>
      </trkpt>
      <trkpt lat="45.63908" lon="6.63951">
        <ele>2223</ele>
        <time>2022-07-26T13:22:56Z</time>
      </trkpt>
      <trkpt lat="45.63907" lon="6.63951">
        <ele>2223</ele>
        <time>2022-07-26T13:22:57Z</time>
      </trkpt>
      <trkpt lat="45.63906" lon="6.63951">
        <ele>2223</ele>
        <time>2022-07-26T13:22:58Z</time>
      </trkpt>
      <trkpt lat="45.63906" lon="6.63951">
        <ele>2223</ele>
        <time>2022-07-26T13:22:59Z</time>
      </trkpt>
      <trkpt lat="45.63905" lon="6.63951">
        <ele>2223</ele>
        <time>2022-07-26T13:23:00Z</time>
      </trkpt>
      <trkpt lat="45.63905" lon="6.63951">
        <ele>2223</ele>
        <time>2022-07-26T13:23:01Z</time>
      </trkpt>
      <trkpt lat="45.63904" lon="6.63951">
        <ele>2223</ele>
        <time>2022-07-26T13:23:02Z</time>
      </trkpt>
      <trkpt lat="45.63904" lon="6.63951">
        <ele>2223</ele>
        <time>2022-07-26T13:23:03Z</time>
      </trkpt>
      <trkpt lat="45.63904" lon="6.63951">
        <ele>2223</ele>
        <time>2022-07-26T13:23:04Z</time>
      </trkpt>
      <trkpt lat="45.63904" lon="6.63951">
        <ele>2223</ele>
        <time>2022-07-26T13:23:05Z</time>
      </trkpt>
      <trkpt lat="45.63903" lon="6.63951">
        <ele>2223</ele>
        <time>2022-07-26T13:23:06Z</time>
      </trkpt>
      <trkpt lat="45.63902" lon="6.63951">
        <ele>2223</ele>
        <time>2022-07-26T13:23:07Z</time>
      </trkpt>
      <trkpt lat="45.63901" lon="6.63952">
        <ele>2224</ele>
        <time>2022-07-26T13:23:08Z</time>
      </trkpt>
      <trkpt lat="45.63901" lon="6.63952">
        <ele>2224</ele>
        <time>2022-07-26T13:23:09Z</time>
      </trkpt>
      <trkpt lat="45.63901" lon="6.63952">
        <ele>2224</ele>
        <time>2022-07-26T13:23:10Z</time>
      </trkpt>
      <trkpt lat="45.639" lon="6.63952">
        <ele>2224</ele>
        <time>2022-07-26T13:23:11Z</time>
      </trkpt>
      <trkpt lat="45.639" lon="6.63952">
        <ele>2224</ele>
        <time>2022-07-26T13:23:12Z</time>
      </trkpt>
      <trkpt lat="45.63899" lon="6.63952">
        <ele>2224</ele>
        <time>2022-07-26T13:23:13Z</time>
      </trkpt>
      <trkpt lat="45.63899" lon="6.63952">
        <ele>2224</ele>
        <time>2022-07-26T13:23:14Z</time>
      </trkpt>
      <trkpt lat="45.63898" lon="6.63952">
        <ele>2224</ele>
        <time>2022-07-26T13:23:15Z</time>
      </trkpt>
      <trkpt lat="45.63897" lon="6.63952">
        <ele>2224</ele>
        <time>2022-07-26T13:23:16Z</time>
      </trkpt>
      <trkpt lat="45.63897" lon="6.63952">
        <ele>2224</ele>
        <time>2022-07-26T13:23:17Z</time>
      </trkpt>
      <trkpt lat="45.63896" lon="6.63952">
        <ele>2225</ele>
        <time>2022-07-26T13:23:18Z</time>
      </trkpt>
      <trkpt lat="45.63896" lon="6.63952">
        <ele>2225</ele>
        <time>2022-07-26T13:23:19Z</time>
      </trkpt>
      <trkpt lat="45.63895" lon="6.63952">
        <ele>2225</ele>
        <time>2022-07-26T13:23:20Z</time>
      </trkpt>
      <trkpt lat="45.63895" lon="6.63952">
        <ele>2225</ele>
        <time>2022-07-26T13:23:21Z</time>
      </trkpt>
      <trkpt lat="45.63894" lon="6.63952">
        <ele>2225</ele>
        <time>2022-07-26T13:23:22Z</time>
      </trkpt>
      <trkpt lat="45.63894" lon="6.63952">
        <ele>2225</ele>
        <time>2022-07-26T13:23:23Z</time>
      </trkpt>
      <trkpt lat="45.63893" lon="6.63952">
        <ele>2225</ele>
        <time>2022-07-26T13:23:24Z</time>
      </trkpt>
      <trkpt lat="45.63892" lon="6.63951">
        <ele>2225</ele>
        <time>2022-07-26T13:23:25Z</time>
      </trkpt>
      <trkpt lat="45.63892" lon="6.63951">
        <ele>2225</ele>
        <time>2022-07-26T13:23:26Z</time>
      </trkpt>
      <trkpt lat="45.63891" lon="6.63951">
        <ele>2225</ele>
        <time>2022-07-26T13:23:27Z</time>
      </trkpt>
      <trkpt lat="45.63891" lon="6.63951">
        <ele>2226</ele>
        <time>2022-07-26T13:23:28Z</time>
      </trkpt>
      <trkpt lat="45.6389" lon="6.63951">
        <ele>2226</ele>
        <time>2022-07-26T13:23:29Z</time>
      </trkpt>
      <trkpt lat="45.6389" lon="6.63951">
        <ele>2226</ele>
        <time>2022-07-26T13:23:30Z</time>
      </trkpt>
      <trkpt lat="45.63889" lon="6.6395">
        <ele>2226</ele>
        <time>2022-07-26T13:23:31Z</time>
      </trkpt>
      <trkpt lat="45.63888" lon="6.6395">
        <ele>2226</ele>
        <time>2022-07-26T13:23:32Z</time>
      </trkpt>
      <trkpt lat="45.63887" lon="6.6395">
        <ele>2227</ele>
        <time>2022-07-26T13:23:33Z</time>
      </trkpt>
      <trkpt lat="45.63887" lon="6.6395">
        <ele>2227</ele>
        <time>2022-07-26T13:23:34Z</time>
      </trkpt>
      <trkpt lat="45.63886" lon="6.6395">
        <ele>2227</ele>
        <time>2022-07-26T13:23:35Z</time>
      </trkpt>
      <trkpt lat="45.63885" lon="6.6395">
        <ele>2227</ele>
        <time>2022-07-26T13:23:36Z</time>
      </trkpt>
      <trkpt lat="45.63885" lon="6.6395">
        <ele>2227</ele>
        <time>2022-07-26T13:23:37Z</time>
      </trkpt>
      <trkpt lat="45.63885" lon="6.6395">
        <ele>2227</ele>
        <time>2022-07-26T13:23:38Z</time>
      </trkpt>
      <trkpt lat="45.63884" lon="6.6395">
        <ele>2227</ele>
        <time>2022-07-26T13:23:39Z</time>
      </trkpt>
      <trkpt lat="45.63884" lon="6.6395">
        <ele>2227</ele>
        <time>2022-07-26T13:23:40Z</time>
      </trkpt>
      <trkpt lat="45.63883" lon="6.6395">
        <ele>2227</ele>
        <time>2022-07-26T13:23:41Z</time>
      </trkpt>
      <trkpt lat="45.63882" lon="6.6395">
        <ele>2227</ele>
        <time>2022-07-26T13:23:42Z</time>
      </trkpt>
      <trkpt lat="45.63882" lon="6.6395">
        <ele>2228</ele>
        <time>2022-07-26T13:23:43Z</time>
      </trkpt>
      <trkpt lat="45.63881" lon="6.6395">
        <ele>2228</ele>
        <time>2022-07-26T13:23:44Z</time>
      </trkpt>
      <trkpt lat="45.63881" lon="6.6395">
        <ele>2228</ele>
        <time>2022-07-26T13:23:45Z</time>
      </trkpt>
      <trkpt lat="45.6388" lon="6.6395">
        <ele>2228</ele>
        <time>2022-07-26T13:23:46Z</time>
      </trkpt>
      <trkpt lat="45.6388" lon="6.6395">
        <ele>2228</ele>
        <time>2022-07-26T13:23:47Z</time>
      </trkpt>
      <trkpt lat="45.63879" lon="6.63949">
        <ele>2229</ele>
        <time>2022-07-26T13:23:48Z</time>
      </trkpt>
      <trkpt lat="45.63879" lon="6.63949">
        <ele>2229</ele>
        <time>2022-07-26T13:23:49Z</time>
      </trkpt>
      <trkpt lat="45.63879" lon="6.63949">
        <ele>2229</ele>
        <time>2022-07-26T13:23:50Z</time>
      </trkpt>
      <trkpt lat="45.63878" lon="6.63948">
        <ele>2230</ele>
        <time>2022-07-26T13:23:51Z</time>
      </trkpt>
      <trkpt lat="45.63878" lon="6.63948">
        <ele>2230</ele>
        <time>2022-07-26T13:23:52Z</time>
      </trkpt>
      <trkpt lat="45.63876" lon="6.63944">
        <ele>2233</ele>
        <time>2022-07-26T13:24:14Z</time>
      </trkpt>
      <trkpt lat="45.63875" lon="6.63942">
        <ele>2233</ele>
        <time>2022-07-26T13:24:15Z</time>
      </trkpt>
      <trkpt lat="45.63873" lon="6.6394">
        <ele>2233</ele>
        <time>2022-07-26T13:24:16Z</time>
      </trkpt>
      <trkpt lat="45.63873" lon="6.63939">
        <ele>2233</ele>
        <time>2022-07-26T13:24:17Z</time>
      </trkpt>
      <trkpt lat="45.63872" lon="6.63938">
        <ele>2234</ele>
        <time>2022-07-26T13:24:18Z</time>
      </trkpt>
      <trkpt lat="45.63872" lon="6.63937">
        <ele>2234</ele>
        <time>2022-07-26T13:24:19Z</time>
      </trkpt>
      <trkpt lat="45.63871" lon="6.63937">
        <ele>2234</ele>
        <time>2022-07-26T13:24:20Z</time>
      </trkpt>
      <trkpt lat="45.63871" lon="6.63936">
        <ele>2234</ele>
        <time>2022-07-26T13:24:21Z</time>
      </trkpt>
      <trkpt lat="45.63871" lon="6.63935">
        <ele>2234</ele>
        <time>2022-07-26T13:24:22Z</time>
      </trkpt>
      <trkpt lat="45.6387" lon="6.63934">
        <ele>2235</ele>
        <time>2022-07-26T13:24:23Z</time>
      </trkpt>
      <trkpt lat="45.63869" lon="6.63934">
        <ele>2235</ele>
        <time>2022-07-26T13:24:24Z</time>
      </trkpt>
      <trkpt lat="45.63869" lon="6.63933">
        <ele>2235</ele>
        <time>2022-07-26T13:24:25Z</time>
      </trkpt>
      <trkpt lat="45.63868" lon="6.63933">
        <ele>2235</ele>
        <time>2022-07-26T13:24:26Z</time>
      </trkpt>
      <trkpt lat="45.63868" lon="6.63932">
        <ele>2235</ele>
        <time>2022-07-26T13:24:27Z</time>
      </trkpt>
      <trkpt lat="45.63867" lon="6.63932">
        <ele>2235</ele>
        <time>2022-07-26T13:24:28Z</time>
      </trkpt>
      <trkpt lat="45.63866" lon="6.63932">
        <ele>2235</ele>
        <time>2022-07-26T13:24:29Z</time>
      </trkpt>
      <trkpt lat="45.63866" lon="6.63931">
        <ele>2235</ele>
        <time>2022-07-26T13:24:30Z</time>
      </trkpt>
      <trkpt lat="45.63865" lon="6.63931">
        <ele>2235</ele>
        <time>2022-07-26T13:24:31Z</time>
      </trkpt>
      <trkpt lat="45.63864" lon="6.63931">
        <ele>2235</ele>
        <time>2022-07-26T13:24:32Z</time>
      </trkpt>
      <trkpt lat="45.63863" lon="6.6393">
        <ele>2236</ele>
        <time>2022-07-26T13:24:33Z</time>
      </trkpt>
      <trkpt lat="45.63863" lon="6.6393">
        <ele>2236</ele>
        <time>2022-07-26T13:24:34Z</time>
      </trkpt>
      <trkpt lat="45.63862" lon="6.6393">
        <ele>2236</ele>
        <time>2022-07-26T13:24:35Z</time>
      </trkpt>
      <trkpt lat="45.63861" lon="6.63929">
        <ele>2236</ele>
        <time>2022-07-26T13:24:36Z</time>
      </trkpt>
      <trkpt lat="45.63861" lon="6.63929">
        <ele>2236</ele>
        <time>2022-07-26T13:24:37Z</time>
      </trkpt>
      <trkpt lat="45.6386" lon="6.63929">
        <ele>2236</ele>
        <time>2022-07-26T13:24:38Z</time>
      </trkpt>
      <trkpt lat="45.6386" lon="6.63929">
        <ele>2236</ele>
        <time>2022-07-26T13:24:39Z</time>
      </trkpt>
      <trkpt lat="45.63859" lon="6.63928">
        <ele>2236</ele>
        <time>2022-07-26T13:24:40Z</time>
      </trkpt>
      <trkpt lat="45.63858" lon="6.63928">
        <ele>2236</ele>
        <time>2022-07-26T13:24:41Z</time>
      </trkpt>
      <trkpt lat="45.63858" lon="6.63928">
        <ele>2236</ele>
        <time>2022-07-26T13:24:42Z</time>
      </trkpt>
      <trkpt lat="45.63857" lon="6.63928">
        <ele>2237</ele>
        <time>2022-07-26T13:24:43Z</time>
      </trkpt>
      <trkpt lat="45.63857" lon="6.63928">
        <ele>2237</ele>
        <time>2022-07-26T13:24:44Z</time>
      </trkpt>
      <trkpt lat="45.63856" lon="6.63927">
        <ele>2237</ele>
        <time>2022-07-26T13:24:45Z</time>
      </trkpt>
      <trkpt lat="45.63856" lon="6.63927">
        <ele>2237</ele>
        <time>2022-07-26T13:24:46Z</time>
      </trkpt>
      <trkpt lat="45.63855" lon="6.63926">
        <ele>2237</ele>
        <time>2022-07-26T13:24:47Z</time>
      </trkpt>
      <trkpt lat="45.63854" lon="6.63926">
        <ele>2238</ele>
        <time>2022-07-26T13:24:48Z</time>
      </trkpt>
      <trkpt lat="45.63854" lon="6.63926">
        <ele>2238</ele>
        <time>2022-07-26T13:24:49Z</time>
      </trkpt>
      <trkpt lat="45.63853" lon="6.63925">
        <ele>2238</ele>
        <time>2022-07-26T13:24:50Z</time>
      </trkpt>
      <trkpt lat="45.63853" lon="6.63925">
        <ele>2238</ele>
        <time>2022-07-26T13:24:51Z</time>
      </trkpt>
      <trkpt lat="45.63852" lon="6.63924">
        <ele>2238</ele>
        <time>2022-07-26T13:24:52Z</time>
      </trkpt>
      <trkpt lat="45.63851" lon="6.63924">
        <ele>2238</ele>
        <time>2022-07-26T13:24:53Z</time>
      </trkpt>
      <trkpt lat="45.63851" lon="6.63924">
        <ele>2238</ele>
        <time>2022-07-26T13:24:54Z</time>
      </trkpt>
      <trkpt lat="45.6385" lon="6.63923">
        <ele>2238</ele>
        <time>2022-07-26T13:24:55Z</time>
      </trkpt>
      <trkpt lat="45.6385" lon="6.63923">
        <ele>2238</ele>
        <time>2022-07-26T13:24:56Z</time>
      </trkpt>
      <trkpt lat="45.63848" lon="6.63922">
        <ele>2241</ele>
        <time>2022-07-26T13:25:26Z</time>
      </trkpt>
      <trkpt lat="45.63848" lon="6.63922">
        <ele>2241</ele>
        <time>2022-07-26T13:25:27Z</time>
      </trkpt>
      <trkpt lat="45.63847" lon="6.63922">
        <ele>2242</ele>
        <time>2022-07-26T13:25:28Z</time>
      </trkpt>
      <trkpt lat="45.63846" lon="6.63923">
        <ele>2242</ele>
        <time>2022-07-26T13:25:29Z</time>
      </trkpt>
      <trkpt lat="45.63846" lon="6.63923">
        <ele>2242</ele>
        <time>2022-07-26T13:25:30Z</time>
      </trkpt>
      <trkpt lat="45.63846" lon="6.63924">
        <ele>2242</ele>
        <time>2022-07-26T13:25:31Z</time>
      </trkpt>
      <trkpt lat="45.63845" lon="6.63924">
        <ele>2242</ele>
        <time>2022-07-26T13:25:32Z</time>
      </trkpt>
      <trkpt lat="45.63845" lon="6.63925">
        <ele>2242</ele>
        <time>2022-07-26T13:25:33Z</time>
      </trkpt>
      <trkpt lat="45.63844" lon="6.63926">
        <ele>2242</ele>
        <time>2022-07-26T13:25:34Z</time>
      </trkpt>
      <trkpt lat="45.63844" lon="6.63926">
        <ele>2242</ele>
        <time>2022-07-26T13:25:35Z</time>
      </trkpt>
      <trkpt lat="45.63844" lon="6.63926">
        <ele>2242</ele>
        <time>2022-07-26T13:25:36Z</time>
      </trkpt>
      <trkpt lat="45.63844" lon="6.63927">
        <ele>2242</ele>
        <time>2022-07-26T13:25:37Z</time>
      </trkpt>
      <trkpt lat="45.63843" lon="6.63927">
        <ele>2242</ele>
        <time>2022-07-26T13:25:38Z</time>
      </trkpt>
      <trkpt lat="45.63843" lon="6.63927">
        <ele>2242</ele>
        <time>2022-07-26T13:25:39Z</time>
      </trkpt>
      <trkpt lat="45.63842" lon="6.63927">
        <ele>2242</ele>
        <time>2022-07-26T13:25:40Z</time>
      </trkpt>
      <trkpt lat="45.63841" lon="6.63927">
        <ele>2242</ele>
        <time>2022-07-26T13:25:41Z</time>
      </trkpt>
      <trkpt lat="45.63841" lon="6.63927">
        <ele>2242</ele>
        <time>2022-07-26T13:25:42Z</time>
      </trkpt>
      <trkpt lat="45.6384" lon="6.63927">
        <ele>2242</ele>
        <time>2022-07-26T13:25:43Z</time>
      </trkpt>
      <trkpt lat="45.6384" lon="6.63927">
        <ele>2242</ele>
        <time>2022-07-26T13:25:44Z</time>
      </trkpt>
      <trkpt lat="45.63839" lon="6.63927">
        <ele>2242</ele>
        <time>2022-07-26T13:25:45Z</time>
      </trkpt>
      <trkpt lat="45.63839" lon="6.63927">
        <ele>2242</ele>
        <time>2022-07-26T13:25:46Z</time>
      </trkpt>
      <trkpt lat="45.63838" lon="6.63927">
        <ele>2242</ele>
        <time>2022-07-26T13:25:47Z</time>
      </trkpt>
      <trkpt lat="45.63837" lon="6.63927">
        <ele>2243</ele>
        <time>2022-07-26T13:25:48Z</time>
      </trkpt>
      <trkpt lat="45.63836" lon="6.63927">
        <ele>2243</ele>
        <time>2022-07-26T13:25:49Z</time>
      </trkpt>
      <trkpt lat="45.63835" lon="6.63927">
        <ele>2243</ele>
        <time>2022-07-26T13:25:50Z</time>
      </trkpt>
      <trkpt lat="45.63834" lon="6.63927">
        <ele>2243</ele>
        <time>2022-07-26T13:25:51Z</time>
      </trkpt>
      <trkpt lat="45.63832" lon="6.63927">
        <ele>2245</ele>
        <time>2022-07-26T13:26:05Z</time>
      </trkpt>
      <trkpt lat="45.63831" lon="6.63927">
        <ele>2245</ele>
        <time>2022-07-26T13:26:06Z</time>
      </trkpt>
      <trkpt lat="45.6383" lon="6.63928">
        <ele>2245</ele>
        <time>2022-07-26T13:26:07Z</time>
      </trkpt>
      <trkpt lat="45.63829" lon="6.63928">
        <ele>2245</ele>
        <time>2022-07-26T13:26:08Z</time>
      </trkpt>
      <trkpt lat="45.63828" lon="6.63928">
        <ele>2245</ele>
        <time>2022-07-26T13:26:09Z</time>
      </trkpt>
      <trkpt lat="45.63827" lon="6.63928">
        <ele>2245</ele>
        <time>2022-07-26T13:26:10Z</time>
      </trkpt>
      <trkpt lat="45.63825" lon="6.63928">
        <ele>2245</ele>
        <time>2022-07-26T13:26:11Z</time>
      </trkpt>
      <trkpt lat="45.63824" lon="6.63928">
        <ele>2245</ele>
        <time>2022-07-26T13:26:12Z</time>
      </trkpt>
      <trkpt lat="45.63823" lon="6.63928">
        <ele>2245</ele>
        <time>2022-07-26T13:26:13Z</time>
      </trkpt>
      <trkpt lat="45.63821" lon="6.63927">
        <ele>2245</ele>
        <time>2022-07-26T13:26:14Z</time>
      </trkpt>
      <trkpt lat="45.6382" lon="6.63927">
        <ele>2245</ele>
        <time>2022-07-26T13:26:15Z</time>
      </trkpt>
      <trkpt lat="45.63819" lon="6.63926">
        <ele>2245</ele>
        <time>2022-07-26T13:26:16Z</time>
      </trkpt>
      <trkpt lat="45.63818" lon="6.63925">
        <ele>2245</ele>
        <time>2022-07-26T13:26:17Z</time>
      </trkpt>
      <trkpt lat="45.63817" lon="6.63924">
        <ele>2246</ele>
        <time>2022-07-26T13:26:18Z</time>
      </trkpt>
      <trkpt lat="45.63816" lon="6.63923">
        <ele>2246</ele>
        <time>2022-07-26T13:26:19Z</time>
      </trkpt>
      <trkpt lat="45.63814" lon="6.63921">
        <ele>2246</ele>
        <time>2022-07-26T13:26:33Z</time>
      </trkpt>
      <trkpt lat="45.63814" lon="6.63921">
        <ele>2246</ele>
        <time>2022-07-26T13:26:34Z</time>
      </trkpt>
      <trkpt lat="45.63813" lon="6.6392">
        <ele>2246</ele>
        <time>2022-07-26T13:26:35Z</time>
      </trkpt>
      <trkpt lat="45.63813" lon="6.63919">
        <ele>2246</ele>
        <time>2022-07-26T13:26:36Z</time>
      </trkpt>
      <trkpt lat="45.63812" lon="6.63919">
        <ele>2246</ele>
        <time>2022-07-26T13:26:37Z</time>
      </trkpt>
      <trkpt lat="45.63811" lon="6.63918">
        <ele>2246</ele>
        <time>2022-07-26T13:26:44Z</time>
      </trkpt>
      <trkpt lat="45.6381" lon="6.63918">
        <ele>2246</ele>
        <time>2022-07-26T13:26:45Z</time>
      </trkpt>
      <trkpt lat="45.63809" lon="6.63918">
        <ele>2246</ele>
        <time>2022-07-26T13:26:46Z</time>
      </trkpt>
      <trkpt lat="45.63808" lon="6.63918">
        <ele>2246</ele>
        <time>2022-07-26T13:26:47Z</time>
      </trkpt>
      <trkpt lat="45.63807" lon="6.63918">
        <ele>2246</ele>
        <time>2022-07-26T13:26:48Z</time>
      </trkpt>
      <trkpt lat="45.63806" lon="6.63918">
        <ele>2246</ele>
        <time>2022-07-26T13:26:49Z</time>
      </trkpt>
      <trkpt lat="45.63804" lon="6.63918">
        <ele>2246</ele>
        <time>2022-07-26T13:26:50Z</time>
      </trkpt>
      <trkpt lat="45.63803" lon="6.63918">
        <ele>2246</ele>
        <time>2022-07-26T13:26:51Z</time>
      </trkpt>
      <trkpt lat="45.63802" lon="6.63918">
        <ele>2246</ele>
        <time>2022-07-26T13:26:52Z</time>
      </trkpt>
      <trkpt lat="45.63801" lon="6.63918">
        <ele>2247</ele>
        <time>2022-07-26T13:26:53Z</time>
      </trkpt>
      <trkpt lat="45.638" lon="6.63918">
        <ele>2247</ele>
        <time>2022-07-26T13:26:54Z</time>
      </trkpt>
      <trkpt lat="45.63798" lon="6.63918">
        <ele>2247</ele>
        <time>2022-07-26T13:26:55Z</time>
      </trkpt>
      <trkpt lat="45.63797" lon="6.63918">
        <ele>2247</ele>
        <time>2022-07-26T13:26:56Z</time>
      </trkpt>
      <trkpt lat="45.63796" lon="6.63918">
        <ele>2247</ele>
        <time>2022-07-26T13:26:57Z</time>
      </trkpt>
      <trkpt lat="45.63795" lon="6.63919">
        <ele>2247</ele>
        <time>2022-07-26T13:26:58Z</time>
      </trkpt>
      <trkpt lat="45.63794" lon="6.63919">
        <ele>2246</ele>
        <time>2022-07-26T13:26:59Z</time>
      </trkpt>
      <trkpt lat="45.63793" lon="6.63919">
        <ele>2246</ele>
        <time>2022-07-26T13:27:00Z</time>
      </trkpt>
      <trkpt lat="45.63792" lon="6.63919">
        <ele>2246</ele>
        <time>2022-07-26T13:27:01Z</time>
      </trkpt>
      <trkpt lat="45.63791" lon="6.6392">
        <ele>2246</ele>
        <time>2022-07-26T13:27:02Z</time>
      </trkpt>
      <trkpt lat="45.6379" lon="6.6392">
        <ele>2246</ele>
        <time>2022-07-26T13:27:03Z</time>
      </trkpt>
      <trkpt lat="45.63789" lon="6.63921">
        <ele>2246</ele>
        <time>2022-07-26T13:27:04Z</time>
      </trkpt>
      <trkpt lat="45.63788" lon="6.63921">
        <ele>2246</ele>
        <time>2022-07-26T13:27:05Z</time>
      </trkpt>
      <trkpt lat="45.63787" lon="6.63922">
        <ele>2246</ele>
        <time>2022-07-26T13:27:06Z</time>
      </trkpt>
      <trkpt lat="45.63787" lon="6.63923">
        <ele>2246</ele>
        <time>2022-07-26T13:27:07Z</time>
      </trkpt>
      <trkpt lat="45.63786" lon="6.63923">
        <ele>2246</ele>
        <time>2022-07-26T13:27:08Z</time>
      </trkpt>
      <trkpt lat="45.63785" lon="6.63924">
        <ele>2246</ele>
        <time>2022-07-26T13:27:09Z</time>
      </trkpt>
      <trkpt lat="45.63785" lon="6.63924">
        <ele>2246</ele>
        <time>2022-07-26T13:27:10Z</time>
      </trkpt>
      <trkpt lat="45.63784" lon="6.63925">
        <ele>2246</ele>
        <time>2022-07-26T13:27:11Z</time>
      </trkpt>
      <trkpt lat="45.63783" lon="6.63926">
        <ele>2246</ele>
        <time>2022-07-26T13:27:12Z</time>
      </trkpt>
      <trkpt lat="45.63783" lon="6.63926">
        <ele>2246</ele>
        <time>2022-07-26T13:27:13Z</time>
      </trkpt>
      <trkpt lat="45.63783" lon="6.63927">
        <ele>2246</ele>
        <time>2022-07-26T13:27:14Z</time>
      </trkpt>
      <trkpt lat="45.63782" lon="6.63928">
        <ele>2246</ele>
        <time>2022-07-26T13:27:15Z</time>
      </trkpt>
      <trkpt lat="45.63782" lon="6.63928">
        <ele>2246</ele>
        <time>2022-07-26T13:27:16Z</time>
      </trkpt>
      <trkpt lat="45.63781" lon="6.63929">
        <ele>2246</ele>
        <time>2022-07-26T13:27:17Z</time>
      </trkpt>
      <trkpt lat="45.6378" lon="6.63929">
        <ele>2246</ele>
        <time>2022-07-26T13:27:18Z</time>
      </trkpt>
      <trkpt lat="45.6378" lon="6.6393">
        <ele>2246</ele>
        <time>2022-07-26T13:27:19Z</time>
      </trkpt>
      <trkpt lat="45.63779" lon="6.6393">
        <ele>2246</ele>
        <time>2022-07-26T13:27:20Z</time>
      </trkpt>
      <trkpt lat="45.63778" lon="6.63931">
        <ele>2246</ele>
        <time>2022-07-26T13:27:21Z</time>
      </trkpt>
      <trkpt lat="45.63777" lon="6.63931">
        <ele>2246</ele>
        <time>2022-07-26T13:27:22Z</time>
      </trkpt>
      <trkpt lat="45.63776" lon="6.63932">
        <ele>2246</ele>
        <time>2022-07-26T13:27:23Z</time>
      </trkpt>
      <trkpt lat="45.63775" lon="6.63933">
        <ele>2246</ele>
        <time>2022-07-26T13:27:24Z</time>
      </trkpt>
      <trkpt lat="45.63774" lon="6.63933">
        <ele>2246</ele>
        <time>2022-07-26T13:27:25Z</time>
      </trkpt>
      <trkpt lat="45.63773" lon="6.63934">
        <ele>2246</ele>
        <time>2022-07-26T13:27:26Z</time>
      </trkpt>
      <trkpt lat="45.63772" lon="6.63934">
        <ele>2246</ele>
        <time>2022-07-26T13:27:27Z</time>
      </trkpt>
      <trkpt lat="45.63771" lon="6.63935">
        <ele>2247</ele>
        <time>2022-07-26T13:27:28Z</time>
      </trkpt>
      <trkpt lat="45.6377" lon="6.63935">
        <ele>2247</ele>
        <time>2022-07-26T13:27:29Z</time>
      </trkpt>
      <trkpt lat="45.63769" lon="6.63936">
        <ele>2247</ele>
        <time>2022-07-26T13:27:30Z</time>
      </trkpt>
      <trkpt lat="45.63768" lon="6.63936">
        <ele>2247</ele>
        <time>2022-07-26T13:27:31Z</time>
      </trkpt>
      <trkpt lat="45.63767" lon="6.63936">
        <ele>2247</ele>
        <time>2022-07-26T13:27:32Z</time>
      </trkpt>
      <trkpt lat="45.63765" lon="6.63937">
        <ele>2248</ele>
        <time>2022-07-26T13:27:42Z</time>
      </trkpt>
      <trkpt lat="45.63765" lon="6.63937">
        <ele>2249</ele>
        <time>2022-07-26T13:27:43Z</time>
      </trkpt>
      <trkpt lat="45.63764" lon="6.63937">
        <ele>2249</ele>
        <time>2022-07-26T13:27:44Z</time>
      </trkpt>
      <trkpt lat="45.63763" lon="6.63938">
        <ele>2249</ele>
        <time>2022-07-26T13:27:45Z</time>
      </trkpt>
      <trkpt lat="45.63762" lon="6.63938">
        <ele>2249</ele>
        <time>2022-07-26T13:27:46Z</time>
      </trkpt>
      <trkpt lat="45.63761" lon="6.63939">
        <ele>2249</ele>
        <time>2022-07-26T13:27:47Z</time>
      </trkpt>
      <trkpt lat="45.63761" lon="6.6394">
        <ele>2250</ele>
        <time>2022-07-26T13:27:48Z</time>
      </trkpt>
      <trkpt lat="45.6376" lon="6.63941">
        <ele>2250</ele>
        <time>2022-07-26T13:27:49Z</time>
      </trkpt>
      <trkpt lat="45.63759" lon="6.63942">
        <ele>2250</ele>
        <time>2022-07-26T13:27:50Z</time>
      </trkpt>
      <trkpt lat="45.63758" lon="6.63943">
        <ele>2250</ele>
        <time>2022-07-26T13:27:51Z</time>
      </trkpt>
      <trkpt lat="45.63757" lon="6.63944">
        <ele>2250</ele>
        <time>2022-07-26T13:27:52Z</time>
      </trkpt>
      <trkpt lat="45.63755" lon="6.63945">
        <ele>2250</ele>
        <time>2022-07-26T13:27:53Z</time>
      </trkpt>
      <trkpt lat="45.63754" lon="6.63946">
        <ele>2250</ele>
        <time>2022-07-26T13:27:54Z</time>
      </trkpt>
      <trkpt lat="45.63753" lon="6.63946">
        <ele>2250</ele>
        <time>2022-07-26T13:27:55Z</time>
      </trkpt>
      <trkpt lat="45.63752" lon="6.63947">
        <ele>2250</ele>
        <time>2022-07-26T13:27:56Z</time>
      </trkpt>
      <trkpt lat="45.63752" lon="6.63948">
        <ele>2250</ele>
        <time>2022-07-26T13:27:57Z</time>
      </trkpt>
      <trkpt lat="45.63751" lon="6.63948">
        <ele>2250</ele>
        <time>2022-07-26T13:27:58Z</time>
      </trkpt>
      <trkpt lat="45.6375" lon="6.63949">
        <ele>2250</ele>
        <time>2022-07-26T13:27:59Z</time>
      </trkpt>
      <trkpt lat="45.63749" lon="6.63949">
        <ele>2250</ele>
        <time>2022-07-26T13:28:00Z</time>
      </trkpt>
      <trkpt lat="45.63748" lon="6.6395">
        <ele>2250</ele>
        <time>2022-07-26T13:28:01Z</time>
      </trkpt>
      <trkpt lat="45.63747" lon="6.6395">
        <ele>2250</ele>
        <time>2022-07-26T13:28:02Z</time>
      </trkpt>
      <trkpt lat="45.63747" lon="6.6395">
        <ele>2251</ele>
        <time>2022-07-26T13:28:03Z</time>
      </trkpt>
      <trkpt lat="45.63745" lon="6.6395">
        <ele>2251</ele>
        <time>2022-07-26T13:28:04Z</time>
      </trkpt>
      <trkpt lat="45.63744" lon="6.6395">
        <ele>2251</ele>
        <time>2022-07-26T13:28:05Z</time>
      </trkpt>
      <trkpt lat="45.63744" lon="6.63951">
        <ele>2251</ele>
        <time>2022-07-26T13:28:06Z</time>
      </trkpt>
      <trkpt lat="45.63743" lon="6.63951">
        <ele>2251</ele>
        <time>2022-07-26T13:28:07Z</time>
      </trkpt>
      <trkpt lat="45.63742" lon="6.63952">
        <ele>2254</ele>
        <time>2022-07-26T13:28:50Z</time>
      </trkpt>
      <trkpt lat="45.63742" lon="6.63952">
        <ele>2254</ele>
        <time>2022-07-26T13:28:51Z</time>
      </trkpt>
      <trkpt lat="45.63741" lon="6.63952">
        <ele>2254</ele>
        <time>2022-07-26T13:28:52Z</time>
      </trkpt>
      <trkpt lat="45.6374" lon="6.63953">
        <ele>2254</ele>
        <time>2022-07-26T13:32:25Z</time>
      </trkpt>
      <trkpt lat="45.6374" lon="6.63953">
        <ele>2254</ele>
        <time>2022-07-26T13:32:26Z</time>
      </trkpt>
      <trkpt lat="45.63739" lon="6.63953">
        <ele>2254</ele>
        <time>2022-07-26T13:32:27Z</time>
      </trkpt>
      <trkpt lat="45.6374" lon="6.63952">
        <ele>2254</ele>
        <time>2022-07-26T13:32:28Z</time>
      </trkpt>
      <trkpt lat="45.6374" lon="6.63952">
        <ele>2254</ele>
        <time>2022-07-26T13:32:29Z</time>
      </trkpt>
      <trkpt lat="45.6374" lon="6.63951">
        <ele>2254</ele>
        <time>2022-07-26T13:32:30Z</time>
      </trkpt>
      <trkpt lat="45.63741" lon="6.63951">
        <ele>2254</ele>
        <time>2022-07-26T13:32:31Z</time>
      </trkpt>
      <trkpt lat="45.63742" lon="6.6395">
        <ele>2254</ele>
        <time>2022-07-26T13:32:40Z</time>
      </trkpt>
      <trkpt lat="45.63742" lon="6.63949">
        <ele>2254</ele>
        <time>2022-07-26T13:32:41Z</time>
      </trkpt>
      <trkpt lat="45.63742" lon="6.63949">
        <ele>2254</ele>
        <time>2022-07-26T13:32:42Z</time>
      </trkpt>
      <trkpt lat="45.63742" lon="6.63949">
        <ele>2255</ele>
        <time>2022-07-26T13:32:43Z</time>
      </trkpt>
      <trkpt lat="45.63741" lon="6.63949">
        <ele>2255</ele>
        <time>2022-07-26T13:32:44Z</time>
      </trkpt>
      <trkpt lat="45.63741" lon="6.63949">
        <ele>2255</ele>
        <time>2022-07-26T13:32:45Z</time>
      </trkpt>
      <trkpt lat="45.6374" lon="6.63949">
        <ele>2255</ele>
        <time>2022-07-26T13:32:46Z</time>
      </trkpt>
      <trkpt lat="45.6374" lon="6.63948">
        <ele>2255</ele>
        <time>2022-07-26T13:32:47Z</time>
      </trkpt>
      <trkpt lat="45.6374" lon="6.63948">
        <ele>2255</ele>
        <time>2022-07-26T13:32:48Z</time>
      </trkpt>
      <trkpt lat="45.6374" lon="6.63948">
        <ele>2255</ele>
        <time>2022-07-26T13:32:49Z</time>
      </trkpt>
      <trkpt lat="45.6374" lon="6.63948">
        <ele>2255</ele>
        <time>2022-07-26T13:32:50Z</time>
      </trkpt>
      <trkpt lat="45.6374" lon="6.63949">
        <ele>2255</ele>
        <time>2022-07-26T13:32:51Z</time>
      </trkpt>
      <trkpt lat="45.6374" lon="6.6395">
        <ele>2255</ele>
        <time>2022-07-26T13:32:52Z</time>
      </trkpt>
      <trkpt lat="45.63739" lon="6.63951">
        <ele>2256</ele>
        <time>2022-07-26T13:38:12Z</time>
      </trkpt>
      <trkpt lat="45.63739" lon="6.63951">
        <ele>2256</ele>
        <time>2022-07-26T13:38:13Z</time>
      </trkpt>
      <trkpt lat="45.63738" lon="6.63951">
        <ele>2255</ele>
        <time>2022-07-26T13:38:14Z</time>
      </trkpt>
      <trkpt lat="45.63738" lon="6.6395">
        <ele>2255</ele>
        <time>2022-07-26T13:38:15Z</time>
      </trkpt>
      <trkpt lat="45.63737" lon="6.6395">
        <ele>2255</ele>
        <time>2022-07-26T13:38:16Z</time>
      </trkpt>
      <trkpt lat="45.63736" lon="6.6395">
        <ele>2255</ele>
        <time>2022-07-26T13:38:17Z</time>
      </trkpt>
      <trkpt lat="45.63736" lon="6.6395">
        <ele>2255</ele>
        <time>2022-07-26T13:38:18Z</time>
      </trkpt>
      <trkpt lat="45.63735" lon="6.63949">
        <ele>2255</ele>
        <time>2022-07-26T13:38:19Z</time>
      </trkpt>
      <trkpt lat="45.63735" lon="6.63949">
        <ele>2255</ele>
        <time>2022-07-26T13:38:20Z</time>
      </trkpt>
      <trkpt lat="45.63734" lon="6.63949">
        <ele>2255</ele>
        <time>2022-07-26T13:38:21Z</time>
      </trkpt>
      <trkpt lat="45.63733" lon="6.63949">
        <ele>2255</ele>
        <time>2022-07-26T13:38:22Z</time>
      </trkpt>
      <trkpt lat="45.63732" lon="6.63949">
        <ele>2256</ele>
        <time>2022-07-26T13:38:23Z</time>
      </trkpt>
      <trkpt lat="45.63731" lon="6.63949">
        <ele>2256</ele>
        <time>2022-07-26T13:38:24Z</time>
      </trkpt>
      <trkpt lat="45.6373" lon="6.63949">
        <ele>2256</ele>
        <time>2022-07-26T13:38:25Z</time>
      </trkpt>
      <trkpt lat="45.63729" lon="6.6395">
        <ele>2256</ele>
        <time>2022-07-26T13:38:26Z</time>
      </trkpt>
      <trkpt lat="45.63729" lon="6.63949">
        <ele>2256</ele>
        <time>2022-07-26T13:38:27Z</time>
      </trkpt>
      <trkpt lat="45.63728" lon="6.63949">
        <ele>2256</ele>
        <time>2022-07-26T13:38:28Z</time>
      </trkpt>
      <trkpt lat="45.63728" lon="6.63949">
        <ele>2255</ele>
        <time>2022-07-26T13:38:29Z</time>
      </trkpt>
      <trkpt lat="45.63728" lon="6.63949">
        <ele>2255</ele>
        <time>2022-07-26T13:38:30Z</time>
      </trkpt>
      <trkpt lat="45.63728" lon="6.63949">
        <ele>2255</ele>
        <time>2022-07-26T13:38:31Z</time>
      </trkpt>
      <trkpt lat="45.63727" lon="6.63949">
        <ele>2255</ele>
        <time>2022-07-26T13:38:32Z</time>
      </trkpt>
      <trkpt lat="45.63727" lon="6.63948">
        <ele>2255</ele>
        <time>2022-07-26T13:38:33Z</time>
      </trkpt>
      <trkpt lat="45.63727" lon="6.63948">
        <ele>2254</ele>
        <time>2022-07-26T13:38:34Z</time>
      </trkpt>
      <trkpt lat="45.63727" lon="6.63947">
        <ele>2254</ele>
        <time>2022-07-26T13:38:35Z</time>
      </trkpt>
      <trkpt lat="45.63727" lon="6.63946">
        <ele>2251</ele>
        <time>2022-07-26T13:38:56Z</time>
      </trkpt>
      <trkpt lat="45.63726" lon="6.63945">
        <ele>2251</ele>
        <time>2022-07-26T13:38:57Z</time>
      </trkpt>
      <trkpt lat="45.63726" lon="6.63944">
        <ele>2251</ele>
        <time>2022-07-26T13:38:58Z</time>
      </trkpt>
      <trkpt lat="45.63726" lon="6.63943">
        <ele>2251</ele>
        <time>2022-07-26T13:38:59Z</time>
      </trkpt>
      <trkpt lat="45.63725" lon="6.63942">
        <ele>2251</ele>
        <time>2022-07-26T13:39:00Z</time>
      </trkpt>
      <trkpt lat="45.63724" lon="6.63941">
        <ele>2251</ele>
        <time>2022-07-26T13:39:01Z</time>
      </trkpt>
      <trkpt lat="45.63724" lon="6.63941">
        <ele>2251</ele>
        <time>2022-07-26T13:39:02Z</time>
      </trkpt>
      <trkpt lat="45.63722" lon="6.63939">
        <ele>2251</ele>
        <time>2022-07-26T13:39:09Z</time>
      </trkpt>
      <trkpt lat="45.63721" lon="6.63939">
        <ele>2251</ele>
        <time>2022-07-26T13:39:10Z</time>
      </trkpt>
      <trkpt lat="45.63721" lon="6.63939">
        <ele>2251</ele>
        <time>2022-07-26T13:39:11Z</time>
      </trkpt>
      <trkpt lat="45.6372" lon="6.63939">
        <ele>2251</ele>
        <time>2022-07-26T13:39:12Z</time>
      </trkpt>
      <trkpt lat="45.6372" lon="6.63939">
        <ele>2251</ele>
        <time>2022-07-26T13:39:13Z</time>
      </trkpt>
      <trkpt lat="45.63719" lon="6.6394">
        <ele>2251</ele>
        <time>2022-07-26T13:39:14Z</time>
      </trkpt>
      <trkpt lat="45.63718" lon="6.6394">
        <ele>2251</ele>
        <time>2022-07-26T13:39:15Z</time>
      </trkpt>
      <trkpt lat="45.63717" lon="6.6394">
        <ele>2251</ele>
        <time>2022-07-26T13:39:16Z</time>
      </trkpt>
      <trkpt lat="45.63716" lon="6.63941">
        <ele>2251</ele>
        <time>2022-07-26T13:39:17Z</time>
      </trkpt>
      <trkpt lat="45.63714" lon="6.63941">
        <ele>2251</ele>
        <time>2022-07-26T13:39:18Z</time>
      </trkpt>
      <trkpt lat="45.63713" lon="6.63941">
        <ele>2251</ele>
        <time>2022-07-26T13:39:19Z</time>
      </trkpt>
      <trkpt lat="45.63712" lon="6.63941">
        <ele>2251</ele>
        <time>2022-07-26T13:39:20Z</time>
      </trkpt>
      <trkpt lat="45.63711" lon="6.63941">
        <ele>2251</ele>
        <time>2022-07-26T13:39:21Z</time>
      </trkpt>
      <trkpt lat="45.63709" lon="6.63942">
        <ele>2251</ele>
        <time>2022-07-26T13:39:22Z</time>
      </trkpt>
      <trkpt lat="45.63708" lon="6.63942">
        <ele>2251</ele>
        <time>2022-07-26T13:39:23Z</time>
      </trkpt>
      <trkpt lat="45.63707" lon="6.63942">
        <ele>2251</ele>
        <time>2022-07-26T13:39:24Z</time>
      </trkpt>
      <trkpt lat="45.63705" lon="6.63942">
        <ele>2251</ele>
        <time>2022-07-26T13:39:25Z</time>
      </trkpt>
      <trkpt lat="45.63704" lon="6.63942">
        <ele>2251</ele>
        <time>2022-07-26T13:39:26Z</time>
      </trkpt>
      <trkpt lat="45.63703" lon="6.63942">
        <ele>2251</ele>
        <time>2022-07-26T13:39:27Z</time>
      </trkpt>
      <trkpt lat="45.63702" lon="6.63943">
        <ele>2251</ele>
        <time>2022-07-26T13:39:28Z</time>
      </trkpt>
      <trkpt lat="45.63701" lon="6.63943">
        <ele>2250</ele>
        <time>2022-07-26T13:39:29Z</time>
      </trkpt>
      <trkpt lat="45.63699" lon="6.63944">
        <ele>2250</ele>
        <time>2022-07-26T13:39:30Z</time>
      </trkpt>
      <trkpt lat="45.63698" lon="6.63944">
        <ele>2250</ele>
        <time>2022-07-26T13:39:31Z</time>
      </trkpt>
      <trkpt lat="45.63697" lon="6.63944">
        <ele>2250</ele>
        <time>2022-07-26T13:39:32Z</time>
      </trkpt>
      <trkpt lat="45.63695" lon="6.63945">
        <ele>2250</ele>
        <time>2022-07-26T13:39:33Z</time>
      </trkpt>
      <trkpt lat="45.63694" lon="6.63945">
        <ele>2250</ele>
        <time>2022-07-26T13:39:34Z</time>
      </trkpt>
      <trkpt lat="45.63693" lon="6.63945">
        <ele>2250</ele>
        <time>2022-07-26T13:39:35Z</time>
      </trkpt>
      <trkpt lat="45.63691" lon="6.63944">
        <ele>2250</ele>
        <time>2022-07-26T13:39:36Z</time>
      </trkpt>
      <trkpt lat="45.6369" lon="6.63944">
        <ele>2250</ele>
        <time>2022-07-26T13:39:37Z</time>
      </trkpt>
      <trkpt lat="45.63689" lon="6.63944">
        <ele>2250</ele>
        <time>2022-07-26T13:39:38Z</time>
      </trkpt>
      <trkpt lat="45.63688" lon="6.63944">
        <ele>2250</ele>
        <time>2022-07-26T13:39:39Z</time>
      </trkpt>
      <trkpt lat="45.63686" lon="6.63943">
        <ele>2250</ele>
        <time>2022-07-26T13:39:40Z</time>
      </trkpt>
      <trkpt lat="45.63685" lon="6.63943">
        <ele>2250</ele>
        <time>2022-07-26T13:39:41Z</time>
      </trkpt>
      <trkpt lat="45.63684" lon="6.63942">
        <ele>2250</ele>
        <time>2022-07-26T13:39:42Z</time>
      </trkpt>
      <trkpt lat="45.63684" lon="6.63942">
        <ele>2250</ele>
        <time>2022-07-26T13:39:43Z</time>
      </trkpt>
      <trkpt lat="45.63683" lon="6.63941">
        <ele>2250</ele>
        <time>2022-07-26T13:39:44Z</time>
      </trkpt>
      <trkpt lat="45.63682" lon="6.6394">
        <ele>2250</ele>
        <time>2022-07-26T13:39:45Z</time>
      </trkpt>
      <trkpt lat="45.63681" lon="6.6394">
        <ele>2250</ele>
        <time>2022-07-26T13:39:46Z</time>
      </trkpt>
      <trkpt lat="45.63681" lon="6.63939">
        <ele>2250</ele>
        <time>2022-07-26T13:39:47Z</time>
      </trkpt>
      <trkpt lat="45.6368" lon="6.63939">
        <ele>2250</ele>
        <time>2022-07-26T13:39:48Z</time>
      </trkpt>
      <trkpt lat="45.63679" lon="6.63938">
        <ele>2250</ele>
        <time>2022-07-26T13:39:49Z</time>
      </trkpt>
      <trkpt lat="45.63678" lon="6.63937">
        <ele>2250</ele>
        <time>2022-07-26T13:39:50Z</time>
      </trkpt>
      <trkpt lat="45.63677" lon="6.63936">
        <ele>2250</ele>
        <time>2022-07-26T13:39:51Z</time>
      </trkpt>
      <trkpt lat="45.63676" lon="6.63935">
        <ele>2250</ele>
        <time>2022-07-26T13:39:52Z</time>
      </trkpt>
      <trkpt lat="45.63675" lon="6.63935">
        <ele>2250</ele>
        <time>2022-07-26T13:39:53Z</time>
      </trkpt>
      <trkpt lat="45.63674" lon="6.63933">
        <ele>2250</ele>
        <time>2022-07-26T13:39:54Z</time>
      </trkpt>
      <trkpt lat="45.63673" lon="6.63932">
        <ele>2250</ele>
        <time>2022-07-26T13:39:55Z</time>
      </trkpt>
      <trkpt lat="45.63671" lon="6.63931">
        <ele>2250</ele>
        <time>2022-07-26T13:39:56Z</time>
      </trkpt>
      <trkpt lat="45.6367" lon="6.6393">
        <ele>2250</ele>
        <time>2022-07-26T13:39:57Z</time>
      </trkpt>
      <trkpt lat="45.63669" lon="6.63929">
        <ele>2251</ele>
        <time>2022-07-26T13:39:58Z</time>
      </trkpt>
      <trkpt lat="45.63668" lon="6.63928">
        <ele>2250</ele>
        <time>2022-07-26T13:39:59Z</time>
      </trkpt>
      <trkpt lat="45.63667" lon="6.63926">
        <ele>2250</ele>
        <time>2022-07-26T13:40:00Z</time>
      </trkpt>
      <trkpt lat="45.63665" lon="6.63925">
        <ele>2250</ele>
        <time>2022-07-26T13:40:01Z</time>
      </trkpt>
      <trkpt lat="45.63664" lon="6.63924">
        <ele>2250</ele>
        <time>2022-07-26T13:40:02Z</time>
      </trkpt>
      <trkpt lat="45.63663" lon="6.63923">
        <ele>2250</ele>
        <time>2022-07-26T13:40:03Z</time>
      </trkpt>
      <trkpt lat="45.63662" lon="6.63922">
        <ele>2250</ele>
        <time>2022-07-26T13:40:04Z</time>
      </trkpt>
      <trkpt lat="45.6366" lon="6.63921">
        <ele>2250</ele>
        <time>2022-07-26T13:40:05Z</time>
      </trkpt>
      <trkpt lat="45.63659" lon="6.6392">
        <ele>2250</ele>
        <time>2022-07-26T13:40:06Z</time>
      </trkpt>
      <trkpt lat="45.63658" lon="6.63919">
        <ele>2250</ele>
        <time>2022-07-26T13:40:07Z</time>
      </trkpt>
      <trkpt lat="45.63657" lon="6.63918">
        <ele>2250</ele>
        <time>2022-07-26T13:40:08Z</time>
      </trkpt>
      <trkpt lat="45.63656" lon="6.63917">
        <ele>2250</ele>
        <time>2022-07-26T13:40:09Z</time>
      </trkpt>
      <trkpt lat="45.63655" lon="6.63916">
        <ele>2250</ele>
        <time>2022-07-26T13:40:10Z</time>
      </trkpt>
      <trkpt lat="45.63654" lon="6.63914">
        <ele>2250</ele>
        <time>2022-07-26T13:40:11Z</time>
      </trkpt>
      <trkpt lat="45.63653" lon="6.63913">
        <ele>2250</ele>
        <time>2022-07-26T13:40:12Z</time>
      </trkpt>
      <trkpt lat="45.63652" lon="6.63912">
        <ele>2250</ele>
        <time>2022-07-26T13:40:13Z</time>
      </trkpt>
      <trkpt lat="45.63651" lon="6.6391">
        <ele>2250</ele>
        <time>2022-07-26T13:40:14Z</time>
      </trkpt>
      <trkpt lat="45.6365" lon="6.63909">
        <ele>2250</ele>
        <time>2022-07-26T13:40:15Z</time>
      </trkpt>
      <trkpt lat="45.63648" lon="6.63908">
        <ele>2250</ele>
        <time>2022-07-26T13:40:16Z</time>
      </trkpt>
      <trkpt lat="45.63647" lon="6.63907">
        <ele>2250</ele>
        <time>2022-07-26T13:40:17Z</time>
      </trkpt>
      <trkpt lat="45.63646" lon="6.63907">
        <ele>2250</ele>
        <time>2022-07-26T13:40:18Z</time>
      </trkpt>
      <trkpt lat="45.63645" lon="6.63906">
        <ele>2250</ele>
        <time>2022-07-26T13:40:19Z</time>
      </trkpt>
      <trkpt lat="45.63644" lon="6.63905">
        <ele>2250</ele>
        <time>2022-07-26T13:40:20Z</time>
      </trkpt>
      <trkpt lat="45.63643" lon="6.63905">
        <ele>2250</ele>
        <time>2022-07-26T13:40:21Z</time>
      </trkpt>
      <trkpt lat="45.63641" lon="6.63905">
        <ele>2250</ele>
        <time>2022-07-26T13:40:22Z</time>
      </trkpt>
      <trkpt lat="45.6364" lon="6.63905">
        <ele>2250</ele>
        <time>2022-07-26T13:40:23Z</time>
      </trkpt>
      <trkpt lat="45.63639" lon="6.63905">
        <ele>2250</ele>
        <time>2022-07-26T13:40:24Z</time>
      </trkpt>
      <trkpt lat="45.63637" lon="6.63905">
        <ele>2250</ele>
        <time>2022-07-26T13:40:25Z</time>
      </trkpt>
      <trkpt lat="45.63636" lon="6.63905">
        <ele>2250</ele>
        <time>2022-07-26T13:40:26Z</time>
      </trkpt>
      <trkpt lat="45.63634" lon="6.63905">
        <ele>2250</ele>
        <time>2022-07-26T13:40:27Z</time>
      </trkpt>
      <trkpt lat="45.63633" lon="6.63905">
        <ele>2250</ele>
        <time>2022-07-26T13:40:28Z</time>
      </trkpt>
      <trkpt lat="45.63631" lon="6.63905">
        <ele>2250</ele>
        <time>2022-07-26T13:40:29Z</time>
      </trkpt>
      <trkpt lat="45.6363" lon="6.63905">
        <ele>2250</ele>
        <time>2022-07-26T13:40:30Z</time>
      </trkpt>
      <trkpt lat="45.63628" lon="6.63906">
        <ele>2250</ele>
        <time>2022-07-26T13:40:31Z</time>
      </trkpt>
      <trkpt lat="45.63627" lon="6.63906">
        <ele>2250</ele>
        <time>2022-07-26T13:40:32Z</time>
      </trkpt>
      <trkpt lat="45.63626" lon="6.63906">
        <ele>2250</ele>
        <time>2022-07-26T13:40:33Z</time>
      </trkpt>
      <trkpt lat="45.63624" lon="6.63906">
        <ele>2250</ele>
        <time>2022-07-26T13:40:34Z</time>
      </trkpt>
      <trkpt lat="45.63623" lon="6.63906">
        <ele>2250</ele>
        <time>2022-07-26T13:40:35Z</time>
      </trkpt>
      <trkpt lat="45.63622" lon="6.63906">
        <ele>2250</ele>
        <time>2022-07-26T13:40:36Z</time>
      </trkpt>
      <trkpt lat="45.6362" lon="6.63906">
        <ele>2250</ele>
        <time>2022-07-26T13:40:37Z</time>
      </trkpt>
      <trkpt lat="45.63619" lon="6.63906">
        <ele>2250</ele>
        <time>2022-07-26T13:40:38Z</time>
      </trkpt>
      <trkpt lat="45.63617" lon="6.63907">
        <ele>2250</ele>
        <time>2022-07-26T13:40:39Z</time>
      </trkpt>
      <trkpt lat="45.63616" lon="6.63907">
        <ele>2250</ele>
        <time>2022-07-26T13:40:40Z</time>
      </trkpt>
      <trkpt lat="45.63615" lon="6.63906">
        <ele>2250</ele>
        <time>2022-07-26T13:40:41Z</time>
      </trkpt>
      <trkpt lat="45.63614" lon="6.63906">
        <ele>2250</ele>
        <time>2022-07-26T13:40:42Z</time>
      </trkpt>
      <trkpt lat="45.63612" lon="6.63906">
        <ele>2250</ele>
        <time>2022-07-26T13:40:43Z</time>
      </trkpt>
      <trkpt lat="45.63611" lon="6.63906">
        <ele>2250</ele>
        <time>2022-07-26T13:40:44Z</time>
      </trkpt>
      <trkpt lat="45.6361" lon="6.63905">
        <ele>2250</ele>
        <time>2022-07-26T13:40:45Z</time>
      </trkpt>
      <trkpt lat="45.63609" lon="6.63905">
        <ele>2250</ele>
        <time>2022-07-26T13:40:46Z</time>
      </trkpt>
      <trkpt lat="45.63608" lon="6.63905">
        <ele>2250</ele>
        <time>2022-07-26T13:40:47Z</time>
      </trkpt>
      <trkpt lat="45.63608" lon="6.63905">
        <ele>2250</ele>
        <time>2022-07-26T13:40:48Z</time>
      </trkpt>
      <trkpt lat="45.63607" lon="6.63905">
        <ele>2250</ele>
        <time>2022-07-26T13:40:49Z</time>
      </trkpt>
      <trkpt lat="45.63606" lon="6.63905">
        <ele>2250</ele>
        <time>2022-07-26T13:40:50Z</time>
      </trkpt>
      <trkpt lat="45.63605" lon="6.63906">
        <ele>2250</ele>
        <time>2022-07-26T13:40:51Z</time>
      </trkpt>
      <trkpt lat="45.63604" lon="6.63906">
        <ele>2250</ele>
        <time>2022-07-26T13:40:52Z</time>
      </trkpt>
      <trkpt lat="45.63604" lon="6.63906">
        <ele>2250</ele>
        <time>2022-07-26T13:40:53Z</time>
      </trkpt>
      <trkpt lat="45.63603" lon="6.63905">
        <ele>2250</ele>
        <time>2022-07-26T13:40:54Z</time>
      </trkpt>
      <trkpt lat="45.63602" lon="6.63905">
        <ele>2250</ele>
        <time>2022-07-26T13:40:55Z</time>
      </trkpt>
      <trkpt lat="45.63601" lon="6.63905">
        <ele>2250</ele>
        <time>2022-07-26T13:40:56Z</time>
      </trkpt>
      <trkpt lat="45.636" lon="6.63904">
        <ele>2250</ele>
        <time>2022-07-26T13:40:57Z</time>
      </trkpt>
      <trkpt lat="45.63599" lon="6.63904">
        <ele>2250</ele>
        <time>2022-07-26T13:40:58Z</time>
      </trkpt>
      <trkpt lat="45.63599" lon="6.63904">
        <ele>2250</ele>
        <time>2022-07-26T13:40:59Z</time>
      </trkpt>
      <trkpt lat="45.63598" lon="6.63904">
        <ele>2250</ele>
        <time>2022-07-26T13:41:00Z</time>
      </trkpt>
      <trkpt lat="45.63597" lon="6.63904">
        <ele>2250</ele>
        <time>2022-07-26T13:41:01Z</time>
      </trkpt>
      <trkpt lat="45.63597" lon="6.63904">
        <ele>2250</ele>
        <time>2022-07-26T13:41:02Z</time>
      </trkpt>
      <trkpt lat="45.63596" lon="6.63904">
        <ele>2250</ele>
        <time>2022-07-26T13:41:03Z</time>
      </trkpt>
      <trkpt lat="45.63594" lon="6.63905">
        <ele>2250</ele>
        <time>2022-07-26T13:41:09Z</time>
      </trkpt>
      <trkpt lat="45.63594" lon="6.63905">
        <ele>2250</ele>
        <time>2022-07-26T13:41:10Z</time>
      </trkpt>
      <trkpt lat="45.63593" lon="6.63905">
        <ele>2250</ele>
        <time>2022-07-26T13:41:11Z</time>
      </trkpt>
      <trkpt lat="45.63593" lon="6.63905">
        <ele>2250</ele>
        <time>2022-07-26T13:41:12Z</time>
      </trkpt>
      <trkpt lat="45.63592" lon="6.63906">
        <ele>2250</ele>
        <time>2022-07-26T13:41:13Z</time>
      </trkpt>
      <trkpt lat="45.63591" lon="6.63906">
        <ele>2250</ele>
        <time>2022-07-26T13:41:14Z</time>
      </trkpt>
      <trkpt lat="45.6359" lon="6.63906">
        <ele>2250</ele>
        <time>2022-07-26T13:41:15Z</time>
      </trkpt>
      <trkpt lat="45.63589" lon="6.63906">
        <ele>2250</ele>
        <time>2022-07-26T13:41:16Z</time>
      </trkpt>
      <trkpt lat="45.63588" lon="6.63907">
        <ele>2250</ele>
        <time>2022-07-26T13:41:17Z</time>
      </trkpt>
      <trkpt lat="45.63587" lon="6.63907">
        <ele>2250</ele>
        <time>2022-07-26T13:41:18Z</time>
      </trkpt>
      <trkpt lat="45.63586" lon="6.63907">
        <ele>2250</ele>
        <time>2022-07-26T13:41:19Z</time>
      </trkpt>
      <trkpt lat="45.63585" lon="6.63907">
        <ele>2250</ele>
        <time>2022-07-26T13:41:20Z</time>
      </trkpt>
      <trkpt lat="45.63583" lon="6.63907">
        <ele>2250</ele>
        <time>2022-07-26T13:41:21Z</time>
      </trkpt>
      <trkpt lat="45.63582" lon="6.63907">
        <ele>2250</ele>
        <time>2022-07-26T13:41:22Z</time>
      </trkpt>
      <trkpt lat="45.63581" lon="6.63907">
        <ele>2250</ele>
        <time>2022-07-26T13:41:23Z</time>
      </trkpt>
      <trkpt lat="45.6358" lon="6.63907">
        <ele>2250</ele>
        <time>2022-07-26T13:41:24Z</time>
      </trkpt>
      <trkpt lat="45.63578" lon="6.63907">
        <ele>2250</ele>
        <time>2022-07-26T13:41:25Z</time>
      </trkpt>
      <trkpt lat="45.63577" lon="6.63906">
        <ele>2250</ele>
        <time>2022-07-26T13:41:26Z</time>
      </trkpt>
      <trkpt lat="45.63576" lon="6.63906">
        <ele>2250</ele>
        <time>2022-07-26T13:41:27Z</time>
      </trkpt>
      <trkpt lat="45.63575" lon="6.63906">
        <ele>2250</ele>
        <time>2022-07-26T13:41:28Z</time>
      </trkpt>
      <trkpt lat="45.63573" lon="6.63906">
        <ele>2250</ele>
        <time>2022-07-26T13:41:29Z</time>
      </trkpt>
      <trkpt lat="45.63572" lon="6.63907">
        <ele>2250</ele>
        <time>2022-07-26T13:41:30Z</time>
      </trkpt>
      <trkpt lat="45.63571" lon="6.63907">
        <ele>2250</ele>
        <time>2022-07-26T13:41:31Z</time>
      </trkpt>
      <trkpt lat="45.63569" lon="6.63908">
        <ele>2250</ele>
        <time>2022-07-26T13:41:32Z</time>
      </trkpt>
      <trkpt lat="45.63568" lon="6.63908">
        <ele>2250</ele>
        <time>2022-07-26T13:41:33Z</time>
      </trkpt>
      <trkpt lat="45.63567" lon="6.63909">
        <ele>2250</ele>
        <time>2022-07-26T13:41:34Z</time>
      </trkpt>
      <trkpt lat="45.63565" lon="6.63909">
        <ele>2250</ele>
        <time>2022-07-26T13:41:35Z</time>
      </trkpt>
      <trkpt lat="45.63564" lon="6.63909">
        <ele>2250</ele>
        <time>2022-07-26T13:41:36Z</time>
      </trkpt>
      <trkpt lat="45.63563" lon="6.63909">
        <ele>2250</ele>
        <time>2022-07-26T13:41:37Z</time>
      </trkpt>
      <trkpt lat="45.63562" lon="6.63908">
        <ele>2250</ele>
        <time>2022-07-26T13:41:38Z</time>
      </trkpt>
      <trkpt lat="45.63561" lon="6.63908">
        <ele>2250</ele>
        <time>2022-07-26T13:41:39Z</time>
      </trkpt>
      <trkpt lat="45.6356" lon="6.63907">
        <ele>2250</ele>
        <time>2022-07-26T13:41:40Z</time>
      </trkpt>
      <trkpt lat="45.63559" lon="6.63907">
        <ele>2250</ele>
        <time>2022-07-26T13:41:41Z</time>
      </trkpt>
      <trkpt lat="45.63558" lon="6.63907">
        <ele>2250</ele>
        <time>2022-07-26T13:41:42Z</time>
      </trkpt>
      <trkpt lat="45.63557" lon="6.63907">
        <ele>2250</ele>
        <time>2022-07-26T13:41:43Z</time>
      </trkpt>
      <trkpt lat="45.63556" lon="6.63906">
        <ele>2250</ele>
        <time>2022-07-26T13:41:44Z</time>
      </trkpt>
      <trkpt lat="45.63555" lon="6.63906">
        <ele>2250</ele>
        <time>2022-07-26T13:41:45Z</time>
      </trkpt>
      <trkpt lat="45.63554" lon="6.63905">
        <ele>2250</ele>
        <time>2022-07-26T13:41:46Z</time>
      </trkpt>
      <trkpt lat="45.63553" lon="6.63905">
        <ele>2250</ele>
        <time>2022-07-26T13:41:47Z</time>
      </trkpt>
      <trkpt lat="45.63552" lon="6.63904">
        <ele>2251</ele>
        <time>2022-07-26T13:41:48Z</time>
      </trkpt>
      <trkpt lat="45.63552" lon="6.63903">
        <ele>2251</ele>
        <time>2022-07-26T13:41:49Z</time>
      </trkpt>
      <trkpt lat="45.63551" lon="6.63902">
        <ele>2251</ele>
        <time>2022-07-26T13:41:50Z</time>
      </trkpt>
      <trkpt lat="45.6355" lon="6.63901">
        <ele>2251</ele>
        <time>2022-07-26T13:41:51Z</time>
      </trkpt>
      <trkpt lat="45.6355" lon="6.63901">
        <ele>2251</ele>
        <time>2022-07-26T13:41:52Z</time>
      </trkpt>
      <trkpt lat="45.6355" lon="6.639">
        <ele>2251</ele>
        <time>2022-07-26T13:41:53Z</time>
      </trkpt>
      <trkpt lat="45.63549" lon="6.63899">
        <ele>2251</ele>
        <time>2022-07-26T13:41:54Z</time>
      </trkpt>
      <trkpt lat="45.63549" lon="6.63899">
        <ele>2251</ele>
        <time>2022-07-26T13:41:55Z</time>
      </trkpt>
      <trkpt lat="45.63549" lon="6.63898">
        <ele>2251</ele>
        <time>2022-07-26T13:41:56Z</time>
      </trkpt>
      <trkpt lat="45.63549" lon="6.63897">
        <ele>2251</ele>
        <time>2022-07-26T13:41:57Z</time>
      </trkpt>
      <trkpt lat="45.63548" lon="6.63896">
        <ele>2251</ele>
        <time>2022-07-26T13:41:58Z</time>
      </trkpt>
      <trkpt lat="45.63548" lon="6.63895">
        <ele>2252</ele>
        <time>2022-07-26T13:42:04Z</time>
      </trkpt>
      <trkpt lat="45.63548" lon="6.63894">
        <ele>2252</ele>
        <time>2022-07-26T13:42:05Z</time>
      </trkpt>
      <trkpt lat="45.63547" lon="6.63893">
        <ele>2252</ele>
        <time>2022-07-26T13:42:06Z</time>
      </trkpt>
      <trkpt lat="45.63547" lon="6.63892">
        <ele>2252</ele>
        <time>2022-07-26T13:42:07Z</time>
      </trkpt>
      <trkpt lat="45.63547" lon="6.63891">
        <ele>2252</ele>
        <time>2022-07-26T13:42:08Z</time>
      </trkpt>
      <trkpt lat="45.63547" lon="6.6389">
        <ele>2252</ele>
        <time>2022-07-26T13:42:09Z</time>
      </trkpt>
      <trkpt lat="45.63547" lon="6.6389">
        <ele>2252</ele>
        <time>2022-07-26T13:42:10Z</time>
      </trkpt>
      <trkpt lat="45.63546" lon="6.63888">
        <ele>2252</ele>
        <time>2022-07-26T13:42:11Z</time>
      </trkpt>
      <trkpt lat="45.63546" lon="6.63887">
        <ele>2252</ele>
        <time>2022-07-26T13:42:12Z</time>
      </trkpt>
      <trkpt lat="45.63546" lon="6.63886">
        <ele>2253</ele>
        <time>2022-07-26T13:42:13Z</time>
      </trkpt>
      <trkpt lat="45.63545" lon="6.63885">
        <ele>2253</ele>
        <time>2022-07-26T13:42:14Z</time>
      </trkpt>
      <trkpt lat="45.63545" lon="6.63884">
        <ele>2253</ele>
        <time>2022-07-26T13:42:15Z</time>
      </trkpt>
      <trkpt lat="45.63545" lon="6.63883">
        <ele>2253</ele>
        <time>2022-07-26T13:42:16Z</time>
      </trkpt>
      <trkpt lat="45.63545" lon="6.63882">
        <ele>2254</ele>
        <time>2022-07-26T13:42:23Z</time>
      </trkpt>
      <trkpt lat="45.63544" lon="6.63881">
        <ele>2254</ele>
        <time>2022-07-26T13:42:24Z</time>
      </trkpt>
      <trkpt lat="45.63544" lon="6.6388">
        <ele>2254</ele>
        <time>2022-07-26T13:42:25Z</time>
      </trkpt>
      <trkpt lat="45.63543" lon="6.63879">
        <ele>2254</ele>
        <time>2022-07-26T13:42:26Z</time>
      </trkpt>
      <trkpt lat="45.63543" lon="6.63879">
        <ele>2254</ele>
        <time>2022-07-26T13:42:27Z</time>
      </trkpt>
      <trkpt lat="45.63542" lon="6.63878">
        <ele>2255</ele>
        <time>2022-07-26T13:42:28Z</time>
      </trkpt>
      <trkpt lat="45.63541" lon="6.63877">
        <ele>2255</ele>
        <time>2022-07-26T13:42:29Z</time>
      </trkpt>
      <trkpt lat="45.63541" lon="6.63876">
        <ele>2255</ele>
        <time>2022-07-26T13:42:30Z</time>
      </trkpt>
      <trkpt lat="45.6354" lon="6.63875">
        <ele>2255</ele>
        <time>2022-07-26T13:42:31Z</time>
      </trkpt>
      <trkpt lat="45.63539" lon="6.63874">
        <ele>2255</ele>
        <time>2022-07-26T13:42:32Z</time>
      </trkpt>
      <trkpt lat="45.63538" lon="6.63872">
        <ele>2255</ele>
        <time>2022-07-26T13:42:33Z</time>
      </trkpt>
      <trkpt lat="45.63537" lon="6.63872">
        <ele>2255</ele>
        <time>2022-07-26T13:42:34Z</time>
      </trkpt>
      <trkpt lat="45.63537" lon="6.63871">
        <ele>2255</ele>
        <time>2022-07-26T13:42:35Z</time>
      </trkpt>
      <trkpt lat="45.63536" lon="6.6387">
        <ele>2255</ele>
        <time>2022-07-26T13:42:36Z</time>
      </trkpt>
      <trkpt lat="45.63535" lon="6.63869">
        <ele>2255</ele>
        <time>2022-07-26T13:42:37Z</time>
      </trkpt>
      <trkpt lat="45.63535" lon="6.63868">
        <ele>2256</ele>
        <time>2022-07-26T13:42:38Z</time>
      </trkpt>
      <trkpt lat="45.63534" lon="6.63866">
        <ele>2256</ele>
        <time>2022-07-26T13:42:39Z</time>
      </trkpt>
      <trkpt lat="45.63534" lon="6.63865">
        <ele>2256</ele>
        <time>2022-07-26T13:42:40Z</time>
      </trkpt>
      <trkpt lat="45.63533" lon="6.63864">
        <ele>2256</ele>
        <time>2022-07-26T13:42:41Z</time>
      </trkpt>
      <trkpt lat="45.63533" lon="6.63864">
        <ele>2256</ele>
        <time>2022-07-26T13:42:42Z</time>
      </trkpt>
      <trkpt lat="45.63533" lon="6.63863">
        <ele>2256</ele>
        <time>2022-07-26T13:42:43Z</time>
      </trkpt>
      <trkpt lat="45.63532" lon="6.63862">
        <ele>2256</ele>
        <time>2022-07-26T13:42:44Z</time>
      </trkpt>
      <trkpt lat="45.63532" lon="6.63862">
        <ele>2256</ele>
        <time>2022-07-26T13:42:45Z</time>
      </trkpt>
      <trkpt lat="45.63531" lon="6.63861">
        <ele>2257</ele>
        <time>2022-07-26T13:42:46Z</time>
      </trkpt>
      <trkpt lat="45.63531" lon="6.6386">
        <ele>2257</ele>
        <time>2022-07-26T13:42:47Z</time>
      </trkpt>
      <trkpt lat="45.6353" lon="6.63859">
        <ele>2258</ele>
        <time>2022-07-26T13:42:48Z</time>
      </trkpt>
      <trkpt lat="45.6353" lon="6.63858">
        <ele>2258</ele>
        <time>2022-07-26T13:42:49Z</time>
      </trkpt>
      <trkpt lat="45.63529" lon="6.63857">
        <ele>2258</ele>
        <time>2022-07-26T13:42:50Z</time>
      </trkpt>
      <trkpt lat="45.63529" lon="6.63856">
        <ele>2258</ele>
        <time>2022-07-26T13:42:51Z</time>
      </trkpt>
      <trkpt lat="45.63528" lon="6.63856">
        <ele>2258</ele>
        <time>2022-07-26T13:42:52Z</time>
      </trkpt>
      <trkpt lat="45.63528" lon="6.63855">
        <ele>2259</ele>
        <time>2022-07-26T13:42:53Z</time>
      </trkpt>
      <trkpt lat="45.63527" lon="6.63854">
        <ele>2259</ele>
        <time>2022-07-26T13:42:54Z</time>
      </trkpt>
      <trkpt lat="45.63526" lon="6.63853">
        <ele>2259</ele>
        <time>2022-07-26T13:42:55Z</time>
      </trkpt>
      <trkpt lat="45.63525" lon="6.63852">
        <ele>2259</ele>
        <time>2022-07-26T13:42:56Z</time>
      </trkpt>
      <trkpt lat="45.63524" lon="6.63851">
        <ele>2259</ele>
        <time>2022-07-26T13:42:57Z</time>
      </trkpt>
      <trkpt lat="45.63523" lon="6.63849">
        <ele>2260</ele>
        <time>2022-07-26T13:42:58Z</time>
      </trkpt>
      <trkpt lat="45.63523" lon="6.63848">
        <ele>2260</ele>
        <time>2022-07-26T13:42:59Z</time>
      </trkpt>
      <trkpt lat="45.63522" lon="6.63847">
        <ele>2260</ele>
        <time>2022-07-26T13:43:00Z</time>
      </trkpt>
      <trkpt lat="45.63521" lon="6.63845">
        <ele>2260</ele>
        <time>2022-07-26T13:43:01Z</time>
      </trkpt>
      <trkpt lat="45.6352" lon="6.63844">
        <ele>2260</ele>
        <time>2022-07-26T13:43:02Z</time>
      </trkpt>
      <trkpt lat="45.63519" lon="6.63843">
        <ele>2261</ele>
        <time>2022-07-26T13:43:03Z</time>
      </trkpt>
      <trkpt lat="45.63519" lon="6.63841">
        <ele>2261</ele>
        <time>2022-07-26T13:43:04Z</time>
      </trkpt>
      <trkpt lat="45.63518" lon="6.6384">
        <ele>2261</ele>
        <time>2022-07-26T13:43:05Z</time>
      </trkpt>
      <trkpt lat="45.63518" lon="6.63839">
        <ele>2262</ele>
        <time>2022-07-26T13:43:16Z</time>
      </trkpt>
      <trkpt lat="45.63517" lon="6.63838">
        <ele>2262</ele>
        <time>2022-07-26T13:43:17Z</time>
      </trkpt>
      <trkpt lat="45.63517" lon="6.63837">
        <ele>2262</ele>
        <time>2022-07-26T13:43:18Z</time>
      </trkpt>
      <trkpt lat="45.63517" lon="6.63837">
        <ele>2262</ele>
        <time>2022-07-26T13:43:19Z</time>
      </trkpt>
      <trkpt lat="45.63516" lon="6.63836">
        <ele>2262</ele>
        <time>2022-07-26T13:43:20Z</time>
      </trkpt>
      <trkpt lat="45.63515" lon="6.63835">
        <ele>2262</ele>
        <time>2022-07-26T13:43:21Z</time>
      </trkpt>
      <trkpt lat="45.63515" lon="6.63834">
        <ele>2262</ele>
        <time>2022-07-26T13:43:22Z</time>
      </trkpt>
      <trkpt lat="45.63514" lon="6.63832">
        <ele>2262</ele>
        <time>2022-07-26T13:43:23Z</time>
      </trkpt>
      <trkpt lat="45.63514" lon="6.63831">
        <ele>2262</ele>
        <time>2022-07-26T13:43:24Z</time>
      </trkpt>
      <trkpt lat="45.63513" lon="6.6383">
        <ele>2262</ele>
        <time>2022-07-26T13:43:25Z</time>
      </trkpt>
      <trkpt lat="45.63512" lon="6.63828">
        <ele>2262</ele>
        <time>2022-07-26T13:43:26Z</time>
      </trkpt>
      <trkpt lat="45.63511" lon="6.63827">
        <ele>2262</ele>
        <time>2022-07-26T13:43:27Z</time>
      </trkpt>
      <trkpt lat="45.6351" lon="6.63826">
        <ele>2262</ele>
        <time>2022-07-26T13:43:28Z</time>
      </trkpt>
      <trkpt lat="45.63509" lon="6.63825">
        <ele>2262</ele>
        <time>2022-07-26T13:43:29Z</time>
      </trkpt>
      <trkpt lat="45.63508" lon="6.63824">
        <ele>2262</ele>
        <time>2022-07-26T13:43:30Z</time>
      </trkpt>
      <trkpt lat="45.63507" lon="6.63823">
        <ele>2262</ele>
        <time>2022-07-26T13:43:31Z</time>
      </trkpt>
      <trkpt lat="45.63506" lon="6.63822">
        <ele>2262</ele>
        <time>2022-07-26T13:43:32Z</time>
      </trkpt>
      <trkpt lat="45.63505" lon="6.63821">
        <ele>2262</ele>
        <time>2022-07-26T13:43:33Z</time>
      </trkpt>
      <trkpt lat="45.63504" lon="6.63821">
        <ele>2262</ele>
        <time>2022-07-26T13:43:34Z</time>
      </trkpt>
      <trkpt lat="45.63503" lon="6.6382">
        <ele>2262</ele>
        <time>2022-07-26T13:43:35Z</time>
      </trkpt>
      <trkpt lat="45.63502" lon="6.63818">
        <ele>2262</ele>
        <time>2022-07-26T13:43:36Z</time>
      </trkpt>
      <trkpt lat="45.63501" lon="6.63817">
        <ele>2262</ele>
        <time>2022-07-26T13:43:37Z</time>
      </trkpt>
      <trkpt lat="45.63501" lon="6.63816">
        <ele>2263</ele>
        <time>2022-07-26T13:43:38Z</time>
      </trkpt>
      <trkpt lat="45.635" lon="6.63815">
        <ele>2263</ele>
        <time>2022-07-26T13:43:39Z</time>
      </trkpt>
      <trkpt lat="45.63499" lon="6.63814">
        <ele>2263</ele>
        <time>2022-07-26T13:43:40Z</time>
      </trkpt>
      <trkpt lat="45.63499" lon="6.63813">
        <ele>2263</ele>
        <time>2022-07-26T13:43:41Z</time>
      </trkpt>
      <trkpt lat="45.63498" lon="6.63812">
        <ele>2263</ele>
        <time>2022-07-26T13:43:42Z</time>
      </trkpt>
      <trkpt lat="45.63497" lon="6.6381">
        <ele>2263</ele>
        <time>2022-07-26T13:43:43Z</time>
      </trkpt>
      <trkpt lat="45.63496" lon="6.63809">
        <ele>2263</ele>
        <time>2022-07-26T13:43:44Z</time>
      </trkpt>
      <trkpt lat="45.63495" lon="6.63808">
        <ele>2263</ele>
        <time>2022-07-26T13:43:45Z</time>
      </trkpt>
      <trkpt lat="45.63495" lon="6.63807">
        <ele>2263</ele>
        <time>2022-07-26T13:43:46Z</time>
      </trkpt>
      <trkpt lat="45.63494" lon="6.63804">
        <ele>2267</ele>
        <time>2022-07-26T13:45:57Z</time>
      </trkpt>
      <trkpt lat="45.63493" lon="6.63803">
        <ele>2267</ele>
        <time>2022-07-26T13:45:58Z</time>
      </trkpt>
      <trkpt lat="45.63493" lon="6.63803">
        <ele>2267</ele>
        <time>2022-07-26T13:45:59Z</time>
      </trkpt>
      <trkpt lat="45.63493" lon="6.63802">
        <ele>2267</ele>
        <time>2022-07-26T13:46:00Z</time>
      </trkpt>
      <trkpt lat="45.63493" lon="6.63801">
        <ele>2267</ele>
        <time>2022-07-26T13:46:01Z</time>
      </trkpt>
      <trkpt lat="45.63492" lon="6.638">
        <ele>2267</ele>
        <time>2022-07-26T13:46:02Z</time>
      </trkpt>
      <trkpt lat="45.63492" lon="6.63799">
        <ele>2267</ele>
        <time>2022-07-26T13:46:03Z</time>
      </trkpt>
      <trkpt lat="45.63492" lon="6.63798">
        <ele>2267</ele>
        <time>2022-07-26T13:46:04Z</time>
      </trkpt>
      <trkpt lat="45.63492" lon="6.63797">
        <ele>2267</ele>
        <time>2022-07-26T13:46:05Z</time>
      </trkpt>
      <trkpt lat="45.63492" lon="6.63796">
        <ele>2267</ele>
        <time>2022-07-26T13:46:06Z</time>
      </trkpt>
      <trkpt lat="45.63492" lon="6.63796">
        <ele>2267</ele>
        <time>2022-07-26T13:46:07Z</time>
      </trkpt>
      <trkpt lat="45.63492" lon="6.63794">
        <ele>2268</ele>
        <time>2022-07-26T13:46:08Z</time>
      </trkpt>
      <trkpt lat="45.63492" lon="6.63793">
        <ele>2268</ele>
        <time>2022-07-26T13:46:09Z</time>
      </trkpt>
      <trkpt lat="45.63491" lon="6.63792">
        <ele>2268</ele>
        <time>2022-07-26T13:46:10Z</time>
      </trkpt>
      <trkpt lat="45.63491" lon="6.63791">
        <ele>2268</ele>
        <time>2022-07-26T13:46:11Z</time>
      </trkpt>
      <trkpt lat="45.63491" lon="6.6379">
        <ele>2268</ele>
        <time>2022-07-26T13:46:12Z</time>
      </trkpt>
      <trkpt lat="45.63491" lon="6.63789">
        <ele>2268</ele>
        <time>2022-07-26T13:46:13Z</time>
      </trkpt>
      <trkpt lat="45.63491" lon="6.63787">
        <ele>2268</ele>
        <time>2022-07-26T13:46:14Z</time>
      </trkpt>
      <trkpt lat="45.63491" lon="6.63786">
        <ele>2268</ele>
        <time>2022-07-26T13:46:15Z</time>
      </trkpt>
      <trkpt lat="45.6349" lon="6.63785">
        <ele>2268</ele>
        <time>2022-07-26T13:46:16Z</time>
      </trkpt>
      <trkpt lat="45.6349" lon="6.63784">
        <ele>2268</ele>
        <time>2022-07-26T13:46:17Z</time>
      </trkpt>
      <trkpt lat="45.6349" lon="6.63782">
        <ele>2269</ele>
        <time>2022-07-26T13:46:18Z</time>
      </trkpt>
      <trkpt lat="45.63489" lon="6.63781">
        <ele>2269</ele>
        <time>2022-07-26T13:46:19Z</time>
      </trkpt>
      <trkpt lat="45.63489" lon="6.6378">
        <ele>2269</ele>
        <time>2022-07-26T13:46:20Z</time>
      </trkpt>
      <trkpt lat="45.63489" lon="6.63779">
        <ele>2269</ele>
        <time>2022-07-26T13:46:21Z</time>
      </trkpt>
      <trkpt lat="45.63488" lon="6.63778">
        <ele>2269</ele>
        <time>2022-07-26T13:46:22Z</time>
      </trkpt>
      <trkpt lat="45.63488" lon="6.63777">
        <ele>2270</ele>
        <time>2022-07-26T13:46:23Z</time>
      </trkpt>
      <trkpt lat="45.63488" lon="6.63776">
        <ele>2270</ele>
        <time>2022-07-26T13:46:24Z</time>
      </trkpt>
      <trkpt lat="45.63487" lon="6.63775">
        <ele>2270</ele>
        <time>2022-07-26T13:46:25Z</time>
      </trkpt>
      <trkpt lat="45.63487" lon="6.63774">
        <ele>2270</ele>
        <time>2022-07-26T13:46:26Z</time>
      </trkpt>
      <trkpt lat="45.63487" lon="6.63774">
        <ele>2270</ele>
        <time>2022-07-26T13:46:27Z</time>
      </trkpt>
      <trkpt lat="45.63487" lon="6.63773">
        <ele>2270</ele>
        <time>2022-07-26T13:46:28Z</time>
      </trkpt>
      <trkpt lat="45.63487" lon="6.63772">
        <ele>2270</ele>
        <time>2022-07-26T13:46:29Z</time>
      </trkpt>
      <trkpt lat="45.63487" lon="6.63771">
        <ele>2270</ele>
        <time>2022-07-26T13:46:30Z</time>
      </trkpt>
      <trkpt lat="45.63486" lon="6.63771">
        <ele>2270</ele>
        <time>2022-07-26T13:46:31Z</time>
      </trkpt>
      <trkpt lat="45.63486" lon="6.6377">
        <ele>2270</ele>
        <time>2022-07-26T13:46:32Z</time>
      </trkpt>
      <trkpt lat="45.63485" lon="6.63769">
        <ele>2271</ele>
        <time>2022-07-26T13:46:33Z</time>
      </trkpt>
      <trkpt lat="45.63485" lon="6.63769">
        <ele>2271</ele>
        <time>2022-07-26T13:46:34Z</time>
      </trkpt>
      <trkpt lat="45.63484" lon="6.63768">
        <ele>2271</ele>
        <time>2022-07-26T13:46:35Z</time>
      </trkpt>
      <trkpt lat="45.63484" lon="6.63768">
        <ele>2272</ele>
        <time>2022-07-26T13:46:36Z</time>
      </trkpt>
      <trkpt lat="45.63483" lon="6.63767">
        <ele>2272</ele>
        <time>2022-07-26T13:46:37Z</time>
      </trkpt>
      <trkpt lat="45.63483" lon="6.63767">
        <ele>2273</ele>
        <time>2022-07-26T13:46:38Z</time>
      </trkpt>
      <trkpt lat="45.63482" lon="6.63767">
        <ele>2273</ele>
        <time>2022-07-26T13:46:39Z</time>
      </trkpt>
      <trkpt lat="45.63481" lon="6.63766">
        <ele>2273</ele>
        <time>2022-07-26T13:46:40Z</time>
      </trkpt>
      <trkpt lat="45.6348" lon="6.63766">
        <ele>2273</ele>
        <time>2022-07-26T13:46:41Z</time>
      </trkpt>
      <trkpt lat="45.6348" lon="6.63766">
        <ele>2273</ele>
        <time>2022-07-26T13:46:42Z</time>
      </trkpt>
      <trkpt lat="45.63479" lon="6.63765">
        <ele>2274</ele>
        <time>2022-07-26T13:46:43Z</time>
      </trkpt>
      <trkpt lat="45.63478" lon="6.63765">
        <ele>2274</ele>
        <time>2022-07-26T13:46:44Z</time>
      </trkpt>
      <trkpt lat="45.63477" lon="6.63765">
        <ele>2274</ele>
        <time>2022-07-26T13:46:45Z</time>
      </trkpt>
      <trkpt lat="45.63477" lon="6.63764">
        <ele>2274</ele>
        <time>2022-07-26T13:46:46Z</time>
      </trkpt>
      <trkpt lat="45.63476" lon="6.63763">
        <ele>2274</ele>
        <time>2022-07-26T13:46:47Z</time>
      </trkpt>
      <trkpt lat="45.63475" lon="6.63763">
        <ele>2275</ele>
        <time>2022-07-26T13:46:48Z</time>
      </trkpt>
      <trkpt lat="45.63474" lon="6.63762">
        <ele>2275</ele>
        <time>2022-07-26T13:46:49Z</time>
      </trkpt>
      <trkpt lat="45.63474" lon="6.63761">
        <ele>2275</ele>
        <time>2022-07-26T13:46:50Z</time>
      </trkpt>
      <trkpt lat="45.63473" lon="6.6376">
        <ele>2275</ele>
        <time>2022-07-26T13:46:51Z</time>
      </trkpt>
      <trkpt lat="45.63473" lon="6.6376">
        <ele>2275</ele>
        <time>2022-07-26T13:46:52Z</time>
      </trkpt>
      <trkpt lat="45.63472" lon="6.63759">
        <ele>2275</ele>
        <time>2022-07-26T13:46:53Z</time>
      </trkpt>
      <trkpt lat="45.63472" lon="6.63758">
        <ele>2275</ele>
        <time>2022-07-26T13:46:54Z</time>
      </trkpt>
      <trkpt lat="45.63472" lon="6.63758">
        <ele>2275</ele>
        <time>2022-07-26T13:46:55Z</time>
      </trkpt>
      <trkpt lat="45.63472" lon="6.63758">
        <ele>2275</ele>
        <time>2022-07-26T13:46:56Z</time>
      </trkpt>
      <trkpt lat="45.63471" lon="6.63757">
        <ele>2275</ele>
        <time>2022-07-26T13:46:57Z</time>
      </trkpt>
      <trkpt lat="45.63471" lon="6.63757">
        <ele>2276</ele>
        <time>2022-07-26T13:46:58Z</time>
      </trkpt>
      <trkpt lat="45.63471" lon="6.63756">
        <ele>2276</ele>
        <time>2022-07-26T13:46:59Z</time>
      </trkpt>
      <trkpt lat="45.6347" lon="6.63756">
        <ele>2276</ele>
        <time>2022-07-26T13:47:00Z</time>
      </trkpt>
      <trkpt lat="45.6347" lon="6.63755">
        <ele>2276</ele>
        <time>2022-07-26T13:47:01Z</time>
      </trkpt>
      <trkpt lat="45.63469" lon="6.63754">
        <ele>2276</ele>
        <time>2022-07-26T13:47:02Z</time>
      </trkpt>
      <trkpt lat="45.63468" lon="6.63754">
        <ele>2277</ele>
        <time>2022-07-26T13:47:03Z</time>
      </trkpt>
      <trkpt lat="45.63468" lon="6.63753">
        <ele>2277</ele>
        <time>2022-07-26T13:47:04Z</time>
      </trkpt>
      <trkpt lat="45.63467" lon="6.63753">
        <ele>2277</ele>
        <time>2022-07-26T13:47:05Z</time>
      </trkpt>
      <trkpt lat="45.63467" lon="6.63753">
        <ele>2277</ele>
        <time>2022-07-26T13:47:06Z</time>
      </trkpt>
      <trkpt lat="45.63467" lon="6.63753">
        <ele>2277</ele>
        <time>2022-07-26T13:47:07Z</time>
      </trkpt>
      <trkpt lat="45.63466" lon="6.63753">
        <ele>2278</ele>
        <time>2022-07-26T13:47:08Z</time>
      </trkpt>
      <trkpt lat="45.63466" lon="6.63753">
        <ele>2278</ele>
        <time>2022-07-26T13:47:09Z</time>
      </trkpt>
      <trkpt lat="45.63466" lon="6.63753">
        <ele>2278</ele>
        <time>2022-07-26T13:47:10Z</time>
      </trkpt>
      <trkpt lat="45.63466" lon="6.63752">
        <ele>2278</ele>
        <time>2022-07-26T13:47:11Z</time>
      </trkpt>
      <trkpt lat="45.63465" lon="6.63752">
        <ele>2278</ele>
        <time>2022-07-26T13:47:12Z</time>
      </trkpt>
      <trkpt lat="45.63465" lon="6.63751">
        <ele>2279</ele>
        <time>2022-07-26T13:47:13Z</time>
      </trkpt>
      <trkpt lat="45.63464" lon="6.63751">
        <ele>2279</ele>
        <time>2022-07-26T13:47:14Z</time>
      </trkpt>
      <trkpt lat="45.63464" lon="6.6375">
        <ele>2279</ele>
        <time>2022-07-26T13:47:15Z</time>
      </trkpt>
      <trkpt lat="45.63463" lon="6.63749">
        <ele>2279</ele>
        <time>2022-07-26T13:47:16Z</time>
      </trkpt>
      <trkpt lat="45.63463" lon="6.63748">
        <ele>2279</ele>
        <time>2022-07-26T13:47:17Z</time>
      </trkpt>
      <trkpt lat="45.63462" lon="6.63748">
        <ele>2280</ele>
        <time>2022-07-26T13:47:18Z</time>
      </trkpt>
      <trkpt lat="45.63462" lon="6.63747">
        <ele>2280</ele>
        <time>2022-07-26T13:47:19Z</time>
      </trkpt>
      <trkpt lat="45.63461" lon="6.63747">
        <ele>2280</ele>
        <time>2022-07-26T13:47:20Z</time>
      </trkpt>
      <trkpt lat="45.6346" lon="6.63746">
        <ele>2280</ele>
        <time>2022-07-26T13:47:21Z</time>
      </trkpt>
      <trkpt lat="45.6346" lon="6.63745">
        <ele>2280</ele>
        <time>2022-07-26T13:47:22Z</time>
      </trkpt>
      <trkpt lat="45.63459" lon="6.63745">
        <ele>2281</ele>
        <time>2022-07-26T13:47:23Z</time>
      </trkpt>
      <trkpt lat="45.63458" lon="6.63744">
        <ele>2281</ele>
        <time>2022-07-26T13:47:24Z</time>
      </trkpt>
      <trkpt lat="45.63458" lon="6.63743">
        <ele>2281</ele>
        <time>2022-07-26T13:47:25Z</time>
      </trkpt>
      <trkpt lat="45.63457" lon="6.63743">
        <ele>2281</ele>
        <time>2022-07-26T13:47:26Z</time>
      </trkpt>
      <trkpt lat="45.63457" lon="6.63742">
        <ele>2281</ele>
        <time>2022-07-26T13:47:27Z</time>
      </trkpt>
      <trkpt lat="45.63456" lon="6.63741">
        <ele>2282</ele>
        <time>2022-07-26T13:47:28Z</time>
      </trkpt>
      <trkpt lat="45.63456" lon="6.63741">
        <ele>2282</ele>
        <time>2022-07-26T13:47:29Z</time>
      </trkpt>
      <trkpt lat="45.63455" lon="6.6374">
        <ele>2282</ele>
        <time>2022-07-26T13:47:30Z</time>
      </trkpt>
      <trkpt lat="45.63454" lon="6.63739">
        <ele>2282</ele>
        <time>2022-07-26T13:47:31Z</time>
      </trkpt>
      <trkpt lat="45.63454" lon="6.63739">
        <ele>2282</ele>
        <time>2022-07-26T13:47:32Z</time>
      </trkpt>
      <trkpt lat="45.63453" lon="6.63738">
        <ele>2282</ele>
        <time>2022-07-26T13:47:33Z</time>
      </trkpt>
      <trkpt lat="45.63452" lon="6.63737">
        <ele>2282</ele>
        <time>2022-07-26T13:47:34Z</time>
      </trkpt>
      <trkpt lat="45.63452" lon="6.63736">
        <ele>2282</ele>
        <time>2022-07-26T13:47:35Z</time>
      </trkpt>
      <trkpt lat="45.63451" lon="6.63735">
        <ele>2282</ele>
        <time>2022-07-26T13:47:36Z</time>
      </trkpt>
      <trkpt lat="45.63451" lon="6.63735">
        <ele>2282</ele>
        <time>2022-07-26T13:47:37Z</time>
      </trkpt>
      <trkpt lat="45.6345" lon="6.63734">
        <ele>2283</ele>
        <time>2022-07-26T13:47:38Z</time>
      </trkpt>
      <trkpt lat="45.6345" lon="6.63734">
        <ele>2283</ele>
        <time>2022-07-26T13:47:39Z</time>
      </trkpt>
      <trkpt lat="45.63449" lon="6.63733">
        <ele>2283</ele>
        <time>2022-07-26T13:47:40Z</time>
      </trkpt>
      <trkpt lat="45.63448" lon="6.63733">
        <ele>2283</ele>
        <time>2022-07-26T13:47:41Z</time>
      </trkpt>
      <trkpt lat="45.63448" lon="6.63732">
        <ele>2283</ele>
        <time>2022-07-26T13:47:42Z</time>
      </trkpt>
      <trkpt lat="45.63447" lon="6.63732">
        <ele>2283</ele>
        <time>2022-07-26T13:47:43Z</time>
      </trkpt>
      <trkpt lat="45.63446" lon="6.63732">
        <ele>2283</ele>
        <time>2022-07-26T13:47:44Z</time>
      </trkpt>
      <trkpt lat="45.63446" lon="6.63731">
        <ele>2283</ele>
        <time>2022-07-26T13:47:45Z</time>
      </trkpt>
      <trkpt lat="45.63445" lon="6.63731">
        <ele>2283</ele>
        <time>2022-07-26T13:47:46Z</time>
      </trkpt>
      <trkpt lat="45.63444" lon="6.6373">
        <ele>2283</ele>
        <time>2022-07-26T13:47:47Z</time>
      </trkpt>
      <trkpt lat="45.63444" lon="6.63729">
        <ele>2284</ele>
        <time>2022-07-26T13:47:48Z</time>
      </trkpt>
      <trkpt lat="45.63443" lon="6.63729">
        <ele>2284</ele>
        <time>2022-07-26T13:47:49Z</time>
      </trkpt>
      <trkpt lat="45.63442" lon="6.63728">
        <ele>2284</ele>
        <time>2022-07-26T13:47:50Z</time>
      </trkpt>
      <trkpt lat="45.63442" lon="6.63727">
        <ele>2285</ele>
        <time>2022-07-26T13:47:51Z</time>
      </trkpt>
      <trkpt lat="45.63441" lon="6.63727">
        <ele>2289</ele>
        <time>2022-07-26T13:48:15Z</time>
      </trkpt>
      <trkpt lat="45.6344" lon="6.63727">
        <ele>2289</ele>
        <time>2022-07-26T13:48:16Z</time>
      </trkpt>
      <trkpt lat="45.6344" lon="6.63727">
        <ele>2289</ele>
        <time>2022-07-26T13:48:17Z</time>
      </trkpt>
      <trkpt lat="45.63439" lon="6.63727">
        <ele>2290</ele>
        <time>2022-07-26T13:48:18Z</time>
      </trkpt>
      <trkpt lat="45.63439" lon="6.63727">
        <ele>2290</ele>
        <time>2022-07-26T13:48:19Z</time>
      </trkpt>
      <trkpt lat="45.63438" lon="6.63726">
        <ele>2290</ele>
        <time>2022-07-26T13:48:20Z</time>
      </trkpt>
      <trkpt lat="45.63438" lon="6.63726">
        <ele>2290</ele>
        <time>2022-07-26T13:48:21Z</time>
      </trkpt>
      <trkpt lat="45.63437" lon="6.63725">
        <ele>2290</ele>
        <time>2022-07-26T13:48:22Z</time>
      </trkpt>
      <trkpt lat="45.63437" lon="6.63724">
        <ele>2290</ele>
        <time>2022-07-26T13:48:23Z</time>
      </trkpt>
      <trkpt lat="45.63436" lon="6.63723">
        <ele>2290</ele>
        <time>2022-07-26T13:48:24Z</time>
      </trkpt>
      <trkpt lat="45.63436" lon="6.63722">
        <ele>2290</ele>
        <time>2022-07-26T13:48:25Z</time>
      </trkpt>
      <trkpt lat="45.63436" lon="6.63721">
        <ele>2290</ele>
        <time>2022-07-26T13:48:26Z</time>
      </trkpt>
      <trkpt lat="45.63435" lon="6.6372">
        <ele>2290</ele>
        <time>2022-07-26T13:48:27Z</time>
      </trkpt>
      <trkpt lat="45.63435" lon="6.63719">
        <ele>2290</ele>
        <time>2022-07-26T13:48:28Z</time>
      </trkpt>
      <trkpt lat="45.63434" lon="6.63717">
        <ele>2290</ele>
        <time>2022-07-26T13:48:29Z</time>
      </trkpt>
      <trkpt lat="45.63434" lon="6.63716">
        <ele>2290</ele>
        <time>2022-07-26T13:48:30Z</time>
      </trkpt>
      <trkpt lat="45.63434" lon="6.63715">
        <ele>2290</ele>
        <time>2022-07-26T13:48:31Z</time>
      </trkpt>
      <trkpt lat="45.63433" lon="6.63714">
        <ele>2290</ele>
        <time>2022-07-26T13:48:32Z</time>
      </trkpt>
      <trkpt lat="45.63433" lon="6.63713">
        <ele>2290</ele>
        <time>2022-07-26T13:48:33Z</time>
      </trkpt>
      <trkpt lat="45.63432" lon="6.63712">
        <ele>2290</ele>
        <time>2022-07-26T13:48:34Z</time>
      </trkpt>
      <trkpt lat="45.63431" lon="6.63711">
        <ele>2290</ele>
        <time>2022-07-26T13:48:35Z</time>
      </trkpt>
      <trkpt lat="45.63431" lon="6.6371">
        <ele>2290</ele>
        <time>2022-07-26T13:48:36Z</time>
      </trkpt>
      <trkpt lat="45.6343" lon="6.63709">
        <ele>2290</ele>
        <time>2022-07-26T13:48:37Z</time>
      </trkpt>
      <trkpt lat="45.6343" lon="6.63709">
        <ele>2291</ele>
        <time>2022-07-26T13:48:38Z</time>
      </trkpt>
      <trkpt lat="45.63429" lon="6.63709">
        <ele>2291</ele>
        <time>2022-07-26T13:48:39Z</time>
      </trkpt>
      <trkpt lat="45.63429" lon="6.63708">
        <ele>2291</ele>
        <time>2022-07-26T13:48:40Z</time>
      </trkpt>
      <trkpt lat="45.63428" lon="6.63707">
        <ele>2291</ele>
        <time>2022-07-26T13:48:41Z</time>
      </trkpt>
      <trkpt lat="45.63428" lon="6.63707">
        <ele>2291</ele>
        <time>2022-07-26T13:48:42Z</time>
      </trkpt>
      <trkpt lat="45.63427" lon="6.63706">
        <ele>2292</ele>
        <time>2022-07-26T13:48:43Z</time>
      </trkpt>
      <trkpt lat="45.63427" lon="6.63705">
        <ele>2292</ele>
        <time>2022-07-26T13:48:44Z</time>
      </trkpt>
      <trkpt lat="45.63426" lon="6.63704">
        <ele>2292</ele>
        <time>2022-07-26T13:48:45Z</time>
      </trkpt>
      <trkpt lat="45.63425" lon="6.63704">
        <ele>2292</ele>
        <time>2022-07-26T13:48:46Z</time>
      </trkpt>
      <trkpt lat="45.63425" lon="6.63703">
        <ele>2292</ele>
        <time>2022-07-26T13:48:47Z</time>
      </trkpt>
      <trkpt lat="45.63424" lon="6.63702">
        <ele>2292</ele>
        <time>2022-07-26T13:48:48Z</time>
      </trkpt>
      <trkpt lat="45.63423" lon="6.63701">
        <ele>2292</ele>
        <time>2022-07-26T13:48:49Z</time>
      </trkpt>
      <trkpt lat="45.63423" lon="6.63701">
        <ele>2292</ele>
        <time>2022-07-26T13:48:50Z</time>
      </trkpt>
      <trkpt lat="45.63422" lon="6.637">
        <ele>2292</ele>
        <time>2022-07-26T13:48:51Z</time>
      </trkpt>
      <trkpt lat="45.63421" lon="6.63699">
        <ele>2292</ele>
        <time>2022-07-26T13:48:52Z</time>
      </trkpt>
      <trkpt lat="45.6342" lon="6.63698">
        <ele>2293</ele>
        <time>2022-07-26T13:48:53Z</time>
      </trkpt>
      <trkpt lat="45.6342" lon="6.63697">
        <ele>2293</ele>
        <time>2022-07-26T13:48:54Z</time>
      </trkpt>
      <trkpt lat="45.63419" lon="6.63697">
        <ele>2293</ele>
        <time>2022-07-26T13:48:55Z</time>
      </trkpt>
      <trkpt lat="45.63418" lon="6.63696">
        <ele>2293</ele>
        <time>2022-07-26T13:48:56Z</time>
      </trkpt>
      <trkpt lat="45.63418" lon="6.63695">
        <ele>2293</ele>
        <time>2022-07-26T13:48:57Z</time>
      </trkpt>
      <trkpt lat="45.63417" lon="6.63694">
        <ele>2293</ele>
        <time>2022-07-26T13:48:58Z</time>
      </trkpt>
      <trkpt lat="45.63416" lon="6.63694">
        <ele>2293</ele>
        <time>2022-07-26T13:48:59Z</time>
      </trkpt>
      <trkpt lat="45.63416" lon="6.63693">
        <ele>2293</ele>
        <time>2022-07-26T13:49:00Z</time>
      </trkpt>
      <trkpt lat="45.63415" lon="6.63693">
        <ele>2293</ele>
        <time>2022-07-26T13:49:01Z</time>
      </trkpt>
      <trkpt lat="45.63414" lon="6.63692">
        <ele>2293</ele>
        <time>2022-07-26T13:49:02Z</time>
      </trkpt>
      <trkpt lat="45.63413" lon="6.63692">
        <ele>2294</ele>
        <time>2022-07-26T13:49:03Z</time>
      </trkpt>
      <trkpt lat="45.63412" lon="6.63692">
        <ele>2294</ele>
        <time>2022-07-26T13:49:04Z</time>
      </trkpt>
      <trkpt lat="45.63412" lon="6.63691">
        <ele>2294</ele>
        <time>2022-07-26T13:49:05Z</time>
      </trkpt>
      <trkpt lat="45.63411" lon="6.63691">
        <ele>2294</ele>
        <time>2022-07-26T13:49:06Z</time>
      </trkpt>
      <trkpt lat="45.6341" lon="6.6369">
        <ele>2294</ele>
        <time>2022-07-26T13:49:07Z</time>
      </trkpt>
      <trkpt lat="45.63409" lon="6.6369">
        <ele>2295</ele>
        <time>2022-07-26T13:49:08Z</time>
      </trkpt>
      <trkpt lat="45.63409" lon="6.63689">
        <ele>2295</ele>
        <time>2022-07-26T13:49:09Z</time>
      </trkpt>
      <trkpt lat="45.63408" lon="6.63688">
        <ele>2295</ele>
        <time>2022-07-26T13:49:10Z</time>
      </trkpt>
      <trkpt lat="45.63407" lon="6.63688">
        <ele>2295</ele>
        <time>2022-07-26T13:49:11Z</time>
      </trkpt>
      <trkpt lat="45.63406" lon="6.63687">
        <ele>2295</ele>
        <time>2022-07-26T13:49:12Z</time>
      </trkpt>
      <trkpt lat="45.63406" lon="6.63686">
        <ele>2295</ele>
        <time>2022-07-26T13:49:13Z</time>
      </trkpt>
      <trkpt lat="45.63405" lon="6.63686">
        <ele>2295</ele>
        <time>2022-07-26T13:49:14Z</time>
      </trkpt>
      <trkpt lat="45.63405" lon="6.63685">
        <ele>2295</ele>
        <time>2022-07-26T13:49:15Z</time>
      </trkpt>
      <trkpt lat="45.63404" lon="6.63684">
        <ele>2295</ele>
        <time>2022-07-26T13:49:16Z</time>
      </trkpt>
      <trkpt lat="45.63404" lon="6.63683">
        <ele>2295</ele>
        <time>2022-07-26T13:49:17Z</time>
      </trkpt>
      <trkpt lat="45.63404" lon="6.63683">
        <ele>2296</ele>
        <time>2022-07-26T13:49:18Z</time>
      </trkpt>
      <trkpt lat="45.63403" lon="6.63682">
        <ele>2296</ele>
        <time>2022-07-26T13:49:19Z</time>
      </trkpt>
      <trkpt lat="45.63403" lon="6.63681">
        <ele>2296</ele>
        <time>2022-07-26T13:49:20Z</time>
      </trkpt>
      <trkpt lat="45.63402" lon="6.6368">
        <ele>2299</ele>
        <time>2022-07-26T13:49:33Z</time>
      </trkpt>
      <trkpt lat="45.63402" lon="6.6368">
        <ele>2299</ele>
        <time>2022-07-26T13:49:34Z</time>
      </trkpt>
      <trkpt lat="45.63402" lon="6.63679">
        <ele>2299</ele>
        <time>2022-07-26T13:49:35Z</time>
      </trkpt>
      <trkpt lat="45.63402" lon="6.63679">
        <ele>2299</ele>
        <time>2022-07-26T13:49:36Z</time>
      </trkpt>
      <trkpt lat="45.63402" lon="6.63679">
        <ele>2299</ele>
        <time>2022-07-26T13:49:37Z</time>
      </trkpt>
      <trkpt lat="45.63401" lon="6.63678">
        <ele>2299</ele>
        <time>2022-07-26T13:49:38Z</time>
      </trkpt>
      <trkpt lat="45.63401" lon="6.63678">
        <ele>2299</ele>
        <time>2022-07-26T13:49:39Z</time>
      </trkpt>
      <trkpt lat="45.634" lon="6.63677">
        <ele>2299</ele>
        <time>2022-07-26T13:49:40Z</time>
      </trkpt>
      <trkpt lat="45.63399" lon="6.63676">
        <ele>2299</ele>
        <time>2022-07-26T13:49:41Z</time>
      </trkpt>
      <trkpt lat="45.63399" lon="6.63675">
        <ele>2299</ele>
        <time>2022-07-26T13:49:42Z</time>
      </trkpt>
      <trkpt lat="45.63398" lon="6.63675">
        <ele>2299</ele>
        <time>2022-07-26T13:49:43Z</time>
      </trkpt>
      <trkpt lat="45.63398" lon="6.63674">
        <ele>2299</ele>
        <time>2022-07-26T13:49:44Z</time>
      </trkpt>
      <trkpt lat="45.63397" lon="6.63673">
        <ele>2299</ele>
        <time>2022-07-26T13:49:45Z</time>
      </trkpt>
      <trkpt lat="45.63397" lon="6.63671">
        <ele>2299</ele>
        <time>2022-07-26T13:49:46Z</time>
      </trkpt>
      <trkpt lat="45.63396" lon="6.6367">
        <ele>2299</ele>
        <time>2022-07-26T13:49:47Z</time>
      </trkpt>
      <trkpt lat="45.63396" lon="6.63669">
        <ele>2300</ele>
        <time>2022-07-26T13:49:48Z</time>
      </trkpt>
      <trkpt lat="45.63396" lon="6.63668">
        <ele>2300</ele>
        <time>2022-07-26T13:49:49Z</time>
      </trkpt>
      <trkpt lat="45.63395" lon="6.63667">
        <ele>2300</ele>
        <time>2022-07-26T13:49:50Z</time>
      </trkpt>
      <trkpt lat="45.63395" lon="6.63667">
        <ele>2300</ele>
        <time>2022-07-26T13:49:51Z</time>
      </trkpt>
      <trkpt lat="45.63394" lon="6.63666">
        <ele>2300</ele>
        <time>2022-07-26T13:49:52Z</time>
      </trkpt>
      <trkpt lat="45.63394" lon="6.63665">
        <ele>2300</ele>
        <time>2022-07-26T13:49:53Z</time>
      </trkpt>
      <trkpt lat="45.63393" lon="6.63664">
        <ele>2300</ele>
        <time>2022-07-26T13:49:54Z</time>
      </trkpt>
      <trkpt lat="45.63393" lon="6.63663">
        <ele>2300</ele>
        <time>2022-07-26T13:49:55Z</time>
      </trkpt>
      <trkpt lat="45.63392" lon="6.63663">
        <ele>2300</ele>
        <time>2022-07-26T13:49:56Z</time>
      </trkpt>
      <trkpt lat="45.63391" lon="6.63662">
        <ele>2300</ele>
        <time>2022-07-26T13:49:57Z</time>
      </trkpt>
      <trkpt lat="45.63391" lon="6.63661">
        <ele>2301</ele>
        <time>2022-07-26T13:49:58Z</time>
      </trkpt>
      <trkpt lat="45.6339" lon="6.6366">
        <ele>2301</ele>
        <time>2022-07-26T13:49:59Z</time>
      </trkpt>
      <trkpt lat="45.6339" lon="6.6366">
        <ele>2301</ele>
        <time>2022-07-26T13:50:00Z</time>
      </trkpt>
      <trkpt lat="45.63389" lon="6.63659">
        <ele>2301</ele>
        <time>2022-07-26T13:50:01Z</time>
      </trkpt>
      <trkpt lat="45.63389" lon="6.63658">
        <ele>2301</ele>
        <time>2022-07-26T13:50:02Z</time>
      </trkpt>
      <trkpt lat="45.63388" lon="6.63657">
        <ele>2302</ele>
        <time>2022-07-26T13:50:08Z</time>
      </trkpt>
      <trkpt lat="45.63388" lon="6.63656">
        <ele>2302</ele>
        <time>2022-07-26T13:50:09Z</time>
      </trkpt>
      <trkpt lat="45.63387" lon="6.63655">
        <ele>2302</ele>
        <time>2022-07-26T13:50:10Z</time>
      </trkpt>
      <trkpt lat="45.63387" lon="6.63654">
        <ele>2302</ele>
        <time>2022-07-26T13:50:11Z</time>
      </trkpt>
      <trkpt lat="45.63386" lon="6.63653">
        <ele>2302</ele>
        <time>2022-07-26T13:50:12Z</time>
      </trkpt>
      <trkpt lat="45.63386" lon="6.63652">
        <ele>2303</ele>
        <time>2022-07-26T13:50:13Z</time>
      </trkpt>
      <trkpt lat="45.63386" lon="6.63651">
        <ele>2303</ele>
        <time>2022-07-26T13:50:14Z</time>
      </trkpt>
      <trkpt lat="45.63385" lon="6.63649">
        <ele>2303</ele>
        <time>2022-07-26T13:50:15Z</time>
      </trkpt>
      <trkpt lat="45.63385" lon="6.63648">
        <ele>2303</ele>
        <time>2022-07-26T13:50:16Z</time>
      </trkpt>
      <trkpt lat="45.63385" lon="6.63647">
        <ele>2303</ele>
        <time>2022-07-26T13:50:17Z</time>
      </trkpt>
      <trkpt lat="45.63384" lon="6.63646">
        <ele>2304</ele>
        <time>2022-07-26T13:50:18Z</time>
      </trkpt>
      <trkpt lat="45.63384" lon="6.63644">
        <ele>2304</ele>
        <time>2022-07-26T13:50:19Z</time>
      </trkpt>
      <trkpt lat="45.63384" lon="6.63643">
        <ele>2304</ele>
        <time>2022-07-26T13:50:20Z</time>
      </trkpt>
      <trkpt lat="45.63384" lon="6.63642">
        <ele>2304</ele>
        <time>2022-07-26T13:50:21Z</time>
      </trkpt>
      <trkpt lat="45.63384" lon="6.6364">
        <ele>2304</ele>
        <time>2022-07-26T13:50:22Z</time>
      </trkpt>
      <trkpt lat="45.63384" lon="6.63639">
        <ele>2305</ele>
        <time>2022-07-26T13:50:23Z</time>
      </trkpt>
      <trkpt lat="45.63384" lon="6.63638">
        <ele>2305</ele>
        <time>2022-07-26T13:50:24Z</time>
      </trkpt>
      <trkpt lat="45.63384" lon="6.63637">
        <ele>2305</ele>
        <time>2022-07-26T13:50:25Z</time>
      </trkpt>
      <trkpt lat="45.63385" lon="6.63636">
        <ele>2305</ele>
        <time>2022-07-26T13:50:26Z</time>
      </trkpt>
      <trkpt lat="45.63385" lon="6.63635">
        <ele>2305</ele>
        <time>2022-07-26T13:50:27Z</time>
      </trkpt>
      <trkpt lat="45.63385" lon="6.63634">
        <ele>2306</ele>
        <time>2022-07-26T13:50:28Z</time>
      </trkpt>
      <trkpt lat="45.63386" lon="6.63633">
        <ele>2306</ele>
        <time>2022-07-26T13:50:29Z</time>
      </trkpt>
      <trkpt lat="45.63386" lon="6.63632">
        <ele>2306</ele>
        <time>2022-07-26T13:50:30Z</time>
      </trkpt>
      <trkpt lat="45.63387" lon="6.63631">
        <ele>2306</ele>
        <time>2022-07-26T13:50:31Z</time>
      </trkpt>
      <trkpt lat="45.63388" lon="6.6363">
        <ele>2306</ele>
        <time>2022-07-26T13:50:32Z</time>
      </trkpt>
      <trkpt lat="45.63388" lon="6.63628">
        <ele>2306</ele>
        <time>2022-07-26T13:50:33Z</time>
      </trkpt>
      <trkpt lat="45.63389" lon="6.63627">
        <ele>2306</ele>
        <time>2022-07-26T13:50:34Z</time>
      </trkpt>
      <trkpt lat="45.6339" lon="6.63625">
        <ele>2306</ele>
        <time>2022-07-26T13:50:35Z</time>
      </trkpt>
      <trkpt lat="45.63391" lon="6.63624">
        <ele>2306</ele>
        <time>2022-07-26T13:50:36Z</time>
      </trkpt>
      <trkpt lat="45.63392" lon="6.63623">
        <ele>2306</ele>
        <time>2022-07-26T13:50:37Z</time>
      </trkpt>
      <trkpt lat="45.63393" lon="6.63622">
        <ele>2307</ele>
        <time>2022-07-26T13:50:38Z</time>
      </trkpt>
      <trkpt lat="45.63394" lon="6.6362">
        <ele>2307</ele>
        <time>2022-07-26T13:50:39Z</time>
      </trkpt>
      <trkpt lat="45.63395" lon="6.63619">
        <ele>2307</ele>
        <time>2022-07-26T13:50:40Z</time>
      </trkpt>
      <trkpt lat="45.63396" lon="6.63618">
        <ele>2307</ele>
        <time>2022-07-26T13:50:41Z</time>
      </trkpt>
      <trkpt lat="45.63397" lon="6.63617">
        <ele>2307</ele>
        <time>2022-07-26T13:50:42Z</time>
      </trkpt>
      <trkpt lat="45.63397" lon="6.63616">
        <ele>2307</ele>
        <time>2022-07-26T13:50:43Z</time>
      </trkpt>
      <trkpt lat="45.63398" lon="6.63614">
        <ele>2307</ele>
        <time>2022-07-26T13:50:44Z</time>
      </trkpt>
      <trkpt lat="45.63399" lon="6.63613">
        <ele>2307</ele>
        <time>2022-07-26T13:50:45Z</time>
      </trkpt>
      <trkpt lat="45.634" lon="6.63612">
        <ele>2307</ele>
        <time>2022-07-26T13:50:46Z</time>
      </trkpt>
      <trkpt lat="45.63401" lon="6.6361">
        <ele>2307</ele>
        <time>2022-07-26T13:50:47Z</time>
      </trkpt>
      <trkpt lat="45.63401" lon="6.63609">
        <ele>2307</ele>
        <time>2022-07-26T13:50:48Z</time>
      </trkpt>
      <trkpt lat="45.63402" lon="6.63607">
        <ele>2306</ele>
        <time>2022-07-26T13:50:49Z</time>
      </trkpt>
      <trkpt lat="45.63402" lon="6.63605">
        <ele>2306</ele>
        <time>2022-07-26T13:50:50Z</time>
      </trkpt>
      <trkpt lat="45.63402" lon="6.63604">
        <ele>2306</ele>
        <time>2022-07-26T13:50:51Z</time>
      </trkpt>
      <trkpt lat="45.63403" lon="6.63602">
        <ele>2306</ele>
        <time>2022-07-26T13:50:52Z</time>
      </trkpt>
      <trkpt lat="45.63403" lon="6.636">
        <ele>2305</ele>
        <time>2022-07-26T13:51:08Z</time>
      </trkpt>
      <trkpt lat="45.63402" lon="6.63599">
        <ele>2304</ele>
        <time>2022-07-26T13:51:09Z</time>
      </trkpt>
      <trkpt lat="45.63402" lon="6.63598">
        <ele>2304</ele>
        <time>2022-07-26T13:51:10Z</time>
      </trkpt>
      <trkpt lat="45.63402" lon="6.63598">
        <ele>2304</ele>
        <time>2022-07-26T13:51:11Z</time>
      </trkpt>
      <trkpt lat="45.63401" lon="6.63598">
        <ele>2304</ele>
        <time>2022-07-26T13:51:12Z</time>
      </trkpt>
      <trkpt lat="45.634" lon="6.63598">
        <ele>2304</ele>
        <time>2022-07-26T13:51:13Z</time>
      </trkpt>
      <trkpt lat="45.634" lon="6.63598">
        <ele>2304</ele>
        <time>2022-07-26T13:51:14Z</time>
      </trkpt>
      <trkpt lat="45.63399" lon="6.63598">
        <ele>2304</ele>
        <time>2022-07-26T13:51:15Z</time>
      </trkpt>
      <trkpt lat="45.63398" lon="6.63598">
        <ele>2304</ele>
        <time>2022-07-26T13:51:16Z</time>
      </trkpt>
      <trkpt lat="45.63396" lon="6.63597">
        <ele>2304</ele>
        <time>2022-07-26T13:51:53Z</time>
      </trkpt>
      <trkpt lat="45.63395" lon="6.63597">
        <ele>2304</ele>
        <time>2022-07-26T13:51:54Z</time>
      </trkpt>
      <trkpt lat="45.63394" lon="6.63596">
        <ele>2304</ele>
        <time>2022-07-26T13:51:55Z</time>
      </trkpt>
      <trkpt lat="45.63394" lon="6.63596">
        <ele>2304</ele>
        <time>2022-07-26T13:51:56Z</time>
      </trkpt>
      <trkpt lat="45.63393" lon="6.63595">
        <ele>2304</ele>
        <time>2022-07-26T13:51:57Z</time>
      </trkpt>
      <trkpt lat="45.63393" lon="6.63594">
        <ele>2305</ele>
        <time>2022-07-26T13:51:58Z</time>
      </trkpt>
      <trkpt lat="45.63392" lon="6.63593">
        <ele>2304</ele>
        <time>2022-07-26T13:51:59Z</time>
      </trkpt>
      <trkpt lat="45.63392" lon="6.63592">
        <ele>2304</ele>
        <time>2022-07-26T13:52:00Z</time>
      </trkpt>
      <trkpt lat="45.63392" lon="6.63591">
        <ele>2304</ele>
        <time>2022-07-26T13:52:01Z</time>
      </trkpt>
      <trkpt lat="45.63392" lon="6.63589">
        <ele>2304</ele>
        <time>2022-07-26T13:52:02Z</time>
      </trkpt>
      <trkpt lat="45.63392" lon="6.63588">
        <ele>2304</ele>
        <time>2022-07-26T13:52:03Z</time>
      </trkpt>
      <trkpt lat="45.63392" lon="6.63587">
        <ele>2304</ele>
        <time>2022-07-26T13:52:04Z</time>
      </trkpt>
      <trkpt lat="45.63392" lon="6.63586">
        <ele>2304</ele>
        <time>2022-07-26T13:52:05Z</time>
      </trkpt>
      <trkpt lat="45.63392" lon="6.63585">
        <ele>2304</ele>
        <time>2022-07-26T13:52:06Z</time>
      </trkpt>
      <trkpt lat="45.63393" lon="6.63584">
        <ele>2304</ele>
        <time>2022-07-26T13:52:07Z</time>
      </trkpt>
      <trkpt lat="45.63392" lon="6.63582">
        <ele>2304</ele>
        <time>2022-07-26T13:52:08Z</time>
      </trkpt>
      <trkpt lat="45.63392" lon="6.63581">
        <ele>2304</ele>
        <time>2022-07-26T13:52:09Z</time>
      </trkpt>
      <trkpt lat="45.63392" lon="6.6358">
        <ele>2304</ele>
        <time>2022-07-26T13:52:10Z</time>
      </trkpt>
      <trkpt lat="45.63392" lon="6.63579">
        <ele>2304</ele>
        <time>2022-07-26T13:52:11Z</time>
      </trkpt>
      <trkpt lat="45.63391" lon="6.63577">
        <ele>2304</ele>
        <time>2022-07-26T13:52:12Z</time>
      </trkpt>
      <trkpt lat="45.63391" lon="6.63576">
        <ele>2304</ele>
        <time>2022-07-26T13:52:13Z</time>
      </trkpt>
      <trkpt lat="45.63391" lon="6.63575">
        <ele>2304</ele>
        <time>2022-07-26T13:52:14Z</time>
      </trkpt>
      <trkpt lat="45.6339" lon="6.63574">
        <ele>2304</ele>
        <time>2022-07-26T13:52:15Z</time>
      </trkpt>
      <trkpt lat="45.6339" lon="6.63572">
        <ele>2304</ele>
        <time>2022-07-26T13:52:16Z</time>
      </trkpt>
      <trkpt lat="45.63389" lon="6.63571">
        <ele>2304</ele>
        <time>2022-07-26T13:52:17Z</time>
      </trkpt>
      <trkpt lat="45.63389" lon="6.6357">
        <ele>2304</ele>
        <time>2022-07-26T13:52:18Z</time>
      </trkpt>
      <trkpt lat="45.63388" lon="6.63569">
        <ele>2303</ele>
        <time>2022-07-26T13:52:19Z</time>
      </trkpt>
      <trkpt lat="45.63388" lon="6.63567">
        <ele>2303</ele>
        <time>2022-07-26T13:52:20Z</time>
      </trkpt>
      <trkpt lat="45.63387" lon="6.63566">
        <ele>2303</ele>
        <time>2022-07-26T13:52:21Z</time>
      </trkpt>
      <trkpt lat="45.63387" lon="6.63565">
        <ele>2303</ele>
        <time>2022-07-26T13:52:22Z</time>
      </trkpt>
      <trkpt lat="45.63387" lon="6.63563">
        <ele>2303</ele>
        <time>2022-07-26T13:52:23Z</time>
      </trkpt>
      <trkpt lat="45.63386" lon="6.63562">
        <ele>2302</ele>
        <time>2022-07-26T13:52:24Z</time>
      </trkpt>
      <trkpt lat="45.63386" lon="6.63561">
        <ele>2302</ele>
        <time>2022-07-26T13:52:25Z</time>
      </trkpt>
      <trkpt lat="45.63386" lon="6.6356">
        <ele>2302</ele>
        <time>2022-07-26T13:52:26Z</time>
      </trkpt>
      <trkpt lat="45.63385" lon="6.63559">
        <ele>2302</ele>
        <time>2022-07-26T13:52:27Z</time>
      </trkpt>
      <trkpt lat="45.63385" lon="6.63558">
        <ele>2302</ele>
        <time>2022-07-26T13:52:28Z</time>
      </trkpt>
      <trkpt lat="45.63385" lon="6.63556">
        <ele>2302</ele>
        <time>2022-07-26T13:52:29Z</time>
      </trkpt>
      <trkpt lat="45.63385" lon="6.63555">
        <ele>2302</ele>
        <time>2022-07-26T13:52:30Z</time>
      </trkpt>
      <trkpt lat="45.63386" lon="6.63554">
        <ele>2302</ele>
        <time>2022-07-26T13:52:31Z</time>
      </trkpt>
      <trkpt lat="45.63386" lon="6.63552">
        <ele>2302</ele>
        <time>2022-07-26T13:52:32Z</time>
      </trkpt>
      <trkpt lat="45.63386" lon="6.63551">
        <ele>2302</ele>
        <time>2022-07-26T13:52:33Z</time>
      </trkpt>
      <trkpt lat="45.63386" lon="6.6355">
        <ele>2302</ele>
        <time>2022-07-26T13:52:34Z</time>
      </trkpt>
      <trkpt lat="45.63386" lon="6.63548">
        <ele>2302</ele>
        <time>2022-07-26T13:52:35Z</time>
      </trkpt>
      <trkpt lat="45.63386" lon="6.63547">
        <ele>2302</ele>
        <time>2022-07-26T13:52:46Z</time>
      </trkpt>
      <trkpt lat="45.63385" lon="6.63547">
        <ele>2302</ele>
        <time>2022-07-26T13:52:47Z</time>
      </trkpt>
      <trkpt lat="45.63385" lon="6.63546">
        <ele>2302</ele>
        <time>2022-07-26T13:52:48Z</time>
      </trkpt>
      <trkpt lat="45.63385" lon="6.63545">
        <ele>2302</ele>
        <time>2022-07-26T13:52:49Z</time>
      </trkpt>
      <trkpt lat="45.63385" lon="6.63544">
        <ele>2302</ele>
        <time>2022-07-26T13:52:50Z</time>
      </trkpt>
      <trkpt lat="45.63384" lon="6.63543">
        <ele>2302</ele>
        <time>2022-07-26T13:52:51Z</time>
      </trkpt>
      <trkpt lat="45.63384" lon="6.63541">
        <ele>2302</ele>
        <time>2022-07-26T13:52:52Z</time>
      </trkpt>
      <trkpt lat="45.63384" lon="6.6354">
        <ele>2302</ele>
        <time>2022-07-26T13:52:53Z</time>
      </trkpt>
      <trkpt lat="45.63384" lon="6.63538">
        <ele>2302</ele>
        <time>2022-07-26T13:52:54Z</time>
      </trkpt>
      <trkpt lat="45.63384" lon="6.63536">
        <ele>2302</ele>
        <time>2022-07-26T13:52:55Z</time>
      </trkpt>
      <trkpt lat="45.63383" lon="6.63535">
        <ele>2302</ele>
        <time>2022-07-26T13:52:56Z</time>
      </trkpt>
      <trkpt lat="45.63383" lon="6.63533">
        <ele>2302</ele>
        <time>2022-07-26T13:52:57Z</time>
      </trkpt>
      <trkpt lat="45.63383" lon="6.63532">
        <ele>2302</ele>
        <time>2022-07-26T13:52:58Z</time>
      </trkpt>
      <trkpt lat="45.63382" lon="6.63531">
        <ele>2302</ele>
        <time>2022-07-26T13:52:59Z</time>
      </trkpt>
      <trkpt lat="45.63382" lon="6.63529">
        <ele>2302</ele>
        <time>2022-07-26T13:53:00Z</time>
      </trkpt>
      <trkpt lat="45.63381" lon="6.63528">
        <ele>2302</ele>
        <time>2022-07-26T13:53:01Z</time>
      </trkpt>
      <trkpt lat="45.63381" lon="6.63527">
        <ele>2302</ele>
        <time>2022-07-26T13:53:02Z</time>
      </trkpt>
      <trkpt lat="45.63381" lon="6.63526">
        <ele>2302</ele>
        <time>2022-07-26T13:53:03Z</time>
      </trkpt>
      <trkpt lat="45.6338" lon="6.63525">
        <ele>2302</ele>
        <time>2022-07-26T13:53:04Z</time>
      </trkpt>
      <trkpt lat="45.6338" lon="6.63523">
        <ele>2302</ele>
        <time>2022-07-26T13:53:05Z</time>
      </trkpt>
      <trkpt lat="45.6338" lon="6.63522">
        <ele>2302</ele>
        <time>2022-07-26T13:53:06Z</time>
      </trkpt>
      <trkpt lat="45.63381" lon="6.63521">
        <ele>2302</ele>
        <time>2022-07-26T13:53:07Z</time>
      </trkpt>
      <trkpt lat="45.63381" lon="6.63519">
        <ele>2302</ele>
        <time>2022-07-26T13:53:08Z</time>
      </trkpt>
      <trkpt lat="45.63381" lon="6.63518">
        <ele>2302</ele>
        <time>2022-07-26T13:53:09Z</time>
      </trkpt>
      <trkpt lat="45.63382" lon="6.63517">
        <ele>2302</ele>
        <time>2022-07-26T13:53:10Z</time>
      </trkpt>
      <trkpt lat="45.63382" lon="6.63515">
        <ele>2302</ele>
        <time>2022-07-26T13:53:11Z</time>
      </trkpt>
      <trkpt lat="45.63382" lon="6.63514">
        <ele>2302</ele>
        <time>2022-07-26T13:53:12Z</time>
      </trkpt>
      <trkpt lat="45.63382" lon="6.63513">
        <ele>2302</ele>
        <time>2022-07-26T13:53:13Z</time>
      </trkpt>
      <trkpt lat="45.63382" lon="6.63512">
        <ele>2302</ele>
        <time>2022-07-26T13:53:14Z</time>
      </trkpt>
      <trkpt lat="45.63381" lon="6.63511">
        <ele>2302</ele>
        <time>2022-07-26T13:53:15Z</time>
      </trkpt>
      <trkpt lat="45.63381" lon="6.6351">
        <ele>2302</ele>
        <time>2022-07-26T13:53:16Z</time>
      </trkpt>
      <trkpt lat="45.63381" lon="6.63509">
        <ele>2302</ele>
        <time>2022-07-26T13:53:17Z</time>
      </trkpt>
      <trkpt lat="45.6338" lon="6.63508">
        <ele>2302</ele>
        <time>2022-07-26T13:53:18Z</time>
      </trkpt>
      <trkpt lat="45.6338" lon="6.63508">
        <ele>2301</ele>
        <time>2022-07-26T13:53:19Z</time>
      </trkpt>
      <trkpt lat="45.63379" lon="6.63508">
        <ele>2301</ele>
        <time>2022-07-26T13:53:20Z</time>
      </trkpt>
      <trkpt lat="45.63379" lon="6.63508">
        <ele>2301</ele>
        <time>2022-07-26T13:53:21Z</time>
      </trkpt>
      <trkpt lat="45.63378" lon="6.63508">
        <ele>2301</ele>
        <time>2022-07-26T13:53:22Z</time>
      </trkpt>
      <trkpt lat="45.63378" lon="6.63507">
        <ele>2301</ele>
        <time>2022-07-26T13:53:23Z</time>
      </trkpt>
      <trkpt lat="45.63377" lon="6.63507">
        <ele>2301</ele>
        <time>2022-07-26T13:53:24Z</time>
      </trkpt>
      <trkpt lat="45.63377" lon="6.63507">
        <ele>2301</ele>
        <time>2022-07-26T13:53:25Z</time>
      </trkpt>
      <trkpt lat="45.63376" lon="6.63506">
        <ele>2301</ele>
        <time>2022-07-26T13:53:26Z</time>
      </trkpt>
      <trkpt lat="45.63376" lon="6.63506">
        <ele>2301</ele>
        <time>2022-07-26T13:53:27Z</time>
      </trkpt>
      <trkpt lat="45.63376" lon="6.63505">
        <ele>2302</ele>
        <time>2022-07-26T13:53:28Z</time>
      </trkpt>
      <trkpt lat="45.63376" lon="6.63505">
        <ele>2302</ele>
        <time>2022-07-26T13:53:29Z</time>
      </trkpt>
      <trkpt lat="45.63376" lon="6.63504">
        <ele>2302</ele>
        <time>2022-07-26T13:53:30Z</time>
      </trkpt>
      <trkpt lat="45.63376" lon="6.63504">
        <ele>2302</ele>
        <time>2022-07-26T13:53:31Z</time>
      </trkpt>
      <trkpt lat="45.63376" lon="6.63504">
        <ele>2302</ele>
        <time>2022-07-26T13:53:32Z</time>
      </trkpt>
      <trkpt lat="45.63376" lon="6.63503">
        <ele>2302</ele>
        <time>2022-07-26T13:53:33Z</time>
      </trkpt>
      <trkpt lat="45.63376" lon="6.63502">
        <ele>2302</ele>
        <time>2022-07-26T13:53:34Z</time>
      </trkpt>
      <trkpt lat="45.63376" lon="6.63501">
        <ele>2302</ele>
        <time>2022-07-26T13:53:35Z</time>
      </trkpt>
      <trkpt lat="45.63376" lon="6.635">
        <ele>2302</ele>
        <time>2022-07-26T13:53:36Z</time>
      </trkpt>
      <trkpt lat="45.63375" lon="6.63499">
        <ele>2302</ele>
        <time>2022-07-26T13:53:37Z</time>
      </trkpt>
      <trkpt lat="45.63375" lon="6.63498">
        <ele>2303</ele>
        <time>2022-07-26T13:53:38Z</time>
      </trkpt>
      <trkpt lat="45.63375" lon="6.63497">
        <ele>2303</ele>
        <time>2022-07-26T13:53:39Z</time>
      </trkpt>
      <trkpt lat="45.63374" lon="6.63496">
        <ele>2303</ele>
        <time>2022-07-26T13:53:40Z</time>
      </trkpt>
      <trkpt lat="45.63374" lon="6.63495">
        <ele>2303</ele>
        <time>2022-07-26T13:53:41Z</time>
      </trkpt>
      <trkpt lat="45.63373" lon="6.63494">
        <ele>2303</ele>
        <time>2022-07-26T13:53:42Z</time>
      </trkpt>
      <trkpt lat="45.63373" lon="6.63493">
        <ele>2303</ele>
        <time>2022-07-26T13:53:43Z</time>
      </trkpt>
      <trkpt lat="45.63372" lon="6.63492">
        <ele>2303</ele>
        <time>2022-07-26T13:53:44Z</time>
      </trkpt>
      <trkpt lat="45.63372" lon="6.63491">
        <ele>2303</ele>
        <time>2022-07-26T13:53:45Z</time>
      </trkpt>
      <trkpt lat="45.63371" lon="6.6349">
        <ele>2303</ele>
        <time>2022-07-26T13:53:46Z</time>
      </trkpt>
      <trkpt lat="45.63371" lon="6.63489">
        <ele>2303</ele>
        <time>2022-07-26T13:53:47Z</time>
      </trkpt>
      <trkpt lat="45.6337" lon="6.63488">
        <ele>2304</ele>
        <time>2022-07-26T13:53:48Z</time>
      </trkpt>
      <trkpt lat="45.6337" lon="6.63487">
        <ele>2304</ele>
        <time>2022-07-26T13:53:49Z</time>
      </trkpt>
      <trkpt lat="45.6337" lon="6.63486">
        <ele>2304</ele>
        <time>2022-07-26T13:53:50Z</time>
      </trkpt>
      <trkpt lat="45.6337" lon="6.63485">
        <ele>2304</ele>
        <time>2022-07-26T13:53:51Z</time>
      </trkpt>
      <trkpt lat="45.6337" lon="6.63485">
        <ele>2304</ele>
        <time>2022-07-26T13:53:52Z</time>
      </trkpt>
      <trkpt lat="45.63369" lon="6.63484">
        <ele>2304</ele>
        <time>2022-07-26T13:53:53Z</time>
      </trkpt>
      <trkpt lat="45.63369" lon="6.63484">
        <ele>2304</ele>
        <time>2022-07-26T13:53:54Z</time>
      </trkpt>
      <trkpt lat="45.63369" lon="6.63483">
        <ele>2304</ele>
        <time>2022-07-26T13:53:55Z</time>
      </trkpt>
      <trkpt lat="45.63368" lon="6.63482">
        <ele>2304</ele>
        <time>2022-07-26T13:53:56Z</time>
      </trkpt>
      <trkpt lat="45.63368" lon="6.63481">
        <ele>2304</ele>
        <time>2022-07-26T13:53:57Z</time>
      </trkpt>
      <trkpt lat="45.63368" lon="6.6348">
        <ele>2305</ele>
        <time>2022-07-26T13:53:58Z</time>
      </trkpt>
      <trkpt lat="45.63368" lon="6.63479">
        <ele>2305</ele>
        <time>2022-07-26T13:53:59Z</time>
      </trkpt>
      <trkpt lat="45.63367" lon="6.63478">
        <ele>2305</ele>
        <time>2022-07-26T13:54:00Z</time>
      </trkpt>
      <trkpt lat="45.63367" lon="6.63477">
        <ele>2305</ele>
        <time>2022-07-26T13:54:01Z</time>
      </trkpt>
      <trkpt lat="45.63367" lon="6.63476">
        <ele>2305</ele>
        <time>2022-07-26T13:54:02Z</time>
      </trkpt>
      <trkpt lat="45.63366" lon="6.63475">
        <ele>2305</ele>
        <time>2022-07-26T13:54:03Z</time>
      </trkpt>
      <trkpt lat="45.63366" lon="6.63473">
        <ele>2305</ele>
        <time>2022-07-26T13:54:04Z</time>
      </trkpt>
      <trkpt lat="45.63366" lon="6.63472">
        <ele>2305</ele>
        <time>2022-07-26T13:54:05Z</time>
      </trkpt>
      <trkpt lat="45.63366" lon="6.63471">
        <ele>2305</ele>
        <time>2022-07-26T13:54:06Z</time>
      </trkpt>
      <trkpt lat="45.63365" lon="6.6347">
        <ele>2305</ele>
        <time>2022-07-26T13:54:07Z</time>
      </trkpt>
      <trkpt lat="45.63365" lon="6.63469">
        <ele>2305</ele>
        <time>2022-07-26T13:54:08Z</time>
      </trkpt>
      <trkpt lat="45.63365" lon="6.63468">
        <ele>2305</ele>
        <time>2022-07-26T13:54:09Z</time>
      </trkpt>
      <trkpt lat="45.63364" lon="6.63467">
        <ele>2305</ele>
        <time>2022-07-26T13:54:10Z</time>
      </trkpt>
      <trkpt lat="45.63364" lon="6.63466">
        <ele>2305</ele>
        <time>2022-07-26T13:54:11Z</time>
      </trkpt>
      <trkpt lat="45.63364" lon="6.63465">
        <ele>2305</ele>
        <time>2022-07-26T13:54:12Z</time>
      </trkpt>
      <trkpt lat="45.63363" lon="6.63464">
        <ele>2305</ele>
        <time>2022-07-26T13:54:13Z</time>
      </trkpt>
      <trkpt lat="45.63363" lon="6.63463">
        <ele>2305</ele>
        <time>2022-07-26T13:54:14Z</time>
      </trkpt>
      <trkpt lat="45.63362" lon="6.63462">
        <ele>2305</ele>
        <time>2022-07-26T13:54:15Z</time>
      </trkpt>
      <trkpt lat="45.63362" lon="6.63461">
        <ele>2305</ele>
        <time>2022-07-26T13:54:16Z</time>
      </trkpt>
      <trkpt lat="45.63362" lon="6.6346">
        <ele>2305</ele>
        <time>2022-07-26T13:54:17Z</time>
      </trkpt>
      <trkpt lat="45.63361" lon="6.63458">
        <ele>2305</ele>
        <time>2022-07-26T13:54:18Z</time>
      </trkpt>
      <trkpt lat="45.63361" lon="6.63457">
        <ele>2305</ele>
        <time>2022-07-26T13:54:19Z</time>
      </trkpt>
      <trkpt lat="45.63361" lon="6.63456">
        <ele>2305</ele>
        <time>2022-07-26T13:54:20Z</time>
      </trkpt>
      <trkpt lat="45.6336" lon="6.63455">
        <ele>2305</ele>
        <time>2022-07-26T13:54:21Z</time>
      </trkpt>
      <trkpt lat="45.6336" lon="6.63453">
        <ele>2305</ele>
        <time>2022-07-26T13:54:22Z</time>
      </trkpt>
      <trkpt lat="45.6336" lon="6.63452">
        <ele>2305</ele>
        <time>2022-07-26T13:54:23Z</time>
      </trkpt>
      <trkpt lat="45.63359" lon="6.63451">
        <ele>2305</ele>
        <time>2022-07-26T13:54:24Z</time>
      </trkpt>
      <trkpt lat="45.63359" lon="6.63449">
        <ele>2305</ele>
        <time>2022-07-26T13:54:25Z</time>
      </trkpt>
      <trkpt lat="45.63358" lon="6.63448">
        <ele>2305</ele>
        <time>2022-07-26T13:54:26Z</time>
      </trkpt>
      <trkpt lat="45.63358" lon="6.63447">
        <ele>2305</ele>
        <time>2022-07-26T13:54:27Z</time>
      </trkpt>
      <trkpt lat="45.63357" lon="6.63446">
        <ele>2305</ele>
        <time>2022-07-26T13:54:28Z</time>
      </trkpt>
      <trkpt lat="45.63357" lon="6.63445">
        <ele>2305</ele>
        <time>2022-07-26T13:54:29Z</time>
      </trkpt>
      <trkpt lat="45.63357" lon="6.63444">
        <ele>2305</ele>
        <time>2022-07-26T13:54:30Z</time>
      </trkpt>
      <trkpt lat="45.63356" lon="6.63442">
        <ele>2305</ele>
        <time>2022-07-26T13:54:31Z</time>
      </trkpt>
      <trkpt lat="45.63356" lon="6.63441">
        <ele>2305</ele>
        <time>2022-07-26T13:54:32Z</time>
      </trkpt>
      <trkpt lat="45.63355" lon="6.6344">
        <ele>2305</ele>
        <time>2022-07-26T13:54:33Z</time>
      </trkpt>
      <trkpt lat="45.63355" lon="6.63439">
        <ele>2305</ele>
        <time>2022-07-26T13:54:34Z</time>
      </trkpt>
      <trkpt lat="45.63355" lon="6.63438">
        <ele>2305</ele>
        <time>2022-07-26T13:54:35Z</time>
      </trkpt>
      <trkpt lat="45.63355" lon="6.63437">
        <ele>2305</ele>
        <time>2022-07-26T13:54:36Z</time>
      </trkpt>
      <trkpt lat="45.63354" lon="6.63436">
        <ele>2305</ele>
        <time>2022-07-26T13:54:37Z</time>
      </trkpt>
      <trkpt lat="45.63354" lon="6.63435">
        <ele>2306</ele>
        <time>2022-07-26T13:54:38Z</time>
      </trkpt>
      <trkpt lat="45.63354" lon="6.63434">
        <ele>2306</ele>
        <time>2022-07-26T13:54:39Z</time>
      </trkpt>
      <trkpt lat="45.63354" lon="6.63433">
        <ele>2306</ele>
        <time>2022-07-26T13:54:40Z</time>
      </trkpt>
      <trkpt lat="45.63354" lon="6.63432">
        <ele>2306</ele>
        <time>2022-07-26T13:54:41Z</time>
      </trkpt>
      <trkpt lat="45.63354" lon="6.63431">
        <ele>2306</ele>
        <time>2022-07-26T13:54:42Z</time>
      </trkpt>
      <trkpt lat="45.63354" lon="6.63429">
        <ele>2306</ele>
        <time>2022-07-26T13:54:43Z</time>
      </trkpt>
      <trkpt lat="45.63353" lon="6.63428">
        <ele>2306</ele>
        <time>2022-07-26T13:54:44Z</time>
      </trkpt>
      <trkpt lat="45.63353" lon="6.63427">
        <ele>2306</ele>
        <time>2022-07-26T13:54:45Z</time>
      </trkpt>
      <trkpt lat="45.63352" lon="6.63426">
        <ele>2306</ele>
        <time>2022-07-26T13:54:46Z</time>
      </trkpt>
      <trkpt lat="45.63352" lon="6.63425">
        <ele>2306</ele>
        <time>2022-07-26T13:54:47Z</time>
      </trkpt>
      <trkpt lat="45.63352" lon="6.63424">
        <ele>2307</ele>
        <time>2022-07-26T13:54:48Z</time>
      </trkpt>
      <trkpt lat="45.63351" lon="6.63423">
        <ele>2306</ele>
        <time>2022-07-26T13:54:49Z</time>
      </trkpt>
      <trkpt lat="45.63351" lon="6.63422">
        <ele>2306</ele>
        <time>2022-07-26T13:54:50Z</time>
      </trkpt>
      <trkpt lat="45.63351" lon="6.6342">
        <ele>2306</ele>
        <time>2022-07-26T13:54:51Z</time>
      </trkpt>
      <trkpt lat="45.63351" lon="6.63419">
        <ele>2306</ele>
        <time>2022-07-26T13:54:52Z</time>
      </trkpt>
      <trkpt lat="45.63351" lon="6.63418">
        <ele>2306</ele>
        <time>2022-07-26T13:54:53Z</time>
      </trkpt>
      <trkpt lat="45.63351" lon="6.63417">
        <ele>2306</ele>
        <time>2022-07-26T13:54:54Z</time>
      </trkpt>
      <trkpt lat="45.63351" lon="6.63416">
        <ele>2306</ele>
        <time>2022-07-26T13:54:55Z</time>
      </trkpt>
      <trkpt lat="45.63351" lon="6.63414">
        <ele>2306</ele>
        <time>2022-07-26T13:54:56Z</time>
      </trkpt>
      <trkpt lat="45.63351" lon="6.63413">
        <ele>2306</ele>
        <time>2022-07-26T13:54:57Z</time>
      </trkpt>
      <trkpt lat="45.63351" lon="6.63412">
        <ele>2307</ele>
        <time>2022-07-26T13:54:58Z</time>
      </trkpt>
      <trkpt lat="45.63351" lon="6.63411">
        <ele>2307</ele>
        <time>2022-07-26T13:54:59Z</time>
      </trkpt>
      <trkpt lat="45.6335" lon="6.63409">
        <ele>2307</ele>
        <time>2022-07-26T13:55:00Z</time>
      </trkpt>
      <trkpt lat="45.6335" lon="6.63408">
        <ele>2307</ele>
        <time>2022-07-26T13:55:01Z</time>
      </trkpt>
      <trkpt lat="45.6335" lon="6.63407">
        <ele>2307</ele>
        <time>2022-07-26T13:55:02Z</time>
      </trkpt>
      <trkpt lat="45.6335" lon="6.63406">
        <ele>2307</ele>
        <time>2022-07-26T13:55:03Z</time>
      </trkpt>
      <trkpt lat="45.6335" lon="6.63405">
        <ele>2306</ele>
        <time>2022-07-26T13:55:04Z</time>
      </trkpt>
      <trkpt lat="45.6335" lon="6.63403">
        <ele>2306</ele>
        <time>2022-07-26T13:55:05Z</time>
      </trkpt>
      <trkpt lat="45.63349" lon="6.63402">
        <ele>2306</ele>
        <time>2022-07-26T13:55:06Z</time>
      </trkpt>
      <trkpt lat="45.63349" lon="6.63401">
        <ele>2306</ele>
        <time>2022-07-26T13:55:07Z</time>
      </trkpt>
      <trkpt lat="45.63348" lon="6.63399">
        <ele>2306</ele>
        <time>2022-07-26T13:55:08Z</time>
      </trkpt>
      <trkpt lat="45.63348" lon="6.63398">
        <ele>2306</ele>
        <time>2022-07-26T13:55:09Z</time>
      </trkpt>
      <trkpt lat="45.63347" lon="6.63397">
        <ele>2306</ele>
        <time>2022-07-26T13:55:10Z</time>
      </trkpt>
      <trkpt lat="45.63347" lon="6.63396">
        <ele>2306</ele>
        <time>2022-07-26T13:55:11Z</time>
      </trkpt>
      <trkpt lat="45.63346" lon="6.63394">
        <ele>2306</ele>
        <time>2022-07-26T13:55:12Z</time>
      </trkpt>
      <trkpt lat="45.63346" lon="6.63393">
        <ele>2306</ele>
        <time>2022-07-26T13:55:13Z</time>
      </trkpt>
      <trkpt lat="45.63345" lon="6.63391">
        <ele>2306</ele>
        <time>2022-07-26T13:55:14Z</time>
      </trkpt>
      <trkpt lat="45.63345" lon="6.6339">
        <ele>2306</ele>
        <time>2022-07-26T13:55:15Z</time>
      </trkpt>
      <trkpt lat="45.63344" lon="6.63389">
        <ele>2306</ele>
        <time>2022-07-26T13:55:16Z</time>
      </trkpt>
      <trkpt lat="45.63344" lon="6.63388">
        <ele>2306</ele>
        <time>2022-07-26T13:55:17Z</time>
      </trkpt>
      <trkpt lat="45.63344" lon="6.63387">
        <ele>2306</ele>
        <time>2022-07-26T13:55:18Z</time>
      </trkpt>
      <trkpt lat="45.63343" lon="6.63386">
        <ele>2305</ele>
        <time>2022-07-26T13:55:19Z</time>
      </trkpt>
      <trkpt lat="45.63343" lon="6.63385">
        <ele>2305</ele>
        <time>2022-07-26T13:55:20Z</time>
      </trkpt>
      <trkpt lat="45.63343" lon="6.63384">
        <ele>2305</ele>
        <time>2022-07-26T13:55:21Z</time>
      </trkpt>
      <trkpt lat="45.63342" lon="6.63383">
        <ele>2305</ele>
        <time>2022-07-26T13:55:22Z</time>
      </trkpt>
      <trkpt lat="45.63342" lon="6.63382">
        <ele>2305</ele>
        <time>2022-07-26T13:55:23Z</time>
      </trkpt>
      <trkpt lat="45.63342" lon="6.63381">
        <ele>2305</ele>
        <time>2022-07-26T13:55:24Z</time>
      </trkpt>
      <trkpt lat="45.63341" lon="6.63381">
        <ele>2305</ele>
        <time>2022-07-26T13:55:25Z</time>
      </trkpt>
      <trkpt lat="45.63341" lon="6.6338">
        <ele>2305</ele>
        <time>2022-07-26T13:55:26Z</time>
      </trkpt>
      <trkpt lat="45.6334" lon="6.63377">
        <ele>2305</ele>
        <time>2022-07-26T13:56:19Z</time>
      </trkpt>
      <trkpt lat="45.63339" lon="6.63375">
        <ele>2305</ele>
        <time>2022-07-26T13:56:20Z</time>
      </trkpt>
      <trkpt lat="45.63338" lon="6.63373">
        <ele>2305</ele>
        <time>2022-07-26T13:56:21Z</time>
      </trkpt>
      <trkpt lat="45.63337" lon="6.63372">
        <ele>2305</ele>
        <time>2022-07-26T13:56:22Z</time>
      </trkpt>
      <trkpt lat="45.63337" lon="6.63371">
        <ele>2306</ele>
        <time>2022-07-26T13:56:23Z</time>
      </trkpt>
      <trkpt lat="45.63336" lon="6.6337">
        <ele>2305</ele>
        <time>2022-07-26T13:56:24Z</time>
      </trkpt>
      <trkpt lat="45.63335" lon="6.63369">
        <ele>2305</ele>
        <time>2022-07-26T13:56:25Z</time>
      </trkpt>
      <trkpt lat="45.63335" lon="6.63369">
        <ele>2305</ele>
        <time>2022-07-26T13:56:26Z</time>
      </trkpt>
      <trkpt lat="45.63334" lon="6.63368">
        <ele>2305</ele>
        <time>2022-07-26T13:56:27Z</time>
      </trkpt>
      <trkpt lat="45.63333" lon="6.63367">
        <ele>2305</ele>
        <time>2022-07-26T13:56:28Z</time>
      </trkpt>
      <trkpt lat="45.63333" lon="6.63366">
        <ele>2305</ele>
        <time>2022-07-26T13:56:29Z</time>
      </trkpt>
      <trkpt lat="45.63332" lon="6.63365">
        <ele>2305</ele>
        <time>2022-07-26T13:56:30Z</time>
      </trkpt>
      <trkpt lat="45.63331" lon="6.63364">
        <ele>2305</ele>
        <time>2022-07-26T13:56:31Z</time>
      </trkpt>
      <trkpt lat="45.63331" lon="6.63363">
        <ele>2305</ele>
        <time>2022-07-26T13:56:32Z</time>
      </trkpt>
      <trkpt lat="45.6333" lon="6.63362">
        <ele>2305</ele>
        <time>2022-07-26T13:56:33Z</time>
      </trkpt>
      <trkpt lat="45.6333" lon="6.63361">
        <ele>2305</ele>
        <time>2022-07-26T13:56:34Z</time>
      </trkpt>
      <trkpt lat="45.63329" lon="6.63361">
        <ele>2305</ele>
        <time>2022-07-26T13:56:35Z</time>
      </trkpt>
      <trkpt lat="45.63329" lon="6.6336">
        <ele>2305</ele>
        <time>2022-07-26T13:56:36Z</time>
      </trkpt>
      <trkpt lat="45.63328" lon="6.63359">
        <ele>2305</ele>
        <time>2022-07-26T13:56:37Z</time>
      </trkpt>
      <trkpt lat="45.63328" lon="6.63358">
        <ele>2305</ele>
        <time>2022-07-26T13:56:38Z</time>
      </trkpt>
      <trkpt lat="45.63327" lon="6.63357">
        <ele>2305</ele>
        <time>2022-07-26T13:56:39Z</time>
      </trkpt>
      <trkpt lat="45.63326" lon="6.63356">
        <ele>2305</ele>
        <time>2022-07-26T13:56:40Z</time>
      </trkpt>
      <trkpt lat="45.63326" lon="6.63355">
        <ele>2305</ele>
        <time>2022-07-26T13:56:41Z</time>
      </trkpt>
      <trkpt lat="45.63326" lon="6.63354">
        <ele>2305</ele>
        <time>2022-07-26T13:56:42Z</time>
      </trkpt>
      <trkpt lat="45.63325" lon="6.63353">
        <ele>2305</ele>
        <time>2022-07-26T13:56:43Z</time>
      </trkpt>
      <trkpt lat="45.63325" lon="6.63352">
        <ele>2305</ele>
        <time>2022-07-26T13:56:44Z</time>
      </trkpt>
      <trkpt lat="45.63325" lon="6.6335">
        <ele>2305</ele>
        <time>2022-07-26T13:56:45Z</time>
      </trkpt>
      <trkpt lat="45.63325" lon="6.63349">
        <ele>2305</ele>
        <time>2022-07-26T13:56:46Z</time>
      </trkpt>
      <trkpt lat="45.63324" lon="6.63348">
        <ele>2305</ele>
        <time>2022-07-26T13:56:47Z</time>
      </trkpt>
      <trkpt lat="45.63324" lon="6.63347">
        <ele>2305</ele>
        <time>2022-07-26T13:56:48Z</time>
      </trkpt>
      <trkpt lat="45.63324" lon="6.63346">
        <ele>2305</ele>
        <time>2022-07-26T13:56:49Z</time>
      </trkpt>
      <trkpt lat="45.63323" lon="6.63345">
        <ele>2305</ele>
        <time>2022-07-26T13:56:50Z</time>
      </trkpt>
      <trkpt lat="45.63323" lon="6.63343">
        <ele>2305</ele>
        <time>2022-07-26T13:56:51Z</time>
      </trkpt>
      <trkpt lat="45.63323" lon="6.63342">
        <ele>2305</ele>
        <time>2022-07-26T13:56:52Z</time>
      </trkpt>
      <trkpt lat="45.63322" lon="6.63341">
        <ele>2305</ele>
        <time>2022-07-26T13:56:53Z</time>
      </trkpt>
      <trkpt lat="45.63322" lon="6.6334">
        <ele>2305</ele>
        <time>2022-07-26T13:56:54Z</time>
      </trkpt>
      <trkpt lat="45.63321" lon="6.63339">
        <ele>2305</ele>
        <time>2022-07-26T13:56:55Z</time>
      </trkpt>
      <trkpt lat="45.63321" lon="6.63338">
        <ele>2305</ele>
        <time>2022-07-26T13:56:56Z</time>
      </trkpt>
      <trkpt lat="45.6332" lon="6.63338">
        <ele>2305</ele>
        <time>2022-07-26T13:56:57Z</time>
      </trkpt>
      <trkpt lat="45.6332" lon="6.63337">
        <ele>2305</ele>
        <time>2022-07-26T13:56:58Z</time>
      </trkpt>
      <trkpt lat="45.6332" lon="6.63336">
        <ele>2305</ele>
        <time>2022-07-26T13:56:59Z</time>
      </trkpt>
      <trkpt lat="45.63319" lon="6.63335">
        <ele>2305</ele>
        <time>2022-07-26T13:57:00Z</time>
      </trkpt>
      <trkpt lat="45.63319" lon="6.63334">
        <ele>2305</ele>
        <time>2022-07-26T13:57:01Z</time>
      </trkpt>
      <trkpt lat="45.63318" lon="6.63333">
        <ele>2305</ele>
        <time>2022-07-26T13:57:02Z</time>
      </trkpt>
      <trkpt lat="45.63318" lon="6.63332">
        <ele>2305</ele>
        <time>2022-07-26T13:57:03Z</time>
      </trkpt>
      <trkpt lat="45.63317" lon="6.63331">
        <ele>2305</ele>
        <time>2022-07-26T13:57:04Z</time>
      </trkpt>
      <trkpt lat="45.63317" lon="6.6333">
        <ele>2305</ele>
        <time>2022-07-26T13:57:05Z</time>
      </trkpt>
      <trkpt lat="45.63317" lon="6.6333">
        <ele>2305</ele>
        <time>2022-07-26T13:57:06Z</time>
      </trkpt>
      <trkpt lat="45.63316" lon="6.63329">
        <ele>2305</ele>
        <time>2022-07-26T13:57:07Z</time>
      </trkpt>
      <trkpt lat="45.63316" lon="6.63328">
        <ele>2305</ele>
        <time>2022-07-26T13:57:08Z</time>
      </trkpt>
      <trkpt lat="45.63315" lon="6.63327">
        <ele>2305</ele>
        <time>2022-07-26T13:57:09Z</time>
      </trkpt>
      <trkpt lat="45.63315" lon="6.63327">
        <ele>2305</ele>
        <time>2022-07-26T13:57:10Z</time>
      </trkpt>
      <trkpt lat="45.63314" lon="6.63326">
        <ele>2305</ele>
        <time>2022-07-26T13:57:11Z</time>
      </trkpt>
      <trkpt lat="45.63314" lon="6.63326">
        <ele>2305</ele>
        <time>2022-07-26T13:57:12Z</time>
      </trkpt>
      <trkpt lat="45.63313" lon="6.63325">
        <ele>2305</ele>
        <time>2022-07-26T13:57:13Z</time>
      </trkpt>
      <trkpt lat="45.63313" lon="6.63325">
        <ele>2305</ele>
        <time>2022-07-26T13:57:14Z</time>
      </trkpt>
      <trkpt lat="45.63312" lon="6.63324">
        <ele>2305</ele>
        <time>2022-07-26T13:57:15Z</time>
      </trkpt>
      <trkpt lat="45.63312" lon="6.63323">
        <ele>2305</ele>
        <time>2022-07-26T13:57:16Z</time>
      </trkpt>
      <trkpt lat="45.63312" lon="6.63322">
        <ele>2305</ele>
        <time>2022-07-26T13:57:17Z</time>
      </trkpt>
      <trkpt lat="45.63311" lon="6.63321">
        <ele>2305</ele>
        <time>2022-07-26T13:57:18Z</time>
      </trkpt>
      <trkpt lat="45.63311" lon="6.6332">
        <ele>2305</ele>
        <time>2022-07-26T13:57:19Z</time>
      </trkpt>
      <trkpt lat="45.6331" lon="6.6332">
        <ele>2305</ele>
        <time>2022-07-26T13:57:20Z</time>
      </trkpt>
      <trkpt lat="45.6331" lon="6.63319">
        <ele>2305</ele>
        <time>2022-07-26T13:57:21Z</time>
      </trkpt>
      <trkpt lat="45.6331" lon="6.63319">
        <ele>2305</ele>
        <time>2022-07-26T13:57:22Z</time>
      </trkpt>
      <trkpt lat="45.6331" lon="6.63319">
        <ele>2305</ele>
        <time>2022-07-26T13:57:23Z</time>
      </trkpt>
      <trkpt lat="45.6331" lon="6.63318">
        <ele>2305</ele>
        <time>2022-07-26T13:57:24Z</time>
      </trkpt>
      <trkpt lat="45.63309" lon="6.63317">
        <ele>2305</ele>
        <time>2022-07-26T13:57:25Z</time>
      </trkpt>
      <trkpt lat="45.63309" lon="6.63317">
        <ele>2305</ele>
        <time>2022-07-26T13:57:26Z</time>
      </trkpt>
      <trkpt lat="45.63308" lon="6.63316">
        <ele>2305</ele>
        <time>2022-07-26T13:57:27Z</time>
      </trkpt>
      <trkpt lat="45.63308" lon="6.63315">
        <ele>2306</ele>
        <time>2022-07-26T13:57:28Z</time>
      </trkpt>
      <trkpt lat="45.63307" lon="6.63314">
        <ele>2306</ele>
        <time>2022-07-26T13:57:29Z</time>
      </trkpt>
      <trkpt lat="45.63307" lon="6.63314">
        <ele>2306</ele>
        <time>2022-07-26T13:57:30Z</time>
      </trkpt>
      <trkpt lat="45.63306" lon="6.63313">
        <ele>2306</ele>
        <time>2022-07-26T13:57:31Z</time>
      </trkpt>
      <trkpt lat="45.63306" lon="6.63312">
        <ele>2306</ele>
        <time>2022-07-26T13:57:32Z</time>
      </trkpt>
      <trkpt lat="45.63305" lon="6.63311">
        <ele>2306</ele>
        <time>2022-07-26T13:57:33Z</time>
      </trkpt>
      <trkpt lat="45.63305" lon="6.6331">
        <ele>2306</ele>
        <time>2022-07-26T13:57:34Z</time>
      </trkpt>
      <trkpt lat="45.63304" lon="6.63309">
        <ele>2306</ele>
        <time>2022-07-26T13:57:35Z</time>
      </trkpt>
      <trkpt lat="45.63304" lon="6.63309">
        <ele>2306</ele>
        <time>2022-07-26T13:57:36Z</time>
      </trkpt>
      <trkpt lat="45.63303" lon="6.63308">
        <ele>2306</ele>
        <time>2022-07-26T13:57:37Z</time>
      </trkpt>
      <trkpt lat="45.63303" lon="6.63307">
        <ele>2306</ele>
        <time>2022-07-26T13:57:38Z</time>
      </trkpt>
      <trkpt lat="45.63302" lon="6.63306">
        <ele>2306</ele>
        <time>2022-07-26T13:57:39Z</time>
      </trkpt>
      <trkpt lat="45.63302" lon="6.63306">
        <ele>2306</ele>
        <time>2022-07-26T13:57:40Z</time>
      </trkpt>
      <trkpt lat="45.63302" lon="6.63305">
        <ele>2306</ele>
        <time>2022-07-26T13:57:41Z</time>
      </trkpt>
      <trkpt lat="45.63301" lon="6.63304">
        <ele>2306</ele>
        <time>2022-07-26T13:57:42Z</time>
      </trkpt>
      <trkpt lat="45.63301" lon="6.63303">
        <ele>2307</ele>
        <time>2022-07-26T13:57:43Z</time>
      </trkpt>
      <trkpt lat="45.63301" lon="6.63302">
        <ele>2307</ele>
        <time>2022-07-26T13:57:44Z</time>
      </trkpt>
      <trkpt lat="45.633" lon="6.63302">
        <ele>2307</ele>
        <time>2022-07-26T13:57:45Z</time>
      </trkpt>
      <trkpt lat="45.633" lon="6.63301">
        <ele>2307</ele>
        <time>2022-07-26T13:57:46Z</time>
      </trkpt>
      <trkpt lat="45.633" lon="6.633">
        <ele>2307</ele>
        <time>2022-07-26T13:57:47Z</time>
      </trkpt>
      <trkpt lat="45.633" lon="6.63299">
        <ele>2308</ele>
        <time>2022-07-26T13:57:48Z</time>
      </trkpt>
      <trkpt lat="45.63299" lon="6.63298">
        <ele>2308</ele>
        <time>2022-07-26T13:57:49Z</time>
      </trkpt>
      <trkpt lat="45.63299" lon="6.63297">
        <ele>2308</ele>
        <time>2022-07-26T13:57:50Z</time>
      </trkpt>
      <trkpt lat="45.63299" lon="6.63297">
        <ele>2308</ele>
        <time>2022-07-26T13:57:51Z</time>
      </trkpt>
      <trkpt lat="45.63298" lon="6.63296">
        <ele>2308</ele>
        <time>2022-07-26T13:57:52Z</time>
      </trkpt>
      <trkpt lat="45.63298" lon="6.63295">
        <ele>2309</ele>
        <time>2022-07-26T13:57:53Z</time>
      </trkpt>
      <trkpt lat="45.63297" lon="6.63295">
        <ele>2309</ele>
        <time>2022-07-26T13:57:54Z</time>
      </trkpt>
      <trkpt lat="45.63297" lon="6.63294">
        <ele>2309</ele>
        <time>2022-07-26T13:57:55Z</time>
      </trkpt>
      <trkpt lat="45.63296" lon="6.63294">
        <ele>2309</ele>
        <time>2022-07-26T13:57:56Z</time>
      </trkpt>
      <trkpt lat="45.63296" lon="6.63293">
        <ele>2309</ele>
        <time>2022-07-26T13:57:57Z</time>
      </trkpt>
      <trkpt lat="45.63295" lon="6.63292">
        <ele>2309</ele>
        <time>2022-07-26T13:57:58Z</time>
      </trkpt>
      <trkpt lat="45.63294" lon="6.63292">
        <ele>2309</ele>
        <time>2022-07-26T13:57:59Z</time>
      </trkpt>
      <trkpt lat="45.63294" lon="6.63291">
        <ele>2309</ele>
        <time>2022-07-26T13:58:00Z</time>
      </trkpt>
      <trkpt lat="45.63293" lon="6.63289">
        <ele>2309</ele>
        <time>2022-07-26T13:58:01Z</time>
      </trkpt>
      <trkpt lat="45.63293" lon="6.63288">
        <ele>2309</ele>
        <time>2022-07-26T13:58:02Z</time>
      </trkpt>
      <trkpt lat="45.63292" lon="6.63287">
        <ele>2310</ele>
        <time>2022-07-26T13:58:03Z</time>
      </trkpt>
      <trkpt lat="45.63292" lon="6.63286">
        <ele>2310</ele>
        <time>2022-07-26T13:58:04Z</time>
      </trkpt>
      <trkpt lat="45.63292" lon="6.63285">
        <ele>2310</ele>
        <time>2022-07-26T13:58:05Z</time>
      </trkpt>
      <trkpt lat="45.63291" lon="6.63284">
        <ele>2310</ele>
        <time>2022-07-26T13:58:06Z</time>
      </trkpt>
      <trkpt lat="45.63291" lon="6.63283">
        <ele>2310</ele>
        <time>2022-07-26T13:58:07Z</time>
      </trkpt>
      <trkpt lat="45.6329" lon="6.63282">
        <ele>2311</ele>
        <time>2022-07-26T13:58:08Z</time>
      </trkpt>
      <trkpt lat="45.6329" lon="6.63281">
        <ele>2311</ele>
        <time>2022-07-26T13:58:09Z</time>
      </trkpt>
      <trkpt lat="45.63289" lon="6.6328">
        <ele>2311</ele>
        <time>2022-07-26T13:58:10Z</time>
      </trkpt>
      <trkpt lat="45.63288" lon="6.63279">
        <ele>2311</ele>
        <time>2022-07-26T13:58:11Z</time>
      </trkpt>
      <trkpt lat="45.63288" lon="6.63278">
        <ele>2311</ele>
        <time>2022-07-26T13:58:12Z</time>
      </trkpt>
      <trkpt lat="45.63287" lon="6.63276">
        <ele>2311</ele>
        <time>2022-07-26T13:58:13Z</time>
      </trkpt>
      <trkpt lat="45.63287" lon="6.63275">
        <ele>2311</ele>
        <time>2022-07-26T13:58:14Z</time>
      </trkpt>
      <trkpt lat="45.63287" lon="6.63274">
        <ele>2311</ele>
        <time>2022-07-26T13:58:15Z</time>
      </trkpt>
      <trkpt lat="45.63286" lon="6.63273">
        <ele>2312</ele>
        <time>2022-07-26T13:58:16Z</time>
      </trkpt>
      <trkpt lat="45.63286" lon="6.63273">
        <ele>2312</ele>
        <time>2022-07-26T13:58:17Z</time>
      </trkpt>
      <trkpt lat="45.63286" lon="6.63272">
        <ele>2313</ele>
        <time>2022-07-26T13:58:18Z</time>
      </trkpt>
      <trkpt lat="45.63285" lon="6.63271">
        <ele>2313</ele>
        <time>2022-07-26T13:58:19Z</time>
      </trkpt>
      <trkpt lat="45.63285" lon="6.6327">
        <ele>2313</ele>
        <time>2022-07-26T13:58:20Z</time>
      </trkpt>
      <trkpt lat="45.63285" lon="6.63269">
        <ele>2313</ele>
        <time>2022-07-26T13:58:21Z</time>
      </trkpt>
      <trkpt lat="45.63284" lon="6.63268">
        <ele>2313</ele>
        <time>2022-07-26T13:58:22Z</time>
      </trkpt>
      <trkpt lat="45.63284" lon="6.63267">
        <ele>2313</ele>
        <time>2022-07-26T13:58:23Z</time>
      </trkpt>
      <trkpt lat="45.63284" lon="6.63266">
        <ele>2313</ele>
        <time>2022-07-26T13:58:24Z</time>
      </trkpt>
      <trkpt lat="45.63283" lon="6.63265">
        <ele>2313</ele>
        <time>2022-07-26T13:58:25Z</time>
      </trkpt>
      <trkpt lat="45.63283" lon="6.63264">
        <ele>2313</ele>
        <time>2022-07-26T13:58:26Z</time>
      </trkpt>
      <trkpt lat="45.63282" lon="6.63263">
        <ele>2313</ele>
        <time>2022-07-26T13:58:27Z</time>
      </trkpt>
      <trkpt lat="45.63282" lon="6.63262">
        <ele>2313</ele>
        <time>2022-07-26T13:58:28Z</time>
      </trkpt>
      <trkpt lat="45.63282" lon="6.63261">
        <ele>2313</ele>
        <time>2022-07-26T13:58:29Z</time>
      </trkpt>
      <trkpt lat="45.63281" lon="6.63261">
        <ele>2313</ele>
        <time>2022-07-26T13:58:30Z</time>
      </trkpt>
      <trkpt lat="45.63281" lon="6.6326">
        <ele>2313</ele>
        <time>2022-07-26T13:58:31Z</time>
      </trkpt>
      <trkpt lat="45.63281" lon="6.6326">
        <ele>2313</ele>
        <time>2022-07-26T13:58:32Z</time>
      </trkpt>
      <trkpt lat="45.63278" lon="6.63256">
        <ele>2318</ele>
        <time>2022-07-26T13:58:58Z</time>
      </trkpt>
      <trkpt lat="45.63277" lon="6.63254">
        <ele>2318</ele>
        <time>2022-07-26T13:58:59Z</time>
      </trkpt>
      <trkpt lat="45.63276" lon="6.63252">
        <ele>2318</ele>
        <time>2022-07-26T13:59:00Z</time>
      </trkpt>
      <trkpt lat="45.63275" lon="6.63251">
        <ele>2318</ele>
        <time>2022-07-26T13:59:01Z</time>
      </trkpt>
      <trkpt lat="45.63274" lon="6.6325">
        <ele>2318</ele>
        <time>2022-07-26T13:59:02Z</time>
      </trkpt>
      <trkpt lat="45.63273" lon="6.63248">
        <ele>2319</ele>
        <time>2022-07-26T13:59:03Z</time>
      </trkpt>
      <trkpt lat="45.63273" lon="6.63247">
        <ele>2319</ele>
        <time>2022-07-26T13:59:04Z</time>
      </trkpt>
      <trkpt lat="45.63273" lon="6.63246">
        <ele>2319</ele>
        <time>2022-07-26T13:59:05Z</time>
      </trkpt>
      <trkpt lat="45.63273" lon="6.63245">
        <ele>2319</ele>
        <time>2022-07-26T13:59:06Z</time>
      </trkpt>
      <trkpt lat="45.63272" lon="6.63244">
        <ele>2319</ele>
        <time>2022-07-26T13:59:07Z</time>
      </trkpt>
      <trkpt lat="45.63272" lon="6.63243">
        <ele>2320</ele>
        <time>2022-07-26T13:59:08Z</time>
      </trkpt>
      <trkpt lat="45.63272" lon="6.63242">
        <ele>2320</ele>
        <time>2022-07-26T13:59:09Z</time>
      </trkpt>
      <trkpt lat="45.63271" lon="6.63241">
        <ele>2320</ele>
        <time>2022-07-26T13:59:10Z</time>
      </trkpt>
      <trkpt lat="45.63271" lon="6.6324">
        <ele>2320</ele>
        <time>2022-07-26T13:59:11Z</time>
      </trkpt>
      <trkpt lat="45.63271" lon="6.63239">
        <ele>2320</ele>
        <time>2022-07-26T13:59:12Z</time>
      </trkpt>
      <trkpt lat="45.6327" lon="6.63237">
        <ele>2320</ele>
        <time>2022-07-26T13:59:13Z</time>
      </trkpt>
      <trkpt lat="45.6327" lon="6.63236">
        <ele>2320</ele>
        <time>2022-07-26T13:59:14Z</time>
      </trkpt>
      <trkpt lat="45.6327" lon="6.63235">
        <ele>2320</ele>
        <time>2022-07-26T13:59:15Z</time>
      </trkpt>
      <trkpt lat="45.6327" lon="6.63234">
        <ele>2320</ele>
        <time>2022-07-26T13:59:16Z</time>
      </trkpt>
      <trkpt lat="45.63269" lon="6.63233">
        <ele>2320</ele>
        <time>2022-07-26T13:59:17Z</time>
      </trkpt>
      <trkpt lat="45.63269" lon="6.63231">
        <ele>2320</ele>
        <time>2022-07-26T13:59:18Z</time>
      </trkpt>
      <trkpt lat="45.63269" lon="6.6323">
        <ele>2320</ele>
        <time>2022-07-26T13:59:19Z</time>
      </trkpt>
      <trkpt lat="45.63269" lon="6.63228">
        <ele>2320</ele>
        <time>2022-07-26T13:59:20Z</time>
      </trkpt>
      <trkpt lat="45.63269" lon="6.63227">
        <ele>2320</ele>
        <time>2022-07-26T13:59:21Z</time>
      </trkpt>
      <trkpt lat="45.63268" lon="6.63226">
        <ele>2320</ele>
        <time>2022-07-26T13:59:22Z</time>
      </trkpt>
      <trkpt lat="45.63268" lon="6.63224">
        <ele>2320</ele>
        <time>2022-07-26T13:59:23Z</time>
      </trkpt>
      <trkpt lat="45.63268" lon="6.63223">
        <ele>2320</ele>
        <time>2022-07-26T13:59:24Z</time>
      </trkpt>
      <trkpt lat="45.63268" lon="6.63221">
        <ele>2320</ele>
        <time>2022-07-26T13:59:25Z</time>
      </trkpt>
      <trkpt lat="45.63268" lon="6.6322">
        <ele>2320</ele>
        <time>2022-07-26T13:59:26Z</time>
      </trkpt>
      <trkpt lat="45.63268" lon="6.63219">
        <ele>2320</ele>
        <time>2022-07-26T13:59:27Z</time>
      </trkpt>
      <trkpt lat="45.63268" lon="6.63217">
        <ele>2321</ele>
        <time>2022-07-26T13:59:28Z</time>
      </trkpt>
      <trkpt lat="45.63268" lon="6.63216">
        <ele>2321</ele>
        <time>2022-07-26T13:59:29Z</time>
      </trkpt>
      <trkpt lat="45.63268" lon="6.63215">
        <ele>2321</ele>
        <time>2022-07-26T13:59:30Z</time>
      </trkpt>
      <trkpt lat="45.63267" lon="6.63214">
        <ele>2321</ele>
        <time>2022-07-26T13:59:31Z</time>
      </trkpt>
      <trkpt lat="45.63267" lon="6.63212">
        <ele>2321</ele>
        <time>2022-07-26T13:59:32Z</time>
      </trkpt>
      <trkpt lat="45.63267" lon="6.63211">
        <ele>2321</ele>
        <time>2022-07-26T13:59:33Z</time>
      </trkpt>
      <trkpt lat="45.63267" lon="6.63209">
        <ele>2321</ele>
        <time>2022-07-26T13:59:34Z</time>
      </trkpt>
      <trkpt lat="45.63266" lon="6.63208">
        <ele>2321</ele>
        <time>2022-07-26T13:59:35Z</time>
      </trkpt>
      <trkpt lat="45.63266" lon="6.63207">
        <ele>2321</ele>
        <time>2022-07-26T13:59:36Z</time>
      </trkpt>
      <trkpt lat="45.63266" lon="6.63206">
        <ele>2321</ele>
        <time>2022-07-26T13:59:37Z</time>
      </trkpt>
      <trkpt lat="45.63266" lon="6.63205">
        <ele>2321</ele>
        <time>2022-07-26T13:59:38Z</time>
      </trkpt>
      <trkpt lat="45.63265" lon="6.63204">
        <ele>2321</ele>
        <time>2022-07-26T13:59:39Z</time>
      </trkpt>
      <trkpt lat="45.63265" lon="6.63203">
        <ele>2321</ele>
        <time>2022-07-26T13:59:40Z</time>
      </trkpt>
      <trkpt lat="45.63265" lon="6.63202">
        <ele>2321</ele>
        <time>2022-07-26T13:59:41Z</time>
      </trkpt>
      <trkpt lat="45.63264" lon="6.63201">
        <ele>2321</ele>
        <time>2022-07-26T13:59:42Z</time>
      </trkpt>
      <trkpt lat="45.63264" lon="6.632">
        <ele>2322</ele>
        <time>2022-07-26T13:59:43Z</time>
      </trkpt>
      <trkpt lat="45.63264" lon="6.63199">
        <ele>2322</ele>
        <time>2022-07-26T13:59:44Z</time>
      </trkpt>
      <trkpt lat="45.63264" lon="6.63198">
        <ele>2322</ele>
        <time>2022-07-26T13:59:45Z</time>
      </trkpt>
      <trkpt lat="45.63263" lon="6.63196">
        <ele>2322</ele>
        <time>2022-07-26T13:59:46Z</time>
      </trkpt>
      <trkpt lat="45.63263" lon="6.63195">
        <ele>2322</ele>
        <time>2022-07-26T13:59:47Z</time>
      </trkpt>
      <trkpt lat="45.63263" lon="6.63194">
        <ele>2322</ele>
        <time>2022-07-26T13:59:48Z</time>
      </trkpt>
      <trkpt lat="45.63263" lon="6.63192">
        <ele>2322</ele>
        <time>2022-07-26T13:59:49Z</time>
      </trkpt>
      <trkpt lat="45.63263" lon="6.63191">
        <ele>2322</ele>
        <time>2022-07-26T13:59:50Z</time>
      </trkpt>
      <trkpt lat="45.63262" lon="6.6319">
        <ele>2322</ele>
        <time>2022-07-26T13:59:51Z</time>
      </trkpt>
      <trkpt lat="45.63262" lon="6.63188">
        <ele>2322</ele>
        <time>2022-07-26T13:59:52Z</time>
      </trkpt>
      <trkpt lat="45.63262" lon="6.63187">
        <ele>2322</ele>
        <time>2022-07-26T13:59:53Z</time>
      </trkpt>
      <trkpt lat="45.63262" lon="6.63185">
        <ele>2322</ele>
        <time>2022-07-26T13:59:54Z</time>
      </trkpt>
      <trkpt lat="45.63262" lon="6.63184">
        <ele>2322</ele>
        <time>2022-07-26T13:59:55Z</time>
      </trkpt>
      <trkpt lat="45.63261" lon="6.63183">
        <ele>2322</ele>
        <time>2022-07-26T13:59:56Z</time>
      </trkpt>
      <trkpt lat="45.63261" lon="6.63181">
        <ele>2322</ele>
        <time>2022-07-26T13:59:57Z</time>
      </trkpt>
      <trkpt lat="45.63261" lon="6.6318">
        <ele>2323</ele>
        <time>2022-07-26T13:59:58Z</time>
      </trkpt>
      <trkpt lat="45.63261" lon="6.63178">
        <ele>2323</ele>
        <time>2022-07-26T13:59:59Z</time>
      </trkpt>
      <trkpt lat="45.6326" lon="6.63177">
        <ele>2323</ele>
        <time>2022-07-26T14:00:00Z</time>
      </trkpt>
      <trkpt lat="45.6326" lon="6.63176">
        <ele>2323</ele>
        <time>2022-07-26T14:00:01Z</time>
      </trkpt>
      <trkpt lat="45.6326" lon="6.63175">
        <ele>2323</ele>
        <time>2022-07-26T14:00:02Z</time>
      </trkpt>
      <trkpt lat="45.63259" lon="6.63173">
        <ele>2323</ele>
        <time>2022-07-26T14:00:03Z</time>
      </trkpt>
      <trkpt lat="45.63259" lon="6.63172">
        <ele>2323</ele>
        <time>2022-07-26T14:00:04Z</time>
      </trkpt>
      <trkpt lat="45.63259" lon="6.63171">
        <ele>2323</ele>
        <time>2022-07-26T14:00:05Z</time>
      </trkpt>
      <trkpt lat="45.63259" lon="6.63171">
        <ele>2323</ele>
        <time>2022-07-26T14:00:06Z</time>
      </trkpt>
      <trkpt lat="45.63259" lon="6.6317">
        <ele>2323</ele>
        <time>2022-07-26T14:00:07Z</time>
      </trkpt>
      <trkpt lat="45.63259" lon="6.63169">
        <ele>2323</ele>
        <time>2022-07-26T14:00:08Z</time>
      </trkpt>
      <trkpt lat="45.63258" lon="6.63168">
        <ele>2323</ele>
        <time>2022-07-26T14:00:09Z</time>
      </trkpt>
      <trkpt lat="45.63258" lon="6.63167">
        <ele>2323</ele>
        <time>2022-07-26T14:00:10Z</time>
      </trkpt>
      <trkpt lat="45.63258" lon="6.63167">
        <ele>2323</ele>
        <time>2022-07-26T14:00:11Z</time>
      </trkpt>
      <trkpt lat="45.63258" lon="6.63166">
        <ele>2323</ele>
        <time>2022-07-26T14:00:12Z</time>
      </trkpt>
      <trkpt lat="45.63258" lon="6.63165">
        <ele>2324</ele>
        <time>2022-07-26T14:00:13Z</time>
      </trkpt>
      <trkpt lat="45.63257" lon="6.63164">
        <ele>2324</ele>
        <time>2022-07-26T14:00:14Z</time>
      </trkpt>
      <trkpt lat="45.63257" lon="6.63163">
        <ele>2324</ele>
        <time>2022-07-26T14:00:15Z</time>
      </trkpt>
      <trkpt lat="45.63256" lon="6.63162">
        <ele>2324</ele>
        <time>2022-07-26T14:00:16Z</time>
      </trkpt>
      <trkpt lat="45.63256" lon="6.63161">
        <ele>2324</ele>
        <time>2022-07-26T14:00:17Z</time>
      </trkpt>
      <trkpt lat="45.63256" lon="6.6316">
        <ele>2324</ele>
        <time>2022-07-26T14:00:18Z</time>
      </trkpt>
      <trkpt lat="45.63255" lon="6.63159">
        <ele>2324</ele>
        <time>2022-07-26T14:00:19Z</time>
      </trkpt>
      <trkpt lat="45.63255" lon="6.63158">
        <ele>2324</ele>
        <time>2022-07-26T14:00:20Z</time>
      </trkpt>
      <trkpt lat="45.63255" lon="6.63156">
        <ele>2324</ele>
        <time>2022-07-26T14:00:21Z</time>
      </trkpt>
      <trkpt lat="45.63254" lon="6.63155">
        <ele>2324</ele>
        <time>2022-07-26T14:00:22Z</time>
      </trkpt>
      <trkpt lat="45.63254" lon="6.63154">
        <ele>2324</ele>
        <time>2022-07-26T14:00:23Z</time>
      </trkpt>
      <trkpt lat="45.63254" lon="6.63153">
        <ele>2324</ele>
        <time>2022-07-26T14:00:24Z</time>
      </trkpt>
      <trkpt lat="45.63253" lon="6.63151">
        <ele>2324</ele>
        <time>2022-07-26T14:00:25Z</time>
      </trkpt>
      <trkpt lat="45.63253" lon="6.6315">
        <ele>2324</ele>
        <time>2022-07-26T14:00:26Z</time>
      </trkpt>
      <trkpt lat="45.63253" lon="6.63149">
        <ele>2324</ele>
        <time>2022-07-26T14:00:27Z</time>
      </trkpt>
      <trkpt lat="45.63253" lon="6.63148">
        <ele>2325</ele>
        <time>2022-07-26T14:00:28Z</time>
      </trkpt>
      <trkpt lat="45.63252" lon="6.63147">
        <ele>2325</ele>
        <time>2022-07-26T14:00:29Z</time>
      </trkpt>
      <trkpt lat="45.63252" lon="6.63146">
        <ele>2325</ele>
        <time>2022-07-26T14:00:30Z</time>
      </trkpt>
      <trkpt lat="45.63252" lon="6.63145">
        <ele>2325</ele>
        <time>2022-07-26T14:00:31Z</time>
      </trkpt>
      <trkpt lat="45.63252" lon="6.63144">
        <ele>2325</ele>
        <time>2022-07-26T14:00:32Z</time>
      </trkpt>
      <trkpt lat="45.63251" lon="6.63142">
        <ele>2325</ele>
        <time>2022-07-26T14:00:33Z</time>
      </trkpt>
      <trkpt lat="45.63251" lon="6.63141">
        <ele>2325</ele>
        <time>2022-07-26T14:00:34Z</time>
      </trkpt>
      <trkpt lat="45.63251" lon="6.6314">
        <ele>2325</ele>
        <time>2022-07-26T14:00:35Z</time>
      </trkpt>
      <trkpt lat="45.63251" lon="6.63139">
        <ele>2325</ele>
        <time>2022-07-26T14:00:36Z</time>
      </trkpt>
      <trkpt lat="45.6325" lon="6.63137">
        <ele>2325</ele>
        <time>2022-07-26T14:00:37Z</time>
      </trkpt>
      <trkpt lat="45.6325" lon="6.63136">
        <ele>2325</ele>
        <time>2022-07-26T14:00:38Z</time>
      </trkpt>
      <trkpt lat="45.6325" lon="6.63135">
        <ele>2325</ele>
        <time>2022-07-26T14:00:39Z</time>
      </trkpt>
      <trkpt lat="45.63249" lon="6.63133">
        <ele>2325</ele>
        <time>2022-07-26T14:00:40Z</time>
      </trkpt>
      <trkpt lat="45.63249" lon="6.63132">
        <ele>2325</ele>
        <time>2022-07-26T14:00:41Z</time>
      </trkpt>
      <trkpt lat="45.63249" lon="6.63131">
        <ele>2325</ele>
        <time>2022-07-26T14:00:42Z</time>
      </trkpt>
      <trkpt lat="45.63248" lon="6.6313">
        <ele>2325</ele>
        <time>2022-07-26T14:00:43Z</time>
      </trkpt>
      <trkpt lat="45.63248" lon="6.63129">
        <ele>2325</ele>
        <time>2022-07-26T14:00:44Z</time>
      </trkpt>
      <trkpt lat="45.63248" lon="6.63128">
        <ele>2325</ele>
        <time>2022-07-26T14:00:45Z</time>
      </trkpt>
      <trkpt lat="45.63247" lon="6.63126">
        <ele>2325</ele>
        <time>2022-07-26T14:00:46Z</time>
      </trkpt>
      <trkpt lat="45.63247" lon="6.63125">
        <ele>2325</ele>
        <time>2022-07-26T14:00:47Z</time>
      </trkpt>
      <trkpt lat="45.63246" lon="6.63124">
        <ele>2325</ele>
        <time>2022-07-26T14:00:48Z</time>
      </trkpt>
      <trkpt lat="45.63246" lon="6.63123">
        <ele>2324</ele>
        <time>2022-07-26T14:00:49Z</time>
      </trkpt>
      <trkpt lat="45.63245" lon="6.63122">
        <ele>2324</ele>
        <time>2022-07-26T14:00:50Z</time>
      </trkpt>
      <trkpt lat="45.63245" lon="6.63121">
        <ele>2324</ele>
        <time>2022-07-26T14:00:51Z</time>
      </trkpt>
      <trkpt lat="45.63244" lon="6.6312">
        <ele>2324</ele>
        <time>2022-07-26T14:00:52Z</time>
      </trkpt>
      <trkpt lat="45.63244" lon="6.63119">
        <ele>2324</ele>
        <time>2022-07-26T14:00:53Z</time>
      </trkpt>
      <trkpt lat="45.63244" lon="6.63118">
        <ele>2324</ele>
        <time>2022-07-26T14:00:54Z</time>
      </trkpt>
      <trkpt lat="45.63243" lon="6.63117">
        <ele>2324</ele>
        <time>2022-07-26T14:00:55Z</time>
      </trkpt>
      <trkpt lat="45.63243" lon="6.63116">
        <ele>2324</ele>
        <time>2022-07-26T14:00:56Z</time>
      </trkpt>
      <trkpt lat="45.63243" lon="6.63115">
        <ele>2324</ele>
        <time>2022-07-26T14:00:57Z</time>
      </trkpt>
      <trkpt lat="45.63242" lon="6.63114">
        <ele>2324</ele>
        <time>2022-07-26T14:00:58Z</time>
      </trkpt>
      <trkpt lat="45.63242" lon="6.63113">
        <ele>2324</ele>
        <time>2022-07-26T14:00:59Z</time>
      </trkpt>
      <trkpt lat="45.63242" lon="6.63112">
        <ele>2324</ele>
        <time>2022-07-26T14:01:00Z</time>
      </trkpt>
      <trkpt lat="45.63242" lon="6.63112">
        <ele>2324</ele>
        <time>2022-07-26T14:01:01Z</time>
      </trkpt>
      <trkpt lat="45.63242" lon="6.63111">
        <ele>2324</ele>
        <time>2022-07-26T14:01:02Z</time>
      </trkpt>
      <trkpt lat="45.63241" lon="6.6311">
        <ele>2324</ele>
        <time>2022-07-26T14:01:03Z</time>
      </trkpt>
      <trkpt lat="45.63241" lon="6.63109">
        <ele>2324</ele>
        <time>2022-07-26T14:01:04Z</time>
      </trkpt>
      <trkpt lat="45.63241" lon="6.63108">
        <ele>2324</ele>
        <time>2022-07-26T14:01:05Z</time>
      </trkpt>
      <trkpt lat="45.6324" lon="6.63107">
        <ele>2324</ele>
        <time>2022-07-26T14:01:06Z</time>
      </trkpt>
      <trkpt lat="45.6324" lon="6.63106">
        <ele>2324</ele>
        <time>2022-07-26T14:01:07Z</time>
      </trkpt>
      <trkpt lat="45.63239" lon="6.63106">
        <ele>2324</ele>
        <time>2022-07-26T14:01:08Z</time>
      </trkpt>
      <trkpt lat="45.63239" lon="6.63105">
        <ele>2324</ele>
        <time>2022-07-26T14:01:09Z</time>
      </trkpt>
      <trkpt lat="45.63239" lon="6.63104">
        <ele>2324</ele>
        <time>2022-07-26T14:01:10Z</time>
      </trkpt>
      <trkpt lat="45.63238" lon="6.63103">
        <ele>2324</ele>
        <time>2022-07-26T14:01:11Z</time>
      </trkpt>
      <trkpt lat="45.63238" lon="6.63102">
        <ele>2324</ele>
        <time>2022-07-26T14:01:12Z</time>
      </trkpt>
      <trkpt lat="45.63237" lon="6.63101">
        <ele>2324</ele>
        <time>2022-07-26T14:01:13Z</time>
      </trkpt>
      <trkpt lat="45.63237" lon="6.631">
        <ele>2324</ele>
        <time>2022-07-26T14:01:14Z</time>
      </trkpt>
      <trkpt lat="45.63236" lon="6.63099">
        <ele>2324</ele>
        <time>2022-07-26T14:01:15Z</time>
      </trkpt>
      <trkpt lat="45.63236" lon="6.63098">
        <ele>2324</ele>
        <time>2022-07-26T14:01:16Z</time>
      </trkpt>
      <trkpt lat="45.63236" lon="6.63097">
        <ele>2324</ele>
        <time>2022-07-26T14:01:17Z</time>
      </trkpt>
      <trkpt lat="45.63235" lon="6.63096">
        <ele>2324</ele>
        <time>2022-07-26T14:01:18Z</time>
      </trkpt>
      <trkpt lat="45.63235" lon="6.63095">
        <ele>2324</ele>
        <time>2022-07-26T14:01:19Z</time>
      </trkpt>
      <trkpt lat="45.63235" lon="6.63094">
        <ele>2324</ele>
        <time>2022-07-26T14:01:20Z</time>
      </trkpt>
      <trkpt lat="45.63235" lon="6.63093">
        <ele>2324</ele>
        <time>2022-07-26T14:01:21Z</time>
      </trkpt>
      <trkpt lat="45.63234" lon="6.63092">
        <ele>2324</ele>
        <time>2022-07-26T14:01:22Z</time>
      </trkpt>
      <trkpt lat="45.63234" lon="6.63091">
        <ele>2325</ele>
        <time>2022-07-26T14:01:23Z</time>
      </trkpt>
      <trkpt lat="45.63234" lon="6.6309">
        <ele>2325</ele>
        <time>2022-07-26T14:01:24Z</time>
      </trkpt>
      <trkpt lat="45.63234" lon="6.63088">
        <ele>2325</ele>
        <time>2022-07-26T14:01:25Z</time>
      </trkpt>
      <trkpt lat="45.63234" lon="6.63087">
        <ele>2325</ele>
        <time>2022-07-26T14:01:26Z</time>
      </trkpt>
      <trkpt lat="45.63234" lon="6.63086">
        <ele>2325</ele>
        <time>2022-07-26T14:01:27Z</time>
      </trkpt>
      <trkpt lat="45.63233" lon="6.63085">
        <ele>2325</ele>
        <time>2022-07-26T14:01:28Z</time>
      </trkpt>
      <trkpt lat="45.63233" lon="6.63084">
        <ele>2325</ele>
        <time>2022-07-26T14:01:29Z</time>
      </trkpt>
      <trkpt lat="45.63233" lon="6.63083">
        <ele>2325</ele>
        <time>2022-07-26T14:01:30Z</time>
      </trkpt>
      <trkpt lat="45.63233" lon="6.63082">
        <ele>2325</ele>
        <time>2022-07-26T14:01:31Z</time>
      </trkpt>
      <trkpt lat="45.63233" lon="6.63081">
        <ele>2325</ele>
        <time>2022-07-26T14:01:32Z</time>
      </trkpt>
      <trkpt lat="45.63233" lon="6.6308">
        <ele>2325</ele>
        <time>2022-07-26T14:01:33Z</time>
      </trkpt>
      <trkpt lat="45.63232" lon="6.63078">
        <ele>2325</ele>
        <time>2022-07-26T14:01:34Z</time>
      </trkpt>
      <trkpt lat="45.63232" lon="6.63077">
        <ele>2325</ele>
        <time>2022-07-26T14:01:35Z</time>
      </trkpt>
      <trkpt lat="45.63231" lon="6.63076">
        <ele>2325</ele>
        <time>2022-07-26T14:01:36Z</time>
      </trkpt>
      <trkpt lat="45.63231" lon="6.63075">
        <ele>2325</ele>
        <time>2022-07-26T14:01:37Z</time>
      </trkpt>
      <trkpt lat="45.63231" lon="6.63074">
        <ele>2325</ele>
        <time>2022-07-26T14:01:38Z</time>
      </trkpt>
      <trkpt lat="45.6323" lon="6.63073">
        <ele>2325</ele>
        <time>2022-07-26T14:01:39Z</time>
      </trkpt>
      <trkpt lat="45.6323" lon="6.63072">
        <ele>2325</ele>
        <time>2022-07-26T14:01:40Z</time>
      </trkpt>
      <trkpt lat="45.63229" lon="6.63071">
        <ele>2325</ele>
        <time>2022-07-26T14:01:41Z</time>
      </trkpt>
      <trkpt lat="45.63229" lon="6.6307">
        <ele>2325</ele>
        <time>2022-07-26T14:01:42Z</time>
      </trkpt>
      <trkpt lat="45.63228" lon="6.63069">
        <ele>2325</ele>
        <time>2022-07-26T14:01:43Z</time>
      </trkpt>
      <trkpt lat="45.63228" lon="6.63068">
        <ele>2325</ele>
        <time>2022-07-26T14:01:44Z</time>
      </trkpt>
      <trkpt lat="45.63228" lon="6.63067">
        <ele>2325</ele>
        <time>2022-07-26T14:01:45Z</time>
      </trkpt>
      <trkpt lat="45.63227" lon="6.63065">
        <ele>2325</ele>
        <time>2022-07-26T14:01:46Z</time>
      </trkpt>
      <trkpt lat="45.63227" lon="6.63064">
        <ele>2325</ele>
        <time>2022-07-26T14:01:47Z</time>
      </trkpt>
      <trkpt lat="45.63227" lon="6.63063">
        <ele>2325</ele>
        <time>2022-07-26T14:01:48Z</time>
      </trkpt>
      <trkpt lat="45.63226" lon="6.63062">
        <ele>2325</ele>
        <time>2022-07-26T14:01:49Z</time>
      </trkpt>
      <trkpt lat="45.63226" lon="6.6306">
        <ele>2325</ele>
        <time>2022-07-26T14:01:50Z</time>
      </trkpt>
      <trkpt lat="45.63226" lon="6.63059">
        <ele>2325</ele>
        <time>2022-07-26T14:01:51Z</time>
      </trkpt>
      <trkpt lat="45.63225" lon="6.63058">
        <ele>2325</ele>
        <time>2022-07-26T14:01:52Z</time>
      </trkpt>
      <trkpt lat="45.63225" lon="6.63057">
        <ele>2326</ele>
        <time>2022-07-26T14:01:53Z</time>
      </trkpt>
      <trkpt lat="45.63225" lon="6.63056">
        <ele>2326</ele>
        <time>2022-07-26T14:01:54Z</time>
      </trkpt>
      <trkpt lat="45.63224" lon="6.63055">
        <ele>2326</ele>
        <time>2022-07-26T14:01:55Z</time>
      </trkpt>
      <trkpt lat="45.63224" lon="6.63054">
        <ele>2326</ele>
        <time>2022-07-26T14:01:56Z</time>
      </trkpt>
      <trkpt lat="45.63223" lon="6.63052">
        <ele>2326</ele>
        <time>2022-07-26T14:01:57Z</time>
      </trkpt>
      <trkpt lat="45.63223" lon="6.63051">
        <ele>2326</ele>
        <time>2022-07-26T14:01:58Z</time>
      </trkpt>
      <trkpt lat="45.63223" lon="6.6305">
        <ele>2326</ele>
        <time>2022-07-26T14:01:59Z</time>
      </trkpt>
      <trkpt lat="45.63222" lon="6.63049">
        <ele>2326</ele>
        <time>2022-07-26T14:02:00Z</time>
      </trkpt>
      <trkpt lat="45.63222" lon="6.63048">
        <ele>2326</ele>
        <time>2022-07-26T14:02:01Z</time>
      </trkpt>
      <trkpt lat="45.63221" lon="6.63047">
        <ele>2326</ele>
        <time>2022-07-26T14:02:02Z</time>
      </trkpt>
      <trkpt lat="45.63221" lon="6.63046">
        <ele>2326</ele>
        <time>2022-07-26T14:02:03Z</time>
      </trkpt>
      <trkpt lat="45.6322" lon="6.63045">
        <ele>2326</ele>
        <time>2022-07-26T14:02:04Z</time>
      </trkpt>
      <trkpt lat="45.6322" lon="6.63044">
        <ele>2326</ele>
        <time>2022-07-26T14:02:05Z</time>
      </trkpt>
      <trkpt lat="45.6322" lon="6.63043">
        <ele>2326</ele>
        <time>2022-07-26T14:02:06Z</time>
      </trkpt>
      <trkpt lat="45.63219" lon="6.63042">
        <ele>2326</ele>
        <time>2022-07-26T14:02:07Z</time>
      </trkpt>
      <trkpt lat="45.63219" lon="6.63041">
        <ele>2326</ele>
        <time>2022-07-26T14:02:08Z</time>
      </trkpt>
      <trkpt lat="45.63219" lon="6.6304">
        <ele>2326</ele>
        <time>2022-07-26T14:02:09Z</time>
      </trkpt>
      <trkpt lat="45.63219" lon="6.63039">
        <ele>2326</ele>
        <time>2022-07-26T14:02:10Z</time>
      </trkpt>
      <trkpt lat="45.63219" lon="6.63038">
        <ele>2326</ele>
        <time>2022-07-26T14:02:11Z</time>
      </trkpt>
      <trkpt lat="45.63218" lon="6.63037">
        <ele>2326</ele>
        <time>2022-07-26T14:02:12Z</time>
      </trkpt>
      <trkpt lat="45.63218" lon="6.63036">
        <ele>2326</ele>
        <time>2022-07-26T14:02:13Z</time>
      </trkpt>
      <trkpt lat="45.63218" lon="6.63036">
        <ele>2326</ele>
        <time>2022-07-26T14:02:14Z</time>
      </trkpt>
      <trkpt lat="45.63218" lon="6.63035">
        <ele>2326</ele>
        <time>2022-07-26T14:02:15Z</time>
      </trkpt>
      <trkpt lat="45.63217" lon="6.63034">
        <ele>2326</ele>
        <time>2022-07-26T14:02:16Z</time>
      </trkpt>
      <trkpt lat="45.63217" lon="6.63034">
        <ele>2326</ele>
        <time>2022-07-26T14:02:17Z</time>
      </trkpt>
      <trkpt lat="45.63217" lon="6.63033">
        <ele>2326</ele>
        <time>2022-07-26T14:02:18Z</time>
      </trkpt>
      <trkpt lat="45.63216" lon="6.63032">
        <ele>2326</ele>
        <time>2022-07-26T14:02:19Z</time>
      </trkpt>
      <trkpt lat="45.63216" lon="6.63031">
        <ele>2326</ele>
        <time>2022-07-26T14:02:20Z</time>
      </trkpt>
      <trkpt lat="45.63215" lon="6.6303">
        <ele>2326</ele>
        <time>2022-07-26T14:02:21Z</time>
      </trkpt>
      <trkpt lat="45.63215" lon="6.63029">
        <ele>2326</ele>
        <time>2022-07-26T14:02:22Z</time>
      </trkpt>
      <trkpt lat="45.63214" lon="6.63028">
        <ele>2326</ele>
        <time>2022-07-26T14:02:23Z</time>
      </trkpt>
      <trkpt lat="45.63214" lon="6.63027">
        <ele>2326</ele>
        <time>2022-07-26T14:02:24Z</time>
      </trkpt>
      <trkpt lat="45.63214" lon="6.63026">
        <ele>2326</ele>
        <time>2022-07-26T14:02:25Z</time>
      </trkpt>
      <trkpt lat="45.63213" lon="6.63025">
        <ele>2326</ele>
        <time>2022-07-26T14:02:26Z</time>
      </trkpt>
      <trkpt lat="45.63213" lon="6.63024">
        <ele>2326</ele>
        <time>2022-07-26T14:02:27Z</time>
      </trkpt>
      <trkpt lat="45.63213" lon="6.63024">
        <ele>2326</ele>
        <time>2022-07-26T14:02:28Z</time>
      </trkpt>
      <trkpt lat="45.63213" lon="6.63023">
        <ele>2326</ele>
        <time>2022-07-26T14:02:29Z</time>
      </trkpt>
      <trkpt lat="45.63213" lon="6.63022">
        <ele>2326</ele>
        <time>2022-07-26T14:02:30Z</time>
      </trkpt>
      <trkpt lat="45.63213" lon="6.63021">
        <ele>2326</ele>
        <time>2022-07-26T14:02:31Z</time>
      </trkpt>
      <trkpt lat="45.63212" lon="6.6302">
        <ele>2326</ele>
        <time>2022-07-26T14:02:32Z</time>
      </trkpt>
      <trkpt lat="45.63212" lon="6.63019">
        <ele>2326</ele>
        <time>2022-07-26T14:02:33Z</time>
      </trkpt>
      <trkpt lat="45.63212" lon="6.63019">
        <ele>2326</ele>
        <time>2022-07-26T14:02:34Z</time>
      </trkpt>
      <trkpt lat="45.63212" lon="6.63018">
        <ele>2326</ele>
        <time>2022-07-26T14:02:35Z</time>
      </trkpt>
      <trkpt lat="45.63212" lon="6.63017">
        <ele>2326</ele>
        <time>2022-07-26T14:02:36Z</time>
      </trkpt>
      <trkpt lat="45.63211" lon="6.63017">
        <ele>2326</ele>
        <time>2022-07-26T14:02:37Z</time>
      </trkpt>
      <trkpt lat="45.63211" lon="6.63016">
        <ele>2326</ele>
        <time>2022-07-26T14:02:38Z</time>
      </trkpt>
      <trkpt lat="45.6321" lon="6.63015">
        <ele>2326</ele>
        <time>2022-07-26T14:02:39Z</time>
      </trkpt>
      <trkpt lat="45.6321" lon="6.63015">
        <ele>2326</ele>
        <time>2022-07-26T14:02:40Z</time>
      </trkpt>
      <trkpt lat="45.63209" lon="6.63014">
        <ele>2326</ele>
        <time>2022-07-26T14:02:41Z</time>
      </trkpt>
      <trkpt lat="45.63209" lon="6.63013">
        <ele>2326</ele>
        <time>2022-07-26T14:02:42Z</time>
      </trkpt>
      <trkpt lat="45.63208" lon="6.63012">
        <ele>2326</ele>
        <time>2022-07-26T14:02:43Z</time>
      </trkpt>
      <trkpt lat="45.63208" lon="6.63012">
        <ele>2326</ele>
        <time>2022-07-26T14:02:44Z</time>
      </trkpt>
      <trkpt lat="45.63208" lon="6.63011">
        <ele>2326</ele>
        <time>2022-07-26T14:02:45Z</time>
      </trkpt>
      <trkpt lat="45.63207" lon="6.6301">
        <ele>2326</ele>
        <time>2022-07-26T14:02:46Z</time>
      </trkpt>
      <trkpt lat="45.63207" lon="6.63009">
        <ele>2326</ele>
        <time>2022-07-26T14:02:47Z</time>
      </trkpt>
      <trkpt lat="45.63207" lon="6.63008">
        <ele>2326</ele>
        <time>2022-07-26T14:02:48Z</time>
      </trkpt>
      <trkpt lat="45.63206" lon="6.63007">
        <ele>2326</ele>
        <time>2022-07-26T14:02:49Z</time>
      </trkpt>
      <trkpt lat="45.63205" lon="6.63004">
        <ele>2328</ele>
        <time>2022-07-26T14:03:29Z</time>
      </trkpt>
      <trkpt lat="45.63205" lon="6.63003">
        <ele>2328</ele>
        <time>2022-07-26T14:03:30Z</time>
      </trkpt>
      <trkpt lat="45.63205" lon="6.63002">
        <ele>2328</ele>
        <time>2022-07-26T14:03:31Z</time>
      </trkpt>
      <trkpt lat="45.63205" lon="6.63001">
        <ele>2328</ele>
        <time>2022-07-26T14:03:32Z</time>
      </trkpt>
      <trkpt lat="45.63204" lon="6.63">
        <ele>2328</ele>
        <time>2022-07-26T14:03:33Z</time>
      </trkpt>
      <trkpt lat="45.63204" lon="6.63">
        <ele>2328</ele>
        <time>2022-07-26T14:03:34Z</time>
      </trkpt>
      <trkpt lat="45.63204" lon="6.62999">
        <ele>2328</ele>
        <time>2022-07-26T14:03:35Z</time>
      </trkpt>
      <trkpt lat="45.63203" lon="6.62998">
        <ele>2328</ele>
        <time>2022-07-26T14:03:36Z</time>
      </trkpt>
      <trkpt lat="45.63203" lon="6.62997">
        <ele>2328</ele>
        <time>2022-07-26T14:03:37Z</time>
      </trkpt>
      <trkpt lat="45.63203" lon="6.62996">
        <ele>2328</ele>
        <time>2022-07-26T14:03:38Z</time>
      </trkpt>
      <trkpt lat="45.63202" lon="6.62995">
        <ele>2328</ele>
        <time>2022-07-26T14:03:39Z</time>
      </trkpt>
      <trkpt lat="45.63202" lon="6.62994">
        <ele>2328</ele>
        <time>2022-07-26T14:03:40Z</time>
      </trkpt>
      <trkpt lat="45.63201" lon="6.62993">
        <ele>2328</ele>
        <time>2022-07-26T14:03:41Z</time>
      </trkpt>
      <trkpt lat="45.63201" lon="6.62992">
        <ele>2328</ele>
        <time>2022-07-26T14:03:42Z</time>
      </trkpt>
      <trkpt lat="45.63201" lon="6.62991">
        <ele>2328</ele>
        <time>2022-07-26T14:03:43Z</time>
      </trkpt>
      <trkpt lat="45.632" lon="6.6299">
        <ele>2328</ele>
        <time>2022-07-26T14:03:44Z</time>
      </trkpt>
      <trkpt lat="45.632" lon="6.62989">
        <ele>2328</ele>
        <time>2022-07-26T14:03:45Z</time>
      </trkpt>
      <trkpt lat="45.632" lon="6.62989">
        <ele>2328</ele>
        <time>2022-07-26T14:03:46Z</time>
      </trkpt>
      <trkpt lat="45.63199" lon="6.62988">
        <ele>2328</ele>
        <time>2022-07-26T14:03:47Z</time>
      </trkpt>
      <trkpt lat="45.63199" lon="6.62987">
        <ele>2328</ele>
        <time>2022-07-26T14:03:48Z</time>
      </trkpt>
      <trkpt lat="45.63199" lon="6.62986">
        <ele>2328</ele>
        <time>2022-07-26T14:03:49Z</time>
      </trkpt>
      <trkpt lat="45.63199" lon="6.62985">
        <ele>2328</ele>
        <time>2022-07-26T14:03:50Z</time>
      </trkpt>
      <trkpt lat="45.63198" lon="6.62984">
        <ele>2328</ele>
        <time>2022-07-26T14:03:51Z</time>
      </trkpt>
      <trkpt lat="45.63198" lon="6.62983">
        <ele>2328</ele>
        <time>2022-07-26T14:03:52Z</time>
      </trkpt>
      <trkpt lat="45.63198" lon="6.62982">
        <ele>2328</ele>
        <time>2022-07-26T14:03:53Z</time>
      </trkpt>
      <trkpt lat="45.63198" lon="6.62981">
        <ele>2328</ele>
        <time>2022-07-26T14:03:54Z</time>
      </trkpt>
      <trkpt lat="45.63198" lon="6.6298">
        <ele>2328</ele>
        <time>2022-07-26T14:03:55Z</time>
      </trkpt>
      <trkpt lat="45.63198" lon="6.62979">
        <ele>2328</ele>
        <time>2022-07-26T14:03:56Z</time>
      </trkpt>
      <trkpt lat="45.63198" lon="6.62978">
        <ele>2328</ele>
        <time>2022-07-26T14:03:57Z</time>
      </trkpt>
      <trkpt lat="45.63198" lon="6.62977">
        <ele>2328</ele>
        <time>2022-07-26T14:03:58Z</time>
      </trkpt>
      <trkpt lat="45.63198" lon="6.62976">
        <ele>2328</ele>
        <time>2022-07-26T14:03:59Z</time>
      </trkpt>
      <trkpt lat="45.63197" lon="6.62975">
        <ele>2328</ele>
        <time>2022-07-26T14:04:00Z</time>
      </trkpt>
      <trkpt lat="45.63197" lon="6.62974">
        <ele>2328</ele>
        <time>2022-07-26T14:04:01Z</time>
      </trkpt>
      <trkpt lat="45.63197" lon="6.62973">
        <ele>2328</ele>
        <time>2022-07-26T14:04:02Z</time>
      </trkpt>
      <trkpt lat="45.63197" lon="6.62972">
        <ele>2328</ele>
        <time>2022-07-26T14:04:03Z</time>
      </trkpt>
      <trkpt lat="45.63197" lon="6.62971">
        <ele>2328</ele>
        <time>2022-07-26T14:04:04Z</time>
      </trkpt>
      <trkpt lat="45.63197" lon="6.6297">
        <ele>2328</ele>
        <time>2022-07-26T14:04:05Z</time>
      </trkpt>
      <trkpt lat="45.63196" lon="6.62969">
        <ele>2328</ele>
        <time>2022-07-26T14:04:06Z</time>
      </trkpt>
      <trkpt lat="45.63196" lon="6.62968">
        <ele>2328</ele>
        <time>2022-07-26T14:04:07Z</time>
      </trkpt>
      <trkpt lat="45.63196" lon="6.62967">
        <ele>2328</ele>
        <time>2022-07-26T14:04:08Z</time>
      </trkpt>
      <trkpt lat="45.63196" lon="6.62966">
        <ele>2328</ele>
        <time>2022-07-26T14:04:09Z</time>
      </trkpt>
      <trkpt lat="45.63195" lon="6.62965">
        <ele>2328</ele>
        <time>2022-07-26T14:04:10Z</time>
      </trkpt>
      <trkpt lat="45.63195" lon="6.62964">
        <ele>2328</ele>
        <time>2022-07-26T14:04:11Z</time>
      </trkpt>
      <trkpt lat="45.63195" lon="6.62963">
        <ele>2328</ele>
        <time>2022-07-26T14:04:12Z</time>
      </trkpt>
      <trkpt lat="45.63194" lon="6.62962">
        <ele>2329</ele>
        <time>2022-07-26T14:04:13Z</time>
      </trkpt>
      <trkpt lat="45.63194" lon="6.62961">
        <ele>2329</ele>
        <time>2022-07-26T14:04:14Z</time>
      </trkpt>
      <trkpt lat="45.63193" lon="6.62961">
        <ele>2329</ele>
        <time>2022-07-26T14:04:15Z</time>
      </trkpt>
      <trkpt lat="45.63192" lon="6.62959">
        <ele>2329</ele>
        <time>2022-07-26T14:04:26Z</time>
      </trkpt>
      <trkpt lat="45.63191" lon="6.62957">
        <ele>2329</ele>
        <time>2022-07-26T14:04:27Z</time>
      </trkpt>
      <trkpt lat="45.6319" lon="6.62956">
        <ele>2330</ele>
        <time>2022-07-26T14:04:28Z</time>
      </trkpt>
      <trkpt lat="45.6319" lon="6.62955">
        <ele>2330</ele>
        <time>2022-07-26T14:04:29Z</time>
      </trkpt>
      <trkpt lat="45.63189" lon="6.62954">
        <ele>2330</ele>
        <time>2022-07-26T14:04:30Z</time>
      </trkpt>
      <trkpt lat="45.63189" lon="6.62953">
        <ele>2330</ele>
        <time>2022-07-26T14:04:31Z</time>
      </trkpt>
      <trkpt lat="45.63188" lon="6.62953">
        <ele>2330</ele>
        <time>2022-07-26T14:04:32Z</time>
      </trkpt>
      <trkpt lat="45.63188" lon="6.62952">
        <ele>2330</ele>
        <time>2022-07-26T14:04:33Z</time>
      </trkpt>
      <trkpt lat="45.63188" lon="6.62951">
        <ele>2330</ele>
        <time>2022-07-26T14:04:34Z</time>
      </trkpt>
      <trkpt lat="45.63187" lon="6.62951">
        <ele>2330</ele>
        <time>2022-07-26T14:04:35Z</time>
      </trkpt>
      <trkpt lat="45.63187" lon="6.6295">
        <ele>2330</ele>
        <time>2022-07-26T14:04:36Z</time>
      </trkpt>
      <trkpt lat="45.63187" lon="6.62949">
        <ele>2330</ele>
        <time>2022-07-26T14:04:37Z</time>
      </trkpt>
      <trkpt lat="45.63186" lon="6.62948">
        <ele>2330</ele>
        <time>2022-07-26T14:04:38Z</time>
      </trkpt>
      <trkpt lat="45.63186" lon="6.62947">
        <ele>2330</ele>
        <time>2022-07-26T14:04:39Z</time>
      </trkpt>
      <trkpt lat="45.63186" lon="6.62946">
        <ele>2330</ele>
        <time>2022-07-26T14:04:40Z</time>
      </trkpt>
      <trkpt lat="45.63185" lon="6.62945">
        <ele>2330</ele>
        <time>2022-07-26T14:04:41Z</time>
      </trkpt>
      <trkpt lat="45.63185" lon="6.62945">
        <ele>2330</ele>
        <time>2022-07-26T14:04:42Z</time>
      </trkpt>
      <trkpt lat="45.63185" lon="6.62943">
        <ele>2330</ele>
        <time>2022-07-26T14:04:43Z</time>
      </trkpt>
      <trkpt lat="45.63185" lon="6.62942">
        <ele>2330</ele>
        <time>2022-07-26T14:04:44Z</time>
      </trkpt>
      <trkpt lat="45.63184" lon="6.62941">
        <ele>2330</ele>
        <time>2022-07-26T14:04:45Z</time>
      </trkpt>
      <trkpt lat="45.63184" lon="6.6294">
        <ele>2330</ele>
        <time>2022-07-26T14:04:46Z</time>
      </trkpt>
      <trkpt lat="45.63184" lon="6.62939">
        <ele>2330</ele>
        <time>2022-07-26T14:04:47Z</time>
      </trkpt>
      <trkpt lat="45.63183" lon="6.62938">
        <ele>2330</ele>
        <time>2022-07-26T14:04:48Z</time>
      </trkpt>
      <trkpt lat="45.63183" lon="6.62937">
        <ele>2330</ele>
        <time>2022-07-26T14:04:49Z</time>
      </trkpt>
      <trkpt lat="45.63183" lon="6.62936">
        <ele>2330</ele>
        <time>2022-07-26T14:04:50Z</time>
      </trkpt>
      <trkpt lat="45.63182" lon="6.62935">
        <ele>2330</ele>
        <time>2022-07-26T14:04:51Z</time>
      </trkpt>
      <trkpt lat="45.63182" lon="6.62934">
        <ele>2330</ele>
        <time>2022-07-26T14:04:52Z</time>
      </trkpt>
      <trkpt lat="45.63182" lon="6.62933">
        <ele>2330</ele>
        <time>2022-07-26T14:04:53Z</time>
      </trkpt>
      <trkpt lat="45.63181" lon="6.62932">
        <ele>2330</ele>
        <time>2022-07-26T14:04:54Z</time>
      </trkpt>
      <trkpt lat="45.63181" lon="6.62931">
        <ele>2330</ele>
        <time>2022-07-26T14:04:55Z</time>
      </trkpt>
      <trkpt lat="45.6318" lon="6.6293">
        <ele>2330</ele>
        <time>2022-07-26T14:04:56Z</time>
      </trkpt>
      <trkpt lat="45.6318" lon="6.62929">
        <ele>2330</ele>
        <time>2022-07-26T14:04:57Z</time>
      </trkpt>
      <trkpt lat="45.6318" lon="6.62928">
        <ele>2330</ele>
        <time>2022-07-26T14:04:58Z</time>
      </trkpt>
      <trkpt lat="45.63179" lon="6.62926">
        <ele>2330</ele>
        <time>2022-07-26T14:04:59Z</time>
      </trkpt>
      <trkpt lat="45.63179" lon="6.62925">
        <ele>2330</ele>
        <time>2022-07-26T14:05:00Z</time>
      </trkpt>
      <trkpt lat="45.63179" lon="6.62924">
        <ele>2330</ele>
        <time>2022-07-26T14:05:01Z</time>
      </trkpt>
      <trkpt lat="45.63178" lon="6.62923">
        <ele>2330</ele>
        <time>2022-07-26T14:05:02Z</time>
      </trkpt>
      <trkpt lat="45.63178" lon="6.62922">
        <ele>2330</ele>
        <time>2022-07-26T14:05:03Z</time>
      </trkpt>
      <trkpt lat="45.63178" lon="6.62921">
        <ele>2330</ele>
        <time>2022-07-26T14:05:04Z</time>
      </trkpt>
      <trkpt lat="45.63177" lon="6.6292">
        <ele>2330</ele>
        <time>2022-07-26T14:05:05Z</time>
      </trkpt>
      <trkpt lat="45.63177" lon="6.62919">
        <ele>2330</ele>
        <time>2022-07-26T14:05:06Z</time>
      </trkpt>
      <trkpt lat="45.63177" lon="6.62918">
        <ele>2330</ele>
        <time>2022-07-26T14:05:07Z</time>
      </trkpt>
      <trkpt lat="45.63177" lon="6.62917">
        <ele>2330</ele>
        <time>2022-07-26T14:05:08Z</time>
      </trkpt>
      <trkpt lat="45.63177" lon="6.62916">
        <ele>2330</ele>
        <time>2022-07-26T14:05:09Z</time>
      </trkpt>
      <trkpt lat="45.63176" lon="6.62915">
        <ele>2330</ele>
        <time>2022-07-26T14:05:10Z</time>
      </trkpt>
      <trkpt lat="45.63176" lon="6.62914">
        <ele>2330</ele>
        <time>2022-07-26T14:05:11Z</time>
      </trkpt>
      <trkpt lat="45.63176" lon="6.62913">
        <ele>2330</ele>
        <time>2022-07-26T14:05:12Z</time>
      </trkpt>
      <trkpt lat="45.63176" lon="6.62912">
        <ele>2330</ele>
        <time>2022-07-26T14:05:13Z</time>
      </trkpt>
      <trkpt lat="45.63175" lon="6.62911">
        <ele>2330</ele>
        <time>2022-07-26T14:05:14Z</time>
      </trkpt>
      <trkpt lat="45.63175" lon="6.6291">
        <ele>2330</ele>
        <time>2022-07-26T14:05:15Z</time>
      </trkpt>
      <trkpt lat="45.63174" lon="6.62909">
        <ele>2330</ele>
        <time>2022-07-26T14:05:16Z</time>
      </trkpt>
      <trkpt lat="45.63174" lon="6.62908">
        <ele>2330</ele>
        <time>2022-07-26T14:05:17Z</time>
      </trkpt>
      <trkpt lat="45.63173" lon="6.62907">
        <ele>2331</ele>
        <time>2022-07-26T14:05:18Z</time>
      </trkpt>
      <trkpt lat="45.63173" lon="6.62906">
        <ele>2331</ele>
        <time>2022-07-26T14:05:19Z</time>
      </trkpt>
      <trkpt lat="45.63172" lon="6.62905">
        <ele>2331</ele>
        <time>2022-07-26T14:05:20Z</time>
      </trkpt>
      <trkpt lat="45.63172" lon="6.62904">
        <ele>2331</ele>
        <time>2022-07-26T14:05:21Z</time>
      </trkpt>
      <trkpt lat="45.63171" lon="6.62903">
        <ele>2331</ele>
        <time>2022-07-26T14:05:22Z</time>
      </trkpt>
      <trkpt lat="45.63171" lon="6.62902">
        <ele>2331</ele>
        <time>2022-07-26T14:05:23Z</time>
      </trkpt>
      <trkpt lat="45.6317" lon="6.62901">
        <ele>2331</ele>
        <time>2022-07-26T14:05:24Z</time>
      </trkpt>
      <trkpt lat="45.6317" lon="6.629">
        <ele>2331</ele>
        <time>2022-07-26T14:05:25Z</time>
      </trkpt>
      <trkpt lat="45.6317" lon="6.62899">
        <ele>2331</ele>
        <time>2022-07-26T14:05:26Z</time>
      </trkpt>
      <trkpt lat="45.63169" lon="6.62898">
        <ele>2331</ele>
        <time>2022-07-26T14:05:27Z</time>
      </trkpt>
      <trkpt lat="45.63169" lon="6.62898">
        <ele>2331</ele>
        <time>2022-07-26T14:05:28Z</time>
      </trkpt>
      <trkpt lat="45.63168" lon="6.62897">
        <ele>2331</ele>
        <time>2022-07-26T14:05:29Z</time>
      </trkpt>
      <trkpt lat="45.63167" lon="6.62896">
        <ele>2331</ele>
        <time>2022-07-26T14:05:30Z</time>
      </trkpt>
      <trkpt lat="45.63167" lon="6.62895">
        <ele>2331</ele>
        <time>2022-07-26T14:05:31Z</time>
      </trkpt>
      <trkpt lat="45.63166" lon="6.62894">
        <ele>2331</ele>
        <time>2022-07-26T14:05:32Z</time>
      </trkpt>
      <trkpt lat="45.63165" lon="6.62894">
        <ele>2331</ele>
        <time>2022-07-26T14:05:33Z</time>
      </trkpt>
      <trkpt lat="45.63165" lon="6.62893">
        <ele>2331</ele>
        <time>2022-07-26T14:05:34Z</time>
      </trkpt>
      <trkpt lat="45.63164" lon="6.62892">
        <ele>2331</ele>
        <time>2022-07-26T14:05:35Z</time>
      </trkpt>
      <trkpt lat="45.63164" lon="6.62892">
        <ele>2331</ele>
        <time>2022-07-26T14:05:36Z</time>
      </trkpt>
      <trkpt lat="45.63163" lon="6.62891">
        <ele>2331</ele>
        <time>2022-07-26T14:05:37Z</time>
      </trkpt>
      <trkpt lat="45.63163" lon="6.6289">
        <ele>2331</ele>
        <time>2022-07-26T14:05:38Z</time>
      </trkpt>
      <trkpt lat="45.63163" lon="6.6289">
        <ele>2331</ele>
        <time>2022-07-26T14:05:39Z</time>
      </trkpt>
      <trkpt lat="45.63162" lon="6.62889">
        <ele>2331</ele>
        <time>2022-07-26T14:05:40Z</time>
      </trkpt>
      <trkpt lat="45.63162" lon="6.62888">
        <ele>2331</ele>
        <time>2022-07-26T14:05:41Z</time>
      </trkpt>
      <trkpt lat="45.63161" lon="6.62887">
        <ele>2331</ele>
        <time>2022-07-26T14:05:42Z</time>
      </trkpt>
      <trkpt lat="45.63161" lon="6.62886">
        <ele>2331</ele>
        <time>2022-07-26T14:05:43Z</time>
      </trkpt>
      <trkpt lat="45.63161" lon="6.62885">
        <ele>2331</ele>
        <time>2022-07-26T14:05:44Z</time>
      </trkpt>
      <trkpt lat="45.6316" lon="6.62884">
        <ele>2331</ele>
        <time>2022-07-26T14:05:45Z</time>
      </trkpt>
      <trkpt lat="45.6316" lon="6.62883">
        <ele>2331</ele>
        <time>2022-07-26T14:05:46Z</time>
      </trkpt>
      <trkpt lat="45.6316" lon="6.62882">
        <ele>2331</ele>
        <time>2022-07-26T14:05:47Z</time>
      </trkpt>
      <trkpt lat="45.63159" lon="6.62881">
        <ele>2331</ele>
        <time>2022-07-26T14:05:48Z</time>
      </trkpt>
      <trkpt lat="45.63159" lon="6.6288">
        <ele>2331</ele>
        <time>2022-07-26T14:05:49Z</time>
      </trkpt>
      <trkpt lat="45.63159" lon="6.6288">
        <ele>2331</ele>
        <time>2022-07-26T14:05:50Z</time>
      </trkpt>
      <trkpt lat="45.63158" lon="6.62879">
        <ele>2331</ele>
        <time>2022-07-26T14:05:51Z</time>
      </trkpt>
      <trkpt lat="45.63158" lon="6.62878">
        <ele>2332</ele>
        <time>2022-07-26T14:06:12Z</time>
      </trkpt>
      <trkpt lat="45.63157" lon="6.62877">
        <ele>2332</ele>
        <time>2022-07-26T14:06:13Z</time>
      </trkpt>
      <trkpt lat="45.63157" lon="6.62876">
        <ele>2332</ele>
        <time>2022-07-26T14:06:14Z</time>
      </trkpt>
      <trkpt lat="45.63156" lon="6.62875">
        <ele>2332</ele>
        <time>2022-07-26T14:06:15Z</time>
      </trkpt>
      <trkpt lat="45.63156" lon="6.62875">
        <ele>2332</ele>
        <time>2022-07-26T14:06:16Z</time>
      </trkpt>
      <trkpt lat="45.63155" lon="6.62873">
        <ele>2332</ele>
        <time>2022-07-26T14:06:17Z</time>
      </trkpt>
      <trkpt lat="45.63155" lon="6.62872">
        <ele>2332</ele>
        <time>2022-07-26T14:06:18Z</time>
      </trkpt>
      <trkpt lat="45.63155" lon="6.62871">
        <ele>2332</ele>
        <time>2022-07-26T14:06:19Z</time>
      </trkpt>
      <trkpt lat="45.63154" lon="6.6287">
        <ele>2332</ele>
        <time>2022-07-26T14:06:20Z</time>
      </trkpt>
      <trkpt lat="45.63154" lon="6.62869">
        <ele>2332</ele>
        <time>2022-07-26T14:06:21Z</time>
      </trkpt>
      <trkpt lat="45.63154" lon="6.62869">
        <ele>2332</ele>
        <time>2022-07-26T14:06:22Z</time>
      </trkpt>
      <trkpt lat="45.63154" lon="6.62868">
        <ele>2332</ele>
        <time>2022-07-26T14:06:23Z</time>
      </trkpt>
      <trkpt lat="45.63154" lon="6.62868">
        <ele>2332</ele>
        <time>2022-07-26T14:06:24Z</time>
      </trkpt>
      <trkpt lat="45.63153" lon="6.62867">
        <ele>2332</ele>
        <time>2022-07-26T14:06:25Z</time>
      </trkpt>
      <trkpt lat="45.63153" lon="6.62866">
        <ele>2332</ele>
        <time>2022-07-26T14:06:26Z</time>
      </trkpt>
      <trkpt lat="45.63153" lon="6.62865">
        <ele>2332</ele>
        <time>2022-07-26T14:06:27Z</time>
      </trkpt>
      <trkpt lat="45.63152" lon="6.62864">
        <ele>2332</ele>
        <time>2022-07-26T14:06:28Z</time>
      </trkpt>
      <trkpt lat="45.63152" lon="6.62863">
        <ele>2331</ele>
        <time>2022-07-26T14:06:29Z</time>
      </trkpt>
      <trkpt lat="45.63152" lon="6.62861">
        <ele>2331</ele>
        <time>2022-07-26T14:06:30Z</time>
      </trkpt>
      <trkpt lat="45.63151" lon="6.6286">
        <ele>2331</ele>
        <time>2022-07-26T14:06:31Z</time>
      </trkpt>
      <trkpt lat="45.63151" lon="6.62859">
        <ele>2331</ele>
        <time>2022-07-26T14:06:32Z</time>
      </trkpt>
      <trkpt lat="45.63151" lon="6.62858">
        <ele>2331</ele>
        <time>2022-07-26T14:06:33Z</time>
      </trkpt>
      <trkpt lat="45.63151" lon="6.62856">
        <ele>2331</ele>
        <time>2022-07-26T14:06:34Z</time>
      </trkpt>
      <trkpt lat="45.6315" lon="6.62855">
        <ele>2331</ele>
        <time>2022-07-26T14:06:35Z</time>
      </trkpt>
      <trkpt lat="45.6315" lon="6.62854">
        <ele>2331</ele>
        <time>2022-07-26T14:06:36Z</time>
      </trkpt>
      <trkpt lat="45.63149" lon="6.62853">
        <ele>2331</ele>
        <time>2022-07-26T14:06:37Z</time>
      </trkpt>
      <trkpt lat="45.63148" lon="6.62852">
        <ele>2331</ele>
        <time>2022-07-26T14:06:38Z</time>
      </trkpt>
      <trkpt lat="45.63148" lon="6.62851">
        <ele>2331</ele>
        <time>2022-07-26T14:06:39Z</time>
      </trkpt>
      <trkpt lat="45.63148" lon="6.6285">
        <ele>2331</ele>
        <time>2022-07-26T14:06:40Z</time>
      </trkpt>
      <trkpt lat="45.63147" lon="6.62848">
        <ele>2331</ele>
        <time>2022-07-26T14:06:41Z</time>
      </trkpt>
      <trkpt lat="45.63147" lon="6.62847">
        <ele>2331</ele>
        <time>2022-07-26T14:06:42Z</time>
      </trkpt>
      <trkpt lat="45.63147" lon="6.62845">
        <ele>2331</ele>
        <time>2022-07-26T14:06:43Z</time>
      </trkpt>
      <trkpt lat="45.63146" lon="6.62844">
        <ele>2331</ele>
        <time>2022-07-26T14:06:44Z</time>
      </trkpt>
      <trkpt lat="45.63146" lon="6.62842">
        <ele>2331</ele>
        <time>2022-07-26T14:06:45Z</time>
      </trkpt>
      <trkpt lat="45.63145" lon="6.62841">
        <ele>2331</ele>
        <time>2022-07-26T14:06:46Z</time>
      </trkpt>
      <trkpt lat="45.63145" lon="6.6284">
        <ele>2331</ele>
        <time>2022-07-26T14:06:47Z</time>
      </trkpt>
      <trkpt lat="45.63144" lon="6.62838">
        <ele>2331</ele>
        <time>2022-07-26T14:06:48Z</time>
      </trkpt>
      <trkpt lat="45.63144" lon="6.62837">
        <ele>2330</ele>
        <time>2022-07-26T14:06:49Z</time>
      </trkpt>
      <trkpt lat="45.63143" lon="6.62836">
        <ele>2330</ele>
        <time>2022-07-26T14:06:50Z</time>
      </trkpt>
      <trkpt lat="45.63143" lon="6.62835">
        <ele>2330</ele>
        <time>2022-07-26T14:06:51Z</time>
      </trkpt>
      <trkpt lat="45.63142" lon="6.62834">
        <ele>2330</ele>
        <time>2022-07-26T14:06:52Z</time>
      </trkpt>
      <trkpt lat="45.63142" lon="6.62833">
        <ele>2330</ele>
        <time>2022-07-26T14:06:53Z</time>
      </trkpt>
      <trkpt lat="45.63141" lon="6.62832">
        <ele>2330</ele>
        <time>2022-07-26T14:06:54Z</time>
      </trkpt>
      <trkpt lat="45.63141" lon="6.62831">
        <ele>2330</ele>
        <time>2022-07-26T14:06:55Z</time>
      </trkpt>
      <trkpt lat="45.6314" lon="6.6283">
        <ele>2330</ele>
        <time>2022-07-26T14:06:56Z</time>
      </trkpt>
      <trkpt lat="45.6314" lon="6.62829">
        <ele>2330</ele>
        <time>2022-07-26T14:06:57Z</time>
      </trkpt>
      <trkpt lat="45.6314" lon="6.62828">
        <ele>2330</ele>
        <time>2022-07-26T14:06:58Z</time>
      </trkpt>
      <trkpt lat="45.63139" lon="6.62826">
        <ele>2330</ele>
        <time>2022-07-26T14:06:59Z</time>
      </trkpt>
      <trkpt lat="45.63139" lon="6.62825">
        <ele>2330</ele>
        <time>2022-07-26T14:07:00Z</time>
      </trkpt>
      <trkpt lat="45.63138" lon="6.62824">
        <ele>2330</ele>
        <time>2022-07-26T14:07:01Z</time>
      </trkpt>
      <trkpt lat="45.63138" lon="6.62824">
        <ele>2330</ele>
        <time>2022-07-26T14:07:02Z</time>
      </trkpt>
      <trkpt lat="45.63138" lon="6.62824">
        <ele>2330</ele>
        <time>2022-07-26T14:07:03Z</time>
      </trkpt>
      <trkpt lat="45.63138" lon="6.62823">
        <ele>2330</ele>
        <time>2022-07-26T14:07:04Z</time>
      </trkpt>
      <trkpt lat="45.63138" lon="6.62823">
        <ele>2330</ele>
        <time>2022-07-26T14:07:05Z</time>
      </trkpt>
      <trkpt lat="45.63137" lon="6.62823">
        <ele>2330</ele>
        <time>2022-07-26T14:07:06Z</time>
      </trkpt>
      <trkpt lat="45.63137" lon="6.62822">
        <ele>2330</ele>
        <time>2022-07-26T14:07:07Z</time>
      </trkpt>
      <trkpt lat="45.63136" lon="6.62822">
        <ele>2330</ele>
        <time>2022-07-26T14:07:08Z</time>
      </trkpt>
      <trkpt lat="45.63136" lon="6.62821">
        <ele>2330</ele>
        <time>2022-07-26T14:07:09Z</time>
      </trkpt>
      <trkpt lat="45.63135" lon="6.6282">
        <ele>2330</ele>
        <time>2022-07-26T14:07:10Z</time>
      </trkpt>
      <trkpt lat="45.63134" lon="6.62818">
        <ele>2330</ele>
        <time>2022-07-26T14:07:11Z</time>
      </trkpt>
      <trkpt lat="45.63133" lon="6.62817">
        <ele>2330</ele>
        <time>2022-07-26T14:07:12Z</time>
      </trkpt>
      <trkpt lat="45.63133" lon="6.62815">
        <ele>2330</ele>
        <time>2022-07-26T14:07:13Z</time>
      </trkpt>
      <trkpt lat="45.63132" lon="6.62813">
        <ele>2330</ele>
        <time>2022-07-26T14:07:14Z</time>
      </trkpt>
      <trkpt lat="45.63131" lon="6.62811">
        <ele>2330</ele>
        <time>2022-07-26T14:07:15Z</time>
      </trkpt>
      <trkpt lat="45.63131" lon="6.62809">
        <ele>2330</ele>
        <time>2022-07-26T14:07:16Z</time>
      </trkpt>
      <trkpt lat="45.6313" lon="6.62808">
        <ele>2330</ele>
        <time>2022-07-26T14:07:17Z</time>
      </trkpt>
      <trkpt lat="45.63129" lon="6.62806">
        <ele>2330</ele>
        <time>2022-07-26T14:07:18Z</time>
      </trkpt>
      <trkpt lat="45.63129" lon="6.62804">
        <ele>2329</ele>
        <time>2022-07-26T14:07:19Z</time>
      </trkpt>
      <trkpt lat="45.63128" lon="6.62803">
        <ele>2329</ele>
        <time>2022-07-26T14:07:20Z</time>
      </trkpt>
      <trkpt lat="45.63127" lon="6.62801">
        <ele>2329</ele>
        <time>2022-07-26T14:07:21Z</time>
      </trkpt>
      <trkpt lat="45.63127" lon="6.628">
        <ele>2329</ele>
        <time>2022-07-26T14:07:22Z</time>
      </trkpt>
      <trkpt lat="45.63126" lon="6.62798">
        <ele>2329</ele>
        <time>2022-07-26T14:07:23Z</time>
      </trkpt>
      <trkpt lat="45.63126" lon="6.62796">
        <ele>2329</ele>
        <time>2022-07-26T14:07:24Z</time>
      </trkpt>
      <trkpt lat="45.63125" lon="6.62795">
        <ele>2329</ele>
        <time>2022-07-26T14:07:25Z</time>
      </trkpt>
      <trkpt lat="45.63125" lon="6.62793">
        <ele>2329</ele>
        <time>2022-07-26T14:07:26Z</time>
      </trkpt>
      <trkpt lat="45.63124" lon="6.62792">
        <ele>2329</ele>
        <time>2022-07-26T14:07:27Z</time>
      </trkpt>
      <trkpt lat="45.63124" lon="6.6279">
        <ele>2329</ele>
        <time>2022-07-26T14:07:28Z</time>
      </trkpt>
      <trkpt lat="45.63123" lon="6.62789">
        <ele>2329</ele>
        <time>2022-07-26T14:07:29Z</time>
      </trkpt>
      <trkpt lat="45.63123" lon="6.62787">
        <ele>2329</ele>
        <time>2022-07-26T14:07:30Z</time>
      </trkpt>
      <trkpt lat="45.63122" lon="6.62785">
        <ele>2329</ele>
        <time>2022-07-26T14:07:31Z</time>
      </trkpt>
      <trkpt lat="45.63122" lon="6.62783">
        <ele>2329</ele>
        <time>2022-07-26T14:07:32Z</time>
      </trkpt>
      <trkpt lat="45.63121" lon="6.62782">
        <ele>2329</ele>
        <time>2022-07-26T14:07:33Z</time>
      </trkpt>
      <trkpt lat="45.63121" lon="6.6278">
        <ele>2329</ele>
        <time>2022-07-26T14:07:34Z</time>
      </trkpt>
      <trkpt lat="45.6312" lon="6.62778">
        <ele>2329</ele>
        <time>2022-07-26T14:07:35Z</time>
      </trkpt>
      <trkpt lat="45.6312" lon="6.62778">
        <ele>2329</ele>
        <time>2022-07-26T14:07:36Z</time>
      </trkpt>
      <trkpt lat="45.6312" lon="6.62778">
        <ele>2329</ele>
        <time>2022-07-26T14:07:37Z</time>
      </trkpt>
      <trkpt lat="45.63119" lon="6.62777">
        <ele>2329</ele>
        <time>2022-07-26T14:07:38Z</time>
      </trkpt>
      <trkpt lat="45.63119" lon="6.62777">
        <ele>2329</ele>
        <time>2022-07-26T14:07:39Z</time>
      </trkpt>
      <trkpt lat="45.63119" lon="6.62776">
        <ele>2329</ele>
        <time>2022-07-26T14:07:40Z</time>
      </trkpt>
      <trkpt lat="45.63118" lon="6.62775">
        <ele>2329</ele>
        <time>2022-07-26T14:07:41Z</time>
      </trkpt>
      <trkpt lat="45.63118" lon="6.62775">
        <ele>2329</ele>
        <time>2022-07-26T14:07:42Z</time>
      </trkpt>
      <trkpt lat="45.63117" lon="6.62774">
        <ele>2330</ele>
        <time>2022-07-26T14:07:43Z</time>
      </trkpt>
      <trkpt lat="45.63117" lon="6.62773">
        <ele>2330</ele>
        <time>2022-07-26T14:07:44Z</time>
      </trkpt>
      <trkpt lat="45.63116" lon="6.62771">
        <ele>2330</ele>
        <time>2022-07-26T14:07:45Z</time>
      </trkpt>
      <trkpt lat="45.63116" lon="6.6277">
        <ele>2330</ele>
        <time>2022-07-26T14:07:46Z</time>
      </trkpt>
      <trkpt lat="45.63115" lon="6.62769">
        <ele>2330</ele>
        <time>2022-07-26T14:07:47Z</time>
      </trkpt>
      <trkpt lat="45.63115" lon="6.62767">
        <ele>2330</ele>
        <time>2022-07-26T14:07:48Z</time>
      </trkpt>
      <trkpt lat="45.63114" lon="6.62766">
        <ele>2330</ele>
        <time>2022-07-26T14:07:49Z</time>
      </trkpt>
      <trkpt lat="45.63113" lon="6.62764">
        <ele>2330</ele>
        <time>2022-07-26T14:07:50Z</time>
      </trkpt>
      <trkpt lat="45.63113" lon="6.62762">
        <ele>2330</ele>
        <time>2022-07-26T14:07:51Z</time>
      </trkpt>
      <trkpt lat="45.63112" lon="6.62761">
        <ele>2330</ele>
        <time>2022-07-26T14:07:52Z</time>
      </trkpt>
      <trkpt lat="45.63112" lon="6.62759">
        <ele>2330</ele>
        <time>2022-07-26T14:07:53Z</time>
      </trkpt>
      <trkpt lat="45.63111" lon="6.62757">
        <ele>2330</ele>
        <time>2022-07-26T14:07:54Z</time>
      </trkpt>
      <trkpt lat="45.63111" lon="6.62756">
        <ele>2330</ele>
        <time>2022-07-26T14:07:55Z</time>
      </trkpt>
      <trkpt lat="45.6311" lon="6.62754">
        <ele>2330</ele>
        <time>2022-07-26T14:07:56Z</time>
      </trkpt>
      <trkpt lat="45.6311" lon="6.62752">
        <ele>2330</ele>
        <time>2022-07-26T14:07:57Z</time>
      </trkpt>
      <trkpt lat="45.6311" lon="6.6275">
        <ele>2330</ele>
        <time>2022-07-26T14:07:58Z</time>
      </trkpt>
      <trkpt lat="45.63109" lon="6.62749">
        <ele>2330</ele>
        <time>2022-07-26T14:07:59Z</time>
      </trkpt>
      <trkpt lat="45.63109" lon="6.62747">
        <ele>2330</ele>
        <time>2022-07-26T14:08:00Z</time>
      </trkpt>
      <trkpt lat="45.63108" lon="6.62746">
        <ele>2330</ele>
        <time>2022-07-26T14:08:01Z</time>
      </trkpt>
      <trkpt lat="45.63108" lon="6.62744">
        <ele>2330</ele>
        <time>2022-07-26T14:08:02Z</time>
      </trkpt>
      <trkpt lat="45.63107" lon="6.62743">
        <ele>2330</ele>
        <time>2022-07-26T14:08:03Z</time>
      </trkpt>
      <trkpt lat="45.63106" lon="6.62742">
        <ele>2330</ele>
        <time>2022-07-26T14:08:04Z</time>
      </trkpt>
      <trkpt lat="45.63106" lon="6.62741">
        <ele>2330</ele>
        <time>2022-07-26T14:08:05Z</time>
      </trkpt>
      <trkpt lat="45.63105" lon="6.62739">
        <ele>2330</ele>
        <time>2022-07-26T14:08:06Z</time>
      </trkpt>
      <trkpt lat="45.63105" lon="6.62738">
        <ele>2330</ele>
        <time>2022-07-26T14:08:07Z</time>
      </trkpt>
      <trkpt lat="45.63104" lon="6.62737">
        <ele>2331</ele>
        <time>2022-07-26T14:08:08Z</time>
      </trkpt>
      <trkpt lat="45.63104" lon="6.62736">
        <ele>2331</ele>
        <time>2022-07-26T14:08:09Z</time>
      </trkpt>
      <trkpt lat="45.63103" lon="6.62735">
        <ele>2331</ele>
        <time>2022-07-26T14:08:10Z</time>
      </trkpt>
      <trkpt lat="45.63103" lon="6.62734">
        <ele>2331</ele>
        <time>2022-07-26T14:08:11Z</time>
      </trkpt>
      <trkpt lat="45.63102" lon="6.62732">
        <ele>2331</ele>
        <time>2022-07-26T14:08:12Z</time>
      </trkpt>
      <trkpt lat="45.63101" lon="6.62731">
        <ele>2331</ele>
        <time>2022-07-26T14:08:13Z</time>
      </trkpt>
      <trkpt lat="45.63101" lon="6.6273">
        <ele>2331</ele>
        <time>2022-07-26T14:08:14Z</time>
      </trkpt>
      <trkpt lat="45.631" lon="6.62729">
        <ele>2331</ele>
        <time>2022-07-26T14:08:15Z</time>
      </trkpt>
      <trkpt lat="45.631" lon="6.62728">
        <ele>2331</ele>
        <time>2022-07-26T14:08:16Z</time>
      </trkpt>
      <trkpt lat="45.63099" lon="6.62726">
        <ele>2331</ele>
        <time>2022-07-26T14:08:22Z</time>
      </trkpt>
      <trkpt lat="45.63099" lon="6.62725">
        <ele>2332</ele>
        <time>2022-07-26T14:08:23Z</time>
      </trkpt>
      <trkpt lat="45.63099" lon="6.62724">
        <ele>2332</ele>
        <time>2022-07-26T14:08:24Z</time>
      </trkpt>
      <trkpt lat="45.63099" lon="6.62723">
        <ele>2332</ele>
        <time>2022-07-26T14:08:25Z</time>
      </trkpt>
      <trkpt lat="45.63099" lon="6.62722">
        <ele>2332</ele>
        <time>2022-07-26T14:08:26Z</time>
      </trkpt>
      <trkpt lat="45.63098" lon="6.6272">
        <ele>2332</ele>
        <time>2022-07-26T14:08:27Z</time>
      </trkpt>
      <trkpt lat="45.63098" lon="6.62718">
        <ele>2332</ele>
        <time>2022-07-26T14:08:28Z</time>
      </trkpt>
      <trkpt lat="45.63098" lon="6.62717">
        <ele>2332</ele>
        <time>2022-07-26T14:08:29Z</time>
      </trkpt>
      <trkpt lat="45.63097" lon="6.62715">
        <ele>2332</ele>
        <time>2022-07-26T14:08:30Z</time>
      </trkpt>
      <trkpt lat="45.63097" lon="6.62714">
        <ele>2332</ele>
        <time>2022-07-26T14:08:31Z</time>
      </trkpt>
      <trkpt lat="45.63097" lon="6.62714">
        <ele>2332</ele>
        <time>2022-07-26T14:08:32Z</time>
      </trkpt>
      <trkpt lat="45.63097" lon="6.62713">
        <ele>2332</ele>
        <time>2022-07-26T14:08:33Z</time>
      </trkpt>
      <trkpt lat="45.63097" lon="6.62712">
        <ele>2332</ele>
        <time>2022-07-26T14:08:34Z</time>
      </trkpt>
      <trkpt lat="45.63097" lon="6.62711">
        <ele>2332</ele>
        <time>2022-07-26T14:08:35Z</time>
      </trkpt>
      <trkpt lat="45.63096" lon="6.6271">
        <ele>2332</ele>
        <time>2022-07-26T14:08:36Z</time>
      </trkpt>
      <trkpt lat="45.63096" lon="6.62709">
        <ele>2332</ele>
        <time>2022-07-26T14:08:37Z</time>
      </trkpt>
      <trkpt lat="45.63096" lon="6.62708">
        <ele>2332</ele>
        <time>2022-07-26T14:08:38Z</time>
      </trkpt>
      <trkpt lat="45.63096" lon="6.62707">
        <ele>2332</ele>
        <time>2022-07-26T14:08:39Z</time>
      </trkpt>
      <trkpt lat="45.63095" lon="6.62706">
        <ele>2332</ele>
        <time>2022-07-26T14:08:40Z</time>
      </trkpt>
      <trkpt lat="45.63095" lon="6.62705">
        <ele>2332</ele>
        <time>2022-07-26T14:08:41Z</time>
      </trkpt>
      <trkpt lat="45.63094" lon="6.62704">
        <ele>2332</ele>
        <time>2022-07-26T14:08:42Z</time>
      </trkpt>
      <trkpt lat="45.63094" lon="6.62703">
        <ele>2332</ele>
        <time>2022-07-26T14:08:43Z</time>
      </trkpt>
      <trkpt lat="45.63093" lon="6.62702">
        <ele>2332</ele>
        <time>2022-07-26T14:08:44Z</time>
      </trkpt>
      <trkpt lat="45.63093" lon="6.62701">
        <ele>2332</ele>
        <time>2022-07-26T14:08:45Z</time>
      </trkpt>
      <trkpt lat="45.63092" lon="6.62699">
        <ele>2332</ele>
        <time>2022-07-26T14:08:46Z</time>
      </trkpt>
      <trkpt lat="45.63092" lon="6.62698">
        <ele>2332</ele>
        <time>2022-07-26T14:08:47Z</time>
      </trkpt>
      <trkpt lat="45.63091" lon="6.62697">
        <ele>2332</ele>
        <time>2022-07-26T14:08:48Z</time>
      </trkpt>
      <trkpt lat="45.6309" lon="6.62695">
        <ele>2332</ele>
        <time>2022-07-26T14:08:49Z</time>
      </trkpt>
      <trkpt lat="45.6309" lon="6.62694">
        <ele>2332</ele>
        <time>2022-07-26T14:08:50Z</time>
      </trkpt>
      <trkpt lat="45.6309" lon="6.62692">
        <ele>2332</ele>
        <time>2022-07-26T14:08:51Z</time>
      </trkpt>
      <trkpt lat="45.63089" lon="6.62691">
        <ele>2332</ele>
        <time>2022-07-26T14:08:52Z</time>
      </trkpt>
      <trkpt lat="45.63089" lon="6.6269">
        <ele>2332</ele>
        <time>2022-07-26T14:08:53Z</time>
      </trkpt>
      <trkpt lat="45.63088" lon="6.62689">
        <ele>2332</ele>
        <time>2022-07-26T14:08:54Z</time>
      </trkpt>
      <trkpt lat="45.63088" lon="6.62687">
        <ele>2332</ele>
        <time>2022-07-26T14:08:55Z</time>
      </trkpt>
      <trkpt lat="45.63088" lon="6.62686">
        <ele>2332</ele>
        <time>2022-07-26T14:08:56Z</time>
      </trkpt>
      <trkpt lat="45.63087" lon="6.62684">
        <ele>2332</ele>
        <time>2022-07-26T14:08:57Z</time>
      </trkpt>
      <trkpt lat="45.63087" lon="6.62683">
        <ele>2332</ele>
        <time>2022-07-26T14:08:58Z</time>
      </trkpt>
      <trkpt lat="45.63087" lon="6.62681">
        <ele>2332</ele>
        <time>2022-07-26T14:08:59Z</time>
      </trkpt>
      <trkpt lat="45.63086" lon="6.6268">
        <ele>2332</ele>
        <time>2022-07-26T14:09:00Z</time>
      </trkpt>
      <trkpt lat="45.63086" lon="6.62678">
        <ele>2332</ele>
        <time>2022-07-26T14:09:01Z</time>
      </trkpt>
      <trkpt lat="45.63086" lon="6.62677">
        <ele>2332</ele>
        <time>2022-07-26T14:09:02Z</time>
      </trkpt>
      <trkpt lat="45.63085" lon="6.62676">
        <ele>2332</ele>
        <time>2022-07-26T14:09:03Z</time>
      </trkpt>
      <trkpt lat="45.63085" lon="6.62674">
        <ele>2332</ele>
        <time>2022-07-26T14:09:04Z</time>
      </trkpt>
      <trkpt lat="45.63085" lon="6.62673">
        <ele>2332</ele>
        <time>2022-07-26T14:09:05Z</time>
      </trkpt>
      <trkpt lat="45.63084" lon="6.62672">
        <ele>2332</ele>
        <time>2022-07-26T14:09:06Z</time>
      </trkpt>
      <trkpt lat="45.63084" lon="6.62671">
        <ele>2332</ele>
        <time>2022-07-26T14:09:07Z</time>
      </trkpt>
      <trkpt lat="45.63084" lon="6.62669">
        <ele>2332</ele>
        <time>2022-07-26T14:09:08Z</time>
      </trkpt>
      <trkpt lat="45.63084" lon="6.62668">
        <ele>2332</ele>
        <time>2022-07-26T14:09:09Z</time>
      </trkpt>
      <trkpt lat="45.63083" lon="6.62667">
        <ele>2332</ele>
        <time>2022-07-26T14:09:10Z</time>
      </trkpt>
      <trkpt lat="45.63083" lon="6.62665">
        <ele>2332</ele>
        <time>2022-07-26T14:09:11Z</time>
      </trkpt>
      <trkpt lat="45.63083" lon="6.62664">
        <ele>2332</ele>
        <time>2022-07-26T14:09:12Z</time>
      </trkpt>
      <trkpt lat="45.63083" lon="6.62663">
        <ele>2332</ele>
        <time>2022-07-26T14:09:13Z</time>
      </trkpt>
      <trkpt lat="45.63083" lon="6.62662">
        <ele>2332</ele>
        <time>2022-07-26T14:09:14Z</time>
      </trkpt>
      <trkpt lat="45.63083" lon="6.62661">
        <ele>2332</ele>
        <time>2022-07-26T14:09:15Z</time>
      </trkpt>
      <trkpt lat="45.63083" lon="6.6266">
        <ele>2332</ele>
        <time>2022-07-26T14:09:16Z</time>
      </trkpt>
      <trkpt lat="45.63083" lon="6.62659">
        <ele>2332</ele>
        <time>2022-07-26T14:09:17Z</time>
      </trkpt>
      <trkpt lat="45.63082" lon="6.62658">
        <ele>2332</ele>
        <time>2022-07-26T14:09:18Z</time>
      </trkpt>
      <trkpt lat="45.63082" lon="6.62656">
        <ele>2332</ele>
        <time>2022-07-26T14:09:19Z</time>
      </trkpt>
      <trkpt lat="45.63081" lon="6.62655">
        <ele>2332</ele>
        <time>2022-07-26T14:09:20Z</time>
      </trkpt>
      <trkpt lat="45.63081" lon="6.62654">
        <ele>2332</ele>
        <time>2022-07-26T14:09:21Z</time>
      </trkpt>
      <trkpt lat="45.63081" lon="6.62652">
        <ele>2332</ele>
        <time>2022-07-26T14:09:22Z</time>
      </trkpt>
      <trkpt lat="45.6308" lon="6.62651">
        <ele>2332</ele>
        <time>2022-07-26T14:09:23Z</time>
      </trkpt>
      <trkpt lat="45.6308" lon="6.62649">
        <ele>2332</ele>
        <time>2022-07-26T14:09:24Z</time>
      </trkpt>
      <trkpt lat="45.6308" lon="6.62648">
        <ele>2332</ele>
        <time>2022-07-26T14:09:25Z</time>
      </trkpt>
      <trkpt lat="45.63079" lon="6.62646">
        <ele>2332</ele>
        <time>2022-07-26T14:09:26Z</time>
      </trkpt>
      <trkpt lat="45.63079" lon="6.62645">
        <ele>2332</ele>
        <time>2022-07-26T14:09:27Z</time>
      </trkpt>
      <trkpt lat="45.63079" lon="6.62643">
        <ele>2333</ele>
        <time>2022-07-26T14:09:28Z</time>
      </trkpt>
      <trkpt lat="45.63079" lon="6.62642">
        <ele>2333</ele>
        <time>2022-07-26T14:09:29Z</time>
      </trkpt>
      <trkpt lat="45.63078" lon="6.6264">
        <ele>2333</ele>
        <time>2022-07-26T14:09:30Z</time>
      </trkpt>
      <trkpt lat="45.63078" lon="6.62639">
        <ele>2333</ele>
        <time>2022-07-26T14:09:31Z</time>
      </trkpt>
      <trkpt lat="45.63078" lon="6.62637">
        <ele>2333</ele>
        <time>2022-07-26T14:09:32Z</time>
      </trkpt>
      <trkpt lat="45.63078" lon="6.62636">
        <ele>2333</ele>
        <time>2022-07-26T14:09:33Z</time>
      </trkpt>
      <trkpt lat="45.63077" lon="6.62634">
        <ele>2333</ele>
        <time>2022-07-26T14:09:34Z</time>
      </trkpt>
      <trkpt lat="45.63077" lon="6.62633">
        <ele>2333</ele>
        <time>2022-07-26T14:09:35Z</time>
      </trkpt>
      <trkpt lat="45.63076" lon="6.62632">
        <ele>2333</ele>
        <time>2022-07-26T14:09:36Z</time>
      </trkpt>
      <trkpt lat="45.63076" lon="6.62631">
        <ele>2333</ele>
        <time>2022-07-26T14:09:37Z</time>
      </trkpt>
      <trkpt lat="45.63075" lon="6.6263">
        <ele>2333</ele>
        <time>2022-07-26T14:09:38Z</time>
      </trkpt>
      <trkpt lat="45.63075" lon="6.62629">
        <ele>2333</ele>
        <time>2022-07-26T14:09:39Z</time>
      </trkpt>
      <trkpt lat="45.63074" lon="6.62628">
        <ele>2333</ele>
        <time>2022-07-26T14:09:40Z</time>
      </trkpt>
      <trkpt lat="45.63074" lon="6.62627">
        <ele>2333</ele>
        <time>2022-07-26T14:09:41Z</time>
      </trkpt>
      <trkpt lat="45.63074" lon="6.62626">
        <ele>2333</ele>
        <time>2022-07-26T14:09:42Z</time>
      </trkpt>
      <trkpt lat="45.63073" lon="6.62625">
        <ele>2333</ele>
        <time>2022-07-26T14:09:43Z</time>
      </trkpt>
      <trkpt lat="45.63073" lon="6.62623">
        <ele>2334</ele>
        <time>2022-07-26T14:09:49Z</time>
      </trkpt>
      <trkpt lat="45.63073" lon="6.62622">
        <ele>2334</ele>
        <time>2022-07-26T14:09:50Z</time>
      </trkpt>
      <trkpt lat="45.63072" lon="6.62621">
        <ele>2334</ele>
        <time>2022-07-26T14:09:51Z</time>
      </trkpt>
      <trkpt lat="45.63072" lon="6.6262">
        <ele>2334</ele>
        <time>2022-07-26T14:09:52Z</time>
      </trkpt>
      <trkpt lat="45.63072" lon="6.62619">
        <ele>2334</ele>
        <time>2022-07-26T14:09:53Z</time>
      </trkpt>
      <trkpt lat="45.63072" lon="6.62618">
        <ele>2334</ele>
        <time>2022-07-26T14:09:54Z</time>
      </trkpt>
      <trkpt lat="45.63072" lon="6.62618">
        <ele>2334</ele>
        <time>2022-07-26T14:09:55Z</time>
      </trkpt>
      <trkpt lat="45.63071" lon="6.62617">
        <ele>2334</ele>
        <time>2022-07-26T14:09:56Z</time>
      </trkpt>
      <trkpt lat="45.63071" lon="6.62614">
        <ele>2336</ele>
        <time>2022-07-26T14:10:03Z</time>
      </trkpt>
      <trkpt lat="45.6307" lon="6.62613">
        <ele>2336</ele>
        <time>2022-07-26T14:10:04Z</time>
      </trkpt>
      <trkpt lat="45.6307" lon="6.62612">
        <ele>2336</ele>
        <time>2022-07-26T14:10:05Z</time>
      </trkpt>
      <trkpt lat="45.6307" lon="6.62611">
        <ele>2336</ele>
        <time>2022-07-26T14:10:06Z</time>
      </trkpt>
      <trkpt lat="45.6307" lon="6.6261">
        <ele>2336</ele>
        <time>2022-07-26T14:10:07Z</time>
      </trkpt>
      <trkpt lat="45.63069" lon="6.6261">
        <ele>2337</ele>
        <time>2022-07-26T14:10:08Z</time>
      </trkpt>
      <trkpt lat="45.63069" lon="6.62609">
        <ele>2337</ele>
        <time>2022-07-26T14:10:09Z</time>
      </trkpt>
      <trkpt lat="45.63069" lon="6.62608">
        <ele>2337</ele>
        <time>2022-07-26T14:10:10Z</time>
      </trkpt>
      <trkpt lat="45.63069" lon="6.62608">
        <ele>2337</ele>
        <time>2022-07-26T14:10:11Z</time>
      </trkpt>
      <trkpt lat="45.63068" lon="6.62604">
        <ele>2340</ele>
        <time>2022-07-26T14:10:24Z</time>
      </trkpt>
      <trkpt lat="45.63068" lon="6.62602">
        <ele>2340</ele>
        <time>2022-07-26T14:10:25Z</time>
      </trkpt>
      <trkpt lat="45.63067" lon="6.626">
        <ele>2340</ele>
        <time>2022-07-26T14:10:26Z</time>
      </trkpt>
      <trkpt lat="45.63067" lon="6.62599">
        <ele>2340</ele>
        <time>2022-07-26T14:10:27Z</time>
      </trkpt>
      <trkpt lat="45.63067" lon="6.62598">
        <ele>2341</ele>
        <time>2022-07-26T14:10:28Z</time>
      </trkpt>
      <trkpt lat="45.63064" lon="6.62593">
        <ele>2350</ele>
        <time>2022-07-26T14:12:25Z</time>
      </trkpt>
      <trkpt lat="45.63062" lon="6.6259">
        <ele>2350</ele>
        <time>2022-07-26T14:12:26Z</time>
      </trkpt>
      <trkpt lat="45.6306" lon="6.62587">
        <ele>2350</ele>
        <time>2022-07-26T14:12:27Z</time>
      </trkpt>
      <trkpt lat="45.63059" lon="6.62586">
        <ele>2350</ele>
        <time>2022-07-26T14:12:28Z</time>
      </trkpt>
      <trkpt lat="45.63059" lon="6.62586">
        <ele>2350</ele>
        <time>2022-07-26T14:12:29Z</time>
      </trkpt>
      <trkpt lat="45.63058" lon="6.62585">
        <ele>2350</ele>
        <time>2022-07-26T14:12:30Z</time>
      </trkpt>
      <trkpt lat="45.63058" lon="6.62584">
        <ele>2350</ele>
        <time>2022-07-26T14:12:31Z</time>
      </trkpt>
      <trkpt lat="45.63058" lon="6.62584">
        <ele>2350</ele>
        <time>2022-07-26T14:12:32Z</time>
      </trkpt>
      <trkpt lat="45.63057" lon="6.62582">
        <ele>2350</ele>
        <time>2022-07-26T14:12:33Z</time>
      </trkpt>
      <trkpt lat="45.63056" lon="6.6258">
        <ele>2350</ele>
        <time>2022-07-26T14:12:34Z</time>
      </trkpt>
      <trkpt lat="45.63055" lon="6.62579">
        <ele>2350</ele>
        <time>2022-07-26T14:12:35Z</time>
      </trkpt>
      <trkpt lat="45.63055" lon="6.62578">
        <ele>2350</ele>
        <time>2022-07-26T14:12:36Z</time>
      </trkpt>
      <trkpt lat="45.63054" lon="6.62577">
        <ele>2350</ele>
        <time>2022-07-26T14:12:37Z</time>
      </trkpt>
      <trkpt lat="45.63054" lon="6.62576">
        <ele>2351</ele>
        <time>2022-07-26T14:12:38Z</time>
      </trkpt>
      <trkpt lat="45.63054" lon="6.62574">
        <ele>2351</ele>
        <time>2022-07-26T14:12:39Z</time>
      </trkpt>
      <trkpt lat="45.63054" lon="6.62573">
        <ele>2351</ele>
        <time>2022-07-26T14:12:40Z</time>
      </trkpt>
      <trkpt lat="45.63053" lon="6.62572">
        <ele>2351</ele>
        <time>2022-07-26T14:12:41Z</time>
      </trkpt>
      <trkpt lat="45.63053" lon="6.62571">
        <ele>2351</ele>
        <time>2022-07-26T14:12:42Z</time>
      </trkpt>
      <trkpt lat="45.63053" lon="6.6257">
        <ele>2352</ele>
        <time>2022-07-26T14:12:43Z</time>
      </trkpt>
      <trkpt lat="45.63053" lon="6.6257">
        <ele>2352</ele>
        <time>2022-07-26T14:12:44Z</time>
      </trkpt>
      <trkpt lat="45.63052" lon="6.62569">
        <ele>2352</ele>
        <time>2022-07-26T14:12:45Z</time>
      </trkpt>
      <trkpt lat="45.63052" lon="6.62568">
        <ele>2352</ele>
        <time>2022-07-26T14:12:46Z</time>
      </trkpt>
      <trkpt lat="45.63052" lon="6.62568">
        <ele>2352</ele>
        <time>2022-07-26T14:12:47Z</time>
      </trkpt>
      <trkpt lat="45.63052" lon="6.62567">
        <ele>2352</ele>
        <time>2022-07-26T14:12:48Z</time>
      </trkpt>
      <trkpt lat="45.63051" lon="6.62566">
        <ele>2352</ele>
        <time>2022-07-26T14:12:49Z</time>
      </trkpt>
      <trkpt lat="45.63051" lon="6.62566">
        <ele>2352</ele>
        <time>2022-07-26T14:12:50Z</time>
      </trkpt>
      <trkpt lat="45.63051" lon="6.62565">
        <ele>2352</ele>
        <time>2022-07-26T14:12:51Z</time>
      </trkpt>
      <trkpt lat="45.6305" lon="6.62564">
        <ele>2352</ele>
        <time>2022-07-26T14:12:52Z</time>
      </trkpt>
      <trkpt lat="45.6305" lon="6.62563">
        <ele>2353</ele>
        <time>2022-07-26T14:12:53Z</time>
      </trkpt>
      <trkpt lat="45.6305" lon="6.62563">
        <ele>2353</ele>
        <time>2022-07-26T14:12:54Z</time>
      </trkpt>
      <trkpt lat="45.6305" lon="6.62562">
        <ele>2353</ele>
        <time>2022-07-26T14:12:55Z</time>
      </trkpt>
      <trkpt lat="45.6305" lon="6.62561">
        <ele>2353</ele>
        <time>2022-07-26T14:12:56Z</time>
      </trkpt>
      <trkpt lat="45.6305" lon="6.6256">
        <ele>2353</ele>
        <time>2022-07-26T14:12:57Z</time>
      </trkpt>
      <trkpt lat="45.6305" lon="6.62559">
        <ele>2354</ele>
        <time>2022-07-26T14:12:58Z</time>
      </trkpt>
      <trkpt lat="45.6305" lon="6.62558">
        <ele>2354</ele>
        <time>2022-07-26T14:12:59Z</time>
      </trkpt>
      <trkpt lat="45.63049" lon="6.62557">
        <ele>2354</ele>
        <time>2022-07-26T14:13:00Z</time>
      </trkpt>
      <trkpt lat="45.63049" lon="6.62556">
        <ele>2355</ele>
        <time>2022-07-26T14:13:01Z</time>
      </trkpt>
      <trkpt lat="45.63049" lon="6.62555">
        <ele>2355</ele>
        <time>2022-07-26T14:13:02Z</time>
      </trkpt>
      <trkpt lat="45.6305" lon="6.62553">
        <ele>2357</ele>
        <time>2022-07-26T14:13:08Z</time>
      </trkpt>
      <trkpt lat="45.6305" lon="6.62552">
        <ele>2357</ele>
        <time>2022-07-26T14:13:09Z</time>
      </trkpt>
      <trkpt lat="45.6305" lon="6.62551">
        <ele>2357</ele>
        <time>2022-07-26T14:13:10Z</time>
      </trkpt>
      <trkpt lat="45.6305" lon="6.6255">
        <ele>2357</ele>
        <time>2022-07-26T14:13:11Z</time>
      </trkpt>
      <trkpt lat="45.6305" lon="6.6255">
        <ele>2357</ele>
        <time>2022-07-26T14:13:12Z</time>
      </trkpt>
      <trkpt lat="45.63049" lon="6.62549">
        <ele>2358</ele>
        <time>2022-07-26T14:13:13Z</time>
      </trkpt>
      <trkpt lat="45.63049" lon="6.62548">
        <ele>2358</ele>
        <time>2022-07-26T14:13:14Z</time>
      </trkpt>
      <trkpt lat="45.63048" lon="6.62547">
        <ele>2358</ele>
        <time>2022-07-26T14:13:15Z</time>
      </trkpt>
      <trkpt lat="45.63048" lon="6.62547">
        <ele>2358</ele>
        <time>2022-07-26T14:13:16Z</time>
      </trkpt>
      <trkpt lat="45.63048" lon="6.62545">
        <ele>2361</ele>
        <time>2022-07-26T14:13:29Z</time>
      </trkpt>
      <trkpt lat="45.63048" lon="6.62544">
        <ele>2361</ele>
        <time>2022-07-26T14:13:30Z</time>
      </trkpt>
      <trkpt lat="45.63048" lon="6.62543">
        <ele>2361</ele>
        <time>2022-07-26T14:13:31Z</time>
      </trkpt>
      <trkpt lat="45.63048" lon="6.62543">
        <ele>2361</ele>
        <time>2022-07-26T14:13:32Z</time>
      </trkpt>
      <trkpt lat="45.63048" lon="6.62542">
        <ele>2362</ele>
        <time>2022-07-26T14:13:33Z</time>
      </trkpt>
      <trkpt lat="45.63048" lon="6.62542">
        <ele>2362</ele>
        <time>2022-07-26T14:13:34Z</time>
      </trkpt>
      <trkpt lat="45.63048" lon="6.62541">
        <ele>2362</ele>
        <time>2022-07-26T14:13:35Z</time>
      </trkpt>
      <trkpt lat="45.63048" lon="6.62541">
        <ele>2362</ele>
        <time>2022-07-26T14:13:36Z</time>
      </trkpt>
      <trkpt lat="45.63048" lon="6.6254">
        <ele>2362</ele>
        <time>2022-07-26T14:13:37Z</time>
      </trkpt>
      <trkpt lat="45.63049" lon="6.62539">
        <ele>2363</ele>
        <time>2022-07-26T14:13:38Z</time>
      </trkpt>
      <trkpt lat="45.63049" lon="6.62537">
        <ele>2363</ele>
        <time>2022-07-26T14:13:39Z</time>
      </trkpt>
      <trkpt lat="45.63049" lon="6.62536">
        <ele>2363</ele>
        <time>2022-07-26T14:13:40Z</time>
      </trkpt>
      <trkpt lat="45.63049" lon="6.62535">
        <ele>2363</ele>
        <time>2022-07-26T14:13:41Z</time>
      </trkpt>
      <trkpt lat="45.63049" lon="6.62534">
        <ele>2363</ele>
        <time>2022-07-26T14:13:42Z</time>
      </trkpt>
      <trkpt lat="45.6305" lon="6.62533">
        <ele>2364</ele>
        <time>2022-07-26T14:13:43Z</time>
      </trkpt>
      <trkpt lat="45.6305" lon="6.62532">
        <ele>2364</ele>
        <time>2022-07-26T14:13:44Z</time>
      </trkpt>
      <trkpt lat="45.63051" lon="6.62531">
        <ele>2364</ele>
        <time>2022-07-26T14:13:45Z</time>
      </trkpt>
      <trkpt lat="45.63051" lon="6.62529">
        <ele>2364</ele>
        <time>2022-07-26T14:13:46Z</time>
      </trkpt>
      <trkpt lat="45.63052" lon="6.62529">
        <ele>2364</ele>
        <time>2022-07-26T14:13:47Z</time>
      </trkpt>
      <trkpt lat="45.63052" lon="6.62528">
        <ele>2364</ele>
        <time>2022-07-26T14:13:48Z</time>
      </trkpt>
      <trkpt lat="45.63053" lon="6.62527">
        <ele>2364</ele>
        <time>2022-07-26T14:13:49Z</time>
      </trkpt>
      <trkpt lat="45.63053" lon="6.62526">
        <ele>2364</ele>
        <time>2022-07-26T14:13:50Z</time>
      </trkpt>
      <trkpt lat="45.63054" lon="6.62525">
        <ele>2367</ele>
        <time>2022-07-26T14:13:59Z</time>
      </trkpt>
      <trkpt lat="45.63055" lon="6.62524">
        <ele>2367</ele>
        <time>2022-07-26T14:14:00Z</time>
      </trkpt>
      <trkpt lat="45.63055" lon="6.62522">
        <ele>2367</ele>
        <time>2022-07-26T14:14:01Z</time>
      </trkpt>
      <trkpt lat="45.63055" lon="6.62522">
        <ele>2367</ele>
        <time>2022-07-26T14:14:02Z</time>
      </trkpt>
      <trkpt lat="45.63055" lon="6.62521">
        <ele>2368</ele>
        <time>2022-07-26T14:14:03Z</time>
      </trkpt>
      <trkpt lat="45.63054" lon="6.62521">
        <ele>2368</ele>
        <time>2022-07-26T14:14:04Z</time>
      </trkpt>
      <trkpt lat="45.63054" lon="6.62521">
        <ele>2368</ele>
        <time>2022-07-26T14:14:05Z</time>
      </trkpt>
      <trkpt lat="45.63054" lon="6.62521">
        <ele>2368</ele>
        <time>2022-07-26T14:14:06Z</time>
      </trkpt>
      <trkpt lat="45.63053" lon="6.62521">
        <ele>2368</ele>
        <time>2022-07-26T14:14:07Z</time>
      </trkpt>
      <trkpt lat="45.63053" lon="6.62521">
        <ele>2369</ele>
        <time>2022-07-26T14:14:08Z</time>
      </trkpt>
      <trkpt lat="45.63053" lon="6.62521">
        <ele>2369</ele>
        <time>2022-07-26T14:14:09Z</time>
      </trkpt>
      <trkpt lat="45.63053" lon="6.6252">
        <ele>2369</ele>
        <time>2022-07-26T14:14:10Z</time>
      </trkpt>
      <trkpt lat="45.63052" lon="6.62521">
        <ele>2369</ele>
        <time>2022-07-26T14:14:11Z</time>
      </trkpt>
      <trkpt lat="45.63051" lon="6.62521">
        <ele>2369</ele>
        <time>2022-07-26T14:14:12Z</time>
      </trkpt>
      <trkpt lat="45.6305" lon="6.62521">
        <ele>2370</ele>
        <time>2022-07-26T14:14:13Z</time>
      </trkpt>
      <trkpt lat="45.63049" lon="6.62521">
        <ele>2370</ele>
        <time>2022-07-26T14:14:14Z</time>
      </trkpt>
      <trkpt lat="45.63049" lon="6.62522">
        <ele>2370</ele>
        <time>2022-07-26T14:14:15Z</time>
      </trkpt>
      <trkpt lat="45.63048" lon="6.62522">
        <ele>2370</ele>
        <time>2022-07-26T14:14:16Z</time>
      </trkpt>
      <trkpt lat="45.63047" lon="6.62523">
        <ele>2370</ele>
        <time>2022-07-26T14:14:17Z</time>
      </trkpt>
      <trkpt lat="45.63047" lon="6.62524">
        <ele>2371</ele>
        <time>2022-07-26T14:14:18Z</time>
      </trkpt>
      <trkpt lat="45.63046" lon="6.62525">
        <ele>2371</ele>
        <time>2022-07-26T14:14:19Z</time>
      </trkpt>
      <trkpt lat="45.63045" lon="6.62526">
        <ele>2371</ele>
        <time>2022-07-26T14:14:20Z</time>
      </trkpt>
      <trkpt lat="45.63044" lon="6.62527">
        <ele>2371</ele>
        <time>2022-07-26T14:14:21Z</time>
      </trkpt>
      <trkpt lat="45.63043" lon="6.62528">
        <ele>2371</ele>
        <time>2022-07-26T14:14:22Z</time>
      </trkpt>
      <trkpt lat="45.63042" lon="6.62528">
        <ele>2372</ele>
        <time>2022-07-26T14:14:23Z</time>
      </trkpt>
      <trkpt lat="45.63041" lon="6.62529">
        <ele>2372</ele>
        <time>2022-07-26T14:14:24Z</time>
      </trkpt>
      <trkpt lat="45.63041" lon="6.62529">
        <ele>2372</ele>
        <time>2022-07-26T14:14:25Z</time>
      </trkpt>
      <trkpt lat="45.6304" lon="6.62529">
        <ele>2372</ele>
        <time>2022-07-26T14:14:26Z</time>
      </trkpt>
      <trkpt lat="45.63039" lon="6.62529">
        <ele>2372</ele>
        <time>2022-07-26T14:14:27Z</time>
      </trkpt>
      <trkpt lat="45.63039" lon="6.6253">
        <ele>2373</ele>
        <time>2022-07-26T14:14:28Z</time>
      </trkpt>
      <trkpt lat="45.63038" lon="6.6253">
        <ele>2373</ele>
        <time>2022-07-26T14:14:29Z</time>
      </trkpt>
      <trkpt lat="45.63038" lon="6.62531">
        <ele>2373</ele>
        <time>2022-07-26T14:14:30Z</time>
      </trkpt>
      <trkpt lat="45.63037" lon="6.62532">
        <ele>2373</ele>
        <time>2022-07-26T14:14:31Z</time>
      </trkpt>
      <trkpt lat="45.63037" lon="6.62533">
        <ele>2373</ele>
        <time>2022-07-26T14:14:32Z</time>
      </trkpt>
      <trkpt lat="45.63036" lon="6.62534">
        <ele>2374</ele>
        <time>2022-07-26T14:14:33Z</time>
      </trkpt>
      <trkpt lat="45.63036" lon="6.62535">
        <ele>2374</ele>
        <time>2022-07-26T14:14:34Z</time>
      </trkpt>
      <trkpt lat="45.63035" lon="6.62536">
        <ele>2374</ele>
        <time>2022-07-26T14:14:35Z</time>
      </trkpt>
      <trkpt lat="45.63034" lon="6.62537">
        <ele>2374</ele>
        <time>2022-07-26T14:14:36Z</time>
      </trkpt>
      <trkpt lat="45.63032" lon="6.62538">
        <ele>2374</ele>
        <time>2022-07-26T14:14:42Z</time>
      </trkpt>
      <trkpt lat="45.63032" lon="6.62538">
        <ele>2375</ele>
        <time>2022-07-26T14:14:43Z</time>
      </trkpt>
      <trkpt lat="45.63031" lon="6.62539">
        <ele>2375</ele>
        <time>2022-07-26T14:14:44Z</time>
      </trkpt>
      <trkpt lat="45.63028" lon="6.6254">
        <ele>2379</ele>
        <time>2022-07-26T14:15:03Z</time>
      </trkpt>
      <trkpt lat="45.63027" lon="6.62541">
        <ele>2379</ele>
        <time>2022-07-26T14:15:04Z</time>
      </trkpt>
      <trkpt lat="45.63025" lon="6.62542">
        <ele>2379</ele>
        <time>2022-07-26T14:15:05Z</time>
      </trkpt>
      <trkpt lat="45.63025" lon="6.62542">
        <ele>2379</ele>
        <time>2022-07-26T14:15:06Z</time>
      </trkpt>
      <trkpt lat="45.63024" lon="6.62543">
        <ele>2379</ele>
        <time>2022-07-26T14:15:07Z</time>
      </trkpt>
      <trkpt lat="45.63023" lon="6.62543">
        <ele>2380</ele>
        <time>2022-07-26T14:15:08Z</time>
      </trkpt>
      <trkpt lat="45.63021" lon="6.62541">
        <ele>2386</ele>
        <time>2022-07-26T14:15:39Z</time>
      </trkpt>
      <trkpt lat="45.63021" lon="6.6254">
        <ele>2386</ele>
        <time>2022-07-26T14:15:40Z</time>
      </trkpt>
      <trkpt lat="45.6302" lon="6.62538">
        <ele>2386</ele>
        <time>2022-07-26T14:15:41Z</time>
      </trkpt>
      <trkpt lat="45.63019" lon="6.62538">
        <ele>2386</ele>
        <time>2022-07-26T14:15:42Z</time>
      </trkpt>
      <trkpt lat="45.63019" lon="6.62537">
        <ele>2386</ele>
        <time>2022-07-26T14:15:43Z</time>
      </trkpt>
      <trkpt lat="45.63018" lon="6.62537">
        <ele>2386</ele>
        <time>2022-07-26T14:15:44Z</time>
      </trkpt>
      <trkpt lat="45.63018" lon="6.62537">
        <ele>2386</ele>
        <time>2022-07-26T14:15:45Z</time>
      </trkpt>
      <trkpt lat="45.63017" lon="6.62538">
        <ele>2386</ele>
        <time>2022-07-26T14:15:46Z</time>
      </trkpt>
      <trkpt lat="45.63017" lon="6.62538">
        <ele>2386</ele>
        <time>2022-07-26T14:15:47Z</time>
      </trkpt>
      <trkpt lat="45.63016" lon="6.62538">
        <ele>2387</ele>
        <time>2022-07-26T14:15:48Z</time>
      </trkpt>
      <trkpt lat="45.63015" lon="6.62538">
        <ele>2387</ele>
        <time>2022-07-26T14:15:49Z</time>
      </trkpt>
      <trkpt lat="45.63014" lon="6.62539">
        <ele>2387</ele>
        <time>2022-07-26T14:15:50Z</time>
      </trkpt>
      <trkpt lat="45.63013" lon="6.6254">
        <ele>2388</ele>
        <time>2022-07-26T14:16:01Z</time>
      </trkpt>
      <trkpt lat="45.63012" lon="6.6254">
        <ele>2388</ele>
        <time>2022-07-26T14:16:02Z</time>
      </trkpt>
      <trkpt lat="45.63011" lon="6.6254">
        <ele>2389</ele>
        <time>2022-07-26T14:16:03Z</time>
      </trkpt>
      <trkpt lat="45.63011" lon="6.6254">
        <ele>2389</ele>
        <time>2022-07-26T14:16:04Z</time>
      </trkpt>
      <trkpt lat="45.63011" lon="6.62539">
        <ele>2389</ele>
        <time>2022-07-26T14:16:05Z</time>
      </trkpt>
      <trkpt lat="45.63011" lon="6.62538">
        <ele>2390</ele>
        <time>2022-07-26T14:16:11Z</time>
      </trkpt>
      <trkpt lat="45.63011" lon="6.62537">
        <ele>2390</ele>
        <time>2022-07-26T14:16:12Z</time>
      </trkpt>
      <trkpt lat="45.63011" lon="6.62536">
        <ele>2391</ele>
        <time>2022-07-26T14:16:13Z</time>
      </trkpt>
      <trkpt lat="45.63011" lon="6.62535">
        <ele>2391</ele>
        <time>2022-07-26T14:16:14Z</time>
      </trkpt>
      <trkpt lat="45.63011" lon="6.62534">
        <ele>2391</ele>
        <time>2022-07-26T14:16:15Z</time>
      </trkpt>
      <trkpt lat="45.63011" lon="6.62534">
        <ele>2391</ele>
        <time>2022-07-26T14:16:16Z</time>
      </trkpt>
      <trkpt lat="45.6301" lon="6.62534">
        <ele>2391</ele>
        <time>2022-07-26T14:16:17Z</time>
      </trkpt>
      <trkpt lat="45.63005" lon="6.62533">
        <ele>2404</ele>
        <time>2022-07-26T14:18:45Z</time>
      </trkpt>
      <trkpt lat="45.63002" lon="6.62532">
        <ele>2403</ele>
        <time>2022-07-26T14:18:46Z</time>
      </trkpt>
      <trkpt lat="45.62999" lon="6.62532">
        <ele>2403</ele>
        <time>2022-07-26T14:18:47Z</time>
      </trkpt>
      <trkpt lat="45.62995" lon="6.62531">
        <ele>2400</ele>
        <time>2022-07-26T14:19:04Z</time>
      </trkpt>
      <trkpt lat="45.62993" lon="6.6253">
        <ele>2400</ele>
        <time>2022-07-26T14:19:05Z</time>
      </trkpt>
      <trkpt lat="45.62991" lon="6.62529">
        <ele>2400</ele>
        <time>2022-07-26T14:19:06Z</time>
      </trkpt>
      <trkpt lat="45.6299" lon="6.62529">
        <ele>2400</ele>
        <time>2022-07-26T14:19:07Z</time>
      </trkpt>
      <trkpt lat="45.62989" lon="6.62529">
        <ele>2400</ele>
        <time>2022-07-26T14:19:08Z</time>
      </trkpt>
      <trkpt lat="45.62989" lon="6.62528">
        <ele>2399</ele>
        <time>2022-07-26T14:19:09Z</time>
      </trkpt>
      <trkpt lat="45.62988" lon="6.62528">
        <ele>2399</ele>
        <time>2022-07-26T14:19:10Z</time>
      </trkpt>
      <trkpt lat="45.62987" lon="6.62528">
        <ele>2399</ele>
        <time>2022-07-26T14:19:11Z</time>
      </trkpt>
      <trkpt lat="45.62986" lon="6.62527">
        <ele>2399</ele>
        <time>2022-07-26T14:19:12Z</time>
      </trkpt>
      <trkpt lat="45.62985" lon="6.62525">
        <ele>2397</ele>
        <time>2022-07-26T14:19:23Z</time>
      </trkpt>
      <trkpt lat="45.62985" lon="6.62524">
        <ele>2396</ele>
        <time>2022-07-26T14:19:24Z</time>
      </trkpt>
      <trkpt lat="45.62985" lon="6.62523">
        <ele>2396</ele>
        <time>2022-07-26T14:19:25Z</time>
      </trkpt>
      <trkpt lat="45.62985" lon="6.62522">
        <ele>2396</ele>
        <time>2022-07-26T14:19:26Z</time>
      </trkpt>
      <trkpt lat="45.62984" lon="6.62521">
        <ele>2396</ele>
        <time>2022-07-26T14:19:27Z</time>
      </trkpt>
      <trkpt lat="45.62984" lon="6.6252">
        <ele>2396</ele>
        <time>2022-07-26T14:19:28Z</time>
      </trkpt>
      <trkpt lat="45.62984" lon="6.62519">
        <ele>2395</ele>
        <time>2022-07-26T14:19:29Z</time>
      </trkpt>
      <trkpt lat="45.62983" lon="6.62519">
        <ele>2395</ele>
        <time>2022-07-26T14:19:30Z</time>
      </trkpt>
      <trkpt lat="45.62983" lon="6.62518">
        <ele>2395</ele>
        <time>2022-07-26T14:19:31Z</time>
      </trkpt>
      <trkpt lat="45.62983" lon="6.62517">
        <ele>2392</ele>
        <time>2022-07-26T14:20:04Z</time>
      </trkpt>
      <trkpt lat="45.62982" lon="6.62516">
        <ele>2392</ele>
        <time>2022-07-26T14:20:05Z</time>
      </trkpt>
      <trkpt lat="45.62982" lon="6.62516">
        <ele>2392</ele>
        <time>2022-07-26T14:20:06Z</time>
      </trkpt>
      <trkpt lat="45.62982" lon="6.62516">
        <ele>2392</ele>
        <time>2022-07-26T14:20:07Z</time>
      </trkpt>
      <trkpt lat="45.62982" lon="6.62515">
        <ele>2392</ele>
        <time>2022-07-26T14:20:08Z</time>
      </trkpt>
      <trkpt lat="45.62981" lon="6.62515">
        <ele>2392</ele>
        <time>2022-07-26T14:20:09Z</time>
      </trkpt>
      <trkpt lat="45.62981" lon="6.62515">
        <ele>2392</ele>
        <time>2022-07-26T14:20:10Z</time>
      </trkpt>
      <trkpt lat="45.62981" lon="6.62515">
        <ele>2392</ele>
        <time>2022-07-26T14:20:11Z</time>
      </trkpt>
      <trkpt lat="45.62981" lon="6.62515">
        <ele>2392</ele>
        <time>2022-07-26T14:20:12Z</time>
      </trkpt>
      <trkpt lat="45.6298" lon="6.62515">
        <ele>2392</ele>
        <time>2022-07-26T14:20:13Z</time>
      </trkpt>
      <trkpt lat="45.6298" lon="6.62515">
        <ele>2391</ele>
        <time>2022-07-26T14:20:14Z</time>
      </trkpt>
      <trkpt lat="45.6298" lon="6.62516">
        <ele>2391</ele>
        <time>2022-07-26T14:20:15Z</time>
      </trkpt>
      <trkpt lat="45.62979" lon="6.62516">
        <ele>2391</ele>
        <time>2022-07-26T14:20:16Z</time>
      </trkpt>
      <trkpt lat="45.62979" lon="6.62517">
        <ele>2391</ele>
        <time>2022-07-26T14:20:17Z</time>
      </trkpt>
      <trkpt lat="45.62978" lon="6.62518">
        <ele>2390</ele>
        <time>2022-07-26T14:20:23Z</time>
      </trkpt>
      <trkpt lat="45.62978" lon="6.62518">
        <ele>2390</ele>
        <time>2022-07-26T14:20:24Z</time>
      </trkpt>
      <trkpt lat="45.62977" lon="6.62519">
        <ele>2390</ele>
        <time>2022-07-26T14:20:25Z</time>
      </trkpt>
      <trkpt lat="45.62977" lon="6.62519">
        <ele>2390</ele>
        <time>2022-07-26T14:20:26Z</time>
      </trkpt>
      <trkpt lat="45.62976" lon="6.6252">
        <ele>2390</ele>
        <time>2022-07-26T14:20:27Z</time>
      </trkpt>
      <trkpt lat="45.62975" lon="6.6252">
        <ele>2390</ele>
        <time>2022-07-26T14:20:28Z</time>
      </trkpt>
      <trkpt lat="45.62975" lon="6.6252">
        <ele>2389</ele>
        <time>2022-07-26T14:20:29Z</time>
      </trkpt>
      <trkpt lat="45.62974" lon="6.6252">
        <ele>2389</ele>
        <time>2022-07-26T14:20:30Z</time>
      </trkpt>
      <trkpt lat="45.62974" lon="6.6252">
        <ele>2389</ele>
        <time>2022-07-26T14:20:31Z</time>
      </trkpt>
      <trkpt lat="45.62973" lon="6.6252">
        <ele>2389</ele>
        <time>2022-07-26T14:20:32Z</time>
      </trkpt>
      <trkpt lat="45.62973" lon="6.62519">
        <ele>2389</ele>
        <time>2022-07-26T14:20:33Z</time>
      </trkpt>
      <trkpt lat="45.62972" lon="6.62519">
        <ele>2388</ele>
        <time>2022-07-26T14:20:34Z</time>
      </trkpt>
      <trkpt lat="45.62972" lon="6.62518">
        <ele>2388</ele>
        <time>2022-07-26T14:20:35Z</time>
      </trkpt>
      <trkpt lat="45.62972" lon="6.62517">
        <ele>2388</ele>
        <time>2022-07-26T14:20:36Z</time>
      </trkpt>
      <trkpt lat="45.62971" lon="6.62516">
        <ele>2388</ele>
        <time>2022-07-26T14:20:37Z</time>
      </trkpt>
      <trkpt lat="45.62971" lon="6.62515">
        <ele>2388</ele>
        <time>2022-07-26T14:20:38Z</time>
      </trkpt>
      <trkpt lat="45.62971" lon="6.62514">
        <ele>2387</ele>
        <time>2022-07-26T14:20:39Z</time>
      </trkpt>
      <trkpt lat="45.6297" lon="6.62514">
        <ele>2387</ele>
        <time>2022-07-26T14:20:40Z</time>
      </trkpt>
      <trkpt lat="45.6297" lon="6.62513">
        <ele>2387</ele>
        <time>2022-07-26T14:20:41Z</time>
      </trkpt>
      <trkpt lat="45.62969" lon="6.62513">
        <ele>2387</ele>
        <time>2022-07-26T14:20:42Z</time>
      </trkpt>
      <trkpt lat="45.62969" lon="6.62512">
        <ele>2387</ele>
        <time>2022-07-26T14:20:43Z</time>
      </trkpt>
      <trkpt lat="45.62968" lon="6.62512">
        <ele>2386</ele>
        <time>2022-07-26T14:20:44Z</time>
      </trkpt>
      <trkpt lat="45.62967" lon="6.62513">
        <ele>2386</ele>
        <time>2022-07-26T14:20:45Z</time>
      </trkpt>
      <trkpt lat="45.62967" lon="6.62513">
        <ele>2385</ele>
        <time>2022-07-26T14:20:46Z</time>
      </trkpt>
      <trkpt lat="45.62966" lon="6.62514">
        <ele>2385</ele>
        <time>2022-07-26T14:20:47Z</time>
      </trkpt>
      <trkpt lat="45.62965" lon="6.62514">
        <ele>2385</ele>
        <time>2022-07-26T14:20:48Z</time>
      </trkpt>
      <trkpt lat="45.62965" lon="6.62515">
        <ele>2384</ele>
        <time>2022-07-26T14:20:49Z</time>
      </trkpt>
      <trkpt lat="45.62964" lon="6.62515">
        <ele>2384</ele>
        <time>2022-07-26T14:20:50Z</time>
      </trkpt>
      <trkpt lat="45.62963" lon="6.62516">
        <ele>2384</ele>
        <time>2022-07-26T14:20:51Z</time>
      </trkpt>
      <trkpt lat="45.62963" lon="6.62516">
        <ele>2384</ele>
        <time>2022-07-26T14:20:52Z</time>
      </trkpt>
      <trkpt lat="45.62962" lon="6.62515">
        <ele>2384</ele>
        <time>2022-07-26T14:20:53Z</time>
      </trkpt>
      <trkpt lat="45.62962" lon="6.62514">
        <ele>2383</ele>
        <time>2022-07-26T14:20:54Z</time>
      </trkpt>
      <trkpt lat="45.62962" lon="6.62513">
        <ele>2383</ele>
        <time>2022-07-26T14:20:55Z</time>
      </trkpt>
      <trkpt lat="45.62962" lon="6.62512">
        <ele>2383</ele>
        <time>2022-07-26T14:20:56Z</time>
      </trkpt>
      <trkpt lat="45.62962" lon="6.6251">
        <ele>2383</ele>
        <time>2022-07-26T14:20:57Z</time>
      </trkpt>
      <trkpt lat="45.62962" lon="6.62509">
        <ele>2383</ele>
        <time>2022-07-26T14:20:58Z</time>
      </trkpt>
      <trkpt lat="45.62962" lon="6.62508">
        <ele>2382</ele>
        <time>2022-07-26T14:20:59Z</time>
      </trkpt>
      <trkpt lat="45.62962" lon="6.62506">
        <ele>2382</ele>
        <time>2022-07-26T14:21:00Z</time>
      </trkpt>
      <trkpt lat="45.62962" lon="6.62505">
        <ele>2381</ele>
        <time>2022-07-26T14:21:01Z</time>
      </trkpt>
      <trkpt lat="45.62962" lon="6.62505">
        <ele>2381</ele>
        <time>2022-07-26T14:21:02Z</time>
      </trkpt>
      <trkpt lat="45.62962" lon="6.62504">
        <ele>2381</ele>
        <time>2022-07-26T14:21:03Z</time>
      </trkpt>
      <trkpt lat="45.62961" lon="6.62504">
        <ele>2380</ele>
        <time>2022-07-26T14:21:04Z</time>
      </trkpt>
      <trkpt lat="45.62961" lon="6.62504">
        <ele>2380</ele>
        <time>2022-07-26T14:21:05Z</time>
      </trkpt>
      <trkpt lat="45.6296" lon="6.62505">
        <ele>2380</ele>
        <time>2022-07-26T14:21:06Z</time>
      </trkpt>
      <trkpt lat="45.62959" lon="6.62506">
        <ele>2380</ele>
        <time>2022-07-26T14:21:07Z</time>
      </trkpt>
      <trkpt lat="45.62958" lon="6.62507">
        <ele>2380</ele>
        <time>2022-07-26T14:21:08Z</time>
      </trkpt>
      <trkpt lat="45.62957" lon="6.62508">
        <ele>2379</ele>
        <time>2022-07-26T14:21:09Z</time>
      </trkpt>
      <trkpt lat="45.62956" lon="6.6251">
        <ele>2379</ele>
        <time>2022-07-26T14:21:10Z</time>
      </trkpt>
      <trkpt lat="45.62956" lon="6.62511">
        <ele>2379</ele>
        <time>2022-07-26T14:21:11Z</time>
      </trkpt>
      <trkpt lat="45.62955" lon="6.62512">
        <ele>2379</ele>
        <time>2022-07-26T14:21:12Z</time>
      </trkpt>
      <trkpt lat="45.62954" lon="6.62513">
        <ele>2379</ele>
        <time>2022-07-26T14:21:13Z</time>
      </trkpt>
      <trkpt lat="45.62953" lon="6.62514">
        <ele>2379</ele>
        <time>2022-07-26T14:21:14Z</time>
      </trkpt>
      <trkpt lat="45.62952" lon="6.62515">
        <ele>2379</ele>
        <time>2022-07-26T14:21:15Z</time>
      </trkpt>
      <trkpt lat="45.62952" lon="6.62516">
        <ele>2379</ele>
        <time>2022-07-26T14:21:16Z</time>
      </trkpt>
      <trkpt lat="45.62951" lon="6.62517">
        <ele>2379</ele>
        <time>2022-07-26T14:21:17Z</time>
      </trkpt>
      <trkpt lat="45.6295" lon="6.62517">
        <ele>2379</ele>
        <time>2022-07-26T14:21:18Z</time>
      </trkpt>
      <trkpt lat="45.62949" lon="6.62518">
        <ele>2378</ele>
        <time>2022-07-26T14:21:19Z</time>
      </trkpt>
      <trkpt lat="45.62948" lon="6.62518">
        <ele>2378</ele>
        <time>2022-07-26T14:21:20Z</time>
      </trkpt>
      <trkpt lat="45.62948" lon="6.62519">
        <ele>2377</ele>
        <time>2022-07-26T14:21:21Z</time>
      </trkpt>
      <trkpt lat="45.62947" lon="6.62519">
        <ele>2377</ele>
        <time>2022-07-26T14:21:22Z</time>
      </trkpt>
      <trkpt lat="45.62946" lon="6.62519">
        <ele>2377</ele>
        <time>2022-07-26T14:21:23Z</time>
      </trkpt>
      <trkpt lat="45.62945" lon="6.62519">
        <ele>2376</ele>
        <time>2022-07-26T14:21:24Z</time>
      </trkpt>
      <trkpt lat="45.62944" lon="6.62519">
        <ele>2376</ele>
        <time>2022-07-26T14:21:25Z</time>
      </trkpt>
      <trkpt lat="45.62944" lon="6.62519">
        <ele>2376</ele>
        <time>2022-07-26T14:21:26Z</time>
      </trkpt>
      <trkpt lat="45.62943" lon="6.62519">
        <ele>2376</ele>
        <time>2022-07-26T14:21:27Z</time>
      </trkpt>
      <trkpt lat="45.62942" lon="6.62519">
        <ele>2376</ele>
        <time>2022-07-26T14:21:28Z</time>
      </trkpt>
      <trkpt lat="45.62941" lon="6.62519">
        <ele>2375</ele>
        <time>2022-07-26T14:21:29Z</time>
      </trkpt>
      <trkpt lat="45.6294" lon="6.62519">
        <ele>2375</ele>
        <time>2022-07-26T14:21:30Z</time>
      </trkpt>
      <trkpt lat="45.62939" lon="6.6252">
        <ele>2375</ele>
        <time>2022-07-26T14:21:31Z</time>
      </trkpt>
      <trkpt lat="45.62938" lon="6.6252">
        <ele>2375</ele>
        <time>2022-07-26T14:21:32Z</time>
      </trkpt>
      <trkpt lat="45.62937" lon="6.62521">
        <ele>2375</ele>
        <time>2022-07-26T14:21:33Z</time>
      </trkpt>
      <trkpt lat="45.62936" lon="6.62521">
        <ele>2373</ele>
        <time>2022-07-26T14:21:41Z</time>
      </trkpt>
      <trkpt lat="45.62936" lon="6.62521">
        <ele>2373</ele>
        <time>2022-07-26T14:21:42Z</time>
      </trkpt>
      <trkpt lat="45.62935" lon="6.62521">
        <ele>2373</ele>
        <time>2022-07-26T14:21:43Z</time>
      </trkpt>
      <trkpt lat="45.62934" lon="6.62522">
        <ele>2372</ele>
        <time>2022-07-26T14:21:44Z</time>
      </trkpt>
      <trkpt lat="45.62934" lon="6.62522">
        <ele>2372</ele>
        <time>2022-07-26T14:21:45Z</time>
      </trkpt>
      <trkpt lat="45.62933" lon="6.62522">
        <ele>2371</ele>
        <time>2022-07-26T14:21:46Z</time>
      </trkpt>
      <trkpt lat="45.62932" lon="6.62523">
        <ele>2371</ele>
        <time>2022-07-26T14:21:47Z</time>
      </trkpt>
      <trkpt lat="45.62931" lon="6.62523">
        <ele>2371</ele>
        <time>2022-07-26T14:21:48Z</time>
      </trkpt>
      <trkpt lat="45.6293" lon="6.62524">
        <ele>2371</ele>
        <time>2022-07-26T14:21:49Z</time>
      </trkpt>
      <trkpt lat="45.62929" lon="6.62524">
        <ele>2371</ele>
        <time>2022-07-26T14:21:50Z</time>
      </trkpt>
      <trkpt lat="45.62929" lon="6.62525">
        <ele>2371</ele>
        <time>2022-07-26T14:21:51Z</time>
      </trkpt>
      <trkpt lat="45.62928" lon="6.62526">
        <ele>2371</ele>
        <time>2022-07-26T14:21:52Z</time>
      </trkpt>
      <trkpt lat="45.62927" lon="6.62527">
        <ele>2371</ele>
        <time>2022-07-26T14:21:53Z</time>
      </trkpt>
      <trkpt lat="45.62926" lon="6.62527">
        <ele>2370</ele>
        <time>2022-07-26T14:21:54Z</time>
      </trkpt>
      <trkpt lat="45.62925" lon="6.62528">
        <ele>2370</ele>
        <time>2022-07-26T14:21:55Z</time>
      </trkpt>
      <trkpt lat="45.62924" lon="6.62528">
        <ele>2370</ele>
        <time>2022-07-26T14:21:56Z</time>
      </trkpt>
      <trkpt lat="45.62923" lon="6.62529">
        <ele>2370</ele>
        <time>2022-07-26T14:21:57Z</time>
      </trkpt>
      <trkpt lat="45.62922" lon="6.62529">
        <ele>2370</ele>
        <time>2022-07-26T14:21:58Z</time>
      </trkpt>
      <trkpt lat="45.62921" lon="6.62529">
        <ele>2369</ele>
        <time>2022-07-26T14:21:59Z</time>
      </trkpt>
      <trkpt lat="45.6292" lon="6.62529">
        <ele>2369</ele>
        <time>2022-07-26T14:22:00Z</time>
      </trkpt>
      <trkpt lat="45.62919" lon="6.62529">
        <ele>2369</ele>
        <time>2022-07-26T14:22:01Z</time>
      </trkpt>
      <trkpt lat="45.62918" lon="6.62529">
        <ele>2369</ele>
        <time>2022-07-26T14:22:02Z</time>
      </trkpt>
      <trkpt lat="45.62917" lon="6.62529">
        <ele>2369</ele>
        <time>2022-07-26T14:22:03Z</time>
      </trkpt>
      <trkpt lat="45.62916" lon="6.62529">
        <ele>2368</ele>
        <time>2022-07-26T14:22:04Z</time>
      </trkpt>
      <trkpt lat="45.62915" lon="6.62529">
        <ele>2368</ele>
        <time>2022-07-26T14:22:05Z</time>
      </trkpt>
      <trkpt lat="45.62914" lon="6.62529">
        <ele>2368</ele>
        <time>2022-07-26T14:22:06Z</time>
      </trkpt>
      <trkpt lat="45.62914" lon="6.62529">
        <ele>2368</ele>
        <time>2022-07-26T14:22:07Z</time>
      </trkpt>
      <trkpt lat="45.62913" lon="6.62528">
        <ele>2368</ele>
        <time>2022-07-26T14:22:08Z</time>
      </trkpt>
      <trkpt lat="45.62913" lon="6.62528">
        <ele>2367</ele>
        <time>2022-07-26T14:22:09Z</time>
      </trkpt>
      <trkpt lat="45.62913" lon="6.62528">
        <ele>2366</ele>
        <time>2022-07-26T14:22:10Z</time>
      </trkpt>
      <trkpt lat="45.62912" lon="6.62527">
        <ele>2366</ele>
        <time>2022-07-26T14:22:11Z</time>
      </trkpt>
      <trkpt lat="45.62912" lon="6.62527">
        <ele>2365</ele>
        <time>2022-07-26T14:22:12Z</time>
      </trkpt>
      <trkpt lat="45.62912" lon="6.62526">
        <ele>2365</ele>
        <time>2022-07-26T14:22:13Z</time>
      </trkpt>
      <trkpt lat="45.62911" lon="6.62525">
        <ele>2364</ele>
        <time>2022-07-26T14:22:14Z</time>
      </trkpt>
      <trkpt lat="45.62911" lon="6.62524">
        <ele>2364</ele>
        <time>2022-07-26T14:22:15Z</time>
      </trkpt>
      <trkpt lat="45.6291" lon="6.62524">
        <ele>2364</ele>
        <time>2022-07-26T14:22:16Z</time>
      </trkpt>
      <trkpt lat="45.6291" lon="6.62523">
        <ele>2364</ele>
        <time>2022-07-26T14:22:17Z</time>
      </trkpt>
      <trkpt lat="45.62909" lon="6.62522">
        <ele>2364</ele>
        <time>2022-07-26T14:22:18Z</time>
      </trkpt>
      <trkpt lat="45.62908" lon="6.62522">
        <ele>2363</ele>
        <time>2022-07-26T14:22:19Z</time>
      </trkpt>
      <trkpt lat="45.62907" lon="6.62521">
        <ele>2363</ele>
        <time>2022-07-26T14:22:20Z</time>
      </trkpt>
      <trkpt lat="45.62906" lon="6.62521">
        <ele>2363</ele>
        <time>2022-07-26T14:22:21Z</time>
      </trkpt>
      <trkpt lat="45.62906" lon="6.6252">
        <ele>2363</ele>
        <time>2022-07-26T14:22:22Z</time>
      </trkpt>
      <trkpt lat="45.62905" lon="6.6252">
        <ele>2363</ele>
        <time>2022-07-26T14:22:23Z</time>
      </trkpt>
      <trkpt lat="45.62904" lon="6.6252">
        <ele>2362</ele>
        <time>2022-07-26T14:22:24Z</time>
      </trkpt>
      <trkpt lat="45.62903" lon="6.62519">
        <ele>2362</ele>
        <time>2022-07-26T14:22:25Z</time>
      </trkpt>
      <trkpt lat="45.62902" lon="6.62515">
        <ele>2359</ele>
        <time>2022-07-26T14:23:17Z</time>
      </trkpt>
      <trkpt lat="45.62903" lon="6.62513">
        <ele>2359</ele>
        <time>2022-07-26T14:23:18Z</time>
      </trkpt>
      <trkpt lat="45.62903" lon="6.62511">
        <ele>2358</ele>
        <time>2022-07-26T14:23:19Z</time>
      </trkpt>
      <trkpt lat="45.62903" lon="6.62509">
        <ele>2358</ele>
        <time>2022-07-26T14:23:20Z</time>
      </trkpt>
      <trkpt lat="45.62903" lon="6.62508">
        <ele>2358</ele>
        <time>2022-07-26T14:23:21Z</time>
      </trkpt>
      <trkpt lat="45.62903" lon="6.62505">
        <ele>2356</ele>
        <time>2022-07-26T14:23:36Z</time>
      </trkpt>
      <trkpt lat="45.62903" lon="6.62504">
        <ele>2356</ele>
        <time>2022-07-26T14:23:37Z</time>
      </trkpt>
      <trkpt lat="45.62903" lon="6.62503">
        <ele>2356</ele>
        <time>2022-07-26T14:23:38Z</time>
      </trkpt>
      <trkpt lat="45.62903" lon="6.62502">
        <ele>2355</ele>
        <time>2022-07-26T14:23:39Z</time>
      </trkpt>
      <trkpt lat="45.62903" lon="6.62501">
        <ele>2355</ele>
        <time>2022-07-26T14:23:40Z</time>
      </trkpt>
      <trkpt lat="45.62903" lon="6.625">
        <ele>2355</ele>
        <time>2022-07-26T14:23:41Z</time>
      </trkpt>
      <trkpt lat="45.62902" lon="6.62499">
        <ele>2355</ele>
        <time>2022-07-26T14:23:42Z</time>
      </trkpt>
      <trkpt lat="45.62902" lon="6.62497">
        <ele>2355</ele>
        <time>2022-07-26T14:23:43Z</time>
      </trkpt>
      <trkpt lat="45.62902" lon="6.62496">
        <ele>2355</ele>
        <time>2022-07-26T14:23:44Z</time>
      </trkpt>
      <trkpt lat="45.62902" lon="6.62494">
        <ele>2355</ele>
        <time>2022-07-26T14:23:45Z</time>
      </trkpt>
      <trkpt lat="45.62902" lon="6.62493">
        <ele>2355</ele>
        <time>2022-07-26T14:23:46Z</time>
      </trkpt>
      <trkpt lat="45.62902" lon="6.62492">
        <ele>2355</ele>
        <time>2022-07-26T14:23:47Z</time>
      </trkpt>
      <trkpt lat="45.62902" lon="6.62491">
        <ele>2355</ele>
        <time>2022-07-26T14:23:48Z</time>
      </trkpt>
      <trkpt lat="45.62901" lon="6.6249">
        <ele>2354</ele>
        <time>2022-07-26T14:23:49Z</time>
      </trkpt>
      <trkpt lat="45.62901" lon="6.62488">
        <ele>2354</ele>
        <time>2022-07-26T14:23:50Z</time>
      </trkpt>
      <trkpt lat="45.62901" lon="6.62487">
        <ele>2354</ele>
        <time>2022-07-26T14:23:51Z</time>
      </trkpt>
      <trkpt lat="45.62901" lon="6.62486">
        <ele>2354</ele>
        <time>2022-07-26T14:23:52Z</time>
      </trkpt>
      <trkpt lat="45.62901" lon="6.62485">
        <ele>2354</ele>
        <time>2022-07-26T14:23:53Z</time>
      </trkpt>
      <trkpt lat="45.62901" lon="6.62484">
        <ele>2353</ele>
        <time>2022-07-26T14:23:54Z</time>
      </trkpt>
      <trkpt lat="45.62901" lon="6.62483">
        <ele>2353</ele>
        <time>2022-07-26T14:23:55Z</time>
      </trkpt>
      <trkpt lat="45.62901" lon="6.62482">
        <ele>2352</ele>
        <time>2022-07-26T14:23:56Z</time>
      </trkpt>
      <trkpt lat="45.62901" lon="6.6248">
        <ele>2352</ele>
        <time>2022-07-26T14:23:57Z</time>
      </trkpt>
      <trkpt lat="45.62901" lon="6.62479">
        <ele>2352</ele>
        <time>2022-07-26T14:23:58Z</time>
      </trkpt>
      <trkpt lat="45.62901" lon="6.62478">
        <ele>2351</ele>
        <time>2022-07-26T14:23:59Z</time>
      </trkpt>
      <trkpt lat="45.62901" lon="6.62476">
        <ele>2351</ele>
        <time>2022-07-26T14:24:00Z</time>
      </trkpt>
      <trkpt lat="45.62901" lon="6.62475">
        <ele>2351</ele>
        <time>2022-07-26T14:24:01Z</time>
      </trkpt>
      <trkpt lat="45.62901" lon="6.62474">
        <ele>2351</ele>
        <time>2022-07-26T14:24:02Z</time>
      </trkpt>
      <trkpt lat="45.62901" lon="6.62472">
        <ele>2351</ele>
        <time>2022-07-26T14:24:03Z</time>
      </trkpt>
      <trkpt lat="45.62901" lon="6.62471">
        <ele>2350</ele>
        <time>2022-07-26T14:24:04Z</time>
      </trkpt>
      <trkpt lat="45.62901" lon="6.6247">
        <ele>2350</ele>
        <time>2022-07-26T14:24:05Z</time>
      </trkpt>
      <trkpt lat="45.62901" lon="6.62469">
        <ele>2350</ele>
        <time>2022-07-26T14:24:06Z</time>
      </trkpt>
      <trkpt lat="45.62901" lon="6.62467">
        <ele>2350</ele>
        <time>2022-07-26T14:24:07Z</time>
      </trkpt>
      <trkpt lat="45.62901" lon="6.62466">
        <ele>2350</ele>
        <time>2022-07-26T14:24:08Z</time>
      </trkpt>
      <trkpt lat="45.62901" lon="6.62464">
        <ele>2349</ele>
        <time>2022-07-26T14:24:09Z</time>
      </trkpt>
      <trkpt lat="45.62901" lon="6.62463">
        <ele>2349</ele>
        <time>2022-07-26T14:24:10Z</time>
      </trkpt>
      <trkpt lat="45.62901" lon="6.62461">
        <ele>2349</ele>
        <time>2022-07-26T14:24:11Z</time>
      </trkpt>
      <trkpt lat="45.62901" lon="6.6246">
        <ele>2349</ele>
        <time>2022-07-26T14:24:12Z</time>
      </trkpt>
      <trkpt lat="45.62901" lon="6.62458">
        <ele>2349</ele>
        <time>2022-07-26T14:24:13Z</time>
      </trkpt>
      <trkpt lat="45.62901" lon="6.62456">
        <ele>2348</ele>
        <time>2022-07-26T14:24:14Z</time>
      </trkpt>
      <trkpt lat="45.62901" lon="6.62455">
        <ele>2348</ele>
        <time>2022-07-26T14:24:15Z</time>
      </trkpt>
      <trkpt lat="45.62902" lon="6.62453">
        <ele>2347</ele>
        <time>2022-07-26T14:24:16Z</time>
      </trkpt>
      <trkpt lat="45.62902" lon="6.62452">
        <ele>2347</ele>
        <time>2022-07-26T14:24:17Z</time>
      </trkpt>
      <trkpt lat="45.62902" lon="6.62451">
        <ele>2347</ele>
        <time>2022-07-26T14:24:18Z</time>
      </trkpt>
      <trkpt lat="45.62902" lon="6.62449">
        <ele>2346</ele>
        <time>2022-07-26T14:24:19Z</time>
      </trkpt>
      <trkpt lat="45.62903" lon="6.62448">
        <ele>2346</ele>
        <time>2022-07-26T14:24:20Z</time>
      </trkpt>
      <trkpt lat="45.62903" lon="6.62447">
        <ele>2342</ele>
        <time>2022-07-26T14:26:11Z</time>
      </trkpt>
      <trkpt lat="45.62903" lon="6.62445">
        <ele>2342</ele>
        <time>2022-07-26T14:26:12Z</time>
      </trkpt>
      <trkpt lat="45.62903" lon="6.62444">
        <ele>2342</ele>
        <time>2022-07-26T14:26:13Z</time>
      </trkpt>
      <trkpt lat="45.62903" lon="6.62443">
        <ele>2342</ele>
        <time>2022-07-26T14:26:14Z</time>
      </trkpt>
      <trkpt lat="45.62903" lon="6.62442">
        <ele>2342</ele>
        <time>2022-07-26T14:26:15Z</time>
      </trkpt>
      <trkpt lat="45.62903" lon="6.62441">
        <ele>2342</ele>
        <time>2022-07-26T14:26:16Z</time>
      </trkpt>
      <trkpt lat="45.62903" lon="6.62439">
        <ele>2342</ele>
        <time>2022-07-26T14:26:17Z</time>
      </trkpt>
      <trkpt lat="45.62903" lon="6.62438">
        <ele>2342</ele>
        <time>2022-07-26T14:26:18Z</time>
      </trkpt>
      <trkpt lat="45.62903" lon="6.62437">
        <ele>2342</ele>
        <time>2022-07-26T14:26:19Z</time>
      </trkpt>
      <trkpt lat="45.62903" lon="6.62436">
        <ele>2342</ele>
        <time>2022-07-26T14:26:20Z</time>
      </trkpt>
      <trkpt lat="45.62903" lon="6.62435">
        <ele>2342</ele>
        <time>2022-07-26T14:26:21Z</time>
      </trkpt>
      <trkpt lat="45.62904" lon="6.62434">
        <ele>2342</ele>
        <time>2022-07-26T14:26:22Z</time>
      </trkpt>
      <trkpt lat="45.62904" lon="6.62433">
        <ele>2342</ele>
        <time>2022-07-26T14:26:23Z</time>
      </trkpt>
      <trkpt lat="45.62904" lon="6.62432">
        <ele>2342</ele>
        <time>2022-07-26T14:26:24Z</time>
      </trkpt>
      <trkpt lat="45.62905" lon="6.62431">
        <ele>2342</ele>
        <time>2022-07-26T14:26:25Z</time>
      </trkpt>
      <trkpt lat="45.62905" lon="6.6243">
        <ele>2342</ele>
        <time>2022-07-26T14:26:26Z</time>
      </trkpt>
      <trkpt lat="45.62905" lon="6.62429">
        <ele>2342</ele>
        <time>2022-07-26T14:26:27Z</time>
      </trkpt>
      <trkpt lat="45.62906" lon="6.62428">
        <ele>2342</ele>
        <time>2022-07-26T14:26:28Z</time>
      </trkpt>
      <trkpt lat="45.62906" lon="6.62427">
        <ele>2341</ele>
        <time>2022-07-26T14:26:29Z</time>
      </trkpt>
      <trkpt lat="45.62906" lon="6.62425">
        <ele>2341</ele>
        <time>2022-07-26T14:26:30Z</time>
      </trkpt>
      <trkpt lat="45.62907" lon="6.62424">
        <ele>2341</ele>
        <time>2022-07-26T14:26:31Z</time>
      </trkpt>
      <trkpt lat="45.62907" lon="6.62422">
        <ele>2341</ele>
        <time>2022-07-26T14:26:32Z</time>
      </trkpt>
      <trkpt lat="45.62907" lon="6.62421">
        <ele>2341</ele>
        <time>2022-07-26T14:26:33Z</time>
      </trkpt>
      <trkpt lat="45.62907" lon="6.62419">
        <ele>2340</ele>
        <time>2022-07-26T14:26:34Z</time>
      </trkpt>
      <trkpt lat="45.62907" lon="6.62417">
        <ele>2339</ele>
        <time>2022-07-26T14:26:35Z</time>
      </trkpt>
      <trkpt lat="45.62907" lon="6.62416">
        <ele>2339</ele>
        <time>2022-07-26T14:26:36Z</time>
      </trkpt>
      <trkpt lat="45.62906" lon="6.62414">
        <ele>2338</ele>
        <time>2022-07-26T14:26:37Z</time>
      </trkpt>
      <trkpt lat="45.62906" lon="6.62413">
        <ele>2338</ele>
        <time>2022-07-26T14:26:38Z</time>
      </trkpt>
      <trkpt lat="45.62905" lon="6.62412">
        <ele>2337</ele>
        <time>2022-07-26T14:26:39Z</time>
      </trkpt>
      <trkpt lat="45.62904" lon="6.62411">
        <ele>2337</ele>
        <time>2022-07-26T14:26:40Z</time>
      </trkpt>
      <trkpt lat="45.62904" lon="6.6241">
        <ele>2337</ele>
        <time>2022-07-26T14:26:41Z</time>
      </trkpt>
      <trkpt lat="45.62903" lon="6.62409">
        <ele>2337</ele>
        <time>2022-07-26T14:26:42Z</time>
      </trkpt>
      <trkpt lat="45.62902" lon="6.62408">
        <ele>2337</ele>
        <time>2022-07-26T14:26:43Z</time>
      </trkpt>
      <trkpt lat="45.62901" lon="6.62407">
        <ele>2337</ele>
        <time>2022-07-26T14:26:44Z</time>
      </trkpt>
      <trkpt lat="45.62901" lon="6.62407">
        <ele>2337</ele>
        <time>2022-07-26T14:26:45Z</time>
      </trkpt>
      <trkpt lat="45.629" lon="6.62406">
        <ele>2337</ele>
        <time>2022-07-26T14:26:46Z</time>
      </trkpt>
      <trkpt lat="45.62899" lon="6.62405">
        <ele>2337</ele>
        <time>2022-07-26T14:26:47Z</time>
      </trkpt>
      <trkpt lat="45.62899" lon="6.62405">
        <ele>2337</ele>
        <time>2022-07-26T14:26:48Z</time>
      </trkpt>
      <trkpt lat="45.62898" lon="6.62404">
        <ele>2336</ele>
        <time>2022-07-26T14:26:49Z</time>
      </trkpt>
      <trkpt lat="45.62897" lon="6.62404">
        <ele>2336</ele>
        <time>2022-07-26T14:26:50Z</time>
      </trkpt>
      <trkpt lat="45.62897" lon="6.62403">
        <ele>2336</ele>
        <time>2022-07-26T14:26:51Z</time>
      </trkpt>
      <trkpt lat="45.62896" lon="6.62402">
        <ele>2336</ele>
        <time>2022-07-26T14:26:52Z</time>
      </trkpt>
      <trkpt lat="45.62895" lon="6.62402">
        <ele>2336</ele>
        <time>2022-07-26T14:26:53Z</time>
      </trkpt>
      <trkpt lat="45.62894" lon="6.62401">
        <ele>2335</ele>
        <time>2022-07-26T14:26:54Z</time>
      </trkpt>
      <trkpt lat="45.62894" lon="6.624">
        <ele>2335</ele>
        <time>2022-07-26T14:26:55Z</time>
      </trkpt>
      <trkpt lat="45.62893" lon="6.62399">
        <ele>2335</ele>
        <time>2022-07-26T14:26:56Z</time>
      </trkpt>
      <trkpt lat="45.62893" lon="6.62399">
        <ele>2335</ele>
        <time>2022-07-26T14:26:57Z</time>
      </trkpt>
      <trkpt lat="45.62893" lon="6.62399">
        <ele>2335</ele>
        <time>2022-07-26T14:26:58Z</time>
      </trkpt>
      <trkpt lat="45.62892" lon="6.62398">
        <ele>2334</ele>
        <time>2022-07-26T14:26:59Z</time>
      </trkpt>
      <trkpt lat="45.62892" lon="6.62397">
        <ele>2334</ele>
        <time>2022-07-26T14:27:00Z</time>
      </trkpt>
      <trkpt lat="45.62892" lon="6.62397">
        <ele>2334</ele>
        <time>2022-07-26T14:27:01Z</time>
      </trkpt>
      <trkpt lat="45.62891" lon="6.62396">
        <ele>2334</ele>
        <time>2022-07-26T14:27:02Z</time>
      </trkpt>
      <trkpt lat="45.62891" lon="6.62395">
        <ele>2332</ele>
        <time>2022-07-26T14:27:58Z</time>
      </trkpt>
      <trkpt lat="45.62891" lon="6.62395">
        <ele>2332</ele>
        <time>2022-07-26T14:27:59Z</time>
      </trkpt>
      <trkpt lat="45.6289" lon="6.62394">
        <ele>2332</ele>
        <time>2022-07-26T14:28:00Z</time>
      </trkpt>
      <trkpt lat="45.6289" lon="6.62394">
        <ele>2332</ele>
        <time>2022-07-26T14:28:01Z</time>
      </trkpt>
      <trkpt lat="45.62889" lon="6.62394">
        <ele>2332</ele>
        <time>2022-07-26T14:28:02Z</time>
      </trkpt>
      <trkpt lat="45.62889" lon="6.62393">
        <ele>2332</ele>
        <time>2022-07-26T14:28:03Z</time>
      </trkpt>
      <trkpt lat="45.62888" lon="6.62393">
        <ele>2332</ele>
        <time>2022-07-26T14:28:04Z</time>
      </trkpt>
      <trkpt lat="45.62887" lon="6.62392">
        <ele>2332</ele>
        <time>2022-07-26T14:28:05Z</time>
      </trkpt>
      <trkpt lat="45.62886" lon="6.62392">
        <ele>2332</ele>
        <time>2022-07-26T14:28:06Z</time>
      </trkpt>
      <trkpt lat="45.62885" lon="6.62391">
        <ele>2332</ele>
        <time>2022-07-26T14:28:07Z</time>
      </trkpt>
      <trkpt lat="45.62884" lon="6.62391">
        <ele>2332</ele>
        <time>2022-07-26T14:28:08Z</time>
      </trkpt>
      <trkpt lat="45.62883" lon="6.6239">
        <ele>2332</ele>
        <time>2022-07-26T14:28:09Z</time>
      </trkpt>
      <trkpt lat="45.62882" lon="6.6239">
        <ele>2332</ele>
        <time>2022-07-26T14:28:10Z</time>
      </trkpt>
      <trkpt lat="45.62881" lon="6.62389">
        <ele>2332</ele>
        <time>2022-07-26T14:28:11Z</time>
      </trkpt>
      <trkpt lat="45.6288" lon="6.62389">
        <ele>2332</ele>
        <time>2022-07-26T14:28:12Z</time>
      </trkpt>
      <trkpt lat="45.62879" lon="6.62388">
        <ele>2332</ele>
        <time>2022-07-26T14:28:13Z</time>
      </trkpt>
      <trkpt lat="45.62878" lon="6.62387">
        <ele>2331</ele>
        <time>2022-07-26T14:28:14Z</time>
      </trkpt>
      <trkpt lat="45.62877" lon="6.62386">
        <ele>2331</ele>
        <time>2022-07-26T14:28:15Z</time>
      </trkpt>
      <trkpt lat="45.62876" lon="6.62386">
        <ele>2331</ele>
        <time>2022-07-26T14:28:16Z</time>
      </trkpt>
      <trkpt lat="45.62876" lon="6.62385">
        <ele>2331</ele>
        <time>2022-07-26T14:28:17Z</time>
      </trkpt>
      <trkpt lat="45.62875" lon="6.62384">
        <ele>2331</ele>
        <time>2022-07-26T14:28:18Z</time>
      </trkpt>
      <trkpt lat="45.62874" lon="6.62383">
        <ele>2330</ele>
        <time>2022-07-26T14:28:19Z</time>
      </trkpt>
      <trkpt lat="45.62873" lon="6.62382">
        <ele>2330</ele>
        <time>2022-07-26T14:28:20Z</time>
      </trkpt>
      <trkpt lat="45.62872" lon="6.62381">
        <ele>2330</ele>
        <time>2022-07-26T14:28:21Z</time>
      </trkpt>
      <trkpt lat="45.62871" lon="6.6238">
        <ele>2330</ele>
        <time>2022-07-26T14:28:22Z</time>
      </trkpt>
      <trkpt lat="45.6287" lon="6.6238">
        <ele>2330</ele>
        <time>2022-07-26T14:28:23Z</time>
      </trkpt>
      <trkpt lat="45.62869" lon="6.6238">
        <ele>2329</ele>
        <time>2022-07-26T14:28:24Z</time>
      </trkpt>
      <trkpt lat="45.62868" lon="6.62379">
        <ele>2329</ele>
        <time>2022-07-26T14:28:25Z</time>
      </trkpt>
      <trkpt lat="45.62867" lon="6.62379">
        <ele>2328</ele>
        <time>2022-07-26T14:28:26Z</time>
      </trkpt>
      <trkpt lat="45.62866" lon="6.62379">
        <ele>2328</ele>
        <time>2022-07-26T14:28:27Z</time>
      </trkpt>
      <trkpt lat="45.62865" lon="6.62378">
        <ele>2328</ele>
        <time>2022-07-26T14:28:28Z</time>
      </trkpt>
      <trkpt lat="45.62864" lon="6.62378">
        <ele>2327</ele>
        <time>2022-07-26T14:28:29Z</time>
      </trkpt>
      <trkpt lat="45.62863" lon="6.62377">
        <ele>2327</ele>
        <time>2022-07-26T14:28:30Z</time>
      </trkpt>
      <trkpt lat="45.62862" lon="6.62377">
        <ele>2327</ele>
        <time>2022-07-26T14:28:31Z</time>
      </trkpt>
      <trkpt lat="45.62861" lon="6.62376">
        <ele>2327</ele>
        <time>2022-07-26T14:28:32Z</time>
      </trkpt>
      <trkpt lat="45.6286" lon="6.62376">
        <ele>2327</ele>
        <time>2022-07-26T14:28:33Z</time>
      </trkpt>
      <trkpt lat="45.62859" lon="6.62375">
        <ele>2326</ele>
        <time>2022-07-26T14:28:34Z</time>
      </trkpt>
      <trkpt lat="45.62858" lon="6.62375">
        <ele>2326</ele>
        <time>2022-07-26T14:28:35Z</time>
      </trkpt>
      <trkpt lat="45.62857" lon="6.62375">
        <ele>2325</ele>
        <time>2022-07-26T14:28:36Z</time>
      </trkpt>
      <trkpt lat="45.62856" lon="6.62374">
        <ele>2325</ele>
        <time>2022-07-26T14:28:37Z</time>
      </trkpt>
      <trkpt lat="45.62855" lon="6.62374">
        <ele>2325</ele>
        <time>2022-07-26T14:28:38Z</time>
      </trkpt>
      <trkpt lat="45.62854" lon="6.62374">
        <ele>2324</ele>
        <time>2022-07-26T14:28:39Z</time>
      </trkpt>
      <trkpt lat="45.62853" lon="6.62374">
        <ele>2324</ele>
        <time>2022-07-26T14:28:40Z</time>
      </trkpt>
      <trkpt lat="45.62852" lon="6.62374">
        <ele>2324</ele>
        <time>2022-07-26T14:28:41Z</time>
      </trkpt>
      <trkpt lat="45.62852" lon="6.62374">
        <ele>2324</ele>
        <time>2022-07-26T14:28:42Z</time>
      </trkpt>
      <trkpt lat="45.62851" lon="6.62374">
        <ele>2324</ele>
        <time>2022-07-26T14:28:43Z</time>
      </trkpt>
      <trkpt lat="45.6285" lon="6.62373">
        <ele>2323</ele>
        <time>2022-07-26T14:28:44Z</time>
      </trkpt>
      <trkpt lat="45.62849" lon="6.62373">
        <ele>2315</ele>
        <time>2022-07-26T14:29:56Z</time>
      </trkpt>
      <trkpt lat="45.62848" lon="6.62373">
        <ele>2315</ele>
        <time>2022-07-26T14:29:57Z</time>
      </trkpt>
      <trkpt lat="45.62848" lon="6.62373">
        <ele>2315</ele>
        <time>2022-07-26T14:29:58Z</time>
      </trkpt>
      <trkpt lat="45.62847" lon="6.62374">
        <ele>2315</ele>
        <time>2022-07-26T14:29:59Z</time>
      </trkpt>
      <trkpt lat="45.62846" lon="6.62374">
        <ele>2315</ele>
        <time>2022-07-26T14:30:00Z</time>
      </trkpt>
      <trkpt lat="45.62845" lon="6.62374">
        <ele>2315</ele>
        <time>2022-07-26T14:30:01Z</time>
      </trkpt>
      <trkpt lat="45.62844" lon="6.62375">
        <ele>2315</ele>
        <time>2022-07-26T14:30:02Z</time>
      </trkpt>
      <trkpt lat="45.62843" lon="6.62376">
        <ele>2315</ele>
        <time>2022-07-26T14:30:03Z</time>
      </trkpt>
      <trkpt lat="45.62842" lon="6.62376">
        <ele>2314</ele>
        <time>2022-07-26T14:30:04Z</time>
      </trkpt>
      <trkpt lat="45.6284" lon="6.62377">
        <ele>2314</ele>
        <time>2022-07-26T14:30:05Z</time>
      </trkpt>
      <trkpt lat="45.62839" lon="6.62378">
        <ele>2314</ele>
        <time>2022-07-26T14:30:06Z</time>
      </trkpt>
      <trkpt lat="45.62838" lon="6.62379">
        <ele>2314</ele>
        <time>2022-07-26T14:30:07Z</time>
      </trkpt>
      <trkpt lat="45.62837" lon="6.62379">
        <ele>2314</ele>
        <time>2022-07-26T14:30:08Z</time>
      </trkpt>
      <trkpt lat="45.62836" lon="6.6238">
        <ele>2314</ele>
        <time>2022-07-26T14:30:09Z</time>
      </trkpt>
      <trkpt lat="45.62835" lon="6.6238">
        <ele>2314</ele>
        <time>2022-07-26T14:30:10Z</time>
      </trkpt>
      <trkpt lat="45.62834" lon="6.6238">
        <ele>2314</ele>
        <time>2022-07-26T14:30:11Z</time>
      </trkpt>
      <trkpt lat="45.62833" lon="6.6238">
        <ele>2314</ele>
        <time>2022-07-26T14:30:12Z</time>
      </trkpt>
      <trkpt lat="45.62832" lon="6.6238">
        <ele>2314</ele>
        <time>2022-07-26T14:30:13Z</time>
      </trkpt>
      <trkpt lat="45.62831" lon="6.62379">
        <ele>2313</ele>
        <time>2022-07-26T14:30:14Z</time>
      </trkpt>
      <trkpt lat="45.62831" lon="6.62379">
        <ele>2313</ele>
        <time>2022-07-26T14:30:15Z</time>
      </trkpt>
      <trkpt lat="45.6283" lon="6.62378">
        <ele>2313</ele>
        <time>2022-07-26T14:30:16Z</time>
      </trkpt>
      <trkpt lat="45.62829" lon="6.62377">
        <ele>2313</ele>
        <time>2022-07-26T14:30:17Z</time>
      </trkpt>
      <trkpt lat="45.62828" lon="6.62377">
        <ele>2313</ele>
        <time>2022-07-26T14:30:18Z</time>
      </trkpt>
      <trkpt lat="45.62828" lon="6.62377">
        <ele>2312</ele>
        <time>2022-07-26T14:30:19Z</time>
      </trkpt>
      <trkpt lat="45.62827" lon="6.62377">
        <ele>2312</ele>
        <time>2022-07-26T14:30:20Z</time>
      </trkpt>
      <trkpt lat="45.62827" lon="6.62377">
        <ele>2311</ele>
        <time>2022-07-26T14:30:21Z</time>
      </trkpt>
      <trkpt lat="45.62826" lon="6.62378">
        <ele>2311</ele>
        <time>2022-07-26T14:30:22Z</time>
      </trkpt>
      <trkpt lat="45.62826" lon="6.62379">
        <ele>2311</ele>
        <time>2022-07-26T14:30:23Z</time>
      </trkpt>
      <trkpt lat="45.62825" lon="6.6238">
        <ele>2310</ele>
        <time>2022-07-26T14:30:24Z</time>
      </trkpt>
      <trkpt lat="45.62824" lon="6.62381">
        <ele>2310</ele>
        <time>2022-07-26T14:30:25Z</time>
      </trkpt>
      <trkpt lat="45.62823" lon="6.62381">
        <ele>2310</ele>
        <time>2022-07-26T14:30:26Z</time>
      </trkpt>
      <trkpt lat="45.62822" lon="6.62382">
        <ele>2310</ele>
        <time>2022-07-26T14:30:27Z</time>
      </trkpt>
      <trkpt lat="45.62821" lon="6.62383">
        <ele>2310</ele>
        <time>2022-07-26T14:30:28Z</time>
      </trkpt>
      <trkpt lat="45.6282" lon="6.62384">
        <ele>2309</ele>
        <time>2022-07-26T14:30:29Z</time>
      </trkpt>
      <trkpt lat="45.62819" lon="6.62385">
        <ele>2309</ele>
        <time>2022-07-26T14:30:30Z</time>
      </trkpt>
      <trkpt lat="45.62818" lon="6.62386">
        <ele>2309</ele>
        <time>2022-07-26T14:30:31Z</time>
      </trkpt>
      <trkpt lat="45.62817" lon="6.62387">
        <ele>2309</ele>
        <time>2022-07-26T14:30:32Z</time>
      </trkpt>
      <trkpt lat="45.62816" lon="6.62388">
        <ele>2309</ele>
        <time>2022-07-26T14:30:33Z</time>
      </trkpt>
      <trkpt lat="45.62815" lon="6.62389">
        <ele>2308</ele>
        <time>2022-07-26T14:30:34Z</time>
      </trkpt>
      <trkpt lat="45.62814" lon="6.62389">
        <ele>2308</ele>
        <time>2022-07-26T14:30:35Z</time>
      </trkpt>
      <trkpt lat="45.62814" lon="6.62389">
        <ele>2308</ele>
        <time>2022-07-26T14:30:36Z</time>
      </trkpt>
      <trkpt lat="45.62813" lon="6.62389">
        <ele>2308</ele>
        <time>2022-07-26T14:30:37Z</time>
      </trkpt>
      <trkpt lat="45.62813" lon="6.62388">
        <ele>2308</ele>
        <time>2022-07-26T14:30:38Z</time>
      </trkpt>
      <trkpt lat="45.62812" lon="6.62387">
        <ele>2308</ele>
        <time>2022-07-26T14:30:39Z</time>
      </trkpt>
      <trkpt lat="45.62811" lon="6.62387">
        <ele>2308</ele>
        <time>2022-07-26T14:30:40Z</time>
      </trkpt>
      <trkpt lat="45.62811" lon="6.62386">
        <ele>2308</ele>
        <time>2022-07-26T14:30:41Z</time>
      </trkpt>
      <trkpt lat="45.6281" lon="6.62385">
        <ele>2308</ele>
        <time>2022-07-26T14:30:42Z</time>
      </trkpt>
      <trkpt lat="45.62809" lon="6.62384">
        <ele>2308</ele>
        <time>2022-07-26T14:30:43Z</time>
      </trkpt>
      <trkpt lat="45.62808" lon="6.62383">
        <ele>2307</ele>
        <time>2022-07-26T14:30:44Z</time>
      </trkpt>
      <trkpt lat="45.62807" lon="6.62382">
        <ele>2307</ele>
        <time>2022-07-26T14:30:45Z</time>
      </trkpt>
      <trkpt lat="45.62806" lon="6.62381">
        <ele>2307</ele>
        <time>2022-07-26T14:30:46Z</time>
      </trkpt>
      <trkpt lat="45.62806" lon="6.62381">
        <ele>2307</ele>
        <time>2022-07-26T14:30:47Z</time>
      </trkpt>
      <trkpt lat="45.62806" lon="6.62381">
        <ele>2307</ele>
        <time>2022-07-26T14:30:48Z</time>
      </trkpt>
      <trkpt lat="45.62805" lon="6.6238">
        <ele>2306</ele>
        <time>2022-07-26T14:30:49Z</time>
      </trkpt>
      <trkpt lat="45.62805" lon="6.6238">
        <ele>2306</ele>
        <time>2022-07-26T14:30:50Z</time>
      </trkpt>
      <trkpt lat="45.62805" lon="6.6238">
        <ele>2306</ele>
        <time>2022-07-26T14:30:51Z</time>
      </trkpt>
      <trkpt lat="45.62804" lon="6.62379">
        <ele>2306</ele>
        <time>2022-07-26T14:30:52Z</time>
      </trkpt>
      <trkpt lat="45.62803" lon="6.62379">
        <ele>2306</ele>
        <time>2022-07-26T14:30:53Z</time>
      </trkpt>
      <trkpt lat="45.62802" lon="6.62378">
        <ele>2305</ele>
        <time>2022-07-26T14:30:54Z</time>
      </trkpt>
      <trkpt lat="45.62802" lon="6.62378">
        <ele>2305</ele>
        <time>2022-07-26T14:30:55Z</time>
      </trkpt>
      <trkpt lat="45.628" lon="6.62377">
        <ele>2301</ele>
        <time>2022-07-26T14:31:22Z</time>
      </trkpt>
      <trkpt lat="45.628" lon="6.62377">
        <ele>2301</ele>
        <time>2022-07-26T14:31:23Z</time>
      </trkpt>
      <trkpt lat="45.62799" lon="6.62377">
        <ele>2300</ele>
        <time>2022-07-26T14:31:24Z</time>
      </trkpt>
      <trkpt lat="45.62799" lon="6.62376">
        <ele>2300</ele>
        <time>2022-07-26T14:31:25Z</time>
      </trkpt>
      <trkpt lat="45.62798" lon="6.62376">
        <ele>2300</ele>
        <time>2022-07-26T14:31:26Z</time>
      </trkpt>
      <trkpt lat="45.62797" lon="6.62375">
        <ele>2300</ele>
        <time>2022-07-26T14:31:27Z</time>
      </trkpt>
      <trkpt lat="45.62797" lon="6.62375">
        <ele>2300</ele>
        <time>2022-07-26T14:31:28Z</time>
      </trkpt>
      <trkpt lat="45.62796" lon="6.62374">
        <ele>2300</ele>
        <time>2022-07-26T14:31:29Z</time>
      </trkpt>
      <trkpt lat="45.62795" lon="6.62373">
        <ele>2300</ele>
        <time>2022-07-26T14:31:30Z</time>
      </trkpt>
      <trkpt lat="45.62795" lon="6.62373">
        <ele>2300</ele>
        <time>2022-07-26T14:31:31Z</time>
      </trkpt>
      <trkpt lat="45.62795" lon="6.62373">
        <ele>2300</ele>
        <time>2022-07-26T14:31:32Z</time>
      </trkpt>
      <trkpt lat="45.62794" lon="6.62372">
        <ele>2300</ele>
        <time>2022-07-26T14:31:33Z</time>
      </trkpt>
      <trkpt lat="45.62794" lon="6.62372">
        <ele>2300</ele>
        <time>2022-07-26T14:31:34Z</time>
      </trkpt>
      <trkpt lat="45.62793" lon="6.62372">
        <ele>2300</ele>
        <time>2022-07-26T14:31:35Z</time>
      </trkpt>
      <trkpt lat="45.62792" lon="6.62371">
        <ele>2300</ele>
        <time>2022-07-26T14:31:36Z</time>
      </trkpt>
      <trkpt lat="45.62792" lon="6.62371">
        <ele>2300</ele>
        <time>2022-07-26T14:31:37Z</time>
      </trkpt>
      <trkpt lat="45.62791" lon="6.6237">
        <ele>2300</ele>
        <time>2022-07-26T14:31:38Z</time>
      </trkpt>
      <trkpt lat="45.62791" lon="6.62369">
        <ele>2299</ele>
        <time>2022-07-26T14:31:39Z</time>
      </trkpt>
      <trkpt lat="45.6279" lon="6.62368">
        <ele>2299</ele>
        <time>2022-07-26T14:31:40Z</time>
      </trkpt>
      <trkpt lat="45.62789" lon="6.62367">
        <ele>2299</ele>
        <time>2022-07-26T14:31:41Z</time>
      </trkpt>
      <trkpt lat="45.62789" lon="6.62365">
        <ele>2299</ele>
        <time>2022-07-26T14:31:42Z</time>
      </trkpt>
      <trkpt lat="45.62788" lon="6.62364">
        <ele>2299</ele>
        <time>2022-07-26T14:31:43Z</time>
      </trkpt>
      <trkpt lat="45.62788" lon="6.62363">
        <ele>2298</ele>
        <time>2022-07-26T14:31:44Z</time>
      </trkpt>
      <trkpt lat="45.62787" lon="6.62362">
        <ele>2298</ele>
        <time>2022-07-26T14:31:45Z</time>
      </trkpt>
      <trkpt lat="45.62786" lon="6.62361">
        <ele>2298</ele>
        <time>2022-07-26T14:31:46Z</time>
      </trkpt>
      <trkpt lat="45.62786" lon="6.62361">
        <ele>2298</ele>
        <time>2022-07-26T14:31:47Z</time>
      </trkpt>
      <trkpt lat="45.62785" lon="6.6236">
        <ele>2298</ele>
        <time>2022-07-26T14:31:48Z</time>
      </trkpt>
      <trkpt lat="45.62784" lon="6.6236">
        <ele>2297</ele>
        <time>2022-07-26T14:31:49Z</time>
      </trkpt>
      <trkpt lat="45.62783" lon="6.62359">
        <ele>2297</ele>
        <time>2022-07-26T14:31:50Z</time>
      </trkpt>
      <trkpt lat="45.62782" lon="6.62359">
        <ele>2297</ele>
        <time>2022-07-26T14:31:51Z</time>
      </trkpt>
      <trkpt lat="45.62781" lon="6.62358">
        <ele>2297</ele>
        <time>2022-07-26T14:31:52Z</time>
      </trkpt>
      <trkpt lat="45.6278" lon="6.62358">
        <ele>2297</ele>
        <time>2022-07-26T14:31:53Z</time>
      </trkpt>
      <trkpt lat="45.62779" lon="6.62357">
        <ele>2296</ele>
        <time>2022-07-26T14:31:54Z</time>
      </trkpt>
      <trkpt lat="45.62779" lon="6.62356">
        <ele>2296</ele>
        <time>2022-07-26T14:31:55Z</time>
      </trkpt>
      <trkpt lat="45.62779" lon="6.62356">
        <ele>2296</ele>
        <time>2022-07-26T14:31:56Z</time>
      </trkpt>
      <trkpt lat="45.6278" lon="6.62355">
        <ele>2296</ele>
        <time>2022-07-26T14:31:57Z</time>
      </trkpt>
      <trkpt lat="45.6278" lon="6.62354">
        <ele>2296</ele>
        <time>2022-07-26T14:31:58Z</time>
      </trkpt>
      <trkpt lat="45.62781" lon="6.62353">
        <ele>2295</ele>
        <time>2022-07-26T14:31:59Z</time>
      </trkpt>
      <trkpt lat="45.62781" lon="6.62352">
        <ele>2295</ele>
        <time>2022-07-26T14:32:00Z</time>
      </trkpt>
      <trkpt lat="45.62781" lon="6.62351">
        <ele>2295</ele>
        <time>2022-07-26T14:32:01Z</time>
      </trkpt>
      <trkpt lat="45.62781" lon="6.6235">
        <ele>2295</ele>
        <time>2022-07-26T14:32:02Z</time>
      </trkpt>
      <trkpt lat="45.6278" lon="6.62349">
        <ele>2295</ele>
        <time>2022-07-26T14:32:03Z</time>
      </trkpt>
      <trkpt lat="45.6278" lon="6.62348">
        <ele>2294</ele>
        <time>2022-07-26T14:32:04Z</time>
      </trkpt>
      <trkpt lat="45.62779" lon="6.62347">
        <ele>2294</ele>
        <time>2022-07-26T14:32:05Z</time>
      </trkpt>
      <trkpt lat="45.62778" lon="6.62347">
        <ele>2294</ele>
        <time>2022-07-26T14:32:06Z</time>
      </trkpt>
      <trkpt lat="45.62777" lon="6.62346">
        <ele>2294</ele>
        <time>2022-07-26T14:32:07Z</time>
      </trkpt>
      <trkpt lat="45.62776" lon="6.62346">
        <ele>2294</ele>
        <time>2022-07-26T14:32:08Z</time>
      </trkpt>
      <trkpt lat="45.62775" lon="6.62345">
        <ele>2293</ele>
        <time>2022-07-26T14:32:09Z</time>
      </trkpt>
      <trkpt lat="45.62775" lon="6.62345">
        <ele>2293</ele>
        <time>2022-07-26T14:32:10Z</time>
      </trkpt>
      <trkpt lat="45.62774" lon="6.62344">
        <ele>2293</ele>
        <time>2022-07-26T14:32:11Z</time>
      </trkpt>
      <trkpt lat="45.62773" lon="6.62344">
        <ele>2293</ele>
        <time>2022-07-26T14:32:12Z</time>
      </trkpt>
      <trkpt lat="45.62772" lon="6.62344">
        <ele>2293</ele>
        <time>2022-07-26T14:32:13Z</time>
      </trkpt>
      <trkpt lat="45.62771" lon="6.62344">
        <ele>2292</ele>
        <time>2022-07-26T14:32:14Z</time>
      </trkpt>
      <trkpt lat="45.62771" lon="6.62343">
        <ele>2292</ele>
        <time>2022-07-26T14:32:15Z</time>
      </trkpt>
      <trkpt lat="45.6277" lon="6.62343">
        <ele>2292</ele>
        <time>2022-07-26T14:32:16Z</time>
      </trkpt>
      <trkpt lat="45.62769" lon="6.62343">
        <ele>2292</ele>
        <time>2022-07-26T14:32:17Z</time>
      </trkpt>
      <trkpt lat="45.62768" lon="6.62343">
        <ele>2292</ele>
        <time>2022-07-26T14:32:18Z</time>
      </trkpt>
      <trkpt lat="45.62767" lon="6.62343">
        <ele>2292</ele>
        <time>2022-07-26T14:32:19Z</time>
      </trkpt>
      <trkpt lat="45.62766" lon="6.62343">
        <ele>2292</ele>
        <time>2022-07-26T14:32:20Z</time>
      </trkpt>
      <trkpt lat="45.62766" lon="6.62342">
        <ele>2292</ele>
        <time>2022-07-26T14:32:21Z</time>
      </trkpt>
      <trkpt lat="45.62765" lon="6.62342">
        <ele>2292</ele>
        <time>2022-07-26T14:32:22Z</time>
      </trkpt>
      <trkpt lat="45.62764" lon="6.62342">
        <ele>2292</ele>
        <time>2022-07-26T14:32:23Z</time>
      </trkpt>
      <trkpt lat="45.62763" lon="6.62342">
        <ele>2291</ele>
        <time>2022-07-26T14:32:24Z</time>
      </trkpt>
      <trkpt lat="45.62762" lon="6.62341">
        <ele>2291</ele>
        <time>2022-07-26T14:32:25Z</time>
      </trkpt>
      <trkpt lat="45.62761" lon="6.62341">
        <ele>2291</ele>
        <time>2022-07-26T14:32:26Z</time>
      </trkpt>
      <trkpt lat="45.6276" lon="6.62341">
        <ele>2291</ele>
        <time>2022-07-26T14:32:27Z</time>
      </trkpt>
      <trkpt lat="45.62759" lon="6.6234">
        <ele>2291</ele>
        <time>2022-07-26T14:32:28Z</time>
      </trkpt>
      <trkpt lat="45.62758" lon="6.62339">
        <ele>2290</ele>
        <time>2022-07-26T14:32:29Z</time>
      </trkpt>
      <trkpt lat="45.62758" lon="6.62339">
        <ele>2290</ele>
        <time>2022-07-26T14:32:30Z</time>
      </trkpt>
      <trkpt lat="45.62757" lon="6.62338">
        <ele>2290</ele>
        <time>2022-07-26T14:32:31Z</time>
      </trkpt>
      <trkpt lat="45.62756" lon="6.62337">
        <ele>2288</ele>
        <time>2022-07-26T14:32:39Z</time>
      </trkpt>
      <trkpt lat="45.62756" lon="6.62336">
        <ele>2288</ele>
        <time>2022-07-26T14:32:40Z</time>
      </trkpt>
      <trkpt lat="45.62755" lon="6.62336">
        <ele>2288</ele>
        <time>2022-07-26T14:32:41Z</time>
      </trkpt>
      <trkpt lat="45.62755" lon="6.62335">
        <ele>2288</ele>
        <time>2022-07-26T14:32:42Z</time>
      </trkpt>
      <trkpt lat="45.62754" lon="6.62334">
        <ele>2288</ele>
        <time>2022-07-26T14:32:43Z</time>
      </trkpt>
      <trkpt lat="45.62754" lon="6.62333">
        <ele>2288</ele>
        <time>2022-07-26T14:32:44Z</time>
      </trkpt>
      <trkpt lat="45.62754" lon="6.62332">
        <ele>2288</ele>
        <time>2022-07-26T14:32:45Z</time>
      </trkpt>
      <trkpt lat="45.62753" lon="6.62332">
        <ele>2288</ele>
        <time>2022-07-26T14:32:46Z</time>
      </trkpt>
      <trkpt lat="45.62752" lon="6.62331">
        <ele>2288</ele>
        <time>2022-07-26T14:32:47Z</time>
      </trkpt>
      <trkpt lat="45.62752" lon="6.62331">
        <ele>2288</ele>
        <time>2022-07-26T14:32:48Z</time>
      </trkpt>
      <trkpt lat="45.62751" lon="6.62331">
        <ele>2287</ele>
        <time>2022-07-26T14:32:49Z</time>
      </trkpt>
      <trkpt lat="45.6275" lon="6.62331">
        <ele>2287</ele>
        <time>2022-07-26T14:32:50Z</time>
      </trkpt>
      <trkpt lat="45.62749" lon="6.62331">
        <ele>2287</ele>
        <time>2022-07-26T14:32:51Z</time>
      </trkpt>
      <trkpt lat="45.62748" lon="6.62331">
        <ele>2287</ele>
        <time>2022-07-26T14:32:52Z</time>
      </trkpt>
      <trkpt lat="45.62748" lon="6.62331">
        <ele>2287</ele>
        <time>2022-07-26T14:32:53Z</time>
      </trkpt>
      <trkpt lat="45.62745" lon="6.62331">
        <ele>2286</ele>
        <time>2022-07-26T14:33:05Z</time>
      </trkpt>
      <trkpt lat="45.62745" lon="6.6233">
        <ele>2286</ele>
        <time>2022-07-26T14:33:06Z</time>
      </trkpt>
      <trkpt lat="45.62744" lon="6.62329">
        <ele>2286</ele>
        <time>2022-07-26T14:33:07Z</time>
      </trkpt>
      <trkpt lat="45.62743" lon="6.62329">
        <ele>2286</ele>
        <time>2022-07-26T14:33:08Z</time>
      </trkpt>
      <trkpt lat="45.62743" lon="6.62328">
        <ele>2285</ele>
        <time>2022-07-26T14:33:09Z</time>
      </trkpt>
      <trkpt lat="45.62743" lon="6.62327">
        <ele>2282</ele>
        <time>2022-07-26T14:33:24Z</time>
      </trkpt>
      <trkpt lat="45.62743" lon="6.62326">
        <ele>2282</ele>
        <time>2022-07-26T14:33:25Z</time>
      </trkpt>
      <trkpt lat="45.62743" lon="6.62325">
        <ele>2282</ele>
        <time>2022-07-26T14:33:26Z</time>
      </trkpt>
      <trkpt lat="45.62742" lon="6.62324">
        <ele>2282</ele>
        <time>2022-07-26T14:33:27Z</time>
      </trkpt>
      <trkpt lat="45.62742" lon="6.62323">
        <ele>2282</ele>
        <time>2022-07-26T14:33:28Z</time>
      </trkpt>
      <trkpt lat="45.62742" lon="6.62322">
        <ele>2282</ele>
        <time>2022-07-26T14:33:29Z</time>
      </trkpt>
      <trkpt lat="45.62742" lon="6.62321">
        <ele>2282</ele>
        <time>2022-07-26T14:33:30Z</time>
      </trkpt>
      <trkpt lat="45.62741" lon="6.6232">
        <ele>2282</ele>
        <time>2022-07-26T14:33:31Z</time>
      </trkpt>
      <trkpt lat="45.62741" lon="6.62318">
        <ele>2282</ele>
        <time>2022-07-26T14:33:32Z</time>
      </trkpt>
      <trkpt lat="45.6274" lon="6.62317">
        <ele>2282</ele>
        <time>2022-07-26T14:33:33Z</time>
      </trkpt>
      <trkpt lat="45.62739" lon="6.62316">
        <ele>2282</ele>
        <time>2022-07-26T14:33:34Z</time>
      </trkpt>
      <trkpt lat="45.62739" lon="6.62314">
        <ele>2282</ele>
        <time>2022-07-26T14:33:35Z</time>
      </trkpt>
      <trkpt lat="45.62738" lon="6.62313">
        <ele>2282</ele>
        <time>2022-07-26T14:33:36Z</time>
      </trkpt>
      <trkpt lat="45.62737" lon="6.62311">
        <ele>2281</ele>
        <time>2022-07-26T14:33:54Z</time>
      </trkpt>
      <trkpt lat="45.62737" lon="6.62311">
        <ele>2281</ele>
        <time>2022-07-26T14:33:55Z</time>
      </trkpt>
      <trkpt lat="45.62737" lon="6.6231">
        <ele>2281</ele>
        <time>2022-07-26T14:33:56Z</time>
      </trkpt>
      <trkpt lat="45.62736" lon="6.6231">
        <ele>2281</ele>
        <time>2022-07-26T14:33:57Z</time>
      </trkpt>
      <trkpt lat="45.62736" lon="6.62309">
        <ele>2282</ele>
        <time>2022-07-26T14:33:58Z</time>
      </trkpt>
      <trkpt lat="45.62736" lon="6.62308">
        <ele>2282</ele>
        <time>2022-07-26T14:33:59Z</time>
      </trkpt>
      <trkpt lat="45.62735" lon="6.62307">
        <ele>2282</ele>
        <time>2022-07-26T14:34:00Z</time>
      </trkpt>
      <trkpt lat="45.62735" lon="6.62306">
        <ele>2282</ele>
        <time>2022-07-26T14:34:01Z</time>
      </trkpt>
      <trkpt lat="45.62735" lon="6.62305">
        <ele>2282</ele>
        <time>2022-07-26T14:34:02Z</time>
      </trkpt>
      <trkpt lat="45.62734" lon="6.62303">
        <ele>2282</ele>
        <time>2022-07-26T14:34:03Z</time>
      </trkpt>
      <trkpt lat="45.62734" lon="6.62302">
        <ele>2281</ele>
        <time>2022-07-26T14:34:04Z</time>
      </trkpt>
      <trkpt lat="45.62733" lon="6.62301">
        <ele>2281</ele>
        <time>2022-07-26T14:34:05Z</time>
      </trkpt>
      <trkpt lat="45.62733" lon="6.62299">
        <ele>2281</ele>
        <time>2022-07-26T14:34:06Z</time>
      </trkpt>
      <trkpt lat="45.62732" lon="6.62298">
        <ele>2281</ele>
        <time>2022-07-26T14:34:07Z</time>
      </trkpt>
      <trkpt lat="45.62732" lon="6.62297">
        <ele>2281</ele>
        <time>2022-07-26T14:34:08Z</time>
      </trkpt>
      <trkpt lat="45.62732" lon="6.62296">
        <ele>2281</ele>
        <time>2022-07-26T14:34:09Z</time>
      </trkpt>
      <trkpt lat="45.62731" lon="6.62295">
        <ele>2281</ele>
        <time>2022-07-26T14:34:10Z</time>
      </trkpt>
      <trkpt lat="45.62731" lon="6.62293">
        <ele>2281</ele>
        <time>2022-07-26T14:34:11Z</time>
      </trkpt>
      <trkpt lat="45.62731" lon="6.62292">
        <ele>2281</ele>
        <time>2022-07-26T14:34:12Z</time>
      </trkpt>
      <trkpt lat="45.6273" lon="6.62291">
        <ele>2281</ele>
        <time>2022-07-26T14:34:13Z</time>
      </trkpt>
      <trkpt lat="45.6273" lon="6.6229">
        <ele>2280</ele>
        <time>2022-07-26T14:34:14Z</time>
      </trkpt>
      <trkpt lat="45.6273" lon="6.62288">
        <ele>2280</ele>
        <time>2022-07-26T14:34:15Z</time>
      </trkpt>
      <trkpt lat="45.62729" lon="6.62287">
        <ele>2280</ele>
        <time>2022-07-26T14:34:16Z</time>
      </trkpt>
      <trkpt lat="45.62729" lon="6.62286">
        <ele>2280</ele>
        <time>2022-07-26T14:34:17Z</time>
      </trkpt>
      <trkpt lat="45.62729" lon="6.62284">
        <ele>2280</ele>
        <time>2022-07-26T14:34:18Z</time>
      </trkpt>
      <trkpt lat="45.62728" lon="6.62283">
        <ele>2279</ele>
        <time>2022-07-26T14:34:19Z</time>
      </trkpt>
      <trkpt lat="45.62728" lon="6.62282">
        <ele>2279</ele>
        <time>2022-07-26T14:34:20Z</time>
      </trkpt>
      <trkpt lat="45.62728" lon="6.62281">
        <ele>2279</ele>
        <time>2022-07-26T14:34:21Z</time>
      </trkpt>
      <trkpt lat="45.62727" lon="6.62281">
        <ele>2279</ele>
        <time>2022-07-26T14:34:22Z</time>
      </trkpt>
      <trkpt lat="45.62726" lon="6.62279">
        <ele>2279</ele>
        <time>2022-07-26T14:34:23Z</time>
      </trkpt>
      <trkpt lat="45.62726" lon="6.62278">
        <ele>2278</ele>
        <time>2022-07-26T14:34:24Z</time>
      </trkpt>
      <trkpt lat="45.62725" lon="6.62277">
        <ele>2278</ele>
        <time>2022-07-26T14:34:25Z</time>
      </trkpt>
      <trkpt lat="45.62724" lon="6.62276">
        <ele>2278</ele>
        <time>2022-07-26T14:34:26Z</time>
      </trkpt>
      <trkpt lat="45.62724" lon="6.62275">
        <ele>2278</ele>
        <time>2022-07-26T14:34:27Z</time>
      </trkpt>
      <trkpt lat="45.62723" lon="6.62273">
        <ele>2278</ele>
        <time>2022-07-26T14:34:28Z</time>
      </trkpt>
      <trkpt lat="45.62722" lon="6.62272">
        <ele>2278</ele>
        <time>2022-07-26T14:34:29Z</time>
      </trkpt>
      <trkpt lat="45.62722" lon="6.62271">
        <ele>2278</ele>
        <time>2022-07-26T14:34:30Z</time>
      </trkpt>
      <trkpt lat="45.62721" lon="6.62269">
        <ele>2278</ele>
        <time>2022-07-26T14:34:31Z</time>
      </trkpt>
      <trkpt lat="45.62721" lon="6.62268">
        <ele>2278</ele>
        <time>2022-07-26T14:34:32Z</time>
      </trkpt>
      <trkpt lat="45.6272" lon="6.62267">
        <ele>2278</ele>
        <time>2022-07-26T14:34:33Z</time>
      </trkpt>
      <trkpt lat="45.62719" lon="6.62266">
        <ele>2277</ele>
        <time>2022-07-26T14:34:34Z</time>
      </trkpt>
      <trkpt lat="45.62718" lon="6.62265">
        <ele>2277</ele>
        <time>2022-07-26T14:34:35Z</time>
      </trkpt>
      <trkpt lat="45.62717" lon="6.62264">
        <ele>2277</ele>
        <time>2022-07-26T14:34:36Z</time>
      </trkpt>
      <trkpt lat="45.62716" lon="6.62263">
        <ele>2277</ele>
        <time>2022-07-26T14:34:37Z</time>
      </trkpt>
      <trkpt lat="45.62715" lon="6.62262">
        <ele>2277</ele>
        <time>2022-07-26T14:34:38Z</time>
      </trkpt>
      <trkpt lat="45.62714" lon="6.62261">
        <ele>2276</ele>
        <time>2022-07-26T14:34:39Z</time>
      </trkpt>
      <trkpt lat="45.62713" lon="6.62261">
        <ele>2276</ele>
        <time>2022-07-26T14:34:40Z</time>
      </trkpt>
      <trkpt lat="45.62712" lon="6.6226">
        <ele>2276</ele>
        <time>2022-07-26T14:34:41Z</time>
      </trkpt>
      <trkpt lat="45.62711" lon="6.6226">
        <ele>2276</ele>
        <time>2022-07-26T14:34:42Z</time>
      </trkpt>
      <trkpt lat="45.6271" lon="6.62259">
        <ele>2276</ele>
        <time>2022-07-26T14:34:43Z</time>
      </trkpt>
      <trkpt lat="45.62709" lon="6.62259">
        <ele>2275</ele>
        <time>2022-07-26T14:34:44Z</time>
      </trkpt>
      <trkpt lat="45.62708" lon="6.62258">
        <ele>2275</ele>
        <time>2022-07-26T14:34:45Z</time>
      </trkpt>
      <trkpt lat="45.62706" lon="6.62257">
        <ele>2275</ele>
        <time>2022-07-26T14:34:46Z</time>
      </trkpt>
      <trkpt lat="45.62705" lon="6.62257">
        <ele>2275</ele>
        <time>2022-07-26T14:34:47Z</time>
      </trkpt>
      <trkpt lat="45.62704" lon="6.62256">
        <ele>2275</ele>
        <time>2022-07-26T14:34:48Z</time>
      </trkpt>
      <trkpt lat="45.62703" lon="6.62255">
        <ele>2275</ele>
        <time>2022-07-26T14:34:49Z</time>
      </trkpt>
      <trkpt lat="45.62702" lon="6.62254">
        <ele>2275</ele>
        <time>2022-07-26T14:34:50Z</time>
      </trkpt>
      <trkpt lat="45.62702" lon="6.62254">
        <ele>2275</ele>
        <time>2022-07-26T14:34:51Z</time>
      </trkpt>
      <trkpt lat="45.62701" lon="6.62253">
        <ele>2275</ele>
        <time>2022-07-26T14:34:52Z</time>
      </trkpt>
      <trkpt lat="45.627" lon="6.62252">
        <ele>2275</ele>
        <time>2022-07-26T14:34:53Z</time>
      </trkpt>
      <trkpt lat="45.62699" lon="6.62251">
        <ele>2274</ele>
        <time>2022-07-26T14:34:54Z</time>
      </trkpt>
      <trkpt lat="45.62698" lon="6.6225">
        <ele>2274</ele>
        <time>2022-07-26T14:34:55Z</time>
      </trkpt>
      <trkpt lat="45.62697" lon="6.6225">
        <ele>2274</ele>
        <time>2022-07-26T14:34:56Z</time>
      </trkpt>
      <trkpt lat="45.62697" lon="6.62249">
        <ele>2274</ele>
        <time>2022-07-26T14:34:57Z</time>
      </trkpt>
      <trkpt lat="45.62696" lon="6.62248">
        <ele>2274</ele>
        <time>2022-07-26T14:34:58Z</time>
      </trkpt>
      <trkpt lat="45.62695" lon="6.62247">
        <ele>2273</ele>
        <time>2022-07-26T14:34:59Z</time>
      </trkpt>
      <trkpt lat="45.62694" lon="6.62246">
        <ele>2273</ele>
        <time>2022-07-26T14:35:00Z</time>
      </trkpt>
      <trkpt lat="45.62693" lon="6.62245">
        <ele>2273</ele>
        <time>2022-07-26T14:35:01Z</time>
      </trkpt>
      <trkpt lat="45.62692" lon="6.62244">
        <ele>2273</ele>
        <time>2022-07-26T14:35:02Z</time>
      </trkpt>
      <trkpt lat="45.62691" lon="6.62243">
        <ele>2273</ele>
        <time>2022-07-26T14:35:03Z</time>
      </trkpt>
      <trkpt lat="45.6269" lon="6.62242">
        <ele>2273</ele>
        <time>2022-07-26T14:35:04Z</time>
      </trkpt>
      <trkpt lat="45.62689" lon="6.62241">
        <ele>2273</ele>
        <time>2022-07-26T14:35:05Z</time>
      </trkpt>
      <trkpt lat="45.62689" lon="6.6224">
        <ele>2273</ele>
        <time>2022-07-26T14:35:06Z</time>
      </trkpt>
      <trkpt lat="45.62688" lon="6.62239">
        <ele>2273</ele>
        <time>2022-07-26T14:35:07Z</time>
      </trkpt>
      <trkpt lat="45.62687" lon="6.62239">
        <ele>2273</ele>
        <time>2022-07-26T14:35:08Z</time>
      </trkpt>
      <trkpt lat="45.62686" lon="6.62238">
        <ele>2273</ele>
        <time>2022-07-26T14:35:09Z</time>
      </trkpt>
      <trkpt lat="45.62685" lon="6.62237">
        <ele>2273</ele>
        <time>2022-07-26T14:35:10Z</time>
      </trkpt>
      <trkpt lat="45.62684" lon="6.62236">
        <ele>2273</ele>
        <time>2022-07-26T14:35:11Z</time>
      </trkpt>
      <trkpt lat="45.62684" lon="6.62235">
        <ele>2273</ele>
        <time>2022-07-26T14:35:12Z</time>
      </trkpt>
      <trkpt lat="45.62683" lon="6.62234">
        <ele>2273</ele>
        <time>2022-07-26T14:35:13Z</time>
      </trkpt>
      <trkpt lat="45.62682" lon="6.62233">
        <ele>2272</ele>
        <time>2022-07-26T14:35:14Z</time>
      </trkpt>
      <trkpt lat="45.62681" lon="6.62232">
        <ele>2272</ele>
        <time>2022-07-26T14:35:15Z</time>
      </trkpt>
      <trkpt lat="45.62681" lon="6.62231">
        <ele>2272</ele>
        <time>2022-07-26T14:35:16Z</time>
      </trkpt>
      <trkpt lat="45.6268" lon="6.6223">
        <ele>2272</ele>
        <time>2022-07-26T14:35:17Z</time>
      </trkpt>
      <trkpt lat="45.62679" lon="6.62229">
        <ele>2272</ele>
        <time>2022-07-26T14:35:18Z</time>
      </trkpt>
      <trkpt lat="45.62678" lon="6.62228">
        <ele>2271</ele>
        <time>2022-07-26T14:35:19Z</time>
      </trkpt>
      <trkpt lat="45.62678" lon="6.62227">
        <ele>2271</ele>
        <time>2022-07-26T14:35:20Z</time>
      </trkpt>
      <trkpt lat="45.62676" lon="6.62226">
        <ele>2271</ele>
        <time>2022-07-26T14:35:21Z</time>
      </trkpt>
      <trkpt lat="45.62675" lon="6.62225">
        <ele>2271</ele>
        <time>2022-07-26T14:35:22Z</time>
      </trkpt>
      <trkpt lat="45.62674" lon="6.62224">
        <ele>2271</ele>
        <time>2022-07-26T14:35:23Z</time>
      </trkpt>
      <trkpt lat="45.62673" lon="6.62223">
        <ele>2270</ele>
        <time>2022-07-26T14:35:24Z</time>
      </trkpt>
      <trkpt lat="45.62672" lon="6.62222">
        <ele>2270</ele>
        <time>2022-07-26T14:35:25Z</time>
      </trkpt>
      <trkpt lat="45.62671" lon="6.62221">
        <ele>2270</ele>
        <time>2022-07-26T14:35:26Z</time>
      </trkpt>
      <trkpt lat="45.6267" lon="6.6222">
        <ele>2270</ele>
        <time>2022-07-26T14:35:27Z</time>
      </trkpt>
      <trkpt lat="45.6267" lon="6.62219">
        <ele>2270</ele>
        <time>2022-07-26T14:35:28Z</time>
      </trkpt>
      <trkpt lat="45.62669" lon="6.62218">
        <ele>2269</ele>
        <time>2022-07-26T14:35:29Z</time>
      </trkpt>
      <trkpt lat="45.62668" lon="6.62217">
        <ele>2269</ele>
        <time>2022-07-26T14:35:30Z</time>
      </trkpt>
      <trkpt lat="45.62667" lon="6.62216">
        <ele>2269</ele>
        <time>2022-07-26T14:35:31Z</time>
      </trkpt>
      <trkpt lat="45.62666" lon="6.62215">
        <ele>2269</ele>
        <time>2022-07-26T14:35:32Z</time>
      </trkpt>
      <trkpt lat="45.62665" lon="6.62214">
        <ele>2269</ele>
        <time>2022-07-26T14:35:33Z</time>
      </trkpt>
      <trkpt lat="45.62665" lon="6.62213">
        <ele>2268</ele>
        <time>2022-07-26T14:35:34Z</time>
      </trkpt>
      <trkpt lat="45.62664" lon="6.62213">
        <ele>2268</ele>
        <time>2022-07-26T14:35:35Z</time>
      </trkpt>
      <trkpt lat="45.62663" lon="6.62212">
        <ele>2268</ele>
        <time>2022-07-26T14:35:36Z</time>
      </trkpt>
      <trkpt lat="45.62662" lon="6.62211">
        <ele>2268</ele>
        <time>2022-07-26T14:35:37Z</time>
      </trkpt>
      <trkpt lat="45.62661" lon="6.6221">
        <ele>2268</ele>
        <time>2022-07-26T14:35:38Z</time>
      </trkpt>
      <trkpt lat="45.6266" lon="6.62209">
        <ele>2267</ele>
        <time>2022-07-26T14:35:39Z</time>
      </trkpt>
      <trkpt lat="45.62659" lon="6.62208">
        <ele>2267</ele>
        <time>2022-07-26T14:35:40Z</time>
      </trkpt>
      <trkpt lat="45.62658" lon="6.62206">
        <ele>2267</ele>
        <time>2022-07-26T14:35:41Z</time>
      </trkpt>
      <trkpt lat="45.62658" lon="6.62205">
        <ele>2267</ele>
        <time>2022-07-26T14:35:42Z</time>
      </trkpt>
      <trkpt lat="45.62657" lon="6.62203">
        <ele>2267</ele>
        <time>2022-07-26T14:35:43Z</time>
      </trkpt>
      <trkpt lat="45.62656" lon="6.62202">
        <ele>2266</ele>
        <time>2022-07-26T14:35:44Z</time>
      </trkpt>
      <trkpt lat="45.62655" lon="6.622">
        <ele>2266</ele>
        <time>2022-07-26T14:35:45Z</time>
      </trkpt>
      <trkpt lat="45.62655" lon="6.62199">
        <ele>2266</ele>
        <time>2022-07-26T14:35:46Z</time>
      </trkpt>
      <trkpt lat="45.62654" lon="6.62197">
        <ele>2266</ele>
        <time>2022-07-26T14:35:47Z</time>
      </trkpt>
      <trkpt lat="45.62653" lon="6.62196">
        <ele>2266</ele>
        <time>2022-07-26T14:35:48Z</time>
      </trkpt>
      <trkpt lat="45.62652" lon="6.62194">
        <ele>2265</ele>
        <time>2022-07-26T14:35:49Z</time>
      </trkpt>
      <trkpt lat="45.62652" lon="6.62192">
        <ele>2265</ele>
        <time>2022-07-26T14:35:50Z</time>
      </trkpt>
      <trkpt lat="45.62651" lon="6.6219">
        <ele>2265</ele>
        <time>2022-07-26T14:35:51Z</time>
      </trkpt>
      <trkpt lat="45.62651" lon="6.62189">
        <ele>2265</ele>
        <time>2022-07-26T14:35:52Z</time>
      </trkpt>
      <trkpt lat="45.6265" lon="6.62187">
        <ele>2265</ele>
        <time>2022-07-26T14:35:53Z</time>
      </trkpt>
      <trkpt lat="45.6265" lon="6.62185">
        <ele>2264</ele>
        <time>2022-07-26T14:35:54Z</time>
      </trkpt>
      <trkpt lat="45.62649" lon="6.62183">
        <ele>2264</ele>
        <time>2022-07-26T14:35:55Z</time>
      </trkpt>
      <trkpt lat="45.62649" lon="6.62182">
        <ele>2264</ele>
        <time>2022-07-26T14:35:56Z</time>
      </trkpt>
      <trkpt lat="45.62649" lon="6.6218">
        <ele>2264</ele>
        <time>2022-07-26T14:35:57Z</time>
      </trkpt>
      <trkpt lat="45.62649" lon="6.62179">
        <ele>2264</ele>
        <time>2022-07-26T14:35:58Z</time>
      </trkpt>
      <trkpt lat="45.62649" lon="6.62177">
        <ele>2264</ele>
        <time>2022-07-26T14:35:59Z</time>
      </trkpt>
      <trkpt lat="45.62649" lon="6.62175">
        <ele>2264</ele>
        <time>2022-07-26T14:36:00Z</time>
      </trkpt>
      <trkpt lat="45.62649" lon="6.62174">
        <ele>2264</ele>
        <time>2022-07-26T14:36:01Z</time>
      </trkpt>
      <trkpt lat="45.62649" lon="6.62172">
        <ele>2264</ele>
        <time>2022-07-26T14:36:02Z</time>
      </trkpt>
      <trkpt lat="45.62649" lon="6.62171">
        <ele>2264</ele>
        <time>2022-07-26T14:36:03Z</time>
      </trkpt>
      <trkpt lat="45.62649" lon="6.62169">
        <ele>2263</ele>
        <time>2022-07-26T14:36:04Z</time>
      </trkpt>
      <trkpt lat="45.62649" lon="6.62167">
        <ele>2263</ele>
        <time>2022-07-26T14:36:05Z</time>
      </trkpt>
      <trkpt lat="45.62649" lon="6.62166">
        <ele>2263</ele>
        <time>2022-07-26T14:36:06Z</time>
      </trkpt>
      <trkpt lat="45.62649" lon="6.62164">
        <ele>2263</ele>
        <time>2022-07-26T14:36:07Z</time>
      </trkpt>
      <trkpt lat="45.62649" lon="6.62163">
        <ele>2263</ele>
        <time>2022-07-26T14:36:08Z</time>
      </trkpt>
      <trkpt lat="45.62649" lon="6.62161">
        <ele>2262</ele>
        <time>2022-07-26T14:36:09Z</time>
      </trkpt>
      <trkpt lat="45.62649" lon="6.62159">
        <ele>2262</ele>
        <time>2022-07-26T14:36:10Z</time>
      </trkpt>
      <trkpt lat="45.62649" lon="6.62158">
        <ele>2261</ele>
        <time>2022-07-26T14:36:11Z</time>
      </trkpt>
      <trkpt lat="45.62649" lon="6.62156">
        <ele>2261</ele>
        <time>2022-07-26T14:36:12Z</time>
      </trkpt>
      <trkpt lat="45.62649" lon="6.62154">
        <ele>2261</ele>
        <time>2022-07-26T14:36:13Z</time>
      </trkpt>
      <trkpt lat="45.62648" lon="6.62153">
        <ele>2260</ele>
        <time>2022-07-26T14:36:14Z</time>
      </trkpt>
      <trkpt lat="45.62648" lon="6.62151">
        <ele>2260</ele>
        <time>2022-07-26T14:36:15Z</time>
      </trkpt>
      <trkpt lat="45.62648" lon="6.62149">
        <ele>2260</ele>
        <time>2022-07-26T14:36:16Z</time>
      </trkpt>
      <trkpt lat="45.62648" lon="6.62148">
        <ele>2260</ele>
        <time>2022-07-26T14:36:17Z</time>
      </trkpt>
      <trkpt lat="45.62647" lon="6.62146">
        <ele>2260</ele>
        <time>2022-07-26T14:36:18Z</time>
      </trkpt>
      <trkpt lat="45.62647" lon="6.62144">
        <ele>2259</ele>
        <time>2022-07-26T14:36:19Z</time>
      </trkpt>
      <trkpt lat="45.62647" lon="6.62142">
        <ele>2259</ele>
        <time>2022-07-26T14:36:20Z</time>
      </trkpt>
      <trkpt lat="45.62646" lon="6.6214">
        <ele>2259</ele>
        <time>2022-07-26T14:36:21Z</time>
      </trkpt>
      <trkpt lat="45.62646" lon="6.62139">
        <ele>2259</ele>
        <time>2022-07-26T14:36:22Z</time>
      </trkpt>
      <trkpt lat="45.62645" lon="6.62137">
        <ele>2259</ele>
        <time>2022-07-26T14:36:23Z</time>
      </trkpt>
      <trkpt lat="45.62645" lon="6.62135">
        <ele>2258</ele>
        <time>2022-07-26T14:36:24Z</time>
      </trkpt>
      <trkpt lat="45.62645" lon="6.62133">
        <ele>2258</ele>
        <time>2022-07-26T14:36:25Z</time>
      </trkpt>
      <trkpt lat="45.62644" lon="6.62132">
        <ele>2258</ele>
        <time>2022-07-26T14:36:26Z</time>
      </trkpt>
      <trkpt lat="45.62644" lon="6.6213">
        <ele>2258</ele>
        <time>2022-07-26T14:36:27Z</time>
      </trkpt>
      <trkpt lat="45.62643" lon="6.62128">
        <ele>2258</ele>
        <time>2022-07-26T14:36:28Z</time>
      </trkpt>
      <trkpt lat="45.62642" lon="6.62127">
        <ele>2257</ele>
        <time>2022-07-26T14:36:29Z</time>
      </trkpt>
      <trkpt lat="45.62642" lon="6.62125">
        <ele>2257</ele>
        <time>2022-07-26T14:36:30Z</time>
      </trkpt>
      <trkpt lat="45.62641" lon="6.62124">
        <ele>2256</ele>
        <time>2022-07-26T14:36:31Z</time>
      </trkpt>
      <trkpt lat="45.6264" lon="6.62123">
        <ele>2256</ele>
        <time>2022-07-26T14:36:32Z</time>
      </trkpt>
      <trkpt lat="45.6264" lon="6.62122">
        <ele>2256</ele>
        <time>2022-07-26T14:36:33Z</time>
      </trkpt>
      <trkpt lat="45.62639" lon="6.6212">
        <ele>2256</ele>
        <time>2022-07-26T14:36:34Z</time>
      </trkpt>
      <trkpt lat="45.62638" lon="6.62119">
        <ele>2256</ele>
        <time>2022-07-26T14:36:35Z</time>
      </trkpt>
      <trkpt lat="45.62637" lon="6.62118">
        <ele>2256</ele>
        <time>2022-07-26T14:36:36Z</time>
      </trkpt>
      <trkpt lat="45.62636" lon="6.62117">
        <ele>2256</ele>
        <time>2022-07-26T14:36:37Z</time>
      </trkpt>
      <trkpt lat="45.62635" lon="6.62116">
        <ele>2256</ele>
        <time>2022-07-26T14:36:38Z</time>
      </trkpt>
      <trkpt lat="45.62634" lon="6.62114">
        <ele>2255</ele>
        <time>2022-07-26T14:36:39Z</time>
      </trkpt>
      <trkpt lat="45.62633" lon="6.62113">
        <ele>2255</ele>
        <time>2022-07-26T14:36:40Z</time>
      </trkpt>
      <trkpt lat="45.62632" lon="6.62112">
        <ele>2255</ele>
        <time>2022-07-26T14:36:41Z</time>
      </trkpt>
      <trkpt lat="45.62631" lon="6.6211">
        <ele>2255</ele>
        <time>2022-07-26T14:36:42Z</time>
      </trkpt>
      <trkpt lat="45.6263" lon="6.62109">
        <ele>2255</ele>
        <time>2022-07-26T14:36:43Z</time>
      </trkpt>
      <trkpt lat="45.62629" lon="6.62108">
        <ele>2255</ele>
        <time>2022-07-26T14:36:44Z</time>
      </trkpt>
      <trkpt lat="45.62628" lon="6.62107">
        <ele>2255</ele>
        <time>2022-07-26T14:36:45Z</time>
      </trkpt>
      <trkpt lat="45.62627" lon="6.62106">
        <ele>2255</ele>
        <time>2022-07-26T14:36:46Z</time>
      </trkpt>
      <trkpt lat="45.62626" lon="6.62105">
        <ele>2255</ele>
        <time>2022-07-26T14:36:47Z</time>
      </trkpt>
      <trkpt lat="45.62625" lon="6.62103">
        <ele>2255</ele>
        <time>2022-07-26T14:36:48Z</time>
      </trkpt>
      <trkpt lat="45.62624" lon="6.62102">
        <ele>2254</ele>
        <time>2022-07-26T14:36:49Z</time>
      </trkpt>
      <trkpt lat="45.62623" lon="6.62101">
        <ele>2254</ele>
        <time>2022-07-26T14:36:50Z</time>
      </trkpt>
      <trkpt lat="45.62622" lon="6.62099">
        <ele>2254</ele>
        <time>2022-07-26T14:36:51Z</time>
      </trkpt>
      <trkpt lat="45.62621" lon="6.62098">
        <ele>2254</ele>
        <time>2022-07-26T14:36:52Z</time>
      </trkpt>
      <trkpt lat="45.62621" lon="6.62097">
        <ele>2254</ele>
        <time>2022-07-26T14:36:53Z</time>
      </trkpt>
      <trkpt lat="45.6262" lon="6.62096">
        <ele>2253</ele>
        <time>2022-07-26T14:36:54Z</time>
      </trkpt>
      <trkpt lat="45.6262" lon="6.62094">
        <ele>2252</ele>
        <time>2022-07-26T14:37:42Z</time>
      </trkpt>
      <trkpt lat="45.6262" lon="6.62093">
        <ele>2252</ele>
        <time>2022-07-26T14:37:43Z</time>
      </trkpt>
      <trkpt lat="45.6262" lon="6.62093">
        <ele>2252</ele>
        <time>2022-07-26T14:37:44Z</time>
      </trkpt>
      <trkpt lat="45.6262" lon="6.62093">
        <ele>2252</ele>
        <time>2022-07-26T14:37:45Z</time>
      </trkpt>
      <trkpt lat="45.62619" lon="6.62093">
        <ele>2252</ele>
        <time>2022-07-26T14:37:46Z</time>
      </trkpt>
      <trkpt lat="45.62618" lon="6.62093">
        <ele>2252</ele>
        <time>2022-07-26T14:37:47Z</time>
      </trkpt>
      <trkpt lat="45.62617" lon="6.62093">
        <ele>2252</ele>
        <time>2022-07-26T14:37:48Z</time>
      </trkpt>
      <trkpt lat="45.62615" lon="6.62093">
        <ele>2252</ele>
        <time>2022-07-26T14:37:49Z</time>
      </trkpt>
      <trkpt lat="45.62614" lon="6.62093">
        <ele>2252</ele>
        <time>2022-07-26T14:37:50Z</time>
      </trkpt>
      <trkpt lat="45.62612" lon="6.62093">
        <ele>2252</ele>
        <time>2022-07-26T14:37:51Z</time>
      </trkpt>
      <trkpt lat="45.62611" lon="6.62092">
        <ele>2252</ele>
        <time>2022-07-26T14:37:52Z</time>
      </trkpt>
      <trkpt lat="45.62609" lon="6.62092">
        <ele>2252</ele>
        <time>2022-07-26T14:37:53Z</time>
      </trkpt>
      <trkpt lat="45.62608" lon="6.62092">
        <ele>2252</ele>
        <time>2022-07-26T14:37:54Z</time>
      </trkpt>
      <trkpt lat="45.62607" lon="6.62091">
        <ele>2252</ele>
        <time>2022-07-26T14:37:55Z</time>
      </trkpt>
      <trkpt lat="45.62605" lon="6.62091">
        <ele>2252</ele>
        <time>2022-07-26T14:37:56Z</time>
      </trkpt>
      <trkpt lat="45.62604" lon="6.6209">
        <ele>2252</ele>
        <time>2022-07-26T14:37:57Z</time>
      </trkpt>
      <trkpt lat="45.62602" lon="6.6209">
        <ele>2252</ele>
        <time>2022-07-26T14:37:58Z</time>
      </trkpt>
      <trkpt lat="45.62601" lon="6.62089">
        <ele>2252</ele>
        <time>2022-07-26T14:37:59Z</time>
      </trkpt>
      <trkpt lat="45.62599" lon="6.62089">
        <ele>2252</ele>
        <time>2022-07-26T14:38:00Z</time>
      </trkpt>
      <trkpt lat="45.62598" lon="6.62088">
        <ele>2252</ele>
        <time>2022-07-26T14:38:01Z</time>
      </trkpt>
      <trkpt lat="45.62596" lon="6.62088">
        <ele>2252</ele>
        <time>2022-07-26T14:38:02Z</time>
      </trkpt>
      <trkpt lat="45.62595" lon="6.62087">
        <ele>2252</ele>
        <time>2022-07-26T14:38:03Z</time>
      </trkpt>
      <trkpt lat="45.62593" lon="6.62087">
        <ele>2252</ele>
        <time>2022-07-26T14:38:04Z</time>
      </trkpt>
      <trkpt lat="45.62592" lon="6.62087">
        <ele>2252</ele>
        <time>2022-07-26T14:38:05Z</time>
      </trkpt>
      <trkpt lat="45.6259" lon="6.62086">
        <ele>2252</ele>
        <time>2022-07-26T14:38:06Z</time>
      </trkpt>
      <trkpt lat="45.62589" lon="6.62086">
        <ele>2252</ele>
        <time>2022-07-26T14:38:07Z</time>
      </trkpt>
      <trkpt lat="45.62587" lon="6.62086">
        <ele>2252</ele>
        <time>2022-07-26T14:38:08Z</time>
      </trkpt>
      <trkpt lat="45.62586" lon="6.62086">
        <ele>2252</ele>
        <time>2022-07-26T14:38:09Z</time>
      </trkpt>
      <trkpt lat="45.62584" lon="6.62086">
        <ele>2252</ele>
        <time>2022-07-26T14:38:10Z</time>
      </trkpt>
      <trkpt lat="45.62583" lon="6.62085">
        <ele>2252</ele>
        <time>2022-07-26T14:38:11Z</time>
      </trkpt>
      <trkpt lat="45.62582" lon="6.62085">
        <ele>2252</ele>
        <time>2022-07-26T14:38:12Z</time>
      </trkpt>
      <trkpt lat="45.6258" lon="6.62085">
        <ele>2252</ele>
        <time>2022-07-26T14:38:13Z</time>
      </trkpt>
      <trkpt lat="45.62579" lon="6.62084">
        <ele>2252</ele>
        <time>2022-07-26T14:38:14Z</time>
      </trkpt>
      <trkpt lat="45.62577" lon="6.62084">
        <ele>2252</ele>
        <time>2022-07-26T14:38:15Z</time>
      </trkpt>
      <trkpt lat="45.62576" lon="6.62083">
        <ele>2252</ele>
        <time>2022-07-26T14:38:16Z</time>
      </trkpt>
      <trkpt lat="45.62574" lon="6.62082">
        <ele>2252</ele>
        <time>2022-07-26T14:38:17Z</time>
      </trkpt>
      <trkpt lat="45.62573" lon="6.62081">
        <ele>2252</ele>
        <time>2022-07-26T14:38:18Z</time>
      </trkpt>
      <trkpt lat="45.62572" lon="6.62081">
        <ele>2251</ele>
        <time>2022-07-26T14:38:19Z</time>
      </trkpt>
      <trkpt lat="45.62571" lon="6.6208">
        <ele>2251</ele>
        <time>2022-07-26T14:38:20Z</time>
      </trkpt>
      <trkpt lat="45.62569" lon="6.6208">
        <ele>2251</ele>
        <time>2022-07-26T14:38:21Z</time>
      </trkpt>
      <trkpt lat="45.62568" lon="6.62079">
        <ele>2251</ele>
        <time>2022-07-26T14:38:22Z</time>
      </trkpt>
      <trkpt lat="45.62567" lon="6.62079">
        <ele>2251</ele>
        <time>2022-07-26T14:38:23Z</time>
      </trkpt>
      <trkpt lat="45.62566" lon="6.62079">
        <ele>2251</ele>
        <time>2022-07-26T14:38:24Z</time>
      </trkpt>
      <trkpt lat="45.62565" lon="6.62079">
        <ele>2251</ele>
        <time>2022-07-26T14:38:25Z</time>
      </trkpt>
      <trkpt lat="45.62565" lon="6.62079">
        <ele>2251</ele>
        <time>2022-07-26T14:38:26Z</time>
      </trkpt>
      <trkpt lat="45.62564" lon="6.62079">
        <ele>2251</ele>
        <time>2022-07-26T14:38:27Z</time>
      </trkpt>
      <trkpt lat="45.62563" lon="6.62079">
        <ele>2251</ele>
        <time>2022-07-26T14:38:28Z</time>
      </trkpt>
      <trkpt lat="45.62562" lon="6.62079">
        <ele>2251</ele>
        <time>2022-07-26T14:38:29Z</time>
      </trkpt>
      <trkpt lat="45.62561" lon="6.62078">
        <ele>2251</ele>
        <time>2022-07-26T14:38:30Z</time>
      </trkpt>
      <trkpt lat="45.6256" lon="6.62078">
        <ele>2251</ele>
        <time>2022-07-26T14:38:31Z</time>
      </trkpt>
      <trkpt lat="45.62559" lon="6.62077">
        <ele>2251</ele>
        <time>2022-07-26T14:38:32Z</time>
      </trkpt>
      <trkpt lat="45.62558" lon="6.62077">
        <ele>2251</ele>
        <time>2022-07-26T14:38:33Z</time>
      </trkpt>
      <trkpt lat="45.62557" lon="6.62076">
        <ele>2250</ele>
        <time>2022-07-26T14:38:34Z</time>
      </trkpt>
      <trkpt lat="45.62556" lon="6.62075">
        <ele>2250</ele>
        <time>2022-07-26T14:38:35Z</time>
      </trkpt>
      <trkpt lat="45.62555" lon="6.62074">
        <ele>2250</ele>
        <time>2022-07-26T14:38:36Z</time>
      </trkpt>
      <trkpt lat="45.62554" lon="6.62072">
        <ele>2250</ele>
        <time>2022-07-26T14:38:37Z</time>
      </trkpt>
      <trkpt lat="45.62553" lon="6.62071">
        <ele>2250</ele>
        <time>2022-07-26T14:38:38Z</time>
      </trkpt>
      <trkpt lat="45.62552" lon="6.62069">
        <ele>2250</ele>
        <time>2022-07-26T14:38:39Z</time>
      </trkpt>
      <trkpt lat="45.62551" lon="6.62068">
        <ele>2250</ele>
        <time>2022-07-26T14:38:40Z</time>
      </trkpt>
      <trkpt lat="45.6255" lon="6.62067">
        <ele>2250</ele>
        <time>2022-07-26T14:38:41Z</time>
      </trkpt>
      <trkpt lat="45.62549" lon="6.62065">
        <ele>2250</ele>
        <time>2022-07-26T14:38:42Z</time>
      </trkpt>
      <trkpt lat="45.62548" lon="6.62064">
        <ele>2250</ele>
        <time>2022-07-26T14:38:43Z</time>
      </trkpt>
      <trkpt lat="45.62548" lon="6.62063">
        <ele>2249</ele>
        <time>2022-07-26T14:38:44Z</time>
      </trkpt>
      <trkpt lat="45.62547" lon="6.62062">
        <ele>2249</ele>
        <time>2022-07-26T14:38:45Z</time>
      </trkpt>
      <trkpt lat="45.62546" lon="6.62061">
        <ele>2249</ele>
        <time>2022-07-26T14:38:46Z</time>
      </trkpt>
      <trkpt lat="45.62544" lon="6.6206">
        <ele>2249</ele>
        <time>2022-07-26T14:38:47Z</time>
      </trkpt>
      <trkpt lat="45.62543" lon="6.62059">
        <ele>2249</ele>
        <time>2022-07-26T14:38:48Z</time>
      </trkpt>
      <trkpt lat="45.62542" lon="6.62058">
        <ele>2248</ele>
        <time>2022-07-26T14:38:49Z</time>
      </trkpt>
      <trkpt lat="45.62541" lon="6.62057">
        <ele>2248</ele>
        <time>2022-07-26T14:38:50Z</time>
      </trkpt>
      <trkpt lat="45.6254" lon="6.62057">
        <ele>2248</ele>
        <time>2022-07-26T14:38:51Z</time>
      </trkpt>
      <trkpt lat="45.62539" lon="6.62056">
        <ele>2248</ele>
        <time>2022-07-26T14:38:52Z</time>
      </trkpt>
      <trkpt lat="45.62537" lon="6.62056">
        <ele>2248</ele>
        <time>2022-07-26T14:38:53Z</time>
      </trkpt>
      <trkpt lat="45.62535" lon="6.62056">
        <ele>2247</ele>
        <time>2022-07-26T14:38:54Z</time>
      </trkpt>
      <trkpt lat="45.62534" lon="6.62055">
        <ele>2247</ele>
        <time>2022-07-26T14:38:55Z</time>
      </trkpt>
      <trkpt lat="45.62532" lon="6.62055">
        <ele>2247</ele>
        <time>2022-07-26T14:38:56Z</time>
      </trkpt>
      <trkpt lat="45.62531" lon="6.62055">
        <ele>2247</ele>
        <time>2022-07-26T14:38:57Z</time>
      </trkpt>
      <trkpt lat="45.62529" lon="6.62054">
        <ele>2247</ele>
        <time>2022-07-26T14:38:58Z</time>
      </trkpt>
      <trkpt lat="45.62527" lon="6.62054">
        <ele>2246</ele>
        <time>2022-07-26T14:38:59Z</time>
      </trkpt>
      <trkpt lat="45.62526" lon="6.62054">
        <ele>2246</ele>
        <time>2022-07-26T14:39:00Z</time>
      </trkpt>
      <trkpt lat="45.62524" lon="6.62054">
        <ele>2246</ele>
        <time>2022-07-26T14:39:01Z</time>
      </trkpt>
      <trkpt lat="45.62523" lon="6.62053">
        <ele>2246</ele>
        <time>2022-07-26T14:39:02Z</time>
      </trkpt>
      <trkpt lat="45.62521" lon="6.62053">
        <ele>2246</ele>
        <time>2022-07-26T14:39:03Z</time>
      </trkpt>
      <trkpt lat="45.62519" lon="6.62053">
        <ele>2245</ele>
        <time>2022-07-26T14:39:04Z</time>
      </trkpt>
      <trkpt lat="45.62518" lon="6.62053">
        <ele>2245</ele>
        <time>2022-07-26T14:39:05Z</time>
      </trkpt>
      <trkpt lat="45.62516" lon="6.62052">
        <ele>2245</ele>
        <time>2022-07-26T14:39:06Z</time>
      </trkpt>
      <trkpt lat="45.62514" lon="6.62052">
        <ele>2245</ele>
        <time>2022-07-26T14:39:07Z</time>
      </trkpt>
      <trkpt lat="45.62513" lon="6.62052">
        <ele>2245</ele>
        <time>2022-07-26T14:39:08Z</time>
      </trkpt>
      <trkpt lat="45.62511" lon="6.62052">
        <ele>2244</ele>
        <time>2022-07-26T14:39:09Z</time>
      </trkpt>
      <trkpt lat="45.6251" lon="6.62052">
        <ele>2244</ele>
        <time>2022-07-26T14:39:10Z</time>
      </trkpt>
      <trkpt lat="45.62508" lon="6.62051">
        <ele>2244</ele>
        <time>2022-07-26T14:39:11Z</time>
      </trkpt>
      <trkpt lat="45.62507" lon="6.62051">
        <ele>2244</ele>
        <time>2022-07-26T14:39:12Z</time>
      </trkpt>
      <trkpt lat="45.62505" lon="6.62051">
        <ele>2244</ele>
        <time>2022-07-26T14:39:13Z</time>
      </trkpt>
      <trkpt lat="45.62503" lon="6.62051">
        <ele>2243</ele>
        <time>2022-07-26T14:39:14Z</time>
      </trkpt>
      <trkpt lat="45.62502" lon="6.6205">
        <ele>2243</ele>
        <time>2022-07-26T14:39:15Z</time>
      </trkpt>
      <trkpt lat="45.625" lon="6.6205">
        <ele>2243</ele>
        <time>2022-07-26T14:39:16Z</time>
      </trkpt>
      <trkpt lat="45.62499" lon="6.62049">
        <ele>2243</ele>
        <time>2022-07-26T14:39:17Z</time>
      </trkpt>
      <trkpt lat="45.62497" lon="6.62049">
        <ele>2243</ele>
        <time>2022-07-26T14:39:18Z</time>
      </trkpt>
      <trkpt lat="45.62496" lon="6.62048">
        <ele>2242</ele>
        <time>2022-07-26T14:39:19Z</time>
      </trkpt>
      <trkpt lat="45.62495" lon="6.62048">
        <ele>2242</ele>
        <time>2022-07-26T14:39:20Z</time>
      </trkpt>
      <trkpt lat="45.62493" lon="6.62048">
        <ele>2242</ele>
        <time>2022-07-26T14:39:21Z</time>
      </trkpt>
      <trkpt lat="45.62491" lon="6.62047">
        <ele>2242</ele>
        <time>2022-07-26T14:39:22Z</time>
      </trkpt>
      <trkpt lat="45.62489" lon="6.62047">
        <ele>2242</ele>
        <time>2022-07-26T14:39:23Z</time>
      </trkpt>
      <trkpt lat="45.62487" lon="6.62046">
        <ele>2241</ele>
        <time>2022-07-26T14:39:24Z</time>
      </trkpt>
      <trkpt lat="45.62485" lon="6.62046">
        <ele>2241</ele>
        <time>2022-07-26T14:39:25Z</time>
      </trkpt>
      <trkpt lat="45.62483" lon="6.62046">
        <ele>2241</ele>
        <time>2022-07-26T14:39:26Z</time>
      </trkpt>
      <trkpt lat="45.62481" lon="6.62045">
        <ele>2241</ele>
        <time>2022-07-26T14:39:27Z</time>
      </trkpt>
      <trkpt lat="45.62478" lon="6.62045">
        <ele>2241</ele>
        <time>2022-07-26T14:39:28Z</time>
      </trkpt>
      <trkpt lat="45.62476" lon="6.62045">
        <ele>2240</ele>
        <time>2022-07-26T14:39:29Z</time>
      </trkpt>
      <trkpt lat="45.62475" lon="6.62044">
        <ele>2240</ele>
        <time>2022-07-26T14:39:30Z</time>
      </trkpt>
      <trkpt lat="45.62474" lon="6.62044">
        <ele>2238</ele>
        <time>2022-07-26T14:39:40Z</time>
      </trkpt>
      <trkpt lat="45.62473" lon="6.62044">
        <ele>2238</ele>
        <time>2022-07-26T14:39:41Z</time>
      </trkpt>
      <trkpt lat="45.62473" lon="6.62044">
        <ele>2238</ele>
        <time>2022-07-26T14:39:42Z</time>
      </trkpt>
      <trkpt lat="45.62472" lon="6.62044">
        <ele>2238</ele>
        <time>2022-07-26T14:39:43Z</time>
      </trkpt>
      <trkpt lat="45.62471" lon="6.62043">
        <ele>2237</ele>
        <time>2022-07-26T14:39:44Z</time>
      </trkpt>
      <trkpt lat="45.6247" lon="6.62043">
        <ele>2237</ele>
        <time>2022-07-26T14:39:45Z</time>
      </trkpt>
      <trkpt lat="45.62469" lon="6.62043">
        <ele>2237</ele>
        <time>2022-07-26T14:39:46Z</time>
      </trkpt>
      <trkpt lat="45.62468" lon="6.62043">
        <ele>2237</ele>
        <time>2022-07-26T14:39:47Z</time>
      </trkpt>
      <trkpt lat="45.62466" lon="6.62042">
        <ele>2237</ele>
        <time>2022-07-26T14:39:48Z</time>
      </trkpt>
      <trkpt lat="45.62465" lon="6.62042">
        <ele>2237</ele>
        <time>2022-07-26T14:39:49Z</time>
      </trkpt>
      <trkpt lat="45.62463" lon="6.62041">
        <ele>2237</ele>
        <time>2022-07-26T14:39:50Z</time>
      </trkpt>
      <trkpt lat="45.62462" lon="6.62041">
        <ele>2237</ele>
        <time>2022-07-26T14:39:51Z</time>
      </trkpt>
      <trkpt lat="45.62461" lon="6.6204">
        <ele>2237</ele>
        <time>2022-07-26T14:39:52Z</time>
      </trkpt>
      <trkpt lat="45.62459" lon="6.6204">
        <ele>2237</ele>
        <time>2022-07-26T14:39:53Z</time>
      </trkpt>
      <trkpt lat="45.62458" lon="6.6204">
        <ele>2236</ele>
        <time>2022-07-26T14:39:54Z</time>
      </trkpt>
      <trkpt lat="45.62456" lon="6.62039">
        <ele>2236</ele>
        <time>2022-07-26T14:39:55Z</time>
      </trkpt>
      <trkpt lat="45.62455" lon="6.62039">
        <ele>2236</ele>
        <time>2022-07-26T14:39:56Z</time>
      </trkpt>
      <trkpt lat="45.62453" lon="6.62038">
        <ele>2236</ele>
        <time>2022-07-26T14:39:57Z</time>
      </trkpt>
      <trkpt lat="45.62452" lon="6.62038">
        <ele>2236</ele>
        <time>2022-07-26T14:39:58Z</time>
      </trkpt>
      <trkpt lat="45.6245" lon="6.62037">
        <ele>2235</ele>
        <time>2022-07-26T14:39:59Z</time>
      </trkpt>
      <trkpt lat="45.62449" lon="6.62036">
        <ele>2235</ele>
        <time>2022-07-26T14:40:00Z</time>
      </trkpt>
      <trkpt lat="45.62447" lon="6.62036">
        <ele>2235</ele>
        <time>2022-07-26T14:40:01Z</time>
      </trkpt>
      <trkpt lat="45.62446" lon="6.62036">
        <ele>2235</ele>
        <time>2022-07-26T14:40:02Z</time>
      </trkpt>
      <trkpt lat="45.62445" lon="6.62035">
        <ele>2235</ele>
        <time>2022-07-26T14:40:03Z</time>
      </trkpt>
      <trkpt lat="45.62443" lon="6.62035">
        <ele>2234</ele>
        <time>2022-07-26T14:40:04Z</time>
      </trkpt>
      <trkpt lat="45.62442" lon="6.62035">
        <ele>2234</ele>
        <time>2022-07-26T14:40:05Z</time>
      </trkpt>
      <trkpt lat="45.6244" lon="6.62034">
        <ele>2233</ele>
        <time>2022-07-26T14:40:06Z</time>
      </trkpt>
      <trkpt lat="45.62439" lon="6.62034">
        <ele>2233</ele>
        <time>2022-07-26T14:40:07Z</time>
      </trkpt>
      <trkpt lat="45.62438" lon="6.62034">
        <ele>2233</ele>
        <time>2022-07-26T14:40:08Z</time>
      </trkpt>
      <trkpt lat="45.62438" lon="6.62034">
        <ele>2232</ele>
        <time>2022-07-26T14:40:09Z</time>
      </trkpt>
      <trkpt lat="45.62438" lon="6.62034">
        <ele>2232</ele>
        <time>2022-07-26T14:40:10Z</time>
      </trkpt>
      <trkpt lat="45.62438" lon="6.62034">
        <ele>2232</ele>
        <time>2022-07-26T14:40:11Z</time>
      </trkpt>
      <trkpt lat="45.62437" lon="6.62034">
        <ele>2232</ele>
        <time>2022-07-26T14:40:12Z</time>
      </trkpt>
      <trkpt lat="45.62437" lon="6.62034">
        <ele>2232</ele>
        <time>2022-07-26T14:40:13Z</time>
      </trkpt>
      <trkpt lat="45.62436" lon="6.62034">
        <ele>2231</ele>
        <time>2022-07-26T14:40:14Z</time>
      </trkpt>
      <trkpt lat="45.62436" lon="6.62034">
        <ele>2230</ele>
        <time>2022-07-26T14:40:15Z</time>
      </trkpt>
      <trkpt lat="45.62435" lon="6.62034">
        <ele>2230</ele>
        <time>2022-07-26T14:40:16Z</time>
      </trkpt>
      <trkpt lat="45.62434" lon="6.62034">
        <ele>2229</ele>
        <time>2022-07-26T14:40:17Z</time>
      </trkpt>
      <trkpt lat="45.62433" lon="6.62034">
        <ele>2229</ele>
        <time>2022-07-26T14:40:18Z</time>
      </trkpt>
      <trkpt lat="45.62432" lon="6.62033">
        <ele>2228</ele>
        <time>2022-07-26T14:40:19Z</time>
      </trkpt>
      <trkpt lat="45.62431" lon="6.62033">
        <ele>2228</ele>
        <time>2022-07-26T14:40:20Z</time>
      </trkpt>
      <trkpt lat="45.6243" lon="6.62033">
        <ele>2228</ele>
        <time>2022-07-26T14:40:21Z</time>
      </trkpt>
      <trkpt lat="45.62429" lon="6.62032">
        <ele>2228</ele>
        <time>2022-07-26T14:40:22Z</time>
      </trkpt>
      <trkpt lat="45.62428" lon="6.62032">
        <ele>2228</ele>
        <time>2022-07-26T14:40:23Z</time>
      </trkpt>
      <trkpt lat="45.62427" lon="6.62032">
        <ele>2227</ele>
        <time>2022-07-26T14:40:24Z</time>
      </trkpt>
      <trkpt lat="45.62426" lon="6.62031">
        <ele>2227</ele>
        <time>2022-07-26T14:40:25Z</time>
      </trkpt>
      <trkpt lat="45.62425" lon="6.62031">
        <ele>2227</ele>
        <time>2022-07-26T14:40:26Z</time>
      </trkpt>
      <trkpt lat="45.62424" lon="6.62031">
        <ele>2227</ele>
        <time>2022-07-26T14:40:27Z</time>
      </trkpt>
      <trkpt lat="45.62423" lon="6.6203">
        <ele>2227</ele>
        <time>2022-07-26T14:40:28Z</time>
      </trkpt>
      <trkpt lat="45.62421" lon="6.6203">
        <ele>2226</ele>
        <time>2022-07-26T14:40:29Z</time>
      </trkpt>
      <trkpt lat="45.6242" lon="6.62029">
        <ele>2226</ele>
        <time>2022-07-26T14:40:30Z</time>
      </trkpt>
      <trkpt lat="45.62419" lon="6.62028">
        <ele>2226</ele>
        <time>2022-07-26T14:40:31Z</time>
      </trkpt>
      <trkpt lat="45.62418" lon="6.62027">
        <ele>2226</ele>
        <time>2022-07-26T14:40:32Z</time>
      </trkpt>
      <trkpt lat="45.62417" lon="6.62026">
        <ele>2226</ele>
        <time>2022-07-26T14:40:33Z</time>
      </trkpt>
      <trkpt lat="45.62416" lon="6.62025">
        <ele>2225</ele>
        <time>2022-07-26T14:40:34Z</time>
      </trkpt>
      <trkpt lat="45.62415" lon="6.62024">
        <ele>2225</ele>
        <time>2022-07-26T14:40:35Z</time>
      </trkpt>
      <trkpt lat="45.62414" lon="6.62023">
        <ele>2225</ele>
        <time>2022-07-26T14:40:36Z</time>
      </trkpt>
      <trkpt lat="45.62413" lon="6.62021">
        <ele>2225</ele>
        <time>2022-07-26T14:40:37Z</time>
      </trkpt>
      <trkpt lat="45.62412" lon="6.6202">
        <ele>2225</ele>
        <time>2022-07-26T14:40:38Z</time>
      </trkpt>
      <trkpt lat="45.62411" lon="6.62019">
        <ele>2224</ele>
        <time>2022-07-26T14:40:39Z</time>
      </trkpt>
      <trkpt lat="45.62411" lon="6.62017">
        <ele>2224</ele>
        <time>2022-07-26T14:40:40Z</time>
      </trkpt>
      <trkpt lat="45.6241" lon="6.62016">
        <ele>2224</ele>
        <time>2022-07-26T14:40:41Z</time>
      </trkpt>
      <trkpt lat="45.6241" lon="6.62015">
        <ele>2224</ele>
        <time>2022-07-26T14:40:42Z</time>
      </trkpt>
      <trkpt lat="45.62409" lon="6.62013">
        <ele>2224</ele>
        <time>2022-07-26T14:40:43Z</time>
      </trkpt>
      <trkpt lat="45.62409" lon="6.62012">
        <ele>2223</ele>
        <time>2022-07-26T14:40:44Z</time>
      </trkpt>
      <trkpt lat="45.62409" lon="6.6201">
        <ele>2223</ele>
        <time>2022-07-26T14:40:45Z</time>
      </trkpt>
      <trkpt lat="45.62408" lon="6.62009">
        <ele>2223</ele>
        <time>2022-07-26T14:40:46Z</time>
      </trkpt>
      <trkpt lat="45.62408" lon="6.62007">
        <ele>2223</ele>
        <time>2022-07-26T14:40:47Z</time>
      </trkpt>
      <trkpt lat="45.62408" lon="6.62005">
        <ele>2223</ele>
        <time>2022-07-26T14:40:48Z</time>
      </trkpt>
      <trkpt lat="45.62408" lon="6.62004">
        <ele>2222</ele>
        <time>2022-07-26T14:40:49Z</time>
      </trkpt>
      <trkpt lat="45.62407" lon="6.62002">
        <ele>2222</ele>
        <time>2022-07-26T14:40:50Z</time>
      </trkpt>
      <trkpt lat="45.62407" lon="6.62">
        <ele>2221</ele>
        <time>2022-07-26T14:40:51Z</time>
      </trkpt>
      <trkpt lat="45.62407" lon="6.61998">
        <ele>2221</ele>
        <time>2022-07-26T14:40:52Z</time>
      </trkpt>
      <trkpt lat="45.62408" lon="6.61997">
        <ele>2221</ele>
        <time>2022-07-26T14:40:53Z</time>
      </trkpt>
      <trkpt lat="45.62408" lon="6.61995">
        <ele>2220</ele>
        <time>2022-07-26T14:40:54Z</time>
      </trkpt>
      <trkpt lat="45.62408" lon="6.61994">
        <ele>2220</ele>
        <time>2022-07-26T14:40:55Z</time>
      </trkpt>
      <trkpt lat="45.62408" lon="6.61992">
        <ele>2220</ele>
        <time>2022-07-26T14:40:56Z</time>
      </trkpt>
      <trkpt lat="45.62408" lon="6.6199">
        <ele>2220</ele>
        <time>2022-07-26T14:40:57Z</time>
      </trkpt>
      <trkpt lat="45.62407" lon="6.61989">
        <ele>2220</ele>
        <time>2022-07-26T14:40:58Z</time>
      </trkpt>
      <trkpt lat="45.62407" lon="6.61987">
        <ele>2219</ele>
        <time>2022-07-26T14:40:59Z</time>
      </trkpt>
      <trkpt lat="45.62407" lon="6.61986">
        <ele>2219</ele>
        <time>2022-07-26T14:41:00Z</time>
      </trkpt>
      <trkpt lat="45.62406" lon="6.61984">
        <ele>2219</ele>
        <time>2022-07-26T14:41:01Z</time>
      </trkpt>
      <trkpt lat="45.62406" lon="6.61982">
        <ele>2219</ele>
        <time>2022-07-26T14:41:02Z</time>
      </trkpt>
      <trkpt lat="45.62405" lon="6.61981">
        <ele>2219</ele>
        <time>2022-07-26T14:41:03Z</time>
      </trkpt>
      <trkpt lat="45.62405" lon="6.61979">
        <ele>2218</ele>
        <time>2022-07-26T14:41:04Z</time>
      </trkpt>
      <trkpt lat="45.62404" lon="6.61977">
        <ele>2218</ele>
        <time>2022-07-26T14:41:05Z</time>
      </trkpt>
      <trkpt lat="45.62404" lon="6.61975">
        <ele>2218</ele>
        <time>2022-07-26T14:41:06Z</time>
      </trkpt>
      <trkpt lat="45.62403" lon="6.61974">
        <ele>2218</ele>
        <time>2022-07-26T14:41:07Z</time>
      </trkpt>
      <trkpt lat="45.62403" lon="6.61972">
        <ele>2218</ele>
        <time>2022-07-26T14:41:08Z</time>
      </trkpt>
      <trkpt lat="45.62402" lon="6.6197">
        <ele>2217</ele>
        <time>2022-07-26T14:41:09Z</time>
      </trkpt>
      <trkpt lat="45.62402" lon="6.61969">
        <ele>2217</ele>
        <time>2022-07-26T14:41:10Z</time>
      </trkpt>
      <trkpt lat="45.62402" lon="6.61967">
        <ele>2217</ele>
        <time>2022-07-26T14:41:11Z</time>
      </trkpt>
      <trkpt lat="45.62402" lon="6.61966">
        <ele>2217</ele>
        <time>2022-07-26T14:41:12Z</time>
      </trkpt>
      <trkpt lat="45.62402" lon="6.61964">
        <ele>2217</ele>
        <time>2022-07-26T14:41:13Z</time>
      </trkpt>
      <trkpt lat="45.62402" lon="6.61963">
        <ele>2217</ele>
        <time>2022-07-26T14:41:14Z</time>
      </trkpt>
      <trkpt lat="45.62402" lon="6.61961">
        <ele>2217</ele>
        <time>2022-07-26T14:41:15Z</time>
      </trkpt>
      <trkpt lat="45.62403" lon="6.6196">
        <ele>2217</ele>
        <time>2022-07-26T14:41:16Z</time>
      </trkpt>
      <trkpt lat="45.62403" lon="6.61958">
        <ele>2217</ele>
        <time>2022-07-26T14:41:17Z</time>
      </trkpt>
      <trkpt lat="45.62404" lon="6.61957">
        <ele>2217</ele>
        <time>2022-07-26T14:41:18Z</time>
      </trkpt>
      <trkpt lat="45.62404" lon="6.61955">
        <ele>2216</ele>
        <time>2022-07-26T14:41:19Z</time>
      </trkpt>
      <trkpt lat="45.62405" lon="6.61954">
        <ele>2216</ele>
        <time>2022-07-26T14:41:20Z</time>
      </trkpt>
      <trkpt lat="45.62405" lon="6.61953">
        <ele>2216</ele>
        <time>2022-07-26T14:41:21Z</time>
      </trkpt>
      <trkpt lat="45.62406" lon="6.61951">
        <ele>2216</ele>
        <time>2022-07-26T14:41:22Z</time>
      </trkpt>
      <trkpt lat="45.62407" lon="6.6195">
        <ele>2216</ele>
        <time>2022-07-26T14:41:23Z</time>
      </trkpt>
      <trkpt lat="45.62407" lon="6.61949">
        <ele>2215</ele>
        <time>2022-07-26T14:41:24Z</time>
      </trkpt>
      <trkpt lat="45.62408" lon="6.61948">
        <ele>2215</ele>
        <time>2022-07-26T14:41:25Z</time>
      </trkpt>
      <trkpt lat="45.62408" lon="6.61947">
        <ele>2215</ele>
        <time>2022-07-26T14:41:26Z</time>
      </trkpt>
      <trkpt lat="45.62408" lon="6.61946">
        <ele>2215</ele>
        <time>2022-07-26T14:41:27Z</time>
      </trkpt>
      <trkpt lat="45.62409" lon="6.61944">
        <ele>2215</ele>
        <time>2022-07-26T14:41:28Z</time>
      </trkpt>
      <trkpt lat="45.62409" lon="6.61943">
        <ele>2215</ele>
        <time>2022-07-26T14:41:29Z</time>
      </trkpt>
      <trkpt lat="45.62409" lon="6.61942">
        <ele>2215</ele>
        <time>2022-07-26T14:41:30Z</time>
      </trkpt>
      <trkpt lat="45.62409" lon="6.6194">
        <ele>2215</ele>
        <time>2022-07-26T14:41:31Z</time>
      </trkpt>
      <trkpt lat="45.62409" lon="6.61939">
        <ele>2215</ele>
        <time>2022-07-26T14:41:32Z</time>
      </trkpt>
      <trkpt lat="45.62409" lon="6.61937">
        <ele>2215</ele>
        <time>2022-07-26T14:41:33Z</time>
      </trkpt>
      <trkpt lat="45.62409" lon="6.61935">
        <ele>2214</ele>
        <time>2022-07-26T14:41:34Z</time>
      </trkpt>
      <trkpt lat="45.62409" lon="6.61934">
        <ele>2214</ele>
        <time>2022-07-26T14:41:35Z</time>
      </trkpt>
      <trkpt lat="45.62409" lon="6.61933">
        <ele>2214</ele>
        <time>2022-07-26T14:41:36Z</time>
      </trkpt>
      <trkpt lat="45.62409" lon="6.61931">
        <ele>2214</ele>
        <time>2022-07-26T14:41:37Z</time>
      </trkpt>
      <trkpt lat="45.62408" lon="6.6193">
        <ele>2214</ele>
        <time>2022-07-26T14:41:38Z</time>
      </trkpt>
      <trkpt lat="45.62408" lon="6.61929">
        <ele>2214</ele>
        <time>2022-07-26T14:41:39Z</time>
      </trkpt>
      <trkpt lat="45.62408" lon="6.61927">
        <ele>2214</ele>
        <time>2022-07-26T14:41:40Z</time>
      </trkpt>
      <trkpt lat="45.62407" lon="6.61926">
        <ele>2214</ele>
        <time>2022-07-26T14:41:41Z</time>
      </trkpt>
      <trkpt lat="45.62407" lon="6.61924">
        <ele>2214</ele>
        <time>2022-07-26T14:41:42Z</time>
      </trkpt>
      <trkpt lat="45.62407" lon="6.61923">
        <ele>2214</ele>
        <time>2022-07-26T14:41:43Z</time>
      </trkpt>
      <trkpt lat="45.62407" lon="6.61922">
        <ele>2213</ele>
        <time>2022-07-26T14:41:44Z</time>
      </trkpt>
      <trkpt lat="45.62406" lon="6.6192">
        <ele>2213</ele>
        <time>2022-07-26T14:41:45Z</time>
      </trkpt>
      <trkpt lat="45.62406" lon="6.61919">
        <ele>2213</ele>
        <time>2022-07-26T14:41:46Z</time>
      </trkpt>
      <trkpt lat="45.62406" lon="6.61918">
        <ele>2213</ele>
        <time>2022-07-26T14:41:47Z</time>
      </trkpt>
      <trkpt lat="45.62405" lon="6.61917">
        <ele>2213</ele>
        <time>2022-07-26T14:41:48Z</time>
      </trkpt>
      <trkpt lat="45.62405" lon="6.61916">
        <ele>2213</ele>
        <time>2022-07-26T14:41:49Z</time>
      </trkpt>
      <trkpt lat="45.62405" lon="6.61915">
        <ele>2212</ele>
        <time>2022-07-26T14:42:44Z</time>
      </trkpt>
      <trkpt lat="45.62405" lon="6.61914">
        <ele>2212</ele>
        <time>2022-07-26T14:42:45Z</time>
      </trkpt>
      <trkpt lat="45.62405" lon="6.61914">
        <ele>2212</ele>
        <time>2022-07-26T14:42:46Z</time>
      </trkpt>
      <trkpt lat="45.62404" lon="6.61913">
        <ele>2212</ele>
        <time>2022-07-26T14:42:47Z</time>
      </trkpt>
      <trkpt lat="45.62404" lon="6.61912">
        <ele>2212</ele>
        <time>2022-07-26T14:42:48Z</time>
      </trkpt>
      <trkpt lat="45.62404" lon="6.61912">
        <ele>2212</ele>
        <time>2022-07-26T14:42:49Z</time>
      </trkpt>
      <trkpt lat="45.62404" lon="6.61912">
        <ele>2212</ele>
        <time>2022-07-26T14:42:50Z</time>
      </trkpt>
      <trkpt lat="45.62403" lon="6.61912">
        <ele>2212</ele>
        <time>2022-07-26T14:42:51Z</time>
      </trkpt>
      <trkpt lat="45.62403" lon="6.61911">
        <ele>2212</ele>
        <time>2022-07-26T14:42:52Z</time>
      </trkpt>
      <trkpt lat="45.62402" lon="6.61911">
        <ele>2212</ele>
        <time>2022-07-26T14:42:53Z</time>
      </trkpt>
      <trkpt lat="45.62401" lon="6.6191">
        <ele>2212</ele>
        <time>2022-07-26T14:42:54Z</time>
      </trkpt>
      <trkpt lat="45.624" lon="6.6191">
        <ele>2212</ele>
        <time>2022-07-26T14:42:55Z</time>
      </trkpt>
      <trkpt lat="45.624" lon="6.61909">
        <ele>2212</ele>
        <time>2022-07-26T14:42:56Z</time>
      </trkpt>
      <trkpt lat="45.62399" lon="6.61909">
        <ele>2212</ele>
        <time>2022-07-26T14:42:57Z</time>
      </trkpt>
      <trkpt lat="45.62398" lon="6.61907">
        <ele>2211</ele>
        <time>2022-07-26T14:43:03Z</time>
      </trkpt>
      <trkpt lat="45.62398" lon="6.61906">
        <ele>2211</ele>
        <time>2022-07-26T14:43:04Z</time>
      </trkpt>
      <trkpt lat="45.62398" lon="6.61906">
        <ele>2211</ele>
        <time>2022-07-26T14:43:05Z</time>
      </trkpt>
      <trkpt lat="45.62398" lon="6.61906">
        <ele>2211</ele>
        <time>2022-07-26T14:43:06Z</time>
      </trkpt>
      <trkpt lat="45.62398" lon="6.61906">
        <ele>2211</ele>
        <time>2022-07-26T14:43:07Z</time>
      </trkpt>
      <trkpt lat="45.62397" lon="6.61907">
        <ele>2211</ele>
        <time>2022-07-26T14:43:08Z</time>
      </trkpt>
      <trkpt lat="45.62397" lon="6.61907">
        <ele>2211</ele>
        <time>2022-07-26T14:43:09Z</time>
      </trkpt>
      <trkpt lat="45.62396" lon="6.61908">
        <ele>2211</ele>
        <time>2022-07-26T14:43:10Z</time>
      </trkpt>
      <trkpt lat="45.62396" lon="6.61908">
        <ele>2211</ele>
        <time>2022-07-26T14:43:11Z</time>
      </trkpt>
      <trkpt lat="45.62395" lon="6.61908">
        <ele>2211</ele>
        <time>2022-07-26T14:43:12Z</time>
      </trkpt>
      <trkpt lat="45.62394" lon="6.61908">
        <ele>2211</ele>
        <time>2022-07-26T14:43:13Z</time>
      </trkpt>
      <trkpt lat="45.62392" lon="6.61908">
        <ele>2211</ele>
        <time>2022-07-26T14:43:21Z</time>
      </trkpt>
      <trkpt lat="45.62392" lon="6.61908">
        <ele>2211</ele>
        <time>2022-07-26T14:43:22Z</time>
      </trkpt>
      <trkpt lat="45.62391" lon="6.61908">
        <ele>2211</ele>
        <time>2022-07-26T14:43:23Z</time>
      </trkpt>
      <trkpt lat="45.6239" lon="6.61909">
        <ele>2211</ele>
        <time>2022-07-26T14:43:24Z</time>
      </trkpt>
      <trkpt lat="45.6239" lon="6.61909">
        <ele>2211</ele>
        <time>2022-07-26T14:43:25Z</time>
      </trkpt>
      <trkpt lat="45.62389" lon="6.61909">
        <ele>2211</ele>
        <time>2022-07-26T14:43:26Z</time>
      </trkpt>
      <trkpt lat="45.62388" lon="6.61909">
        <ele>2211</ele>
        <time>2022-07-26T14:43:27Z</time>
      </trkpt>
      <trkpt lat="45.62387" lon="6.6191">
        <ele>2211</ele>
        <time>2022-07-26T14:43:28Z</time>
      </trkpt>
      <trkpt lat="45.62386" lon="6.6191">
        <ele>2211</ele>
        <time>2022-07-26T14:43:29Z</time>
      </trkpt>
      <trkpt lat="45.62385" lon="6.6191">
        <ele>2211</ele>
        <time>2022-07-26T14:43:30Z</time>
      </trkpt>
      <trkpt lat="45.62384" lon="6.61911">
        <ele>2211</ele>
        <time>2022-07-26T14:43:31Z</time>
      </trkpt>
      <trkpt lat="45.62383" lon="6.61911">
        <ele>2211</ele>
        <time>2022-07-26T14:43:32Z</time>
      </trkpt>
      <trkpt lat="45.62382" lon="6.61912">
        <ele>2211</ele>
        <time>2022-07-26T14:43:33Z</time>
      </trkpt>
      <trkpt lat="45.62381" lon="6.61912">
        <ele>2211</ele>
        <time>2022-07-26T14:43:34Z</time>
      </trkpt>
      <trkpt lat="45.6238" lon="6.61913">
        <ele>2211</ele>
        <time>2022-07-26T14:43:35Z</time>
      </trkpt>
      <trkpt lat="45.62379" lon="6.61913">
        <ele>2211</ele>
        <time>2022-07-26T14:43:36Z</time>
      </trkpt>
      <trkpt lat="45.62378" lon="6.61913">
        <ele>2211</ele>
        <time>2022-07-26T14:43:37Z</time>
      </trkpt>
      <trkpt lat="45.62377" lon="6.61913">
        <ele>2211</ele>
        <time>2022-07-26T14:43:38Z</time>
      </trkpt>
      <trkpt lat="45.62376" lon="6.61914">
        <ele>2211</ele>
        <time>2022-07-26T14:43:39Z</time>
      </trkpt>
      <trkpt lat="45.62375" lon="6.61913">
        <ele>2211</ele>
        <time>2022-07-26T14:43:40Z</time>
      </trkpt>
      <trkpt lat="45.62374" lon="6.61913">
        <ele>2211</ele>
        <time>2022-07-26T14:43:41Z</time>
      </trkpt>
      <trkpt lat="45.62373" lon="6.61913">
        <ele>2211</ele>
        <time>2022-07-26T14:43:42Z</time>
      </trkpt>
      <trkpt lat="45.62373" lon="6.61912">
        <ele>2211</ele>
        <time>2022-07-26T14:43:43Z</time>
      </trkpt>
      <trkpt lat="45.62371" lon="6.61912">
        <ele>2211</ele>
        <time>2022-07-26T14:43:44Z</time>
      </trkpt>
      <trkpt lat="45.6237" lon="6.61911">
        <ele>2211</ele>
        <time>2022-07-26T14:43:45Z</time>
      </trkpt>
      <trkpt lat="45.6237" lon="6.6191">
        <ele>2211</ele>
        <time>2022-07-26T14:43:46Z</time>
      </trkpt>
      <trkpt lat="45.62369" lon="6.61909">
        <ele>2211</ele>
        <time>2022-07-26T14:43:47Z</time>
      </trkpt>
      <trkpt lat="45.62368" lon="6.61909">
        <ele>2211</ele>
        <time>2022-07-26T14:43:48Z</time>
      </trkpt>
      <trkpt lat="45.62367" lon="6.61908">
        <ele>2211</ele>
        <time>2022-07-26T14:43:49Z</time>
      </trkpt>
      <trkpt lat="45.62366" lon="6.61907">
        <ele>2211</ele>
        <time>2022-07-26T14:43:50Z</time>
      </trkpt>
      <trkpt lat="45.62365" lon="6.61906">
        <ele>2211</ele>
        <time>2022-07-26T14:43:51Z</time>
      </trkpt>
      <trkpt lat="45.62364" lon="6.61905">
        <ele>2211</ele>
        <time>2022-07-26T14:43:52Z</time>
      </trkpt>
      <trkpt lat="45.62364" lon="6.61905">
        <ele>2211</ele>
        <time>2022-07-26T14:43:53Z</time>
      </trkpt>
      <trkpt lat="45.62363" lon="6.61904">
        <ele>2211</ele>
        <time>2022-07-26T14:43:54Z</time>
      </trkpt>
      <trkpt lat="45.62362" lon="6.61903">
        <ele>2211</ele>
        <time>2022-07-26T14:43:55Z</time>
      </trkpt>
      <trkpt lat="45.62361" lon="6.61902">
        <ele>2211</ele>
        <time>2022-07-26T14:43:56Z</time>
      </trkpt>
      <trkpt lat="45.6236" lon="6.61901">
        <ele>2211</ele>
        <time>2022-07-26T14:43:57Z</time>
      </trkpt>
      <trkpt lat="45.62359" lon="6.619">
        <ele>2211</ele>
        <time>2022-07-26T14:43:58Z</time>
      </trkpt>
      <trkpt lat="45.62358" lon="6.619">
        <ele>2211</ele>
        <time>2022-07-26T14:43:59Z</time>
      </trkpt>
      <trkpt lat="45.62357" lon="6.61899">
        <ele>2211</ele>
        <time>2022-07-26T14:44:00Z</time>
      </trkpt>
      <trkpt lat="45.62356" lon="6.61898">
        <ele>2211</ele>
        <time>2022-07-26T14:44:01Z</time>
      </trkpt>
      <trkpt lat="45.62355" lon="6.61897">
        <ele>2211</ele>
        <time>2022-07-26T14:44:02Z</time>
      </trkpt>
      <trkpt lat="45.62354" lon="6.61895">
        <ele>2211</ele>
        <time>2022-07-26T14:44:03Z</time>
      </trkpt>
      <trkpt lat="45.62354" lon="6.61894">
        <ele>2211</ele>
        <time>2022-07-26T14:44:04Z</time>
      </trkpt>
      <trkpt lat="45.62353" lon="6.61893">
        <ele>2211</ele>
        <time>2022-07-26T14:44:05Z</time>
      </trkpt>
      <trkpt lat="45.62353" lon="6.61891">
        <ele>2211</ele>
        <time>2022-07-26T14:44:06Z</time>
      </trkpt>
      <trkpt lat="45.62352" lon="6.6189">
        <ele>2211</ele>
        <time>2022-07-26T14:44:07Z</time>
      </trkpt>
      <trkpt lat="45.62352" lon="6.61889">
        <ele>2211</ele>
        <time>2022-07-26T14:44:08Z</time>
      </trkpt>
      <trkpt lat="45.62352" lon="6.61887">
        <ele>2211</ele>
        <time>2022-07-26T14:44:09Z</time>
      </trkpt>
      <trkpt lat="45.62352" lon="6.61886">
        <ele>2211</ele>
        <time>2022-07-26T14:44:10Z</time>
      </trkpt>
      <trkpt lat="45.62352" lon="6.61884">
        <ele>2211</ele>
        <time>2022-07-26T14:44:11Z</time>
      </trkpt>
      <trkpt lat="45.62352" lon="6.61883">
        <ele>2211</ele>
        <time>2022-07-26T14:44:12Z</time>
      </trkpt>
      <trkpt lat="45.62352" lon="6.61881">
        <ele>2211</ele>
        <time>2022-07-26T14:44:13Z</time>
      </trkpt>
      <trkpt lat="45.62352" lon="6.6188">
        <ele>2211</ele>
        <time>2022-07-26T14:44:14Z</time>
      </trkpt>
      <trkpt lat="45.62352" lon="6.61879">
        <ele>2211</ele>
        <time>2022-07-26T14:44:15Z</time>
      </trkpt>
      <trkpt lat="45.62352" lon="6.61877">
        <ele>2211</ele>
        <time>2022-07-26T14:46:21Z</time>
      </trkpt>
      <trkpt lat="45.62352" lon="6.61876">
        <ele>2211</ele>
        <time>2022-07-26T14:46:22Z</time>
      </trkpt>
      <trkpt lat="45.62353" lon="6.61875">
        <ele>2211</ele>
        <time>2022-07-26T14:46:23Z</time>
      </trkpt>
      <trkpt lat="45.62353" lon="6.61875">
        <ele>2211</ele>
        <time>2022-07-26T14:46:24Z</time>
      </trkpt>
      <trkpt lat="45.62353" lon="6.61874">
        <ele>2211</ele>
        <time>2022-07-26T14:46:25Z</time>
      </trkpt>
      <trkpt lat="45.62353" lon="6.61873">
        <ele>2211</ele>
        <time>2022-07-26T14:46:26Z</time>
      </trkpt>
      <trkpt lat="45.62353" lon="6.61872">
        <ele>2211</ele>
        <time>2022-07-26T14:46:27Z</time>
      </trkpt>
      <trkpt lat="45.62353" lon="6.61871">
        <ele>2211</ele>
        <time>2022-07-26T14:46:28Z</time>
      </trkpt>
      <trkpt lat="45.62353" lon="6.6187">
        <ele>2211</ele>
        <time>2022-07-26T14:46:29Z</time>
      </trkpt>
      <trkpt lat="45.62353" lon="6.61869">
        <ele>2211</ele>
        <time>2022-07-26T14:46:30Z</time>
      </trkpt>
      <trkpt lat="45.62354" lon="6.61868">
        <ele>2211</ele>
        <time>2022-07-26T14:46:31Z</time>
      </trkpt>
      <trkpt lat="45.62354" lon="6.61867">
        <ele>2211</ele>
        <time>2022-07-26T14:46:32Z</time>
      </trkpt>
      <trkpt lat="45.62354" lon="6.61865">
        <ele>2211</ele>
        <time>2022-07-26T14:46:33Z</time>
      </trkpt>
      <trkpt lat="45.62355" lon="6.61864">
        <ele>2211</ele>
        <time>2022-07-26T14:46:34Z</time>
      </trkpt>
      <trkpt lat="45.62355" lon="6.61863">
        <ele>2211</ele>
        <time>2022-07-26T14:46:35Z</time>
      </trkpt>
      <trkpt lat="45.62356" lon="6.61861">
        <ele>2211</ele>
        <time>2022-07-26T14:46:36Z</time>
      </trkpt>
      <trkpt lat="45.62356" lon="6.6186">
        <ele>2211</ele>
        <time>2022-07-26T14:46:37Z</time>
      </trkpt>
      <trkpt lat="45.62357" lon="6.61859">
        <ele>2211</ele>
        <time>2022-07-26T14:46:38Z</time>
      </trkpt>
      <trkpt lat="45.62357" lon="6.61858">
        <ele>2211</ele>
        <time>2022-07-26T14:46:39Z</time>
      </trkpt>
      <trkpt lat="45.62358" lon="6.61857">
        <ele>2211</ele>
        <time>2022-07-26T14:46:40Z</time>
      </trkpt>
      <trkpt lat="45.62358" lon="6.61856">
        <ele>2211</ele>
        <time>2022-07-26T14:46:41Z</time>
      </trkpt>
      <trkpt lat="45.62359" lon="6.61854">
        <ele>2211</ele>
        <time>2022-07-26T14:46:42Z</time>
      </trkpt>
      <trkpt lat="45.6236" lon="6.61853">
        <ele>2211</ele>
        <time>2022-07-26T14:46:43Z</time>
      </trkpt>
      <trkpt lat="45.6236" lon="6.61852">
        <ele>2211</ele>
        <time>2022-07-26T14:46:44Z</time>
      </trkpt>
      <trkpt lat="45.62361" lon="6.61851">
        <ele>2211</ele>
        <time>2022-07-26T14:46:45Z</time>
      </trkpt>
      <trkpt lat="45.62361" lon="6.6185">
        <ele>2211</ele>
        <time>2022-07-26T14:46:46Z</time>
      </trkpt>
      <trkpt lat="45.62362" lon="6.61849">
        <ele>2211</ele>
        <time>2022-07-26T14:46:47Z</time>
      </trkpt>
      <trkpt lat="45.62362" lon="6.61848">
        <ele>2211</ele>
        <time>2022-07-26T14:46:48Z</time>
      </trkpt>
      <trkpt lat="45.62363" lon="6.61847">
        <ele>2211</ele>
        <time>2022-07-26T14:46:49Z</time>
      </trkpt>
      <trkpt lat="45.62363" lon="6.61847">
        <ele>2211</ele>
        <time>2022-07-26T14:46:50Z</time>
      </trkpt>
      <trkpt lat="45.62364" lon="6.61845">
        <ele>2211</ele>
        <time>2022-07-26T14:46:51Z</time>
      </trkpt>
      <trkpt lat="45.62364" lon="6.61844">
        <ele>2211</ele>
        <time>2022-07-26T14:46:52Z</time>
      </trkpt>
      <trkpt lat="45.62364" lon="6.61843">
        <ele>2212</ele>
        <time>2022-07-26T14:46:53Z</time>
      </trkpt>
      <trkpt lat="45.62365" lon="6.61842">
        <ele>2212</ele>
        <time>2022-07-26T14:46:54Z</time>
      </trkpt>
      <trkpt lat="45.62365" lon="6.61841">
        <ele>2212</ele>
        <time>2022-07-26T14:46:55Z</time>
      </trkpt>
      <trkpt lat="45.62365" lon="6.61839">
        <ele>2212</ele>
        <time>2022-07-26T14:46:56Z</time>
      </trkpt>
      <trkpt lat="45.62365" lon="6.61838">
        <ele>2212</ele>
        <time>2022-07-26T14:46:57Z</time>
      </trkpt>
      <trkpt lat="45.62365" lon="6.61837">
        <ele>2212</ele>
        <time>2022-07-26T14:46:58Z</time>
      </trkpt>
      <trkpt lat="45.62365" lon="6.61836">
        <ele>2211</ele>
        <time>2022-07-26T14:46:59Z</time>
      </trkpt>
      <trkpt lat="45.62365" lon="6.61834">
        <ele>2211</ele>
        <time>2022-07-26T14:47:00Z</time>
      </trkpt>
      <trkpt lat="45.62365" lon="6.61833">
        <ele>2211</ele>
        <time>2022-07-26T14:47:01Z</time>
      </trkpt>
      <trkpt lat="45.62365" lon="6.61831">
        <ele>2211</ele>
        <time>2022-07-26T14:47:02Z</time>
      </trkpt>
      <trkpt lat="45.62365" lon="6.61829">
        <ele>2211</ele>
        <time>2022-07-26T14:47:03Z</time>
      </trkpt>
      <trkpt lat="45.62364" lon="6.61828">
        <ele>2211</ele>
        <time>2022-07-26T14:47:04Z</time>
      </trkpt>
      <trkpt lat="45.62364" lon="6.61826">
        <ele>2211</ele>
        <time>2022-07-26T14:47:05Z</time>
      </trkpt>
      <trkpt lat="45.62364" lon="6.61824">
        <ele>2211</ele>
        <time>2022-07-26T14:47:06Z</time>
      </trkpt>
      <trkpt lat="45.62363" lon="6.61822">
        <ele>2211</ele>
        <time>2022-07-26T14:47:07Z</time>
      </trkpt>
      <trkpt lat="45.62363" lon="6.61821">
        <ele>2211</ele>
        <time>2022-07-26T14:47:08Z</time>
      </trkpt>
      <trkpt lat="45.62363" lon="6.61819">
        <ele>2211</ele>
        <time>2022-07-26T14:47:09Z</time>
      </trkpt>
      <trkpt lat="45.62362" lon="6.61817">
        <ele>2211</ele>
        <time>2022-07-26T14:47:10Z</time>
      </trkpt>
      <trkpt lat="45.62362" lon="6.61816">
        <ele>2211</ele>
        <time>2022-07-26T14:47:11Z</time>
      </trkpt>
      <trkpt lat="45.62362" lon="6.61814">
        <ele>2211</ele>
        <time>2022-07-26T14:47:12Z</time>
      </trkpt>
      <trkpt lat="45.62362" lon="6.61813">
        <ele>2211</ele>
        <time>2022-07-26T14:47:13Z</time>
      </trkpt>
      <trkpt lat="45.62361" lon="6.61811">
        <ele>2211</ele>
        <time>2022-07-26T14:47:14Z</time>
      </trkpt>
      <trkpt lat="45.62361" lon="6.61809">
        <ele>2211</ele>
        <time>2022-07-26T14:47:15Z</time>
      </trkpt>
      <trkpt lat="45.62361" lon="6.61807">
        <ele>2211</ele>
        <time>2022-07-26T14:47:16Z</time>
      </trkpt>
      <trkpt lat="45.62361" lon="6.61806">
        <ele>2211</ele>
        <time>2022-07-26T14:47:17Z</time>
      </trkpt>
      <trkpt lat="45.62361" lon="6.61804">
        <ele>2212</ele>
        <time>2022-07-26T14:47:18Z</time>
      </trkpt>
      <trkpt lat="45.62361" lon="6.61802">
        <ele>2212</ele>
        <time>2022-07-26T14:47:19Z</time>
      </trkpt>
      <trkpt lat="45.6236" lon="6.618">
        <ele>2212</ele>
        <time>2022-07-26T14:47:20Z</time>
      </trkpt>
      <trkpt lat="45.6236" lon="6.61799">
        <ele>2212</ele>
        <time>2022-07-26T14:47:21Z</time>
      </trkpt>
      <trkpt lat="45.6236" lon="6.61797">
        <ele>2212</ele>
        <time>2022-07-26T14:47:22Z</time>
      </trkpt>
      <trkpt lat="45.6236" lon="6.61795">
        <ele>2212</ele>
        <time>2022-07-26T14:47:23Z</time>
      </trkpt>
      <trkpt lat="45.6236" lon="6.61794">
        <ele>2212</ele>
        <time>2022-07-26T14:47:24Z</time>
      </trkpt>
      <trkpt lat="45.6236" lon="6.61792">
        <ele>2212</ele>
        <time>2022-07-26T14:47:25Z</time>
      </trkpt>
      <trkpt lat="45.6236" lon="6.6179">
        <ele>2212</ele>
        <time>2022-07-26T14:47:26Z</time>
      </trkpt>
      <trkpt lat="45.6236" lon="6.61789">
        <ele>2212</ele>
        <time>2022-07-26T14:47:27Z</time>
      </trkpt>
      <trkpt lat="45.6236" lon="6.61787">
        <ele>2212</ele>
        <time>2022-07-26T14:47:28Z</time>
      </trkpt>
      <trkpt lat="45.6236" lon="6.61785">
        <ele>2211</ele>
        <time>2022-07-26T14:47:29Z</time>
      </trkpt>
      <trkpt lat="45.6236" lon="6.61784">
        <ele>2211</ele>
        <time>2022-07-26T14:47:30Z</time>
      </trkpt>
      <trkpt lat="45.6236" lon="6.61782">
        <ele>2211</ele>
        <time>2022-07-26T14:47:31Z</time>
      </trkpt>
      <trkpt lat="45.6236" lon="6.61781">
        <ele>2211</ele>
        <time>2022-07-26T14:47:32Z</time>
      </trkpt>
      <trkpt lat="45.6236" lon="6.61779">
        <ele>2211</ele>
        <time>2022-07-26T14:47:33Z</time>
      </trkpt>
      <trkpt lat="45.6236" lon="6.61778">
        <ele>2211</ele>
        <time>2022-07-26T14:47:34Z</time>
      </trkpt>
      <trkpt lat="45.6236" lon="6.61777">
        <ele>2211</ele>
        <time>2022-07-26T14:47:35Z</time>
      </trkpt>
      <trkpt lat="45.6236" lon="6.61775">
        <ele>2211</ele>
        <time>2022-07-26T14:47:36Z</time>
      </trkpt>
      <trkpt lat="45.6236" lon="6.61774">
        <ele>2209</ele>
        <time>2022-07-26T14:47:49Z</time>
      </trkpt>
      <trkpt lat="45.6236" lon="6.61773">
        <ele>2209</ele>
        <time>2022-07-26T14:47:50Z</time>
      </trkpt>
      <trkpt lat="45.6236" lon="6.61772">
        <ele>2209</ele>
        <time>2022-07-26T14:47:51Z</time>
      </trkpt>
      <trkpt lat="45.6236" lon="6.61771">
        <ele>2209</ele>
        <time>2022-07-26T14:47:52Z</time>
      </trkpt>
      <trkpt lat="45.6236" lon="6.6177">
        <ele>2209</ele>
        <time>2022-07-26T14:47:53Z</time>
      </trkpt>
      <trkpt lat="45.62361" lon="6.61769">
        <ele>2208</ele>
        <time>2022-07-26T14:47:54Z</time>
      </trkpt>
      <trkpt lat="45.62361" lon="6.61767">
        <ele>2208</ele>
        <time>2022-07-26T14:47:55Z</time>
      </trkpt>
      <trkpt lat="45.62361" lon="6.61765">
        <ele>2208</ele>
        <time>2022-07-26T14:47:56Z</time>
      </trkpt>
      <trkpt lat="45.62361" lon="6.61764">
        <ele>2208</ele>
        <time>2022-07-26T14:47:57Z</time>
      </trkpt>
      <trkpt lat="45.62361" lon="6.61762">
        <ele>2208</ele>
        <time>2022-07-26T14:47:58Z</time>
      </trkpt>
      <trkpt lat="45.62361" lon="6.6176">
        <ele>2208</ele>
        <time>2022-07-26T14:47:59Z</time>
      </trkpt>
      <trkpt lat="45.62361" lon="6.61758">
        <ele>2208</ele>
        <time>2022-07-26T14:48:00Z</time>
      </trkpt>
      <trkpt lat="45.62362" lon="6.61756">
        <ele>2208</ele>
        <time>2022-07-26T14:48:01Z</time>
      </trkpt>
      <trkpt lat="45.62362" lon="6.61755">
        <ele>2208</ele>
        <time>2022-07-26T14:48:02Z</time>
      </trkpt>
      <trkpt lat="45.62362" lon="6.61753">
        <ele>2208</ele>
        <time>2022-07-26T14:48:03Z</time>
      </trkpt>
      <trkpt lat="45.62362" lon="6.61752">
        <ele>2208</ele>
        <time>2022-07-26T14:48:04Z</time>
      </trkpt>
      <trkpt lat="45.62363" lon="6.6175">
        <ele>2208</ele>
        <time>2022-07-26T14:48:05Z</time>
      </trkpt>
      <trkpt lat="45.62363" lon="6.61748">
        <ele>2208</ele>
        <time>2022-07-26T14:48:06Z</time>
      </trkpt>
      <trkpt lat="45.62363" lon="6.61747">
        <ele>2208</ele>
        <time>2022-07-26T14:48:07Z</time>
      </trkpt>
      <trkpt lat="45.62363" lon="6.61745">
        <ele>2208</ele>
        <time>2022-07-26T14:48:08Z</time>
      </trkpt>
      <trkpt lat="45.62364" lon="6.61744">
        <ele>2207</ele>
        <time>2022-07-26T14:48:09Z</time>
      </trkpt>
      <trkpt lat="45.62364" lon="6.61743">
        <ele>2207</ele>
        <time>2022-07-26T14:48:10Z</time>
      </trkpt>
      <trkpt lat="45.62364" lon="6.61742">
        <ele>2207</ele>
        <time>2022-07-26T14:48:11Z</time>
      </trkpt>
      <trkpt lat="45.62364" lon="6.6174">
        <ele>2207</ele>
        <time>2022-07-26T14:48:22Z</time>
      </trkpt>
      <trkpt lat="45.62364" lon="6.61739">
        <ele>2207</ele>
        <time>2022-07-26T14:48:23Z</time>
      </trkpt>
      <trkpt lat="45.62364" lon="6.61738">
        <ele>2206</ele>
        <time>2022-07-26T14:48:24Z</time>
      </trkpt>
      <trkpt lat="45.62365" lon="6.61737">
        <ele>2206</ele>
        <time>2022-07-26T14:48:25Z</time>
      </trkpt>
      <trkpt lat="45.62365" lon="6.61737">
        <ele>2206</ele>
        <time>2022-07-26T14:48:26Z</time>
      </trkpt>
      <trkpt lat="45.62365" lon="6.61734">
        <ele>2204</ele>
        <time>2022-07-26T14:49:09Z</time>
      </trkpt>
      <trkpt lat="45.62365" lon="6.61733">
        <ele>2204</ele>
        <time>2022-07-26T14:49:10Z</time>
      </trkpt>
      <trkpt lat="45.62366" lon="6.61732">
        <ele>2204</ele>
        <time>2022-07-26T14:49:11Z</time>
      </trkpt>
      <trkpt lat="45.62366" lon="6.61731">
        <ele>2204</ele>
        <time>2022-07-26T14:49:12Z</time>
      </trkpt>
      <trkpt lat="45.62366" lon="6.6173">
        <ele>2204</ele>
        <time>2022-07-26T14:49:13Z</time>
      </trkpt>
      <trkpt lat="45.62367" lon="6.61729">
        <ele>2204</ele>
        <time>2022-07-26T14:49:14Z</time>
      </trkpt>
      <trkpt lat="45.62368" lon="6.61729">
        <ele>2204</ele>
        <time>2022-07-26T14:49:15Z</time>
      </trkpt>
      <trkpt lat="45.62368" lon="6.61728">
        <ele>2204</ele>
        <time>2022-07-26T14:49:16Z</time>
      </trkpt>
      <trkpt lat="45.62369" lon="6.61727">
        <ele>2204</ele>
        <time>2022-07-26T14:49:17Z</time>
      </trkpt>
      <trkpt lat="45.6237" lon="6.61726">
        <ele>2204</ele>
        <time>2022-07-26T14:49:18Z</time>
      </trkpt>
      <trkpt lat="45.62371" lon="6.61725">
        <ele>2204</ele>
        <time>2022-07-26T14:49:19Z</time>
      </trkpt>
      <trkpt lat="45.62371" lon="6.61724">
        <ele>2204</ele>
        <time>2022-07-26T14:49:20Z</time>
      </trkpt>
      <trkpt lat="45.62372" lon="6.61723">
        <ele>2204</ele>
        <time>2022-07-26T14:49:21Z</time>
      </trkpt>
      <trkpt lat="45.62373" lon="6.61722">
        <ele>2204</ele>
        <time>2022-07-26T14:49:22Z</time>
      </trkpt>
      <trkpt lat="45.62374" lon="6.61721">
        <ele>2204</ele>
        <time>2022-07-26T14:49:23Z</time>
      </trkpt>
      <trkpt lat="45.62374" lon="6.6172">
        <ele>2204</ele>
        <time>2022-07-26T14:49:24Z</time>
      </trkpt>
      <trkpt lat="45.62374" lon="6.61719">
        <ele>2204</ele>
        <time>2022-07-26T14:49:25Z</time>
      </trkpt>
      <trkpt lat="45.62375" lon="6.61719">
        <ele>2204</ele>
        <time>2022-07-26T14:49:26Z</time>
      </trkpt>
      <trkpt lat="45.62375" lon="6.61718">
        <ele>2204</ele>
        <time>2022-07-26T14:49:27Z</time>
      </trkpt>
      <trkpt lat="45.62376" lon="6.61717">
        <ele>2204</ele>
        <time>2022-07-26T14:49:28Z</time>
      </trkpt>
      <trkpt lat="45.62376" lon="6.61716">
        <ele>2204</ele>
        <time>2022-07-26T14:49:29Z</time>
      </trkpt>
      <trkpt lat="45.62377" lon="6.61714">
        <ele>2204</ele>
        <time>2022-07-26T14:49:30Z</time>
      </trkpt>
      <trkpt lat="45.62378" lon="6.61713">
        <ele>2204</ele>
        <time>2022-07-26T14:49:31Z</time>
      </trkpt>
      <trkpt lat="45.62378" lon="6.61712">
        <ele>2204</ele>
        <time>2022-07-26T14:49:32Z</time>
      </trkpt>
      <trkpt lat="45.62379" lon="6.6171">
        <ele>2204</ele>
        <time>2022-07-26T14:49:33Z</time>
      </trkpt>
      <trkpt lat="45.6238" lon="6.61709">
        <ele>2203</ele>
        <time>2022-07-26T14:49:34Z</time>
      </trkpt>
      <trkpt lat="45.62381" lon="6.61707">
        <ele>2203</ele>
        <time>2022-07-26T14:49:35Z</time>
      </trkpt>
      <trkpt lat="45.62382" lon="6.61705">
        <ele>2202</ele>
        <time>2022-07-26T14:49:36Z</time>
      </trkpt>
      <trkpt lat="45.62383" lon="6.61704">
        <ele>2202</ele>
        <time>2022-07-26T14:49:37Z</time>
      </trkpt>
      <trkpt lat="45.62384" lon="6.61702">
        <ele>2202</ele>
        <time>2022-07-26T14:49:38Z</time>
      </trkpt>
      <trkpt lat="45.62385" lon="6.61701">
        <ele>2202</ele>
        <time>2022-07-26T14:49:39Z</time>
      </trkpt>
      <trkpt lat="45.62385" lon="6.61699">
        <ele>2202</ele>
        <time>2022-07-26T14:49:40Z</time>
      </trkpt>
      <trkpt lat="45.62386" lon="6.61698">
        <ele>2202</ele>
        <time>2022-07-26T14:49:41Z</time>
      </trkpt>
      <trkpt lat="45.62387" lon="6.61697">
        <ele>2202</ele>
        <time>2022-07-26T14:49:42Z</time>
      </trkpt>
      <trkpt lat="45.62387" lon="6.61695">
        <ele>2202</ele>
        <time>2022-07-26T14:49:43Z</time>
      </trkpt>
      <trkpt lat="45.62388" lon="6.61694">
        <ele>2201</ele>
        <time>2022-07-26T14:49:44Z</time>
      </trkpt>
      <trkpt lat="45.62388" lon="6.61693">
        <ele>2201</ele>
        <time>2022-07-26T14:49:45Z</time>
      </trkpt>
      <trkpt lat="45.62389" lon="6.61692">
        <ele>2201</ele>
        <time>2022-07-26T14:49:46Z</time>
      </trkpt>
      <trkpt lat="45.6239" lon="6.6169">
        <ele>2201</ele>
        <time>2022-07-26T14:49:47Z</time>
      </trkpt>
      <trkpt lat="45.6239" lon="6.61689">
        <ele>2201</ele>
        <time>2022-07-26T14:49:48Z</time>
      </trkpt>
      <trkpt lat="45.62391" lon="6.61688">
        <ele>2200</ele>
        <time>2022-07-26T14:49:49Z</time>
      </trkpt>
      <trkpt lat="45.62392" lon="6.61687">
        <ele>2200</ele>
        <time>2022-07-26T14:49:50Z</time>
      </trkpt>
      <trkpt lat="45.62393" lon="6.61685">
        <ele>2200</ele>
        <time>2022-07-26T14:49:51Z</time>
      </trkpt>
      <trkpt lat="45.62393" lon="6.61684">
        <ele>2200</ele>
        <time>2022-07-26T14:49:52Z</time>
      </trkpt>
      <trkpt lat="45.62394" lon="6.61682">
        <ele>2200</ele>
        <time>2022-07-26T14:49:53Z</time>
      </trkpt>
      <trkpt lat="45.62395" lon="6.61681">
        <ele>2199</ele>
        <time>2022-07-26T14:49:54Z</time>
      </trkpt>
      <trkpt lat="45.62396" lon="6.61679">
        <ele>2199</ele>
        <time>2022-07-26T14:49:55Z</time>
      </trkpt>
      <trkpt lat="45.62396" lon="6.61677">
        <ele>2199</ele>
        <time>2022-07-26T14:49:56Z</time>
      </trkpt>
      <trkpt lat="45.62397" lon="6.61676">
        <ele>2199</ele>
        <time>2022-07-26T14:49:57Z</time>
      </trkpt>
      <trkpt lat="45.62398" lon="6.61674">
        <ele>2199</ele>
        <time>2022-07-26T14:49:58Z</time>
      </trkpt>
      <trkpt lat="45.62398" lon="6.61673">
        <ele>2199</ele>
        <time>2022-07-26T14:49:59Z</time>
      </trkpt>
      <trkpt lat="45.62399" lon="6.61671">
        <ele>2199</ele>
        <time>2022-07-26T14:50:00Z</time>
      </trkpt>
      <trkpt lat="45.624" lon="6.6167">
        <ele>2199</ele>
        <time>2022-07-26T14:50:01Z</time>
      </trkpt>
      <trkpt lat="45.624" lon="6.61668">
        <ele>2199</ele>
        <time>2022-07-26T14:50:02Z</time>
      </trkpt>
      <trkpt lat="45.62401" lon="6.61666">
        <ele>2199</ele>
        <time>2022-07-26T14:50:03Z</time>
      </trkpt>
      <trkpt lat="45.62401" lon="6.61665">
        <ele>2198</ele>
        <time>2022-07-26T14:50:04Z</time>
      </trkpt>
      <trkpt lat="45.62402" lon="6.61663">
        <ele>2198</ele>
        <time>2022-07-26T14:50:05Z</time>
      </trkpt>
      <trkpt lat="45.62402" lon="6.61661">
        <ele>2198</ele>
        <time>2022-07-26T14:50:06Z</time>
      </trkpt>
      <trkpt lat="45.62403" lon="6.6166">
        <ele>2198</ele>
        <time>2022-07-26T14:50:07Z</time>
      </trkpt>
      <trkpt lat="45.62403" lon="6.61658">
        <ele>2198</ele>
        <time>2022-07-26T14:50:08Z</time>
      </trkpt>
      <trkpt lat="45.62404" lon="6.61657">
        <ele>2197</ele>
        <time>2022-07-26T14:50:09Z</time>
      </trkpt>
      <trkpt lat="45.62405" lon="6.61655">
        <ele>2197</ele>
        <time>2022-07-26T14:50:10Z</time>
      </trkpt>
      <trkpt lat="45.62405" lon="6.61653">
        <ele>2197</ele>
        <time>2022-07-26T14:50:11Z</time>
      </trkpt>
      <trkpt lat="45.62406" lon="6.61651">
        <ele>2197</ele>
        <time>2022-07-26T14:50:12Z</time>
      </trkpt>
      <trkpt lat="45.62406" lon="6.6165">
        <ele>2197</ele>
        <time>2022-07-26T14:50:13Z</time>
      </trkpt>
      <trkpt lat="45.62406" lon="6.61648">
        <ele>2197</ele>
        <time>2022-07-26T14:50:14Z</time>
      </trkpt>
      <trkpt lat="45.62406" lon="6.61646">
        <ele>2197</ele>
        <time>2022-07-26T14:50:15Z</time>
      </trkpt>
      <trkpt lat="45.62406" lon="6.61644">
        <ele>2197</ele>
        <time>2022-07-26T14:50:16Z</time>
      </trkpt>
      <trkpt lat="45.62406" lon="6.61643">
        <ele>2197</ele>
        <time>2022-07-26T14:50:17Z</time>
      </trkpt>
      <trkpt lat="45.62406" lon="6.61641">
        <ele>2197</ele>
        <time>2022-07-26T14:50:18Z</time>
      </trkpt>
      <trkpt lat="45.62406" lon="6.61639">
        <ele>2197</ele>
        <time>2022-07-26T14:50:19Z</time>
      </trkpt>
      <trkpt lat="45.62405" lon="6.61637">
        <ele>2197</ele>
        <time>2022-07-26T14:50:20Z</time>
      </trkpt>
      <trkpt lat="45.62405" lon="6.61636">
        <ele>2197</ele>
        <time>2022-07-26T14:50:21Z</time>
      </trkpt>
      <trkpt lat="45.62405" lon="6.61634">
        <ele>2197</ele>
        <time>2022-07-26T14:50:22Z</time>
      </trkpt>
      <trkpt lat="45.62404" lon="6.61632">
        <ele>2197</ele>
        <time>2022-07-26T14:50:23Z</time>
      </trkpt>
      <trkpt lat="45.62404" lon="6.61631">
        <ele>2197</ele>
        <time>2022-07-26T14:50:24Z</time>
      </trkpt>
      <trkpt lat="45.62404" lon="6.61629">
        <ele>2197</ele>
        <time>2022-07-26T14:50:25Z</time>
      </trkpt>
      <trkpt lat="45.62403" lon="6.61628">
        <ele>2197</ele>
        <time>2022-07-26T14:50:26Z</time>
      </trkpt>
      <trkpt lat="45.62403" lon="6.61626">
        <ele>2197</ele>
        <time>2022-07-26T14:50:27Z</time>
      </trkpt>
      <trkpt lat="45.62403" lon="6.61625">
        <ele>2197</ele>
        <time>2022-07-26T14:50:28Z</time>
      </trkpt>
      <trkpt lat="45.62403" lon="6.61623">
        <ele>2196</ele>
        <time>2022-07-26T14:50:29Z</time>
      </trkpt>
      <trkpt lat="45.62402" lon="6.61622">
        <ele>2196</ele>
        <time>2022-07-26T14:50:30Z</time>
      </trkpt>
      <trkpt lat="45.62402" lon="6.61621">
        <ele>2196</ele>
        <time>2022-07-26T14:50:31Z</time>
      </trkpt>
      <trkpt lat="45.62402" lon="6.61619">
        <ele>2194</ele>
        <time>2022-07-26T14:50:55Z</time>
      </trkpt>
      <trkpt lat="45.62402" lon="6.61618">
        <ele>2194</ele>
        <time>2022-07-26T14:50:56Z</time>
      </trkpt>
      <trkpt lat="45.62401" lon="6.61618">
        <ele>2194</ele>
        <time>2022-07-26T14:50:57Z</time>
      </trkpt>
      <trkpt lat="45.62401" lon="6.61617">
        <ele>2194</ele>
        <time>2022-07-26T14:50:58Z</time>
      </trkpt>
      <trkpt lat="45.62401" lon="6.61616">
        <ele>2194</ele>
        <time>2022-07-26T14:50:59Z</time>
      </trkpt>
      <trkpt lat="45.62401" lon="6.61616">
        <ele>2194</ele>
        <time>2022-07-26T14:51:00Z</time>
      </trkpt>
      <trkpt lat="45.62401" lon="6.61615">
        <ele>2194</ele>
        <time>2022-07-26T14:51:01Z</time>
      </trkpt>
      <trkpt lat="45.62401" lon="6.61614">
        <ele>2194</ele>
        <time>2022-07-26T14:51:02Z</time>
      </trkpt>
      <trkpt lat="45.62401" lon="6.61613">
        <ele>2194</ele>
        <time>2022-07-26T14:51:03Z</time>
      </trkpt>
      <trkpt lat="45.62401" lon="6.61611">
        <ele>2194</ele>
        <time>2022-07-26T14:51:04Z</time>
      </trkpt>
      <trkpt lat="45.62401" lon="6.6161">
        <ele>2194</ele>
        <time>2022-07-26T14:51:05Z</time>
      </trkpt>
      <trkpt lat="45.62401" lon="6.61609">
        <ele>2194</ele>
        <time>2022-07-26T14:51:06Z</time>
      </trkpt>
      <trkpt lat="45.62401" lon="6.61607">
        <ele>2194</ele>
        <time>2022-07-26T14:51:07Z</time>
      </trkpt>
      <trkpt lat="45.62401" lon="6.61606">
        <ele>2194</ele>
        <time>2022-07-26T14:51:08Z</time>
      </trkpt>
      <trkpt lat="45.62401" lon="6.61605">
        <ele>2194</ele>
        <time>2022-07-26T14:51:09Z</time>
      </trkpt>
      <trkpt lat="45.62401" lon="6.61604">
        <ele>2194</ele>
        <time>2022-07-26T14:51:10Z</time>
      </trkpt>
      <trkpt lat="45.62401" lon="6.61603">
        <ele>2194</ele>
        <time>2022-07-26T14:51:11Z</time>
      </trkpt>
      <trkpt lat="45.62401" lon="6.61601">
        <ele>2194</ele>
        <time>2022-07-26T14:51:12Z</time>
      </trkpt>
      <trkpt lat="45.62401" lon="6.616">
        <ele>2194</ele>
        <time>2022-07-26T14:51:13Z</time>
      </trkpt>
      <trkpt lat="45.62401" lon="6.61598">
        <ele>2193</ele>
        <time>2022-07-26T14:51:14Z</time>
      </trkpt>
      <trkpt lat="45.62401" lon="6.61597">
        <ele>2193</ele>
        <time>2022-07-26T14:51:15Z</time>
      </trkpt>
      <trkpt lat="45.62401" lon="6.61596">
        <ele>2193</ele>
        <time>2022-07-26T14:51:16Z</time>
      </trkpt>
      <trkpt lat="45.62401" lon="6.61594">
        <ele>2193</ele>
        <time>2022-07-26T14:51:17Z</time>
      </trkpt>
      <trkpt lat="45.62401" lon="6.61593">
        <ele>2193</ele>
        <time>2022-07-26T14:51:18Z</time>
      </trkpt>
      <trkpt lat="45.62401" lon="6.61591">
        <ele>2193</ele>
        <time>2022-07-26T14:51:19Z</time>
      </trkpt>
      <trkpt lat="45.62402" lon="6.6159">
        <ele>2193</ele>
        <time>2022-07-26T14:51:20Z</time>
      </trkpt>
      <trkpt lat="45.62402" lon="6.61589">
        <ele>2193</ele>
        <time>2022-07-26T14:51:21Z</time>
      </trkpt>
      <trkpt lat="45.62402" lon="6.61587">
        <ele>2193</ele>
        <time>2022-07-26T14:51:22Z</time>
      </trkpt>
      <trkpt lat="45.62403" lon="6.61586">
        <ele>2193</ele>
        <time>2022-07-26T14:51:23Z</time>
      </trkpt>
      <trkpt lat="45.62403" lon="6.61584">
        <ele>2192</ele>
        <time>2022-07-26T14:51:24Z</time>
      </trkpt>
      <trkpt lat="45.62403" lon="6.61583">
        <ele>2192</ele>
        <time>2022-07-26T14:51:25Z</time>
      </trkpt>
      <trkpt lat="45.62404" lon="6.61581">
        <ele>2192</ele>
        <time>2022-07-26T14:51:26Z</time>
      </trkpt>
      <trkpt lat="45.62404" lon="6.61579">
        <ele>2192</ele>
        <time>2022-07-26T14:51:27Z</time>
      </trkpt>
      <trkpt lat="45.62404" lon="6.61578">
        <ele>2192</ele>
        <time>2022-07-26T14:51:28Z</time>
      </trkpt>
      <trkpt lat="45.62404" lon="6.61576">
        <ele>2192</ele>
        <time>2022-07-26T14:51:29Z</time>
      </trkpt>
      <trkpt lat="45.62404" lon="6.61575">
        <ele>2192</ele>
        <time>2022-07-26T14:51:30Z</time>
      </trkpt>
      <trkpt lat="45.62404" lon="6.61573">
        <ele>2192</ele>
        <time>2022-07-26T14:51:31Z</time>
      </trkpt>
      <trkpt lat="45.62404" lon="6.61572">
        <ele>2192</ele>
        <time>2022-07-26T14:51:32Z</time>
      </trkpt>
      <trkpt lat="45.62405" lon="6.61571">
        <ele>2192</ele>
        <time>2022-07-26T14:51:33Z</time>
      </trkpt>
      <trkpt lat="45.62404" lon="6.61569">
        <ele>2191</ele>
        <time>2022-07-26T14:51:34Z</time>
      </trkpt>
      <trkpt lat="45.62404" lon="6.61568">
        <ele>2191</ele>
        <time>2022-07-26T14:51:35Z</time>
      </trkpt>
      <trkpt lat="45.62404" lon="6.61566">
        <ele>2191</ele>
        <time>2022-07-26T14:51:36Z</time>
      </trkpt>
      <trkpt lat="45.62404" lon="6.61565">
        <ele>2191</ele>
        <time>2022-07-26T14:51:37Z</time>
      </trkpt>
      <trkpt lat="45.62404" lon="6.61564">
        <ele>2191</ele>
        <time>2022-07-26T14:51:38Z</time>
      </trkpt>
      <trkpt lat="45.62404" lon="6.61562">
        <ele>2191</ele>
        <time>2022-07-26T14:51:39Z</time>
      </trkpt>
      <trkpt lat="45.62404" lon="6.61561">
        <ele>2191</ele>
        <time>2022-07-26T14:51:40Z</time>
      </trkpt>
      <trkpt lat="45.62404" lon="6.61559">
        <ele>2191</ele>
        <time>2022-07-26T14:51:41Z</time>
      </trkpt>
      <trkpt lat="45.62404" lon="6.61558">
        <ele>2191</ele>
        <time>2022-07-26T14:51:42Z</time>
      </trkpt>
      <trkpt lat="45.62404" lon="6.61557">
        <ele>2191</ele>
        <time>2022-07-26T14:51:43Z</time>
      </trkpt>
      <trkpt lat="45.62404" lon="6.61555">
        <ele>2190</ele>
        <time>2022-07-26T14:51:44Z</time>
      </trkpt>
      <trkpt lat="45.62403" lon="6.61554">
        <ele>2190</ele>
        <time>2022-07-26T14:51:45Z</time>
      </trkpt>
      <trkpt lat="45.62403" lon="6.61553">
        <ele>2190</ele>
        <time>2022-07-26T14:51:46Z</time>
      </trkpt>
      <trkpt lat="45.62403" lon="6.61551">
        <ele>2190</ele>
        <time>2022-07-26T14:51:47Z</time>
      </trkpt>
      <trkpt lat="45.62403" lon="6.6155">
        <ele>2190</ele>
        <time>2022-07-26T14:51:48Z</time>
      </trkpt>
      <trkpt lat="45.62403" lon="6.61549">
        <ele>2189</ele>
        <time>2022-07-26T14:51:49Z</time>
      </trkpt>
      <trkpt lat="45.62403" lon="6.61547">
        <ele>2189</ele>
        <time>2022-07-26T14:51:50Z</time>
      </trkpt>
      <trkpt lat="45.62403" lon="6.61546">
        <ele>2189</ele>
        <time>2022-07-26T14:51:51Z</time>
      </trkpt>
      <trkpt lat="45.62403" lon="6.61545">
        <ele>2189</ele>
        <time>2022-07-26T14:51:52Z</time>
      </trkpt>
      <trkpt lat="45.62402" lon="6.61543">
        <ele>2189</ele>
        <time>2022-07-26T14:51:53Z</time>
      </trkpt>
      <trkpt lat="45.62402" lon="6.61542">
        <ele>2189</ele>
        <time>2022-07-26T14:51:54Z</time>
      </trkpt>
      <trkpt lat="45.62402" lon="6.6154">
        <ele>2189</ele>
        <time>2022-07-26T14:51:55Z</time>
      </trkpt>
      <trkpt lat="45.62402" lon="6.61538">
        <ele>2189</ele>
        <time>2022-07-26T14:51:56Z</time>
      </trkpt>
      <trkpt lat="45.62402" lon="6.61537">
        <ele>2189</ele>
        <time>2022-07-26T14:51:57Z</time>
      </trkpt>
      <trkpt lat="45.62401" lon="6.61535">
        <ele>2189</ele>
        <time>2022-07-26T14:51:58Z</time>
      </trkpt>
      <trkpt lat="45.62401" lon="6.61534">
        <ele>2188</ele>
        <time>2022-07-26T14:51:59Z</time>
      </trkpt>
      <trkpt lat="45.62401" lon="6.61532">
        <ele>2188</ele>
        <time>2022-07-26T14:52:00Z</time>
      </trkpt>
      <trkpt lat="45.62401" lon="6.6153">
        <ele>2188</ele>
        <time>2022-07-26T14:52:01Z</time>
      </trkpt>
      <trkpt lat="45.624" lon="6.61529">
        <ele>2188</ele>
        <time>2022-07-26T14:52:02Z</time>
      </trkpt>
      <trkpt lat="45.624" lon="6.61528">
        <ele>2188</ele>
        <time>2022-07-26T14:52:03Z</time>
      </trkpt>
      <trkpt lat="45.624" lon="6.61526">
        <ele>2187</ele>
        <time>2022-07-26T14:52:04Z</time>
      </trkpt>
      <trkpt lat="45.62399" lon="6.61524">
        <ele>2187</ele>
        <time>2022-07-26T14:52:05Z</time>
      </trkpt>
      <trkpt lat="45.62399" lon="6.61523">
        <ele>2187</ele>
        <time>2022-07-26T14:52:06Z</time>
      </trkpt>
      <trkpt lat="45.62399" lon="6.61521">
        <ele>2187</ele>
        <time>2022-07-26T14:52:07Z</time>
      </trkpt>
      <trkpt lat="45.62399" lon="6.6152">
        <ele>2187</ele>
        <time>2022-07-26T14:52:08Z</time>
      </trkpt>
      <trkpt lat="45.62399" lon="6.61518">
        <ele>2187</ele>
        <time>2022-07-26T14:52:09Z</time>
      </trkpt>
      <trkpt lat="45.62398" lon="6.61517">
        <ele>2187</ele>
        <time>2022-07-26T14:52:10Z</time>
      </trkpt>
      <trkpt lat="45.62398" lon="6.61515">
        <ele>2187</ele>
        <time>2022-07-26T14:52:11Z</time>
      </trkpt>
      <trkpt lat="45.62398" lon="6.61514">
        <ele>2187</ele>
        <time>2022-07-26T14:52:12Z</time>
      </trkpt>
      <trkpt lat="45.62397" lon="6.61512">
        <ele>2187</ele>
        <time>2022-07-26T14:52:13Z</time>
      </trkpt>
      <trkpt lat="45.62397" lon="6.6151">
        <ele>2186</ele>
        <time>2022-07-26T14:52:14Z</time>
      </trkpt>
      <trkpt lat="45.62397" lon="6.61509">
        <ele>2186</ele>
        <time>2022-07-26T14:52:15Z</time>
      </trkpt>
      <trkpt lat="45.62397" lon="6.61507">
        <ele>2186</ele>
        <time>2022-07-26T14:52:16Z</time>
      </trkpt>
      <trkpt lat="45.62396" lon="6.61505">
        <ele>2186</ele>
        <time>2022-07-26T14:52:17Z</time>
      </trkpt>
      <trkpt lat="45.62396" lon="6.61504">
        <ele>2186</ele>
        <time>2022-07-26T14:52:18Z</time>
      </trkpt>
      <trkpt lat="45.62396" lon="6.61502">
        <ele>2185</ele>
        <time>2022-07-26T14:52:19Z</time>
      </trkpt>
      <trkpt lat="45.62396" lon="6.61501">
        <ele>2185</ele>
        <time>2022-07-26T14:52:20Z</time>
      </trkpt>
      <trkpt lat="45.62395" lon="6.61499">
        <ele>2185</ele>
        <time>2022-07-26T14:52:21Z</time>
      </trkpt>
      <trkpt lat="45.62395" lon="6.61498">
        <ele>2185</ele>
        <time>2022-07-26T14:52:22Z</time>
      </trkpt>
      <trkpt lat="45.62395" lon="6.61496">
        <ele>2185</ele>
        <time>2022-07-26T14:52:23Z</time>
      </trkpt>
      <trkpt lat="45.62395" lon="6.61495">
        <ele>2184</ele>
        <time>2022-07-26T14:52:24Z</time>
      </trkpt>
      <trkpt lat="45.62394" lon="6.61493">
        <ele>2184</ele>
        <time>2022-07-26T14:52:25Z</time>
      </trkpt>
      <trkpt lat="45.62394" lon="6.61492">
        <ele>2184</ele>
        <time>2022-07-26T14:52:26Z</time>
      </trkpt>
      <trkpt lat="45.62394" lon="6.6149">
        <ele>2184</ele>
        <time>2022-07-26T14:52:27Z</time>
      </trkpt>
      <trkpt lat="45.62394" lon="6.61489">
        <ele>2184</ele>
        <time>2022-07-26T14:52:28Z</time>
      </trkpt>
      <trkpt lat="45.62393" lon="6.61487">
        <ele>2184</ele>
        <time>2022-07-26T14:52:29Z</time>
      </trkpt>
      <trkpt lat="45.62393" lon="6.61486">
        <ele>2184</ele>
        <time>2022-07-26T14:52:30Z</time>
      </trkpt>
      <trkpt lat="45.62393" lon="6.61484">
        <ele>2184</ele>
        <time>2022-07-26T14:52:31Z</time>
      </trkpt>
      <trkpt lat="45.62392" lon="6.61483">
        <ele>2184</ele>
        <time>2022-07-26T14:52:32Z</time>
      </trkpt>
      <trkpt lat="45.62392" lon="6.61482">
        <ele>2184</ele>
        <time>2022-07-26T14:52:33Z</time>
      </trkpt>
      <trkpt lat="45.62391" lon="6.61481">
        <ele>2183</ele>
        <time>2022-07-26T14:52:34Z</time>
      </trkpt>
      <trkpt lat="45.62391" lon="6.61479">
        <ele>2183</ele>
        <time>2022-07-26T14:52:35Z</time>
      </trkpt>
      <trkpt lat="45.6239" lon="6.61478">
        <ele>2183</ele>
        <time>2022-07-26T14:52:36Z</time>
      </trkpt>
      <trkpt lat="45.62389" lon="6.61477">
        <ele>2183</ele>
        <time>2022-07-26T14:52:37Z</time>
      </trkpt>
      <trkpt lat="45.62389" lon="6.61476">
        <ele>2183</ele>
        <time>2022-07-26T14:52:38Z</time>
      </trkpt>
      <trkpt lat="45.62388" lon="6.61475">
        <ele>2182</ele>
        <time>2022-07-26T14:52:39Z</time>
      </trkpt>
      <trkpt lat="45.62387" lon="6.61474">
        <ele>2182</ele>
        <time>2022-07-26T14:52:40Z</time>
      </trkpt>
      <trkpt lat="45.62387" lon="6.61472">
        <ele>2182</ele>
        <time>2022-07-26T14:52:41Z</time>
      </trkpt>
      <trkpt lat="45.62386" lon="6.61471">
        <ele>2182</ele>
        <time>2022-07-26T14:52:42Z</time>
      </trkpt>
      <trkpt lat="45.62386" lon="6.6147">
        <ele>2182</ele>
        <time>2022-07-26T14:52:43Z</time>
      </trkpt>
      <trkpt lat="45.62385" lon="6.61468">
        <ele>2182</ele>
        <time>2022-07-26T14:52:44Z</time>
      </trkpt>
      <trkpt lat="45.62385" lon="6.61467">
        <ele>2182</ele>
        <time>2022-07-26T14:52:45Z</time>
      </trkpt>
      <trkpt lat="45.62385" lon="6.61465">
        <ele>2182</ele>
        <time>2022-07-26T14:52:46Z</time>
      </trkpt>
      <trkpt lat="45.62385" lon="6.61464">
        <ele>2182</ele>
        <time>2022-07-26T14:52:47Z</time>
      </trkpt>
      <trkpt lat="45.62384" lon="6.61463">
        <ele>2182</ele>
        <time>2022-07-26T14:52:48Z</time>
      </trkpt>
      <trkpt lat="45.62384" lon="6.61461">
        <ele>2181</ele>
        <time>2022-07-26T14:52:49Z</time>
      </trkpt>
      <trkpt lat="45.62385" lon="6.6146">
        <ele>2181</ele>
        <time>2022-07-26T14:52:50Z</time>
      </trkpt>
      <trkpt lat="45.62385" lon="6.61458">
        <ele>2181</ele>
        <time>2022-07-26T14:52:51Z</time>
      </trkpt>
      <trkpt lat="45.62385" lon="6.61457">
        <ele>2181</ele>
        <time>2022-07-26T14:52:52Z</time>
      </trkpt>
      <trkpt lat="45.62386" lon="6.61456">
        <ele>2181</ele>
        <time>2022-07-26T14:52:53Z</time>
      </trkpt>
      <trkpt lat="45.62386" lon="6.61454">
        <ele>2180</ele>
        <time>2022-07-26T14:52:54Z</time>
      </trkpt>
      <trkpt lat="45.62387" lon="6.61453">
        <ele>2180</ele>
        <time>2022-07-26T14:52:55Z</time>
      </trkpt>
      <trkpt lat="45.62387" lon="6.61452">
        <ele>2180</ele>
        <time>2022-07-26T14:52:56Z</time>
      </trkpt>
      <trkpt lat="45.62388" lon="6.6145">
        <ele>2180</ele>
        <time>2022-07-26T14:52:57Z</time>
      </trkpt>
      <trkpt lat="45.62389" lon="6.61449">
        <ele>2180</ele>
        <time>2022-07-26T14:52:58Z</time>
      </trkpt>
      <trkpt lat="45.62389" lon="6.61448">
        <ele>2179</ele>
        <time>2022-07-26T14:52:59Z</time>
      </trkpt>
      <trkpt lat="45.62389" lon="6.61446">
        <ele>2179</ele>
        <time>2022-07-26T14:53:00Z</time>
      </trkpt>
      <trkpt lat="45.6239" lon="6.61445">
        <ele>2179</ele>
        <time>2022-07-26T14:53:01Z</time>
      </trkpt>
      <trkpt lat="45.6239" lon="6.61443">
        <ele>2179</ele>
        <time>2022-07-26T14:53:02Z</time>
      </trkpt>
      <trkpt lat="45.6239" lon="6.61442">
        <ele>2179</ele>
        <time>2022-07-26T14:53:03Z</time>
      </trkpt>
      <trkpt lat="45.6239" lon="6.6144">
        <ele>2178</ele>
        <time>2022-07-26T14:53:04Z</time>
      </trkpt>
      <trkpt lat="45.62391" lon="6.61438">
        <ele>2178</ele>
        <time>2022-07-26T14:53:05Z</time>
      </trkpt>
      <trkpt lat="45.62391" lon="6.61436">
        <ele>2178</ele>
        <time>2022-07-26T14:53:06Z</time>
      </trkpt>
      <trkpt lat="45.62391" lon="6.61434">
        <ele>2178</ele>
        <time>2022-07-26T14:53:07Z</time>
      </trkpt>
      <trkpt lat="45.62391" lon="6.61433">
        <ele>2178</ele>
        <time>2022-07-26T14:53:08Z</time>
      </trkpt>
      <trkpt lat="45.62391" lon="6.61431">
        <ele>2177</ele>
        <time>2022-07-26T14:53:09Z</time>
      </trkpt>
      <trkpt lat="45.62391" lon="6.61429">
        <ele>2177</ele>
        <time>2022-07-26T14:53:10Z</time>
      </trkpt>
      <trkpt lat="45.62391" lon="6.61427">
        <ele>2177</ele>
        <time>2022-07-26T14:53:11Z</time>
      </trkpt>
      <trkpt lat="45.6239" lon="6.61425">
        <ele>2177</ele>
        <time>2022-07-26T14:53:12Z</time>
      </trkpt>
      <trkpt lat="45.6239" lon="6.61423">
        <ele>2177</ele>
        <time>2022-07-26T14:53:13Z</time>
      </trkpt>
      <trkpt lat="45.6239" lon="6.61422">
        <ele>2176</ele>
        <time>2022-07-26T14:53:14Z</time>
      </trkpt>
      <trkpt lat="45.6239" lon="6.6142">
        <ele>2176</ele>
        <time>2022-07-26T14:53:15Z</time>
      </trkpt>
      <trkpt lat="45.6239" lon="6.61418">
        <ele>2175</ele>
        <time>2022-07-26T14:53:16Z</time>
      </trkpt>
      <trkpt lat="45.6239" lon="6.61416">
        <ele>2175</ele>
        <time>2022-07-26T14:53:17Z</time>
      </trkpt>
      <trkpt lat="45.6239" lon="6.61415">
        <ele>2175</ele>
        <time>2022-07-26T14:53:18Z</time>
      </trkpt>
      <trkpt lat="45.6239" lon="6.61413">
        <ele>2174</ele>
        <time>2022-07-26T14:53:19Z</time>
      </trkpt>
      <trkpt lat="45.6239" lon="6.61412">
        <ele>2174</ele>
        <time>2022-07-26T14:53:20Z</time>
      </trkpt>
      <trkpt lat="45.6239" lon="6.6141">
        <ele>2174</ele>
        <time>2022-07-26T14:53:21Z</time>
      </trkpt>
      <trkpt lat="45.6239" lon="6.61408">
        <ele>2174</ele>
        <time>2022-07-26T14:53:22Z</time>
      </trkpt>
      <trkpt lat="45.6239" lon="6.61407">
        <ele>2174</ele>
        <time>2022-07-26T14:53:23Z</time>
      </trkpt>
      <trkpt lat="45.62389" lon="6.61405">
        <ele>2174</ele>
        <time>2022-07-26T14:53:24Z</time>
      </trkpt>
      <trkpt lat="45.62389" lon="6.61404">
        <ele>2174</ele>
        <time>2022-07-26T14:53:25Z</time>
      </trkpt>
      <trkpt lat="45.62389" lon="6.61402">
        <ele>2174</ele>
        <time>2022-07-26T14:53:26Z</time>
      </trkpt>
      <trkpt lat="45.62389" lon="6.61401">
        <ele>2174</ele>
        <time>2022-07-26T14:53:27Z</time>
      </trkpt>
      <trkpt lat="45.62389" lon="6.61399">
        <ele>2174</ele>
        <time>2022-07-26T14:53:28Z</time>
      </trkpt>
      <trkpt lat="45.62389" lon="6.61398">
        <ele>2173</ele>
        <time>2022-07-26T14:53:29Z</time>
      </trkpt>
      <trkpt lat="45.62389" lon="6.61397">
        <ele>2173</ele>
        <time>2022-07-26T14:53:30Z</time>
      </trkpt>
      <trkpt lat="45.62388" lon="6.61395">
        <ele>2173</ele>
        <time>2022-07-26T14:53:31Z</time>
      </trkpt>
      <trkpt lat="45.62388" lon="6.61394">
        <ele>2173</ele>
        <time>2022-07-26T14:53:32Z</time>
      </trkpt>
      <trkpt lat="45.62388" lon="6.61392">
        <ele>2173</ele>
        <time>2022-07-26T14:53:33Z</time>
      </trkpt>
      <trkpt lat="45.62388" lon="6.6139">
        <ele>2172</ele>
        <time>2022-07-26T14:53:34Z</time>
      </trkpt>
      <trkpt lat="45.62388" lon="6.61389">
        <ele>2172</ele>
        <time>2022-07-26T14:53:35Z</time>
      </trkpt>
      <trkpt lat="45.62387" lon="6.61387">
        <ele>2172</ele>
        <time>2022-07-26T14:53:36Z</time>
      </trkpt>
      <trkpt lat="45.62387" lon="6.61386">
        <ele>2172</ele>
        <time>2022-07-26T14:53:37Z</time>
      </trkpt>
      <trkpt lat="45.62387" lon="6.61384">
        <ele>2172</ele>
        <time>2022-07-26T14:53:38Z</time>
      </trkpt>
      <trkpt lat="45.62387" lon="6.61382">
        <ele>2171</ele>
        <time>2022-07-26T14:53:39Z</time>
      </trkpt>
      <trkpt lat="45.62387" lon="6.6138">
        <ele>2171</ele>
        <time>2022-07-26T14:53:40Z</time>
      </trkpt>
      <trkpt lat="45.62387" lon="6.61379">
        <ele>2171</ele>
        <time>2022-07-26T14:53:41Z</time>
      </trkpt>
      <trkpt lat="45.62387" lon="6.61377">
        <ele>2171</ele>
        <time>2022-07-26T14:53:42Z</time>
      </trkpt>
      <trkpt lat="45.62387" lon="6.61375">
        <ele>2171</ele>
        <time>2022-07-26T14:53:43Z</time>
      </trkpt>
      <trkpt lat="45.62387" lon="6.61373">
        <ele>2170</ele>
        <time>2022-07-26T14:53:44Z</time>
      </trkpt>
      <trkpt lat="45.62387" lon="6.61371">
        <ele>2170</ele>
        <time>2022-07-26T14:53:45Z</time>
      </trkpt>
      <trkpt lat="45.62387" lon="6.6137">
        <ele>2170</ele>
        <time>2022-07-26T14:53:46Z</time>
      </trkpt>
      <trkpt lat="45.62387" lon="6.61368">
        <ele>2170</ele>
        <time>2022-07-26T14:53:47Z</time>
      </trkpt>
      <trkpt lat="45.62388" lon="6.61366">
        <ele>2170</ele>
        <time>2022-07-26T14:53:48Z</time>
      </trkpt>
      <trkpt lat="45.62388" lon="6.61365">
        <ele>2170</ele>
        <time>2022-07-26T14:53:49Z</time>
      </trkpt>
      <trkpt lat="45.62388" lon="6.61363">
        <ele>2170</ele>
        <time>2022-07-26T14:53:50Z</time>
      </trkpt>
      <trkpt lat="45.62389" lon="6.61361">
        <ele>2170</ele>
        <time>2022-07-26T14:53:51Z</time>
      </trkpt>
      <trkpt lat="45.62389" lon="6.61359">
        <ele>2170</ele>
        <time>2022-07-26T14:53:52Z</time>
      </trkpt>
      <trkpt lat="45.6239" lon="6.61358">
        <ele>2170</ele>
        <time>2022-07-26T14:53:53Z</time>
      </trkpt>
      <trkpt lat="45.6239" lon="6.61356">
        <ele>2169</ele>
        <time>2022-07-26T14:53:54Z</time>
      </trkpt>
      <trkpt lat="45.6239" lon="6.61354">
        <ele>2169</ele>
        <time>2022-07-26T14:53:55Z</time>
      </trkpt>
      <trkpt lat="45.6239" lon="6.61353">
        <ele>2169</ele>
        <time>2022-07-26T14:53:56Z</time>
      </trkpt>
      <trkpt lat="45.6239" lon="6.61351">
        <ele>2169</ele>
        <time>2022-07-26T14:53:57Z</time>
      </trkpt>
      <trkpt lat="45.62389" lon="6.61349">
        <ele>2169</ele>
        <time>2022-07-26T14:53:58Z</time>
      </trkpt>
      <trkpt lat="45.62389" lon="6.61348">
        <ele>2169</ele>
        <time>2022-07-26T14:53:59Z</time>
      </trkpt>
      <trkpt lat="45.62388" lon="6.61347">
        <ele>2169</ele>
        <time>2022-07-26T14:54:00Z</time>
      </trkpt>
      <trkpt lat="45.62387" lon="6.61346">
        <ele>2169</ele>
        <time>2022-07-26T14:54:01Z</time>
      </trkpt>
      <trkpt lat="45.62386" lon="6.61345">
        <ele>2169</ele>
        <time>2022-07-26T14:54:02Z</time>
      </trkpt>
      <trkpt lat="45.62385" lon="6.61344">
        <ele>2169</ele>
        <time>2022-07-26T14:54:03Z</time>
      </trkpt>
      <trkpt lat="45.62384" lon="6.61343">
        <ele>2168</ele>
        <time>2022-07-26T14:54:04Z</time>
      </trkpt>
      <trkpt lat="45.62383" lon="6.61343">
        <ele>2168</ele>
        <time>2022-07-26T14:54:05Z</time>
      </trkpt>
      <trkpt lat="45.62381" lon="6.61342">
        <ele>2168</ele>
        <time>2022-07-26T14:54:06Z</time>
      </trkpt>
      <trkpt lat="45.6238" lon="6.61342">
        <ele>2168</ele>
        <time>2022-07-26T14:54:07Z</time>
      </trkpt>
      <trkpt lat="45.62379" lon="6.61342">
        <ele>2168</ele>
        <time>2022-07-26T14:54:08Z</time>
      </trkpt>
      <trkpt lat="45.62378" lon="6.61341">
        <ele>2167</ele>
        <time>2022-07-26T14:54:09Z</time>
      </trkpt>
      <trkpt lat="45.62376" lon="6.61341">
        <ele>2167</ele>
        <time>2022-07-26T14:54:10Z</time>
      </trkpt>
      <trkpt lat="45.62375" lon="6.61341">
        <ele>2167</ele>
        <time>2022-07-26T14:54:11Z</time>
      </trkpt>
      <trkpt lat="45.62374" lon="6.61341">
        <ele>2167</ele>
        <time>2022-07-26T14:54:12Z</time>
      </trkpt>
      <trkpt lat="45.62373" lon="6.6134">
        <ele>2167</ele>
        <time>2022-07-26T14:54:13Z</time>
      </trkpt>
      <trkpt lat="45.62372" lon="6.6134">
        <ele>2167</ele>
        <time>2022-07-26T14:54:14Z</time>
      </trkpt>
      <trkpt lat="45.62371" lon="6.6134">
        <ele>2167</ele>
        <time>2022-07-26T14:54:15Z</time>
      </trkpt>
      <trkpt lat="45.62369" lon="6.6134">
        <ele>2167</ele>
        <time>2022-07-26T14:54:16Z</time>
      </trkpt>
      <trkpt lat="45.62368" lon="6.6134">
        <ele>2167</ele>
        <time>2022-07-26T14:54:17Z</time>
      </trkpt>
      <trkpt lat="45.62367" lon="6.61339">
        <ele>2167</ele>
        <time>2022-07-26T14:54:18Z</time>
      </trkpt>
      <trkpt lat="45.62366" lon="6.61339">
        <ele>2166</ele>
        <time>2022-07-26T14:54:19Z</time>
      </trkpt>
      <trkpt lat="45.62364" lon="6.61339">
        <ele>2166</ele>
        <time>2022-07-26T14:54:20Z</time>
      </trkpt>
      <trkpt lat="45.62363" lon="6.61339">
        <ele>2166</ele>
        <time>2022-07-26T14:54:21Z</time>
      </trkpt>
      <trkpt lat="45.62362" lon="6.61339">
        <ele>2166</ele>
        <time>2022-07-26T14:54:22Z</time>
      </trkpt>
      <trkpt lat="45.62361" lon="6.61338">
        <ele>2166</ele>
        <time>2022-07-26T14:54:23Z</time>
      </trkpt>
      <trkpt lat="45.6236" lon="6.61338">
        <ele>2166</ele>
        <time>2022-07-26T14:54:24Z</time>
      </trkpt>
      <trkpt lat="45.62359" lon="6.61338">
        <ele>2166</ele>
        <time>2022-07-26T14:54:25Z</time>
      </trkpt>
      <trkpt lat="45.62358" lon="6.61338">
        <ele>2166</ele>
        <time>2022-07-26T14:54:26Z</time>
      </trkpt>
      <trkpt lat="45.62357" lon="6.61338">
        <ele>2166</ele>
        <time>2022-07-26T14:54:27Z</time>
      </trkpt>
      <trkpt lat="45.62355" lon="6.61338">
        <ele>2166</ele>
        <time>2022-07-26T14:54:28Z</time>
      </trkpt>
      <trkpt lat="45.62354" lon="6.61338">
        <ele>2166</ele>
        <time>2022-07-26T14:54:29Z</time>
      </trkpt>
      <trkpt lat="45.62353" lon="6.61338">
        <ele>2166</ele>
        <time>2022-07-26T14:54:30Z</time>
      </trkpt>
      <trkpt lat="45.62352" lon="6.61338">
        <ele>2166</ele>
        <time>2022-07-26T14:54:31Z</time>
      </trkpt>
      <trkpt lat="45.62351" lon="6.61338">
        <ele>2166</ele>
        <time>2022-07-26T14:54:32Z</time>
      </trkpt>
      <trkpt lat="45.62349" lon="6.61338">
        <ele>2166</ele>
        <time>2022-07-26T14:54:33Z</time>
      </trkpt>
      <trkpt lat="45.62348" lon="6.61339">
        <ele>2166</ele>
        <time>2022-07-26T14:54:34Z</time>
      </trkpt>
      <trkpt lat="45.62347" lon="6.61339">
        <ele>2166</ele>
        <time>2022-07-26T14:54:35Z</time>
      </trkpt>
      <trkpt lat="45.62346" lon="6.61339">
        <ele>2166</ele>
        <time>2022-07-26T14:54:36Z</time>
      </trkpt>
      <trkpt lat="45.62345" lon="6.61339">
        <ele>2166</ele>
        <time>2022-07-26T14:54:37Z</time>
      </trkpt>
      <trkpt lat="45.62343" lon="6.61339">
        <ele>2166</ele>
        <time>2022-07-26T14:54:38Z</time>
      </trkpt>
      <trkpt lat="45.62342" lon="6.61339">
        <ele>2165</ele>
        <time>2022-07-26T14:54:39Z</time>
      </trkpt>
      <trkpt lat="45.62341" lon="6.61339">
        <ele>2165</ele>
        <time>2022-07-26T14:54:40Z</time>
      </trkpt>
      <trkpt lat="45.6234" lon="6.61339">
        <ele>2165</ele>
        <time>2022-07-26T14:54:41Z</time>
      </trkpt>
      <trkpt lat="45.62339" lon="6.6134">
        <ele>2165</ele>
        <time>2022-07-26T14:54:42Z</time>
      </trkpt>
      <trkpt lat="45.62338" lon="6.6134">
        <ele>2165</ele>
        <time>2022-07-26T14:54:43Z</time>
      </trkpt>
      <trkpt lat="45.62337" lon="6.6134">
        <ele>2165</ele>
        <time>2022-07-26T14:54:44Z</time>
      </trkpt>
      <trkpt lat="45.62336" lon="6.61341">
        <ele>2165</ele>
        <time>2022-07-26T14:54:45Z</time>
      </trkpt>
      <trkpt lat="45.62335" lon="6.61341">
        <ele>2165</ele>
        <time>2022-07-26T14:54:46Z</time>
      </trkpt>
      <trkpt lat="45.62333" lon="6.61342">
        <ele>2165</ele>
        <time>2022-07-26T14:54:47Z</time>
      </trkpt>
      <trkpt lat="45.62332" lon="6.61342">
        <ele>2165</ele>
        <time>2022-07-26T14:54:48Z</time>
      </trkpt>
      <trkpt lat="45.62331" lon="6.61342">
        <ele>2164</ele>
        <time>2022-07-26T14:54:49Z</time>
      </trkpt>
      <trkpt lat="45.6233" lon="6.61343">
        <ele>2164</ele>
        <time>2022-07-26T14:54:50Z</time>
      </trkpt>
      <trkpt lat="45.62329" lon="6.61343">
        <ele>2164</ele>
        <time>2022-07-26T14:54:51Z</time>
      </trkpt>
      <trkpt lat="45.62328" lon="6.61343">
        <ele>2164</ele>
        <time>2022-07-26T14:54:52Z</time>
      </trkpt>
      <trkpt lat="45.62326" lon="6.61344">
        <ele>2164</ele>
        <time>2022-07-26T14:54:53Z</time>
      </trkpt>
      <trkpt lat="45.62325" lon="6.61344">
        <ele>2164</ele>
        <time>2022-07-26T14:54:54Z</time>
      </trkpt>
      <trkpt lat="45.62324" lon="6.61344">
        <ele>2164</ele>
        <time>2022-07-26T14:54:55Z</time>
      </trkpt>
      <trkpt lat="45.62323" lon="6.61344">
        <ele>2164</ele>
        <time>2022-07-26T14:54:56Z</time>
      </trkpt>
      <trkpt lat="45.62322" lon="6.61343">
        <ele>2164</ele>
        <time>2022-07-26T14:54:57Z</time>
      </trkpt>
      <trkpt lat="45.62321" lon="6.61343">
        <ele>2164</ele>
        <time>2022-07-26T14:54:58Z</time>
      </trkpt>
      <trkpt lat="45.6232" lon="6.61342">
        <ele>2164</ele>
        <time>2022-07-26T14:54:59Z</time>
      </trkpt>
      <trkpt lat="45.62319" lon="6.61341">
        <ele>2164</ele>
        <time>2022-07-26T14:55:00Z</time>
      </trkpt>
      <trkpt lat="45.62318" lon="6.61341">
        <ele>2164</ele>
        <time>2022-07-26T14:55:01Z</time>
      </trkpt>
      <trkpt lat="45.62317" lon="6.6134">
        <ele>2164</ele>
        <time>2022-07-26T14:55:02Z</time>
      </trkpt>
      <trkpt lat="45.62316" lon="6.61339">
        <ele>2164</ele>
        <time>2022-07-26T14:55:03Z</time>
      </trkpt>
      <trkpt lat="45.62315" lon="6.61337">
        <ele>2163</ele>
        <time>2022-07-26T14:55:04Z</time>
      </trkpt>
      <trkpt lat="45.62314" lon="6.61336">
        <ele>2163</ele>
        <time>2022-07-26T14:55:05Z</time>
      </trkpt>
      <trkpt lat="45.62313" lon="6.61335">
        <ele>2163</ele>
        <time>2022-07-26T14:55:06Z</time>
      </trkpt>
      <trkpt lat="45.62312" lon="6.61333">
        <ele>2163</ele>
        <time>2022-07-26T14:55:07Z</time>
      </trkpt>
      <trkpt lat="45.62312" lon="6.61332">
        <ele>2163</ele>
        <time>2022-07-26T14:55:08Z</time>
      </trkpt>
      <trkpt lat="45.62311" lon="6.61331">
        <ele>2163</ele>
        <time>2022-07-26T14:55:09Z</time>
      </trkpt>
      <trkpt lat="45.6231" lon="6.6133">
        <ele>2163</ele>
        <time>2022-07-26T14:55:10Z</time>
      </trkpt>
      <trkpt lat="45.62309" lon="6.61329">
        <ele>2163</ele>
        <time>2022-07-26T14:55:11Z</time>
      </trkpt>
      <trkpt lat="45.62308" lon="6.61328">
        <ele>2163</ele>
        <time>2022-07-26T14:55:12Z</time>
      </trkpt>
      <trkpt lat="45.62307" lon="6.61326">
        <ele>2163</ele>
        <time>2022-07-26T14:55:13Z</time>
      </trkpt>
      <trkpt lat="45.62306" lon="6.61326">
        <ele>2162</ele>
        <time>2022-07-26T14:55:14Z</time>
      </trkpt>
      <trkpt lat="45.62306" lon="6.61325">
        <ele>2162</ele>
        <time>2022-07-26T14:55:15Z</time>
      </trkpt>
      <trkpt lat="45.62305" lon="6.61324">
        <ele>2162</ele>
        <time>2022-07-26T14:55:16Z</time>
      </trkpt>
      <trkpt lat="45.62303" lon="6.61323">
        <ele>2162</ele>
        <time>2022-07-26T14:55:17Z</time>
      </trkpt>
      <trkpt lat="45.62302" lon="6.61323">
        <ele>2162</ele>
        <time>2022-07-26T14:55:18Z</time>
      </trkpt>
      <trkpt lat="45.62301" lon="6.61322">
        <ele>2161</ele>
        <time>2022-07-26T14:55:19Z</time>
      </trkpt>
      <trkpt lat="45.623" lon="6.61321">
        <ele>2161</ele>
        <time>2022-07-26T14:55:20Z</time>
      </trkpt>
      <trkpt lat="45.62299" lon="6.61321">
        <ele>2161</ele>
        <time>2022-07-26T14:55:21Z</time>
      </trkpt>
      <trkpt lat="45.62298" lon="6.6132">
        <ele>2161</ele>
        <time>2022-07-26T14:55:22Z</time>
      </trkpt>
      <trkpt lat="45.62297" lon="6.61319">
        <ele>2161</ele>
        <time>2022-07-26T14:55:23Z</time>
      </trkpt>
      <trkpt lat="45.62296" lon="6.61319">
        <ele>2160</ele>
        <time>2022-07-26T14:55:24Z</time>
      </trkpt>
      <trkpt lat="45.62295" lon="6.61318">
        <ele>2160</ele>
        <time>2022-07-26T14:55:25Z</time>
      </trkpt>
      <trkpt lat="45.62294" lon="6.61317">
        <ele>2160</ele>
        <time>2022-07-26T14:55:26Z</time>
      </trkpt>
      <trkpt lat="45.62293" lon="6.61317">
        <ele>2160</ele>
        <time>2022-07-26T14:55:27Z</time>
      </trkpt>
      <trkpt lat="45.62292" lon="6.61316">
        <ele>2160</ele>
        <time>2022-07-26T14:55:28Z</time>
      </trkpt>
      <trkpt lat="45.62291" lon="6.61315">
        <ele>2159</ele>
        <time>2022-07-26T14:55:29Z</time>
      </trkpt>
      <trkpt lat="45.6229" lon="6.61314">
        <ele>2159</ele>
        <time>2022-07-26T14:55:30Z</time>
      </trkpt>
      <trkpt lat="45.62289" lon="6.61314">
        <ele>2159</ele>
        <time>2022-07-26T14:55:31Z</time>
      </trkpt>
      <trkpt lat="45.62288" lon="6.61313">
        <ele>2159</ele>
        <time>2022-07-26T14:55:32Z</time>
      </trkpt>
      <trkpt lat="45.62287" lon="6.61312">
        <ele>2159</ele>
        <time>2022-07-26T14:55:33Z</time>
      </trkpt>
      <trkpt lat="45.62286" lon="6.61311">
        <ele>2158</ele>
        <time>2022-07-26T14:55:34Z</time>
      </trkpt>
      <trkpt lat="45.62285" lon="6.6131">
        <ele>2158</ele>
        <time>2022-07-26T14:55:35Z</time>
      </trkpt>
      <trkpt lat="45.62285" lon="6.61308">
        <ele>2158</ele>
        <time>2022-07-26T14:55:36Z</time>
      </trkpt>
      <trkpt lat="45.62284" lon="6.61307">
        <ele>2158</ele>
        <time>2022-07-26T14:55:37Z</time>
      </trkpt>
      <trkpt lat="45.62284" lon="6.61306">
        <ele>2158</ele>
        <time>2022-07-26T14:55:38Z</time>
      </trkpt>
      <trkpt lat="45.62283" lon="6.61304">
        <ele>2158</ele>
        <time>2022-07-26T14:55:39Z</time>
      </trkpt>
      <trkpt lat="45.62283" lon="6.61303">
        <ele>2158</ele>
        <time>2022-07-26T14:55:40Z</time>
      </trkpt>
      <trkpt lat="45.62283" lon="6.61301">
        <ele>2158</ele>
        <time>2022-07-26T14:55:41Z</time>
      </trkpt>
      <trkpt lat="45.62282" lon="6.613">
        <ele>2158</ele>
        <time>2022-07-26T14:55:42Z</time>
      </trkpt>
      <trkpt lat="45.62282" lon="6.61298">
        <ele>2158</ele>
        <time>2022-07-26T14:55:43Z</time>
      </trkpt>
      <trkpt lat="45.62282" lon="6.61297">
        <ele>2157</ele>
        <time>2022-07-26T14:55:44Z</time>
      </trkpt>
      <trkpt lat="45.62281" lon="6.61295">
        <ele>2157</ele>
        <time>2022-07-26T14:55:45Z</time>
      </trkpt>
      <trkpt lat="45.62281" lon="6.61294">
        <ele>2157</ele>
        <time>2022-07-26T14:55:46Z</time>
      </trkpt>
      <trkpt lat="45.62281" lon="6.61293">
        <ele>2157</ele>
        <time>2022-07-26T14:55:47Z</time>
      </trkpt>
      <trkpt lat="45.6228" lon="6.61291">
        <ele>2157</ele>
        <time>2022-07-26T14:55:48Z</time>
      </trkpt>
      <trkpt lat="45.6228" lon="6.6129">
        <ele>2156</ele>
        <time>2022-07-26T14:55:49Z</time>
      </trkpt>
      <trkpt lat="45.62279" lon="6.61288">
        <ele>2156</ele>
        <time>2022-07-26T14:55:50Z</time>
      </trkpt>
      <trkpt lat="45.62279" lon="6.61287">
        <ele>2156</ele>
        <time>2022-07-26T14:55:51Z</time>
      </trkpt>
      <trkpt lat="45.62279" lon="6.61285">
        <ele>2156</ele>
        <time>2022-07-26T14:55:52Z</time>
      </trkpt>
      <trkpt lat="45.62278" lon="6.61284">
        <ele>2156</ele>
        <time>2022-07-26T14:55:53Z</time>
      </trkpt>
      <trkpt lat="45.62278" lon="6.61282">
        <ele>2155</ele>
        <time>2022-07-26T14:55:54Z</time>
      </trkpt>
      <trkpt lat="45.62277" lon="6.61281">
        <ele>2155</ele>
        <time>2022-07-26T14:55:55Z</time>
      </trkpt>
      <trkpt lat="45.62277" lon="6.61279">
        <ele>2155</ele>
        <time>2022-07-26T14:55:56Z</time>
      </trkpt>
      <trkpt lat="45.62276" lon="6.61278">
        <ele>2155</ele>
        <time>2022-07-26T14:55:57Z</time>
      </trkpt>
      <trkpt lat="45.62276" lon="6.61277">
        <ele>2155</ele>
        <time>2022-07-26T14:55:58Z</time>
      </trkpt>
      <trkpt lat="45.62275" lon="6.61276">
        <ele>2154</ele>
        <time>2022-07-26T14:55:59Z</time>
      </trkpt>
      <trkpt lat="45.62274" lon="6.61274">
        <ele>2154</ele>
        <time>2022-07-26T14:56:00Z</time>
      </trkpt>
      <trkpt lat="45.62274" lon="6.61273">
        <ele>2154</ele>
        <time>2022-07-26T14:56:01Z</time>
      </trkpt>
      <trkpt lat="45.62273" lon="6.61272">
        <ele>2154</ele>
        <time>2022-07-26T14:56:02Z</time>
      </trkpt>
      <trkpt lat="45.62273" lon="6.61271">
        <ele>2154</ele>
        <time>2022-07-26T14:56:03Z</time>
      </trkpt>
      <trkpt lat="45.62272" lon="6.6127">
        <ele>2154</ele>
        <time>2022-07-26T14:56:04Z</time>
      </trkpt>
      <trkpt lat="45.62271" lon="6.61269">
        <ele>2154</ele>
        <time>2022-07-26T14:56:05Z</time>
      </trkpt>
      <trkpt lat="45.62271" lon="6.61268">
        <ele>2154</ele>
        <time>2022-07-26T14:56:06Z</time>
      </trkpt>
      <trkpt lat="45.6227" lon="6.61267">
        <ele>2154</ele>
        <time>2022-07-26T14:56:07Z</time>
      </trkpt>
      <trkpt lat="45.62269" lon="6.61265">
        <ele>2154</ele>
        <time>2022-07-26T14:56:08Z</time>
      </trkpt>
      <trkpt lat="45.62269" lon="6.61264">
        <ele>2153</ele>
        <time>2022-07-26T14:56:09Z</time>
      </trkpt>
      <trkpt lat="45.62268" lon="6.61263">
        <ele>2153</ele>
        <time>2022-07-26T14:56:10Z</time>
      </trkpt>
      <trkpt lat="45.62267" lon="6.61262">
        <ele>2153</ele>
        <time>2022-07-26T14:56:11Z</time>
      </trkpt>
      <trkpt lat="45.62266" lon="6.6126">
        <ele>2153</ele>
        <time>2022-07-26T14:56:12Z</time>
      </trkpt>
      <trkpt lat="45.62266" lon="6.61259">
        <ele>2153</ele>
        <time>2022-07-26T14:56:13Z</time>
      </trkpt>
      <trkpt lat="45.62265" lon="6.61258">
        <ele>2152</ele>
        <time>2022-07-26T14:56:14Z</time>
      </trkpt>
      <trkpt lat="45.62264" lon="6.61257">
        <ele>2152</ele>
        <time>2022-07-26T14:56:15Z</time>
      </trkpt>
      <trkpt lat="45.62263" lon="6.61255">
        <ele>2152</ele>
        <time>2022-07-26T14:56:16Z</time>
      </trkpt>
      <trkpt lat="45.62262" lon="6.61254">
        <ele>2152</ele>
        <time>2022-07-26T14:56:17Z</time>
      </trkpt>
      <trkpt lat="45.62262" lon="6.61253">
        <ele>2152</ele>
        <time>2022-07-26T14:56:18Z</time>
      </trkpt>
      <trkpt lat="45.62261" lon="6.61252">
        <ele>2152</ele>
        <time>2022-07-26T14:56:19Z</time>
      </trkpt>
      <trkpt lat="45.6226" lon="6.61251">
        <ele>2152</ele>
        <time>2022-07-26T14:56:20Z</time>
      </trkpt>
      <trkpt lat="45.62259" lon="6.6125">
        <ele>2152</ele>
        <time>2022-07-26T14:56:21Z</time>
      </trkpt>
      <trkpt lat="45.62258" lon="6.61249">
        <ele>2152</ele>
        <time>2022-07-26T14:56:22Z</time>
      </trkpt>
      <trkpt lat="45.62257" lon="6.61249">
        <ele>2152</ele>
        <time>2022-07-26T14:56:23Z</time>
      </trkpt>
      <trkpt lat="45.62256" lon="6.61248">
        <ele>2151</ele>
        <time>2022-07-26T14:56:24Z</time>
      </trkpt>
      <trkpt lat="45.62255" lon="6.61247">
        <ele>2151</ele>
        <time>2022-07-26T14:56:25Z</time>
      </trkpt>
      <trkpt lat="45.62254" lon="6.61246">
        <ele>2151</ele>
        <time>2022-07-26T14:56:26Z</time>
      </trkpt>
      <trkpt lat="45.62253" lon="6.61246">
        <ele>2151</ele>
        <time>2022-07-26T14:56:27Z</time>
      </trkpt>
      <trkpt lat="45.62252" lon="6.61245">
        <ele>2151</ele>
        <time>2022-07-26T14:56:28Z</time>
      </trkpt>
      <trkpt lat="45.62252" lon="6.61244">
        <ele>2151</ele>
        <time>2022-07-26T14:56:29Z</time>
      </trkpt>
      <trkpt lat="45.62251" lon="6.61243">
        <ele>2151</ele>
        <time>2022-07-26T14:56:30Z</time>
      </trkpt>
      <trkpt lat="45.6225" lon="6.61242">
        <ele>2151</ele>
        <time>2022-07-26T14:56:31Z</time>
      </trkpt>
      <trkpt lat="45.62249" lon="6.61241">
        <ele>2151</ele>
        <time>2022-07-26T14:56:32Z</time>
      </trkpt>
      <trkpt lat="45.62248" lon="6.6124">
        <ele>2151</ele>
        <time>2022-07-26T14:56:33Z</time>
      </trkpt>
      <trkpt lat="45.62248" lon="6.61239">
        <ele>2150</ele>
        <time>2022-07-26T14:56:34Z</time>
      </trkpt>
      <trkpt lat="45.62247" lon="6.61238">
        <ele>2150</ele>
        <time>2022-07-26T14:56:35Z</time>
      </trkpt>
      <trkpt lat="45.62246" lon="6.61237">
        <ele>2150</ele>
        <time>2022-07-26T14:56:36Z</time>
      </trkpt>
      <trkpt lat="45.62246" lon="6.61236">
        <ele>2150</ele>
        <time>2022-07-26T14:56:37Z</time>
      </trkpt>
      <trkpt lat="45.62245" lon="6.61235">
        <ele>2150</ele>
        <time>2022-07-26T14:56:38Z</time>
      </trkpt>
      <trkpt lat="45.62244" lon="6.61234">
        <ele>2150</ele>
        <time>2022-07-26T14:56:39Z</time>
      </trkpt>
      <trkpt lat="45.62244" lon="6.61233">
        <ele>2150</ele>
        <time>2022-07-26T14:56:40Z</time>
      </trkpt>
      <trkpt lat="45.62243" lon="6.61232">
        <ele>2150</ele>
        <time>2022-07-26T14:56:41Z</time>
      </trkpt>
      <trkpt lat="45.62242" lon="6.61231">
        <ele>2150</ele>
        <time>2022-07-26T14:56:42Z</time>
      </trkpt>
      <trkpt lat="45.62242" lon="6.61229">
        <ele>2150</ele>
        <time>2022-07-26T14:56:43Z</time>
      </trkpt>
      <trkpt lat="45.62241" lon="6.61228">
        <ele>2149</ele>
        <time>2022-07-26T14:56:44Z</time>
      </trkpt>
      <trkpt lat="45.62241" lon="6.61227">
        <ele>2149</ele>
        <time>2022-07-26T14:56:45Z</time>
      </trkpt>
      <trkpt lat="45.6224" lon="6.61226">
        <ele>2149</ele>
        <time>2022-07-26T14:56:46Z</time>
      </trkpt>
      <trkpt lat="45.62239" lon="6.61225">
        <ele>2149</ele>
        <time>2022-07-26T14:56:47Z</time>
      </trkpt>
      <trkpt lat="45.62239" lon="6.61224">
        <ele>2149</ele>
        <time>2022-07-26T14:56:48Z</time>
      </trkpt>
      <trkpt lat="45.62238" lon="6.61222">
        <ele>2148</ele>
        <time>2022-07-26T14:56:49Z</time>
      </trkpt>
      <trkpt lat="45.62238" lon="6.61221">
        <ele>2148</ele>
        <time>2022-07-26T14:56:50Z</time>
      </trkpt>
      <trkpt lat="45.62237" lon="6.6122">
        <ele>2147</ele>
        <time>2022-07-26T14:56:51Z</time>
      </trkpt>
      <trkpt lat="45.62236" lon="6.61219">
        <ele>2147</ele>
        <time>2022-07-26T14:56:52Z</time>
      </trkpt>
      <trkpt lat="45.62235" lon="6.61218">
        <ele>2147</ele>
        <time>2022-07-26T14:56:53Z</time>
      </trkpt>
      <trkpt lat="45.62235" lon="6.61217">
        <ele>2147</ele>
        <time>2022-07-26T14:56:54Z</time>
      </trkpt>
      <trkpt lat="45.62234" lon="6.61216">
        <ele>2147</ele>
        <time>2022-07-26T14:56:55Z</time>
      </trkpt>
      <trkpt lat="45.62233" lon="6.61214">
        <ele>2147</ele>
        <time>2022-07-26T14:56:56Z</time>
      </trkpt>
      <trkpt lat="45.62233" lon="6.61213">
        <ele>2147</ele>
        <time>2022-07-26T14:56:57Z</time>
      </trkpt>
      <trkpt lat="45.62232" lon="6.61212">
        <ele>2147</ele>
        <time>2022-07-26T14:56:58Z</time>
      </trkpt>
      <trkpt lat="45.62231" lon="6.61211">
        <ele>2146</ele>
        <time>2022-07-26T14:56:59Z</time>
      </trkpt>
      <trkpt lat="45.6223" lon="6.6121">
        <ele>2146</ele>
        <time>2022-07-26T14:57:00Z</time>
      </trkpt>
      <trkpt lat="45.6223" lon="6.61208">
        <ele>2146</ele>
        <time>2022-07-26T14:57:01Z</time>
      </trkpt>
      <trkpt lat="45.62229" lon="6.61207">
        <ele>2146</ele>
        <time>2022-07-26T14:57:02Z</time>
      </trkpt>
      <trkpt lat="45.62228" lon="6.61206">
        <ele>2146</ele>
        <time>2022-07-26T14:57:03Z</time>
      </trkpt>
      <trkpt lat="45.62227" lon="6.61205">
        <ele>2145</ele>
        <time>2022-07-26T14:57:04Z</time>
      </trkpt>
      <trkpt lat="45.62227" lon="6.61204">
        <ele>2145</ele>
        <time>2022-07-26T14:57:05Z</time>
      </trkpt>
      <trkpt lat="45.62226" lon="6.61202">
        <ele>2145</ele>
        <time>2022-07-26T14:57:06Z</time>
      </trkpt>
      <trkpt lat="45.62225" lon="6.61201">
        <ele>2145</ele>
        <time>2022-07-26T14:57:07Z</time>
      </trkpt>
      <trkpt lat="45.62224" lon="6.612">
        <ele>2145</ele>
        <time>2022-07-26T14:57:08Z</time>
      </trkpt>
      <trkpt lat="45.62224" lon="6.61199">
        <ele>2144</ele>
        <time>2022-07-26T14:57:09Z</time>
      </trkpt>
      <trkpt lat="45.62223" lon="6.61198">
        <ele>2144</ele>
        <time>2022-07-26T14:57:10Z</time>
      </trkpt>
      <trkpt lat="45.62222" lon="6.61197">
        <ele>2144</ele>
        <time>2022-07-26T14:57:11Z</time>
      </trkpt>
      <trkpt lat="45.62221" lon="6.61195">
        <ele>2144</ele>
        <time>2022-07-26T14:57:12Z</time>
      </trkpt>
      <trkpt lat="45.6222" lon="6.61194">
        <ele>2144</ele>
        <time>2022-07-26T14:57:13Z</time>
      </trkpt>
      <trkpt lat="45.6222" lon="6.61193">
        <ele>2143</ele>
        <time>2022-07-26T14:57:14Z</time>
      </trkpt>
      <trkpt lat="45.62219" lon="6.61192">
        <ele>2143</ele>
        <time>2022-07-26T14:57:15Z</time>
      </trkpt>
      <trkpt lat="45.62218" lon="6.61191">
        <ele>2143</ele>
        <time>2022-07-26T14:57:16Z</time>
      </trkpt>
      <trkpt lat="45.62217" lon="6.61189">
        <ele>2143</ele>
        <time>2022-07-26T14:57:17Z</time>
      </trkpt>
      <trkpt lat="45.62217" lon="6.61188">
        <ele>2143</ele>
        <time>2022-07-26T14:57:18Z</time>
      </trkpt>
      <trkpt lat="45.62216" lon="6.61187">
        <ele>2142</ele>
        <time>2022-07-26T14:57:19Z</time>
      </trkpt>
      <trkpt lat="45.62215" lon="6.61186">
        <ele>2142</ele>
        <time>2022-07-26T14:57:20Z</time>
      </trkpt>
      <trkpt lat="45.62215" lon="6.61184">
        <ele>2142</ele>
        <time>2022-07-26T14:57:21Z</time>
      </trkpt>
      <trkpt lat="45.62214" lon="6.61183">
        <ele>2142</ele>
        <time>2022-07-26T14:57:22Z</time>
      </trkpt>
      <trkpt lat="45.62213" lon="6.61182">
        <ele>2142</ele>
        <time>2022-07-26T14:57:23Z</time>
      </trkpt>
      <trkpt lat="45.62213" lon="6.61181">
        <ele>2141</ele>
        <time>2022-07-26T14:57:24Z</time>
      </trkpt>
      <trkpt lat="45.62212" lon="6.61179">
        <ele>2141</ele>
        <time>2022-07-26T14:57:25Z</time>
      </trkpt>
      <trkpt lat="45.62211" lon="6.61179">
        <ele>2141</ele>
        <time>2022-07-26T14:57:26Z</time>
      </trkpt>
      <trkpt lat="45.6221" lon="6.61178">
        <ele>2141</ele>
        <time>2022-07-26T14:57:27Z</time>
      </trkpt>
      <trkpt lat="45.62209" lon="6.61178">
        <ele>2141</ele>
        <time>2022-07-26T14:57:28Z</time>
      </trkpt>
      <trkpt lat="45.62208" lon="6.61178">
        <ele>2141</ele>
        <time>2022-07-26T14:57:29Z</time>
      </trkpt>
      <trkpt lat="45.62207" lon="6.61178">
        <ele>2141</ele>
        <time>2022-07-26T14:57:30Z</time>
      </trkpt>
      <trkpt lat="45.62205" lon="6.61179">
        <ele>2141</ele>
        <time>2022-07-26T14:57:31Z</time>
      </trkpt>
      <trkpt lat="45.62205" lon="6.6118">
        <ele>2141</ele>
        <time>2022-07-26T14:57:32Z</time>
      </trkpt>
      <trkpt lat="45.62204" lon="6.61182">
        <ele>2141</ele>
        <time>2022-07-26T14:57:33Z</time>
      </trkpt>
      <trkpt lat="45.62204" lon="6.61183">
        <ele>2140</ele>
        <time>2022-07-26T14:57:34Z</time>
      </trkpt>
      <trkpt lat="45.62204" lon="6.61185">
        <ele>2140</ele>
        <time>2022-07-26T14:57:35Z</time>
      </trkpt>
      <trkpt lat="45.62204" lon="6.61187">
        <ele>2140</ele>
        <time>2022-07-26T14:57:36Z</time>
      </trkpt>
      <trkpt lat="45.62204" lon="6.61189">
        <ele>2140</ele>
        <time>2022-07-26T14:57:37Z</time>
      </trkpt>
      <trkpt lat="45.62205" lon="6.6119">
        <ele>2140</ele>
        <time>2022-07-26T14:57:38Z</time>
      </trkpt>
      <trkpt lat="45.62206" lon="6.61192">
        <ele>2139</ele>
        <time>2022-07-26T14:57:39Z</time>
      </trkpt>
      <trkpt lat="45.62207" lon="6.61193">
        <ele>2139</ele>
        <time>2022-07-26T14:57:40Z</time>
      </trkpt>
      <trkpt lat="45.62208" lon="6.61195">
        <ele>2139</ele>
        <time>2022-07-26T14:57:41Z</time>
      </trkpt>
      <trkpt lat="45.62209" lon="6.61196">
        <ele>2139</ele>
        <time>2022-07-26T14:57:42Z</time>
      </trkpt>
      <trkpt lat="45.6221" lon="6.61197">
        <ele>2139</ele>
        <time>2022-07-26T14:57:43Z</time>
      </trkpt>
      <trkpt lat="45.6221" lon="6.61199">
        <ele>2138</ele>
        <time>2022-07-26T14:57:44Z</time>
      </trkpt>
      <trkpt lat="45.62211" lon="6.612">
        <ele>2138</ele>
        <time>2022-07-26T14:57:45Z</time>
      </trkpt>
      <trkpt lat="45.62212" lon="6.61201">
        <ele>2138</ele>
        <time>2022-07-26T14:57:46Z</time>
      </trkpt>
      <trkpt lat="45.62213" lon="6.61203">
        <ele>2138</ele>
        <time>2022-07-26T14:57:47Z</time>
      </trkpt>
      <trkpt lat="45.62214" lon="6.61204">
        <ele>2138</ele>
        <time>2022-07-26T14:57:48Z</time>
      </trkpt>
      <trkpt lat="45.62215" lon="6.61205">
        <ele>2137</ele>
        <time>2022-07-26T14:57:49Z</time>
      </trkpt>
      <trkpt lat="45.62216" lon="6.61206">
        <ele>2137</ele>
        <time>2022-07-26T14:57:50Z</time>
      </trkpt>
      <trkpt lat="45.62217" lon="6.61207">
        <ele>2137</ele>
        <time>2022-07-26T14:57:51Z</time>
      </trkpt>
      <trkpt lat="45.62217" lon="6.61209">
        <ele>2137</ele>
        <time>2022-07-26T14:57:52Z</time>
      </trkpt>
      <trkpt lat="45.62218" lon="6.6121">
        <ele>2137</ele>
        <time>2022-07-26T14:57:53Z</time>
      </trkpt>
      <trkpt lat="45.62218" lon="6.61212">
        <ele>2137</ele>
        <time>2022-07-26T14:57:54Z</time>
      </trkpt>
      <trkpt lat="45.62219" lon="6.61213">
        <ele>2137</ele>
        <time>2022-07-26T14:57:55Z</time>
      </trkpt>
      <trkpt lat="45.62219" lon="6.61215">
        <ele>2137</ele>
        <time>2022-07-26T14:57:56Z</time>
      </trkpt>
      <trkpt lat="45.6222" lon="6.61216">
        <ele>2137</ele>
        <time>2022-07-26T14:57:57Z</time>
      </trkpt>
      <trkpt lat="45.6222" lon="6.61218">
        <ele>2137</ele>
        <time>2022-07-26T14:57:58Z</time>
      </trkpt>
      <trkpt lat="45.62221" lon="6.61219">
        <ele>2136</ele>
        <time>2022-07-26T14:57:59Z</time>
      </trkpt>
      <trkpt lat="45.62221" lon="6.61221">
        <ele>2136</ele>
        <time>2022-07-26T14:58:00Z</time>
      </trkpt>
      <trkpt lat="45.62222" lon="6.61222">
        <ele>2136</ele>
        <time>2022-07-26T14:58:01Z</time>
      </trkpt>
      <trkpt lat="45.62222" lon="6.61224">
        <ele>2136</ele>
        <time>2022-07-26T14:58:02Z</time>
      </trkpt>
      <trkpt lat="45.62222" lon="6.61226">
        <ele>2136</ele>
        <time>2022-07-26T14:58:03Z</time>
      </trkpt>
      <trkpt lat="45.62223" lon="6.61227">
        <ele>2136</ele>
        <time>2022-07-26T14:58:04Z</time>
      </trkpt>
      <trkpt lat="45.62223" lon="6.61229">
        <ele>2136</ele>
        <time>2022-07-26T14:58:05Z</time>
      </trkpt>
      <trkpt lat="45.62223" lon="6.61231">
        <ele>2136</ele>
        <time>2022-07-26T14:58:06Z</time>
      </trkpt>
      <trkpt lat="45.62223" lon="6.61232">
        <ele>2136</ele>
        <time>2022-07-26T14:58:07Z</time>
      </trkpt>
      <trkpt lat="45.62223" lon="6.61234">
        <ele>2136</ele>
        <time>2022-07-26T14:58:08Z</time>
      </trkpt>
      <trkpt lat="45.62224" lon="6.61236">
        <ele>2136</ele>
        <time>2022-07-26T14:58:09Z</time>
      </trkpt>
      <trkpt lat="45.62224" lon="6.61237">
        <ele>2136</ele>
        <time>2022-07-26T14:58:10Z</time>
      </trkpt>
      <trkpt lat="45.62224" lon="6.61239">
        <ele>2136</ele>
        <time>2022-07-26T14:58:11Z</time>
      </trkpt>
      <trkpt lat="45.62224" lon="6.61241">
        <ele>2136</ele>
        <time>2022-07-26T14:58:12Z</time>
      </trkpt>
      <trkpt lat="45.62225" lon="6.61243">
        <ele>2136</ele>
        <time>2022-07-26T14:58:13Z</time>
      </trkpt>
      <trkpt lat="45.62225" lon="6.61244">
        <ele>2136</ele>
        <time>2022-07-26T14:58:14Z</time>
      </trkpt>
      <trkpt lat="45.62225" lon="6.61246">
        <ele>2136</ele>
        <time>2022-07-26T14:58:15Z</time>
      </trkpt>
      <trkpt lat="45.62226" lon="6.61248">
        <ele>2136</ele>
        <time>2022-07-26T14:58:16Z</time>
      </trkpt>
      <trkpt lat="45.62226" lon="6.6125">
        <ele>2136</ele>
        <time>2022-07-26T14:58:17Z</time>
      </trkpt>
      <trkpt lat="45.62226" lon="6.61251">
        <ele>2136</ele>
        <time>2022-07-26T14:58:18Z</time>
      </trkpt>
      <trkpt lat="45.62227" lon="6.61253">
        <ele>2136</ele>
        <time>2022-07-26T14:58:19Z</time>
      </trkpt>
      <trkpt lat="45.62227" lon="6.61254">
        <ele>2136</ele>
        <time>2022-07-26T14:58:20Z</time>
      </trkpt>
      <trkpt lat="45.62228" lon="6.61256">
        <ele>2136</ele>
        <time>2022-07-26T14:58:21Z</time>
      </trkpt>
      <trkpt lat="45.62229" lon="6.61257">
        <ele>2136</ele>
        <time>2022-07-26T14:58:22Z</time>
      </trkpt>
      <trkpt lat="45.62229" lon="6.61258">
        <ele>2136</ele>
        <time>2022-07-26T14:58:23Z</time>
      </trkpt>
      <trkpt lat="45.6223" lon="6.6126">
        <ele>2136</ele>
        <time>2022-07-26T14:58:24Z</time>
      </trkpt>
      <trkpt lat="45.6223" lon="6.61261">
        <ele>2136</ele>
        <time>2022-07-26T14:58:25Z</time>
      </trkpt>
      <trkpt lat="45.62231" lon="6.61263">
        <ele>2136</ele>
        <time>2022-07-26T14:58:26Z</time>
      </trkpt>
      <trkpt lat="45.62232" lon="6.61264">
        <ele>2136</ele>
        <time>2022-07-26T14:58:27Z</time>
      </trkpt>
      <trkpt lat="45.62232" lon="6.61265">
        <ele>2136</ele>
        <time>2022-07-26T14:58:28Z</time>
      </trkpt>
      <trkpt lat="45.62233" lon="6.61267">
        <ele>2135</ele>
        <time>2022-07-26T14:58:29Z</time>
      </trkpt>
      <trkpt lat="45.62233" lon="6.61268">
        <ele>2135</ele>
        <time>2022-07-26T14:58:30Z</time>
      </trkpt>
      <trkpt lat="45.62234" lon="6.6127">
        <ele>2135</ele>
        <time>2022-07-26T14:58:31Z</time>
      </trkpt>
      <trkpt lat="45.62234" lon="6.61272">
        <ele>2135</ele>
        <time>2022-07-26T14:58:32Z</time>
      </trkpt>
      <trkpt lat="45.62234" lon="6.61273">
        <ele>2135</ele>
        <time>2022-07-26T14:58:33Z</time>
      </trkpt>
      <trkpt lat="45.62234" lon="6.61275">
        <ele>2135</ele>
        <time>2022-07-26T14:58:34Z</time>
      </trkpt>
      <trkpt lat="45.62234" lon="6.61277">
        <ele>2135</ele>
        <time>2022-07-26T14:58:35Z</time>
      </trkpt>
      <trkpt lat="45.62234" lon="6.61278">
        <ele>2135</ele>
        <time>2022-07-26T14:58:36Z</time>
      </trkpt>
      <trkpt lat="45.62234" lon="6.6128">
        <ele>2135</ele>
        <time>2022-07-26T14:58:37Z</time>
      </trkpt>
      <trkpt lat="45.62233" lon="6.61282">
        <ele>2135</ele>
        <time>2022-07-26T14:58:38Z</time>
      </trkpt>
      <trkpt lat="45.62233" lon="6.61283">
        <ele>2134</ele>
        <time>2022-07-26T14:58:39Z</time>
      </trkpt>
      <trkpt lat="45.62233" lon="6.61285">
        <ele>2134</ele>
        <time>2022-07-26T14:58:40Z</time>
      </trkpt>
      <trkpt lat="45.62233" lon="6.61287">
        <ele>2134</ele>
        <time>2022-07-26T14:58:41Z</time>
      </trkpt>
      <trkpt lat="45.62233" lon="6.61288">
        <ele>2134</ele>
        <time>2022-07-26T14:58:42Z</time>
      </trkpt>
      <trkpt lat="45.62233" lon="6.6129">
        <ele>2134</ele>
        <time>2022-07-26T14:58:43Z</time>
      </trkpt>
      <trkpt lat="45.62233" lon="6.61292">
        <ele>2134</ele>
        <time>2022-07-26T14:58:44Z</time>
      </trkpt>
      <trkpt lat="45.62233" lon="6.61294">
        <ele>2134</ele>
        <time>2022-07-26T14:58:45Z</time>
      </trkpt>
      <trkpt lat="45.62233" lon="6.61295">
        <ele>2134</ele>
        <time>2022-07-26T14:58:46Z</time>
      </trkpt>
      <trkpt lat="45.62233" lon="6.61297">
        <ele>2134</ele>
        <time>2022-07-26T14:58:47Z</time>
      </trkpt>
      <trkpt lat="45.62233" lon="6.61298">
        <ele>2134</ele>
        <time>2022-07-26T14:58:48Z</time>
      </trkpt>
      <trkpt lat="45.62233" lon="6.613">
        <ele>2134</ele>
        <time>2022-07-26T14:58:49Z</time>
      </trkpt>
      <trkpt lat="45.62233" lon="6.61301">
        <ele>2134</ele>
        <time>2022-07-26T14:58:50Z</time>
      </trkpt>
      <trkpt lat="45.62233" lon="6.61303">
        <ele>2134</ele>
        <time>2022-07-26T14:58:51Z</time>
      </trkpt>
      <trkpt lat="45.62233" lon="6.61304">
        <ele>2134</ele>
        <time>2022-07-26T14:58:52Z</time>
      </trkpt>
      <trkpt lat="45.62233" lon="6.61306">
        <ele>2134</ele>
        <time>2022-07-26T14:58:53Z</time>
      </trkpt>
      <trkpt lat="45.62232" lon="6.61307">
        <ele>2133</ele>
        <time>2022-07-26T14:58:54Z</time>
      </trkpt>
      <trkpt lat="45.62232" lon="6.61309">
        <ele>2133</ele>
        <time>2022-07-26T14:58:55Z</time>
      </trkpt>
      <trkpt lat="45.62232" lon="6.6131">
        <ele>2133</ele>
        <time>2022-07-26T14:58:56Z</time>
      </trkpt>
      <trkpt lat="45.62231" lon="6.61311">
        <ele>2133</ele>
        <time>2022-07-26T14:58:57Z</time>
      </trkpt>
      <trkpt lat="45.62231" lon="6.61311">
        <ele>2133</ele>
        <time>2022-07-26T14:58:58Z</time>
      </trkpt>
      <trkpt lat="45.6223" lon="6.61312">
        <ele>2133</ele>
        <time>2022-07-26T14:58:59Z</time>
      </trkpt>
      <trkpt lat="45.62229" lon="6.61312">
        <ele>2133</ele>
        <time>2022-07-26T14:59:00Z</time>
      </trkpt>
      <trkpt lat="45.62228" lon="6.61312">
        <ele>2133</ele>
        <time>2022-07-26T14:59:01Z</time>
      </trkpt>
      <trkpt lat="45.62228" lon="6.61313">
        <ele>2133</ele>
        <time>2022-07-26T14:59:02Z</time>
      </trkpt>
      <trkpt lat="45.62227" lon="6.61313">
        <ele>2133</ele>
        <time>2022-07-26T14:59:03Z</time>
      </trkpt>
      <trkpt lat="45.62227" lon="6.61313">
        <ele>2133</ele>
        <time>2022-07-26T14:59:04Z</time>
      </trkpt>
      <trkpt lat="45.62227" lon="6.61314">
        <ele>2133</ele>
        <time>2022-07-26T14:59:05Z</time>
      </trkpt>
      <trkpt lat="45.62227" lon="6.61314">
        <ele>2133</ele>
        <time>2022-07-26T14:59:06Z</time>
      </trkpt>
      <trkpt lat="45.62228" lon="6.61315">
        <ele>2133</ele>
        <time>2022-07-26T14:59:07Z</time>
      </trkpt>
      <trkpt lat="45.62228" lon="6.61316">
        <ele>2133</ele>
        <time>2022-07-26T14:59:08Z</time>
      </trkpt>
      <trkpt lat="45.62229" lon="6.61316">
        <ele>2132</ele>
        <time>2022-07-26T14:59:09Z</time>
      </trkpt>
      <trkpt lat="45.62229" lon="6.61317">
        <ele>2132</ele>
        <time>2022-07-26T14:59:10Z</time>
      </trkpt>
      <trkpt lat="45.6223" lon="6.61318">
        <ele>2132</ele>
        <time>2022-07-26T14:59:11Z</time>
      </trkpt>
      <trkpt lat="45.62231" lon="6.61319">
        <ele>2132</ele>
        <time>2022-07-26T14:59:12Z</time>
      </trkpt>
      <trkpt lat="45.62231" lon="6.61319">
        <ele>2132</ele>
        <time>2022-07-26T14:59:37Z</time>
      </trkpt>
      <trkpt lat="45.62231" lon="6.61319">
        <ele>2133</ele>
        <time>2022-07-26T14:59:38Z</time>
      </trkpt>
      <trkpt lat="45.62231" lon="6.61319">
        <ele>2133</ele>
        <time>2022-07-26T14:59:39Z</time>
      </trkpt>
      <trkpt lat="45.62231" lon="6.61318">
        <ele>2133</ele>
        <time>2022-07-26T14:59:40Z</time>
      </trkpt>
      <trkpt lat="45.62231" lon="6.61318">
        <ele>2133</ele>
        <time>2022-07-26T14:59:41Z</time>
      </trkpt>
      <trkpt lat="45.62231" lon="6.61317">
        <ele>2133</ele>
        <time>2022-07-26T14:59:42Z</time>
      </trkpt>
      <trkpt lat="45.62231" lon="6.61316">
        <ele>2133</ele>
        <time>2022-07-26T14:59:43Z</time>
      </trkpt>
      <trkpt lat="45.6223" lon="6.61315">
        <ele>2133</ele>
        <time>2022-07-26T14:59:44Z</time>
      </trkpt>
      <trkpt lat="45.6223" lon="6.61315">
        <ele>2133</ele>
        <time>2022-07-26T14:59:45Z</time>
      </trkpt>
      <trkpt lat="45.62229" lon="6.61314">
        <ele>2133</ele>
        <time>2022-07-26T14:59:46Z</time>
      </trkpt>
      <trkpt lat="45.62228" lon="6.61314">
        <ele>2133</ele>
        <time>2022-07-26T14:59:47Z</time>
      </trkpt>
      <trkpt lat="45.62227" lon="6.61313">
        <ele>2133</ele>
        <time>2022-07-26T14:59:48Z</time>
      </trkpt>
      <trkpt lat="45.62226" lon="6.61313">
        <ele>2133</ele>
        <time>2022-07-26T14:59:49Z</time>
      </trkpt>
      <trkpt lat="45.62225" lon="6.61312">
        <ele>2133</ele>
        <time>2022-07-26T14:59:50Z</time>
      </trkpt>
      <trkpt lat="45.62224" lon="6.61311">
        <ele>2133</ele>
        <time>2022-07-26T14:59:51Z</time>
      </trkpt>
      <trkpt lat="45.62223" lon="6.6131">
        <ele>2133</ele>
        <time>2022-07-26T14:59:52Z</time>
      </trkpt>
      <trkpt lat="45.62223" lon="6.61308">
        <ele>2133</ele>
        <time>2022-07-26T14:59:53Z</time>
      </trkpt>
      <trkpt lat="45.62223" lon="6.61307">
        <ele>2132</ele>
        <time>2022-07-26T14:59:54Z</time>
      </trkpt>
      <trkpt lat="45.62223" lon="6.61305">
        <ele>2132</ele>
        <time>2022-07-26T14:59:55Z</time>
      </trkpt>
      <trkpt lat="45.62223" lon="6.61303">
        <ele>2132</ele>
        <time>2022-07-26T14:59:56Z</time>
      </trkpt>
      <trkpt lat="45.62223" lon="6.61301">
        <ele>2132</ele>
        <time>2022-07-26T14:59:57Z</time>
      </trkpt>
      <trkpt lat="45.62224" lon="6.613">
        <ele>2132</ele>
        <time>2022-07-26T14:59:58Z</time>
      </trkpt>
      <trkpt lat="45.62224" lon="6.61298">
        <ele>2132</ele>
        <time>2022-07-26T14:59:59Z</time>
      </trkpt>
      <trkpt lat="45.62224" lon="6.61297">
        <ele>2132</ele>
        <time>2022-07-26T15:00:00Z</time>
      </trkpt>
      <trkpt lat="45.62224" lon="6.61295">
        <ele>2132</ele>
        <time>2022-07-26T15:00:01Z</time>
      </trkpt>
      <trkpt lat="45.62224" lon="6.61294">
        <ele>2132</ele>
        <time>2022-07-26T15:00:02Z</time>
      </trkpt>
      <trkpt lat="45.62224" lon="6.61292">
        <ele>2132</ele>
        <time>2022-07-26T15:00:03Z</time>
      </trkpt>
      <trkpt lat="45.62224" lon="6.61291">
        <ele>2131</ele>
        <time>2022-07-26T15:00:04Z</time>
      </trkpt>
      <trkpt lat="45.62223" lon="6.61289">
        <ele>2131</ele>
        <time>2022-07-26T15:00:05Z</time>
      </trkpt>
      <trkpt lat="45.62223" lon="6.61288">
        <ele>2131</ele>
        <time>2022-07-26T15:00:06Z</time>
      </trkpt>
      <trkpt lat="45.62223" lon="6.61286">
        <ele>2131</ele>
        <time>2022-07-26T15:00:07Z</time>
      </trkpt>
      <trkpt lat="45.62222" lon="6.61285">
        <ele>2131</ele>
        <time>2022-07-26T15:00:08Z</time>
      </trkpt>
      <trkpt lat="45.62222" lon="6.61283">
        <ele>2131</ele>
        <time>2022-07-26T15:00:09Z</time>
      </trkpt>
      <trkpt lat="45.62221" lon="6.61282">
        <ele>2131</ele>
        <time>2022-07-26T15:00:10Z</time>
      </trkpt>
      <trkpt lat="45.62221" lon="6.6128">
        <ele>2131</ele>
        <time>2022-07-26T15:00:11Z</time>
      </trkpt>
      <trkpt lat="45.6222" lon="6.61279">
        <ele>2131</ele>
        <time>2022-07-26T15:00:12Z</time>
      </trkpt>
      <trkpt lat="45.6222" lon="6.61277">
        <ele>2131</ele>
        <time>2022-07-26T15:00:13Z</time>
      </trkpt>
      <trkpt lat="45.62219" lon="6.61276">
        <ele>2130</ele>
        <time>2022-07-26T15:00:14Z</time>
      </trkpt>
      <trkpt lat="45.62218" lon="6.61275">
        <ele>2130</ele>
        <time>2022-07-26T15:00:15Z</time>
      </trkpt>
      <trkpt lat="45.62218" lon="6.61274">
        <ele>2130</ele>
        <time>2022-07-26T15:00:16Z</time>
      </trkpt>
      <trkpt lat="45.62217" lon="6.61273">
        <ele>2130</ele>
        <time>2022-07-26T15:00:17Z</time>
      </trkpt>
      <trkpt lat="45.62216" lon="6.61272">
        <ele>2130</ele>
        <time>2022-07-26T15:00:18Z</time>
      </trkpt>
      <trkpt lat="45.62216" lon="6.61271">
        <ele>2129</ele>
        <time>2022-07-26T15:00:19Z</time>
      </trkpt>
      <trkpt lat="45.62215" lon="6.6127">
        <ele>2129</ele>
        <time>2022-07-26T15:00:20Z</time>
      </trkpt>
      <trkpt lat="45.62214" lon="6.61269">
        <ele>2129</ele>
        <time>2022-07-26T15:00:21Z</time>
      </trkpt>
      <trkpt lat="45.62213" lon="6.61269">
        <ele>2129</ele>
        <time>2022-07-26T15:00:22Z</time>
      </trkpt>
      <trkpt lat="45.62213" lon="6.61268">
        <ele>2129</ele>
        <time>2022-07-26T15:00:23Z</time>
      </trkpt>
      <trkpt lat="45.62212" lon="6.61267">
        <ele>2129</ele>
        <time>2022-07-26T15:00:24Z</time>
      </trkpt>
      <trkpt lat="45.62211" lon="6.61266">
        <ele>2129</ele>
        <time>2022-07-26T15:00:25Z</time>
      </trkpt>
      <trkpt lat="45.6221" lon="6.61265">
        <ele>2129</ele>
        <time>2022-07-26T15:00:26Z</time>
      </trkpt>
      <trkpt lat="45.62209" lon="6.61264">
        <ele>2129</ele>
        <time>2022-07-26T15:00:27Z</time>
      </trkpt>
      <trkpt lat="45.62209" lon="6.61263">
        <ele>2129</ele>
        <time>2022-07-26T15:00:28Z</time>
      </trkpt>
      <trkpt lat="45.62208" lon="6.61262">
        <ele>2128</ele>
        <time>2022-07-26T15:00:29Z</time>
      </trkpt>
      <trkpt lat="45.62207" lon="6.61261">
        <ele>2128</ele>
        <time>2022-07-26T15:00:30Z</time>
      </trkpt>
      <trkpt lat="45.62207" lon="6.6126">
        <ele>2128</ele>
        <time>2022-07-26T15:00:31Z</time>
      </trkpt>
      <trkpt lat="45.62206" lon="6.61259">
        <ele>2128</ele>
        <time>2022-07-26T15:00:32Z</time>
      </trkpt>
      <trkpt lat="45.62205" lon="6.61258">
        <ele>2128</ele>
        <time>2022-07-26T15:00:33Z</time>
      </trkpt>
      <trkpt lat="45.62205" lon="6.61257">
        <ele>2127</ele>
        <time>2022-07-26T15:00:34Z</time>
      </trkpt>
      <trkpt lat="45.62204" lon="6.61256">
        <ele>2127</ele>
        <time>2022-07-26T15:00:35Z</time>
      </trkpt>
      <trkpt lat="45.62203" lon="6.61255">
        <ele>2127</ele>
        <time>2022-07-26T15:00:36Z</time>
      </trkpt>
      <trkpt lat="45.62203" lon="6.61254">
        <ele>2127</ele>
        <time>2022-07-26T15:00:37Z</time>
      </trkpt>
      <trkpt lat="45.62202" lon="6.61253">
        <ele>2127</ele>
        <time>2022-07-26T15:00:38Z</time>
      </trkpt>
      <trkpt lat="45.62201" lon="6.61252">
        <ele>2127</ele>
        <time>2022-07-26T15:00:39Z</time>
      </trkpt>
      <trkpt lat="45.62201" lon="6.61251">
        <ele>2127</ele>
        <time>2022-07-26T15:00:40Z</time>
      </trkpt>
      <trkpt lat="45.622" lon="6.6125">
        <ele>2127</ele>
        <time>2022-07-26T15:00:41Z</time>
      </trkpt>
      <trkpt lat="45.62199" lon="6.61249">
        <ele>2127</ele>
        <time>2022-07-26T15:00:42Z</time>
      </trkpt>
      <trkpt lat="45.62199" lon="6.61248">
        <ele>2127</ele>
        <time>2022-07-26T15:00:43Z</time>
      </trkpt>
      <trkpt lat="45.62198" lon="6.61247">
        <ele>2126</ele>
        <time>2022-07-26T15:00:44Z</time>
      </trkpt>
      <trkpt lat="45.62197" lon="6.61246">
        <ele>2126</ele>
        <time>2022-07-26T15:00:45Z</time>
      </trkpt>
      <trkpt lat="45.62197" lon="6.61245">
        <ele>2126</ele>
        <time>2022-07-26T15:00:46Z</time>
      </trkpt>
      <trkpt lat="45.62196" lon="6.61244">
        <ele>2126</ele>
        <time>2022-07-26T15:00:47Z</time>
      </trkpt>
      <trkpt lat="45.62195" lon="6.61243">
        <ele>2126</ele>
        <time>2022-07-26T15:00:48Z</time>
      </trkpt>
      <trkpt lat="45.62195" lon="6.61242">
        <ele>2125</ele>
        <time>2022-07-26T15:00:49Z</time>
      </trkpt>
      <trkpt lat="45.62194" lon="6.61241">
        <ele>2125</ele>
        <time>2022-07-26T15:00:50Z</time>
      </trkpt>
      <trkpt lat="45.62193" lon="6.6124">
        <ele>2125</ele>
        <time>2022-07-26T15:00:51Z</time>
      </trkpt>
      <trkpt lat="45.62192" lon="6.61239">
        <ele>2125</ele>
        <time>2022-07-26T15:00:52Z</time>
      </trkpt>
      <trkpt lat="45.62191" lon="6.61237">
        <ele>2125</ele>
        <time>2022-07-26T15:00:53Z</time>
      </trkpt>
      <trkpt lat="45.62191" lon="6.61236">
        <ele>2124</ele>
        <time>2022-07-26T15:00:54Z</time>
      </trkpt>
      <trkpt lat="45.6219" lon="6.61235">
        <ele>2124</ele>
        <time>2022-07-26T15:00:55Z</time>
      </trkpt>
      <trkpt lat="45.62189" lon="6.61234">
        <ele>2124</ele>
        <time>2022-07-26T15:00:56Z</time>
      </trkpt>
      <trkpt lat="45.62188" lon="6.61233">
        <ele>2124</ele>
        <time>2022-07-26T15:00:57Z</time>
      </trkpt>
      <trkpt lat="45.62188" lon="6.61231">
        <ele>2124</ele>
        <time>2022-07-26T15:00:58Z</time>
      </trkpt>
      <trkpt lat="45.62187" lon="6.6123">
        <ele>2124</ele>
        <time>2022-07-26T15:00:59Z</time>
      </trkpt>
      <trkpt lat="45.62186" lon="6.61229">
        <ele>2124</ele>
        <time>2022-07-26T15:01:00Z</time>
      </trkpt>
      <trkpt lat="45.62185" lon="6.61228">
        <ele>2124</ele>
        <time>2022-07-26T15:01:01Z</time>
      </trkpt>
      <trkpt lat="45.62185" lon="6.61227">
        <ele>2124</ele>
        <time>2022-07-26T15:01:02Z</time>
      </trkpt>
      <trkpt lat="45.62184" lon="6.61226">
        <ele>2124</ele>
        <time>2022-07-26T15:01:03Z</time>
      </trkpt>
      <trkpt lat="45.62183" lon="6.61225">
        <ele>2123</ele>
        <time>2022-07-26T15:01:04Z</time>
      </trkpt>
      <trkpt lat="45.62182" lon="6.61224">
        <ele>2123</ele>
        <time>2022-07-26T15:01:05Z</time>
      </trkpt>
      <trkpt lat="45.62182" lon="6.61223">
        <ele>2123</ele>
        <time>2022-07-26T15:01:06Z</time>
      </trkpt>
      <trkpt lat="45.62181" lon="6.61221">
        <ele>2123</ele>
        <time>2022-07-26T15:01:07Z</time>
      </trkpt>
      <trkpt lat="45.6218" lon="6.6122">
        <ele>2123</ele>
        <time>2022-07-26T15:01:08Z</time>
      </trkpt>
      <trkpt lat="45.6218" lon="6.61219">
        <ele>2122</ele>
        <time>2022-07-26T15:01:09Z</time>
      </trkpt>
      <trkpt lat="45.62179" lon="6.61218">
        <ele>2122</ele>
        <time>2022-07-26T15:01:10Z</time>
      </trkpt>
      <trkpt lat="45.62178" lon="6.61217">
        <ele>2122</ele>
        <time>2022-07-26T15:01:11Z</time>
      </trkpt>
      <trkpt lat="45.62178" lon="6.61216">
        <ele>2122</ele>
        <time>2022-07-26T15:01:12Z</time>
      </trkpt>
      <trkpt lat="45.62177" lon="6.61214">
        <ele>2122</ele>
        <time>2022-07-26T15:01:13Z</time>
      </trkpt>
      <trkpt lat="45.62176" lon="6.61213">
        <ele>2121</ele>
        <time>2022-07-26T15:01:14Z</time>
      </trkpt>
      <trkpt lat="45.62176" lon="6.61212">
        <ele>2121</ele>
        <time>2022-07-26T15:01:15Z</time>
      </trkpt>
      <trkpt lat="45.62175" lon="6.61211">
        <ele>2120</ele>
        <time>2022-07-26T15:01:16Z</time>
      </trkpt>
      <trkpt lat="45.62174" lon="6.6121">
        <ele>2120</ele>
        <time>2022-07-26T15:01:17Z</time>
      </trkpt>
      <trkpt lat="45.62174" lon="6.61209">
        <ele>2120</ele>
        <time>2022-07-26T15:01:18Z</time>
      </trkpt>
      <trkpt lat="45.62173" lon="6.61208">
        <ele>2119</ele>
        <time>2022-07-26T15:01:19Z</time>
      </trkpt>
      <trkpt lat="45.62172" lon="6.61207">
        <ele>2119</ele>
        <time>2022-07-26T15:01:20Z</time>
      </trkpt>
      <trkpt lat="45.62172" lon="6.61205">
        <ele>2119</ele>
        <time>2022-07-26T15:01:21Z</time>
      </trkpt>
      <trkpt lat="45.62171" lon="6.61204">
        <ele>2119</ele>
        <time>2022-07-26T15:01:22Z</time>
      </trkpt>
      <trkpt lat="45.62171" lon="6.61203">
        <ele>2119</ele>
        <time>2022-07-26T15:01:23Z</time>
      </trkpt>
      <trkpt lat="45.6217" lon="6.61201">
        <ele>2118</ele>
        <time>2022-07-26T15:01:24Z</time>
      </trkpt>
      <trkpt lat="45.6217" lon="6.612">
        <ele>2118</ele>
        <time>2022-07-26T15:01:25Z</time>
      </trkpt>
      <trkpt lat="45.62169" lon="6.61198">
        <ele>2118</ele>
        <time>2022-07-26T15:01:26Z</time>
      </trkpt>
      <trkpt lat="45.62169" lon="6.61197">
        <ele>2118</ele>
        <time>2022-07-26T15:01:27Z</time>
      </trkpt>
      <trkpt lat="45.62168" lon="6.61195">
        <ele>2118</ele>
        <time>2022-07-26T15:01:28Z</time>
      </trkpt>
      <trkpt lat="45.62168" lon="6.61194">
        <ele>2118</ele>
        <time>2022-07-26T15:01:29Z</time>
      </trkpt>
      <trkpt lat="45.62168" lon="6.61192">
        <ele>2118</ele>
        <time>2022-07-26T15:01:30Z</time>
      </trkpt>
      <trkpt lat="45.62167" lon="6.61191">
        <ele>2118</ele>
        <time>2022-07-26T15:01:31Z</time>
      </trkpt>
      <trkpt lat="45.62167" lon="6.61189">
        <ele>2118</ele>
        <time>2022-07-26T15:01:32Z</time>
      </trkpt>
      <trkpt lat="45.62166" lon="6.61188">
        <ele>2118</ele>
        <time>2022-07-26T15:01:33Z</time>
      </trkpt>
      <trkpt lat="45.62166" lon="6.61187">
        <ele>2117</ele>
        <time>2022-07-26T15:01:34Z</time>
      </trkpt>
      <trkpt lat="45.62165" lon="6.61185">
        <ele>2117</ele>
        <time>2022-07-26T15:01:35Z</time>
      </trkpt>
      <trkpt lat="45.62165" lon="6.61184">
        <ele>2117</ele>
        <time>2022-07-26T15:01:36Z</time>
      </trkpt>
      <trkpt lat="45.62164" lon="6.61183">
        <ele>2117</ele>
        <time>2022-07-26T15:01:37Z</time>
      </trkpt>
      <trkpt lat="45.62163" lon="6.61181">
        <ele>2117</ele>
        <time>2022-07-26T15:01:38Z</time>
      </trkpt>
      <trkpt lat="45.62163" lon="6.6118">
        <ele>2116</ele>
        <time>2022-07-26T15:01:39Z</time>
      </trkpt>
      <trkpt lat="45.62162" lon="6.61179">
        <ele>2116</ele>
        <time>2022-07-26T15:01:40Z</time>
      </trkpt>
      <trkpt lat="45.62162" lon="6.61178">
        <ele>2116</ele>
        <time>2022-07-26T15:01:41Z</time>
      </trkpt>
      <trkpt lat="45.62161" lon="6.61177">
        <ele>2116</ele>
        <time>2022-07-26T15:01:42Z</time>
      </trkpt>
      <trkpt lat="45.6216" lon="6.61176">
        <ele>2116</ele>
        <time>2022-07-26T15:01:43Z</time>
      </trkpt>
      <trkpt lat="45.62159" lon="6.61175">
        <ele>2115</ele>
        <time>2022-07-26T15:01:44Z</time>
      </trkpt>
      <trkpt lat="45.62159" lon="6.61174">
        <ele>2115</ele>
        <time>2022-07-26T15:01:45Z</time>
      </trkpt>
      <trkpt lat="45.62158" lon="6.61174">
        <ele>2115</ele>
        <time>2022-07-26T15:01:46Z</time>
      </trkpt>
      <trkpt lat="45.62157" lon="6.61173">
        <ele>2115</ele>
        <time>2022-07-26T15:01:47Z</time>
      </trkpt>
      <trkpt lat="45.62156" lon="6.61172">
        <ele>2115</ele>
        <time>2022-07-26T15:01:48Z</time>
      </trkpt>
      <trkpt lat="45.62156" lon="6.6117">
        <ele>2114</ele>
        <time>2022-07-26T15:01:49Z</time>
      </trkpt>
      <trkpt lat="45.62155" lon="6.61169">
        <ele>2114</ele>
        <time>2022-07-26T15:01:50Z</time>
      </trkpt>
      <trkpt lat="45.62154" lon="6.61168">
        <ele>2114</ele>
        <time>2022-07-26T15:01:51Z</time>
      </trkpt>
      <trkpt lat="45.62153" lon="6.61167">
        <ele>2114</ele>
        <time>2022-07-26T15:01:52Z</time>
      </trkpt>
      <trkpt lat="45.62152" lon="6.61166">
        <ele>2114</ele>
        <time>2022-07-26T15:01:53Z</time>
      </trkpt>
      <trkpt lat="45.62152" lon="6.61165">
        <ele>2114</ele>
        <time>2022-07-26T15:01:54Z</time>
      </trkpt>
      <trkpt lat="45.62151" lon="6.61164">
        <ele>2114</ele>
        <time>2022-07-26T15:01:55Z</time>
      </trkpt>
      <trkpt lat="45.6215" lon="6.61163">
        <ele>2114</ele>
        <time>2022-07-26T15:01:56Z</time>
      </trkpt>
      <trkpt lat="45.62149" lon="6.61162">
        <ele>2114</ele>
        <time>2022-07-26T15:01:57Z</time>
      </trkpt>
      <trkpt lat="45.62149" lon="6.61161">
        <ele>2114</ele>
        <time>2022-07-26T15:01:58Z</time>
      </trkpt>
      <trkpt lat="45.62148" lon="6.6116">
        <ele>2113</ele>
        <time>2022-07-26T15:01:59Z</time>
      </trkpt>
      <trkpt lat="45.62147" lon="6.61159">
        <ele>2113</ele>
        <time>2022-07-26T15:02:00Z</time>
      </trkpt>
      <trkpt lat="45.62147" lon="6.61158">
        <ele>2113</ele>
        <time>2022-07-26T15:02:01Z</time>
      </trkpt>
      <trkpt lat="45.62146" lon="6.61157">
        <ele>2113</ele>
        <time>2022-07-26T15:02:02Z</time>
      </trkpt>
      <trkpt lat="45.62145" lon="6.61156">
        <ele>2113</ele>
        <time>2022-07-26T15:02:03Z</time>
      </trkpt>
      <trkpt lat="45.62145" lon="6.61155">
        <ele>2112</ele>
        <time>2022-07-26T15:02:04Z</time>
      </trkpt>
      <trkpt lat="45.62144" lon="6.61154">
        <ele>2112</ele>
        <time>2022-07-26T15:02:05Z</time>
      </trkpt>
      <trkpt lat="45.62143" lon="6.61153">
        <ele>2112</ele>
        <time>2022-07-26T15:02:06Z</time>
      </trkpt>
      <trkpt lat="45.62142" lon="6.61152">
        <ele>2112</ele>
        <time>2022-07-26T15:02:07Z</time>
      </trkpt>
      <trkpt lat="45.62141" lon="6.61151">
        <ele>2112</ele>
        <time>2022-07-26T15:02:08Z</time>
      </trkpt>
      <trkpt lat="45.6214" lon="6.6115">
        <ele>2112</ele>
        <time>2022-07-26T15:02:09Z</time>
      </trkpt>
      <trkpt lat="45.62139" lon="6.61149">
        <ele>2112</ele>
        <time>2022-07-26T15:02:10Z</time>
      </trkpt>
      <trkpt lat="45.62138" lon="6.61148">
        <ele>2112</ele>
        <time>2022-07-26T15:02:11Z</time>
      </trkpt>
      <trkpt lat="45.62137" lon="6.61148">
        <ele>2112</ele>
        <time>2022-07-26T15:02:12Z</time>
      </trkpt>
      <trkpt lat="45.62136" lon="6.61147">
        <ele>2112</ele>
        <time>2022-07-26T15:02:13Z</time>
      </trkpt>
      <trkpt lat="45.62135" lon="6.61146">
        <ele>2111</ele>
        <time>2022-07-26T15:02:14Z</time>
      </trkpt>
      <trkpt lat="45.62134" lon="6.61146">
        <ele>2111</ele>
        <time>2022-07-26T15:02:15Z</time>
      </trkpt>
      <trkpt lat="45.62133" lon="6.61145">
        <ele>2111</ele>
        <time>2022-07-26T15:02:16Z</time>
      </trkpt>
      <trkpt lat="45.62132" lon="6.61144">
        <ele>2111</ele>
        <time>2022-07-26T15:02:17Z</time>
      </trkpt>
      <trkpt lat="45.62131" lon="6.61144">
        <ele>2111</ele>
        <time>2022-07-26T15:02:18Z</time>
      </trkpt>
      <trkpt lat="45.6213" lon="6.61143">
        <ele>2110</ele>
        <time>2022-07-26T15:02:19Z</time>
      </trkpt>
      <trkpt lat="45.62129" lon="6.61142">
        <ele>2110</ele>
        <time>2022-07-26T15:02:20Z</time>
      </trkpt>
      <trkpt lat="45.62128" lon="6.61142">
        <ele>2110</ele>
        <time>2022-07-26T15:02:21Z</time>
      </trkpt>
      <trkpt lat="45.62127" lon="6.61141">
        <ele>2110</ele>
        <time>2022-07-26T15:02:22Z</time>
      </trkpt>
      <trkpt lat="45.62126" lon="6.6114">
        <ele>2110</ele>
        <time>2022-07-26T15:02:23Z</time>
      </trkpt>
      <trkpt lat="45.62125" lon="6.6114">
        <ele>2110</ele>
        <time>2022-07-26T15:02:24Z</time>
      </trkpt>
      <trkpt lat="45.62124" lon="6.61139">
        <ele>2110</ele>
        <time>2022-07-26T15:02:25Z</time>
      </trkpt>
      <trkpt lat="45.62123" lon="6.61139">
        <ele>2110</ele>
        <time>2022-07-26T15:02:26Z</time>
      </trkpt>
      <trkpt lat="45.62122" lon="6.61138">
        <ele>2110</ele>
        <time>2022-07-26T15:02:27Z</time>
      </trkpt>
      <trkpt lat="45.62121" lon="6.61137">
        <ele>2110</ele>
        <time>2022-07-26T15:02:28Z</time>
      </trkpt>
      <trkpt lat="45.6212" lon="6.61137">
        <ele>2109</ele>
        <time>2022-07-26T15:02:29Z</time>
      </trkpt>
      <trkpt lat="45.62119" lon="6.61136">
        <ele>2109</ele>
        <time>2022-07-26T15:02:30Z</time>
      </trkpt>
      <trkpt lat="45.62118" lon="6.61135">
        <ele>2109</ele>
        <time>2022-07-26T15:02:31Z</time>
      </trkpt>
      <trkpt lat="45.62117" lon="6.61135">
        <ele>2109</ele>
        <time>2022-07-26T15:02:32Z</time>
      </trkpt>
      <trkpt lat="45.62116" lon="6.61134">
        <ele>2109</ele>
        <time>2022-07-26T15:02:33Z</time>
      </trkpt>
      <trkpt lat="45.62115" lon="6.61133">
        <ele>2108</ele>
        <time>2022-07-26T15:02:34Z</time>
      </trkpt>
      <trkpt lat="45.62114" lon="6.61133">
        <ele>2108</ele>
        <time>2022-07-26T15:02:35Z</time>
      </trkpt>
      <trkpt lat="45.62113" lon="6.61132">
        <ele>2108</ele>
        <time>2022-07-26T15:02:36Z</time>
      </trkpt>
      <trkpt lat="45.62112" lon="6.61131">
        <ele>2108</ele>
        <time>2022-07-26T15:02:37Z</time>
      </trkpt>
      <trkpt lat="45.62111" lon="6.6113">
        <ele>2108</ele>
        <time>2022-07-26T15:02:38Z</time>
      </trkpt>
      <trkpt lat="45.6211" lon="6.61129">
        <ele>2107</ele>
        <time>2022-07-26T15:02:39Z</time>
      </trkpt>
      <trkpt lat="45.62109" lon="6.61128">
        <ele>2107</ele>
        <time>2022-07-26T15:02:40Z</time>
      </trkpt>
      <trkpt lat="45.62108" lon="6.61127">
        <ele>2107</ele>
        <time>2022-07-26T15:02:41Z</time>
      </trkpt>
      <trkpt lat="45.62107" lon="6.61126">
        <ele>2107</ele>
        <time>2022-07-26T15:02:42Z</time>
      </trkpt>
      <trkpt lat="45.62106" lon="6.61125">
        <ele>2107</ele>
        <time>2022-07-26T15:02:43Z</time>
      </trkpt>
      <trkpt lat="45.62105" lon="6.61124">
        <ele>2106</ele>
        <time>2022-07-26T15:02:44Z</time>
      </trkpt>
      <trkpt lat="45.62104" lon="6.61123">
        <ele>2106</ele>
        <time>2022-07-26T15:02:45Z</time>
      </trkpt>
      <trkpt lat="45.62103" lon="6.61123">
        <ele>2106</ele>
        <time>2022-07-26T15:02:46Z</time>
      </trkpt>
      <trkpt lat="45.62102" lon="6.61122">
        <ele>2106</ele>
        <time>2022-07-26T15:02:47Z</time>
      </trkpt>
      <trkpt lat="45.62101" lon="6.61121">
        <ele>2106</ele>
        <time>2022-07-26T15:02:48Z</time>
      </trkpt>
      <trkpt lat="45.621" lon="6.61121">
        <ele>2106</ele>
        <time>2022-07-26T15:02:49Z</time>
      </trkpt>
      <trkpt lat="45.62099" lon="6.6112">
        <ele>2106</ele>
        <time>2022-07-26T15:02:50Z</time>
      </trkpt>
      <trkpt lat="45.62098" lon="6.61119">
        <ele>2106</ele>
        <time>2022-07-26T15:02:51Z</time>
      </trkpt>
      <trkpt lat="45.62097" lon="6.61119">
        <ele>2106</ele>
        <time>2022-07-26T15:02:52Z</time>
      </trkpt>
      <trkpt lat="45.62096" lon="6.61118">
        <ele>2106</ele>
        <time>2022-07-26T15:02:53Z</time>
      </trkpt>
      <trkpt lat="45.62095" lon="6.61117">
        <ele>2105</ele>
        <time>2022-07-26T15:02:54Z</time>
      </trkpt>
      <trkpt lat="45.62094" lon="6.61117">
        <ele>2105</ele>
        <time>2022-07-26T15:02:55Z</time>
      </trkpt>
      <trkpt lat="45.62093" lon="6.61116">
        <ele>2105</ele>
        <time>2022-07-26T15:02:56Z</time>
      </trkpt>
      <trkpt lat="45.62092" lon="6.61115">
        <ele>2105</ele>
        <time>2022-07-26T15:02:57Z</time>
      </trkpt>
      <trkpt lat="45.62091" lon="6.61115">
        <ele>2105</ele>
        <time>2022-07-26T15:02:58Z</time>
      </trkpt>
      <trkpt lat="45.6209" lon="6.61114">
        <ele>2104</ele>
        <time>2022-07-26T15:02:59Z</time>
      </trkpt>
      <trkpt lat="45.62089" lon="6.61113">
        <ele>2104</ele>
        <time>2022-07-26T15:03:00Z</time>
      </trkpt>
      <trkpt lat="45.62088" lon="6.61113">
        <ele>2104</ele>
        <time>2022-07-26T15:03:01Z</time>
      </trkpt>
      <trkpt lat="45.62087" lon="6.61112">
        <ele>2104</ele>
        <time>2022-07-26T15:03:02Z</time>
      </trkpt>
      <trkpt lat="45.62086" lon="6.61111">
        <ele>2104</ele>
        <time>2022-07-26T15:03:03Z</time>
      </trkpt>
      <trkpt lat="45.62085" lon="6.6111">
        <ele>2103</ele>
        <time>2022-07-26T15:03:04Z</time>
      </trkpt>
      <trkpt lat="45.62084" lon="6.61109">
        <ele>2103</ele>
        <time>2022-07-26T15:03:05Z</time>
      </trkpt>
      <trkpt lat="45.62083" lon="6.61108">
        <ele>2103</ele>
        <time>2022-07-26T15:03:06Z</time>
      </trkpt>
      <trkpt lat="45.62082" lon="6.61107">
        <ele>2103</ele>
        <time>2022-07-26T15:03:07Z</time>
      </trkpt>
      <trkpt lat="45.62081" lon="6.61106">
        <ele>2103</ele>
        <time>2022-07-26T15:03:08Z</time>
      </trkpt>
      <trkpt lat="45.6208" lon="6.61105">
        <ele>2102</ele>
        <time>2022-07-26T15:03:09Z</time>
      </trkpt>
      <trkpt lat="45.62079" lon="6.61105">
        <ele>2102</ele>
        <time>2022-07-26T15:03:10Z</time>
      </trkpt>
      <trkpt lat="45.62079" lon="6.61104">
        <ele>2102</ele>
        <time>2022-07-26T15:03:11Z</time>
      </trkpt>
      <trkpt lat="45.62078" lon="6.61103">
        <ele>2102</ele>
        <time>2022-07-26T15:03:12Z</time>
      </trkpt>
      <trkpt lat="45.62077" lon="6.61102">
        <ele>2102</ele>
        <time>2022-07-26T15:03:13Z</time>
      </trkpt>
      <trkpt lat="45.62076" lon="6.61101">
        <ele>2101</ele>
        <time>2022-07-26T15:03:14Z</time>
      </trkpt>
      <trkpt lat="45.62075" lon="6.61101">
        <ele>2101</ele>
        <time>2022-07-26T15:03:15Z</time>
      </trkpt>
      <trkpt lat="45.62074" lon="6.611">
        <ele>2101</ele>
        <time>2022-07-26T15:03:16Z</time>
      </trkpt>
      <trkpt lat="45.62073" lon="6.61099">
        <ele>2101</ele>
        <time>2022-07-26T15:03:17Z</time>
      </trkpt>
      <trkpt lat="45.62072" lon="6.61098">
        <ele>2101</ele>
        <time>2022-07-26T15:03:18Z</time>
      </trkpt>
      <trkpt lat="45.62071" lon="6.61097">
        <ele>2100</ele>
        <time>2022-07-26T15:03:19Z</time>
      </trkpt>
      <trkpt lat="45.6207" lon="6.61096">
        <ele>2100</ele>
        <time>2022-07-26T15:03:20Z</time>
      </trkpt>
      <trkpt lat="45.62069" lon="6.61095">
        <ele>2100</ele>
        <time>2022-07-26T15:03:21Z</time>
      </trkpt>
      <trkpt lat="45.62068" lon="6.61094">
        <ele>2100</ele>
        <time>2022-07-26T15:03:22Z</time>
      </trkpt>
      <trkpt lat="45.62067" lon="6.61093">
        <ele>2100</ele>
        <time>2022-07-26T15:03:23Z</time>
      </trkpt>
      <trkpt lat="45.62066" lon="6.61092">
        <ele>2099</ele>
        <time>2022-07-26T15:03:24Z</time>
      </trkpt>
      <trkpt lat="45.62065" lon="6.61091">
        <ele>2099</ele>
        <time>2022-07-26T15:03:25Z</time>
      </trkpt>
      <trkpt lat="45.62064" lon="6.6109">
        <ele>2099</ele>
        <time>2022-07-26T15:03:26Z</time>
      </trkpt>
      <trkpt lat="45.62063" lon="6.61089">
        <ele>2099</ele>
        <time>2022-07-26T15:03:27Z</time>
      </trkpt>
      <trkpt lat="45.62062" lon="6.61088">
        <ele>2099</ele>
        <time>2022-07-26T15:03:28Z</time>
      </trkpt>
      <trkpt lat="45.62061" lon="6.61087">
        <ele>2099</ele>
        <time>2022-07-26T15:03:29Z</time>
      </trkpt>
      <trkpt lat="45.6206" lon="6.61086">
        <ele>2099</ele>
        <time>2022-07-26T15:03:30Z</time>
      </trkpt>
      <trkpt lat="45.62059" lon="6.61085">
        <ele>2099</ele>
        <time>2022-07-26T15:03:31Z</time>
      </trkpt>
      <trkpt lat="45.62059" lon="6.61084">
        <ele>2099</ele>
        <time>2022-07-26T15:03:32Z</time>
      </trkpt>
      <trkpt lat="45.62058" lon="6.61083">
        <ele>2099</ele>
        <time>2022-07-26T15:03:33Z</time>
      </trkpt>
      <trkpt lat="45.62057" lon="6.61082">
        <ele>2098</ele>
        <time>2022-07-26T15:03:34Z</time>
      </trkpt>
      <trkpt lat="45.62056" lon="6.61081">
        <ele>2098</ele>
        <time>2022-07-26T15:03:35Z</time>
      </trkpt>
      <trkpt lat="45.62055" lon="6.6108">
        <ele>2098</ele>
        <time>2022-07-26T15:03:36Z</time>
      </trkpt>
      <trkpt lat="45.62054" lon="6.61078">
        <ele>2098</ele>
        <time>2022-07-26T15:03:37Z</time>
      </trkpt>
      <trkpt lat="45.62053" lon="6.61077">
        <ele>2098</ele>
        <time>2022-07-26T15:03:38Z</time>
      </trkpt>
      <trkpt lat="45.62052" lon="6.61076">
        <ele>2097</ele>
        <time>2022-07-26T15:03:39Z</time>
      </trkpt>
      <trkpt lat="45.62051" lon="6.61075">
        <ele>2097</ele>
        <time>2022-07-26T15:03:40Z</time>
      </trkpt>
      <trkpt lat="45.6205" lon="6.61074">
        <ele>2097</ele>
        <time>2022-07-26T15:03:41Z</time>
      </trkpt>
      <trkpt lat="45.62049" lon="6.61073">
        <ele>2097</ele>
        <time>2022-07-26T15:03:42Z</time>
      </trkpt>
      <trkpt lat="45.62048" lon="6.61073">
        <ele>2097</ele>
        <time>2022-07-26T15:03:43Z</time>
      </trkpt>
      <trkpt lat="45.62047" lon="6.61072">
        <ele>2096</ele>
        <time>2022-07-26T15:03:44Z</time>
      </trkpt>
      <trkpt lat="45.62046" lon="6.61071">
        <ele>2096</ele>
        <time>2022-07-26T15:03:45Z</time>
      </trkpt>
      <trkpt lat="45.62045" lon="6.61069">
        <ele>2096</ele>
        <time>2022-07-26T15:03:46Z</time>
      </trkpt>
      <trkpt lat="45.62044" lon="6.61068">
        <ele>2096</ele>
        <time>2022-07-26T15:03:47Z</time>
      </trkpt>
      <trkpt lat="45.62043" lon="6.61067">
        <ele>2096</ele>
        <time>2022-07-26T15:03:48Z</time>
      </trkpt>
      <trkpt lat="45.62043" lon="6.61066">
        <ele>2095</ele>
        <time>2022-07-26T15:03:49Z</time>
      </trkpt>
      <trkpt lat="45.62042" lon="6.61065">
        <ele>2095</ele>
        <time>2022-07-26T15:03:50Z</time>
      </trkpt>
      <trkpt lat="45.62041" lon="6.61064">
        <ele>2095</ele>
        <time>2022-07-26T15:03:51Z</time>
      </trkpt>
      <trkpt lat="45.6204" lon="6.61063">
        <ele>2095</ele>
        <time>2022-07-26T15:03:52Z</time>
      </trkpt>
      <trkpt lat="45.6204" lon="6.61063">
        <ele>2095</ele>
        <time>2022-07-26T15:03:53Z</time>
      </trkpt>
      <trkpt lat="45.62039" lon="6.61062">
        <ele>2094</ele>
        <time>2022-07-26T15:03:54Z</time>
      </trkpt>
      <trkpt lat="45.62038" lon="6.61061">
        <ele>2094</ele>
        <time>2022-07-26T15:03:55Z</time>
      </trkpt>
      <trkpt lat="45.62038" lon="6.6106">
        <ele>2093</ele>
        <time>2022-07-26T15:03:56Z</time>
      </trkpt>
      <trkpt lat="45.62037" lon="6.61059">
        <ele>2093</ele>
        <time>2022-07-26T15:03:57Z</time>
      </trkpt>
      <trkpt lat="45.62036" lon="6.61058">
        <ele>2093</ele>
        <time>2022-07-26T15:03:58Z</time>
      </trkpt>
      <trkpt lat="45.62036" lon="6.61057">
        <ele>2092</ele>
        <time>2022-07-26T15:03:59Z</time>
      </trkpt>
      <trkpt lat="45.62035" lon="6.61056">
        <ele>2092</ele>
        <time>2022-07-26T15:04:00Z</time>
      </trkpt>
      <trkpt lat="45.62034" lon="6.61055">
        <ele>2092</ele>
        <time>2022-07-26T15:04:01Z</time>
      </trkpt>
      <trkpt lat="45.62033" lon="6.61054">
        <ele>2092</ele>
        <time>2022-07-26T15:04:02Z</time>
      </trkpt>
      <trkpt lat="45.62033" lon="6.61053">
        <ele>2092</ele>
        <time>2022-07-26T15:04:03Z</time>
      </trkpt>
      <trkpt lat="45.62032" lon="6.61051">
        <ele>2091</ele>
        <time>2022-07-26T15:04:04Z</time>
      </trkpt>
      <trkpt lat="45.62031" lon="6.6105">
        <ele>2091</ele>
        <time>2022-07-26T15:04:05Z</time>
      </trkpt>
      <trkpt lat="45.6203" lon="6.61049">
        <ele>2091</ele>
        <time>2022-07-26T15:04:06Z</time>
      </trkpt>
      <trkpt lat="45.62029" lon="6.61048">
        <ele>2091</ele>
        <time>2022-07-26T15:04:07Z</time>
      </trkpt>
      <trkpt lat="45.62029" lon="6.61046">
        <ele>2091</ele>
        <time>2022-07-26T15:04:08Z</time>
      </trkpt>
      <trkpt lat="45.62028" lon="6.61045">
        <ele>2091</ele>
        <time>2022-07-26T15:04:09Z</time>
      </trkpt>
      <trkpt lat="45.62027" lon="6.61044">
        <ele>2091</ele>
        <time>2022-07-26T15:04:10Z</time>
      </trkpt>
      <trkpt lat="45.62027" lon="6.61043">
        <ele>2091</ele>
        <time>2022-07-26T15:04:11Z</time>
      </trkpt>
      <trkpt lat="45.62026" lon="6.61041">
        <ele>2091</ele>
        <time>2022-07-26T15:04:12Z</time>
      </trkpt>
      <trkpt lat="45.62025" lon="6.6104">
        <ele>2091</ele>
        <time>2022-07-26T15:04:13Z</time>
      </trkpt>
      <trkpt lat="45.62024" lon="6.61039">
        <ele>2090</ele>
        <time>2022-07-26T15:04:14Z</time>
      </trkpt>
      <trkpt lat="45.62024" lon="6.61038">
        <ele>2090</ele>
        <time>2022-07-26T15:04:15Z</time>
      </trkpt>
      <trkpt lat="45.62023" lon="6.61037">
        <ele>2090</ele>
        <time>2022-07-26T15:04:16Z</time>
      </trkpt>
      <trkpt lat="45.62022" lon="6.61035">
        <ele>2090</ele>
        <time>2022-07-26T15:04:17Z</time>
      </trkpt>
      <trkpt lat="45.62021" lon="6.61034">
        <ele>2090</ele>
        <time>2022-07-26T15:04:18Z</time>
      </trkpt>
      <trkpt lat="45.62021" lon="6.61033">
        <ele>2089</ele>
        <time>2022-07-26T15:04:19Z</time>
      </trkpt>
      <trkpt lat="45.6202" lon="6.61032">
        <ele>2089</ele>
        <time>2022-07-26T15:04:20Z</time>
      </trkpt>
      <trkpt lat="45.62019" lon="6.61031">
        <ele>2089</ele>
        <time>2022-07-26T15:04:21Z</time>
      </trkpt>
      <trkpt lat="45.62018" lon="6.6103">
        <ele>2089</ele>
        <time>2022-07-26T15:04:22Z</time>
      </trkpt>
      <trkpt lat="45.62018" lon="6.61029">
        <ele>2089</ele>
        <time>2022-07-26T15:04:23Z</time>
      </trkpt>
      <trkpt lat="45.62017" lon="6.61028">
        <ele>2089</ele>
        <time>2022-07-26T15:04:24Z</time>
      </trkpt>
      <trkpt lat="45.62016" lon="6.61027">
        <ele>2089</ele>
        <time>2022-07-26T15:04:25Z</time>
      </trkpt>
      <trkpt lat="45.62015" lon="6.61026">
        <ele>2089</ele>
        <time>2022-07-26T15:04:26Z</time>
      </trkpt>
      <trkpt lat="45.62014" lon="6.61025">
        <ele>2089</ele>
        <time>2022-07-26T15:04:27Z</time>
      </trkpt>
      <trkpt lat="45.62012" lon="6.61024">
        <ele>2089</ele>
        <time>2022-07-26T15:04:28Z</time>
      </trkpt>
      <trkpt lat="45.62011" lon="6.61023">
        <ele>2088</ele>
        <time>2022-07-26T15:04:29Z</time>
      </trkpt>
      <trkpt lat="45.6201" lon="6.61022">
        <ele>2088</ele>
        <time>2022-07-26T15:04:30Z</time>
      </trkpt>
      <trkpt lat="45.62009" lon="6.61022">
        <ele>2088</ele>
        <time>2022-07-26T15:04:31Z</time>
      </trkpt>
      <trkpt lat="45.62008" lon="6.61021">
        <ele>2088</ele>
        <time>2022-07-26T15:04:32Z</time>
      </trkpt>
      <trkpt lat="45.62007" lon="6.6102">
        <ele>2088</ele>
        <time>2022-07-26T15:04:33Z</time>
      </trkpt>
      <trkpt lat="45.62006" lon="6.61019">
        <ele>2087</ele>
        <time>2022-07-26T15:04:34Z</time>
      </trkpt>
      <trkpt lat="45.62005" lon="6.61017">
        <ele>2087</ele>
        <time>2022-07-26T15:04:35Z</time>
      </trkpt>
      <trkpt lat="45.62004" lon="6.61016">
        <ele>2087</ele>
        <time>2022-07-26T15:04:36Z</time>
      </trkpt>
      <trkpt lat="45.62003" lon="6.61015">
        <ele>2087</ele>
        <time>2022-07-26T15:04:37Z</time>
      </trkpt>
      <trkpt lat="45.62003" lon="6.61014">
        <ele>2087</ele>
        <time>2022-07-26T15:04:38Z</time>
      </trkpt>
      <trkpt lat="45.62002" lon="6.61013">
        <ele>2087</ele>
        <time>2022-07-26T15:04:39Z</time>
      </trkpt>
      <trkpt lat="45.62001" lon="6.61012">
        <ele>2087</ele>
        <time>2022-07-26T15:04:40Z</time>
      </trkpt>
      <trkpt lat="45.62" lon="6.61011">
        <ele>2087</ele>
        <time>2022-07-26T15:04:41Z</time>
      </trkpt>
      <trkpt lat="45.61999" lon="6.6101">
        <ele>2087</ele>
        <time>2022-07-26T15:04:42Z</time>
      </trkpt>
      <trkpt lat="45.61998" lon="6.61009">
        <ele>2087</ele>
        <time>2022-07-26T15:04:43Z</time>
      </trkpt>
      <trkpt lat="45.61997" lon="6.61008">
        <ele>2086</ele>
        <time>2022-07-26T15:04:44Z</time>
      </trkpt>
      <trkpt lat="45.61996" lon="6.61007">
        <ele>2086</ele>
        <time>2022-07-26T15:04:45Z</time>
      </trkpt>
      <trkpt lat="45.61995" lon="6.61006">
        <ele>2086</ele>
        <time>2022-07-26T15:04:46Z</time>
      </trkpt>
      <trkpt lat="45.61994" lon="6.61005">
        <ele>2086</ele>
        <time>2022-07-26T15:04:47Z</time>
      </trkpt>
      <trkpt lat="45.61993" lon="6.61004">
        <ele>2086</ele>
        <time>2022-07-26T15:04:48Z</time>
      </trkpt>
      <trkpt lat="45.61992" lon="6.61004">
        <ele>2086</ele>
        <time>2022-07-26T15:04:49Z</time>
      </trkpt>
      <trkpt lat="45.61991" lon="6.61003">
        <ele>2086</ele>
        <time>2022-07-26T15:04:50Z</time>
      </trkpt>
      <trkpt lat="45.6199" lon="6.61003">
        <ele>2086</ele>
        <time>2022-07-26T15:04:51Z</time>
      </trkpt>
      <trkpt lat="45.61989" lon="6.61002">
        <ele>2086</ele>
        <time>2022-07-26T15:04:52Z</time>
      </trkpt>
      <trkpt lat="45.61988" lon="6.61002">
        <ele>2086</ele>
        <time>2022-07-26T15:04:53Z</time>
      </trkpt>
      <trkpt lat="45.61986" lon="6.61002">
        <ele>2085</ele>
        <time>2022-07-26T15:04:54Z</time>
      </trkpt>
      <trkpt lat="45.61985" lon="6.61001">
        <ele>2085</ele>
        <time>2022-07-26T15:04:55Z</time>
      </trkpt>
      <trkpt lat="45.61984" lon="6.61001">
        <ele>2085</ele>
        <time>2022-07-26T15:04:56Z</time>
      </trkpt>
      <trkpt lat="45.61983" lon="6.61">
        <ele>2085</ele>
        <time>2022-07-26T15:04:57Z</time>
      </trkpt>
      <trkpt lat="45.61981" lon="6.61">
        <ele>2085</ele>
        <time>2022-07-26T15:04:58Z</time>
      </trkpt>
      <trkpt lat="45.6198" lon="6.60999">
        <ele>2085</ele>
        <time>2022-07-26T15:04:59Z</time>
      </trkpt>
      <trkpt lat="45.61979" lon="6.60999">
        <ele>2085</ele>
        <time>2022-07-26T15:05:00Z</time>
      </trkpt>
      <trkpt lat="45.61978" lon="6.60998">
        <ele>2085</ele>
        <time>2022-07-26T15:05:01Z</time>
      </trkpt>
      <trkpt lat="45.61977" lon="6.60998">
        <ele>2085</ele>
        <time>2022-07-26T15:05:02Z</time>
      </trkpt>
      <trkpt lat="45.61975" lon="6.60997">
        <ele>2085</ele>
        <time>2022-07-26T15:05:03Z</time>
      </trkpt>
      <trkpt lat="45.61974" lon="6.60996">
        <ele>2084</ele>
        <time>2022-07-26T15:05:04Z</time>
      </trkpt>
      <trkpt lat="45.61973" lon="6.60996">
        <ele>2084</ele>
        <time>2022-07-26T15:05:05Z</time>
      </trkpt>
      <trkpt lat="45.61972" lon="6.60995">
        <ele>2084</ele>
        <time>2022-07-26T15:05:06Z</time>
      </trkpt>
      <trkpt lat="45.61971" lon="6.60994">
        <ele>2084</ele>
        <time>2022-07-26T15:05:07Z</time>
      </trkpt>
      <trkpt lat="45.6197" lon="6.60993">
        <ele>2084</ele>
        <time>2022-07-26T15:05:08Z</time>
      </trkpt>
      <trkpt lat="45.61969" lon="6.60992">
        <ele>2083</ele>
        <time>2022-07-26T15:05:09Z</time>
      </trkpt>
      <trkpt lat="45.61968" lon="6.60991">
        <ele>2083</ele>
        <time>2022-07-26T15:05:10Z</time>
      </trkpt>
      <trkpt lat="45.61967" lon="6.6099">
        <ele>2083</ele>
        <time>2022-07-26T15:05:11Z</time>
      </trkpt>
      <trkpt lat="45.61966" lon="6.60989">
        <ele>2083</ele>
        <time>2022-07-26T15:05:12Z</time>
      </trkpt>
      <trkpt lat="45.61966" lon="6.60988">
        <ele>2083</ele>
        <time>2022-07-26T15:05:13Z</time>
      </trkpt>
      <trkpt lat="45.61965" lon="6.60987">
        <ele>2083</ele>
        <time>2022-07-26T15:05:14Z</time>
      </trkpt>
      <trkpt lat="45.61964" lon="6.60986">
        <ele>2083</ele>
        <time>2022-07-26T15:05:15Z</time>
      </trkpt>
      <trkpt lat="45.61963" lon="6.60985">
        <ele>2083</ele>
        <time>2022-07-26T15:05:16Z</time>
      </trkpt>
      <trkpt lat="45.61962" lon="6.60984">
        <ele>2083</ele>
        <time>2022-07-26T15:05:17Z</time>
      </trkpt>
      <trkpt lat="45.61961" lon="6.60983">
        <ele>2083</ele>
        <time>2022-07-26T15:05:18Z</time>
      </trkpt>
      <trkpt lat="45.6196" lon="6.60982">
        <ele>2082</ele>
        <time>2022-07-26T15:05:19Z</time>
      </trkpt>
      <trkpt lat="45.61959" lon="6.60981">
        <ele>2082</ele>
        <time>2022-07-26T15:05:20Z</time>
      </trkpt>
      <trkpt lat="45.61958" lon="6.6098">
        <ele>2082</ele>
        <time>2022-07-26T15:05:21Z</time>
      </trkpt>
      <trkpt lat="45.61957" lon="6.60979">
        <ele>2082</ele>
        <time>2022-07-26T15:05:22Z</time>
      </trkpt>
      <trkpt lat="45.61957" lon="6.60978">
        <ele>2082</ele>
        <time>2022-07-26T15:05:23Z</time>
      </trkpt>
      <trkpt lat="45.61956" lon="6.60976">
        <ele>2082</ele>
        <time>2022-07-26T15:05:24Z</time>
      </trkpt>
      <trkpt lat="45.61955" lon="6.60975">
        <ele>2082</ele>
        <time>2022-07-26T15:05:25Z</time>
      </trkpt>
      <trkpt lat="45.61954" lon="6.60974">
        <ele>2082</ele>
        <time>2022-07-26T15:05:26Z</time>
      </trkpt>
      <trkpt lat="45.61953" lon="6.60973">
        <ele>2082</ele>
        <time>2022-07-26T15:05:27Z</time>
      </trkpt>
      <trkpt lat="45.61952" lon="6.60971">
        <ele>2082</ele>
        <time>2022-07-26T15:05:28Z</time>
      </trkpt>
      <trkpt lat="45.61952" lon="6.6097">
        <ele>2081</ele>
        <time>2022-07-26T15:05:29Z</time>
      </trkpt>
      <trkpt lat="45.61951" lon="6.60969">
        <ele>2081</ele>
        <time>2022-07-26T15:05:30Z</time>
      </trkpt>
      <trkpt lat="45.6195" lon="6.60968">
        <ele>2081</ele>
        <time>2022-07-26T15:05:31Z</time>
      </trkpt>
      <trkpt lat="45.61949" lon="6.60966">
        <ele>2081</ele>
        <time>2022-07-26T15:05:32Z</time>
      </trkpt>
      <trkpt lat="45.61948" lon="6.60965">
        <ele>2081</ele>
        <time>2022-07-26T15:05:33Z</time>
      </trkpt>
      <trkpt lat="45.61947" lon="6.60964">
        <ele>2080</ele>
        <time>2022-07-26T15:05:34Z</time>
      </trkpt>
      <trkpt lat="45.61946" lon="6.60963">
        <ele>2080</ele>
        <time>2022-07-26T15:05:35Z</time>
      </trkpt>
      <trkpt lat="45.61945" lon="6.60962">
        <ele>2080</ele>
        <time>2022-07-26T15:05:36Z</time>
      </trkpt>
      <trkpt lat="45.61945" lon="6.60961">
        <ele>2080</ele>
        <time>2022-07-26T15:05:37Z</time>
      </trkpt>
      <trkpt lat="45.61944" lon="6.6096">
        <ele>2080</ele>
        <time>2022-07-26T15:05:38Z</time>
      </trkpt>
      <trkpt lat="45.61943" lon="6.60959">
        <ele>2079</ele>
        <time>2022-07-26T15:05:39Z</time>
      </trkpt>
      <trkpt lat="45.61942" lon="6.60958">
        <ele>2079</ele>
        <time>2022-07-26T15:05:40Z</time>
      </trkpt>
      <trkpt lat="45.61941" lon="6.60957">
        <ele>2079</ele>
        <time>2022-07-26T15:05:41Z</time>
      </trkpt>
      <trkpt lat="45.6194" lon="6.60956">
        <ele>2079</ele>
        <time>2022-07-26T15:05:42Z</time>
      </trkpt>
      <trkpt lat="45.61939" lon="6.60955">
        <ele>2079</ele>
        <time>2022-07-26T15:05:43Z</time>
      </trkpt>
      <trkpt lat="45.61938" lon="6.60954">
        <ele>2079</ele>
        <time>2022-07-26T15:05:44Z</time>
      </trkpt>
      <trkpt lat="45.61937" lon="6.60953">
        <ele>2079</ele>
        <time>2022-07-26T15:05:45Z</time>
      </trkpt>
      <trkpt lat="45.61936" lon="6.60952">
        <ele>2079</ele>
        <time>2022-07-26T15:05:46Z</time>
      </trkpt>
      <trkpt lat="45.61935" lon="6.60951">
        <ele>2079</ele>
        <time>2022-07-26T15:05:47Z</time>
      </trkpt>
      <trkpt lat="45.61934" lon="6.6095">
        <ele>2079</ele>
        <time>2022-07-26T15:05:48Z</time>
      </trkpt>
      <trkpt lat="45.61934" lon="6.60949">
        <ele>2078</ele>
        <time>2022-07-26T15:05:49Z</time>
      </trkpt>
      <trkpt lat="45.61933" lon="6.60947">
        <ele>2078</ele>
        <time>2022-07-26T15:05:50Z</time>
      </trkpt>
      <trkpt lat="45.61932" lon="6.60946">
        <ele>2078</ele>
        <time>2022-07-26T15:05:51Z</time>
      </trkpt>
      <trkpt lat="45.61931" lon="6.60945">
        <ele>2078</ele>
        <time>2022-07-26T15:05:52Z</time>
      </trkpt>
      <trkpt lat="45.61931" lon="6.60944">
        <ele>2078</ele>
        <time>2022-07-26T15:05:53Z</time>
      </trkpt>
      <trkpt lat="45.6193" lon="6.60943">
        <ele>2078</ele>
        <time>2022-07-26T15:05:54Z</time>
      </trkpt>
      <trkpt lat="45.61929" lon="6.60941">
        <ele>2078</ele>
        <time>2022-07-26T15:05:55Z</time>
      </trkpt>
      <trkpt lat="45.61928" lon="6.6094">
        <ele>2078</ele>
        <time>2022-07-26T15:05:56Z</time>
      </trkpt>
      <trkpt lat="45.61927" lon="6.60939">
        <ele>2078</ele>
        <time>2022-07-26T15:05:57Z</time>
      </trkpt>
      <trkpt lat="45.61927" lon="6.60938">
        <ele>2078</ele>
        <time>2022-07-26T15:05:58Z</time>
      </trkpt>
      <trkpt lat="45.61926" lon="6.60937">
        <ele>2078</ele>
        <time>2022-07-26T15:05:59Z</time>
      </trkpt>
      <trkpt lat="45.61925" lon="6.60935">
        <ele>2078</ele>
        <time>2022-07-26T15:06:00Z</time>
      </trkpt>
      <trkpt lat="45.61924" lon="6.60934">
        <ele>2078</ele>
        <time>2022-07-26T15:06:01Z</time>
      </trkpt>
      <trkpt lat="45.61923" lon="6.60933">
        <ele>2078</ele>
        <time>2022-07-26T15:06:02Z</time>
      </trkpt>
      <trkpt lat="45.61922" lon="6.60932">
        <ele>2078</ele>
        <time>2022-07-26T15:06:03Z</time>
      </trkpt>
      <trkpt lat="45.61922" lon="6.6093">
        <ele>2077</ele>
        <time>2022-07-26T15:06:04Z</time>
      </trkpt>
      <trkpt lat="45.61921" lon="6.60929">
        <ele>2077</ele>
        <time>2022-07-26T15:06:05Z</time>
      </trkpt>
      <trkpt lat="45.6192" lon="6.60928">
        <ele>2077</ele>
        <time>2022-07-26T15:06:06Z</time>
      </trkpt>
      <trkpt lat="45.61919" lon="6.60926">
        <ele>2077</ele>
        <time>2022-07-26T15:06:07Z</time>
      </trkpt>
      <trkpt lat="45.61918" lon="6.60925">
        <ele>2077</ele>
        <time>2022-07-26T15:06:08Z</time>
      </trkpt>
      <trkpt lat="45.61917" lon="6.60923">
        <ele>2077</ele>
        <time>2022-07-26T15:06:09Z</time>
      </trkpt>
      <trkpt lat="45.61917" lon="6.60922">
        <ele>2077</ele>
        <time>2022-07-26T15:06:10Z</time>
      </trkpt>
      <trkpt lat="45.61916" lon="6.6092">
        <ele>2077</ele>
        <time>2022-07-26T15:06:11Z</time>
      </trkpt>
      <trkpt lat="45.61915" lon="6.60919">
        <ele>2077</ele>
        <time>2022-07-26T15:06:12Z</time>
      </trkpt>
      <trkpt lat="45.61915" lon="6.60918">
        <ele>2077</ele>
        <time>2022-07-26T15:06:13Z</time>
      </trkpt>
      <trkpt lat="45.61914" lon="6.60916">
        <ele>2076</ele>
        <time>2022-07-26T15:06:14Z</time>
      </trkpt>
      <trkpt lat="45.61914" lon="6.60915">
        <ele>2076</ele>
        <time>2022-07-26T15:06:15Z</time>
      </trkpt>
      <trkpt lat="45.61913" lon="6.60914">
        <ele>2076</ele>
        <time>2022-07-26T15:06:16Z</time>
      </trkpt>
      <trkpt lat="45.61912" lon="6.60913">
        <ele>2076</ele>
        <time>2022-07-26T15:06:17Z</time>
      </trkpt>
      <trkpt lat="45.61912" lon="6.60911">
        <ele>2076</ele>
        <time>2022-07-26T15:06:18Z</time>
      </trkpt>
      <trkpt lat="45.61911" lon="6.6091">
        <ele>2076</ele>
        <time>2022-07-26T15:06:19Z</time>
      </trkpt>
      <trkpt lat="45.6191" lon="6.60909">
        <ele>2076</ele>
        <time>2022-07-26T15:06:20Z</time>
      </trkpt>
      <trkpt lat="45.6191" lon="6.60907">
        <ele>2076</ele>
        <time>2022-07-26T15:06:21Z</time>
      </trkpt>
      <trkpt lat="45.61909" lon="6.60906">
        <ele>2076</ele>
        <time>2022-07-26T15:06:22Z</time>
      </trkpt>
      <trkpt lat="45.61908" lon="6.60905">
        <ele>2076</ele>
        <time>2022-07-26T15:06:23Z</time>
      </trkpt>
      <trkpt lat="45.61907" lon="6.60904">
        <ele>2075</ele>
        <time>2022-07-26T15:06:24Z</time>
      </trkpt>
      <trkpt lat="45.61906" lon="6.60902">
        <ele>2075</ele>
        <time>2022-07-26T15:06:25Z</time>
      </trkpt>
      <trkpt lat="45.61906" lon="6.60901">
        <ele>2075</ele>
        <time>2022-07-26T15:06:26Z</time>
      </trkpt>
      <trkpt lat="45.61905" lon="6.609">
        <ele>2075</ele>
        <time>2022-07-26T15:06:27Z</time>
      </trkpt>
      <trkpt lat="45.61904" lon="6.60899">
        <ele>2075</ele>
        <time>2022-07-26T15:06:28Z</time>
      </trkpt>
      <trkpt lat="45.61903" lon="6.60897">
        <ele>2075</ele>
        <time>2022-07-26T15:06:29Z</time>
      </trkpt>
      <trkpt lat="45.61903" lon="6.60896">
        <ele>2075</ele>
        <time>2022-07-26T15:06:30Z</time>
      </trkpt>
      <trkpt lat="45.61902" lon="6.60895">
        <ele>2075</ele>
        <time>2022-07-26T15:06:31Z</time>
      </trkpt>
      <trkpt lat="45.61901" lon="6.60893">
        <ele>2075</ele>
        <time>2022-07-26T15:06:32Z</time>
      </trkpt>
      <trkpt lat="45.619" lon="6.60892">
        <ele>2075</ele>
        <time>2022-07-26T15:06:33Z</time>
      </trkpt>
      <trkpt lat="45.619" lon="6.60891">
        <ele>2075</ele>
        <time>2022-07-26T15:06:34Z</time>
      </trkpt>
      <trkpt lat="45.61899" lon="6.60889">
        <ele>2075</ele>
        <time>2022-07-26T15:06:35Z</time>
      </trkpt>
      <trkpt lat="45.61898" lon="6.60888">
        <ele>2075</ele>
        <time>2022-07-26T15:06:36Z</time>
      </trkpt>
      <trkpt lat="45.61897" lon="6.60886">
        <ele>2075</ele>
        <time>2022-07-26T15:06:37Z</time>
      </trkpt>
      <trkpt lat="45.61897" lon="6.60885">
        <ele>2075</ele>
        <time>2022-07-26T15:06:38Z</time>
      </trkpt>
      <trkpt lat="45.61896" lon="6.60883">
        <ele>2074</ele>
        <time>2022-07-26T15:06:39Z</time>
      </trkpt>
      <trkpt lat="45.61895" lon="6.60882">
        <ele>2074</ele>
        <time>2022-07-26T15:06:40Z</time>
      </trkpt>
      <trkpt lat="45.61894" lon="6.6088">
        <ele>2074</ele>
        <time>2022-07-26T15:06:41Z</time>
      </trkpt>
      <trkpt lat="45.61893" lon="6.60879">
        <ele>2074</ele>
        <time>2022-07-26T15:06:42Z</time>
      </trkpt>
      <trkpt lat="45.61893" lon="6.60878">
        <ele>2074</ele>
        <time>2022-07-26T15:06:43Z</time>
      </trkpt>
      <trkpt lat="45.61892" lon="6.60876">
        <ele>2073</ele>
        <time>2022-07-26T15:06:44Z</time>
      </trkpt>
      <trkpt lat="45.61891" lon="6.60875">
        <ele>2073</ele>
        <time>2022-07-26T15:06:45Z</time>
      </trkpt>
      <trkpt lat="45.61891" lon="6.60874">
        <ele>2073</ele>
        <time>2022-07-26T15:06:46Z</time>
      </trkpt>
      <trkpt lat="45.6189" lon="6.60872">
        <ele>2073</ele>
        <time>2022-07-26T15:06:47Z</time>
      </trkpt>
      <trkpt lat="45.6189" lon="6.60871">
        <ele>2073</ele>
        <time>2022-07-26T15:06:48Z</time>
      </trkpt>
      <trkpt lat="45.61889" lon="6.60869">
        <ele>2073</ele>
        <time>2022-07-26T15:06:49Z</time>
      </trkpt>
      <trkpt lat="45.61888" lon="6.60868">
        <ele>2073</ele>
        <time>2022-07-26T15:06:50Z</time>
      </trkpt>
      <trkpt lat="45.61888" lon="6.60866">
        <ele>2073</ele>
        <time>2022-07-26T15:06:51Z</time>
      </trkpt>
      <trkpt lat="45.61887" lon="6.60865">
        <ele>2073</ele>
        <time>2022-07-26T15:06:52Z</time>
      </trkpt>
      <trkpt lat="45.61886" lon="6.60863">
        <ele>2073</ele>
        <time>2022-07-26T15:06:53Z</time>
      </trkpt>
      <trkpt lat="45.61886" lon="6.60861">
        <ele>2073</ele>
        <time>2022-07-26T15:06:54Z</time>
      </trkpt>
      <trkpt lat="45.61885" lon="6.6086">
        <ele>2073</ele>
        <time>2022-07-26T15:06:55Z</time>
      </trkpt>
      <trkpt lat="45.61884" lon="6.60858">
        <ele>2073</ele>
        <time>2022-07-26T15:06:56Z</time>
      </trkpt>
      <trkpt lat="45.61884" lon="6.60857">
        <ele>2073</ele>
        <time>2022-07-26T15:06:57Z</time>
      </trkpt>
      <trkpt lat="45.61883" lon="6.60855">
        <ele>2073</ele>
        <time>2022-07-26T15:06:58Z</time>
      </trkpt>
      <trkpt lat="45.61882" lon="6.60853">
        <ele>2072</ele>
        <time>2022-07-26T15:06:59Z</time>
      </trkpt>
      <trkpt lat="45.61882" lon="6.60852">
        <ele>2072</ele>
        <time>2022-07-26T15:07:00Z</time>
      </trkpt>
      <trkpt lat="45.61881" lon="6.6085">
        <ele>2072</ele>
        <time>2022-07-26T15:07:01Z</time>
      </trkpt>
      <trkpt lat="45.61881" lon="6.60849">
        <ele>2072</ele>
        <time>2022-07-26T15:07:02Z</time>
      </trkpt>
      <trkpt lat="45.6188" lon="6.60847">
        <ele>2072</ele>
        <time>2022-07-26T15:07:03Z</time>
      </trkpt>
      <trkpt lat="45.6188" lon="6.60846">
        <ele>2071</ele>
        <time>2022-07-26T15:07:04Z</time>
      </trkpt>
      <trkpt lat="45.61879" lon="6.60844">
        <ele>2071</ele>
        <time>2022-07-26T15:07:05Z</time>
      </trkpt>
      <trkpt lat="45.61879" lon="6.60843">
        <ele>2071</ele>
        <time>2022-07-26T15:07:06Z</time>
      </trkpt>
      <trkpt lat="45.61878" lon="6.60841">
        <ele>2071</ele>
        <time>2022-07-26T15:07:07Z</time>
      </trkpt>
      <trkpt lat="45.61878" lon="6.6084">
        <ele>2071</ele>
        <time>2022-07-26T15:07:08Z</time>
      </trkpt>
      <trkpt lat="45.61877" lon="6.60839">
        <ele>2070</ele>
        <time>2022-07-26T15:07:09Z</time>
      </trkpt>
      <trkpt lat="45.61877" lon="6.60837">
        <ele>2070</ele>
        <time>2022-07-26T15:07:10Z</time>
      </trkpt>
      <trkpt lat="45.61876" lon="6.60835">
        <ele>2070</ele>
        <time>2022-07-26T15:07:11Z</time>
      </trkpt>
      <trkpt lat="45.61876" lon="6.60834">
        <ele>2070</ele>
        <time>2022-07-26T15:07:12Z</time>
      </trkpt>
      <trkpt lat="45.61875" lon="6.60832">
        <ele>2070</ele>
        <time>2022-07-26T15:07:13Z</time>
      </trkpt>
      <trkpt lat="45.61875" lon="6.60831">
        <ele>2069</ele>
        <time>2022-07-26T15:07:14Z</time>
      </trkpt>
      <trkpt lat="45.61874" lon="6.6083">
        <ele>2069</ele>
        <time>2022-07-26T15:07:15Z</time>
      </trkpt>
      <trkpt lat="45.61873" lon="6.60828">
        <ele>2068</ele>
        <time>2022-07-26T15:07:27Z</time>
      </trkpt>
      <trkpt lat="45.61873" lon="6.60828">
        <ele>2068</ele>
        <time>2022-07-26T15:07:28Z</time>
      </trkpt>
      <trkpt lat="45.61873" lon="6.60828">
        <ele>2068</ele>
        <time>2022-07-26T15:07:29Z</time>
      </trkpt>
      <trkpt lat="45.61872" lon="6.60827">
        <ele>2068</ele>
        <time>2022-07-26T15:07:30Z</time>
      </trkpt>
      <trkpt lat="45.61872" lon="6.60827">
        <ele>2068</ele>
        <time>2022-07-26T15:07:31Z</time>
      </trkpt>
      <trkpt lat="45.61871" lon="6.60827">
        <ele>2068</ele>
        <time>2022-07-26T15:07:32Z</time>
      </trkpt>
      <trkpt lat="45.61871" lon="6.60826">
        <ele>2068</ele>
        <time>2022-07-26T15:07:33Z</time>
      </trkpt>
      <trkpt lat="45.6187" lon="6.60826">
        <ele>2068</ele>
        <time>2022-07-26T15:07:34Z</time>
      </trkpt>
      <trkpt lat="45.6187" lon="6.60825">
        <ele>2068</ele>
        <time>2022-07-26T15:07:35Z</time>
      </trkpt>
      <trkpt lat="45.61869" lon="6.60825">
        <ele>2068</ele>
        <time>2022-07-26T15:07:36Z</time>
      </trkpt>
      <trkpt lat="45.61868" lon="6.60824">
        <ele>2068</ele>
        <time>2022-07-26T15:07:37Z</time>
      </trkpt>
      <trkpt lat="45.61867" lon="6.60824">
        <ele>2068</ele>
        <time>2022-07-26T15:07:38Z</time>
      </trkpt>
      <trkpt lat="45.61866" lon="6.60823">
        <ele>2067</ele>
        <time>2022-07-26T15:07:39Z</time>
      </trkpt>
      <trkpt lat="45.61865" lon="6.60823">
        <ele>2067</ele>
        <time>2022-07-26T15:07:40Z</time>
      </trkpt>
      <trkpt lat="45.61864" lon="6.60823">
        <ele>2067</ele>
        <time>2022-07-26T15:07:41Z</time>
      </trkpt>
      <trkpt lat="45.61863" lon="6.60822">
        <ele>2067</ele>
        <time>2022-07-26T15:07:42Z</time>
      </trkpt>
      <trkpt lat="45.61862" lon="6.60822">
        <ele>2067</ele>
        <time>2022-07-26T15:07:43Z</time>
      </trkpt>
      <trkpt lat="45.61861" lon="6.60822">
        <ele>2067</ele>
        <time>2022-07-26T15:07:44Z</time>
      </trkpt>
      <trkpt lat="45.6186" lon="6.60822">
        <ele>2067</ele>
        <time>2022-07-26T15:07:45Z</time>
      </trkpt>
      <trkpt lat="45.61859" lon="6.60822">
        <ele>2067</ele>
        <time>2022-07-26T15:07:46Z</time>
      </trkpt>
      <trkpt lat="45.61858" lon="6.60822">
        <ele>2067</ele>
        <time>2022-07-26T15:07:47Z</time>
      </trkpt>
      <trkpt lat="45.61857" lon="6.60822">
        <ele>2067</ele>
        <time>2022-07-26T15:07:48Z</time>
      </trkpt>
      <trkpt lat="45.61856" lon="6.60821">
        <ele>2067</ele>
        <time>2022-07-26T15:07:49Z</time>
      </trkpt>
      <trkpt lat="45.61855" lon="6.60821">
        <ele>2067</ele>
        <time>2022-07-26T15:07:50Z</time>
      </trkpt>
      <trkpt lat="45.61854" lon="6.60821">
        <ele>2067</ele>
        <time>2022-07-26T15:07:51Z</time>
      </trkpt>
      <trkpt lat="45.61853" lon="6.60821">
        <ele>2067</ele>
        <time>2022-07-26T15:07:52Z</time>
      </trkpt>
      <trkpt lat="45.61852" lon="6.60821">
        <ele>2067</ele>
        <time>2022-07-26T15:07:53Z</time>
      </trkpt>
      <trkpt lat="45.61851" lon="6.60821">
        <ele>2067</ele>
        <time>2022-07-26T15:07:54Z</time>
      </trkpt>
      <trkpt lat="45.6185" lon="6.60822">
        <ele>2067</ele>
        <time>2022-07-26T15:07:55Z</time>
      </trkpt>
      <trkpt lat="45.61849" lon="6.60822">
        <ele>2067</ele>
        <time>2022-07-26T15:07:56Z</time>
      </trkpt>
      <trkpt lat="45.61848" lon="6.60822">
        <ele>2067</ele>
        <time>2022-07-26T15:07:57Z</time>
      </trkpt>
      <trkpt lat="45.61847" lon="6.60823">
        <ele>2067</ele>
        <time>2022-07-26T15:07:58Z</time>
      </trkpt>
      <trkpt lat="45.61847" lon="6.60823">
        <ele>2067</ele>
        <time>2022-07-26T15:07:59Z</time>
      </trkpt>
      <trkpt lat="45.61846" lon="6.60824">
        <ele>2067</ele>
        <time>2022-07-26T15:08:00Z</time>
      </trkpt>
      <trkpt lat="45.61845" lon="6.60825">
        <ele>2067</ele>
        <time>2022-07-26T15:08:01Z</time>
      </trkpt>
      <trkpt lat="45.61844" lon="6.60826">
        <ele>2067</ele>
        <time>2022-07-26T15:08:02Z</time>
      </trkpt>
      <trkpt lat="45.61843" lon="6.60826">
        <ele>2068</ele>
        <time>2022-07-26T15:08:03Z</time>
      </trkpt>
      <trkpt lat="45.61842" lon="6.60827">
        <ele>2068</ele>
        <time>2022-07-26T15:08:04Z</time>
      </trkpt>
      <trkpt lat="45.61841" lon="6.60828">
        <ele>2068</ele>
        <time>2022-07-26T15:08:05Z</time>
      </trkpt>
      <trkpt lat="45.6184" lon="6.60829">
        <ele>2068</ele>
        <time>2022-07-26T15:08:06Z</time>
      </trkpt>
      <trkpt lat="45.61838" lon="6.6083">
        <ele>2068</ele>
        <time>2022-07-26T15:08:07Z</time>
      </trkpt>
      <trkpt lat="45.61837" lon="6.60831">
        <ele>2068</ele>
        <time>2022-07-26T15:08:08Z</time>
      </trkpt>
      <trkpt lat="45.61836" lon="6.60832">
        <ele>2068</ele>
        <time>2022-07-26T15:08:09Z</time>
      </trkpt>
      <trkpt lat="45.61835" lon="6.60833">
        <ele>2068</ele>
        <time>2022-07-26T15:08:10Z</time>
      </trkpt>
      <trkpt lat="45.61833" lon="6.60834">
        <ele>2068</ele>
        <time>2022-07-26T15:08:11Z</time>
      </trkpt>
      <trkpt lat="45.61832" lon="6.60835">
        <ele>2068</ele>
        <time>2022-07-26T15:08:12Z</time>
      </trkpt>
      <trkpt lat="45.61831" lon="6.60836">
        <ele>2068</ele>
        <time>2022-07-26T15:08:13Z</time>
      </trkpt>
      <trkpt lat="45.6183" lon="6.60837">
        <ele>2068</ele>
        <time>2022-07-26T15:08:14Z</time>
      </trkpt>
      <trkpt lat="45.61829" lon="6.60838">
        <ele>2068</ele>
        <time>2022-07-26T15:08:15Z</time>
      </trkpt>
      <trkpt lat="45.61827" lon="6.60839">
        <ele>2068</ele>
        <time>2022-07-26T15:08:16Z</time>
      </trkpt>
      <trkpt lat="45.61826" lon="6.60839">
        <ele>2068</ele>
        <time>2022-07-26T15:08:17Z</time>
      </trkpt>
      <trkpt lat="45.61825" lon="6.6084">
        <ele>2068</ele>
        <time>2022-07-26T15:08:18Z</time>
      </trkpt>
      <trkpt lat="45.61825" lon="6.60841">
        <ele>2068</ele>
        <time>2022-07-26T15:08:19Z</time>
      </trkpt>
      <trkpt lat="45.61824" lon="6.60842">
        <ele>2068</ele>
        <time>2022-07-26T15:08:20Z</time>
      </trkpt>
      <trkpt lat="45.61824" lon="6.60843">
        <ele>2068</ele>
        <time>2022-07-26T15:08:21Z</time>
      </trkpt>
      <trkpt lat="45.61824" lon="6.60844">
        <ele>2068</ele>
        <time>2022-07-26T15:08:22Z</time>
      </trkpt>
      <trkpt lat="45.61824" lon="6.60845">
        <ele>2068</ele>
        <time>2022-07-26T15:08:23Z</time>
      </trkpt>
      <trkpt lat="45.61825" lon="6.60846">
        <ele>2067</ele>
        <time>2022-07-26T15:08:24Z</time>
      </trkpt>
      <trkpt lat="45.61825" lon="6.60849">
        <ele>2067</ele>
        <time>2022-07-26T15:09:49Z</time>
      </trkpt>
      <trkpt lat="45.61826" lon="6.60851">
        <ele>2067</ele>
        <time>2022-07-26T15:09:50Z</time>
      </trkpt>
      <trkpt lat="45.61826" lon="6.60853">
        <ele>2067</ele>
        <time>2022-07-26T15:09:51Z</time>
      </trkpt>
      <trkpt lat="45.61825" lon="6.60853">
        <ele>2067</ele>
        <time>2022-07-26T15:09:52Z</time>
      </trkpt>
      <trkpt lat="45.61825" lon="6.60854">
        <ele>2067</ele>
        <time>2022-07-26T15:09:53Z</time>
      </trkpt>
      <trkpt lat="45.61824" lon="6.60854">
        <ele>2067</ele>
        <time>2022-07-26T15:09:54Z</time>
      </trkpt>
      <trkpt lat="45.61823" lon="6.60855">
        <ele>2067</ele>
        <time>2022-07-26T15:09:55Z</time>
      </trkpt>
      <trkpt lat="45.61823" lon="6.60855">
        <ele>2067</ele>
        <time>2022-07-26T15:09:56Z</time>
      </trkpt>
      <trkpt lat="45.61822" lon="6.60855">
        <ele>2067</ele>
        <time>2022-07-26T15:09:57Z</time>
      </trkpt>
      <trkpt lat="45.61821" lon="6.60856">
        <ele>2067</ele>
        <time>2022-07-26T15:09:58Z</time>
      </trkpt>
      <trkpt lat="45.6182" lon="6.60856">
        <ele>2067</ele>
        <time>2022-07-26T15:09:59Z</time>
      </trkpt>
      <trkpt lat="45.6182" lon="6.60856">
        <ele>2067</ele>
        <time>2022-07-26T15:10:00Z</time>
      </trkpt>
      <trkpt lat="45.61819" lon="6.60856">
        <ele>2067</ele>
        <time>2022-07-26T15:10:01Z</time>
      </trkpt>
      <trkpt lat="45.61818" lon="6.60857">
        <ele>2067</ele>
        <time>2022-07-26T15:10:02Z</time>
      </trkpt>
      <trkpt lat="45.61817" lon="6.60857">
        <ele>2067</ele>
        <time>2022-07-26T15:10:03Z</time>
      </trkpt>
      <trkpt lat="45.61816" lon="6.60857">
        <ele>2067</ele>
        <time>2022-07-26T15:10:32Z</time>
      </trkpt>
      <trkpt lat="45.61815" lon="6.60857">
        <ele>2067</ele>
        <time>2022-07-26T15:10:33Z</time>
      </trkpt>
      <trkpt lat="45.61815" lon="6.60857">
        <ele>2067</ele>
        <time>2022-07-26T15:10:34Z</time>
      </trkpt>
      <trkpt lat="45.61814" lon="6.60857">
        <ele>2067</ele>
        <time>2022-07-26T15:10:35Z</time>
      </trkpt>
      <trkpt lat="45.61814" lon="6.60857">
        <ele>2067</ele>
        <time>2022-07-26T15:10:36Z</time>
      </trkpt>
      <trkpt lat="45.61813" lon="6.60856">
        <ele>2067</ele>
        <time>2022-07-26T15:10:37Z</time>
      </trkpt>
      <trkpt lat="45.61812" lon="6.60856">
        <ele>2067</ele>
        <time>2022-07-26T15:10:38Z</time>
      </trkpt>
      <trkpt lat="45.61811" lon="6.60856">
        <ele>2067</ele>
        <time>2022-07-26T15:10:39Z</time>
      </trkpt>
      <trkpt lat="45.6181" lon="6.60857">
        <ele>2067</ele>
        <time>2022-07-26T15:10:40Z</time>
      </trkpt>
      <trkpt lat="45.61809" lon="6.60857">
        <ele>2067</ele>
        <time>2022-07-26T15:10:41Z</time>
      </trkpt>
      <trkpt lat="45.61808" lon="6.60858">
        <ele>2067</ele>
        <time>2022-07-26T15:10:42Z</time>
      </trkpt>
      <trkpt lat="45.61807" lon="6.60859">
        <ele>2067</ele>
        <time>2022-07-26T15:10:43Z</time>
      </trkpt>
      <trkpt lat="45.61806" lon="6.6086">
        <ele>2067</ele>
        <time>2022-07-26T15:10:44Z</time>
      </trkpt>
      <trkpt lat="45.61806" lon="6.60862">
        <ele>2067</ele>
        <time>2022-07-26T15:10:45Z</time>
      </trkpt>
      <trkpt lat="45.61805" lon="6.60863">
        <ele>2067</ele>
        <time>2022-07-26T15:10:46Z</time>
      </trkpt>
      <trkpt lat="45.61805" lon="6.60864">
        <ele>2067</ele>
        <time>2022-07-26T15:10:47Z</time>
      </trkpt>
      <trkpt lat="45.61804" lon="6.60866">
        <ele>2067</ele>
        <time>2022-07-26T15:10:48Z</time>
      </trkpt>
      <trkpt lat="45.61804" lon="6.60867">
        <ele>2067</ele>
        <time>2022-07-26T15:10:49Z</time>
      </trkpt>
      <trkpt lat="45.61803" lon="6.60869">
        <ele>2067</ele>
        <time>2022-07-26T15:10:50Z</time>
      </trkpt>
      <trkpt lat="45.61803" lon="6.6087">
        <ele>2067</ele>
        <time>2022-07-26T15:10:51Z</time>
      </trkpt>
      <trkpt lat="45.61802" lon="6.60871">
        <ele>2067</ele>
        <time>2022-07-26T15:10:52Z</time>
      </trkpt>
      <trkpt lat="45.61802" lon="6.60872">
        <ele>2067</ele>
        <time>2022-07-26T15:10:53Z</time>
      </trkpt>
      <trkpt lat="45.61801" lon="6.60873">
        <ele>2066</ele>
        <time>2022-07-26T15:10:54Z</time>
      </trkpt>
      <trkpt lat="45.61801" lon="6.60874">
        <ele>2066</ele>
        <time>2022-07-26T15:10:55Z</time>
      </trkpt>
      <trkpt lat="45.618" lon="6.60875">
        <ele>2065</ele>
        <time>2022-07-26T15:10:56Z</time>
      </trkpt>
      <trkpt lat="45.618" lon="6.60876">
        <ele>2065</ele>
        <time>2022-07-26T15:10:57Z</time>
      </trkpt>
      <trkpt lat="45.61799" lon="6.60877">
        <ele>2065</ele>
        <time>2022-07-26T15:10:58Z</time>
      </trkpt>
      <trkpt lat="45.61799" lon="6.60878">
        <ele>2065</ele>
        <time>2022-07-26T15:10:59Z</time>
      </trkpt>
      <trkpt lat="45.61798" lon="6.60879">
        <ele>2065</ele>
        <time>2022-07-26T15:11:00Z</time>
      </trkpt>
      <trkpt lat="45.61798" lon="6.6088">
        <ele>2065</ele>
        <time>2022-07-26T15:11:01Z</time>
      </trkpt>
      <trkpt lat="45.61797" lon="6.60881">
        <ele>2065</ele>
        <time>2022-07-26T15:11:02Z</time>
      </trkpt>
      <trkpt lat="45.61796" lon="6.60882">
        <ele>2065</ele>
        <time>2022-07-26T15:11:03Z</time>
      </trkpt>
      <trkpt lat="45.61795" lon="6.60883">
        <ele>2064</ele>
        <time>2022-07-26T15:11:04Z</time>
      </trkpt>
      <trkpt lat="45.61794" lon="6.60884">
        <ele>2064</ele>
        <time>2022-07-26T15:11:05Z</time>
      </trkpt>
      <trkpt lat="45.61793" lon="6.60885">
        <ele>2064</ele>
        <time>2022-07-26T15:11:06Z</time>
      </trkpt>
      <trkpt lat="45.61792" lon="6.60886">
        <ele>2064</ele>
        <time>2022-07-26T15:11:07Z</time>
      </trkpt>
      <trkpt lat="45.61791" lon="6.60887">
        <ele>2064</ele>
        <time>2022-07-26T15:11:08Z</time>
      </trkpt>
      <trkpt lat="45.6179" lon="6.60888">
        <ele>2064</ele>
        <time>2022-07-26T15:11:09Z</time>
      </trkpt>
      <trkpt lat="45.6179" lon="6.60889">
        <ele>2064</ele>
        <time>2022-07-26T15:11:10Z</time>
      </trkpt>
      <trkpt lat="45.61789" lon="6.6089">
        <ele>2064</ele>
        <time>2022-07-26T15:11:11Z</time>
      </trkpt>
      <trkpt lat="45.61788" lon="6.60892">
        <ele>2064</ele>
        <time>2022-07-26T15:11:12Z</time>
      </trkpt>
      <trkpt lat="45.61787" lon="6.60893">
        <ele>2064</ele>
        <time>2022-07-26T15:11:13Z</time>
      </trkpt>
      <trkpt lat="45.61786" lon="6.60893">
        <ele>2064</ele>
        <time>2022-07-26T15:11:14Z</time>
      </trkpt>
      <trkpt lat="45.61785" lon="6.60894">
        <ele>2064</ele>
        <time>2022-07-26T15:11:15Z</time>
      </trkpt>
      <trkpt lat="45.61784" lon="6.60895">
        <ele>2064</ele>
        <time>2022-07-26T15:11:16Z</time>
      </trkpt>
      <trkpt lat="45.61783" lon="6.60896">
        <ele>2064</ele>
        <time>2022-07-26T15:11:17Z</time>
      </trkpt>
      <trkpt lat="45.61783" lon="6.60897">
        <ele>2064</ele>
        <time>2022-07-26T15:11:18Z</time>
      </trkpt>
      <trkpt lat="45.61782" lon="6.60898">
        <ele>2063</ele>
        <time>2022-07-26T15:11:19Z</time>
      </trkpt>
      <trkpt lat="45.61781" lon="6.60898">
        <ele>2063</ele>
        <time>2022-07-26T15:11:20Z</time>
      </trkpt>
      <trkpt lat="45.61781" lon="6.60899">
        <ele>2063</ele>
        <time>2022-07-26T15:11:21Z</time>
      </trkpt>
      <trkpt lat="45.6178" lon="6.609">
        <ele>2063</ele>
        <time>2022-07-26T15:11:22Z</time>
      </trkpt>
      <trkpt lat="45.61779" lon="6.609">
        <ele>2063</ele>
        <time>2022-07-26T15:11:23Z</time>
      </trkpt>
      <trkpt lat="45.61778" lon="6.60901">
        <ele>2063</ele>
        <time>2022-07-26T15:11:24Z</time>
      </trkpt>
      <trkpt lat="45.61778" lon="6.60902">
        <ele>2063</ele>
        <time>2022-07-26T15:11:25Z</time>
      </trkpt>
      <trkpt lat="45.61777" lon="6.60903">
        <ele>2063</ele>
        <time>2022-07-26T15:11:26Z</time>
      </trkpt>
      <trkpt lat="45.61776" lon="6.60903">
        <ele>2063</ele>
        <time>2022-07-26T15:11:27Z</time>
      </trkpt>
      <trkpt lat="45.61775" lon="6.60904">
        <ele>2063</ele>
        <time>2022-07-26T15:11:28Z</time>
      </trkpt>
      <trkpt lat="45.61774" lon="6.60905">
        <ele>2063</ele>
        <time>2022-07-26T15:11:29Z</time>
      </trkpt>
      <trkpt lat="45.61773" lon="6.60906">
        <ele>2063</ele>
        <time>2022-07-26T15:11:30Z</time>
      </trkpt>
      <trkpt lat="45.61772" lon="6.60907">
        <ele>2063</ele>
        <time>2022-07-26T15:11:31Z</time>
      </trkpt>
      <trkpt lat="45.61771" lon="6.60908">
        <ele>2063</ele>
        <time>2022-07-26T15:11:32Z</time>
      </trkpt>
      <trkpt lat="45.6177" lon="6.60909">
        <ele>2063</ele>
        <time>2022-07-26T15:11:33Z</time>
      </trkpt>
      <trkpt lat="45.61769" lon="6.6091">
        <ele>2062</ele>
        <time>2022-07-26T15:11:34Z</time>
      </trkpt>
      <trkpt lat="45.61769" lon="6.60912">
        <ele>2062</ele>
        <time>2022-07-26T15:11:35Z</time>
      </trkpt>
      <trkpt lat="45.61768" lon="6.60913">
        <ele>2062</ele>
        <time>2022-07-26T15:11:36Z</time>
      </trkpt>
      <trkpt lat="45.61768" lon="6.60914">
        <ele>2062</ele>
        <time>2022-07-26T15:11:37Z</time>
      </trkpt>
      <trkpt lat="45.61767" lon="6.60915">
        <ele>2062</ele>
        <time>2022-07-26T15:11:38Z</time>
      </trkpt>
      <trkpt lat="45.61766" lon="6.60916">
        <ele>2061</ele>
        <time>2022-07-26T15:11:39Z</time>
      </trkpt>
      <trkpt lat="45.61766" lon="6.60917">
        <ele>2061</ele>
        <time>2022-07-26T15:11:40Z</time>
      </trkpt>
      <trkpt lat="45.61765" lon="6.60919">
        <ele>2061</ele>
        <time>2022-07-26T15:11:41Z</time>
      </trkpt>
      <trkpt lat="45.61765" lon="6.6092">
        <ele>2061</ele>
        <time>2022-07-26T15:11:42Z</time>
      </trkpt>
      <trkpt lat="45.61764" lon="6.60921">
        <ele>2061</ele>
        <time>2022-07-26T15:11:43Z</time>
      </trkpt>
      <trkpt lat="45.61764" lon="6.60922">
        <ele>2060</ele>
        <time>2022-07-26T15:11:44Z</time>
      </trkpt>
      <trkpt lat="45.61763" lon="6.60923">
        <ele>2060</ele>
        <time>2022-07-26T15:11:45Z</time>
      </trkpt>
      <trkpt lat="45.61763" lon="6.60924">
        <ele>2060</ele>
        <time>2022-07-26T15:11:46Z</time>
      </trkpt>
      <trkpt lat="45.61762" lon="6.60925">
        <ele>2060</ele>
        <time>2022-07-26T15:11:47Z</time>
      </trkpt>
      <trkpt lat="45.61762" lon="6.60927">
        <ele>2060</ele>
        <time>2022-07-26T15:11:48Z</time>
      </trkpt>
      <trkpt lat="45.61761" lon="6.60928">
        <ele>2059</ele>
        <time>2022-07-26T15:11:49Z</time>
      </trkpt>
      <trkpt lat="45.6176" lon="6.60929">
        <ele>2059</ele>
        <time>2022-07-26T15:11:50Z</time>
      </trkpt>
      <trkpt lat="45.6176" lon="6.60931">
        <ele>2057</ele>
        <time>2022-07-26T15:12:00Z</time>
      </trkpt>
      <trkpt lat="45.61759" lon="6.60932">
        <ele>2057</ele>
        <time>2022-07-26T15:12:01Z</time>
      </trkpt>
      <trkpt lat="45.61759" lon="6.60933">
        <ele>2057</ele>
        <time>2022-07-26T15:12:02Z</time>
      </trkpt>
      <trkpt lat="45.61759" lon="6.60934">
        <ele>2057</ele>
        <time>2022-07-26T15:12:03Z</time>
      </trkpt>
      <trkpt lat="45.61758" lon="6.60935">
        <ele>2056</ele>
        <time>2022-07-26T15:12:04Z</time>
      </trkpt>
      <trkpt lat="45.61758" lon="6.60936">
        <ele>2056</ele>
        <time>2022-07-26T15:12:05Z</time>
      </trkpt>
      <trkpt lat="45.61757" lon="6.60937">
        <ele>2056</ele>
        <time>2022-07-26T15:12:06Z</time>
      </trkpt>
      <trkpt lat="45.61756" lon="6.60938">
        <ele>2056</ele>
        <time>2022-07-26T15:12:07Z</time>
      </trkpt>
      <trkpt lat="45.61756" lon="6.60939">
        <ele>2056</ele>
        <time>2022-07-26T15:12:08Z</time>
      </trkpt>
      <trkpt lat="45.61755" lon="6.6094">
        <ele>2056</ele>
        <time>2022-07-26T15:12:09Z</time>
      </trkpt>
      <trkpt lat="45.61754" lon="6.6094">
        <ele>2056</ele>
        <time>2022-07-26T15:12:10Z</time>
      </trkpt>
      <trkpt lat="45.61754" lon="6.6094">
        <ele>2056</ele>
        <time>2022-07-26T15:12:11Z</time>
      </trkpt>
      <trkpt lat="45.61753" lon="6.60941">
        <ele>2056</ele>
        <time>2022-07-26T15:12:12Z</time>
      </trkpt>
      <trkpt lat="45.61752" lon="6.60941">
        <ele>2056</ele>
        <time>2022-07-26T15:12:13Z</time>
      </trkpt>
      <trkpt lat="45.61751" lon="6.6094">
        <ele>2055</ele>
        <time>2022-07-26T15:12:14Z</time>
      </trkpt>
      <trkpt lat="45.6175" lon="6.6094">
        <ele>2055</ele>
        <time>2022-07-26T15:12:15Z</time>
      </trkpt>
      <trkpt lat="45.6175" lon="6.60939">
        <ele>2055</ele>
        <time>2022-07-26T15:12:16Z</time>
      </trkpt>
      <trkpt lat="45.61749" lon="6.60938">
        <ele>2055</ele>
        <time>2022-07-26T15:12:17Z</time>
      </trkpt>
      <trkpt lat="45.61748" lon="6.60937">
        <ele>2055</ele>
        <time>2022-07-26T15:12:18Z</time>
      </trkpt>
      <trkpt lat="45.61748" lon="6.60937">
        <ele>2055</ele>
        <time>2022-07-26T15:12:19Z</time>
      </trkpt>
      <trkpt lat="45.61748" lon="6.60936">
        <ele>2055</ele>
        <time>2022-07-26T15:12:20Z</time>
      </trkpt>
      <trkpt lat="45.61747" lon="6.60935">
        <ele>2055</ele>
        <time>2022-07-26T15:12:21Z</time>
      </trkpt>
      <trkpt lat="45.61746" lon="6.60934">
        <ele>2055</ele>
        <time>2022-07-26T15:12:22Z</time>
      </trkpt>
      <trkpt lat="45.61745" lon="6.60934">
        <ele>2055</ele>
        <time>2022-07-26T15:12:23Z</time>
      </trkpt>
      <trkpt lat="45.61745" lon="6.60933">
        <ele>2054</ele>
        <time>2022-07-26T15:12:24Z</time>
      </trkpt>
      <trkpt lat="45.61743" lon="6.60933">
        <ele>2054</ele>
        <time>2022-07-26T15:12:25Z</time>
      </trkpt>
      <trkpt lat="45.61742" lon="6.60933">
        <ele>2054</ele>
        <time>2022-07-26T15:12:26Z</time>
      </trkpt>
      <trkpt lat="45.61741" lon="6.60934">
        <ele>2054</ele>
        <time>2022-07-26T15:12:27Z</time>
      </trkpt>
      <trkpt lat="45.6174" lon="6.60934">
        <ele>2054</ele>
        <time>2022-07-26T15:12:28Z</time>
      </trkpt>
      <trkpt lat="45.61739" lon="6.60936">
        <ele>2055</ele>
        <time>2022-07-26T15:12:39Z</time>
      </trkpt>
      <trkpt lat="45.61738" lon="6.60936">
        <ele>2055</ele>
        <time>2022-07-26T15:12:40Z</time>
      </trkpt>
      <trkpt lat="45.61737" lon="6.60937">
        <ele>2055</ele>
        <time>2022-07-26T15:12:41Z</time>
      </trkpt>
      <trkpt lat="45.61736" lon="6.60938">
        <ele>2055</ele>
        <time>2022-07-26T15:12:42Z</time>
      </trkpt>
      <trkpt lat="45.61735" lon="6.60938">
        <ele>2056</ele>
        <time>2022-07-26T15:12:43Z</time>
      </trkpt>
      <trkpt lat="45.61734" lon="6.60937">
        <ele>2056</ele>
        <time>2022-07-26T15:12:44Z</time>
      </trkpt>
      <trkpt lat="45.61733" lon="6.60937">
        <ele>2056</ele>
        <time>2022-07-26T15:12:45Z</time>
      </trkpt>
      <trkpt lat="45.61733" lon="6.60936">
        <ele>2056</ele>
        <time>2022-07-26T15:12:46Z</time>
      </trkpt>
      <trkpt lat="45.61732" lon="6.60935">
        <ele>2056</ele>
        <time>2022-07-26T15:12:47Z</time>
      </trkpt>
      <trkpt lat="45.61732" lon="6.60934">
        <ele>2056</ele>
        <time>2022-07-26T15:12:48Z</time>
      </trkpt>
      <trkpt lat="45.61731" lon="6.60933">
        <ele>2056</ele>
        <time>2022-07-26T15:12:49Z</time>
      </trkpt>
      <trkpt lat="45.61731" lon="6.60932">
        <ele>2056</ele>
        <time>2022-07-26T15:12:50Z</time>
      </trkpt>
      <trkpt lat="45.6173" lon="6.60931">
        <ele>2056</ele>
        <time>2022-07-26T15:12:51Z</time>
      </trkpt>
      <trkpt lat="45.6173" lon="6.6093">
        <ele>2056</ele>
        <time>2022-07-26T15:12:52Z</time>
      </trkpt>
      <trkpt lat="45.6173" lon="6.60928">
        <ele>2056</ele>
        <time>2022-07-26T15:12:53Z</time>
      </trkpt>
      <trkpt lat="45.61729" lon="6.60928">
        <ele>2056</ele>
        <time>2022-07-26T15:12:54Z</time>
      </trkpt>
      <trkpt lat="45.61728" lon="6.60927">
        <ele>2056</ele>
        <time>2022-07-26T15:12:55Z</time>
      </trkpt>
      <trkpt lat="45.61728" lon="6.60926">
        <ele>2056</ele>
        <time>2022-07-26T15:12:56Z</time>
      </trkpt>
      <trkpt lat="45.61727" lon="6.60926">
        <ele>2056</ele>
        <time>2022-07-26T15:12:57Z</time>
      </trkpt>
      <trkpt lat="45.61726" lon="6.60925">
        <ele>2056</ele>
        <time>2022-07-26T15:12:58Z</time>
      </trkpt>
      <trkpt lat="45.61726" lon="6.60925">
        <ele>2056</ele>
        <time>2022-07-26T15:12:59Z</time>
      </trkpt>
      <trkpt lat="45.61725" lon="6.60925">
        <ele>2056</ele>
        <time>2022-07-26T15:13:00Z</time>
      </trkpt>
      <trkpt lat="45.61724" lon="6.60925">
        <ele>2056</ele>
        <time>2022-07-26T15:13:01Z</time>
      </trkpt>
      <trkpt lat="45.61723" lon="6.60925">
        <ele>2056</ele>
        <time>2022-07-26T15:13:02Z</time>
      </trkpt>
      <trkpt lat="45.61722" lon="6.60925">
        <ele>2056</ele>
        <time>2022-07-26T15:13:03Z</time>
      </trkpt>
      <trkpt lat="45.61722" lon="6.60924">
        <ele>2056</ele>
        <time>2022-07-26T15:13:04Z</time>
      </trkpt>
      <trkpt lat="45.61721" lon="6.60923">
        <ele>2056</ele>
        <time>2022-07-26T15:13:05Z</time>
      </trkpt>
      <trkpt lat="45.6172" lon="6.60923">
        <ele>2056</ele>
        <time>2022-07-26T15:13:06Z</time>
      </trkpt>
      <trkpt lat="45.6172" lon="6.60922">
        <ele>2056</ele>
        <time>2022-07-26T15:13:07Z</time>
      </trkpt>
      <trkpt lat="45.61719" lon="6.60921">
        <ele>2057</ele>
        <time>2022-07-26T15:13:08Z</time>
      </trkpt>
      <trkpt lat="45.61718" lon="6.60921">
        <ele>2057</ele>
        <time>2022-07-26T15:13:09Z</time>
      </trkpt>
      <trkpt lat="45.61718" lon="6.60921">
        <ele>2057</ele>
        <time>2022-07-26T15:13:10Z</time>
      </trkpt>
      <trkpt lat="45.61717" lon="6.6092">
        <ele>2057</ele>
        <time>2022-07-26T15:13:11Z</time>
      </trkpt>
      <trkpt lat="45.61715" lon="6.6092">
        <ele>2058</ele>
        <time>2022-07-26T15:13:19Z</time>
      </trkpt>
      <trkpt lat="45.61715" lon="6.6092">
        <ele>2058</ele>
        <time>2022-07-26T15:13:20Z</time>
      </trkpt>
      <trkpt lat="45.61714" lon="6.6092">
        <ele>2058</ele>
        <time>2022-07-26T15:13:21Z</time>
      </trkpt>
      <trkpt lat="45.61713" lon="6.6092">
        <ele>2058</ele>
        <time>2022-07-26T15:13:22Z</time>
      </trkpt>
      <trkpt lat="45.61713" lon="6.6092">
        <ele>2058</ele>
        <time>2022-07-26T15:13:23Z</time>
      </trkpt>
      <trkpt lat="45.61712" lon="6.60921">
        <ele>2058</ele>
        <time>2022-07-26T15:13:24Z</time>
      </trkpt>
      <trkpt lat="45.61711" lon="6.60921">
        <ele>2058</ele>
        <time>2022-07-26T15:13:25Z</time>
      </trkpt>
      <trkpt lat="45.61711" lon="6.60922">
        <ele>2058</ele>
        <time>2022-07-26T15:13:26Z</time>
      </trkpt>
      <trkpt lat="45.6171" lon="6.60923">
        <ele>2058</ele>
        <time>2022-07-26T15:13:27Z</time>
      </trkpt>
      <trkpt lat="45.61709" lon="6.60924">
        <ele>2058</ele>
        <time>2022-07-26T15:13:28Z</time>
      </trkpt>
      <trkpt lat="45.61708" lon="6.60924">
        <ele>2058</ele>
        <time>2022-07-26T15:13:29Z</time>
      </trkpt>
      <trkpt lat="45.61707" lon="6.60924">
        <ele>2059</ele>
        <time>2022-07-26T15:13:41Z</time>
      </trkpt>
      <trkpt lat="45.61706" lon="6.60924">
        <ele>2059</ele>
        <time>2022-07-26T15:13:42Z</time>
      </trkpt>
      <trkpt lat="45.61706" lon="6.60924">
        <ele>2060</ele>
        <time>2022-07-26T15:13:43Z</time>
      </trkpt>
      <trkpt lat="45.61705" lon="6.60924">
        <ele>2060</ele>
        <time>2022-07-26T15:13:44Z</time>
      </trkpt>
      <trkpt lat="45.61705" lon="6.60923">
        <ele>2060</ele>
        <time>2022-07-26T15:13:45Z</time>
      </trkpt>
      <trkpt lat="45.61704" lon="6.60923">
        <ele>2060</ele>
        <time>2022-07-26T15:13:46Z</time>
      </trkpt>
      <trkpt lat="45.61704" lon="6.60923">
        <ele>2060</ele>
        <time>2022-07-26T15:13:47Z</time>
      </trkpt>
      <trkpt lat="45.61703" lon="6.60923">
        <ele>2060</ele>
        <time>2022-07-26T15:13:48Z</time>
      </trkpt>
      <trkpt lat="45.61703" lon="6.60922">
        <ele>2060</ele>
        <time>2022-07-26T15:13:49Z</time>
      </trkpt>
      <trkpt lat="45.61703" lon="6.60922">
        <ele>2060</ele>
        <time>2022-07-26T15:13:50Z</time>
      </trkpt>
      <trkpt lat="45.61703" lon="6.60922">
        <ele>2060</ele>
        <time>2022-07-26T15:13:51Z</time>
      </trkpt>
      <trkpt lat="45.61702" lon="6.60921">
        <ele>2060</ele>
        <time>2022-07-26T15:13:52Z</time>
      </trkpt>
      <trkpt lat="45.61701" lon="6.60921">
        <ele>2060</ele>
        <time>2022-07-26T15:13:53Z</time>
      </trkpt>
      <trkpt lat="45.61701" lon="6.60921">
        <ele>2060</ele>
        <time>2022-07-26T15:13:54Z</time>
      </trkpt>
      <trkpt lat="45.617" lon="6.60921">
        <ele>2060</ele>
        <time>2022-07-26T15:13:55Z</time>
      </trkpt>
      <trkpt lat="45.61699" lon="6.60921">
        <ele>2060</ele>
        <time>2022-07-26T15:13:56Z</time>
      </trkpt>
      <trkpt lat="45.61698" lon="6.60921">
        <ele>2060</ele>
        <time>2022-07-26T15:13:57Z</time>
      </trkpt>
      <trkpt lat="45.61696" lon="6.60921">
        <ele>2061</ele>
        <time>2022-07-26T15:14:03Z</time>
      </trkpt>
      <trkpt lat="45.61696" lon="6.6092">
        <ele>2061</ele>
        <time>2022-07-26T15:14:04Z</time>
      </trkpt>
      <trkpt lat="45.61695" lon="6.6092">
        <ele>2061</ele>
        <time>2022-07-26T15:14:05Z</time>
      </trkpt>
      <trkpt lat="45.61695" lon="6.60921">
        <ele>2061</ele>
        <time>2022-07-26T15:14:06Z</time>
      </trkpt>
      <trkpt lat="45.61694" lon="6.60921">
        <ele>2061</ele>
        <time>2022-07-26T15:14:07Z</time>
      </trkpt>
      <trkpt lat="45.61693" lon="6.60921">
        <ele>2062</ele>
        <time>2022-07-26T15:14:08Z</time>
      </trkpt>
      <trkpt lat="45.61693" lon="6.60922">
        <ele>2062</ele>
        <time>2022-07-26T15:14:09Z</time>
      </trkpt>
      <trkpt lat="45.61692" lon="6.60923">
        <ele>2062</ele>
        <time>2022-07-26T15:14:10Z</time>
      </trkpt>
      <trkpt lat="45.61691" lon="6.60923">
        <ele>2062</ele>
        <time>2022-07-26T15:14:11Z</time>
      </trkpt>
      <trkpt lat="45.6169" lon="6.60924">
        <ele>2062</ele>
        <time>2022-07-26T15:14:12Z</time>
      </trkpt>
      <trkpt lat="45.61689" lon="6.60925">
        <ele>2062</ele>
        <time>2022-07-26T15:14:13Z</time>
      </trkpt>
      <trkpt lat="45.61688" lon="6.60926">
        <ele>2062</ele>
        <time>2022-07-26T15:14:14Z</time>
      </trkpt>
      <trkpt lat="45.61688" lon="6.60927">
        <ele>2062</ele>
        <time>2022-07-26T15:14:15Z</time>
      </trkpt>
      <trkpt lat="45.61687" lon="6.60928">
        <ele>2062</ele>
        <time>2022-07-26T15:14:16Z</time>
      </trkpt>
      <trkpt lat="45.61687" lon="6.60929">
        <ele>2062</ele>
        <time>2022-07-26T15:14:17Z</time>
      </trkpt>
      <trkpt lat="45.61686" lon="6.60931">
        <ele>2062</ele>
        <time>2022-07-26T15:14:18Z</time>
      </trkpt>
      <trkpt lat="45.61686" lon="6.60932">
        <ele>2062</ele>
        <time>2022-07-26T15:14:19Z</time>
      </trkpt>
      <trkpt lat="45.61685" lon="6.60933">
        <ele>2062</ele>
        <time>2022-07-26T15:14:20Z</time>
      </trkpt>
      <trkpt lat="45.61684" lon="6.60934">
        <ele>2062</ele>
        <time>2022-07-26T15:14:21Z</time>
      </trkpt>
      <trkpt lat="45.61683" lon="6.60935">
        <ele>2062</ele>
        <time>2022-07-26T15:14:22Z</time>
      </trkpt>
      <trkpt lat="45.61683" lon="6.60936">
        <ele>2063</ele>
        <time>2022-07-26T15:14:23Z</time>
      </trkpt>
      <trkpt lat="45.61682" lon="6.60937">
        <ele>2063</ele>
        <time>2022-07-26T15:14:24Z</time>
      </trkpt>
      <trkpt lat="45.61682" lon="6.60939">
        <ele>2063</ele>
        <time>2022-07-26T15:14:25Z</time>
      </trkpt>
      <trkpt lat="45.61681" lon="6.6094">
        <ele>2063</ele>
        <time>2022-07-26T15:14:26Z</time>
      </trkpt>
      <trkpt lat="45.61681" lon="6.60941">
        <ele>2063</ele>
        <time>2022-07-26T15:14:27Z</time>
      </trkpt>
      <trkpt lat="45.6168" lon="6.60943">
        <ele>2063</ele>
        <time>2022-07-26T15:14:28Z</time>
      </trkpt>
      <trkpt lat="45.6168" lon="6.60944">
        <ele>2063</ele>
        <time>2022-07-26T15:14:29Z</time>
      </trkpt>
      <trkpt lat="45.61679" lon="6.60945">
        <ele>2063</ele>
        <time>2022-07-26T15:14:30Z</time>
      </trkpt>
      <trkpt lat="45.61679" lon="6.60946">
        <ele>2063</ele>
        <time>2022-07-26T15:14:31Z</time>
      </trkpt>
      <trkpt lat="45.61679" lon="6.60947">
        <ele>2063</ele>
        <time>2022-07-26T15:14:32Z</time>
      </trkpt>
      <trkpt lat="45.61678" lon="6.60948">
        <ele>2064</ele>
        <time>2022-07-26T15:14:33Z</time>
      </trkpt>
      <trkpt lat="45.61677" lon="6.60949">
        <ele>2064</ele>
        <time>2022-07-26T15:14:34Z</time>
      </trkpt>
      <trkpt lat="45.61677" lon="6.6095">
        <ele>2064</ele>
        <time>2022-07-26T15:14:35Z</time>
      </trkpt>
      <trkpt lat="45.61676" lon="6.6095">
        <ele>2064</ele>
        <time>2022-07-26T15:14:36Z</time>
      </trkpt>
      <trkpt lat="45.61675" lon="6.60951">
        <ele>2064</ele>
        <time>2022-07-26T15:14:37Z</time>
      </trkpt>
      <trkpt lat="45.61675" lon="6.60952">
        <ele>2065</ele>
        <time>2022-07-26T15:14:38Z</time>
      </trkpt>
      <trkpt lat="45.61674" lon="6.60952">
        <ele>2065</ele>
        <time>2022-07-26T15:14:39Z</time>
      </trkpt>
      <trkpt lat="45.61673" lon="6.60953">
        <ele>2065</ele>
        <time>2022-07-26T15:14:40Z</time>
      </trkpt>
      <trkpt lat="45.61672" lon="6.60953">
        <ele>2066</ele>
        <time>2022-07-26T15:14:41Z</time>
      </trkpt>
      <trkpt lat="45.61671" lon="6.60954">
        <ele>2066</ele>
        <time>2022-07-26T15:14:42Z</time>
      </trkpt>
      <trkpt lat="45.6167" lon="6.60955">
        <ele>2067</ele>
        <time>2022-07-26T15:14:43Z</time>
      </trkpt>
      <trkpt lat="45.61669" lon="6.60955">
        <ele>2067</ele>
        <time>2022-07-26T15:14:44Z</time>
      </trkpt>
      <trkpt lat="45.61668" lon="6.60956">
        <ele>2067</ele>
        <time>2022-07-26T15:14:45Z</time>
      </trkpt>
      <trkpt lat="45.61668" lon="6.60956">
        <ele>2067</ele>
        <time>2022-07-26T15:14:46Z</time>
      </trkpt>
      <trkpt lat="45.61667" lon="6.60957">
        <ele>2067</ele>
        <time>2022-07-26T15:14:47Z</time>
      </trkpt>
      <trkpt lat="45.61666" lon="6.60958">
        <ele>2068</ele>
        <time>2022-07-26T15:14:48Z</time>
      </trkpt>
      <trkpt lat="45.61665" lon="6.60958">
        <ele>2068</ele>
        <time>2022-07-26T15:14:49Z</time>
      </trkpt>
      <trkpt lat="45.61665" lon="6.60959">
        <ele>2068</ele>
        <time>2022-07-26T15:14:50Z</time>
      </trkpt>
      <trkpt lat="45.61664" lon="6.60959">
        <ele>2068</ele>
        <time>2022-07-26T15:14:51Z</time>
      </trkpt>
      <trkpt lat="45.61664" lon="6.6096">
        <ele>2068</ele>
        <time>2022-07-26T15:14:52Z</time>
      </trkpt>
      <trkpt lat="45.61663" lon="6.6096">
        <ele>2068</ele>
        <time>2022-07-26T15:14:53Z</time>
      </trkpt>
      <trkpt lat="45.61663" lon="6.6096">
        <ele>2068</ele>
        <time>2022-07-26T15:14:54Z</time>
      </trkpt>
      <trkpt lat="45.61663" lon="6.6096">
        <ele>2068</ele>
        <time>2022-07-26T15:14:55Z</time>
      </trkpt>
      <trkpt lat="45.61662" lon="6.6096">
        <ele>2068</ele>
        <time>2022-07-26T15:14:56Z</time>
      </trkpt>
      <trkpt lat="45.61661" lon="6.6096">
        <ele>2068</ele>
        <time>2022-07-26T15:14:57Z</time>
      </trkpt>
      <trkpt lat="45.61661" lon="6.6096">
        <ele>2068</ele>
        <time>2022-07-26T15:14:58Z</time>
      </trkpt>
      <trkpt lat="45.6166" lon="6.6096">
        <ele>2068</ele>
        <time>2022-07-26T15:14:59Z</time>
      </trkpt>
      <trkpt lat="45.61659" lon="6.6096">
        <ele>2068</ele>
        <time>2022-07-26T15:15:00Z</time>
      </trkpt>
      <trkpt lat="45.61659" lon="6.6096">
        <ele>2068</ele>
        <time>2022-07-26T15:15:01Z</time>
      </trkpt>
      <trkpt lat="45.61658" lon="6.6096">
        <ele>2068</ele>
        <time>2022-07-26T15:15:02Z</time>
      </trkpt>
      <trkpt lat="45.61657" lon="6.6096">
        <ele>2069</ele>
        <time>2022-07-26T15:15:03Z</time>
      </trkpt>
      <trkpt lat="45.61656" lon="6.60961">
        <ele>2069</ele>
        <time>2022-07-26T15:15:04Z</time>
      </trkpt>
      <trkpt lat="45.61656" lon="6.60961">
        <ele>2069</ele>
        <time>2022-07-26T15:15:05Z</time>
      </trkpt>
      <trkpt lat="45.61655" lon="6.60962">
        <ele>2069</ele>
        <time>2022-07-26T15:15:06Z</time>
      </trkpt>
      <trkpt lat="45.61654" lon="6.60962">
        <ele>2069</ele>
        <time>2022-07-26T15:15:07Z</time>
      </trkpt>
      <trkpt lat="45.61653" lon="6.60963">
        <ele>2070</ele>
        <time>2022-07-26T15:15:08Z</time>
      </trkpt>
      <trkpt lat="45.61652" lon="6.60963">
        <ele>2070</ele>
        <time>2022-07-26T15:15:09Z</time>
      </trkpt>
      <trkpt lat="45.61652" lon="6.60963">
        <ele>2070</ele>
        <time>2022-07-26T15:15:10Z</time>
      </trkpt>
      <trkpt lat="45.61651" lon="6.60964">
        <ele>2070</ele>
        <time>2022-07-26T15:15:11Z</time>
      </trkpt>
      <trkpt lat="45.6165" lon="6.60964">
        <ele>2070</ele>
        <time>2022-07-26T15:15:12Z</time>
      </trkpt>
      <trkpt lat="45.61649" lon="6.60965">
        <ele>2070</ele>
        <time>2022-07-26T15:15:13Z</time>
      </trkpt>
      <trkpt lat="45.61649" lon="6.60965">
        <ele>2070</ele>
        <time>2022-07-26T15:15:14Z</time>
      </trkpt>
      <trkpt lat="45.61648" lon="6.60966">
        <ele>2070</ele>
        <time>2022-07-26T15:15:15Z</time>
      </trkpt>
      <trkpt lat="45.61647" lon="6.60966">
        <ele>2071</ele>
        <time>2022-07-26T15:15:16Z</time>
      </trkpt>
      <trkpt lat="45.61646" lon="6.60967">
        <ele>2071</ele>
        <time>2022-07-26T15:15:17Z</time>
      </trkpt>
      <trkpt lat="45.61646" lon="6.60967">
        <ele>2072</ele>
        <time>2022-07-26T15:15:18Z</time>
      </trkpt>
      <trkpt lat="45.61645" lon="6.60968">
        <ele>2072</ele>
        <time>2022-07-26T15:15:19Z</time>
      </trkpt>
      <trkpt lat="45.61644" lon="6.60969">
        <ele>2072</ele>
        <time>2022-07-26T15:15:20Z</time>
      </trkpt>
      <trkpt lat="45.61643" lon="6.60969">
        <ele>2072</ele>
        <time>2022-07-26T15:15:21Z</time>
      </trkpt>
      <trkpt lat="45.61643" lon="6.6097">
        <ele>2072</ele>
        <time>2022-07-26T15:15:22Z</time>
      </trkpt>
      <trkpt lat="45.61642" lon="6.60971">
        <ele>2073</ele>
        <time>2022-07-26T15:15:23Z</time>
      </trkpt>
      <trkpt lat="45.61642" lon="6.60971">
        <ele>2073</ele>
        <time>2022-07-26T15:15:24Z</time>
      </trkpt>
      <trkpt lat="45.61641" lon="6.60972">
        <ele>2073</ele>
        <time>2022-07-26T15:15:25Z</time>
      </trkpt>
      <trkpt lat="45.61641" lon="6.60972">
        <ele>2073</ele>
        <time>2022-07-26T15:15:26Z</time>
      </trkpt>
      <trkpt lat="45.6164" lon="6.60973">
        <ele>2073</ele>
        <time>2022-07-26T15:15:27Z</time>
      </trkpt>
      <trkpt lat="45.61639" lon="6.60974">
        <ele>2074</ele>
        <time>2022-07-26T15:15:28Z</time>
      </trkpt>
      <trkpt lat="45.61639" lon="6.60974">
        <ele>2074</ele>
        <time>2022-07-26T15:15:29Z</time>
      </trkpt>
      <trkpt lat="45.61638" lon="6.60975">
        <ele>2074</ele>
        <time>2022-07-26T15:15:30Z</time>
      </trkpt>
      <trkpt lat="45.61638" lon="6.60976">
        <ele>2075</ele>
        <time>2022-07-26T15:15:31Z</time>
      </trkpt>
      <trkpt lat="45.61637" lon="6.60976">
        <ele>2075</ele>
        <time>2022-07-26T15:15:32Z</time>
      </trkpt>
      <trkpt lat="45.61636" lon="6.60977">
        <ele>2076</ele>
        <time>2022-07-26T15:15:33Z</time>
      </trkpt>
      <trkpt lat="45.61635" lon="6.60978">
        <ele>2076</ele>
        <time>2022-07-26T15:15:34Z</time>
      </trkpt>
      <trkpt lat="45.61635" lon="6.60978">
        <ele>2076</ele>
        <time>2022-07-26T15:15:35Z</time>
      </trkpt>
      <trkpt lat="45.61634" lon="6.60979">
        <ele>2077</ele>
        <time>2022-07-26T15:15:36Z</time>
      </trkpt>
      <trkpt lat="45.61633" lon="6.60979">
        <ele>2077</ele>
        <time>2022-07-26T15:15:37Z</time>
      </trkpt>
      <trkpt lat="45.61632" lon="6.6098">
        <ele>2078</ele>
        <time>2022-07-26T15:15:38Z</time>
      </trkpt>
      <trkpt lat="45.61632" lon="6.6098">
        <ele>2078</ele>
        <time>2022-07-26T15:15:39Z</time>
      </trkpt>
      <trkpt lat="45.61631" lon="6.6098">
        <ele>2078</ele>
        <time>2022-07-26T15:15:40Z</time>
      </trkpt>
      <trkpt lat="45.6163" lon="6.6098">
        <ele>2078</ele>
        <time>2022-07-26T15:15:41Z</time>
      </trkpt>
      <trkpt lat="45.61629" lon="6.6098">
        <ele>2078</ele>
        <time>2022-07-26T15:15:42Z</time>
      </trkpt>
      <trkpt lat="45.61628" lon="6.60979">
        <ele>2079</ele>
        <time>2022-07-26T15:15:43Z</time>
      </trkpt>
      <trkpt lat="45.61627" lon="6.60979">
        <ele>2079</ele>
        <time>2022-07-26T15:15:44Z</time>
      </trkpt>
      <trkpt lat="45.61626" lon="6.60979">
        <ele>2079</ele>
        <time>2022-07-26T15:15:45Z</time>
      </trkpt>
      <trkpt lat="45.61625" lon="6.60978">
        <ele>2080</ele>
        <time>2022-07-26T15:15:46Z</time>
      </trkpt>
      <trkpt lat="45.61624" lon="6.60978">
        <ele>2080</ele>
        <time>2022-07-26T15:15:47Z</time>
      </trkpt>
      <trkpt lat="45.61623" lon="6.60977">
        <ele>2081</ele>
        <time>2022-07-26T15:15:48Z</time>
      </trkpt>
      <trkpt lat="45.61622" lon="6.60977">
        <ele>2081</ele>
        <time>2022-07-26T15:15:49Z</time>
      </trkpt>
      <trkpt lat="45.61621" lon="6.60976">
        <ele>2081</ele>
        <time>2022-07-26T15:15:50Z</time>
      </trkpt>
      <trkpt lat="45.6162" lon="6.60976">
        <ele>2081</ele>
        <time>2022-07-26T15:15:51Z</time>
      </trkpt>
      <trkpt lat="45.61619" lon="6.60976">
        <ele>2081</ele>
        <time>2022-07-26T15:15:52Z</time>
      </trkpt>
      <trkpt lat="45.61618" lon="6.60975">
        <ele>2082</ele>
        <time>2022-07-26T15:15:53Z</time>
      </trkpt>
      <trkpt lat="45.61617" lon="6.60975">
        <ele>2082</ele>
        <time>2022-07-26T15:15:54Z</time>
      </trkpt>
      <trkpt lat="45.61616" lon="6.60975">
        <ele>2082</ele>
        <time>2022-07-26T15:15:55Z</time>
      </trkpt>
      <trkpt lat="45.61615" lon="6.60975">
        <ele>2082</ele>
        <time>2022-07-26T15:15:56Z</time>
      </trkpt>
      <trkpt lat="45.61614" lon="6.60974">
        <ele>2082</ele>
        <time>2022-07-26T15:15:57Z</time>
      </trkpt>
      <trkpt lat="45.61613" lon="6.60974">
        <ele>2082</ele>
        <time>2022-07-26T15:15:58Z</time>
      </trkpt>
      <trkpt lat="45.61612" lon="6.60973">
        <ele>2082</ele>
        <time>2022-07-26T15:15:59Z</time>
      </trkpt>
      <trkpt lat="45.61611" lon="6.60973">
        <ele>2082</ele>
        <time>2022-07-26T15:16:00Z</time>
      </trkpt>
      <trkpt lat="45.6161" lon="6.60973">
        <ele>2082</ele>
        <time>2022-07-26T15:16:01Z</time>
      </trkpt>
      <trkpt lat="45.61609" lon="6.60973">
        <ele>2082</ele>
        <time>2022-07-26T15:16:02Z</time>
      </trkpt>
      <trkpt lat="45.61609" lon="6.60973">
        <ele>2083</ele>
        <time>2022-07-26T15:16:03Z</time>
      </trkpt>
      <trkpt lat="45.61608" lon="6.60973">
        <ele>2083</ele>
        <time>2022-07-26T15:16:04Z</time>
      </trkpt>
      <trkpt lat="45.61607" lon="6.60973">
        <ele>2083</ele>
        <time>2022-07-26T15:16:05Z</time>
      </trkpt>
      <trkpt lat="45.61606" lon="6.60974">
        <ele>2083</ele>
        <time>2022-07-26T15:16:06Z</time>
      </trkpt>
      <trkpt lat="45.61606" lon="6.60974">
        <ele>2083</ele>
        <time>2022-07-26T15:16:07Z</time>
      </trkpt>
      <trkpt lat="45.61605" lon="6.60974">
        <ele>2083</ele>
        <time>2022-07-26T15:16:08Z</time>
      </trkpt>
      <trkpt lat="45.61604" lon="6.60974">
        <ele>2083</ele>
        <time>2022-07-26T15:16:09Z</time>
      </trkpt>
      <trkpt lat="45.61603" lon="6.60973">
        <ele>2083</ele>
        <time>2022-07-26T15:16:10Z</time>
      </trkpt>
      <trkpt lat="45.61602" lon="6.60972">
        <ele>2083</ele>
        <time>2022-07-26T15:16:11Z</time>
      </trkpt>
      <trkpt lat="45.61601" lon="6.60972">
        <ele>2083</ele>
        <time>2022-07-26T15:16:12Z</time>
      </trkpt>
      <trkpt lat="45.61601" lon="6.60971">
        <ele>2083</ele>
        <time>2022-07-26T15:16:13Z</time>
      </trkpt>
      <trkpt lat="45.61601" lon="6.6097">
        <ele>2083</ele>
        <time>2022-07-26T15:16:14Z</time>
      </trkpt>
      <trkpt lat="45.61601" lon="6.60971">
        <ele>2083</ele>
        <time>2022-07-26T15:16:15Z</time>
      </trkpt>
      <trkpt lat="45.61601" lon="6.60971">
        <ele>2083</ele>
        <time>2022-07-26T15:16:16Z</time>
      </trkpt>
      <trkpt lat="45.61602" lon="6.60972">
        <ele>2083</ele>
        <time>2022-07-26T15:16:17Z</time>
      </trkpt>
      <trkpt lat="45.61602" lon="6.60973">
        <ele>2083</ele>
        <time>2022-07-26T15:16:18Z</time>
      </trkpt>
      <trkpt lat="45.61603" lon="6.60974">
        <ele>2083</ele>
        <time>2022-07-26T15:16:19Z</time>
      </trkpt>
      <trkpt lat="45.61604" lon="6.60976">
        <ele>2083</ele>
        <time>2022-07-26T15:16:20Z</time>
      </trkpt>
      <trkpt lat="45.61604" lon="6.60977">
        <ele>2083</ele>
        <time>2022-07-26T15:16:21Z</time>
      </trkpt>
      <trkpt lat="45.61605" lon="6.60978">
        <ele>2083</ele>
        <time>2022-07-26T15:16:22Z</time>
      </trkpt>
      <trkpt lat="45.61606" lon="6.60979">
        <ele>2084</ele>
        <time>2022-07-26T15:16:23Z</time>
      </trkpt>
      <trkpt lat="45.61606" lon="6.6098">
        <ele>2083</ele>
        <time>2022-07-26T15:16:24Z</time>
      </trkpt>
      <trkpt lat="45.61607" lon="6.6098">
        <ele>2083</ele>
        <time>2022-07-26T15:16:25Z</time>
      </trkpt>
      <trkpt lat="45.61608" lon="6.60981">
        <ele>2083</ele>
        <time>2022-07-26T15:16:26Z</time>
      </trkpt>
      <trkpt lat="45.61609" lon="6.60981">
        <ele>2083</ele>
        <time>2022-07-26T15:16:27Z</time>
      </trkpt>
      <trkpt lat="45.6161" lon="6.60981">
        <ele>2083</ele>
        <time>2022-07-26T15:16:28Z</time>
      </trkpt>
      <trkpt lat="45.6161" lon="6.60981">
        <ele>2083</ele>
        <time>2022-07-26T15:16:29Z</time>
      </trkpt>
      <trkpt lat="45.61611" lon="6.60981">
        <ele>2083</ele>
        <time>2022-07-26T15:16:30Z</time>
      </trkpt>
      <trkpt lat="45.61611" lon="6.60982">
        <ele>2083</ele>
        <time>2022-07-26T15:16:31Z</time>
      </trkpt>
      <trkpt lat="45.61612" lon="6.60982">
        <ele>2083</ele>
        <time>2022-07-26T15:16:32Z</time>
      </trkpt>
      <trkpt lat="45.61613" lon="6.60982">
        <ele>2083</ele>
        <time>2022-07-26T15:16:33Z</time>
      </trkpt>
      <trkpt lat="45.61614" lon="6.60983">
        <ele>2083</ele>
        <time>2022-07-26T15:16:34Z</time>
      </trkpt>
      <trkpt lat="45.61615" lon="6.60983">
        <ele>2083</ele>
        <time>2022-07-26T15:16:35Z</time>
      </trkpt>
      <trkpt lat="45.61615" lon="6.60984">
        <ele>2083</ele>
        <time>2022-07-26T15:16:36Z</time>
      </trkpt>
      <trkpt lat="45.61616" lon="6.60985">
        <ele>2082</ele>
        <time>2022-07-26T15:16:43Z</time>
      </trkpt>
      <trkpt lat="45.61616" lon="6.60985">
        <ele>2082</ele>
        <time>2022-07-26T15:16:44Z</time>
      </trkpt>
      <trkpt lat="45.61617" lon="6.60986">
        <ele>2082</ele>
        <time>2022-07-26T15:16:45Z</time>
      </trkpt>
      <trkpt lat="45.61617" lon="6.60986">
        <ele>2082</ele>
        <time>2022-07-26T15:16:46Z</time>
      </trkpt>
      <trkpt lat="45.61616" lon="6.60986">
        <ele>2082</ele>
        <time>2022-07-26T15:16:47Z</time>
      </trkpt>
      <trkpt lat="45.61617" lon="6.60985">
        <ele>2082</ele>
        <time>2022-07-26T15:16:48Z</time>
      </trkpt>
      <trkpt lat="45.61617" lon="6.60985">
        <ele>2082</ele>
        <time>2022-07-26T15:16:49Z</time>
      </trkpt>
      <trkpt lat="45.61617" lon="6.60984">
        <ele>2082</ele>
        <time>2022-07-26T15:16:50Z</time>
      </trkpt>
      <trkpt lat="45.61618" lon="6.60983">
        <ele>2082</ele>
        <time>2022-07-26T15:16:51Z</time>
      </trkpt>
      <trkpt lat="45.61619" lon="6.60983">
        <ele>2082</ele>
        <time>2022-07-26T15:16:52Z</time>
      </trkpt>
      <trkpt lat="45.61619" lon="6.60982">
        <ele>2082</ele>
        <time>2022-07-26T15:16:53Z</time>
      </trkpt>
      <trkpt lat="45.6162" lon="6.60981">
        <ele>2082</ele>
        <time>2022-07-26T15:16:54Z</time>
      </trkpt>
      <trkpt lat="45.6162" lon="6.60981">
        <ele>2082</ele>
        <time>2022-07-26T15:16:55Z</time>
      </trkpt>
      <trkpt lat="45.61621" lon="6.6098">
        <ele>2082</ele>
        <time>2022-07-26T15:16:56Z</time>
      </trkpt>
      <trkpt lat="45.61622" lon="6.6098">
        <ele>2082</ele>
        <time>2022-07-26T15:16:57Z</time>
      </trkpt>
      <trkpt lat="45.61622" lon="6.6098">
        <ele>2082</ele>
        <time>2022-07-26T15:16:58Z</time>
      </trkpt>
      <trkpt lat="45.61623" lon="6.60979">
        <ele>2082</ele>
        <time>2022-07-26T15:16:59Z</time>
      </trkpt>
      <trkpt lat="45.61624" lon="6.60979">
        <ele>2082</ele>
        <time>2022-07-26T15:17:00Z</time>
      </trkpt>
      <trkpt lat="45.61625" lon="6.60979">
        <ele>2082</ele>
        <time>2022-07-26T15:17:01Z</time>
      </trkpt>
      <trkpt lat="45.61626" lon="6.60979">
        <ele>2082</ele>
        <time>2022-07-26T15:17:02Z</time>
      </trkpt>
      <trkpt lat="45.61627" lon="6.60979">
        <ele>2082</ele>
        <time>2022-07-26T15:17:03Z</time>
      </trkpt>
      <trkpt lat="45.61628" lon="6.6098">
        <ele>2082</ele>
        <time>2022-07-26T15:17:04Z</time>
      </trkpt>
      <trkpt lat="45.61629" lon="6.60981">
        <ele>2082</ele>
        <time>2022-07-26T15:17:05Z</time>
      </trkpt>
      <trkpt lat="45.61629" lon="6.60983">
        <ele>2082</ele>
        <time>2022-07-26T15:17:06Z</time>
      </trkpt>
      <trkpt lat="45.6163" lon="6.60984">
        <ele>2082</ele>
        <time>2022-07-26T15:17:07Z</time>
      </trkpt>
      <trkpt lat="45.6163" lon="6.60986">
        <ele>2082</ele>
        <time>2022-07-26T15:17:08Z</time>
      </trkpt>
      <trkpt lat="45.6163" lon="6.60988">
        <ele>2082</ele>
        <time>2022-07-26T15:17:09Z</time>
      </trkpt>
      <trkpt lat="45.6163" lon="6.60989">
        <ele>2082</ele>
        <time>2022-07-26T15:17:10Z</time>
      </trkpt>
      <trkpt lat="45.61631" lon="6.60991">
        <ele>2082</ele>
        <time>2022-07-26T15:17:11Z</time>
      </trkpt>
      <trkpt lat="45.61631" lon="6.60991">
        <ele>2082</ele>
        <time>2022-07-26T15:17:12Z</time>
      </trkpt>
      <trkpt lat="45.61631" lon="6.60991">
        <ele>2082</ele>
        <time>2022-07-26T15:17:13Z</time>
      </trkpt>
      <trkpt lat="45.61631" lon="6.60992">
        <ele>2082</ele>
        <time>2022-07-26T15:17:14Z</time>
      </trkpt>
      <trkpt lat="45.61632" lon="6.60992">
        <ele>2082</ele>
        <time>2022-07-26T15:17:15Z</time>
      </trkpt>
      <trkpt lat="45.61632" lon="6.60992">
        <ele>2082</ele>
        <time>2022-07-26T15:17:16Z</time>
      </trkpt>
      <trkpt lat="45.61634" lon="6.60991">
        <ele>2082</ele>
        <time>2022-07-26T15:17:17Z</time>
      </trkpt>
      <trkpt lat="45.61635" lon="6.6099">
        <ele>2082</ele>
        <time>2022-07-26T15:17:18Z</time>
      </trkpt>
    </trkseg>
  </trk>
</gpx>